<?xml version='1.0' encoding='UTF-8'?><gpx version="1.1" creator="JPX - https://github.com/jenetics/jpx" xmlns="http://www.topografix.com/GPX/1/1"><trk><trkseg><trkpt lat="40.4570133" lon="9.0729333"><ele>408.8333333333333</ele><time>2026-04-30T09:06:19.785Z</time></trkpt><trkpt lat="40.4571283" lon="9.0729533"><ele>409.66666666666663</ele><time>2026-04-30T09:06:21.787Z</time></trkpt><trkpt lat="40.4571933" lon="9.0729583"><ele>410.5</ele><time>2026-04-30T09:06:22.786Z</time></trkpt><trkpt lat="40.4572583" lon="9.072955"><ele>411.3333333333333</ele><time>2026-04-30T09:06:23.783Z</time></trkpt><trkpt lat="40.4573267" lon="9.0729383"><ele>412.16666666666663</ele><time>2026-04-30T09:06:24.787Z</time></trkpt><trkpt lat="40.4574117" lon="9.0728983"><ele>413.0</ele><time>2026-04-30T09:06:25.787Z</time></trkpt><trkpt lat="40.4575017" lon="9.0728467"><ele>412.99999999999994</ele><time>2026-04-30T09:06:26.787Z</time></trkpt><trkpt lat="40.4575867" lon="9.072795"><ele>413.0</ele><time>2026-04-30T09:06:27.784Z</time></trkpt><trkpt lat="40.4576683" lon="9.0727433"><ele>413.0</ele><time>2026-04-30T09:06:28.783Z</time></trkpt><trkpt lat="40.4577433" lon="9.0726783"><ele>413.0</ele><time>2026-04-30T09:06:29.782Z</time></trkpt><trkpt lat="40.4578067" lon="9.0726033"><ele>412.99999999999994</ele><time>2026-04-30T09:06:30.784Z</time></trkpt><trkpt lat="40.4578717" lon="9.0725217"><ele>413.0</ele><time>2026-04-30T09:06:31.785Z</time></trkpt><trkpt lat="40.4579417" lon="9.0724367"><ele>413.0</ele><time>2026-04-30T09:06:32.784Z</time></trkpt><trkpt lat="40.4580083" lon="9.072345"><ele>413.0</ele><time>2026-04-30T09:06:33.789Z</time></trkpt><trkpt lat="40.4580733" lon="9.0722533"><ele>413.0</ele><time>2026-04-30T09:06:34.784Z</time></trkpt><trkpt lat="40.4581433" lon="9.0721667"><ele>413.0</ele><time>2026-04-30T09:06:35.786Z</time></trkpt><trkpt lat="40.45821" lon="9.0720867"><ele>413.0</ele><time>2026-04-30T09:06:36.785Z</time></trkpt><trkpt lat="40.4582833" lon="9.0720133"><ele>412.99999999999994</ele><time>2026-04-30T09:06:37.787Z</time></trkpt><trkpt lat="40.458365" lon="9.071945"><ele>413.0</ele><time>2026-04-30T09:06:38.782Z</time></trkpt><trkpt lat="40.4584433" lon="9.0718883"><ele>413.0</ele><time>2026-04-30T09:06:39.786Z</time></trkpt><trkpt lat="40.4585267" lon="9.0718433"><ele>413.0</ele><time>2026-04-30T09:06:40.784Z</time></trkpt><trkpt lat="40.4586033" lon="9.071815"><ele>412.99999999999994</ele><time>2026-04-30T09:06:41.781Z</time></trkpt><trkpt lat="40.4586783" lon="9.0717967"><ele>413.0</ele><time>2026-04-30T09:06:42.786Z</time></trkpt><trkpt lat="40.4587583" lon="9.0718017"><ele>412.66666666666663</ele><time>2026-04-30T09:06:43.786Z</time></trkpt><trkpt lat="40.4588367" lon="9.071815"><ele>412.3333333333333</ele><time>2026-04-30T09:06:44.785Z</time></trkpt><trkpt lat="40.45892" lon="9.07183"><ele>412.0</ele><time>2026-04-30T09:06:45.787Z</time></trkpt><trkpt lat="40.4590033" lon="9.0718567"><ele>411.66666666666663</ele><time>2026-04-30T09:06:46.782Z</time></trkpt><trkpt lat="40.4590817" lon="9.0718917"><ele>411.3333333333333</ele><time>2026-04-30T09:06:47.787Z</time></trkpt><trkpt lat="40.45916" lon="9.071935"><ele>411.0</ele><time>2026-04-30T09:06:48.785Z</time></trkpt><trkpt lat="40.45924" lon="9.0719833"><ele>411.0</ele><time>2026-04-30T09:06:49.787Z</time></trkpt><trkpt lat="40.4593167" lon="9.0720317"><ele>411.0</ele><time>2026-04-30T09:06:50.784Z</time></trkpt><trkpt lat="40.4593933" lon="9.0720833"><ele>411.0</ele><time>2026-04-30T09:06:51.782Z</time></trkpt><trkpt lat="40.4594667" lon="9.0721433"><ele>411.0</ele><time>2026-04-30T09:06:52.785Z</time></trkpt><trkpt lat="40.459545" lon="9.0722067"><ele>411.0</ele><time>2026-04-30T09:06:53.783Z</time></trkpt><trkpt lat="40.4596267" lon="9.0722783"><ele>411.0</ele><time>2026-04-30T09:06:54.783Z</time></trkpt><trkpt lat="40.4597117" lon="9.072355"><ele>411.20000000000005</ele><time>2026-04-30T09:06:55.785Z</time></trkpt><trkpt lat="40.459805" lon="9.07243"><ele>411.40000000000003</ele><time>2026-04-30T09:06:56.786Z</time></trkpt><trkpt lat="40.4598967" lon="9.0725067"><ele>411.6</ele><time>2026-04-30T09:06:57.786Z</time></trkpt><trkpt lat="40.45999" lon="9.0725883"><ele>411.8</ele><time>2026-04-30T09:06:58.785Z</time></trkpt><trkpt lat="40.4600867" lon="9.07266"><ele>412.0</ele><time>2026-04-30T09:06:59.786Z</time></trkpt><trkpt lat="40.4601883" lon="9.0727333"><ele>412.0</ele><time>2026-04-30T09:07:00.786Z</time></trkpt><trkpt lat="40.4602817" lon="9.0728117"><ele>412.0</ele><time>2026-04-30T09:07:01.79Z</time></trkpt><trkpt lat="40.4603633" lon="9.0728933"><ele>412.0</ele><time>2026-04-30T09:07:02.783Z</time></trkpt><trkpt lat="40.4604417" lon="9.0729767"><ele>412.0</ele><time>2026-04-30T09:07:03.781Z</time></trkpt><trkpt lat="40.4605083" lon="9.0730683"><ele>412.0</ele><time>2026-04-30T09:07:04.783Z</time></trkpt><trkpt lat="40.46056" lon="9.07317"><ele>411.8</ele><time>2026-04-30T09:07:05.782Z</time></trkpt><trkpt lat="40.4606117" lon="9.0732717"><ele>411.6</ele><time>2026-04-30T09:07:06.781Z</time></trkpt><trkpt lat="40.460655" lon="9.0733833"><ele>411.40000000000003</ele><time>2026-04-30T09:07:07.785Z</time></trkpt><trkpt lat="40.4606917" lon="9.073505"><ele>411.20000000000005</ele><time>2026-04-30T09:07:08.787Z</time></trkpt><trkpt lat="40.4607183" lon="9.0736383"><ele>411.0</ele><time>2026-04-30T09:07:09.785Z</time></trkpt><trkpt lat="40.4607367" lon="9.0737833"><ele>411.0</ele><time>2026-04-30T09:07:10.783Z</time></trkpt><trkpt lat="40.4607483" lon="9.0739233"><ele>411.0</ele><time>2026-04-30T09:07:11.781Z</time></trkpt><trkpt lat="40.4607683" lon="9.0740533"><ele>411.0</ele><time>2026-04-30T09:07:12.786Z</time></trkpt><trkpt lat="40.4607967" lon="9.0741833"><ele>411.0</ele><time>2026-04-30T09:07:13.785Z</time></trkpt><trkpt lat="40.4608333" lon="9.074315"><ele>411.0</ele><time>2026-04-30T09:07:14.785Z</time></trkpt><trkpt lat="40.4608783" lon="9.0744433"><ele>410.0</ele><time>2026-04-30T09:07:15.786Z</time></trkpt><trkpt lat="40.4609233" lon="9.074575"><ele>409.0</ele><time>2026-04-30T09:07:16.785Z</time></trkpt><trkpt lat="40.4609717" lon="9.0747"><ele>408.0</ele><time>2026-04-30T09:07:17.783Z</time></trkpt><trkpt lat="40.4610233" lon="9.0748217"><ele>407.0</ele><time>2026-04-30T09:07:18.782Z</time></trkpt><trkpt lat="40.461075" lon="9.0749367"><ele>406.0</ele><time>2026-04-30T09:07:19.784Z</time></trkpt><trkpt lat="40.461135" lon="9.0750417"><ele>404.6</ele><time>2026-04-30T09:07:20.787Z</time></trkpt><trkpt lat="40.4612033" lon="9.07514"><ele>403.20000000000005</ele><time>2026-04-30T09:07:21.782Z</time></trkpt><trkpt lat="40.4612783" lon="9.075225"><ele>401.79999999999995</ele><time>2026-04-30T09:07:22.782Z</time></trkpt><trkpt lat="40.46136" lon="9.0753"><ele>400.4</ele><time>2026-04-30T09:07:23.785Z</time></trkpt><trkpt lat="40.4614533" lon="9.0753683"><ele>399.0</ele><time>2026-04-30T09:07:24.784Z</time></trkpt><trkpt lat="40.4615517" lon="9.07543"><ele>402.5</ele><time>2026-04-30T09:07:25.787Z</time></trkpt><trkpt lat="40.4616583" lon="9.0754883"><ele>406.0</ele><time>2026-04-30T09:07:26.784Z</time></trkpt><trkpt lat="40.461765" lon="9.0755433"><ele>409.5</ele><time>2026-04-30T09:07:27.786Z</time></trkpt><trkpt lat="40.4618717" lon="9.0755933"><ele>413.0</ele><time>2026-04-30T09:07:28.783Z</time></trkpt><trkpt lat="40.46198" lon="9.0756417"><ele>413.0</ele><time>2026-04-30T09:07:29.784Z</time></trkpt><trkpt lat="40.462085" lon="9.07569"><ele>413.0</ele><time>2026-04-30T09:07:30.781Z</time></trkpt><trkpt lat="40.46219" lon="9.075735"><ele>413.0</ele><time>2026-04-30T09:07:31.784Z</time></trkpt><trkpt lat="40.4622933" lon="9.0757733"><ele>413.0</ele><time>2026-04-30T09:07:32.782Z</time></trkpt><trkpt lat="40.462395" lon="9.0758033"><ele>413.0</ele><time>2026-04-30T09:07:33.785Z</time></trkpt><trkpt lat="40.4625" lon="9.075825"><ele>411.0</ele><time>2026-04-30T09:07:34.783Z</time></trkpt><trkpt lat="40.462605" lon="9.07583"><ele>409.0</ele><time>2026-04-30T09:07:35.785Z</time></trkpt><trkpt lat="40.462715" lon="9.0758267"><ele>407.0</ele><time>2026-04-30T09:07:36.786Z</time></trkpt><trkpt lat="40.4628167" lon="9.0758267"><ele>405.0</ele><time>2026-04-30T09:07:37.786Z</time></trkpt><trkpt lat="40.4629167" lon="9.075835"><ele>403.0</ele><time>2026-04-30T09:07:38.786Z</time></trkpt><trkpt lat="40.4630133" lon="9.07585"><ele>403.0</ele><time>2026-04-30T09:07:39.782Z</time></trkpt><trkpt lat="40.4630967" lon="9.0758767"><ele>403.0</ele><time>2026-04-30T09:07:40.783Z</time></trkpt><trkpt lat="40.46317" lon="9.0759133"><ele>403.0</ele><time>2026-04-30T09:07:41.781Z</time></trkpt><trkpt lat="40.463235" lon="9.0759483"><ele>403.0</ele><time>2026-04-30T09:07:42.785Z</time></trkpt><trkpt lat="40.463295" lon="9.0759833"><ele>403.0</ele><time>2026-04-30T09:07:43.785Z</time></trkpt><trkpt lat="40.463355" lon="9.0760167"><ele>403.0</ele><time>2026-04-30T09:07:44.782Z</time></trkpt><trkpt lat="40.46341" lon="9.07606"><ele>403.0</ele><time>2026-04-30T09:07:45.782Z</time></trkpt><trkpt lat="40.4634567" lon="9.0761167"><ele>403.0</ele><time>2026-04-30T09:07:46.782Z</time></trkpt><trkpt lat="40.4635" lon="9.0761783"><ele>403.0</ele><time>2026-04-30T09:07:47.782Z</time></trkpt><trkpt lat="40.4635383" lon="9.0762483"><ele>403.0</ele><time>2026-04-30T09:07:48.784Z</time></trkpt><trkpt lat="40.4635783" lon="9.076325"><ele>403.0</ele><time>2026-04-30T09:07:49.784Z</time></trkpt><trkpt lat="40.4636117" lon="9.0764067"><ele>403.0</ele><time>2026-04-30T09:07:50.785Z</time></trkpt><trkpt lat="40.46364" lon="9.0764967"><ele>403.0</ele><time>2026-04-30T09:07:51.782Z</time></trkpt><trkpt lat="40.4636633" lon="9.0765983"><ele>403.0</ele><time>2026-04-30T09:07:52.78Z</time></trkpt><trkpt lat="40.46368" lon="9.0767033"><ele>401.1666666666667</ele><time>2026-04-30T09:07:53.784Z</time></trkpt><trkpt lat="40.4636917" lon="9.0768117"><ele>399.33333333333337</ele><time>2026-04-30T09:07:54.78Z</time></trkpt><trkpt lat="40.4637017" lon="9.0769283"><ele>397.5</ele><time>2026-04-30T09:07:55.783Z</time></trkpt><trkpt lat="40.463705" lon="9.07705"><ele>395.66666666666663</ele><time>2026-04-30T09:07:56.78Z</time></trkpt><trkpt lat="40.4637083" lon="9.0771667"><ele>393.8333333333333</ele><time>2026-04-30T09:07:57.781Z</time></trkpt><trkpt lat="40.4637117" lon="9.077285"><ele>392.0</ele><time>2026-04-30T09:07:58.782Z</time></trkpt><trkpt lat="40.46372" lon="9.077395"><ele>391.3333333333333</ele><time>2026-04-30T09:07:59.786Z</time></trkpt><trkpt lat="40.4637333" lon="9.0775"><ele>390.66666666666663</ele><time>2026-04-30T09:08:00.784Z</time></trkpt><trkpt lat="40.463755" lon="9.0775983"><ele>390.0</ele><time>2026-04-30T09:08:01.783Z</time></trkpt><trkpt lat="40.4637833" lon="9.0776883"><ele>389.33333333333337</ele><time>2026-04-30T09:08:02.787Z</time></trkpt><trkpt lat="40.4638167" lon="9.0777717"><ele>388.6666666666667</ele><time>2026-04-30T09:08:03.784Z</time></trkpt><trkpt lat="40.4638583" lon="9.0778583"><ele>388.0</ele><time>2026-04-30T09:08:04.782Z</time></trkpt><trkpt lat="40.4639067" lon="9.0779333"><ele>389.7142857142857</ele><time>2026-04-30T09:08:05.785Z</time></trkpt><trkpt lat="40.4639583" lon="9.078"><ele>391.42857142857144</ele><time>2026-04-30T09:08:06.787Z</time></trkpt><trkpt lat="40.4640133" lon="9.0780583"><ele>393.14285714285717</ele><time>2026-04-30T09:08:07.785Z</time></trkpt><trkpt lat="40.4640717" lon="9.0781067"><ele>394.8571428571429</ele><time>2026-04-30T09:08:08.784Z</time></trkpt><trkpt lat="40.4641333" lon="9.07815"><ele>396.57142857142856</ele><time>2026-04-30T09:08:09.786Z</time></trkpt><trkpt lat="40.464205" lon="9.0781817"><ele>398.28571428571433</ele><time>2026-04-30T09:08:10.778Z</time></trkpt><trkpt lat="40.4642783" lon="9.0782"><ele>400.0</ele><time>2026-04-30T09:08:11.783Z</time></trkpt><trkpt lat="40.464355" lon="9.0782117"><ele>400.0</ele><time>2026-04-30T09:08:12.787Z</time></trkpt><trkpt lat="40.4644367" lon="9.0782183"><ele>400.0</ele><time>2026-04-30T09:08:13.784Z</time></trkpt><trkpt lat="40.464535" lon="9.0782167"><ele>400.0</ele><time>2026-04-30T09:08:14.786Z</time></trkpt><trkpt lat="40.4646433" lon="9.07821"><ele>400.0</ele><time>2026-04-30T09:08:15.785Z</time></trkpt><trkpt lat="40.4647383" lon="9.0782117"><ele>400.0</ele><time>2026-04-30T09:08:16.781Z</time></trkpt><trkpt lat="40.4648233" lon="9.078225"><ele>400.1666666666667</ele><time>2026-04-30T09:08:17.786Z</time></trkpt><trkpt lat="40.4648967" lon="9.0782667"><ele>400.33333333333337</ele><time>2026-04-30T09:08:18.783Z</time></trkpt><trkpt lat="40.46497" lon="9.0783167"><ele>400.5</ele><time>2026-04-30T09:08:19.785Z</time></trkpt><trkpt lat="40.4650483" lon="9.0783783"><ele>400.66666666666663</ele><time>2026-04-30T09:08:20.785Z</time></trkpt><trkpt lat="40.4651367" lon="9.0784417"><ele>400.8333333333333</ele><time>2026-04-30T09:08:21.782Z</time></trkpt><trkpt lat="40.46521" lon="9.0785133"><ele>401.0</ele><time>2026-04-30T09:08:22.786Z</time></trkpt><trkpt lat="40.4652733" lon="9.078605"><ele>398.66666666666663</ele><time>2026-04-30T09:08:23.784Z</time></trkpt><trkpt lat="40.4653183" lon="9.078695"><ele>396.3333333333333</ele><time>2026-04-30T09:08:24.786Z</time></trkpt><trkpt lat="40.4653483" lon="9.0787917"><ele>394.0</ele><time>2026-04-30T09:08:25.781Z</time></trkpt><trkpt lat="40.46537" lon="9.0788933"><ele>391.66666666666663</ele><time>2026-04-30T09:08:26.781Z</time></trkpt><trkpt lat="40.4653883" lon="9.0789983"><ele>389.3333333333333</ele><time>2026-04-30T09:08:27.784Z</time></trkpt><trkpt lat="40.4653933" lon="9.079105"><ele>387.0</ele><time>2026-04-30T09:08:28.782Z</time></trkpt><trkpt lat="40.465385" lon="9.07922"><ele>386.3333333333333</ele><time>2026-04-30T09:08:29.785Z</time></trkpt><trkpt lat="40.465365" lon="9.0793367"><ele>385.6666666666667</ele><time>2026-04-30T09:08:30.782Z</time></trkpt><trkpt lat="40.4653417" lon="9.0794483"><ele>385.0</ele><time>2026-04-30T09:08:31.781Z</time></trkpt><trkpt lat="40.46531" lon="9.079555"><ele>384.33333333333337</ele><time>2026-04-30T09:08:32.785Z</time></trkpt><trkpt lat="40.4652717" lon="9.0796567"><ele>383.6666666666667</ele><time>2026-04-30T09:08:33.786Z</time></trkpt><trkpt lat="40.465225" lon="9.0797583"><ele>383.0</ele><time>2026-04-30T09:08:34.784Z</time></trkpt><trkpt lat="40.4651667" lon="9.0798567"><ele>383.59999999999997</ele><time>2026-04-30T09:08:35.786Z</time></trkpt><trkpt lat="40.4650933" lon="9.0799533"><ele>384.2</ele><time>2026-04-30T09:08:36.788Z</time></trkpt><trkpt lat="40.4650167" lon="9.0800433"><ele>384.8</ele><time>2026-04-30T09:08:37.784Z</time></trkpt><trkpt lat="40.46495" lon="9.0801267"><ele>385.4</ele><time>2026-04-30T09:08:38.781Z</time></trkpt><trkpt lat="40.46488" lon="9.08021"><ele>386.0</ele><time>2026-04-30T09:08:39.784Z</time></trkpt><trkpt lat="40.464815" lon="9.0802983"><ele>386.0</ele><time>2026-04-30T09:08:40.784Z</time></trkpt><trkpt lat="40.4647433" lon="9.0803967"><ele>386.0</ele><time>2026-04-30T09:08:41.784Z</time></trkpt><trkpt lat="40.464685" lon="9.0805033"><ele>386.0</ele><time>2026-04-30T09:08:42.783Z</time></trkpt><trkpt lat="40.46464" lon="9.0806133"><ele>386.0</ele><time>2026-04-30T09:08:43.786Z</time></trkpt><trkpt lat="40.464605" lon="9.0807267"><ele>386.0</ele><time>2026-04-30T09:08:44.783Z</time></trkpt><trkpt lat="40.4645817" lon="9.0808367"><ele>383.0</ele><time>2026-04-30T09:08:45.782Z</time></trkpt><trkpt lat="40.4645617" lon="9.0809517"><ele>380.0</ele><time>2026-04-30T09:08:46.78Z</time></trkpt><trkpt lat="40.4645483" lon="9.081065"><ele>377.0</ele><time>2026-04-30T09:08:47.785Z</time></trkpt><trkpt lat="40.4645383" lon="9.08118"><ele>374.0</ele><time>2026-04-30T09:08:48.784Z</time></trkpt><trkpt lat="40.4645267" lon="9.081295"><ele>371.0</ele><time>2026-04-30T09:08:49.784Z</time></trkpt><trkpt lat="40.464525" lon="9.0814217"><ele>371.0</ele><time>2026-04-30T09:08:50.783Z</time></trkpt><trkpt lat="40.4645233" lon="9.0815533"><ele>371.0</ele><time>2026-04-30T09:08:51.784Z</time></trkpt><trkpt lat="40.4645267" lon="9.0816967"><ele>371.0</ele><time>2026-04-30T09:08:52.784Z</time></trkpt><trkpt lat="40.4645333" lon="9.0818267"><ele>371.0</ele><time>2026-04-30T09:08:53.785Z</time></trkpt><trkpt lat="40.4645583" lon="9.081955"><ele>371.0</ele><time>2026-04-30T09:08:54.785Z</time></trkpt><trkpt lat="40.4645883" lon="9.082075"><ele>372.0</ele><time>2026-04-30T09:08:55.782Z</time></trkpt><trkpt lat="40.464625" lon="9.0821817"><ele>373.0</ele><time>2026-04-30T09:08:56.786Z</time></trkpt><trkpt lat="40.4646717" lon="9.0822883"><ele>374.0</ele><time>2026-04-30T09:08:57.781Z</time></trkpt><trkpt lat="40.4647233" lon="9.0823933"><ele>375.0</ele><time>2026-04-30T09:08:58.783Z</time></trkpt><trkpt lat="40.4647867" lon="9.08249"><ele>376.0</ele><time>2026-04-30T09:08:59.786Z</time></trkpt><trkpt lat="40.46486" lon="9.082565"><ele>376.0</ele><time>2026-04-30T09:09:00.787Z</time></trkpt><trkpt lat="40.464935" lon="9.0826317"><ele>376.0</ele><time>2026-04-30T09:09:01.785Z</time></trkpt><trkpt lat="40.465015" lon="9.0826867"><ele>376.0</ele><time>2026-04-30T09:09:02.785Z</time></trkpt><trkpt lat="40.4651017" lon="9.0827267"><ele>376.0</ele><time>2026-04-30T09:09:03.786Z</time></trkpt><trkpt lat="40.4651933" lon="9.08275"><ele>376.0</ele><time>2026-04-30T09:09:04.786Z</time></trkpt><trkpt lat="40.4652833" lon="9.0827733"><ele>376.0</ele><time>2026-04-30T09:09:05.783Z</time></trkpt><trkpt lat="40.4653733" lon="9.0827917"><ele>376.0</ele><time>2026-04-30T09:09:06.785Z</time></trkpt><trkpt lat="40.46547" lon="9.0827983"><ele>376.0</ele><time>2026-04-30T09:09:07.781Z</time></trkpt><trkpt lat="40.4655567" lon="9.0828167"><ele>376.0</ele><time>2026-04-30T09:09:08.782Z</time></trkpt><trkpt lat="40.465645" lon="9.0828333"><ele>376.0</ele><time>2026-04-30T09:09:09.785Z</time></trkpt><trkpt lat="40.46571" lon="9.0828733"><ele>376.0</ele><time>2026-04-30T09:09:10.785Z</time></trkpt><trkpt lat="40.465805" lon="9.0828883"><ele>376.4</ele><time>2026-04-30T09:09:11.785Z</time></trkpt><trkpt lat="40.4659167" lon="9.08289"><ele>376.8</ele><time>2026-04-30T09:09:12.784Z</time></trkpt><trkpt lat="40.4660183" lon="9.0828933"><ele>377.2</ele><time>2026-04-30T09:09:13.785Z</time></trkpt><trkpt lat="40.4661133" lon="9.08291"><ele>377.59999999999997</ele><time>2026-04-30T09:09:14.782Z</time></trkpt><trkpt lat="40.4662083" lon="9.0829317"><ele>378.0</ele><time>2026-04-30T09:09:15.783Z</time></trkpt><trkpt lat="40.4662933" lon="9.08297"><ele>378.1666666666667</ele><time>2026-04-30T09:09:16.785Z</time></trkpt><trkpt lat="40.4663767" lon="9.083015"><ele>378.3333333333333</ele><time>2026-04-30T09:09:17.785Z</time></trkpt><trkpt lat="40.466455" lon="9.08307"><ele>378.5</ele><time>2026-04-30T09:09:18.783Z</time></trkpt><trkpt lat="40.4665267" lon="9.0831367"><ele>378.66666666666663</ele><time>2026-04-30T09:09:19.78Z</time></trkpt><trkpt lat="40.4665983" lon="9.08321"><ele>378.8333333333333</ele><time>2026-04-30T09:09:20.786Z</time></trkpt><trkpt lat="40.46666" lon="9.0832983"><ele>379.0</ele><time>2026-04-30T09:09:21.784Z</time></trkpt><trkpt lat="40.4667217" lon="9.0833967"><ele>377.4</ele><time>2026-04-30T09:09:22.78Z</time></trkpt><trkpt lat="40.4667717" lon="9.0835083"><ele>375.79999999999995</ele><time>2026-04-30T09:09:23.78Z</time></trkpt><trkpt lat="40.46681" lon="9.0836217"><ele>374.20000000000005</ele><time>2026-04-30T09:09:24.78Z</time></trkpt><trkpt lat="40.4668267" lon="9.08376"><ele>372.6</ele><time>2026-04-30T09:09:25.782Z</time></trkpt><trkpt lat="40.4668567" lon="9.0838667"><ele>371.0</ele><time>2026-04-30T09:09:26.785Z</time></trkpt><trkpt lat="40.4668567" lon="9.0839967"><ele>370.0</ele><time>2026-04-30T09:09:27.784Z</time></trkpt><trkpt lat="40.4668483" lon="9.084125"><ele>369.0</ele><time>2026-04-30T09:09:28.781Z</time></trkpt><trkpt lat="40.466835" lon="9.0842417"><ele>368.0</ele><time>2026-04-30T09:09:29.782Z</time></trkpt><trkpt lat="40.4668083" lon="9.0843583"><ele>367.0</ele><time>2026-04-30T09:09:30.783Z</time></trkpt><trkpt lat="40.4667717" lon="9.0844833"><ele>366.0</ele><time>2026-04-30T09:09:31.785Z</time></trkpt><trkpt lat="40.4667267" lon="9.0845983"><ele>366.0</ele><time>2026-04-30T09:09:32.782Z</time></trkpt><trkpt lat="40.4666633" lon="9.0847083"><ele>366.0</ele><time>2026-04-30T09:09:33.784Z</time></trkpt><trkpt lat="40.4665967" lon="9.08481"><ele>366.0</ele><time>2026-04-30T09:09:34.784Z</time></trkpt><trkpt lat="40.4665267" lon="9.08491"><ele>366.0</ele><time>2026-04-30T09:09:35.781Z</time></trkpt><trkpt lat="40.4664667" lon="9.0850183"><ele>366.0</ele><time>2026-04-30T09:09:36.78Z</time></trkpt><trkpt lat="40.4664117" lon="9.0851283"><ele>365.5</ele><time>2026-04-30T09:09:37.785Z</time></trkpt><trkpt lat="40.4663667" lon="9.08524"><ele>365.0</ele><time>2026-04-30T09:09:38.782Z</time></trkpt><trkpt lat="40.46633" lon="9.08534"><ele>364.5</ele><time>2026-04-30T09:09:39.782Z</time></trkpt><trkpt lat="40.4663033" lon="9.08545"><ele>364.0</ele><time>2026-04-30T09:09:40.782Z</time></trkpt><trkpt lat="40.466285" lon="9.0855567"><ele>363.5</ele><time>2026-04-30T09:09:41.781Z</time></trkpt><trkpt lat="40.4662667" lon="9.08567"><ele>363.0</ele><time>2026-04-30T09:09:42.784Z</time></trkpt><trkpt lat="40.4662567" lon="9.08578"><ele>363.0</ele><time>2026-04-30T09:09:43.782Z</time></trkpt><trkpt lat="40.4662633" lon="9.085885"><ele>363.0</ele><time>2026-04-30T09:09:44.785Z</time></trkpt><trkpt lat="40.4662767" lon="9.0859967"><ele>363.0</ele><time>2026-04-30T09:09:45.779Z</time></trkpt><trkpt lat="40.4663" lon="9.0861067"><ele>363.0</ele><time>2026-04-30T09:09:46.782Z</time></trkpt><trkpt lat="40.4663267" lon="9.086215"><ele>363.0</ele><time>2026-04-30T09:09:47.786Z</time></trkpt><trkpt lat="40.4663583" lon="9.08632"><ele>363.0</ele><time>2026-04-30T09:09:48.785Z</time></trkpt><trkpt lat="40.466395" lon="9.0864183"><ele>364.2</ele><time>2026-04-30T09:09:49.781Z</time></trkpt><trkpt lat="40.466435" lon="9.08651"><ele>365.4</ele><time>2026-04-30T09:09:50.784Z</time></trkpt><trkpt lat="40.4664867" lon="9.0866"><ele>366.59999999999997</ele><time>2026-04-30T09:09:51.785Z</time></trkpt><trkpt lat="40.4665367" lon="9.08671"><ele>367.79999999999995</ele><time>2026-04-30T09:09:52.784Z</time></trkpt><trkpt lat="40.4665917" lon="9.0868317"><ele>369.0</ele><time>2026-04-30T09:09:53.784Z</time></trkpt><trkpt lat="40.4666583" lon="9.0869533"><ele>369.0</ele><time>2026-04-30T09:09:54.781Z</time></trkpt><trkpt lat="40.4667533" lon="9.0870583"><ele>369.0</ele><time>2026-04-30T09:09:55.778Z</time></trkpt><trkpt lat="40.4668383" lon="9.0871633"><ele>369.0</ele><time>2026-04-30T09:09:56.784Z</time></trkpt><trkpt lat="40.4669067" lon="9.0872817"><ele>369.0</ele><time>2026-04-30T09:09:57.779Z</time></trkpt><trkpt lat="40.4669717" lon="9.0873967"><ele>368.4</ele><time>2026-04-30T09:09:58.783Z</time></trkpt><trkpt lat="40.4670317" lon="9.087505"><ele>367.79999999999995</ele><time>2026-04-30T09:09:59.786Z</time></trkpt><trkpt lat="40.4670967" lon="9.0876"><ele>367.20000000000005</ele><time>2026-04-30T09:10:00.784Z</time></trkpt><trkpt lat="40.467165" lon="9.08768"><ele>366.6</ele><time>2026-04-30T09:10:01.784Z</time></trkpt><trkpt lat="40.4672367" lon="9.087755"><ele>366.0</ele><time>2026-04-30T09:10:02.781Z</time></trkpt><trkpt lat="40.4673183" lon="9.0878133"><ele>366.0</ele><time>2026-04-30T09:10:03.784Z</time></trkpt><trkpt lat="40.4674117" lon="9.08786"><ele>366.0</ele><time>2026-04-30T09:10:04.787Z</time></trkpt><trkpt lat="40.4675" lon="9.0878983"><ele>366.0</ele><time>2026-04-30T09:10:05.779Z</time></trkpt><trkpt lat="40.46759" lon="9.0879283"><ele>366.0</ele><time>2026-04-30T09:10:06.783Z</time></trkpt><trkpt lat="40.4676817" lon="9.0879483"><ele>366.0</ele><time>2026-04-30T09:10:07.782Z</time></trkpt><trkpt lat="40.4677717" lon="9.0879617"><ele>366.0</ele><time>2026-04-30T09:10:08.785Z</time></trkpt><trkpt lat="40.467865" lon="9.087965"><ele>366.0</ele><time>2026-04-30T09:10:09.783Z</time></trkpt><trkpt lat="40.4679617" lon="9.0879533"><ele>366.0</ele><time>2026-04-30T09:10:10.782Z</time></trkpt><trkpt lat="40.46806" lon="9.08792"><ele>366.0</ele><time>2026-04-30T09:10:11.782Z</time></trkpt><trkpt lat="40.468165" lon="9.0878817"><ele>366.0</ele><time>2026-04-30T09:10:12.784Z</time></trkpt><trkpt lat="40.4682617" lon="9.0878667"><ele>365.6666666666667</ele><time>2026-04-30T09:10:13.788Z</time></trkpt><trkpt lat="40.46836" lon="9.0878617"><ele>365.3333333333333</ele><time>2026-04-30T09:10:14.786Z</time></trkpt><trkpt lat="40.4684433" lon="9.0878717"><ele>365.0</ele><time>2026-04-30T09:10:15.783Z</time></trkpt><trkpt lat="40.4685233" lon="9.0878917"><ele>364.66666666666663</ele><time>2026-04-30T09:10:16.786Z</time></trkpt><trkpt lat="40.4686" lon="9.0879267"><ele>364.3333333333333</ele><time>2026-04-30T09:10:17.784Z</time></trkpt><trkpt lat="40.4686783" lon="9.0879683"><ele>364.0</ele><time>2026-04-30T09:10:18.782Z</time></trkpt><trkpt lat="40.468755" lon="9.0880217"><ele>364.0</ele><time>2026-04-30T09:10:19.78Z</time></trkpt><trkpt lat="40.4688183" lon="9.0880933"><ele>364.0</ele><time>2026-04-30T09:10:20.784Z</time></trkpt><trkpt lat="40.4688733" lon="9.08818"><ele>364.0</ele><time>2026-04-30T09:10:21.782Z</time></trkpt><trkpt lat="40.4689183" lon="9.0882733"><ele>364.0</ele><time>2026-04-30T09:10:22.787Z</time></trkpt><trkpt lat="40.46895" lon="9.0883717"><ele>364.0</ele><time>2026-04-30T09:10:23.786Z</time></trkpt><trkpt lat="40.4689767" lon="9.08848"><ele>364.0</ele><time>2026-04-30T09:10:24.786Z</time></trkpt><trkpt lat="40.46899" lon="9.088595"><ele>364.0</ele><time>2026-04-30T09:10:25.782Z</time></trkpt><trkpt lat="40.4690017" lon="9.088725"><ele>364.0</ele><time>2026-04-30T09:10:26.787Z</time></trkpt><trkpt lat="40.469005" lon="9.08887"><ele>364.0</ele><time>2026-04-30T09:10:27.787Z</time></trkpt><trkpt lat="40.4690067" lon="9.0890283"><ele>364.0</ele><time>2026-04-30T09:10:28.784Z</time></trkpt><trkpt lat="40.4690117" lon="9.089205"><ele>363.5</ele><time>2026-04-30T09:10:29.785Z</time></trkpt><trkpt lat="40.4689967" lon="9.0893967"><ele>363.0</ele><time>2026-04-30T09:10:30.78Z</time></trkpt><trkpt lat="40.4689833" lon="9.0895917"><ele>362.5</ele><time>2026-04-30T09:10:31.784Z</time></trkpt><trkpt lat="40.4689667" lon="9.0897817"><ele>362.0</ele><time>2026-04-30T09:10:32.785Z</time></trkpt><trkpt lat="40.46895" lon="9.0899583"><ele>362.0</ele><time>2026-04-30T09:10:33.784Z</time></trkpt><trkpt lat="40.4689317" lon="9.0901267"><ele>362.0</ele><time>2026-04-30T09:10:34.785Z</time></trkpt><trkpt lat="40.46891" lon="9.0902867"><ele>362.0</ele><time>2026-04-30T09:10:35.784Z</time></trkpt><trkpt lat="40.46889" lon="9.0904283"><ele>362.0</ele><time>2026-04-30T09:10:36.786Z</time></trkpt><trkpt lat="40.46887" lon="9.0905617"><ele>362.0</ele><time>2026-04-30T09:10:37.785Z</time></trkpt><trkpt lat="40.4688467" lon="9.0906817"><ele>362.0</ele><time>2026-04-30T09:10:38.785Z</time></trkpt><trkpt lat="40.4688217" lon="9.090795"><ele>362.0</ele><time>2026-04-30T09:10:39.78Z</time></trkpt><trkpt lat="40.4688017" lon="9.0909083"><ele>362.0</ele><time>2026-04-30T09:10:40.783Z</time></trkpt><trkpt lat="40.468785" lon="9.0910183"><ele>362.0</ele><time>2026-04-30T09:10:41.785Z</time></trkpt><trkpt lat="40.4687717" lon="9.0911283"><ele>362.0</ele><time>2026-04-30T09:10:42.783Z</time></trkpt><trkpt lat="40.4687567" lon="9.0912367"><ele>362.0</ele><time>2026-04-30T09:10:43.784Z</time></trkpt><trkpt lat="40.4687467" lon="9.091345"><ele>362.0</ele><time>2026-04-30T09:10:44.782Z</time></trkpt><trkpt lat="40.46874" lon="9.091455"><ele>362.0</ele><time>2026-04-30T09:10:45.78Z</time></trkpt><trkpt lat="40.4687417" lon="9.0915683"><ele>362.0</ele><time>2026-04-30T09:10:46.782Z</time></trkpt><trkpt lat="40.4687517" lon="9.09168"><ele>362.0</ele><time>2026-04-30T09:10:47.78Z</time></trkpt><trkpt lat="40.4687817" lon="9.0917933"><ele>362.0</ele><time>2026-04-30T09:10:48.78Z</time></trkpt><trkpt lat="40.468825" lon="9.0919033"><ele>362.0</ele><time>2026-04-30T09:10:49.78Z</time></trkpt><trkpt lat="40.4688783" lon="9.092005"><ele>362.0</ele><time>2026-04-30T09:10:50.78Z</time></trkpt><trkpt lat="40.4689433" lon="9.0921"><ele>362.0</ele><time>2026-04-30T09:10:51.779Z</time></trkpt><trkpt lat="40.4690133" lon="9.0921883"><ele>362.0</ele><time>2026-04-30T09:10:52.785Z</time></trkpt><trkpt lat="40.46909" lon="9.0922633"><ele>362.0</ele><time>2026-04-30T09:10:53.78Z</time></trkpt><trkpt lat="40.469215" lon="9.0923067"><ele>362.0</ele><time>2026-04-30T09:10:54.779Z</time></trkpt><trkpt lat="40.4693317" lon="9.0923367"><ele>362.0</ele><time>2026-04-30T09:10:55.781Z</time></trkpt><trkpt lat="40.4694517" lon="9.09237"><ele>362.0</ele><time>2026-04-30T09:10:56.782Z</time></trkpt><trkpt lat="40.469575" lon="9.092395"><ele>362.0</ele><time>2026-04-30T09:10:57.783Z</time></trkpt><trkpt lat="40.4697067" lon="9.0924083"><ele>361.0</ele><time>2026-04-30T09:10:58.783Z</time></trkpt><trkpt lat="40.4698383" lon="9.0924233"><ele>360.0</ele><time>2026-04-30T09:10:59.782Z</time></trkpt><trkpt lat="40.469965" lon="9.09244"><ele>359.0</ele><time>2026-04-30T09:11:00.782Z</time></trkpt><trkpt lat="40.4700967" lon="9.09246"><ele>358.0</ele><time>2026-04-30T09:11:01.783Z</time></trkpt><trkpt lat="40.470225" lon="9.0924817"><ele>358.0</ele><time>2026-04-30T09:11:02.782Z</time></trkpt><trkpt lat="40.4703417" lon="9.0925167"><ele>358.0</ele><time>2026-04-30T09:11:03.782Z</time></trkpt><trkpt lat="40.470465" lon="9.0925667"><ele>358.0</ele><time>2026-04-30T09:11:04.785Z</time></trkpt><trkpt lat="40.47058" lon="9.0926317"><ele>358.0</ele><time>2026-04-30T09:11:05.781Z</time></trkpt><trkpt lat="40.4706733" lon="9.09272"><ele>359.0</ele><time>2026-04-30T09:11:06.782Z</time></trkpt><trkpt lat="40.4707583" lon="9.0928067"><ele>360.0</ele><time>2026-04-30T09:11:07.784Z</time></trkpt><trkpt lat="40.470825" lon="9.0929067"><ele>361.0</ele><time>2026-04-30T09:11:08.782Z</time></trkpt><trkpt lat="40.4708867" lon="9.09301"><ele>362.0</ele><time>2026-04-30T09:11:09.781Z</time></trkpt><trkpt lat="40.4709433" lon="9.093115"><ele>363.0</ele><time>2026-04-30T09:11:10.784Z</time></trkpt><trkpt lat="40.471005" lon="9.09322"><ele>364.0</ele><time>2026-04-30T09:11:11.781Z</time></trkpt><trkpt lat="40.4710667" lon="9.0933267"><ele>365.0</ele><time>2026-04-30T09:11:12.785Z</time></trkpt><trkpt lat="40.4711283" lon="9.0934317"><ele>366.0</ele><time>2026-04-30T09:11:13.786Z</time></trkpt><trkpt lat="40.471195" lon="9.0935233"><ele>367.0</ele><time>2026-04-30T09:11:14.786Z</time></trkpt><trkpt lat="40.4712717" lon="9.093605"><ele>368.0</ele><time>2026-04-30T09:11:15.781Z</time></trkpt><trkpt lat="40.471355" lon="9.0936767"><ele>368.0</ele><time>2026-04-30T09:11:16.781Z</time></trkpt><trkpt lat="40.47144" lon="9.0937367"><ele>368.0</ele><time>2026-04-30T09:11:17.782Z</time></trkpt><trkpt lat="40.4715383" lon="9.09377"><ele>368.0</ele><time>2026-04-30T09:11:18.782Z</time></trkpt><trkpt lat="40.4716367" lon="9.0938"><ele>368.0</ele><time>2026-04-30T09:11:19.783Z</time></trkpt><trkpt lat="40.4717333" lon="9.09384"><ele>368.0</ele><time>2026-04-30T09:11:20.783Z</time></trkpt><trkpt lat="40.4718267" lon="9.0938867"><ele>368.0</ele><time>2026-04-30T09:11:21.781Z</time></trkpt><trkpt lat="40.471915" lon="9.09394"><ele>368.0</ele><time>2026-04-30T09:11:22.784Z</time></trkpt><trkpt lat="40.4719933" lon="9.094005"><ele>368.0</ele><time>2026-04-30T09:11:23.786Z</time></trkpt><trkpt lat="40.472065" lon="9.0940767"><ele>368.0</ele><time>2026-04-30T09:11:24.784Z</time></trkpt><trkpt lat="40.4721283" lon="9.0941617"><ele>368.0</ele><time>2026-04-30T09:11:25.785Z</time></trkpt><trkpt lat="40.472185" lon="9.0942533"><ele>367.79999999999995</ele><time>2026-04-30T09:11:26.785Z</time></trkpt><trkpt lat="40.47223" lon="9.0943567"><ele>367.6</ele><time>2026-04-30T09:11:27.786Z</time></trkpt><trkpt lat="40.4722667" lon="9.0944717"><ele>367.4</ele><time>2026-04-30T09:11:28.783Z</time></trkpt><trkpt lat="40.4722833" lon="9.0946117"><ele>367.20000000000005</ele><time>2026-04-30T09:11:29.78Z</time></trkpt><trkpt lat="40.4723083" lon="9.0947683"><ele>367.0</ele><time>2026-04-30T09:11:30.786Z</time></trkpt><trkpt lat="40.4723083" lon="9.09494"><ele>366.40000000000003</ele><time>2026-04-30T09:11:31.787Z</time></trkpt><trkpt lat="40.47229" lon="9.095085"><ele>365.8</ele><time>2026-04-30T09:11:32.783Z</time></trkpt><trkpt lat="40.4722983" lon="9.0952333"><ele>365.2</ele><time>2026-04-30T09:11:33.78Z</time></trkpt><trkpt lat="40.4723033" lon="9.0953683"><ele>364.6</ele><time>2026-04-30T09:11:34.782Z</time></trkpt><trkpt lat="40.472335" lon="9.09549"><ele>364.0</ele><time>2026-04-30T09:11:35.784Z</time></trkpt><trkpt lat="40.4723733" lon="9.0955983"><ele>364.0</ele><time>2026-04-30T09:11:36.786Z</time></trkpt><trkpt lat="40.4724183" lon="9.0957117"><ele>364.0</ele><time>2026-04-30T09:11:37.781Z</time></trkpt><trkpt lat="40.4724783" lon="9.0958083"><ele>364.0</ele><time>2026-04-30T09:11:38.782Z</time></trkpt><trkpt lat="40.47256" lon="9.0958767"><ele>364.0</ele><time>2026-04-30T09:11:39.779Z</time></trkpt><trkpt lat="40.4726517" lon="9.095925"><ele>364.0</ele><time>2026-04-30T09:11:40.784Z</time></trkpt><trkpt lat="40.47275" lon="9.09596"><ele>363.0</ele><time>2026-04-30T09:11:41.784Z</time></trkpt><trkpt lat="40.4728517" lon="9.0959867"><ele>362.0</ele><time>2026-04-30T09:11:42.784Z</time></trkpt><trkpt lat="40.4729517" lon="9.0960083"><ele>361.0</ele><time>2026-04-30T09:11:43.781Z</time></trkpt><trkpt lat="40.4730733" lon="9.0960017"><ele>360.0</ele><time>2026-04-30T09:11:44.785Z</time></trkpt><trkpt lat="40.47318" lon="9.09601"><ele>359.0</ele><time>2026-04-30T09:11:45.783Z</time></trkpt><trkpt lat="40.4732867" lon="9.0960233"><ele>359.0</ele><time>2026-04-30T09:11:46.78Z</time></trkpt><trkpt lat="40.4733983" lon="9.0960533"><ele>359.0</ele><time>2026-04-30T09:11:47.783Z</time></trkpt><trkpt lat="40.473505" lon="9.0960933"><ele>359.0</ele><time>2026-04-30T09:11:48.782Z</time></trkpt><trkpt lat="40.4736117" lon="9.096135"><ele>359.0</ele><time>2026-04-30T09:11:49.787Z</time></trkpt><trkpt lat="40.473715" lon="9.09616"><ele>359.0</ele><time>2026-04-30T09:11:50.784Z</time></trkpt><trkpt lat="40.4737883" lon="9.0962317"><ele>358.83333333333337</ele><time>2026-04-30T09:11:51.786Z</time></trkpt><trkpt lat="40.473855" lon="9.0963183"><ele>358.6666666666667</ele><time>2026-04-30T09:11:52.782Z</time></trkpt><trkpt lat="40.473915" lon="9.09641"><ele>358.5</ele><time>2026-04-30T09:11:53.78Z</time></trkpt><trkpt lat="40.473965" lon="9.0965067"><ele>358.3333333333333</ele><time>2026-04-30T09:11:54.781Z</time></trkpt><trkpt lat="40.474005" lon="9.096595"><ele>358.16666666666663</ele><time>2026-04-30T09:11:55.785Z</time></trkpt><trkpt lat="40.4740367" lon="9.0966717"><ele>358.0</ele><time>2026-04-30T09:11:56.781Z</time></trkpt><trkpt lat="40.47409" lon="9.0967967"><ele>358.0</ele><time>2026-04-30T09:11:58.784Z</time></trkpt><trkpt lat="40.4741367" lon="9.0969083"><ele>358.0</ele><time>2026-04-30T09:12:00.785Z</time></trkpt><trkpt lat="40.4741733" lon="9.09701"><ele>358.0</ele><time>2026-04-30T09:12:02.785Z</time></trkpt><trkpt lat="40.4742" lon="9.09709"><ele>358.0</ele><time>2026-04-30T09:12:04.783Z</time></trkpt><trkpt lat="40.4742317" lon="9.097195"><ele>358.0</ele><time>2026-04-30T09:12:10.781Z</time></trkpt><trkpt lat="40.4742633" lon="9.0972733"><ele>358.0</ele><time>2026-04-30T09:12:12.78Z</time></trkpt><trkpt lat="40.474295" lon="9.0973533"><ele>357.0</ele><time>2026-04-30T09:12:14.785Z</time></trkpt><trkpt lat="40.4743283" lon="9.0974333"><ele>356.0</ele><time>2026-04-30T09:12:16.784Z</time></trkpt><trkpt lat="40.4743533" lon="9.09752"><ele>355.0</ele><time>2026-04-30T09:12:18.783Z</time></trkpt><trkpt lat="40.474385" lon="9.0976283"><ele>354.0</ele><time>2026-04-30T09:12:21.787Z</time></trkpt><trkpt lat="40.4744133" lon="9.097735"><ele>353.0</ele><time>2026-04-30T09:12:23.784Z</time></trkpt><trkpt lat="40.47445" lon="9.0979017"><ele>352.0</ele><time>2026-04-30T09:12:25.783Z</time></trkpt><trkpt lat="40.4744717" lon="9.098"><ele>352.0</ele><time>2026-04-30T09:12:26.781Z</time></trkpt><trkpt lat="40.474495" lon="9.098105"><ele>352.0</ele><time>2026-04-30T09:12:27.785Z</time></trkpt><trkpt lat="40.4745233" lon="9.0982117"><ele>352.0</ele><time>2026-04-30T09:12:28.783Z</time></trkpt><trkpt lat="40.4745583" lon="9.0983183"><ele>352.0</ele><time>2026-04-30T09:12:29.78Z</time></trkpt><trkpt lat="40.4746" lon="9.0984183"><ele>352.0</ele><time>2026-04-30T09:12:30.784Z</time></trkpt><trkpt lat="40.4746467" lon="9.0985217"><ele>352.0</ele><time>2026-04-30T09:12:31.78Z</time></trkpt><trkpt lat="40.4747017" lon="9.098615"><ele>353.8</ele><time>2026-04-30T09:12:32.785Z</time></trkpt><trkpt lat="40.4747667" lon="9.0987"><ele>355.6</ele><time>2026-04-30T09:12:33.784Z</time></trkpt><trkpt lat="40.47484" lon="9.0987767"><ele>357.40000000000003</ele><time>2026-04-30T09:12:34.785Z</time></trkpt><trkpt lat="40.47492" lon="9.09885"><ele>359.20000000000005</ele><time>2026-04-30T09:12:35.783Z</time></trkpt><trkpt lat="40.475" lon="9.0989233"><ele>361.0</ele><time>2026-04-30T09:12:36.781Z</time></trkpt><trkpt lat="40.4750783" lon="9.099"><ele>361.0</ele><time>2026-04-30T09:12:37.784Z</time></trkpt><trkpt lat="40.475155" lon="9.0990783"><ele>361.0</ele><time>2026-04-30T09:12:38.783Z</time></trkpt><trkpt lat="40.4752217" lon="9.0991667"><ele>361.0</ele><time>2026-04-30T09:12:39.785Z</time></trkpt><trkpt lat="40.4752817" lon="9.099265"><ele>361.0</ele><time>2026-04-30T09:12:40.78Z</time></trkpt><trkpt lat="40.4753367" lon="9.0993683"><ele>361.0</ele><time>2026-04-30T09:12:41.78Z</time></trkpt><trkpt lat="40.4753817" lon="9.0994783"><ele>360.8</ele><time>2026-04-30T09:12:42.78Z</time></trkpt><trkpt lat="40.4754167" lon="9.0995917"><ele>360.6</ele><time>2026-04-30T09:12:43.786Z</time></trkpt><trkpt lat="40.475445" lon="9.099715"><ele>360.4</ele><time>2026-04-30T09:12:44.785Z</time></trkpt><trkpt lat="40.4754683" lon="9.09985"><ele>360.2</ele><time>2026-04-30T09:12:45.785Z</time></trkpt><trkpt lat="40.4754917" lon="9.09999"><ele>360.0</ele><time>2026-04-30T09:12:46.783Z</time></trkpt><trkpt lat="40.475515" lon="9.1001317"><ele>360.0</ele><time>2026-04-30T09:12:47.782Z</time></trkpt><trkpt lat="40.4755467" lon="9.10028"><ele>360.0</ele><time>2026-04-30T09:12:48.783Z</time></trkpt><trkpt lat="40.47558" lon="9.1004233"><ele>360.0</ele><time>2026-04-30T09:12:49.782Z</time></trkpt><trkpt lat="40.475615" lon="9.1005683"><ele>360.0</ele><time>2026-04-30T09:12:50.785Z</time></trkpt><trkpt lat="40.4756567" lon="9.1006983"><ele>357.8</ele><time>2026-04-30T09:12:51.784Z</time></trkpt><trkpt lat="40.4757083" lon="9.1008167"><ele>355.6</ele><time>2026-04-30T09:12:52.78Z</time></trkpt><trkpt lat="40.475765" lon="9.1009233"><ele>353.4</ele><time>2026-04-30T09:12:53.782Z</time></trkpt><trkpt lat="40.47582" lon="9.1010167"><ele>351.2</ele><time>2026-04-30T09:12:54.784Z</time></trkpt><trkpt lat="40.4758767" lon="9.1011017"><ele>349.0</ele><time>2026-04-30T09:12:55.78Z</time></trkpt><trkpt lat="40.47594" lon="9.1011817"><ele>349.0</ele><time>2026-04-30T09:12:56.785Z</time></trkpt><trkpt lat="40.4760117" lon="9.1012633"><ele>349.0</ele><time>2026-04-30T09:12:57.785Z</time></trkpt><trkpt lat="40.4760867" lon="9.1013433"><ele>349.0</ele><time>2026-04-30T09:12:58.782Z</time></trkpt><trkpt lat="40.4761633" lon="9.1014267"><ele>349.0</ele><time>2026-04-30T09:12:59.788Z</time></trkpt><trkpt lat="40.47624" lon="9.1015017"><ele>349.0</ele><time>2026-04-30T09:13:00.786Z</time></trkpt><trkpt lat="40.4763133" lon="9.10157"><ele>348.3333333333333</ele><time>2026-04-30T09:13:01.78Z</time></trkpt><trkpt lat="40.4763783" lon="9.101645"><ele>347.66666666666663</ele><time>2026-04-30T09:13:02.78Z</time></trkpt><trkpt lat="40.4764317" lon="9.1017283"><ele>347.0</ele><time>2026-04-30T09:13:03.783Z</time></trkpt><trkpt lat="40.4764817" lon="9.10182"><ele>346.3333333333333</ele><time>2026-04-30T09:13:04.784Z</time></trkpt><trkpt lat="40.476525" lon="9.10192"><ele>345.6666666666667</ele><time>2026-04-30T09:13:05.783Z</time></trkpt><trkpt lat="40.4765617" lon="9.1020167"><ele>345.0</ele><time>2026-04-30T09:13:06.783Z</time></trkpt><trkpt lat="40.4765867" lon="9.10212"><ele>345.0</ele><time>2026-04-30T09:13:07.785Z</time></trkpt><trkpt lat="40.4765967" lon="9.1022367"><ele>345.0</ele><time>2026-04-30T09:13:08.786Z</time></trkpt><trkpt lat="40.476595" lon="9.102365"><ele>345.0</ele><time>2026-04-30T09:13:09.784Z</time></trkpt><trkpt lat="40.4765833" lon="9.1025017"><ele>345.0</ele><time>2026-04-30T09:13:10.784Z</time></trkpt><trkpt lat="40.4765717" lon="9.1026433"><ele>345.0</ele><time>2026-04-30T09:13:11.778Z</time></trkpt><trkpt lat="40.4765483" lon="9.1028"><ele>345.0</ele><time>2026-04-30T09:13:12.783Z</time></trkpt><trkpt lat="40.476525" lon="9.1029567"><ele>345.0</ele><time>2026-04-30T09:13:13.784Z</time></trkpt><trkpt lat="40.4765017" lon="9.1031167"><ele>345.0</ele><time>2026-04-30T09:13:14.78Z</time></trkpt><trkpt lat="40.476475" lon="9.103275"><ele>345.0</ele><time>2026-04-30T09:13:15.782Z</time></trkpt><trkpt lat="40.4764533" lon="9.1034283"><ele>345.0</ele><time>2026-04-30T09:13:16.787Z</time></trkpt><trkpt lat="40.4764333" lon="9.1035783"><ele>345.0</ele><time>2026-04-30T09:13:17.781Z</time></trkpt><trkpt lat="40.476415" lon="9.103725"><ele>345.0</ele><time>2026-04-30T09:13:18.785Z</time></trkpt><trkpt lat="40.4763967" lon="9.10387"><ele>345.0</ele><time>2026-04-30T09:13:19.78Z</time></trkpt><trkpt lat="40.476375" lon="9.104015"><ele>344.75</ele><time>2026-04-30T09:13:20.782Z</time></trkpt><trkpt lat="40.4763533" lon="9.104155"><ele>344.5</ele><time>2026-04-30T09:13:21.788Z</time></trkpt><trkpt lat="40.47633" lon="9.1042917"><ele>344.25</ele><time>2026-04-30T09:13:22.785Z</time></trkpt><trkpt lat="40.4763067" lon="9.1044317"><ele>344.0</ele><time>2026-04-30T09:13:23.781Z</time></trkpt><trkpt lat="40.4762817" lon="9.1045933"><ele>342.0</ele><time>2026-04-30T09:13:24.782Z</time></trkpt><trkpt lat="40.47626" lon="9.104725"><ele>340.0</ele><time>2026-04-30T09:13:25.785Z</time></trkpt><trkpt lat="40.4762433" lon="9.1048483"><ele>338.0</ele><time>2026-04-30T09:13:26.782Z</time></trkpt><trkpt lat="40.4762417" lon="9.1049667"><ele>336.0</ele><time>2026-04-30T09:13:27.78Z</time></trkpt><trkpt lat="40.4762417" lon="9.1050817"><ele>334.0</ele><time>2026-04-30T09:13:28.78Z</time></trkpt><trkpt lat="40.476265" lon="9.10522"><ele>335.0</ele><time>2026-04-30T09:13:29.786Z</time></trkpt><trkpt lat="40.4762933" lon="9.1053367"><ele>336.0</ele><time>2026-04-30T09:13:30.785Z</time></trkpt><trkpt lat="40.4763333" lon="9.10548"><ele>337.0</ele><time>2026-04-30T09:13:31.783Z</time></trkpt><trkpt lat="40.47637" lon="9.1055933"><ele>338.0</ele><time>2026-04-30T09:13:32.78Z</time></trkpt><trkpt lat="40.4763967" lon="9.1056833"><ele>339.0</ele><time>2026-04-30T09:13:33.783Z</time></trkpt><trkpt lat="40.4764267" lon="9.1057917"><ele>339.0</ele><time>2026-04-30T09:13:34.785Z</time></trkpt><trkpt lat="40.47646" lon="9.1058967"><ele>339.0</ele><time>2026-04-30T09:13:35.78Z</time></trkpt><trkpt lat="40.4764867" lon="9.105995"><ele>339.0</ele><time>2026-04-30T09:13:36.783Z</time></trkpt><trkpt lat="40.47651" lon="9.1060983"><ele>339.0</ele><time>2026-04-30T09:13:37.784Z</time></trkpt><trkpt lat="40.4765167" lon="9.1061983"><ele>339.0</ele><time>2026-04-30T09:13:38.784Z</time></trkpt><trkpt lat="40.4765017" lon="9.1062883"><ele>339.0</ele><time>2026-04-30T09:13:39.784Z</time></trkpt><trkpt lat="40.47648" lon="9.106385"><ele>339.0</ele><time>2026-04-30T09:13:40.78Z</time></trkpt><trkpt lat="40.4764583" lon="9.1064817"><ele>339.0</ele><time>2026-04-30T09:13:41.783Z</time></trkpt><trkpt lat="40.47643" lon="9.1065783"><ele>339.0</ele><time>2026-04-30T09:13:42.782Z</time></trkpt><trkpt lat="40.4763983" lon="9.1066733"><ele>339.0</ele><time>2026-04-30T09:13:43.784Z</time></trkpt><trkpt lat="40.4763667" lon="9.1067767"><ele>339.0</ele><time>2026-04-30T09:13:44.786Z</time></trkpt><trkpt lat="40.47634" lon="9.1068833"><ele>339.0</ele><time>2026-04-30T09:13:45.782Z</time></trkpt><trkpt lat="40.4763117" lon="9.107"><ele>338.8333333333333</ele><time>2026-04-30T09:13:46.783Z</time></trkpt><trkpt lat="40.476295" lon="9.1071133"><ele>338.6666666666667</ele><time>2026-04-30T09:13:47.781Z</time></trkpt><trkpt lat="40.4762817" lon="9.107225"><ele>338.5</ele><time>2026-04-30T09:13:48.783Z</time></trkpt><trkpt lat="40.4762783" lon="9.1073383"><ele>338.33333333333337</ele><time>2026-04-30T09:13:49.78Z</time></trkpt><trkpt lat="40.4762883" lon="9.1074467"><ele>338.1666666666667</ele><time>2026-04-30T09:13:50.78Z</time></trkpt><trkpt lat="40.47631" lon="9.1075517"><ele>338.0</ele><time>2026-04-30T09:13:51.78Z</time></trkpt><trkpt lat="40.4763383" lon="9.10766"><ele>338.0</ele><time>2026-04-30T09:13:52.785Z</time></trkpt><trkpt lat="40.4763733" lon="9.1077667"><ele>338.0</ele><time>2026-04-30T09:13:53.78Z</time></trkpt><trkpt lat="40.476415" lon="9.107865"><ele>338.0</ele><time>2026-04-30T09:13:54.784Z</time></trkpt><trkpt lat="40.4764717" lon="9.1079483"><ele>338.0</ele><time>2026-04-30T09:13:55.787Z</time></trkpt><trkpt lat="40.47653" lon="9.108025"><ele>338.0</ele><time>2026-04-30T09:13:56.783Z</time></trkpt><trkpt lat="40.4765917" lon="9.1080967"><ele>338.0</ele><time>2026-04-30T09:13:57.782Z</time></trkpt><trkpt lat="40.4766583" lon="9.1081567"><ele>338.0</ele><time>2026-04-30T09:13:58.787Z</time></trkpt><trkpt lat="40.4767333" lon="9.1081917"><ele>338.0</ele><time>2026-04-30T09:13:59.783Z</time></trkpt><trkpt lat="40.4768133" lon="9.108215"><ele>338.0</ele><time>2026-04-30T09:14:00.78Z</time></trkpt><trkpt lat="40.4768967" lon="9.108225"><ele>338.0</ele><time>2026-04-30T09:14:01.78Z</time></trkpt><trkpt lat="40.4769783" lon="9.108225"><ele>338.0</ele><time>2026-04-30T09:14:02.783Z</time></trkpt><trkpt lat="40.4770517" lon="9.10821"><ele>338.0</ele><time>2026-04-30T09:14:03.782Z</time></trkpt><trkpt lat="40.4771233" lon="9.1081833"><ele>337.4</ele><time>2026-04-30T09:14:04.785Z</time></trkpt><trkpt lat="40.4772083" lon="9.10812"><ele>336.79999999999995</ele><time>2026-04-30T09:14:05.782Z</time></trkpt><trkpt lat="40.4772933" lon="9.1080533"><ele>336.2</ele><time>2026-04-30T09:14:06.785Z</time></trkpt><trkpt lat="40.4773817" lon="9.1079683"><ele>335.6</ele><time>2026-04-30T09:14:07.785Z</time></trkpt><trkpt lat="40.4774667" lon="9.1078933"><ele>335.0</ele><time>2026-04-30T09:14:08.783Z</time></trkpt><trkpt lat="40.4775567" lon="9.1078183"><ele>335.0</ele><time>2026-04-30T09:14:09.783Z</time></trkpt><trkpt lat="40.4776483" lon="9.1077517"><ele>335.0</ele><time>2026-04-30T09:14:10.784Z</time></trkpt><trkpt lat="40.477735" lon="9.10771"><ele>335.0</ele><time>2026-04-30T09:14:11.782Z</time></trkpt><trkpt lat="40.4778267" lon="9.1076783"><ele>335.0</ele><time>2026-04-30T09:14:12.786Z</time></trkpt><trkpt lat="40.4779217" lon="9.10766"><ele>335.0</ele><time>2026-04-30T09:14:13.786Z</time></trkpt><trkpt lat="40.4780167" lon="9.1076583"><ele>333.2</ele><time>2026-04-30T09:14:14.783Z</time></trkpt><trkpt lat="40.4781183" lon="9.1076617"><ele>331.4</ele><time>2026-04-30T09:14:15.782Z</time></trkpt><trkpt lat="40.478215" lon="9.107685"><ele>329.6</ele><time>2026-04-30T09:14:16.783Z</time></trkpt><trkpt lat="40.47833" lon="9.1077083"><ele>327.8</ele><time>2026-04-30T09:14:17.786Z</time></trkpt><trkpt lat="40.4784317" lon="9.1077467"><ele>326.0</ele><time>2026-04-30T09:14:18.783Z</time></trkpt><trkpt lat="40.4785283" lon="9.1078117"><ele>326.0</ele><time>2026-04-30T09:14:19.785Z</time></trkpt><trkpt lat="40.4786183" lon="9.1078967"><ele>326.0</ele><time>2026-04-30T09:14:20.783Z</time></trkpt><trkpt lat="40.4786933" lon="9.1079867"><ele>326.0</ele><time>2026-04-30T09:14:21.785Z</time></trkpt><trkpt lat="40.478765" lon="9.108085"><ele>326.0</ele><time>2026-04-30T09:14:22.787Z</time></trkpt><trkpt lat="40.47883" lon="9.1081983"><ele>326.0</ele><time>2026-04-30T09:14:23.784Z</time></trkpt><trkpt lat="40.47888" lon="9.10831"><ele>326.20000000000005</ele><time>2026-04-30T09:14:24.786Z</time></trkpt><trkpt lat="40.4789183" lon="9.1084267"><ele>326.40000000000003</ele><time>2026-04-30T09:14:25.782Z</time></trkpt><trkpt lat="40.47894" lon="9.10855"><ele>326.6</ele><time>2026-04-30T09:14:26.782Z</time></trkpt><trkpt lat="40.47895" lon="9.1086783"><ele>326.8</ele><time>2026-04-30T09:14:27.778Z</time></trkpt><trkpt lat="40.4789467" lon="9.1088117"><ele>327.0</ele><time>2026-04-30T09:14:28.785Z</time></trkpt><trkpt lat="40.4789417" lon="9.10894"><ele>327.0</ele><time>2026-04-30T09:14:29.781Z</time></trkpt><trkpt lat="40.4789317" lon="9.1090583"><ele>327.0</ele><time>2026-04-30T09:14:30.784Z</time></trkpt><trkpt lat="40.4789033" lon="9.1091767"><ele>327.0</ele><time>2026-04-30T09:14:31.783Z</time></trkpt><trkpt lat="40.47886" lon="9.1092917"><ele>327.0</ele><time>2026-04-30T09:14:32.786Z</time></trkpt><trkpt lat="40.47881" lon="9.1094117"><ele>327.0</ele><time>2026-04-30T09:14:33.784Z</time></trkpt><trkpt lat="40.4787533" lon="9.1095317"><ele>325.6</ele><time>2026-04-30T09:14:34.785Z</time></trkpt><trkpt lat="40.4786983" lon="9.1096617"><ele>324.20000000000005</ele><time>2026-04-30T09:14:35.784Z</time></trkpt><trkpt lat="40.4786517" lon="9.10979"><ele>322.8</ele><time>2026-04-30T09:14:36.782Z</time></trkpt><trkpt lat="40.4786117" lon="9.1099117"><ele>321.4</ele><time>2026-04-30T09:14:37.782Z</time></trkpt><trkpt lat="40.4785783" lon="9.1100383"><ele>320.0</ele><time>2026-04-30T09:14:38.781Z</time></trkpt><trkpt lat="40.4785583" lon="9.1101683"><ele>320.0</ele><time>2026-04-30T09:14:39.783Z</time></trkpt><trkpt lat="40.4785483" lon="9.1102983"><ele>320.0</ele><time>2026-04-30T09:14:40.785Z</time></trkpt><trkpt lat="40.4785467" lon="9.1104217"><ele>320.0</ele><time>2026-04-30T09:14:41.78Z</time></trkpt><trkpt lat="40.4785583" lon="9.11054"><ele>320.0</ele><time>2026-04-30T09:14:42.784Z</time></trkpt><trkpt lat="40.47857" lon="9.1106583"><ele>320.0</ele><time>2026-04-30T09:14:43.783Z</time></trkpt><trkpt lat="40.4785967" lon="9.1107767"><ele>321.0</ele><time>2026-04-30T09:14:44.783Z</time></trkpt><trkpt lat="40.478635" lon="9.1108883"><ele>322.0</ele><time>2026-04-30T09:14:45.785Z</time></trkpt><trkpt lat="40.4786817" lon="9.1109983"><ele>323.0</ele><time>2026-04-30T09:14:46.78Z</time></trkpt><trkpt lat="40.4787317" lon="9.1111017"><ele>324.0</ele><time>2026-04-30T09:14:47.785Z</time></trkpt><trkpt lat="40.4787867" lon="9.1111983"><ele>325.0</ele><time>2026-04-30T09:14:48.782Z</time></trkpt><trkpt lat="40.478855" lon="9.1112633"><ele>325.8333333333333</ele><time>2026-04-30T09:14:49.784Z</time></trkpt><trkpt lat="40.4789267" lon="9.111315"><ele>326.66666666666663</ele><time>2026-04-30T09:14:50.779Z</time></trkpt><trkpt lat="40.479005" lon="9.11134"><ele>327.5</ele><time>2026-04-30T09:14:51.782Z</time></trkpt><trkpt lat="40.4790717" lon="9.1113733"><ele>328.3333333333333</ele><time>2026-04-30T09:14:52.785Z</time></trkpt><trkpt lat="40.4791517" lon="9.1113817"><ele>329.1666666666667</ele><time>2026-04-30T09:14:53.783Z</time></trkpt><trkpt lat="40.47923" lon="9.1113867"><ele>330.0</ele><time>2026-04-30T09:14:54.783Z</time></trkpt><trkpt lat="40.4793083" lon="9.1113833"><ele>330.0</ele><time>2026-04-30T09:14:55.785Z</time></trkpt><trkpt lat="40.4793867" lon="9.1113733"><ele>330.0</ele><time>2026-04-30T09:14:56.784Z</time></trkpt><trkpt lat="40.4794717" lon="9.1113433"><ele>330.0</ele><time>2026-04-30T09:14:57.782Z</time></trkpt><trkpt lat="40.4795567" lon="9.1113133"><ele>330.0</ele><time>2026-04-30T09:14:58.779Z</time></trkpt><trkpt lat="40.4796633" lon="9.1112683"><ele>330.0</ele><time>2026-04-30T09:14:59.786Z</time></trkpt><trkpt lat="40.4797733" lon="9.1112217"><ele>329.2</ele><time>2026-04-30T09:15:00.779Z</time></trkpt><trkpt lat="40.479875" lon="9.11118"><ele>328.4</ele><time>2026-04-30T09:15:01.781Z</time></trkpt><trkpt lat="40.4799733" lon="9.1111283"><ele>327.6</ele><time>2026-04-30T09:15:02.783Z</time></trkpt><trkpt lat="40.4800683" lon="9.1110683"><ele>326.8</ele><time>2026-04-30T09:15:03.78Z</time></trkpt><trkpt lat="40.4801633" lon="9.1109933"><ele>326.0</ele><time>2026-04-30T09:15:04.78Z</time></trkpt><trkpt lat="40.4802833" lon="9.1108983"><ele>326.0</ele><time>2026-04-30T09:15:05.788Z</time></trkpt><trkpt lat="40.4804117" lon="9.1107783"><ele>326.0</ele><time>2026-04-30T09:15:06.781Z</time></trkpt><trkpt lat="40.4805367" lon="9.1106917"><ele>326.0</ele><time>2026-04-30T09:15:07.786Z</time></trkpt><trkpt lat="40.4806433" lon="9.1106183"><ele>326.0</ele><time>2026-04-30T09:15:08.787Z</time></trkpt><trkpt lat="40.4807383" lon="9.1105733"><ele>326.6</ele><time>2026-04-30T09:15:09.784Z</time></trkpt><trkpt lat="40.4808333" lon="9.1105467"><ele>327.20000000000005</ele><time>2026-04-30T09:15:10.786Z</time></trkpt><trkpt lat="40.480925" lon="9.1105417"><ele>327.79999999999995</ele><time>2026-04-30T09:15:11.788Z</time></trkpt><trkpt lat="40.481025" lon="9.1105433"><ele>328.4</ele><time>2026-04-30T09:15:12.787Z</time></trkpt><trkpt lat="40.48114" lon="9.110555"><ele>329.0</ele><time>2026-04-30T09:15:13.78Z</time></trkpt><trkpt lat="40.481255" lon="9.110585"><ele>329.0</ele><time>2026-04-30T09:15:14.781Z</time></trkpt><trkpt lat="40.48138" lon="9.11062"><ele>329.0</ele><time>2026-04-30T09:15:15.783Z</time></trkpt><trkpt lat="40.48151" lon="9.11067"><ele>329.0</ele><time>2026-04-30T09:15:16.784Z</time></trkpt><trkpt lat="40.48163" lon="9.1107267"><ele>329.0</ele><time>2026-04-30T09:15:17.781Z</time></trkpt><trkpt lat="40.4817633" lon="9.110775"><ele>328.2</ele><time>2026-04-30T09:15:18.785Z</time></trkpt><trkpt lat="40.4818633" lon="9.1108317"><ele>327.4</ele><time>2026-04-30T09:15:19.783Z</time></trkpt><trkpt lat="40.4819567" lon="9.1109"><ele>326.6</ele><time>2026-04-30T09:15:20.785Z</time></trkpt><trkpt lat="40.48204" lon="9.1109817"><ele>325.8</ele><time>2026-04-30T09:15:21.788Z</time></trkpt><trkpt lat="40.4821167" lon="9.111065"><ele>325.0</ele><time>2026-04-30T09:15:22.787Z</time></trkpt><trkpt lat="40.4821933" lon="9.111155"><ele>325.0</ele><time>2026-04-30T09:15:23.786Z</time></trkpt><trkpt lat="40.4822633" lon="9.1112533"><ele>325.0</ele><time>2026-04-30T09:15:24.785Z</time></trkpt><trkpt lat="40.4823267" lon="9.111355"><ele>325.0</ele><time>2026-04-30T09:15:25.78Z</time></trkpt><trkpt lat="40.48238" lon="9.1114433"><ele>325.0</ele><time>2026-04-30T09:15:26.785Z</time></trkpt><trkpt lat="40.48241" lon="9.11154"><ele>325.0</ele><time>2026-04-30T09:15:27.784Z</time></trkpt><trkpt lat="40.4824383" lon="9.11165"><ele>324.3333333333333</ele><time>2026-04-30T09:15:29.781Z</time></trkpt><trkpt lat="40.4824033" lon="9.111765"><ele>323.66666666666663</ele><time>2026-04-30T09:15:35.783Z</time></trkpt><trkpt lat="40.4823467" lon="9.1119017"><ele>323.0</ele><time>2026-04-30T09:15:37.781Z</time></trkpt><trkpt lat="40.4823183" lon="9.1119833"><ele>322.3333333333333</ele><time>2026-04-30T09:15:38.784Z</time></trkpt><trkpt lat="40.4822867" lon="9.1120633"><ele>321.6666666666667</ele><time>2026-04-30T09:15:39.783Z</time></trkpt><trkpt lat="40.4822483" lon="9.1121433"><ele>321.0</ele><time>2026-04-30T09:15:40.782Z</time></trkpt><trkpt lat="40.482205" lon="9.1122383"><ele>321.0</ele><time>2026-04-30T09:15:41.783Z</time></trkpt><trkpt lat="40.4821567" lon="9.1123267"><ele>321.0</ele><time>2026-04-30T09:15:42.778Z</time></trkpt><trkpt lat="40.4820967" lon="9.1124117"><ele>321.0</ele><time>2026-04-30T09:15:43.779Z</time></trkpt><trkpt lat="40.4820283" lon="9.1124983"><ele>321.0</ele><time>2026-04-30T09:15:44.782Z</time></trkpt><trkpt lat="40.4819533" lon="9.11259"><ele>321.0</ele><time>2026-04-30T09:15:45.784Z</time></trkpt><trkpt lat="40.4818667" lon="9.1126817"><ele>321.5</ele><time>2026-04-30T09:15:46.781Z</time></trkpt><trkpt lat="40.4817783" lon="9.1127733"><ele>322.0</ele><time>2026-04-30T09:15:47.784Z</time></trkpt><trkpt lat="40.4816733" lon="9.1128633"><ele>322.5</ele><time>2026-04-30T09:15:48.785Z</time></trkpt><trkpt lat="40.4815733" lon="9.11296"><ele>323.0</ele><time>2026-04-30T09:15:49.781Z</time></trkpt><trkpt lat="40.4814767" lon="9.1130583"><ele>323.0</ele><time>2026-04-30T09:15:50.785Z</time></trkpt><trkpt lat="40.4813833" lon="9.1131483"><ele>323.0</ele><time>2026-04-30T09:15:51.78Z</time></trkpt><trkpt lat="40.481295" lon="9.1132317"><ele>323.0</ele><time>2026-04-30T09:15:52.784Z</time></trkpt><trkpt lat="40.48121" lon="9.1133183"><ele>323.0</ele><time>2026-04-30T09:15:53.781Z</time></trkpt><trkpt lat="40.4811317" lon="9.113415"><ele>323.0</ele><time>2026-04-30T09:15:54.784Z</time></trkpt><trkpt lat="40.4810633" lon="9.1135233"><ele>322.79999999999995</ele><time>2026-04-30T09:15:55.785Z</time></trkpt><trkpt lat="40.481005" lon="9.113635"><ele>322.6</ele><time>2026-04-30T09:15:56.783Z</time></trkpt><trkpt lat="40.4809533" lon="9.11375"><ele>322.4</ele><time>2026-04-30T09:15:57.785Z</time></trkpt><trkpt lat="40.4809083" lon="9.1138617"><ele>322.20000000000005</ele><time>2026-04-30T09:15:58.781Z</time></trkpt><trkpt lat="40.4808717" lon="9.113975"><ele>322.0</ele><time>2026-04-30T09:15:59.784Z</time></trkpt><trkpt lat="40.48085" lon="9.1140917"><ele>322.0</ele><time>2026-04-30T09:16:00.78Z</time></trkpt><trkpt lat="40.4808383" lon="9.1142083"><ele>322.0</ele><time>2026-04-30T09:16:01.782Z</time></trkpt><trkpt lat="40.4808333" lon="9.114325"><ele>322.0</ele><time>2026-04-30T09:16:02.783Z</time></trkpt><trkpt lat="40.4808433" lon="9.1144367"><ele>322.0</ele><time>2026-04-30T09:16:03.78Z</time></trkpt><trkpt lat="40.48086" lon="9.1145483"><ele>322.0</ele><time>2026-04-30T09:16:04.78Z</time></trkpt><trkpt lat="40.4808883" lon="9.114655"><ele>322.0</ele><time>2026-04-30T09:16:05.783Z</time></trkpt><trkpt lat="40.4809333" lon="9.114755"><ele>322.0</ele><time>2026-04-30T09:16:06.781Z</time></trkpt><trkpt lat="40.4809983" lon="9.11486"><ele>322.0</ele><time>2026-04-30T09:16:07.781Z</time></trkpt><trkpt lat="40.4810717" lon="9.1149567"><ele>322.0</ele><time>2026-04-30T09:16:08.784Z</time></trkpt><trkpt lat="40.4811367" lon="9.11505"><ele>322.0</ele><time>2026-04-30T09:16:09.784Z</time></trkpt><trkpt lat="40.4811917" lon="9.1151433"><ele>322.0</ele><time>2026-04-30T09:16:10.781Z</time></trkpt><trkpt lat="40.4812417" lon="9.1152417"><ele>323.16666666666663</ele><time>2026-04-30T09:16:11.783Z</time></trkpt><trkpt lat="40.481285" lon="9.1153417"><ele>324.3333333333333</ele><time>2026-04-30T09:16:12.784Z</time></trkpt><trkpt lat="40.481325" lon="9.1154367"><ele>325.5</ele><time>2026-04-30T09:16:13.784Z</time></trkpt><trkpt lat="40.4813517" lon="9.1155467"><ele>326.6666666666667</ele><time>2026-04-30T09:16:14.778Z</time></trkpt><trkpt lat="40.4813633" lon="9.1156667"><ele>327.83333333333337</ele><time>2026-04-30T09:16:15.78Z</time></trkpt><trkpt lat="40.4813633" lon="9.1157867"><ele>329.0</ele><time>2026-04-30T09:16:16.782Z</time></trkpt><trkpt lat="40.4813583" lon="9.11591"><ele>329.2</ele><time>2026-04-30T09:16:17.782Z</time></trkpt><trkpt lat="40.48135" lon="9.1160383"><ele>329.4</ele><time>2026-04-30T09:16:18.781Z</time></trkpt><trkpt lat="40.4813433" lon="9.116165"><ele>329.6</ele><time>2026-04-30T09:16:19.784Z</time></trkpt><trkpt lat="40.4813417" lon="9.1162933"><ele>329.8</ele><time>2026-04-30T09:16:20.782Z</time></trkpt><trkpt lat="40.4813483" lon="9.1164217"><ele>330.0</ele><time>2026-04-30T09:16:21.785Z</time></trkpt><trkpt lat="40.48137" lon="9.11654"><ele>329.6666666666667</ele><time>2026-04-30T09:16:22.783Z</time></trkpt><trkpt lat="40.4814017" lon="9.116655"><ele>329.3333333333333</ele><time>2026-04-30T09:16:23.779Z</time></trkpt><trkpt lat="40.4814383" lon="9.1167667"><ele>329.0</ele><time>2026-04-30T09:16:24.782Z</time></trkpt><trkpt lat="40.4814817" lon="9.1168667"><ele>328.66666666666663</ele><time>2026-04-30T09:16:25.784Z</time></trkpt><trkpt lat="40.4815367" lon="9.1169583"><ele>328.3333333333333</ele><time>2026-04-30T09:16:26.778Z</time></trkpt><trkpt lat="40.4815983" lon="9.11704"><ele>328.0</ele><time>2026-04-30T09:16:27.784Z</time></trkpt><trkpt lat="40.4816717" lon="9.1171183"><ele>328.0</ele><time>2026-04-30T09:16:28.781Z</time></trkpt><trkpt lat="40.4817567" lon="9.11718"><ele>328.0</ele><time>2026-04-30T09:16:29.781Z</time></trkpt><trkpt lat="40.481845" lon="9.117225"><ele>328.0</ele><time>2026-04-30T09:16:30.781Z</time></trkpt><trkpt lat="40.4819383" lon="9.1172567"><ele>328.0</ele><time>2026-04-30T09:16:31.779Z</time></trkpt><trkpt lat="40.4820333" lon="9.1172767"><ele>328.0</ele><time>2026-04-30T09:16:32.783Z</time></trkpt><trkpt lat="40.4821317" lon="9.1172783"><ele>329.2</ele><time>2026-04-30T09:16:33.782Z</time></trkpt><trkpt lat="40.4822383" lon="9.1172733"><ele>330.4</ele><time>2026-04-30T09:16:34.783Z</time></trkpt><trkpt lat="40.4823383" lon="9.1172617"><ele>331.59999999999997</ele><time>2026-04-30T09:16:35.781Z</time></trkpt><trkpt lat="40.4824317" lon="9.1172467"><ele>332.79999999999995</ele><time>2026-04-30T09:16:36.783Z</time></trkpt><trkpt lat="40.4825217" lon="9.11724"><ele>334.0</ele><time>2026-04-30T09:16:37.78Z</time></trkpt><trkpt lat="40.4826133" lon="9.1172467"><ele>334.0</ele><time>2026-04-30T09:16:38.782Z</time></trkpt><trkpt lat="40.4826983" lon="9.1172633"><ele>334.0</ele><time>2026-04-30T09:16:39.784Z</time></trkpt><trkpt lat="40.4827833" lon="9.1172933"><ele>334.0</ele><time>2026-04-30T09:16:40.781Z</time></trkpt><trkpt lat="40.4828733" lon="9.117335"><ele>334.0</ele><time>2026-04-30T09:16:41.784Z</time></trkpt><trkpt lat="40.48296" lon="9.117395"><ele>334.0</ele><time>2026-04-30T09:16:42.781Z</time></trkpt><trkpt lat="40.4830517" lon="9.1174667"><ele>332.2</ele><time>2026-04-30T09:16:43.782Z</time></trkpt><trkpt lat="40.4831267" lon="9.117555"><ele>330.4</ele><time>2026-04-30T09:16:44.782Z</time></trkpt><trkpt lat="40.483205" lon="9.1176483"><ele>328.6</ele><time>2026-04-30T09:16:45.783Z</time></trkpt><trkpt lat="40.483255" lon="9.1177333"><ele>326.8</ele><time>2026-04-30T09:16:46.783Z</time></trkpt><trkpt lat="40.4833033" lon="9.1178567"><ele>325.0</ele><time>2026-04-30T09:16:47.784Z</time></trkpt><trkpt lat="40.48333" lon="9.1180117"><ele>325.0</ele><time>2026-04-30T09:16:48.782Z</time></trkpt><trkpt lat="40.4833633" lon="9.1181683"><ele>325.0</ele><time>2026-04-30T09:16:49.783Z</time></trkpt><trkpt lat="40.4833917" lon="9.1183417"><ele>325.0</ele><time>2026-04-30T09:16:50.78Z</time></trkpt><trkpt lat="40.48342" lon="9.1185033"><ele>325.0</ele><time>2026-04-30T09:16:51.78Z</time></trkpt><trkpt lat="40.483445" lon="9.1186767"><ele>325.5</ele><time>2026-04-30T09:16:52.779Z</time></trkpt><trkpt lat="40.483475" lon="9.1188433"><ele>326.0</ele><time>2026-04-30T09:16:53.785Z</time></trkpt><trkpt lat="40.483505" lon="9.1190117"><ele>326.5</ele><time>2026-04-30T09:16:54.786Z</time></trkpt><trkpt lat="40.4835317" lon="9.1191733"><ele>327.0</ele><time>2026-04-30T09:16:55.782Z</time></trkpt><trkpt lat="40.48356" lon="9.1193367"><ele>327.6</ele><time>2026-04-30T09:16:56.783Z</time></trkpt><trkpt lat="40.4835867" lon="9.1194883"><ele>328.20000000000005</ele><time>2026-04-30T09:16:57.784Z</time></trkpt><trkpt lat="40.4836183" lon="9.1196317"><ele>328.8</ele><time>2026-04-30T09:16:58.781Z</time></trkpt><trkpt lat="40.483645" lon="9.11977"><ele>329.4</ele><time>2026-04-30T09:16:59.783Z</time></trkpt><trkpt lat="40.48368" lon="9.1199017"><ele>330.0</ele><time>2026-04-30T09:17:00.785Z</time></trkpt><trkpt lat="40.4837183" lon="9.1200283"><ele>331.0</ele><time>2026-04-30T09:17:01.78Z</time></trkpt><trkpt lat="40.4837717" lon="9.1201467"><ele>332.0</ele><time>2026-04-30T09:17:02.784Z</time></trkpt><trkpt lat="40.483845" lon="9.1202567"><ele>333.0</ele><time>2026-04-30T09:17:03.78Z</time></trkpt><trkpt lat="40.4839233" lon="9.12037"><ele>334.0</ele><time>2026-04-30T09:17:04.782Z</time></trkpt><trkpt lat="40.4840167" lon="9.1204833"><ele>334.0</ele><time>2026-04-30T09:17:05.783Z</time></trkpt><trkpt lat="40.4841117" lon="9.1206017"><ele>334.0</ele><time>2026-04-30T09:17:06.785Z</time></trkpt><trkpt lat="40.4842117" lon="9.1207167"><ele>334.0</ele><time>2026-04-30T09:17:07.784Z</time></trkpt><trkpt lat="40.4843033" lon="9.1208267"><ele>334.0</ele><time>2026-04-30T09:17:08.784Z</time></trkpt><trkpt lat="40.4843933" lon="9.1209433"><ele>332.79999999999995</ele><time>2026-04-30T09:17:09.78Z</time></trkpt><trkpt lat="40.4844733" lon="9.1210617"><ele>331.59999999999997</ele><time>2026-04-30T09:17:10.781Z</time></trkpt><trkpt lat="40.484545" lon="9.12118"><ele>330.4</ele><time>2026-04-30T09:17:11.781Z</time></trkpt><trkpt lat="40.4846067" lon="9.1212917"><ele>329.2</ele><time>2026-04-30T09:17:12.784Z</time></trkpt><trkpt lat="40.4846567" lon="9.1214067"><ele>328.0</ele><time>2026-04-30T09:17:13.778Z</time></trkpt><trkpt lat="40.4846967" lon="9.1215283"><ele>328.0</ele><time>2026-04-30T09:17:14.783Z</time></trkpt><trkpt lat="40.48472" lon="9.121665"><ele>328.0</ele><time>2026-04-30T09:17:15.78Z</time></trkpt><trkpt lat="40.4847367" lon="9.1217983"><ele>328.0</ele><time>2026-04-30T09:17:16.783Z</time></trkpt><trkpt lat="40.4847517" lon="9.1219267"><ele>328.0</ele><time>2026-04-30T09:17:17.781Z</time></trkpt><trkpt lat="40.48477" lon="9.1220717"><ele>328.0</ele><time>2026-04-30T09:17:18.782Z</time></trkpt><trkpt lat="40.4847867" lon="9.122215"><ele>328.0</ele><time>2026-04-30T09:17:19.782Z</time></trkpt><trkpt lat="40.4848067" lon="9.1223533"><ele>328.0</ele><time>2026-04-30T09:17:20.78Z</time></trkpt><trkpt lat="40.4848367" lon="9.1224867"><ele>328.0</ele><time>2026-04-30T09:17:21.784Z</time></trkpt><trkpt lat="40.484865" lon="9.1226183"><ele>328.0</ele><time>2026-04-30T09:17:22.784Z</time></trkpt><trkpt lat="40.48491" lon="9.1227317"><ele>328.0</ele><time>2026-04-30T09:17:23.783Z</time></trkpt><trkpt lat="40.4849617" lon="9.122835"><ele>328.2</ele><time>2026-04-30T09:17:24.784Z</time></trkpt><trkpt lat="40.48503" lon="9.1229233"><ele>328.4</ele><time>2026-04-30T09:17:25.784Z</time></trkpt><trkpt lat="40.4851" lon="9.1230233"><ele>328.59999999999997</ele><time>2026-04-30T09:17:26.783Z</time></trkpt><trkpt lat="40.4851817" lon="9.1231183"><ele>328.79999999999995</ele><time>2026-04-30T09:17:27.784Z</time></trkpt><trkpt lat="40.485245" lon="9.1232517"><ele>329.0</ele><time>2026-04-30T09:17:28.779Z</time></trkpt><trkpt lat="40.4852983" lon="9.1233817"><ele>327.79999999999995</ele><time>2026-04-30T09:17:29.781Z</time></trkpt><trkpt lat="40.4853417" lon="9.1235"><ele>326.59999999999997</ele><time>2026-04-30T09:17:30.781Z</time></trkpt><trkpt lat="40.4853833" lon="9.1236383"><ele>325.4</ele><time>2026-04-30T09:17:31.783Z</time></trkpt><trkpt lat="40.4854167" lon="9.123785"><ele>324.2</ele><time>2026-04-30T09:17:32.784Z</time></trkpt><trkpt lat="40.4854233" lon="9.1239267"><ele>323.0</ele><time>2026-04-30T09:17:33.785Z</time></trkpt><trkpt lat="40.4854183" lon="9.124055"><ele>322.2</ele><time>2026-04-30T09:17:34.783Z</time></trkpt><trkpt lat="40.4854167" lon="9.124195"><ele>321.4</ele><time>2026-04-30T09:17:35.786Z</time></trkpt><trkpt lat="40.4854133" lon="9.1243533"><ele>320.59999999999997</ele><time>2026-04-30T09:17:36.784Z</time></trkpt><trkpt lat="40.4854283" lon="9.1244933"><ele>319.79999999999995</ele><time>2026-04-30T09:17:37.786Z</time></trkpt><trkpt lat="40.4854417" lon="9.124635"><ele>319.0</ele><time>2026-04-30T09:17:38.782Z</time></trkpt><trkpt lat="40.4854567" lon="9.124775"><ele>320.6</ele><time>2026-04-30T09:17:39.785Z</time></trkpt><trkpt lat="40.4854767" lon="9.1249167"><ele>322.2</ele><time>2026-04-30T09:17:40.78Z</time></trkpt><trkpt lat="40.485505" lon="9.1250483"><ele>323.8</ele><time>2026-04-30T09:17:41.784Z</time></trkpt><trkpt lat="40.4855317" lon="9.125165"><ele>325.40000000000003</ele><time>2026-04-30T09:17:42.784Z</time></trkpt><trkpt lat="40.4855633" lon="9.1252867"><ele>327.0</ele><time>2026-04-30T09:17:43.781Z</time></trkpt><trkpt lat="40.485595" lon="9.1254"><ele>327.0</ele><time>2026-04-30T09:17:44.783Z</time></trkpt><trkpt lat="40.4856283" lon="9.125505"><ele>327.0</ele><time>2026-04-30T09:17:45.783Z</time></trkpt><trkpt lat="40.4856583" lon="9.1256133"><ele>327.0</ele><time>2026-04-30T09:17:46.781Z</time></trkpt><trkpt lat="40.4856817" lon="9.1257067"><ele>327.0</ele><time>2026-04-30T09:17:47.785Z</time></trkpt><trkpt lat="40.4857017" lon="9.12581"><ele>327.0</ele><time>2026-04-30T09:17:48.782Z</time></trkpt><trkpt lat="40.485715" lon="9.12592"><ele>327.0</ele><time>2026-04-30T09:17:49.784Z</time></trkpt><trkpt lat="40.485715" lon="9.1260283"><ele>326.6</ele><time>2026-04-30T09:17:50.783Z</time></trkpt><trkpt lat="40.4857033" lon="9.12614"><ele>326.20000000000005</ele><time>2026-04-30T09:17:51.784Z</time></trkpt><trkpt lat="40.4856833" lon="9.12625"><ele>325.8</ele><time>2026-04-30T09:17:52.784Z</time></trkpt><trkpt lat="40.4856567" lon="9.126365"><ele>325.4</ele><time>2026-04-30T09:17:53.784Z</time></trkpt><trkpt lat="40.4856133" lon="9.1264783"><ele>325.0</ele><time>2026-04-30T09:17:54.782Z</time></trkpt><trkpt lat="40.485585" lon="9.126595"><ele>325.8333333333333</ele><time>2026-04-30T09:17:55.787Z</time></trkpt><trkpt lat="40.4855667" lon="9.1267167"><ele>326.66666666666663</ele><time>2026-04-30T09:17:56.782Z</time></trkpt><trkpt lat="40.485545" lon="9.1268267"><ele>327.5</ele><time>2026-04-30T09:17:57.783Z</time></trkpt><trkpt lat="40.48553" lon="9.1269383"><ele>328.3333333333333</ele><time>2026-04-30T09:17:58.785Z</time></trkpt><trkpt lat="40.4855067" lon="9.12705"><ele>329.1666666666667</ele><time>2026-04-30T09:17:59.785Z</time></trkpt><trkpt lat="40.485495" lon="9.1271433"><ele>330.0</ele><time>2026-04-30T09:18:00.784Z</time></trkpt><trkpt lat="40.485485" lon="9.1272333"><ele>330.0</ele><time>2026-04-30T09:18:01.782Z</time></trkpt><trkpt lat="40.4854783" lon="9.1273767"><ele>330.0</ele><time>2026-04-30T09:18:03.781Z</time></trkpt><trkpt lat="40.485505" lon="9.1274633"><ele>330.0</ele><time>2026-04-30T09:18:05.779Z</time></trkpt><trkpt lat="40.4855867" lon="9.1274733"><ele>330.0</ele><time>2026-04-30T09:18:08.782Z</time></trkpt><trkpt lat="40.4856733" lon="9.127385"><ele>330.0</ele><time>2026-04-30T09:18:10.78Z</time></trkpt><trkpt lat="40.48573" lon="9.1273267"><ele>330.0</ele><time>2026-04-30T09:18:11.783Z</time></trkpt><trkpt lat="40.485795" lon="9.1272733"><ele>330.0</ele><time>2026-04-30T09:18:12.785Z</time></trkpt><trkpt lat="40.4858683" lon="9.1272167"><ele>330.0</ele><time>2026-04-30T09:18:13.78Z</time></trkpt><trkpt lat="40.4859467" lon="9.1271567"><ele>330.0</ele><time>2026-04-30T09:18:14.783Z</time></trkpt><trkpt lat="40.48603" lon="9.1271"><ele>330.0</ele><time>2026-04-30T09:18:15.777Z</time></trkpt><trkpt lat="40.4861233" lon="9.1270433"><ele>330.0</ele><time>2026-04-30T09:18:16.782Z</time></trkpt><trkpt lat="40.4862217" lon="9.12699"><ele>334.75</ele><time>2026-04-30T09:18:17.783Z</time></trkpt><trkpt lat="40.486325" lon="9.1269317"><ele>339.5</ele><time>2026-04-30T09:18:18.785Z</time></trkpt><trkpt lat="40.486445" lon="9.1268367"><ele>344.25</ele><time>2026-04-30T09:18:19.783Z</time></trkpt><trkpt lat="40.486575" lon="9.126745"><ele>349.0</ele><time>2026-04-30T09:18:20.784Z</time></trkpt><trkpt lat="40.4866817" lon="9.126675"><ele>349.0</ele><time>2026-04-30T09:18:21.784Z</time></trkpt><trkpt lat="40.4868083" lon="9.1266267"><ele>349.0</ele><time>2026-04-30T09:18:22.781Z</time></trkpt><trkpt lat="40.4869467" lon="9.1266"><ele>349.0</ele><time>2026-04-30T09:18:23.784Z</time></trkpt><trkpt lat="40.48707" lon="9.1265967"><ele>349.0</ele><time>2026-04-30T09:18:24.785Z</time></trkpt><trkpt lat="40.4871933" lon="9.126585"><ele>350.3333333333333</ele><time>2026-04-30T09:18:25.78Z</time></trkpt><trkpt lat="40.4872867" lon="9.126575"><ele>351.66666666666663</ele><time>2026-04-30T09:18:26.801Z</time></trkpt><trkpt lat="40.487365" lon="9.1265467"><ele>353.0</ele><time>2026-04-30T09:18:27.787Z</time></trkpt><trkpt lat="40.48744" lon="9.1265133"><ele>354.3333333333333</ele><time>2026-04-30T09:18:28.786Z</time></trkpt><trkpt lat="40.4875067" lon="9.126455"><ele>355.6666666666667</ele><time>2026-04-30T09:18:29.785Z</time></trkpt><trkpt lat="40.48758" lon="9.1263833"><ele>357.0</ele><time>2026-04-30T09:18:30.781Z</time></trkpt><trkpt lat="40.487665" lon="9.126305"><ele>357.20000000000005</ele><time>2026-04-30T09:18:31.782Z</time></trkpt><trkpt lat="40.4877583" lon="9.1262433"><ele>357.4</ele><time>2026-04-30T09:18:32.788Z</time></trkpt><trkpt lat="40.487855" lon="9.1262"><ele>357.6</ele><time>2026-04-30T09:18:33.785Z</time></trkpt><trkpt lat="40.487945" lon="9.12615"><ele>357.79999999999995</ele><time>2026-04-30T09:18:34.782Z</time></trkpt><trkpt lat="40.4880217" lon="9.1260983"><ele>358.0</ele><time>2026-04-30T09:18:35.783Z</time></trkpt><trkpt lat="40.4880817" lon="9.126045"><ele>360.28571428571433</ele><time>2026-04-30T09:18:36.783Z</time></trkpt><trkpt lat="40.4881333" lon="9.125975"><ele>362.57142857142856</ele><time>2026-04-30T09:18:37.783Z</time></trkpt><trkpt lat="40.4881767" lon="9.12589"><ele>364.8571428571429</ele><time>2026-04-30T09:18:38.782Z</time></trkpt><trkpt lat="40.4882083" lon="9.1258067"><ele>367.14285714285717</ele><time>2026-04-30T09:18:39.783Z</time></trkpt><trkpt lat="40.4882467" lon="9.12573"><ele>369.42857142857144</ele><time>2026-04-30T09:18:40.779Z</time></trkpt><trkpt lat="40.4882917" lon="9.1256667"><ele>371.7142857142857</ele><time>2026-04-30T09:18:41.782Z</time></trkpt><trkpt lat="40.4883433" lon="9.1256083"><ele>374.0</ele><time>2026-04-30T09:18:42.783Z</time></trkpt><trkpt lat="40.4884" lon="9.1255517"><ele>374.33333333333337</ele><time>2026-04-30T09:18:43.782Z</time></trkpt><trkpt lat="40.4884583" lon="9.1254983"><ele>374.6666666666667</ele><time>2026-04-30T09:18:44.785Z</time></trkpt><trkpt lat="40.4885217" lon="9.125445"><ele>375.0</ele><time>2026-04-30T09:18:45.784Z</time></trkpt><trkpt lat="40.4885883" lon="9.1253867"><ele>375.3333333333333</ele><time>2026-04-30T09:18:46.78Z</time></trkpt><trkpt lat="40.4886583" lon="9.12534"><ele>375.66666666666663</ele><time>2026-04-30T09:18:47.784Z</time></trkpt><trkpt lat="40.4887367" lon="9.125305"><ele>376.0</ele><time>2026-04-30T09:18:48.78Z</time></trkpt><trkpt lat="40.48882" lon="9.1252867"><ele>378.8333333333333</ele><time>2026-04-30T09:18:49.782Z</time></trkpt><trkpt lat="40.4889033" lon="9.12528"><ele>381.66666666666663</ele><time>2026-04-30T09:18:50.783Z</time></trkpt><trkpt lat="40.4889883" lon="9.12528"><ele>384.5</ele><time>2026-04-30T09:18:51.779Z</time></trkpt><trkpt lat="40.4890733" lon="9.125275"><ele>387.3333333333333</ele><time>2026-04-30T09:18:52.779Z</time></trkpt><trkpt lat="40.4891583" lon="9.125265"><ele>390.1666666666667</ele><time>2026-04-30T09:18:53.781Z</time></trkpt><trkpt lat="40.4892333" lon="9.1252483"><ele>393.0</ele><time>2026-04-30T09:18:54.782Z</time></trkpt><trkpt lat="40.4893" lon="9.12522"><ele>393.0</ele><time>2026-04-30T09:18:55.78Z</time></trkpt><trkpt lat="40.4893617" lon="9.1251767"><ele>393.0</ele><time>2026-04-30T09:18:56.781Z</time></trkpt><trkpt lat="40.48942" lon="9.1251317"><ele>393.0</ele><time>2026-04-30T09:18:57.78Z</time></trkpt><trkpt lat="40.4894817" lon="9.1250833"><ele>393.0</ele><time>2026-04-30T09:18:58.78Z</time></trkpt><trkpt lat="40.4895467" lon="9.1250317"><ele>393.0</ele><time>2026-04-30T09:18:59.786Z</time></trkpt><trkpt lat="40.4896167" lon="9.1249767"><ele>393.0</ele><time>2026-04-30T09:19:00.781Z</time></trkpt><trkpt lat="40.4896933" lon="9.1249217"><ele>392.2</ele><time>2026-04-30T09:19:01.783Z</time></trkpt><trkpt lat="40.4897733" lon="9.124875"><ele>391.4</ele><time>2026-04-30T09:19:02.782Z</time></trkpt><trkpt lat="40.4898567" lon="9.1248367"><ele>390.59999999999997</ele><time>2026-04-30T09:19:03.78Z</time></trkpt><trkpt lat="40.489945" lon="9.124815"><ele>389.79999999999995</ele><time>2026-04-30T09:19:04.78Z</time></trkpt><trkpt lat="40.4900417" lon="9.1248133"><ele>389.0</ele><time>2026-04-30T09:19:05.784Z</time></trkpt><trkpt lat="40.4901583" lon="9.1248183"><ele>389.0</ele><time>2026-04-30T09:19:06.782Z</time></trkpt><trkpt lat="40.4902767" lon="9.1248433"><ele>389.0</ele><time>2026-04-30T09:19:07.784Z</time></trkpt><trkpt lat="40.4903833" lon="9.1248783"><ele>389.0</ele><time>2026-04-30T09:19:08.783Z</time></trkpt><trkpt lat="40.4904767" lon="9.1249417"><ele>389.0</ele><time>2026-04-30T09:19:09.782Z</time></trkpt><trkpt lat="40.4905733" lon="9.1250117"><ele>389.0</ele><time>2026-04-30T09:19:10.785Z</time></trkpt><trkpt lat="40.4906717" lon="9.1250517"><ele>392.6</ele><time>2026-04-30T09:19:11.78Z</time></trkpt><trkpt lat="40.490775" lon="9.1250833"><ele>396.2</ele><time>2026-04-30T09:19:12.783Z</time></trkpt><trkpt lat="40.4908717" lon="9.1251133"><ele>399.8</ele><time>2026-04-30T09:19:13.784Z</time></trkpt><trkpt lat="40.4909683" lon="9.1251267"><ele>403.40000000000003</ele><time>2026-04-30T09:19:14.78Z</time></trkpt><trkpt lat="40.491055" lon="9.125145"><ele>407.0</ele><time>2026-04-30T09:19:15.778Z</time></trkpt><trkpt lat="40.4911483" lon="9.1251283"><ele>406.99999999999994</ele><time>2026-04-30T09:19:16.785Z</time></trkpt><trkpt lat="40.4912317" lon="9.1250983"><ele>407.0</ele><time>2026-04-30T09:19:17.779Z</time></trkpt><trkpt lat="40.4913033" lon="9.1250417"><ele>407.0</ele><time>2026-04-30T09:19:18.781Z</time></trkpt><trkpt lat="40.4913533" lon="9.124965"><ele>407.0</ele><time>2026-04-30T09:19:19.784Z</time></trkpt><trkpt lat="40.4913833" lon="9.1248617"><ele>406.99999999999994</ele><time>2026-04-30T09:19:20.779Z</time></trkpt><trkpt lat="40.4914167" lon="9.1247583"><ele>407.0</ele><time>2026-04-30T09:19:21.781Z</time></trkpt><trkpt lat="40.4914483" lon="9.1246533"><ele>409.16666666666663</ele><time>2026-04-30T09:19:22.784Z</time></trkpt><trkpt lat="40.4914967" lon="9.124565"><ele>411.3333333333333</ele><time>2026-04-30T09:19:23.779Z</time></trkpt><trkpt lat="40.4915517" lon="9.12448"><ele>413.5</ele><time>2026-04-30T09:19:24.782Z</time></trkpt><trkpt lat="40.491615" lon="9.1244133"><ele>415.66666666666663</ele><time>2026-04-30T09:19:25.783Z</time></trkpt><trkpt lat="40.49168" lon="9.1243567"><ele>417.8333333333333</ele><time>2026-04-30T09:19:26.782Z</time></trkpt><trkpt lat="40.4917467" lon="9.1242917"><ele>420.0</ele><time>2026-04-30T09:19:27.779Z</time></trkpt><trkpt lat="40.4918183" lon="9.1242217"><ele>420.0</ele><time>2026-04-30T09:19:28.784Z</time></trkpt><trkpt lat="40.491885" lon="9.1241683"><ele>420.0</ele><time>2026-04-30T09:19:29.783Z</time></trkpt><trkpt lat="40.4919517" lon="9.1241233"><ele>420.0</ele><time>2026-04-30T09:19:30.78Z</time></trkpt><trkpt lat="40.4920133" lon="9.1240867"><ele>420.0</ele><time>2026-04-30T09:19:31.783Z</time></trkpt><trkpt lat="40.4920733" lon="9.1240467"><ele>420.0</ele><time>2026-04-30T09:19:32.784Z</time></trkpt><trkpt lat="40.492135" lon="9.1240083"><ele>420.0</ele><time>2026-04-30T09:19:33.784Z</time></trkpt><trkpt lat="40.4921983" lon="9.1239733"><ele>420.0</ele><time>2026-04-30T09:19:34.784Z</time></trkpt><trkpt lat="40.49226" lon="9.1239367"><ele>420.8</ele><time>2026-04-30T09:19:35.78Z</time></trkpt><trkpt lat="40.4923583" lon="9.1238433"><ele>421.6</ele><time>2026-04-30T09:19:37.779Z</time></trkpt><trkpt lat="40.4924283" lon="9.123705"><ele>422.4</ele><time>2026-04-30T09:19:39.779Z</time></trkpt><trkpt lat="40.4924683" lon="9.123635"><ele>423.2</ele><time>2026-04-30T09:19:40.783Z</time></trkpt><trkpt lat="40.4925167" lon="9.123565"><ele>424.0</ele><time>2026-04-30T09:19:41.785Z</time></trkpt><trkpt lat="40.4925717" lon="9.1235"><ele>424.0</ele><time>2026-04-30T09:19:42.785Z</time></trkpt><trkpt lat="40.4926233" lon="9.1234433"><ele>424.0</ele><time>2026-04-30T09:19:43.785Z</time></trkpt><trkpt lat="40.4927117" lon="9.1233367"><ele>424.0</ele><time>2026-04-30T09:19:45.783Z</time></trkpt><trkpt lat="40.4927917" lon="9.1232167"><ele>424.0</ele><time>2026-04-30T09:19:47.782Z</time></trkpt><trkpt lat="40.4928367" lon="9.1231483"><ele>424.0</ele><time>2026-04-30T09:19:48.779Z</time></trkpt><trkpt lat="40.4928867" lon="9.123075"><ele>426.33333333333337</ele><time>2026-04-30T09:19:49.785Z</time></trkpt><trkpt lat="40.49294" lon="9.1230033"><ele>428.6666666666667</ele><time>2026-04-30T09:19:50.78Z</time></trkpt><trkpt lat="40.4929917" lon="9.1229333"><ele>431.0</ele><time>2026-04-30T09:19:51.781Z</time></trkpt><trkpt lat="40.4930483" lon="9.12286"><ele>433.33333333333337</ele><time>2026-04-30T09:19:52.781Z</time></trkpt><trkpt lat="40.4931067" lon="9.1227833"><ele>435.6666666666667</ele><time>2026-04-30T09:19:53.782Z</time></trkpt><trkpt lat="40.4931633" lon="9.1227033"><ele>438.0</ele><time>2026-04-30T09:19:54.786Z</time></trkpt><trkpt lat="40.4932183" lon="9.1226133"><ele>438.0</ele><time>2026-04-30T09:19:55.784Z</time></trkpt><trkpt lat="40.4932683" lon="9.1225167"><ele>438.0</ele><time>2026-04-30T09:19:56.787Z</time></trkpt><trkpt lat="40.4933117" lon="9.12242"><ele>438.0</ele><time>2026-04-30T09:19:57.783Z</time></trkpt><trkpt lat="40.4933517" lon="9.1223217"><ele>438.0</ele><time>2026-04-30T09:19:58.787Z</time></trkpt><trkpt lat="40.4933883" lon="9.1222183"><ele>438.0</ele><time>2026-04-30T09:19:59.787Z</time></trkpt><trkpt lat="40.4934283" lon="9.122115"><ele>438.0</ele><time>2026-04-30T09:20:00.781Z</time></trkpt><trkpt lat="40.49347" lon="9.1220133"><ele>437.0</ele><time>2026-04-30T09:20:01.788Z</time></trkpt><trkpt lat="40.49351" lon="9.12191"><ele>435.99999999999994</ele><time>2026-04-30T09:20:02.786Z</time></trkpt><trkpt lat="40.493545" lon="9.1218017"><ele>434.99999999999994</ele><time>2026-04-30T09:20:03.785Z</time></trkpt><trkpt lat="40.4935817" lon="9.1216783"><ele>434.0</ele><time>2026-04-30T09:20:04.778Z</time></trkpt><trkpt lat="40.4936083" lon="9.1215433"><ele>433.0</ele><time>2026-04-30T09:20:05.78Z</time></trkpt><trkpt lat="40.4936283" lon="9.121395"><ele>432.5</ele><time>2026-04-30T09:20:06.783Z</time></trkpt><trkpt lat="40.493635" lon="9.1212367"><ele>432.0</ele><time>2026-04-30T09:20:07.782Z</time></trkpt><trkpt lat="40.4936383" lon="9.1210783"><ele>431.5</ele><time>2026-04-30T09:20:08.787Z</time></trkpt><trkpt lat="40.49364" lon="9.12092"><ele>431.0</ele><time>2026-04-30T09:20:09.783Z</time></trkpt><trkpt lat="40.4936483" lon="9.1207617"><ele>431.0</ele><time>2026-04-30T09:20:10.786Z</time></trkpt><trkpt lat="40.4936633" lon="9.12061"><ele>431.0</ele><time>2026-04-30T09:20:11.782Z</time></trkpt><trkpt lat="40.4936917" lon="9.120465"><ele>431.0</ele><time>2026-04-30T09:20:12.782Z</time></trkpt><trkpt lat="40.49373" lon="9.120335"><ele>431.0</ele><time>2026-04-30T09:20:13.784Z</time></trkpt><trkpt lat="40.4937767" lon="9.120215"><ele>431.0</ele><time>2026-04-30T09:20:14.785Z</time></trkpt><trkpt lat="40.4938217" lon="9.1201"><ele>430.99999999999994</ele><time>2026-04-30T09:20:15.785Z</time></trkpt><trkpt lat="40.4938583" lon="9.11999"><ele>431.0</ele><time>2026-04-30T09:20:16.784Z</time></trkpt><trkpt lat="40.49389" lon="9.1198867"><ele>431.0</ele><time>2026-04-30T09:20:17.781Z</time></trkpt><trkpt lat="40.49392" lon="9.1197867"><ele>431.0</ele><time>2026-04-30T09:20:18.786Z</time></trkpt><trkpt lat="40.4939517" lon="9.1196917"><ele>430.99999999999994</ele><time>2026-04-30T09:20:19.78Z</time></trkpt><trkpt lat="40.4939833" lon="9.1196017"><ele>431.0</ele><time>2026-04-30T09:20:20.784Z</time></trkpt><trkpt lat="40.494015" lon="9.1195133"><ele>429.49999999999994</ele><time>2026-04-30T09:20:21.783Z</time></trkpt><trkpt lat="40.4940517" lon="9.1194267"><ele>428.0</ele><time>2026-04-30T09:20:22.786Z</time></trkpt><trkpt lat="40.4940917" lon="9.1193367"><ele>426.5</ele><time>2026-04-30T09:20:23.785Z</time></trkpt><trkpt lat="40.4941317" lon="9.1192433"><ele>425.0</ele><time>2026-04-30T09:20:24.784Z</time></trkpt><trkpt lat="40.4941683" lon="9.119145"><ele>423.49999999999994</ele><time>2026-04-30T09:20:25.788Z</time></trkpt><trkpt lat="40.4942" lon="9.1190383"><ele>422.0</ele><time>2026-04-30T09:20:26.779Z</time></trkpt><trkpt lat="40.4942183" lon="9.1189233"><ele>421.8333333333333</ele><time>2026-04-30T09:20:27.784Z</time></trkpt><trkpt lat="40.4942283" lon="9.1188083"><ele>421.66666666666663</ele><time>2026-04-30T09:20:28.786Z</time></trkpt><trkpt lat="40.49423" lon="9.1186883"><ele>421.5</ele><time>2026-04-30T09:20:29.782Z</time></trkpt><trkpt lat="40.494225" lon="9.1185717"><ele>421.33333333333337</ele><time>2026-04-30T09:20:30.78Z</time></trkpt><trkpt lat="40.4942233" lon="9.118465"><ele>421.1666666666667</ele><time>2026-04-30T09:20:31.783Z</time></trkpt><trkpt lat="40.4942233" lon="9.11837"><ele>421.0</ele><time>2026-04-30T09:20:32.783Z</time></trkpt><trkpt lat="40.494225" lon="9.1182833"><ele>422.42857142857144</ele><time>2026-04-30T09:20:33.783Z</time></trkpt><trkpt lat="40.4942233" lon="9.1182"><ele>423.8571428571429</ele><time>2026-04-30T09:20:34.782Z</time></trkpt><trkpt lat="40.4942267" lon="9.1181167"><ele>425.28571428571433</ele><time>2026-04-30T09:20:35.781Z</time></trkpt><trkpt lat="40.4942267" lon="9.1180283"><ele>426.7142857142857</ele><time>2026-04-30T09:20:36.779Z</time></trkpt><trkpt lat="40.4942217" lon="9.1179317"><ele>428.1428571428571</ele><time>2026-04-30T09:20:37.783Z</time></trkpt><trkpt lat="40.49422" lon="9.1178233"><ele>429.5714285714286</ele><time>2026-04-30T09:20:38.779Z</time></trkpt><trkpt lat="40.4942183" lon="9.1177133"><ele>431.0</ele><time>2026-04-30T09:20:39.778Z</time></trkpt><trkpt lat="40.4942217" lon="9.1175983"><ele>430.99999999999994</ele><time>2026-04-30T09:20:40.783Z</time></trkpt><trkpt lat="40.4942267" lon="9.1174833"><ele>431.0</ele><time>2026-04-30T09:20:41.781Z</time></trkpt><trkpt lat="40.49423" lon="9.1173683"><ele>431.0</ele><time>2026-04-30T09:20:42.778Z</time></trkpt><trkpt lat="40.4942283" lon="9.1172583"><ele>431.0</ele><time>2026-04-30T09:20:43.784Z</time></trkpt><trkpt lat="40.4942333" lon="9.1171583"><ele>430.99999999999994</ele><time>2026-04-30T09:20:44.781Z</time></trkpt><trkpt lat="40.4942433" lon="9.1170633"><ele>431.0</ele><time>2026-04-30T09:20:45.779Z</time></trkpt><trkpt lat="40.4942583" lon="9.1169683"><ele>432.8333333333333</ele><time>2026-04-30T09:20:46.782Z</time></trkpt><trkpt lat="40.494275" lon="9.11687"><ele>434.66666666666663</ele><time>2026-04-30T09:20:47.779Z</time></trkpt><trkpt lat="40.4942883" lon="9.116765"><ele>436.5</ele><time>2026-04-30T09:20:48.783Z</time></trkpt><trkpt lat="40.494295" lon="9.11666"><ele>438.33333333333337</ele><time>2026-04-30T09:20:49.784Z</time></trkpt><trkpt lat="40.4942967" lon="9.11655"><ele>440.1666666666667</ele><time>2026-04-30T09:20:50.781Z</time></trkpt><trkpt lat="40.4942917" lon="9.1164417"><ele>442.0</ele><time>2026-04-30T09:20:51.78Z</time></trkpt><trkpt lat="40.49428" lon="9.1163333"><ele>443.42857142857144</ele><time>2026-04-30T09:20:52.784Z</time></trkpt><trkpt lat="40.4942617" lon="9.1162267"><ele>444.8571428571429</ele><time>2026-04-30T09:20:53.778Z</time></trkpt><trkpt lat="40.4942367" lon="9.1161267"><ele>446.28571428571433</ele><time>2026-04-30T09:20:54.777Z</time></trkpt><trkpt lat="40.4942117" lon="9.1160333"><ele>447.7142857142857</ele><time>2026-04-30T09:20:55.781Z</time></trkpt><trkpt lat="40.4941933" lon="9.115945"><ele>449.1428571428571</ele><time>2026-04-30T09:20:56.783Z</time></trkpt><trkpt lat="40.494185" lon="9.1158617"><ele>450.5714285714286</ele><time>2026-04-30T09:20:57.783Z</time></trkpt><trkpt lat="40.4941883" lon="9.1157767"><ele>452.0</ele><time>2026-04-30T09:20:58.785Z</time></trkpt><trkpt lat="40.4942017" lon="9.1156933"><ele>452.49999999999994</ele><time>2026-04-30T09:20:59.782Z</time></trkpt><trkpt lat="40.4942217" lon="9.115605"><ele>453.0</ele><time>2026-04-30T09:21:00.779Z</time></trkpt><trkpt lat="40.4942533" lon="9.1155133"><ele>453.5</ele><time>2026-04-30T09:21:01.779Z</time></trkpt><trkpt lat="40.49429" lon="9.1154133"><ele>454.0</ele><time>2026-04-30T09:21:02.779Z</time></trkpt><trkpt lat="40.4943267" lon="9.115315"><ele>454.49999999999994</ele><time>2026-04-30T09:21:03.783Z</time></trkpt><trkpt lat="40.49436" lon="9.1152167"><ele>455.0</ele><time>2026-04-30T09:21:04.781Z</time></trkpt><trkpt lat="40.4943967" lon="9.1151233"><ele>454.99999999999994</ele><time>2026-04-30T09:21:05.781Z</time></trkpt><trkpt lat="40.4944317" lon="9.115035"><ele>455.0</ele><time>2026-04-30T09:21:06.784Z</time></trkpt><trkpt lat="40.4944667" lon="9.1149567"><ele>455.0</ele><time>2026-04-30T09:21:07.783Z</time></trkpt><trkpt lat="40.4945033" lon="9.1148883"><ele>455.0</ele><time>2026-04-30T09:21:08.78Z</time></trkpt><trkpt lat="40.4945817" lon="9.1148083"><ele>454.99999999999994</ele><time>2026-04-30T09:21:10.783Z</time></trkpt><trkpt lat="40.4946667" lon="9.1147933"><ele>455.0</ele><time>2026-04-30T09:21:12.778Z</time></trkpt><trkpt lat="40.494765" lon="9.1148367"><ele>459.0</ele><time>2026-04-30T09:21:14.783Z</time></trkpt><trkpt lat="40.4948783" lon="9.1149"><ele>463.0</ele><time>2026-04-30T09:21:16.779Z</time></trkpt><trkpt lat="40.4949433" lon="9.114915"><ele>467.0</ele><time>2026-04-30T09:21:17.783Z</time></trkpt><trkpt lat="40.4950083" lon="9.114915"><ele>471.0</ele><time>2026-04-30T09:21:18.779Z</time></trkpt><trkpt lat="40.495115" lon="9.1148733"><ele>475.0</ele><time>2026-04-30T09:21:20.779Z</time></trkpt><trkpt lat="40.4951833" lon="9.1147833"><ele>476.4</ele><time>2026-04-30T09:21:22.78Z</time></trkpt><trkpt lat="40.4952317" lon="9.1146667"><ele>477.8</ele><time>2026-04-30T09:21:24.779Z</time></trkpt><trkpt lat="40.4952583" lon="9.114505"><ele>479.20000000000005</ele><time>2026-04-30T09:21:26.783Z</time></trkpt><trkpt lat="40.49527" lon="9.1144133"><ele>480.6</ele><time>2026-04-30T09:21:27.782Z</time></trkpt><trkpt lat="40.4952767" lon="9.11431"><ele>482.0</ele><time>2026-04-30T09:21:28.779Z</time></trkpt><trkpt lat="40.4952883" lon="9.1142133"><ele>481.99999999999994</ele><time>2026-04-30T09:21:29.78Z</time></trkpt><trkpt lat="40.4953" lon="9.11412"><ele>482.0</ele><time>2026-04-30T09:21:30.78Z</time></trkpt><trkpt lat="40.4953183" lon="9.1140333"><ele>482.0</ele><time>2026-04-30T09:21:31.783Z</time></trkpt><trkpt lat="40.495345" lon="9.1139567"><ele>482.0</ele><time>2026-04-30T09:21:32.782Z</time></trkpt><trkpt lat="40.4954017" lon="9.1138317"><ele>481.99999999999994</ele><time>2026-04-30T09:21:34.78Z</time></trkpt><trkpt lat="40.4954683" lon="9.1137"><ele>482.0</ele><time>2026-04-30T09:21:36.778Z</time></trkpt><trkpt lat="40.4955033" lon="9.1136283"><ele>485.7142857142857</ele><time>2026-04-30T09:21:37.782Z</time></trkpt><trkpt lat="40.4955383" lon="9.1135567"><ele>489.42857142857144</ele><time>2026-04-30T09:21:38.783Z</time></trkpt><trkpt lat="40.495575" lon="9.1134833"><ele>493.14285714285717</ele><time>2026-04-30T09:21:39.777Z</time></trkpt><trkpt lat="40.49561" lon="9.1134117"><ele>496.8571428571429</ele><time>2026-04-30T09:21:40.78Z</time></trkpt><trkpt lat="40.495645" lon="9.1133383"><ele>500.57142857142856</ele><time>2026-04-30T09:21:41.78Z</time></trkpt><trkpt lat="40.4957183" lon="9.1132117"><ele>504.28571428571433</ele><time>2026-04-30T09:21:43.784Z</time></trkpt><trkpt lat="40.4957617" lon="9.1131517"><ele>508.0</ele><time>2026-04-30T09:21:44.781Z</time></trkpt><trkpt lat="40.49583" lon="9.1130683"><ele>509.1666666666667</ele><time>2026-04-30T09:21:46.782Z</time></trkpt><trkpt lat="40.4958717" lon="9.1130033"><ele>510.33333333333337</ele><time>2026-04-30T09:21:48.78Z</time></trkpt><trkpt lat="40.4959283" lon="9.1129383"><ele>511.5</ele><time>2026-04-30T09:22:00.781Z</time></trkpt><trkpt lat="40.4960167" lon="9.1129017"><ele>512.6666666666666</ele><time>2026-04-30T09:22:03.782Z</time></trkpt><trkpt lat="40.4960983" lon="9.1128283"><ele>513.8333333333333</ele><time>2026-04-30T09:22:05.782Z</time></trkpt><trkpt lat="40.49618" lon="9.11273"><ele>515.0</ele><time>2026-04-30T09:22:07.783Z</time></trkpt><trkpt lat="40.4962483" lon="9.1126033"><ele>515.8333333333333</ele><time>2026-04-30T09:22:09.778Z</time></trkpt><trkpt lat="40.496295" lon="9.1124517"><ele>516.6666666666666</ele><time>2026-04-30T09:22:11.78Z</time></trkpt><trkpt lat="40.4963117" lon="9.1123667"><ele>517.5</ele><time>2026-04-30T09:22:12.78Z</time></trkpt><trkpt lat="40.4963317" lon="9.1122783"><ele>518.3333333333334</ele><time>2026-04-30T09:22:13.785Z</time></trkpt><trkpt lat="40.4963517" lon="9.1121917"><ele>519.1666666666667</ele><time>2026-04-30T09:22:14.787Z</time></trkpt><trkpt lat="40.4963733" lon="9.112105"><ele>520.0</ele><time>2026-04-30T09:22:15.778Z</time></trkpt><trkpt lat="40.4963983" lon="9.11202"><ele>523.0</ele><time>2026-04-30T09:22:16.781Z</time></trkpt><trkpt lat="40.4964283" lon="9.1119383"><ele>526.0</ele><time>2026-04-30T09:22:17.781Z</time></trkpt><trkpt lat="40.4964617" lon="9.111855"><ele>529.0</ele><time>2026-04-30T09:22:18.779Z</time></trkpt><trkpt lat="40.4964933" lon="9.1117783"><ele>532.0</ele><time>2026-04-30T09:22:19.782Z</time></trkpt><trkpt lat="40.4965583" lon="9.1116667"><ele>535.0</ele><time>2026-04-30T09:22:21.779Z</time></trkpt><trkpt lat="40.4965833" lon="9.1115567"><ele>538.0</ele><time>2026-04-30T09:22:23.785Z</time></trkpt><trkpt lat="40.4965817" lon="9.1114417"><ele>540.0</ele><time>2026-04-30T09:22:25.781Z</time></trkpt><trkpt lat="40.496595" lon="9.1113083"><ele>542.0</ele><time>2026-04-30T09:22:27.781Z</time></trkpt><trkpt lat="40.4966117" lon="9.1112283"><ele>544.0</ele><time>2026-04-30T09:22:28.78Z</time></trkpt><trkpt lat="40.4966333" lon="9.111145"><ele>546.0</ele><time>2026-04-30T09:22:29.781Z</time></trkpt><trkpt lat="40.4966567" lon="9.1110567"><ele>548.0</ele><time>2026-04-30T09:22:30.782Z</time></trkpt><trkpt lat="40.4966767" lon="9.1109733"><ele>550.0</ele><time>2026-04-30T09:22:31.781Z</time></trkpt><trkpt lat="40.49669" lon="9.1108883"><ele>552.0</ele><time>2026-04-30T09:22:32.783Z</time></trkpt><trkpt lat="40.4966983" lon="9.1108017"><ele>552.0</ele><time>2026-04-30T09:22:33.784Z</time></trkpt><trkpt lat="40.496705" lon="9.1107167"><ele>552.0</ele><time>2026-04-30T09:22:34.778Z</time></trkpt><trkpt lat="40.49671" lon="9.110545"><ele>552.0</ele><time>2026-04-30T09:22:36.785Z</time></trkpt><trkpt lat="40.49672" lon="9.1103833"><ele>552.0</ele><time>2026-04-30T09:22:38.793Z</time></trkpt><trkpt lat="40.4967517" lon="9.1102617"><ele>552.0</ele><time>2026-04-30T09:22:40.779Z</time></trkpt><trkpt lat="40.496815" lon="9.1101733"><ele>552.0</ele><time>2026-04-30T09:22:42.784Z</time></trkpt><trkpt lat="40.4969033" lon="9.110075"><ele>552.0</ele><time>2026-04-30T09:22:44.789Z</time></trkpt><trkpt lat="40.4969533" lon="9.110015"><ele>552.0</ele><time>2026-04-30T09:22:45.78Z</time></trkpt><trkpt lat="40.4970017" lon="9.1099483"><ele>552.0</ele><time>2026-04-30T09:22:46.781Z</time></trkpt><trkpt lat="40.4970567" lon="9.1098733"><ele>552.0</ele><time>2026-04-30T09:22:47.785Z</time></trkpt><trkpt lat="40.4971083" lon="9.1097933"><ele>552.0</ele><time>2026-04-30T09:22:48.785Z</time></trkpt><trkpt lat="40.4971617" lon="9.1097"><ele>557.3333333333334</ele><time>2026-04-30T09:22:49.781Z</time></trkpt><trkpt lat="40.4972067" lon="9.1096083"><ele>562.6666666666666</ele><time>2026-04-30T09:22:50.794Z</time></trkpt><trkpt lat="40.4972483" lon="9.1095117"><ele>568.0</ele><time>2026-04-30T09:22:51.779Z</time></trkpt><trkpt lat="40.497285" lon="9.109415"><ele>573.3333333333333</ele><time>2026-04-30T09:22:52.783Z</time></trkpt><trkpt lat="40.4973167" lon="9.109315"><ele>578.6666666666666</ele><time>2026-04-30T09:22:53.785Z</time></trkpt><trkpt lat="40.497345" lon="9.1092117"><ele>584.0</ele><time>2026-04-30T09:22:54.786Z</time></trkpt><trkpt lat="40.4973717" lon="9.1091067"><ele>583.6666666666666</ele><time>2026-04-30T09:22:55.784Z</time></trkpt><trkpt lat="40.4973967" lon="9.1089983"><ele>583.3333333333333</ele><time>2026-04-30T09:22:56.782Z</time></trkpt><trkpt lat="40.497425" lon="9.1088983"><ele>583.0</ele><time>2026-04-30T09:22:57.784Z</time></trkpt><trkpt lat="40.497455" lon="9.1087917"><ele>582.6666666666666</ele><time>2026-04-30T09:22:58.782Z</time></trkpt><trkpt lat="40.4974833" lon="9.1086917"><ele>582.3333333333334</ele><time>2026-04-30T09:22:59.782Z</time></trkpt><trkpt lat="40.4975067" lon="9.1085983"><ele>582.0</ele><time>2026-04-30T09:23:00.784Z</time></trkpt><trkpt lat="40.49752" lon="9.1085133"><ele>582.0</ele><time>2026-04-30T09:23:01.782Z</time></trkpt><trkpt lat="40.49751" lon="9.10838"><ele>582.0</ele><time>2026-04-30T09:23:03.783Z</time></trkpt><trkpt lat="40.4974883" lon="9.1082367"><ele>582.0</ele><time>2026-04-30T09:23:05.784Z</time></trkpt><trkpt lat="40.4974817" lon="9.1081467"><ele>582.0</ele><time>2026-04-30T09:23:06.783Z</time></trkpt><trkpt lat="40.4974767" lon="9.108045"><ele>582.0</ele><time>2026-04-30T09:23:07.785Z</time></trkpt><trkpt lat="40.49747" lon="9.107935"><ele>582.0</ele><time>2026-04-30T09:23:08.791Z</time></trkpt><trkpt lat="40.4974567" lon="9.1078167"><ele>582.8333333333334</ele><time>2026-04-30T09:23:09.783Z</time></trkpt><trkpt lat="40.4974433" lon="9.1076967"><ele>583.6666666666666</ele><time>2026-04-30T09:23:10.783Z</time></trkpt><trkpt lat="40.4974267" lon="9.1075767"><ele>584.5</ele><time>2026-04-30T09:23:11.779Z</time></trkpt><trkpt lat="40.4974117" lon="9.1074583"><ele>585.3333333333333</ele><time>2026-04-30T09:23:12.789Z</time></trkpt><trkpt lat="40.4973967" lon="9.1073467"><ele>586.1666666666666</ele><time>2026-04-30T09:23:13.783Z</time></trkpt><trkpt lat="40.4973767" lon="9.1072383"><ele>587.0</ele><time>2026-04-30T09:23:14.791Z</time></trkpt><trkpt lat="40.4973517" lon="9.1071367"><ele>587.0</ele><time>2026-04-30T09:23:15.784Z</time></trkpt><trkpt lat="40.4973233" lon="9.10703"><ele>587.0</ele><time>2026-04-30T09:23:16.786Z</time></trkpt><trkpt lat="40.497295" lon="9.1069267"><ele>587.0</ele><time>2026-04-30T09:23:17.783Z</time></trkpt><trkpt lat="40.497265" lon="9.1068217"><ele>587.0</ele><time>2026-04-30T09:23:18.784Z</time></trkpt><trkpt lat="40.497235" lon="9.1067183"><ele>587.0</ele><time>2026-04-30T09:23:19.783Z</time></trkpt><trkpt lat="40.4972" lon="9.10662"><ele>587.0</ele><time>2026-04-30T09:23:20.79Z</time></trkpt><trkpt lat="40.4971633" lon="9.1065317"><ele>587.6</ele><time>2026-04-30T09:23:21.789Z</time></trkpt><trkpt lat="40.4971283" lon="9.1064583"><ele>588.2</ele><time>2026-04-30T09:23:22.79Z</time></trkpt><trkpt lat="40.497065" lon="9.1063383"><ele>588.8</ele><time>2026-04-30T09:23:24.784Z</time></trkpt><trkpt lat="40.4970183" lon="9.1062567"><ele>589.4</ele><time>2026-04-30T09:23:26.784Z</time></trkpt><trkpt lat="40.4969683" lon="9.10616"><ele>590.0</ele><time>2026-04-30T09:23:29.784Z</time></trkpt><trkpt lat="40.4969217" lon="9.1060083"><ele>590.6666666666666</ele><time>2026-04-30T09:24:28.782Z</time></trkpt><trkpt lat="40.4969" lon="9.1058767"><ele>591.3333333333333</ele><time>2026-04-30T09:24:30.782Z</time></trkpt><trkpt lat="40.496885" lon="9.1057933"><ele>592.0</ele><time>2026-04-30T09:24:31.784Z</time></trkpt><trkpt lat="40.496865" lon="9.1056983"><ele>592.6666666666666</ele><time>2026-04-30T09:24:32.785Z</time></trkpt><trkpt lat="40.496845" lon="9.10561"><ele>593.3333333333334</ele><time>2026-04-30T09:24:33.783Z</time></trkpt><trkpt lat="40.4968183" lon="9.1055217"><ele>594.0</ele><time>2026-04-30T09:24:34.782Z</time></trkpt><trkpt lat="40.49679" lon="9.1054317"><ele>597.0</ele><time>2026-04-30T09:24:35.782Z</time></trkpt><trkpt lat="40.496755" lon="9.105345"><ele>600.0</ele><time>2026-04-30T09:24:36.78Z</time></trkpt><trkpt lat="40.4967133" lon="9.10526"><ele>603.0</ele><time>2026-04-30T09:24:37.782Z</time></trkpt><trkpt lat="40.4966667" lon="9.10517"><ele>606.0</ele><time>2026-04-30T09:24:38.783Z</time></trkpt><trkpt lat="40.4966183" lon="9.10508"><ele>609.0</ele><time>2026-04-30T09:24:39.783Z</time></trkpt><trkpt lat="40.49657" lon="9.1049933"><ele>612.0</ele><time>2026-04-30T09:24:40.779Z</time></trkpt><trkpt lat="40.496525" lon="9.1049117"><ele>611.2857142857142</ele><time>2026-04-30T09:24:41.786Z</time></trkpt><trkpt lat="40.4964783" lon="9.1048317"><ele>610.5714285714286</ele><time>2026-04-30T09:24:42.783Z</time></trkpt><trkpt lat="40.4964333" lon="9.1047533"><ele>609.8571428571429</ele><time>2026-04-30T09:24:43.783Z</time></trkpt><trkpt lat="40.496395" lon="9.1046767"><ele>609.1428571428571</ele><time>2026-04-30T09:24:44.787Z</time></trkpt><trkpt lat="40.4963567" lon="9.1046"><ele>608.4285714285714</ele><time>2026-04-30T09:24:45.78Z</time></trkpt><trkpt lat="40.4963217" lon="9.1045233"><ele>607.7142857142857</ele><time>2026-04-30T09:24:46.782Z</time></trkpt><trkpt lat="40.4962867" lon="9.104445"><ele>607.0</ele><time>2026-04-30T09:24:47.783Z</time></trkpt><trkpt lat="40.4962483" lon="9.1043617"><ele>607.0</ele><time>2026-04-30T09:24:48.779Z</time></trkpt><trkpt lat="40.4962017" lon="9.1042767"><ele>607.0</ele><time>2026-04-30T09:24:49.782Z</time></trkpt><trkpt lat="40.4961533" lon="9.1041883"><ele>607.0</ele><time>2026-04-30T09:24:50.791Z</time></trkpt><trkpt lat="40.4961" lon="9.1040933"><ele>607.0</ele><time>2026-04-30T09:24:51.783Z</time></trkpt><trkpt lat="40.4960433" lon="9.1039967"><ele>607.0</ele><time>2026-04-30T09:24:52.78Z</time></trkpt><trkpt lat="40.4959883" lon="9.1039"><ele>607.0</ele><time>2026-04-30T09:24:53.784Z</time></trkpt><trkpt lat="40.4959367" lon="9.1038083"><ele>609.5</ele><time>2026-04-30T09:24:54.784Z</time></trkpt><trkpt lat="40.4958867" lon="9.1037083"><ele>612.0</ele><time>2026-04-30T09:24:55.78Z</time></trkpt><trkpt lat="40.495835" lon="9.1036083"><ele>614.5</ele><time>2026-04-30T09:24:56.784Z</time></trkpt><trkpt lat="40.4957817" lon="9.1035067"><ele>617.0</ele><time>2026-04-30T09:24:57.784Z</time></trkpt><trkpt lat="40.49573" lon="9.10341"><ele>619.5</ele><time>2026-04-30T09:24:58.781Z</time></trkpt><trkpt lat="40.4956867" lon="9.1033283"><ele>622.0</ele><time>2026-04-30T09:24:59.783Z</time></trkpt><trkpt lat="40.4956483" lon="9.103245"><ele>622.6666666666667</ele><time>2026-04-30T09:25:00.782Z</time></trkpt><trkpt lat="40.4956167" lon="9.103165"><ele>623.3333333333334</ele><time>2026-04-30T09:25:01.782Z</time></trkpt><trkpt lat="40.4955983" lon="9.10308"><ele>624.0</ele><time>2026-04-30T09:25:02.782Z</time></trkpt><trkpt lat="40.4955833" lon="9.1029983"><ele>624.6666666666666</ele><time>2026-04-30T09:25:03.783Z</time></trkpt><trkpt lat="40.4955633" lon="9.1028433"><ele>625.3333333333333</ele><time>2026-04-30T09:25:05.786Z</time></trkpt><trkpt lat="40.4955533" lon="9.1026883"><ele>626.0</ele><time>2026-04-30T09:25:07.781Z</time></trkpt><trkpt lat="40.49555" lon="9.102605"><ele>626.0</ele><time>2026-04-30T09:25:08.79Z</time></trkpt><trkpt lat="40.4955483" lon="9.10252"><ele>626.0</ele><time>2026-04-30T09:25:09.783Z</time></trkpt><trkpt lat="40.4955433" lon="9.1024367"><ele>626.0</ele><time>2026-04-30T09:25:10.785Z</time></trkpt><trkpt lat="40.4955483" lon="9.1023533"><ele>626.0</ele><time>2026-04-30T09:25:11.783Z</time></trkpt><trkpt lat="40.4955533" lon="9.10227"><ele>626.0</ele><time>2026-04-30T09:25:12.783Z</time></trkpt><trkpt lat="40.4955583" lon="9.1021817"><ele>626.0</ele><time>2026-04-30T09:25:13.784Z</time></trkpt><trkpt lat="40.495565" lon="9.102095"><ele>626.0</ele><time>2026-04-30T09:25:14.789Z</time></trkpt><trkpt lat="40.4955717" lon="9.1019367"><ele>626.4</ele><time>2026-04-30T09:25:16.783Z</time></trkpt><trkpt lat="40.4955667" lon="9.1017933"><ele>626.8</ele><time>2026-04-30T09:25:18.784Z</time></trkpt><trkpt lat="40.4955333" lon="9.10167"><ele>627.1999999999999</ele><time>2026-04-30T09:25:20.791Z</time></trkpt><trkpt lat="40.4954817" lon="9.1015683"><ele>627.6</ele><time>2026-04-30T09:25:22.782Z</time></trkpt><trkpt lat="40.4954133" lon="9.1015017"><ele>628.0</ele><time>2026-04-30T09:25:24.784Z</time></trkpt><trkpt lat="40.4953133" lon="9.1015067"><ele>626.6</ele><time>2026-04-30T09:25:26.784Z</time></trkpt><trkpt lat="40.49521" lon="9.101565"><ele>625.1999999999999</ele><time>2026-04-30T09:25:28.782Z</time></trkpt><trkpt lat="40.4951433" lon="9.1016333"><ele>623.8</ele><time>2026-04-30T09:25:29.782Z</time></trkpt><trkpt lat="40.4950767" lon="9.1017033"><ele>622.4</ele><time>2026-04-30T09:25:30.786Z</time></trkpt><trkpt lat="40.49501" lon="9.1017667"><ele>621.0</ele><time>2026-04-30T09:25:31.781Z</time></trkpt><trkpt lat="40.49494" lon="9.1018433"><ele>621.0</ele><time>2026-04-30T09:25:32.784Z</time></trkpt><trkpt lat="40.494875" lon="9.1019117"><ele>621.0</ele><time>2026-04-30T09:25:33.783Z</time></trkpt><trkpt lat="40.49481" lon="9.101985"><ele>621.0</ele><time>2026-04-30T09:25:34.784Z</time></trkpt><trkpt lat="40.4947467" lon="9.1020533"><ele>621.0</ele><time>2026-04-30T09:25:35.785Z</time></trkpt><trkpt lat="40.4946767" lon="9.1021167"><ele>621.0</ele><time>2026-04-30T09:25:36.781Z</time></trkpt><trkpt lat="40.4946033" lon="9.102175"><ele>621.0</ele><time>2026-04-30T09:25:37.782Z</time></trkpt><trkpt lat="40.4945267" lon="9.102225"><ele>623.1428571428571</ele><time>2026-04-30T09:25:38.789Z</time></trkpt><trkpt lat="40.494455" lon="9.1022667"><ele>625.2857142857142</ele><time>2026-04-30T09:25:39.784Z</time></trkpt><trkpt lat="40.4943883" lon="9.1022967"><ele>627.4285714285713</ele><time>2026-04-30T09:25:40.788Z</time></trkpt><trkpt lat="40.4943233" lon="9.102315"><ele>629.5714285714286</ele><time>2026-04-30T09:25:41.782Z</time></trkpt><trkpt lat="40.494255" lon="9.1023283"><ele>631.7142857142858</ele><time>2026-04-30T09:25:42.783Z</time></trkpt><trkpt lat="40.494185" lon="9.1023433"><ele>633.8571428571428</ele><time>2026-04-30T09:25:43.782Z</time></trkpt><trkpt lat="40.4941167" lon="9.1023617"><ele>636.0</ele><time>2026-04-30T09:25:44.792Z</time></trkpt><trkpt lat="40.4940517" lon="9.10238"><ele>636.0</ele><time>2026-04-30T09:25:45.783Z</time></trkpt><trkpt lat="40.49394" lon="9.1024017"><ele>636.0</ele><time>2026-04-30T09:25:47.783Z</time></trkpt><trkpt lat="40.493835" lon="9.1023767"><ele>636.0</ele><time>2026-04-30T09:25:49.784Z</time></trkpt><trkpt lat="40.4937283" lon="9.1023183"><ele>636.0</ele><time>2026-04-30T09:25:51.786Z</time></trkpt><trkpt lat="40.4936483" lon="9.10224"><ele>636.0</ele><time>2026-04-30T09:25:53.781Z</time></trkpt><trkpt lat="40.4936583" lon="9.1021483"><ele>636.0</ele><time>2026-04-30T09:25:56.78Z</time></trkpt><trkpt lat="40.49373" lon="9.1021233"><ele>636.0</ele><time>2026-04-30T09:25:58.781Z</time></trkpt><trkpt lat="40.49383" lon="9.1020733"><ele>636.0</ele><time>2026-04-30T09:26:00.781Z</time></trkpt><trkpt lat="40.4938817" lon="9.102025"><ele>636.0</ele><time>2026-04-30T09:26:01.783Z</time></trkpt><trkpt lat="40.4939317" lon="9.10197"><ele>636.0</ele><time>2026-04-30T09:26:02.783Z</time></trkpt><trkpt lat="40.4940133" lon="9.1018633"><ele>636.0</ele><time>2026-04-30T09:26:04.783Z</time></trkpt><trkpt lat="40.4940717" lon="9.101785"><ele>636.0</ele><time>2026-04-30T09:26:06.782Z</time></trkpt><trkpt lat="40.494125" lon="9.1017117"><ele>636.0</ele><time>2026-04-30T09:26:10.782Z</time></trkpt><trkpt lat="40.4941733" lon="9.1016417"><ele>636.0</ele><time>2026-04-30T09:26:12.781Z</time></trkpt><trkpt lat="40.494255" lon="9.10152"><ele>636.0</ele><time>2026-04-30T09:26:14.788Z</time></trkpt><trkpt lat="40.4942867" lon="9.1014383"><ele>636.0</ele><time>2026-04-30T09:26:15.782Z</time></trkpt><trkpt lat="40.4943183" lon="9.1013633"><ele>636.0</ele><time>2026-04-30T09:26:16.782Z</time></trkpt><trkpt lat="40.4943417" lon="9.10128"><ele>637.5</ele><time>2026-04-30T09:26:17.781Z</time></trkpt><trkpt lat="40.4943567" lon="9.10119"><ele>639.0</ele><time>2026-04-30T09:26:18.782Z</time></trkpt><trkpt lat="40.49435" lon="9.1011017"><ele>640.5</ele><time>2026-04-30T09:26:19.78Z</time></trkpt><trkpt lat="40.4943233" lon="9.1010067"><ele>642.0</ele><time>2026-04-30T09:26:20.785Z</time></trkpt><trkpt lat="40.4942883" lon="9.1009017"><ele>643.5</ele><time>2026-04-30T09:26:21.779Z</time></trkpt><trkpt lat="40.4942483" lon="9.100795"><ele>645.0</ele><time>2026-04-30T09:26:22.781Z</time></trkpt><trkpt lat="40.4942067" lon="9.1006767"><ele>647.8</ele><time>2026-04-30T09:26:23.777Z</time></trkpt><trkpt lat="40.49416" lon="9.1005533"><ele>650.6</ele><time>2026-04-30T09:26:24.782Z</time></trkpt><trkpt lat="40.4941333" lon="9.1004333"><ele>653.4000000000001</ele><time>2026-04-30T09:26:25.781Z</time></trkpt><trkpt lat="40.4941133" lon="9.100315"><ele>656.2</ele><time>2026-04-30T09:26:26.782Z</time></trkpt><trkpt lat="40.4940933" lon="9.100195"><ele>659.0</ele><time>2026-04-30T09:26:27.778Z</time></trkpt><trkpt lat="40.49407" lon="9.10008"><ele>659.0</ele><time>2026-04-30T09:26:28.781Z</time></trkpt><trkpt lat="40.4940483" lon="9.0999667"><ele>659.0</ele><time>2026-04-30T09:26:29.782Z</time></trkpt><trkpt lat="40.4940283" lon="9.09986"><ele>659.0</ele><time>2026-04-30T09:26:30.782Z</time></trkpt><trkpt lat="40.4940067" lon="9.09976"><ele>659.0</ele><time>2026-04-30T09:26:31.782Z</time></trkpt><trkpt lat="40.4939817" lon="9.099665"><ele>659.0</ele><time>2026-04-30T09:26:32.78Z</time></trkpt><trkpt lat="40.4939583" lon="9.0995767"><ele>659.0</ele><time>2026-04-30T09:26:33.777Z</time></trkpt><trkpt lat="40.4939283" lon="9.0994983"><ele>658.4000000000001</ele><time>2026-04-30T09:26:34.78Z</time></trkpt><trkpt lat="40.49389" lon="9.0994283"><ele>657.8</ele><time>2026-04-30T09:26:35.783Z</time></trkpt><trkpt lat="40.4937717" lon="9.0993467"><ele>657.2</ele><time>2026-04-30T09:26:37.781Z</time></trkpt><trkpt lat="40.4937017" lon="9.0993333"><ele>656.5999999999999</ele><time>2026-04-30T09:26:38.786Z</time></trkpt><trkpt lat="40.4935917" lon="9.0992767"><ele>656.0</ele><time>2026-04-30T09:26:40.782Z</time></trkpt><trkpt lat="40.493505" lon="9.0991633"><ele>656.4</ele><time>2026-04-30T09:26:42.781Z</time></trkpt><trkpt lat="40.4934583" lon="9.0990233"><ele>656.8</ele><time>2026-04-30T09:26:44.79Z</time></trkpt><trkpt lat="40.4934517" lon="9.0989217"><ele>657.1999999999999</ele><time>2026-04-30T09:26:46.783Z</time></trkpt><trkpt lat="40.49352" lon="9.0988617"><ele>657.5999999999999</ele><time>2026-04-30T09:26:49.781Z</time></trkpt><trkpt lat="40.4936033" lon="9.0988983"><ele>658.0</ele><time>2026-04-30T09:26:51.78Z</time></trkpt><trkpt lat="40.49371" lon="9.098935"><ele>661.1666666666667</ele><time>2026-04-30T09:26:53.783Z</time></trkpt><trkpt lat="40.4938283" lon="9.09897"><ele>664.3333333333334</ele><time>2026-04-30T09:26:55.784Z</time></trkpt><trkpt lat="40.4939033" lon="9.098985"><ele>667.5</ele><time>2026-04-30T09:26:56.783Z</time></trkpt><trkpt lat="40.4939817" lon="9.0990083"><ele>670.6666666666666</ele><time>2026-04-30T09:26:57.779Z</time></trkpt><trkpt lat="40.4940517" lon="9.099045"><ele>673.8333333333333</ele><time>2026-04-30T09:26:58.78Z</time></trkpt><trkpt lat="40.4941233" lon="9.099085"><ele>677.0</ele><time>2026-04-30T09:26:59.785Z</time></trkpt><trkpt lat="40.4942" lon="9.099125"><ele>677.0</ele><time>2026-04-30T09:27:00.78Z</time></trkpt><trkpt lat="40.4942833" lon="9.0991633"><ele>677.0</ele><time>2026-04-30T09:27:01.782Z</time></trkpt><trkpt lat="40.4943667" lon="9.0992017"><ele>677.0</ele><time>2026-04-30T09:27:02.78Z</time></trkpt><trkpt lat="40.4944483" lon="9.0992383"><ele>677.0</ele><time>2026-04-30T09:27:03.779Z</time></trkpt><trkpt lat="40.4945317" lon="9.09927"><ele>677.0</ele><time>2026-04-30T09:27:04.781Z</time></trkpt><trkpt lat="40.4946133" lon="9.0992933"><ele>677.0</ele><time>2026-04-30T09:27:05.778Z</time></trkpt><trkpt lat="40.4946983" lon="9.0993083"><ele>680.5</ele><time>2026-04-30T09:27:06.785Z</time></trkpt><trkpt lat="40.4947833" lon="9.09931"><ele>684.0</ele><time>2026-04-30T09:27:07.781Z</time></trkpt><trkpt lat="40.4948683" lon="9.0992983"><ele>687.5</ele><time>2026-04-30T09:27:08.79Z</time></trkpt><trkpt lat="40.4949567" lon="9.0992767"><ele>691.0</ele><time>2026-04-30T09:27:09.785Z</time></trkpt><trkpt lat="40.4950467" lon="9.0992483"><ele>694.5</ele><time>2026-04-30T09:27:10.782Z</time></trkpt><trkpt lat="40.4951383" lon="9.099225"><ele>698.0</ele><time>2026-04-30T09:27:11.78Z</time></trkpt><trkpt lat="40.4952333" lon="9.0992017"><ele>698.0</ele><time>2026-04-30T09:27:12.782Z</time></trkpt><trkpt lat="40.49533" lon="9.099175"><ele>698.0</ele><time>2026-04-30T09:27:13.782Z</time></trkpt><trkpt lat="40.49542" lon="9.0991283"><ele>698.0</ele><time>2026-04-30T09:27:14.79Z</time></trkpt><trkpt lat="40.495515" lon="9.099085"><ele>698.0</ele><time>2026-04-30T09:27:15.781Z</time></trkpt><trkpt lat="40.495605" lon="9.09904"><ele>698.0</ele><time>2026-04-30T09:27:16.785Z</time></trkpt><trkpt lat="40.4957" lon="9.099"><ele>703.0</ele><time>2026-04-30T09:27:17.781Z</time></trkpt><trkpt lat="40.4957933" lon="9.098955"><ele>708.0</ele><time>2026-04-30T09:27:18.784Z</time></trkpt><trkpt lat="40.495875" lon="9.0989083"><ele>713.0</ele><time>2026-04-30T09:27:19.782Z</time></trkpt><trkpt lat="40.4959533" lon="9.0988533"><ele>718.0</ele><time>2026-04-30T09:27:20.787Z</time></trkpt><trkpt lat="40.4960267" lon="9.0987917"><ele>723.0</ele><time>2026-04-30T09:27:21.781Z</time></trkpt><trkpt lat="40.4960983" lon="9.098725"><ele>723.0</ele><time>2026-04-30T09:27:22.783Z</time></trkpt><trkpt lat="40.4961683" lon="9.098655"><ele>723.0</ele><time>2026-04-30T09:27:23.783Z</time></trkpt><trkpt lat="40.4962217" lon="9.098585"><ele>723.0</ele><time>2026-04-30T09:27:24.782Z</time></trkpt><trkpt lat="40.4962683" lon="9.0985067"><ele>723.0</ele><time>2026-04-30T09:27:25.782Z</time></trkpt><trkpt lat="40.496305" lon="9.09842"><ele>723.0</ele><time>2026-04-30T09:27:26.785Z</time></trkpt><trkpt lat="40.496335" lon="9.0983283"><ele>723.0</ele><time>2026-04-30T09:27:27.784Z</time></trkpt><trkpt lat="40.4963517" lon="9.098225"><ele>724.0</ele><time>2026-04-30T09:27:28.783Z</time></trkpt><trkpt lat="40.4963667" lon="9.0981133"><ele>725.0</ele><time>2026-04-30T09:27:29.784Z</time></trkpt><trkpt lat="40.4963733" lon="9.0979933"><ele>726.0</ele><time>2026-04-30T09:27:30.781Z</time></trkpt><trkpt lat="40.496385" lon="9.097875"><ele>727.0</ele><time>2026-04-30T09:27:31.785Z</time></trkpt><trkpt lat="40.4963933" lon="9.097755"><ele>728.0</ele><time>2026-04-30T09:27:32.779Z</time></trkpt><trkpt lat="40.4964067" lon="9.0976367"><ele>728.0</ele><time>2026-04-30T09:27:33.78Z</time></trkpt><trkpt lat="40.49642" lon="9.0975183"><ele>728.0</ele><time>2026-04-30T09:27:34.782Z</time></trkpt><trkpt lat="40.4964367" lon="9.097395"><ele>728.0</ele><time>2026-04-30T09:27:35.78Z</time></trkpt><trkpt lat="40.4964517" lon="9.0972717"><ele>728.0</ele><time>2026-04-30T09:27:36.783Z</time></trkpt><trkpt lat="40.4964667" lon="9.09715"><ele>728.0</ele><time>2026-04-30T09:27:37.78Z</time></trkpt><trkpt lat="40.4964767" lon="9.0970333"><ele>730.5</ele><time>2026-04-30T09:27:38.79Z</time></trkpt><trkpt lat="40.4964767" lon="9.0969217"><ele>733.0</ele><time>2026-04-30T09:27:39.783Z</time></trkpt><trkpt lat="40.4964683" lon="9.0968133"><ele>735.5</ele><time>2026-04-30T09:27:40.781Z</time></trkpt><trkpt lat="40.4964517" lon="9.0967083"><ele>738.0</ele><time>2026-04-30T09:27:41.784Z</time></trkpt><trkpt lat="40.4964183" lon="9.09661"><ele>740.5</ele><time>2026-04-30T09:27:42.786Z</time></trkpt><trkpt lat="40.4963917" lon="9.09651"><ele>743.0</ele><time>2026-04-30T09:27:43.785Z</time></trkpt><trkpt lat="40.49637" lon="9.0964067"><ele>746.4</ele><time>2026-04-30T09:27:44.791Z</time></trkpt><trkpt lat="40.49636" lon="9.0962983"><ele>749.8</ele><time>2026-04-30T09:27:45.781Z</time></trkpt><trkpt lat="40.4963583" lon="9.096185"><ele>753.2</ele><time>2026-04-30T09:27:46.781Z</time></trkpt><trkpt lat="40.4963683" lon="9.09607"><ele>756.6</ele><time>2026-04-30T09:27:47.78Z</time></trkpt><trkpt lat="40.4963917" lon="9.095945"><ele>760.0</ele><time>2026-04-30T09:27:48.78Z</time></trkpt><trkpt lat="40.4964167" lon="9.0958233"><ele>761.6666666666667</ele><time>2026-04-30T09:27:49.783Z</time></trkpt><trkpt lat="40.4964433" lon="9.09571"><ele>763.3333333333334</ele><time>2026-04-30T09:27:50.79Z</time></trkpt><trkpt lat="40.49647" lon="9.0955983"><ele>765.0</ele><time>2026-04-30T09:27:51.782Z</time></trkpt><trkpt lat="40.496495" lon="9.09549"><ele>766.6666666666667</ele><time>2026-04-30T09:27:52.783Z</time></trkpt><trkpt lat="40.4965117" lon="9.0953833"><ele>768.3333333333334</ele><time>2026-04-30T09:27:53.784Z</time></trkpt><trkpt lat="40.4965167" lon="9.0952733"><ele>770.0</ele><time>2026-04-30T09:27:54.784Z</time></trkpt><trkpt lat="40.496515" lon="9.0951567"><ele>770.0</ele><time>2026-04-30T09:27:55.781Z</time></trkpt><trkpt lat="40.4965083" lon="9.0950333"><ele>770.0</ele><time>2026-04-30T09:27:56.782Z</time></trkpt><trkpt lat="40.4964933" lon="9.0949083"><ele>770.0</ele><time>2026-04-30T09:27:57.784Z</time></trkpt><trkpt lat="40.496475" lon="9.0947867"><ele>770.0</ele><time>2026-04-30T09:27:58.782Z</time></trkpt><trkpt lat="40.496455" lon="9.0946717"><ele>770.0</ele><time>2026-04-30T09:27:59.786Z</time></trkpt><trkpt lat="40.4964383" lon="9.0945717"><ele>771.8333333333334</ele><time>2026-04-30T09:28:00.783Z</time></trkpt><trkpt lat="40.496425" lon="9.0944867"><ele>773.6666666666667</ele><time>2026-04-30T09:28:01.783Z</time></trkpt><trkpt lat="40.4964167" lon="9.0943533"><ele>775.5</ele><time>2026-04-30T09:28:03.782Z</time></trkpt><trkpt lat="40.4964417" lon="9.094255"><ele>777.3333333333333</ele><time>2026-04-30T09:28:05.782Z</time></trkpt><trkpt lat="40.4964967" lon="9.094205"><ele>779.1666666666666</ele><time>2026-04-30T09:28:07.784Z</time></trkpt><trkpt lat="40.496615" lon="9.094195"><ele>781.0</ele><time>2026-04-30T09:28:20.789Z</time></trkpt><trkpt lat="40.4967" lon="9.0942133"><ele>780.9999999999999</ele><time>2026-04-30T09:28:22.786Z</time></trkpt><trkpt lat="40.496815" lon="9.0942383"><ele>781.0</ele><time>2026-04-30T09:28:24.784Z</time></trkpt><trkpt lat="40.4968833" lon="9.0942517"><ele>781.0</ele><time>2026-04-30T09:28:25.784Z</time></trkpt><trkpt lat="40.4969533" lon="9.0942717"><ele>781.0</ele><time>2026-04-30T09:28:26.782Z</time></trkpt><trkpt lat="40.4970267" lon="9.0942967"><ele>780.9999999999999</ele><time>2026-04-30T09:28:27.783Z</time></trkpt><trkpt lat="40.4970983" lon="9.09433"><ele>781.0</ele><time>2026-04-30T09:28:28.782Z</time></trkpt><trkpt lat="40.49717" lon="9.0943667"><ele>782.5714285714286</ele><time>2026-04-30T09:28:29.783Z</time></trkpt><trkpt lat="40.4972383" lon="9.094395"><ele>784.1428571428571</ele><time>2026-04-30T09:28:30.788Z</time></trkpt><trkpt lat="40.4973083" lon="9.0944083"><ele>785.7142857142858</ele><time>2026-04-30T09:28:31.785Z</time></trkpt><trkpt lat="40.497375" lon="9.0944"><ele>787.2857142857142</ele><time>2026-04-30T09:28:32.785Z</time></trkpt><trkpt lat="40.49744" lon="9.0943717"><ele>788.8571428571428</ele><time>2026-04-30T09:28:33.78Z</time></trkpt><trkpt lat="40.4975067" lon="9.0943283"><ele>790.4285714285714</ele><time>2026-04-30T09:28:34.781Z</time></trkpt><trkpt lat="40.4975733" lon="9.0942783"><ele>792.0</ele><time>2026-04-30T09:28:35.782Z</time></trkpt><trkpt lat="40.49764" lon="9.0942217"><ele>792.0</ele><time>2026-04-30T09:28:36.784Z</time></trkpt><trkpt lat="40.4977067" lon="9.0941583"><ele>792.0</ele><time>2026-04-30T09:28:37.784Z</time></trkpt><trkpt lat="40.49777" lon="9.0941033"><ele>792.0</ele><time>2026-04-30T09:28:38.788Z</time></trkpt><trkpt lat="40.4978317" lon="9.0940583"><ele>792.0</ele><time>2026-04-30T09:28:39.789Z</time></trkpt><trkpt lat="40.4978983" lon="9.0940233"><ele>792.0</ele><time>2026-04-30T09:28:40.785Z</time></trkpt><trkpt lat="40.49797" lon="9.0939933"><ele>792.0</ele><time>2026-04-30T09:28:41.781Z</time></trkpt><trkpt lat="40.4980483" lon="9.0939683"><ele>796.5</ele><time>2026-04-30T09:28:42.785Z</time></trkpt><trkpt lat="40.49813" lon="9.0939467"><ele>801.0</ele><time>2026-04-30T09:28:43.785Z</time></trkpt><trkpt lat="40.49821" lon="9.0939333"><ele>805.5</ele><time>2026-04-30T09:28:44.789Z</time></trkpt><trkpt lat="40.4982883" lon="9.09393"><ele>810.0</ele><time>2026-04-30T09:28:45.782Z</time></trkpt><trkpt lat="40.4983633" lon="9.0939417"><ele>814.5</ele><time>2026-04-30T09:28:46.785Z</time></trkpt><trkpt lat="40.4984383" lon="9.0939517"><ele>819.0</ele><time>2026-04-30T09:28:47.786Z</time></trkpt><trkpt lat="40.4985133" lon="9.09396"><ele>819.0</ele><time>2026-04-30T09:28:48.784Z</time></trkpt><trkpt lat="40.4985917" lon="9.093955"><ele>819.0</ele><time>2026-04-30T09:28:49.781Z</time></trkpt><trkpt lat="40.4986717" lon="9.0939383"><ele>819.0</ele><time>2026-04-30T09:28:50.789Z</time></trkpt><trkpt lat="40.4987533" lon="9.0939117"><ele>819.0</ele><time>2026-04-30T09:28:51.787Z</time></trkpt><trkpt lat="40.4988383" lon="9.0938733"><ele>819.0</ele><time>2026-04-30T09:28:52.785Z</time></trkpt><trkpt lat="40.4989217" lon="9.0938233"><ele>819.0</ele><time>2026-04-30T09:28:53.788Z</time></trkpt><trkpt lat="40.4990033" lon="9.093765"><ele>819.4285714285714</ele><time>2026-04-30T09:28:54.788Z</time></trkpt><trkpt lat="40.49908" lon="9.0937067"><ele>819.8571428571429</ele><time>2026-04-30T09:28:55.781Z</time></trkpt><trkpt lat="40.4991483" lon="9.0936533"><ele>820.2857142857142</ele><time>2026-04-30T09:28:56.783Z</time></trkpt><trkpt lat="40.4992117" lon="9.0936033"><ele>820.7142857142858</ele><time>2026-04-30T09:28:57.784Z</time></trkpt><trkpt lat="40.4992683" lon="9.0935517"><ele>821.1428571428571</ele><time>2026-04-30T09:28:58.783Z</time></trkpt><trkpt lat="40.4993167" lon="9.0934917"><ele>821.5714285714286</ele><time>2026-04-30T09:28:59.784Z</time></trkpt><trkpt lat="40.4993617" lon="9.0934217"><ele>822.0</ele><time>2026-04-30T09:29:00.784Z</time></trkpt><trkpt lat="40.4994067" lon="9.0933633"><ele>822.0</ele><time>2026-04-30T09:29:01.786Z</time></trkpt><trkpt lat="40.49951" lon="9.0933"><ele>822.0</ele><time>2026-04-30T09:29:03.783Z</time></trkpt><trkpt lat="40.4995733" lon="9.09329"><ele>822.0</ele><time>2026-04-30T09:29:04.784Z</time></trkpt><trkpt lat="40.4996467" lon="9.0932917"><ele>822.0</ele><time>2026-04-30T09:29:05.785Z</time></trkpt><trkpt lat="40.4997383" lon="9.0933183"><ele>822.0</ele><time>2026-04-30T09:29:06.785Z</time></trkpt><trkpt lat="40.499835" lon="9.093375"><ele>824.2</ele><time>2026-04-30T09:29:07.788Z</time></trkpt><trkpt lat="40.4999367" lon="9.0934417"><ele>826.4000000000001</ele><time>2026-04-30T09:29:08.789Z</time></trkpt><trkpt lat="40.5000417" lon="9.0935083"><ele>828.5999999999999</ele><time>2026-04-30T09:29:09.785Z</time></trkpt><trkpt lat="40.5001367" lon="9.0935817"><ele>830.8</ele><time>2026-04-30T09:29:10.783Z</time></trkpt><trkpt lat="40.5002233" lon="9.0936433"><ele>833.0</ele><time>2026-04-30T09:29:11.783Z</time></trkpt><trkpt lat="40.5003017" lon="9.0936917"><ele>833.0</ele><time>2026-04-30T09:29:12.784Z</time></trkpt><trkpt lat="40.5003683" lon="9.09373"><ele>833.0</ele><time>2026-04-30T09:29:13.781Z</time></trkpt><trkpt lat="40.50047" lon="9.0937817"><ele>833.0</ele><time>2026-04-30T09:29:15.779Z</time></trkpt><trkpt lat="40.500545" lon="9.0937717"><ele>833.0</ele><time>2026-04-30T09:29:17.781Z</time></trkpt><trkpt lat="40.5005667" lon="9.093615"><ele>833.0</ele><time>2026-04-30T09:29:19.781Z</time></trkpt><trkpt lat="40.50056" lon="9.0934483"><ele>836.5999999999999</ele><time>2026-04-30T09:29:20.785Z</time></trkpt><trkpt lat="40.5005683" lon="9.0932817"><ele>840.1999999999999</ele><time>2026-04-30T09:29:21.779Z</time></trkpt><trkpt lat="40.5005867" lon="9.0931467"><ele>843.8</ele><time>2026-04-30T09:29:22.779Z</time></trkpt><trkpt lat="40.5006" lon="9.09301"><ele>847.4</ele><time>2026-04-30T09:29:23.779Z</time></trkpt><trkpt lat="40.5006083" lon="9.0928867"><ele>851.0</ele><time>2026-04-30T09:29:24.782Z</time></trkpt><trkpt lat="40.50061" lon="9.0927733"><ele>852.3333333333334</ele><time>2026-04-30T09:29:25.776Z</time></trkpt><trkpt lat="40.5006033" lon="9.0926567"><ele>853.6666666666667</ele><time>2026-04-30T09:29:26.779Z</time></trkpt><trkpt lat="40.500585" lon="9.09256"><ele>855.0</ele><time>2026-04-30T09:29:27.781Z</time></trkpt><trkpt lat="40.50056" lon="9.0924683"><ele>856.3333333333333</ele><time>2026-04-30T09:29:28.779Z</time></trkpt><trkpt lat="40.50053" lon="9.0923683"><ele>857.6666666666666</ele><time>2026-04-30T09:29:29.779Z</time></trkpt><trkpt lat="40.5004917" lon="9.0922733"><ele>859.0</ele><time>2026-04-30T09:29:30.778Z</time></trkpt><trkpt lat="40.5004533" lon="9.092185"><ele>859.0</ele><time>2026-04-30T09:29:31.782Z</time></trkpt><trkpt lat="40.5003983" lon="9.0920617"><ele>859.0000000000001</ele><time>2026-04-30T09:29:33.781Z</time></trkpt><trkpt lat="40.50032" lon="9.091945"><ele>859.0000000000001</ele><time>2026-04-30T09:29:43.78Z</time></trkpt><trkpt lat="40.5002783" lon="9.09185"><ele>859.0</ele><time>2026-04-30T09:29:45.782Z</time></trkpt><trkpt lat="40.5002283" lon="9.0916983"><ele>859.0</ele><time>2026-04-30T09:29:47.779Z</time></trkpt><trkpt lat="40.5002033" lon="9.091605"><ele>860.6666666666666</ele><time>2026-04-30T09:29:48.784Z</time></trkpt><trkpt lat="40.50018" lon="9.0915033"><ele>862.3333333333333</ele><time>2026-04-30T09:29:49.781Z</time></trkpt><trkpt lat="40.5001567" lon="9.0914017"><ele>864.0</ele><time>2026-04-30T09:29:50.795Z</time></trkpt><trkpt lat="40.5001333" lon="9.0913017"><ele>865.6666666666667</ele><time>2026-04-30T09:29:51.782Z</time></trkpt><trkpt lat="40.5001017" lon="9.0912133"><ele>867.3333333333334</ele><time>2026-04-30T09:29:52.782Z</time></trkpt><trkpt lat="40.5000817" lon="9.0911333"><ele>869.0</ele><time>2026-04-30T09:29:53.783Z</time></trkpt><trkpt lat="40.5000867" lon="9.090975"><ele>869.0000000000001</ele><time>2026-04-30T09:29:55.782Z</time></trkpt><trkpt lat="40.5001033" lon="9.090895"><ele>869.0</ele><time>2026-04-30T09:29:56.78Z</time></trkpt><trkpt lat="40.5001317" lon="9.0908117"><ele>869.0</ele><time>2026-04-30T09:29:57.781Z</time></trkpt><trkpt lat="40.5001683" lon="9.0907283"><ele>869.0</ele><time>2026-04-30T09:29:58.782Z</time></trkpt><trkpt lat="40.5002217" lon="9.0906317"><ele>869.0000000000001</ele><time>2026-04-30T09:29:59.783Z</time></trkpt><trkpt lat="40.500285" lon="9.0905367"><ele>869.0</ele><time>2026-04-30T09:30:00.783Z</time></trkpt><trkpt lat="40.5003517" lon="9.0904367"><ele>872.25</ele><time>2026-04-30T09:30:01.782Z</time></trkpt><trkpt lat="40.50042" lon="9.0903333"><ele>875.5</ele><time>2026-04-30T09:30:02.784Z</time></trkpt><trkpt lat="40.5004917" lon="9.0902167"><ele>878.75</ele><time>2026-04-30T09:30:03.784Z</time></trkpt><trkpt lat="40.5005633" lon="9.0900983"><ele>882.0</ele><time>2026-04-30T09:30:04.786Z</time></trkpt><trkpt lat="40.5006367" lon="9.0899767"><ele>882.75</ele><time>2026-04-30T09:30:05.783Z</time></trkpt><trkpt lat="40.50071" lon="9.0898517"><ele>883.5</ele><time>2026-04-30T09:30:06.78Z</time></trkpt><trkpt lat="40.5007867" lon="9.0897283"><ele>884.25</ele><time>2026-04-30T09:30:07.781Z</time></trkpt><trkpt lat="40.5008683" lon="9.0896"><ele>885.0</ele><time>2026-04-30T09:30:08.79Z</time></trkpt><trkpt lat="40.50095" lon="9.0894717"><ele>885.0</ele><time>2026-04-30T09:30:09.781Z</time></trkpt><trkpt lat="40.5010367" lon="9.0893367"><ele>885.0</ele><time>2026-04-30T09:30:10.783Z</time></trkpt><trkpt lat="40.5011283" lon="9.0892"><ele>885.0</ele><time>2026-04-30T09:30:11.781Z</time></trkpt><trkpt lat="40.5012183" lon="9.089075"><ele>885.0</ele><time>2026-04-30T09:30:12.784Z</time></trkpt><trkpt lat="40.5013067" lon="9.0889617"><ele>887.8</ele><time>2026-04-30T09:30:13.785Z</time></trkpt><trkpt lat="40.501395" lon="9.088865"><ele>890.6</ele><time>2026-04-30T09:30:14.785Z</time></trkpt><trkpt lat="40.50148" lon="9.08878"><ele>893.4000000000001</ele><time>2026-04-30T09:30:15.783Z</time></trkpt><trkpt lat="40.5015667" lon="9.0887017"><ele>896.2</ele><time>2026-04-30T09:30:16.78Z</time></trkpt><trkpt lat="40.5016517" lon="9.08862"><ele>899.0</ele><time>2026-04-30T09:30:17.783Z</time></trkpt><trkpt lat="40.5017383" lon="9.08853"><ele>899.0</ele><time>2026-04-30T09:30:18.78Z</time></trkpt><trkpt lat="40.5018183" lon="9.08844"><ele>899.0000000000001</ele><time>2026-04-30T09:30:19.786Z</time></trkpt><trkpt lat="40.5018933" lon="9.0883433"><ele>899.0000000000001</ele><time>2026-04-30T09:30:20.787Z</time></trkpt><trkpt lat="40.50196" lon="9.0882383"><ele>899.0</ele><time>2026-04-30T09:30:21.78Z</time></trkpt><trkpt lat="40.5020183" lon="9.0881267"><ele>899.0</ele><time>2026-04-30T09:30:22.783Z</time></trkpt><trkpt lat="40.50207" lon="9.0880183"><ele>901.8000000000001</ele><time>2026-04-30T09:30:23.783Z</time></trkpt><trkpt lat="40.5021183" lon="9.0879117"><ele>904.6000000000001</ele><time>2026-04-30T09:30:24.784Z</time></trkpt><trkpt lat="40.5021633" lon="9.0878017"><ele>907.4</ele><time>2026-04-30T09:30:25.783Z</time></trkpt><trkpt lat="40.5022083" lon="9.08769"><ele>910.2</ele><time>2026-04-30T09:30:26.849Z</time></trkpt><trkpt lat="40.5022433" lon="9.0875833"><ele>913.0</ele><time>2026-04-30T09:30:27.784Z</time></trkpt><trkpt lat="40.5022733" lon="9.0874733"><ele>914.8333333333333</ele><time>2026-04-30T09:30:28.781Z</time></trkpt><trkpt lat="40.50229" lon="9.0873617"><ele>916.6666666666666</ele><time>2026-04-30T09:30:29.786Z</time></trkpt><trkpt lat="40.5023" lon="9.0872533"><ele>918.5</ele><time>2026-04-30T09:30:30.784Z</time></trkpt><trkpt lat="40.5023033" lon="9.0871483"><ele>920.3333333333333</ele><time>2026-04-30T09:30:31.784Z</time></trkpt><trkpt lat="40.5023017" lon="9.087045"><ele>922.1666666666666</ele><time>2026-04-30T09:30:32.783Z</time></trkpt><trkpt lat="40.50229" lon="9.0869367"><ele>924.0</ele><time>2026-04-30T09:30:33.782Z</time></trkpt><trkpt lat="40.5022717" lon="9.0868333"><ele>924.0</ele><time>2026-04-30T09:30:34.784Z</time></trkpt><trkpt lat="40.5022417" lon="9.086725"><ele>924.0000000000001</ele><time>2026-04-30T09:30:35.782Z</time></trkpt><trkpt lat="40.5022017" lon="9.0866183"><ele>924.0000000000001</ele><time>2026-04-30T09:30:36.787Z</time></trkpt><trkpt lat="40.5021583" lon="9.0865133"><ele>924.0</ele><time>2026-04-30T09:30:37.783Z</time></trkpt><trkpt lat="40.5021067" lon="9.0864067"><ele>924.0</ele><time>2026-04-30T09:30:38.787Z</time></trkpt><trkpt lat="40.5020433" lon="9.0863"><ele>925.6</ele><time>2026-04-30T09:30:39.778Z</time></trkpt><trkpt lat="40.5019817" lon="9.0861917"><ele>927.2</ele><time>2026-04-30T09:30:40.779Z</time></trkpt><trkpt lat="40.5019117" lon="9.086075"><ele>928.8000000000001</ele><time>2026-04-30T09:30:41.78Z</time></trkpt><trkpt lat="40.501845" lon="9.0859567"><ele>930.4000000000001</ele><time>2026-04-30T09:30:42.782Z</time></trkpt><trkpt lat="40.501775" lon="9.0858367"><ele>932.0</ele><time>2026-04-30T09:30:43.781Z</time></trkpt><trkpt lat="40.501705" lon="9.085715"><ele>934.2</ele><time>2026-04-30T09:30:44.788Z</time></trkpt><trkpt lat="40.5016417" lon="9.0856"><ele>936.4000000000001</ele><time>2026-04-30T09:30:45.78Z</time></trkpt><trkpt lat="40.5015783" lon="9.0854967"><ele>938.5999999999999</ele><time>2026-04-30T09:30:46.783Z</time></trkpt><trkpt lat="40.5015233" lon="9.085395"><ele>940.8</ele><time>2026-04-30T09:30:47.783Z</time></trkpt><trkpt lat="40.501475" lon="9.0853033"><ele>943.0</ele><time>2026-04-30T09:30:48.782Z</time></trkpt><trkpt lat="40.5014333" lon="9.0852267"><ele>942.9999999999999</ele><time>2026-04-30T09:30:49.783Z</time></trkpt><trkpt lat="40.5014017" lon="9.0851517"><ele>943.0</ele><time>2026-04-30T09:30:50.788Z</time></trkpt><trkpt lat="40.5013517" lon="9.0850183"><ele>943.0</ele><time>2026-04-30T09:30:52.781Z</time></trkpt><trkpt lat="40.5013167" lon="9.084905"><ele>943.0</ele><time>2026-04-30T09:30:54.78Z</time></trkpt><trkpt lat="40.501315" lon="9.0847967"><ele>942.9999999999999</ele><time>2026-04-30T09:30:56.797Z</time></trkpt><trkpt lat="40.5013767" lon="9.0847233"><ele>943.0</ele><time>2026-04-30T09:30:59.781Z</time></trkpt><trkpt lat="40.5014433" lon="9.0847417"><ele>944.5999999999999</ele><time>2026-04-30T09:31:01.779Z</time></trkpt><trkpt lat="40.5015083" lon="9.084785"><ele>946.1999999999999</ele><time>2026-04-30T09:31:03.783Z</time></trkpt><trkpt lat="40.50159" lon="9.0848233"><ele>947.8</ele><time>2026-04-30T09:31:05.779Z</time></trkpt><trkpt lat="40.501685" lon="9.0848517"><ele>949.4</ele><time>2026-04-30T09:31:07.779Z</time></trkpt><trkpt lat="40.5017817" lon="9.0848817"><ele>951.0</ele><time>2026-04-30T09:31:09.783Z</time></trkpt><trkpt lat="40.5018983" lon="9.084925"><ele>951.6666666666666</ele><time>2026-04-30T09:31:11.782Z</time></trkpt><trkpt lat="40.50197" lon="9.0849417"><ele>952.3333333333333</ele><time>2026-04-30T09:31:12.782Z</time></trkpt><trkpt lat="40.5020483" lon="9.0849533"><ele>953.0</ele><time>2026-04-30T09:31:13.78Z</time></trkpt><trkpt lat="40.5021317" lon="9.0849583"><ele>953.6666666666666</ele><time>2026-04-30T09:31:14.782Z</time></trkpt><trkpt lat="40.502215" lon="9.0849567"><ele>954.3333333333333</ele><time>2026-04-30T09:31:15.779Z</time></trkpt><trkpt lat="40.5023017" lon="9.0849517"><ele>955.0</ele><time>2026-04-30T09:31:16.777Z</time></trkpt><trkpt lat="40.5023933" lon="9.0849417"><ele>956.8</ele><time>2026-04-30T09:31:17.782Z</time></trkpt><trkpt lat="40.5024867" lon="9.0849283"><ele>958.6</ele><time>2026-04-30T09:31:18.777Z</time></trkpt><trkpt lat="40.502585" lon="9.0849117"><ele>960.4000000000001</ele><time>2026-04-30T09:31:19.782Z</time></trkpt><trkpt lat="40.5026833" lon="9.0848883"><ele>962.2</ele><time>2026-04-30T09:31:20.788Z</time></trkpt><trkpt lat="40.5027817" lon="9.0848583"><ele>964.0</ele><time>2026-04-30T09:31:21.784Z</time></trkpt><trkpt lat="40.5028817" lon="9.0848183"><ele>964.2</ele><time>2026-04-30T09:31:22.778Z</time></trkpt><trkpt lat="40.502975" lon="9.0847633"><ele>964.4000000000001</ele><time>2026-04-30T09:31:23.782Z</time></trkpt><trkpt lat="40.5030617" lon="9.0846983"><ele>964.6</ele><time>2026-04-30T09:31:24.783Z</time></trkpt><trkpt lat="40.50315" lon="9.084615"><ele>964.8</ele><time>2026-04-30T09:31:25.78Z</time></trkpt><trkpt lat="40.5032367" lon="9.0845183"><ele>965.0</ele><time>2026-04-30T09:31:26.778Z</time></trkpt><trkpt lat="40.5033217" lon="9.0844083"><ele>965.0</ele><time>2026-04-30T09:31:27.779Z</time></trkpt><trkpt lat="40.5034" lon="9.084295"><ele>965.0</ele><time>2026-04-30T09:31:28.78Z</time></trkpt><trkpt lat="40.503475" lon="9.0841867"><ele>965.0</ele><time>2026-04-30T09:31:29.783Z</time></trkpt><trkpt lat="40.5035467" lon="9.0840817"><ele>965.0</ele><time>2026-04-30T09:31:30.78Z</time></trkpt><trkpt lat="40.5036133" lon="9.0839883"><ele>965.0</ele><time>2026-04-30T09:31:31.781Z</time></trkpt><trkpt lat="40.5036767" lon="9.0839067"><ele>965.6666666666667</ele><time>2026-04-30T09:31:32.78Z</time></trkpt><trkpt lat="40.5037383" lon="9.08383"><ele>966.3333333333334</ele><time>2026-04-30T09:31:33.777Z</time></trkpt><trkpt lat="40.503795" lon="9.083755"><ele>967.0</ele><time>2026-04-30T09:31:34.778Z</time></trkpt><trkpt lat="40.5038533" lon="9.0836833"><ele>967.6666666666667</ele><time>2026-04-30T09:31:35.78Z</time></trkpt><trkpt lat="40.503915" lon="9.0836317"><ele>968.3333333333334</ele><time>2026-04-30T09:31:36.777Z</time></trkpt><trkpt lat="40.50398" lon="9.08359"><ele>969.0</ele><time>2026-04-30T09:31:37.782Z</time></trkpt><trkpt lat="40.50404" lon="9.0835533"><ele>969.0</ele><time>2026-04-30T09:31:38.783Z</time></trkpt><trkpt lat="40.5041367" lon="9.083455"><ele>969.0000000000001</ele><time>2026-04-30T09:31:40.78Z</time></trkpt><trkpt lat="40.5041867" lon="9.083325"><ele>969.0000000000001</ele><time>2026-04-30T09:31:42.779Z</time></trkpt><trkpt lat="40.504185" lon="9.08317"><ele>969.0</ele><time>2026-04-30T09:31:44.785Z</time></trkpt><trkpt lat="40.504165" lon="9.0830617"><ele>969.0</ele><time>2026-04-30T09:31:45.782Z</time></trkpt><trkpt lat="40.50415" lon="9.0829483"><ele>969.6666666666666</ele><time>2026-04-30T09:31:46.782Z</time></trkpt><trkpt lat="40.5041333" lon="9.082825"><ele>970.3333333333333</ele><time>2026-04-30T09:31:47.781Z</time></trkpt><trkpt lat="40.5041267" lon="9.0827083"><ele>971.0</ele><time>2026-04-30T09:31:48.782Z</time></trkpt><trkpt lat="40.5041267" lon="9.0825967"><ele>971.6666666666666</ele><time>2026-04-30T09:31:49.777Z</time></trkpt><trkpt lat="40.5041233" lon="9.082485"><ele>972.3333333333333</ele><time>2026-04-30T09:31:50.788Z</time></trkpt><trkpt lat="40.5041217" lon="9.0823783"><ele>973.0</ele><time>2026-04-30T09:31:51.779Z</time></trkpt><trkpt lat="40.5041267" lon="9.082275"><ele>973.4999999999999</ele><time>2026-04-30T09:31:52.781Z</time></trkpt><trkpt lat="40.504135" lon="9.0821683"><ele>974.0</ele><time>2026-04-30T09:31:53.783Z</time></trkpt><trkpt lat="40.5041433" lon="9.0820567"><ele>974.5</ele><time>2026-04-30T09:31:54.783Z</time></trkpt><trkpt lat="40.504155" lon="9.08195"><ele>975.0</ele><time>2026-04-30T09:31:55.782Z</time></trkpt><trkpt lat="40.5041633" lon="9.0818383"><ele>975.4999999999999</ele><time>2026-04-30T09:31:56.845Z</time></trkpt><trkpt lat="40.50417" lon="9.08172"><ele>976.0</ele><time>2026-04-30T09:31:57.779Z</time></trkpt><trkpt lat="40.5041767" lon="9.0815967"><ele>976.8</ele><time>2026-04-30T09:31:58.783Z</time></trkpt><trkpt lat="40.5041767" lon="9.0814683"><ele>977.5999999999999</ele><time>2026-04-30T09:31:59.78Z</time></trkpt><trkpt lat="40.504175" lon="9.0813317"><ele>978.4</ele><time>2026-04-30T09:32:00.779Z</time></trkpt><trkpt lat="40.5041717" lon="9.081195"><ele>979.2</ele><time>2026-04-30T09:32:01.781Z</time></trkpt><trkpt lat="40.5041733" lon="9.0810567"><ele>980.0</ele><time>2026-04-30T09:32:02.781Z</time></trkpt><trkpt lat="40.5041783" lon="9.0809167"><ele>980.0</ele><time>2026-04-30T09:32:03.779Z</time></trkpt><trkpt lat="40.504185" lon="9.08077"><ele>980.0</ele><time>2026-04-30T09:32:04.778Z</time></trkpt><trkpt lat="40.5041917" lon="9.080615"><ele>980.0</ele><time>2026-04-30T09:32:05.779Z</time></trkpt><trkpt lat="40.5042017" lon="9.08046"><ele>980.0</ele><time>2026-04-30T09:32:06.785Z</time></trkpt><trkpt lat="40.5042117" lon="9.08031"><ele>980.8</ele><time>2026-04-30T09:32:07.777Z</time></trkpt><trkpt lat="40.5042183" lon="9.080165"><ele>981.6</ele><time>2026-04-30T09:32:08.787Z</time></trkpt><trkpt lat="40.504225" lon="9.08002"><ele>982.4000000000001</ele><time>2026-04-30T09:32:09.787Z</time></trkpt><trkpt lat="40.5042283" lon="9.0798733"><ele>983.2</ele><time>2026-04-30T09:32:10.777Z</time></trkpt><trkpt lat="40.5042283" lon="9.0797233"><ele>984.0</ele><time>2026-04-30T09:32:11.787Z</time></trkpt><trkpt lat="40.5042267" lon="9.0795733"><ele>984.6</ele><time>2026-04-30T09:32:12.786Z</time></trkpt><trkpt lat="40.5042283" lon="9.0794317"><ele>985.2</ele><time>2026-04-30T09:32:13.779Z</time></trkpt><trkpt lat="40.5042267" lon="9.079295"><ele>985.8000000000001</ele><time>2026-04-30T09:32:14.793Z</time></trkpt><trkpt lat="40.5042217" lon="9.0791633"><ele>986.4000000000001</ele><time>2026-04-30T09:32:15.783Z</time></trkpt><trkpt lat="40.5042167" lon="9.0790317"><ele>987.0</ele><time>2026-04-30T09:32:16.782Z</time></trkpt><trkpt lat="40.504205" lon="9.0789"><ele>987.0</ele><time>2026-04-30T09:32:17.787Z</time></trkpt><trkpt lat="40.50419" lon="9.0787717"><ele>987.0</ele><time>2026-04-30T09:32:18.784Z</time></trkpt><trkpt lat="40.5041767" lon="9.0786467"><ele>987.0</ele><time>2026-04-30T09:32:19.778Z</time></trkpt><trkpt lat="40.5041667" lon="9.0785183"><ele>987.0</ele><time>2026-04-30T09:32:20.788Z</time></trkpt><trkpt lat="40.50416" lon="9.0783883"><ele>987.0</ele><time>2026-04-30T09:32:21.782Z</time></trkpt><trkpt lat="40.5041567" lon="9.078255"><ele>986.8</ele><time>2026-04-30T09:32:22.781Z</time></trkpt><trkpt lat="40.50416" lon="9.078125"><ele>986.6</ele><time>2026-04-30T09:32:23.782Z</time></trkpt><trkpt lat="40.50417" lon="9.0779967"><ele>986.3999999999999</ele><time>2026-04-30T09:32:24.78Z</time></trkpt><trkpt lat="40.504185" lon="9.0778783"><ele>986.1999999999999</ele><time>2026-04-30T09:32:25.781Z</time></trkpt><trkpt lat="40.504205" lon="9.0777667"><ele>986.0</ele><time>2026-04-30T09:32:26.78Z</time></trkpt><trkpt lat="40.50422" lon="9.0776633"><ele>986.0000000000001</ele><time>2026-04-30T09:32:27.78Z</time></trkpt><trkpt lat="40.504235" lon="9.0775583"><ele>986.0</ele><time>2026-04-30T09:32:28.779Z</time></trkpt><trkpt lat="40.5042517" lon="9.0774533"><ele>986.0</ele><time>2026-04-30T09:32:29.786Z</time></trkpt><trkpt lat="40.5042667" lon="9.0773483"><ele>986.0</ele><time>2026-04-30T09:32:30.783Z</time></trkpt><trkpt lat="40.504285" lon="9.0772417"><ele>986.0000000000001</ele><time>2026-04-30T09:32:31.78Z</time></trkpt><trkpt lat="40.5043067" lon="9.077135"><ele>986.0</ele><time>2026-04-30T09:32:32.78Z</time></trkpt><trkpt lat="40.5043267" lon="9.0770317"><ele>985.5000000000001</ele><time>2026-04-30T09:32:33.785Z</time></trkpt><trkpt lat="40.504345" lon="9.0769317"><ele>985.0</ele><time>2026-04-30T09:32:34.781Z</time></trkpt><trkpt lat="40.5043633" lon="9.0768317"><ele>984.5</ele><time>2026-04-30T09:32:35.785Z</time></trkpt><trkpt lat="40.50438" lon="9.076725"><ele>984.0</ele><time>2026-04-30T09:32:36.78Z</time></trkpt><trkpt lat="40.5043967" lon="9.0766167"><ele>983.5000000000001</ele><time>2026-04-30T09:32:37.784Z</time></trkpt><trkpt lat="40.5044117" lon="9.076505"><ele>983.0</ele><time>2026-04-30T09:32:38.79Z</time></trkpt><trkpt lat="40.50442" lon="9.0763967"><ele>982.5000000000001</ele><time>2026-04-30T09:32:39.784Z</time></trkpt><trkpt lat="40.5044233" lon="9.076285"><ele>982.0</ele><time>2026-04-30T09:32:40.778Z</time></trkpt><trkpt lat="40.5044283" lon="9.0761667"><ele>981.5</ele><time>2026-04-30T09:32:41.78Z</time></trkpt><trkpt lat="40.5044317" lon="9.0760483"><ele>981.0</ele><time>2026-04-30T09:32:42.788Z</time></trkpt><trkpt lat="40.5044383" lon="9.0759317"><ele>980.5000000000001</ele><time>2026-04-30T09:32:43.787Z</time></trkpt><trkpt lat="40.504445" lon="9.0758233"><ele>980.0</ele><time>2026-04-30T09:32:44.791Z</time></trkpt><trkpt lat="40.5044533" lon="9.075715"><ele>979.6666666666667</ele><time>2026-04-30T09:32:45.782Z</time></trkpt><trkpt lat="40.5044633" lon="9.075605"><ele>979.3333333333334</ele><time>2026-04-30T09:32:46.785Z</time></trkpt><trkpt lat="40.5044733" lon="9.0754983"><ele>979.0</ele><time>2026-04-30T09:32:47.786Z</time></trkpt><trkpt lat="40.5044783" lon="9.0753933"><ele>978.6666666666667</ele><time>2026-04-30T09:32:48.778Z</time></trkpt><trkpt lat="40.5044817" lon="9.0753017"><ele>978.3333333333334</ele><time>2026-04-30T09:32:49.786Z</time></trkpt><trkpt lat="40.5044867" lon="9.075145"><ele>978.0</ele><time>2026-04-30T09:32:51.778Z</time></trkpt><trkpt lat="40.504495" lon="9.075025"><ele>978.0</ele><time>2026-04-30T09:32:53.784Z</time></trkpt><trkpt lat="40.5045717" lon="9.0749617"><ele>978.0</ele><time>2026-04-30T09:32:56.782Z</time></trkpt><trkpt lat="40.5046417" lon="9.0749917"><ele>978.0</ele><time>2026-04-30T09:32:58.786Z</time></trkpt><trkpt lat="40.5047383" lon="9.075075"><ele>978.0</ele><time>2026-04-30T09:33:00.781Z</time></trkpt><trkpt lat="40.5048" lon="9.07514"><ele>978.0</ele><time>2026-04-30T09:33:01.776Z</time></trkpt><trkpt lat="40.5048683" lon="9.0752167"><ele>978.0</ele><time>2026-04-30T09:33:02.779Z</time></trkpt><trkpt lat="40.50495" lon="9.075305"><ele>977.75</ele><time>2026-04-30T09:33:03.783Z</time></trkpt><trkpt lat="40.5050383" lon="9.0754"><ele>977.5</ele><time>2026-04-30T09:33:04.781Z</time></trkpt><trkpt lat="40.5051333" lon="9.0754967"><ele>977.25</ele><time>2026-04-30T09:33:05.78Z</time></trkpt><trkpt lat="40.5052367" lon="9.0755917"><ele>977.0</ele><time>2026-04-30T09:33:06.784Z</time></trkpt><trkpt lat="40.505345" lon="9.0756933"><ele>977.25</ele><time>2026-04-30T09:33:07.786Z</time></trkpt><trkpt lat="40.5054583" lon="9.0758"><ele>977.5</ele><time>2026-04-30T09:33:08.789Z</time></trkpt><trkpt lat="40.505575" lon="9.0759133"><ele>977.75</ele><time>2026-04-30T09:33:09.784Z</time></trkpt><trkpt lat="40.5056967" lon="9.076035"><ele>978.0</ele><time>2026-04-30T09:33:10.784Z</time></trkpt><trkpt lat="40.5058183" lon="9.076155"><ele>978.0</ele><time>2026-04-30T09:33:11.78Z</time></trkpt><trkpt lat="40.505945" lon="9.0762783"><ele>978.0</ele><time>2026-04-30T09:33:12.78Z</time></trkpt><trkpt lat="40.5060733" lon="9.0764067"><ele>978.0</ele><time>2026-04-30T09:33:13.785Z</time></trkpt><trkpt lat="40.5062033" lon="9.0765383"><ele>978.3333333333333</ele><time>2026-04-30T09:33:14.79Z</time></trkpt><trkpt lat="40.506335" lon="9.076675"><ele>978.6666666666666</ele><time>2026-04-30T09:33:15.78Z</time></trkpt><trkpt lat="40.50647" lon="9.07681"><ele>979.0</ele><time>2026-04-30T09:33:16.78Z</time></trkpt><trkpt lat="40.506605" lon="9.0769467"><ele>979.0</ele><time>2026-04-30T09:33:17.781Z</time></trkpt><trkpt lat="40.5067417" lon="9.077085"><ele>979.0</ele><time>2026-04-30T09:33:18.785Z</time></trkpt><trkpt lat="40.5068817" lon="9.0772233"><ele>979.0</ele><time>2026-04-30T09:33:19.785Z</time></trkpt><trkpt lat="40.5070217" lon="9.0773667"><ele>977.6666666666666</ele><time>2026-04-30T09:33:20.791Z</time></trkpt><trkpt lat="40.5071617" lon="9.0775133"><ele>976.3333333333333</ele><time>2026-04-30T09:33:21.78Z</time></trkpt><trkpt lat="40.5072967" lon="9.0776617"><ele>975.0</ele><time>2026-04-30T09:33:22.781Z</time></trkpt><trkpt lat="40.507425" lon="9.0778067"><ele>975.0</ele><time>2026-04-30T09:33:23.782Z</time></trkpt><trkpt lat="40.5075483" lon="9.077945"><ele>975.0</ele><time>2026-04-30T09:33:24.785Z</time></trkpt><trkpt lat="40.5076667" lon="9.0780733"><ele>975.0</ele><time>2026-04-30T09:33:25.783Z</time></trkpt><trkpt lat="40.50778" lon="9.0781933"><ele>974.25</ele><time>2026-04-30T09:33:26.782Z</time></trkpt><trkpt lat="40.5078883" lon="9.0783067"><ele>973.5</ele><time>2026-04-30T09:33:27.784Z</time></trkpt><trkpt lat="40.5079883" lon="9.0784133"><ele>972.75</ele><time>2026-04-30T09:33:28.783Z</time></trkpt><trkpt lat="40.5080767" lon="9.0785167"><ele>972.0</ele><time>2026-04-30T09:33:29.782Z</time></trkpt><trkpt lat="40.5081583" lon="9.07861"><ele>972.0</ele><time>2026-04-30T09:33:30.787Z</time></trkpt><trkpt lat="40.508235" lon="9.0786983"><ele>972.0</ele><time>2026-04-30T09:33:31.78Z</time></trkpt><trkpt lat="40.5083083" lon="9.0787817"><ele>972.0</ele><time>2026-04-30T09:33:32.783Z</time></trkpt><trkpt lat="40.5083733" lon="9.0788583"><ele>972.0</ele><time>2026-04-30T09:33:33.785Z</time></trkpt><trkpt lat="40.5084367" lon="9.0789283"><ele>972.0</ele><time>2026-04-30T09:33:34.782Z</time></trkpt><trkpt lat="40.5085" lon="9.0789833"><ele>972.0</ele><time>2026-04-30T09:33:35.779Z</time></trkpt><trkpt lat="40.5085633" lon="9.079015"><ele>972.0</ele><time>2026-04-30T09:33:36.782Z</time></trkpt><trkpt lat="40.50868" lon="9.0790017"><ele>972.0</ele><time>2026-04-30T09:33:38.791Z</time></trkpt><trkpt lat="40.5087433" lon="9.0789467"><ele>972.0</ele><time>2026-04-30T09:33:39.78Z</time></trkpt><trkpt lat="40.5088133" lon="9.07889"><ele>972.0</ele><time>2026-04-30T09:33:40.78Z</time></trkpt><trkpt lat="40.508905" lon="9.0787767"><ele>972.0</ele><time>2026-04-30T09:33:41.779Z</time></trkpt><trkpt lat="40.5089983" lon="9.07866"><ele>971.0</ele><time>2026-04-30T09:33:42.78Z</time></trkpt><trkpt lat="40.509085" lon="9.07857"><ele>970.0</ele><time>2026-04-30T09:33:43.78Z</time></trkpt><trkpt lat="40.5091667" lon="9.0784817"><ele>969.0</ele><time>2026-04-30T09:33:44.788Z</time></trkpt><trkpt lat="40.5092483" lon="9.0783967"><ele>968.0</ele><time>2026-04-30T09:33:45.782Z</time></trkpt><trkpt lat="40.509325" lon="9.0783117"><ele>967.0</ele><time>2026-04-30T09:33:46.78Z</time></trkpt><trkpt lat="40.509405" lon="9.0782317"><ele>966.8</ele><time>2026-04-30T09:33:47.781Z</time></trkpt><trkpt lat="40.50949" lon="9.07815"><ele>966.6</ele><time>2026-04-30T09:33:48.781Z</time></trkpt><trkpt lat="40.50958" lon="9.0780633"><ele>966.3999999999999</ele><time>2026-04-30T09:33:49.781Z</time></trkpt><trkpt lat="40.509675" lon="9.0779817"><ele>966.1999999999999</ele><time>2026-04-30T09:33:50.792Z</time></trkpt><trkpt lat="40.5097667" lon="9.0778967"><ele>966.0</ele><time>2026-04-30T09:33:51.776Z</time></trkpt><trkpt lat="40.5098633" lon="9.077805"><ele>965.75</ele><time>2026-04-30T09:33:52.78Z</time></trkpt><trkpt lat="40.50996" lon="9.077715"><ele>965.5</ele><time>2026-04-30T09:33:53.782Z</time></trkpt><trkpt lat="40.51006" lon="9.0776233"><ele>965.25</ele><time>2026-04-30T09:33:54.781Z</time></trkpt><trkpt lat="40.51016" lon="9.0775317"><ele>965.0</ele><time>2026-04-30T09:33:55.779Z</time></trkpt><trkpt lat="40.5102617" lon="9.07744"><ele>965.25</ele><time>2026-04-30T09:33:56.781Z</time></trkpt><trkpt lat="40.510365" lon="9.0773467"><ele>965.5</ele><time>2026-04-30T09:33:57.781Z</time></trkpt><trkpt lat="40.51047" lon="9.0772533"><ele>965.75</ele><time>2026-04-30T09:33:58.782Z</time></trkpt><trkpt lat="40.5105767" lon="9.0771583"><ele>966.0</ele><time>2026-04-30T09:33:59.78Z</time></trkpt><trkpt lat="40.5106833" lon="9.0770617"><ele>965.5</ele><time>2026-04-30T09:34:00.777Z</time></trkpt><trkpt lat="40.5107917" lon="9.0769617"><ele>965.0</ele><time>2026-04-30T09:34:01.783Z</time></trkpt><trkpt lat="40.5108983" lon="9.0768617"><ele>964.5</ele><time>2026-04-30T09:34:02.78Z</time></trkpt><trkpt lat="40.5110017" lon="9.076765"><ele>964.0</ele><time>2026-04-30T09:34:03.781Z</time></trkpt><trkpt lat="40.5110983" lon="9.0766767"><ele>963.8000000000001</ele><time>2026-04-30T09:34:04.778Z</time></trkpt><trkpt lat="40.5111867" lon="9.076595"><ele>963.6000000000001</ele><time>2026-04-30T09:34:05.776Z</time></trkpt><trkpt lat="40.5112683" lon="9.0765217"><ele>963.4</ele><time>2026-04-30T09:34:06.78Z</time></trkpt><trkpt lat="40.511345" lon="9.0764617"><ele>963.2</ele><time>2026-04-30T09:34:07.779Z</time></trkpt><trkpt lat="40.51141" lon="9.0764117"><ele>963.0</ele><time>2026-04-30T09:34:08.794Z</time></trkpt><trkpt lat="40.5114983" lon="9.0763417"><ele>963.0</ele><time>2026-04-30T09:34:10.78Z</time></trkpt><trkpt lat="40.51155" lon="9.076275"><ele>963.0</ele><time>2026-04-30T09:34:13.779Z</time></trkpt><trkpt lat="40.5114633" lon="9.0763083"><ele>963.0</ele><time>2026-04-30T09:34:17.778Z</time></trkpt><trkpt lat="40.5113917" lon="9.076365"><ele>963.0</ele><time>2026-04-30T09:34:19.776Z</time></trkpt><trkpt lat="40.5113267" lon="9.0764133"><ele>963.0</ele><time>2026-04-30T09:34:21.782Z</time></trkpt><trkpt lat="40.5112583" lon="9.0764717"><ele>963.0</ele><time>2026-04-30T09:34:23.779Z</time></trkpt><trkpt lat="40.5112083" lon="9.0765433"><ele>963.5</ele><time>2026-04-30T09:34:26.779Z</time></trkpt><trkpt lat="40.5113083" lon="9.0765033"><ele>964.0</ele><time>2026-04-30T09:34:30.782Z</time></trkpt><trkpt lat="40.5114333" lon="9.0763833"><ele>964.5</ele><time>2026-04-30T09:34:32.784Z</time></trkpt><trkpt lat="40.5115133" lon="9.076305"><ele>965.0</ele><time>2026-04-30T09:34:33.779Z</time></trkpt><trkpt lat="40.5116067" lon="9.0762183"><ele>965.0</ele><time>2026-04-30T09:34:34.783Z</time></trkpt><trkpt lat="40.5117117" lon="9.0761283"><ele>965.0</ele><time>2026-04-30T09:34:35.783Z</time></trkpt><trkpt lat="40.51182" lon="9.0760317"><ele>965.0</ele><time>2026-04-30T09:34:36.781Z</time></trkpt><trkpt lat="40.5119367" lon="9.07593"><ele>965.0</ele><time>2026-04-30T09:34:37.78Z</time></trkpt><trkpt lat="40.5120617" lon="9.075825"><ele>964.3333333333334</ele><time>2026-04-30T09:34:38.791Z</time></trkpt><trkpt lat="40.51219" lon="9.0757167"><ele>963.6666666666667</ele><time>2026-04-30T09:34:39.784Z</time></trkpt><trkpt lat="40.5123267" lon="9.0756017"><ele>963.0</ele><time>2026-04-30T09:34:40.78Z</time></trkpt><trkpt lat="40.512465" lon="9.0754817"><ele>963.0</ele><time>2026-04-30T09:34:41.782Z</time></trkpt><trkpt lat="40.5126033" lon="9.0753567"><ele>963.0</ele><time>2026-04-30T09:34:42.779Z</time></trkpt><trkpt lat="40.5127467" lon="9.0752317"><ele>963.0</ele><time>2026-04-30T09:34:43.779Z</time></trkpt><trkpt lat="40.51289" lon="9.0751017"><ele>963.0</ele><time>2026-04-30T09:34:44.796Z</time></trkpt><trkpt lat="40.5130367" lon="9.0749767"><ele>963.0</ele><time>2026-04-30T09:34:45.78Z</time></trkpt><trkpt lat="40.513185" lon="9.0748483"><ele>963.0</ele><time>2026-04-30T09:34:46.803Z</time></trkpt><trkpt lat="40.5133333" lon="9.07472"><ele>962.3333333333333</ele><time>2026-04-30T09:34:47.779Z</time></trkpt><trkpt lat="40.5134817" lon="9.07459"><ele>961.6666666666666</ele><time>2026-04-30T09:34:48.778Z</time></trkpt><trkpt lat="40.5136283" lon="9.0744633"><ele>961.0</ele><time>2026-04-30T09:34:49.78Z</time></trkpt><trkpt lat="40.5137717" lon="9.07434"><ele>959.3333333333333</ele><time>2026-04-30T09:34:50.791Z</time></trkpt><trkpt lat="40.513915" lon="9.0742167"><ele>957.6666666666667</ele><time>2026-04-30T09:34:51.779Z</time></trkpt><trkpt lat="40.5140583" lon="9.0740933"><ele>956.0</ele><time>2026-04-30T09:34:52.778Z</time></trkpt><trkpt lat="40.5142033" lon="9.0739617"><ele>955.6666666666667</ele><time>2026-04-30T09:34:53.775Z</time></trkpt><trkpt lat="40.51435" lon="9.0738333"><ele>955.3333333333333</ele><time>2026-04-30T09:34:54.779Z</time></trkpt><trkpt lat="40.5144983" lon="9.0737"><ele>955.0</ele><time>2026-04-30T09:34:55.778Z</time></trkpt><trkpt lat="40.51465" lon="9.0735683"><ele>952.3333333333333</ele><time>2026-04-30T09:34:56.78Z</time></trkpt><trkpt lat="40.5148017" lon="9.0734367"><ele>949.6666666666667</ele><time>2026-04-30T09:34:57.781Z</time></trkpt><trkpt lat="40.5149533" lon="9.0733033"><ele>947.0</ele><time>2026-04-30T09:34:58.783Z</time></trkpt><trkpt lat="40.5151067" lon="9.0731683"><ele>946.3333333333334</ele><time>2026-04-30T09:34:59.779Z</time></trkpt><trkpt lat="40.5152617" lon="9.07303"><ele>945.6666666666667</ele><time>2026-04-30T09:35:00.779Z</time></trkpt><trkpt lat="40.5154117" lon="9.0728867"><ele>945.0</ele><time>2026-04-30T09:35:01.782Z</time></trkpt><trkpt lat="40.5155617" lon="9.0727383"><ele>942.6666666666667</ele><time>2026-04-30T09:35:02.777Z</time></trkpt><trkpt lat="40.5157067" lon="9.072585"><ele>940.3333333333334</ele><time>2026-04-30T09:35:03.779Z</time></trkpt><trkpt lat="40.51585" lon="9.0724217"><ele>938.0</ele><time>2026-04-30T09:35:04.778Z</time></trkpt><trkpt lat="40.5159883" lon="9.0722533"><ele>938.0</ele><time>2026-04-30T09:35:05.775Z</time></trkpt><trkpt lat="40.5161233" lon="9.0720867"><ele>938.0</ele><time>2026-04-30T09:35:06.782Z</time></trkpt><trkpt lat="40.5162583" lon="9.0719167"><ele>938.0</ele><time>2026-04-30T09:35:07.778Z</time></trkpt><trkpt lat="40.5163883" lon="9.07175"><ele>935.6666666666667</ele><time>2026-04-30T09:35:08.794Z</time></trkpt><trkpt lat="40.5165167" lon="9.071585"><ele>933.3333333333333</ele><time>2026-04-30T09:35:09.784Z</time></trkpt><trkpt lat="40.5166433" lon="9.0714233"><ele>931.0</ele><time>2026-04-30T09:35:10.782Z</time></trkpt><trkpt lat="40.5167667" lon="9.071265"><ele>931.0</ele><time>2026-04-30T09:35:11.779Z</time></trkpt><trkpt lat="40.516885" lon="9.0711117"><ele>931.0</ele><time>2026-04-30T09:35:12.782Z</time></trkpt><trkpt lat="40.517" lon="9.0709683"><ele>931.0</ele><time>2026-04-30T09:35:13.782Z</time></trkpt><trkpt lat="40.517105" lon="9.0708317"><ele>929.25</ele><time>2026-04-30T09:35:14.794Z</time></trkpt><trkpt lat="40.5172017" lon="9.070705"><ele>927.5</ele><time>2026-04-30T09:35:15.78Z</time></trkpt><trkpt lat="40.5172867" lon="9.0705817"><ele>925.75</ele><time>2026-04-30T09:35:16.784Z</time></trkpt><trkpt lat="40.517355" lon="9.0704583"><ele>924.0</ele><time>2026-04-30T09:35:17.778Z</time></trkpt><trkpt lat="40.51741" lon="9.0703367"><ele>924.0</ele><time>2026-04-30T09:35:18.776Z</time></trkpt><trkpt lat="40.517455" lon="9.0702217"><ele>924.0000000000001</ele><time>2026-04-30T09:35:19.783Z</time></trkpt><trkpt lat="40.51748" lon="9.0700967"><ele>924.0000000000001</ele><time>2026-04-30T09:35:20.791Z</time></trkpt><trkpt lat="40.5174833" lon="9.06997"><ele>924.0</ele><time>2026-04-30T09:35:21.784Z</time></trkpt><trkpt lat="40.5174667" lon="9.069835"><ele>924.0</ele><time>2026-04-30T09:35:22.78Z</time></trkpt><trkpt lat="40.5174483" lon="9.0697167"><ele>923.0</ele><time>2026-04-30T09:35:23.785Z</time></trkpt><trkpt lat="40.5174233" lon="9.0696033"><ele>922.0</ele><time>2026-04-30T09:35:24.779Z</time></trkpt><trkpt lat="40.5173867" lon="9.0694983"><ele>921.0</ele><time>2026-04-30T09:35:25.78Z</time></trkpt><trkpt lat="40.5173333" lon="9.0694183"><ele>920.0</ele><time>2026-04-30T09:35:26.778Z</time></trkpt><trkpt lat="40.5172783" lon="9.06934"><ele>919.0</ele><time>2026-04-30T09:35:27.781Z</time></trkpt><trkpt lat="40.517255" lon="9.0692517"><ele>918.0</ele><time>2026-04-30T09:35:28.779Z</time></trkpt><trkpt lat="40.5172367" lon="9.069155"><ele>917.1428571428571</ele><time>2026-04-30T09:35:29.78Z</time></trkpt><trkpt lat="40.517225" lon="9.0690683"><ele>916.2857142857142</ele><time>2026-04-30T09:35:30.781Z</time></trkpt><trkpt lat="40.5172217" lon="9.0689783"><ele>915.4285714285713</ele><time>2026-04-30T09:35:31.78Z</time></trkpt><trkpt lat="40.5172183" lon="9.068885"><ele>914.5714285714286</ele><time>2026-04-30T09:35:32.78Z</time></trkpt><trkpt lat="40.5172133" lon="9.0687833"><ele>913.7142857142856</ele><time>2026-04-30T09:35:33.779Z</time></trkpt><trkpt lat="40.5172083" lon="9.06868"><ele>912.8571428571428</ele><time>2026-04-30T09:35:34.783Z</time></trkpt><trkpt lat="40.5172033" lon="9.06858"><ele>912.0</ele><time>2026-04-30T09:35:35.778Z</time></trkpt><trkpt lat="40.517205" lon="9.0684767"><ele>912.0</ele><time>2026-04-30T09:35:36.78Z</time></trkpt><trkpt lat="40.5172083" lon="9.0683767"><ele>912.0</ele><time>2026-04-30T09:35:37.78Z</time></trkpt><trkpt lat="40.5172017" lon="9.0682767"><ele>912.0</ele><time>2026-04-30T09:35:38.789Z</time></trkpt><trkpt lat="40.5172033" lon="9.0681783"><ele>912.0</ele><time>2026-04-30T09:35:39.779Z</time></trkpt><trkpt lat="40.51721" lon="9.0680683"><ele>912.0</ele><time>2026-04-30T09:35:40.778Z</time></trkpt><trkpt lat="40.51722" lon="9.0679667"><ele>912.0</ele><time>2026-04-30T09:35:41.782Z</time></trkpt><trkpt lat="40.5172333" lon="9.067855"><ele>911.2</ele><time>2026-04-30T09:35:42.779Z</time></trkpt><trkpt lat="40.5172467" lon="9.06774"><ele>910.4000000000001</ele><time>2026-04-30T09:35:43.784Z</time></trkpt><trkpt lat="40.5172583" lon="9.067625"><ele>909.5999999999999</ele><time>2026-04-30T09:35:44.791Z</time></trkpt><trkpt lat="40.5172767" lon="9.0675117"><ele>908.8</ele><time>2026-04-30T09:35:45.777Z</time></trkpt><trkpt lat="40.5173017" lon="9.0673933"><ele>908.0</ele><time>2026-04-30T09:35:46.777Z</time></trkpt><trkpt lat="40.5173283" lon="9.0672633"><ele>909.8</ele><time>2026-04-30T09:35:47.775Z</time></trkpt><trkpt lat="40.5173567" lon="9.06713"><ele>911.5999999999999</ele><time>2026-04-30T09:35:48.775Z</time></trkpt><trkpt lat="40.51739" lon="9.0669967"><ele>913.4000000000001</ele><time>2026-04-30T09:35:49.78Z</time></trkpt><trkpt lat="40.5174333" lon="9.06687"><ele>915.2</ele><time>2026-04-30T09:35:50.788Z</time></trkpt><trkpt lat="40.5174783" lon="9.06675"><ele>917.0</ele><time>2026-04-30T09:35:51.782Z</time></trkpt><trkpt lat="40.5175217" lon="9.06663"><ele>920.0</ele><time>2026-04-30T09:35:52.777Z</time></trkpt><trkpt lat="40.5175633" lon="9.0665133"><ele>923.0</ele><time>2026-04-30T09:35:53.779Z</time></trkpt><trkpt lat="40.5176067" lon="9.066405"><ele>926.0</ele><time>2026-04-30T09:35:54.779Z</time></trkpt><trkpt lat="40.5176533" lon="9.066305"><ele>929.0</ele><time>2026-04-30T09:35:55.778Z</time></trkpt><trkpt lat="40.5177033" lon="9.0662133"><ele>932.0</ele><time>2026-04-30T09:35:56.779Z</time></trkpt><trkpt lat="40.5177617" lon="9.0661317"><ele>932.0</ele><time>2026-04-30T09:35:57.779Z</time></trkpt><trkpt lat="40.5178283" lon="9.0660583"><ele>932.0</ele><time>2026-04-30T09:35:58.78Z</time></trkpt><trkpt lat="40.5179067" lon="9.0659967"><ele>932.0</ele><time>2026-04-30T09:35:59.78Z</time></trkpt><trkpt lat="40.5179933" lon="9.065935"><ele>932.0</ele><time>2026-04-30T09:36:00.778Z</time></trkpt><trkpt lat="40.5180833" lon="9.065865"><ele>932.0</ele><time>2026-04-30T09:36:01.779Z</time></trkpt><trkpt lat="40.518165" lon="9.065795"><ele>926.0</ele><time>2026-04-30T09:36:02.8Z</time></trkpt><trkpt lat="40.518245" lon="9.065715"><ele>920.0</ele><time>2026-04-30T09:36:03.776Z</time></trkpt><trkpt lat="40.5183183" lon="9.0656233"><ele>914.0</ele><time>2026-04-30T09:36:04.778Z</time></trkpt><trkpt lat="40.5183867" lon="9.0655233"><ele>908.0</ele><time>2026-04-30T09:36:05.777Z</time></trkpt><trkpt lat="40.5184483" lon="9.0654217"><ele>902.0</ele><time>2026-04-30T09:36:06.78Z</time></trkpt><trkpt lat="40.5185" lon="9.0653217"><ele>902.0000000000001</ele><time>2026-04-30T09:36:07.778Z</time></trkpt><trkpt lat="40.5185383" lon="9.0652167"><ele>902.0</ele><time>2026-04-30T09:36:08.794Z</time></trkpt><trkpt lat="40.5185567" lon="9.0651117"><ele>902.0</ele><time>2026-04-30T09:36:09.779Z</time></trkpt><trkpt lat="40.5185617" lon="9.065005"><ele>902.0</ele><time>2026-04-30T09:36:10.779Z</time></trkpt><trkpt lat="40.5185517" lon="9.0648983"><ele>902.0000000000001</ele><time>2026-04-30T09:36:11.78Z</time></trkpt><trkpt lat="40.518525" lon="9.0647883"><ele>902.0</ele><time>2026-04-30T09:36:12.778Z</time></trkpt><trkpt lat="40.518475" lon="9.0646817"><ele>899.6</ele><time>2026-04-30T09:36:13.781Z</time></trkpt><trkpt lat="40.5184033" lon="9.0645633"><ele>897.2</ele><time>2026-04-30T09:36:14.793Z</time></trkpt><trkpt lat="40.5183317" lon="9.064455"><ele>894.8</ele><time>2026-04-30T09:36:15.779Z</time></trkpt><trkpt lat="40.5182667" lon="9.0643433"><ele>892.4</ele><time>2026-04-30T09:36:16.779Z</time></trkpt><trkpt lat="40.5182067" lon="9.064235"><ele>890.0</ele><time>2026-04-30T09:36:17.781Z</time></trkpt><trkpt lat="40.518145" lon="9.06413"><ele>889.8</ele><time>2026-04-30T09:36:18.78Z</time></trkpt><trkpt lat="40.518085" lon="9.0640283"><ele>889.6</ele><time>2026-04-30T09:36:19.781Z</time></trkpt><trkpt lat="40.5180233" lon="9.06392"><ele>889.4000000000001</ele><time>2026-04-30T09:36:20.788Z</time></trkpt><trkpt lat="40.5179683" lon="9.0638133"><ele>889.2</ele><time>2026-04-30T09:36:21.778Z</time></trkpt><trkpt lat="40.517925" lon="9.0637117"><ele>889.0</ele><time>2026-04-30T09:36:22.78Z</time></trkpt><trkpt lat="40.5179" lon="9.0636133"><ele>888.9999999999999</ele><time>2026-04-30T09:36:23.78Z</time></trkpt><trkpt lat="40.5178983" lon="9.0635067"><ele>889.0</ele><time>2026-04-30T09:36:24.779Z</time></trkpt><trkpt lat="40.5179183" lon="9.0634017"><ele>889.0</ele><time>2026-04-30T09:36:25.779Z</time></trkpt><trkpt lat="40.5179583" lon="9.0632967"><ele>889.0</ele><time>2026-04-30T09:36:26.843Z</time></trkpt><trkpt lat="40.5180217" lon="9.0632"><ele>888.9999999999999</ele><time>2026-04-30T09:36:27.781Z</time></trkpt><trkpt lat="40.5180983" lon="9.0631233"><ele>889.0</ele><time>2026-04-30T09:36:28.778Z</time></trkpt><trkpt lat="40.5181783" lon="9.063055"><ele>891.8000000000001</ele><time>2026-04-30T09:36:29.78Z</time></trkpt><trkpt lat="40.51828" lon="9.0630133"><ele>894.6000000000001</ele><time>2026-04-30T09:36:30.782Z</time></trkpt><trkpt lat="40.51839" lon="9.06298"><ele>897.4</ele><time>2026-04-30T09:36:31.778Z</time></trkpt><trkpt lat="40.5185" lon="9.0629617"><ele>900.2</ele><time>2026-04-30T09:36:32.783Z</time></trkpt><trkpt lat="40.5186" lon="9.0629267"><ele>903.0</ele><time>2026-04-30T09:36:33.78Z</time></trkpt><trkpt lat="40.518685" lon="9.06287"><ele>898.0</ele><time>2026-04-30T09:36:34.782Z</time></trkpt><trkpt lat="40.5187717" lon="9.062795"><ele>893.0</ele><time>2026-04-30T09:36:35.781Z</time></trkpt><trkpt lat="40.5188567" lon="9.062705"><ele>888.0</ele><time>2026-04-30T09:36:36.78Z</time></trkpt><trkpt lat="40.5189417" lon="9.0626"><ele>883.0</ele><time>2026-04-30T09:36:37.779Z</time></trkpt><trkpt lat="40.5190267" lon="9.06249"><ele>878.0</ele><time>2026-04-30T09:36:38.787Z</time></trkpt><trkpt lat="40.5191117" lon="9.0623833"><ele>877.8</ele><time>2026-04-30T09:36:39.78Z</time></trkpt><trkpt lat="40.5191933" lon="9.0622833"><ele>877.5999999999999</ele><time>2026-04-30T09:36:40.781Z</time></trkpt><trkpt lat="40.5192717" lon="9.0621933"><ele>877.4000000000001</ele><time>2026-04-30T09:36:41.777Z</time></trkpt><trkpt lat="40.5193433" lon="9.0621017"><ele>877.2</ele><time>2026-04-30T09:36:42.781Z</time></trkpt><trkpt lat="40.5194" lon="9.0620083"><ele>877.0</ele><time>2026-04-30T09:36:43.782Z</time></trkpt><trkpt lat="40.519445" lon="9.0619117"><ele>877.0</ele><time>2026-04-30T09:36:44.79Z</time></trkpt><trkpt lat="40.5194683" lon="9.0618067"><ele>877.0</ele><time>2026-04-30T09:36:45.777Z</time></trkpt><trkpt lat="40.5194817" lon="9.061695"><ele>877.0</ele><time>2026-04-30T09:36:46.779Z</time></trkpt><trkpt lat="40.5194733" lon="9.06158"><ele>877.0</ele><time>2026-04-30T09:36:47.781Z</time></trkpt><trkpt lat="40.5194483" lon="9.0614667"><ele>877.0</ele><time>2026-04-30T09:36:48.778Z</time></trkpt><trkpt lat="40.519395" lon="9.0613483"><ele>871.5</ele><time>2026-04-30T09:36:49.776Z</time></trkpt><trkpt lat="40.5193233" lon="9.0612467"><ele>866.0</ele><time>2026-04-30T09:36:50.79Z</time></trkpt><trkpt lat="40.5192317" lon="9.0611533"><ele>860.5</ele><time>2026-04-30T09:36:51.783Z</time></trkpt><trkpt lat="40.5191333" lon="9.061065"><ele>855.0</ele><time>2026-04-30T09:36:52.779Z</time></trkpt><trkpt lat="40.51903" lon="9.0609833"><ele>855.0</ele><time>2026-04-30T09:36:53.78Z</time></trkpt><trkpt lat="40.5189167" lon="9.060905"><ele>855.0</ele><time>2026-04-30T09:36:54.781Z</time></trkpt><trkpt lat="40.5188083" lon="9.0608283"><ele>855.0</ele><time>2026-04-30T09:36:55.78Z</time></trkpt><trkpt lat="40.5187" lon="9.0607583"><ele>855.0</ele><time>2026-04-30T09:36:56.778Z</time></trkpt><trkpt lat="40.518595" lon="9.0606883"><ele>851.6</ele><time>2026-04-30T09:36:57.781Z</time></trkpt><trkpt lat="40.5184983" lon="9.0606167"><ele>848.2</ele><time>2026-04-30T09:36:58.78Z</time></trkpt><trkpt lat="40.5184033" lon="9.0605533"><ele>844.8</ele><time>2026-04-30T09:36:59.778Z</time></trkpt><trkpt lat="40.5182867" lon="9.0605067"><ele>841.4</ele><time>2026-04-30T09:37:00.778Z</time></trkpt><trkpt lat="40.5182017" lon="9.0604683"><ele>838.0</ele><time>2026-04-30T09:37:01.779Z</time></trkpt><trkpt lat="40.5181117" lon="9.06045"><ele>837.9999999999999</ele><time>2026-04-30T09:37:02.779Z</time></trkpt><trkpt lat="40.5180217" lon="9.0604433"><ele>838.0</ele><time>2026-04-30T09:37:03.78Z</time></trkpt><trkpt lat="40.5179333" lon="9.0604483"><ele>838.0</ele><time>2026-04-30T09:37:04.778Z</time></trkpt><trkpt lat="40.51785" lon="9.0604417"><ele>838.0</ele><time>2026-04-30T09:37:05.779Z</time></trkpt><trkpt lat="40.517775" lon="9.0604383"><ele>837.9999999999999</ele><time>2026-04-30T09:37:06.781Z</time></trkpt><trkpt lat="40.517705" lon="9.0604233"><ele>838.0</ele><time>2026-04-30T09:37:07.778Z</time></trkpt><trkpt lat="40.51764" lon="9.0603967"><ele>841.4999999999999</ele><time>2026-04-30T09:37:08.791Z</time></trkpt><trkpt lat="40.5175817" lon="9.0603617"><ele>845.0</ele><time>2026-04-30T09:37:09.78Z</time></trkpt><trkpt lat="40.517475" lon="9.0602617"><ele>848.5</ele><time>2026-04-30T09:37:11.78Z</time></trkpt><trkpt lat="40.5174433" lon="9.0601817"><ele>852.0</ele><time>2026-04-30T09:37:12.78Z</time></trkpt><trkpt lat="40.5174283" lon="9.0601"><ele>855.4999999999999</ele><time>2026-04-30T09:37:13.778Z</time></trkpt><trkpt lat="40.517395" lon="9.0600233"><ele>859.0</ele><time>2026-04-30T09:37:14.791Z</time></trkpt><trkpt lat="40.5173517" lon="9.0599517"><ele>854.9999999999999</ele><time>2026-04-30T09:37:15.776Z</time></trkpt><trkpt lat="40.517305" lon="9.0598917"><ele>851.0</ele><time>2026-04-30T09:37:16.779Z</time></trkpt><trkpt lat="40.5172417" lon="9.0598433"><ele>847.0</ele><time>2026-04-30T09:37:17.78Z</time></trkpt><trkpt lat="40.5171667" lon="9.059815"><ele>843.0</ele><time>2026-04-30T09:37:18.778Z</time></trkpt><trkpt lat="40.517075" lon="9.059805"><ele>838.9999999999999</ele><time>2026-04-30T09:37:19.779Z</time></trkpt><trkpt lat="40.5169917" lon="9.0597933"><ele>835.0</ele><time>2026-04-30T09:37:20.791Z</time></trkpt><trkpt lat="40.5169067" lon="9.0597883"><ele>833.9999999999999</ele><time>2026-04-30T09:37:21.782Z</time></trkpt><trkpt lat="40.5168217" lon="9.0597933"><ele>833.0</ele><time>2026-04-30T09:37:22.777Z</time></trkpt><trkpt lat="40.5167417" lon="9.0598233"><ele>832.0</ele><time>2026-04-30T09:37:23.778Z</time></trkpt><trkpt lat="40.5166667" lon="9.059855"><ele>831.0</ele><time>2026-04-30T09:37:24.78Z</time></trkpt><trkpt lat="40.51659" lon="9.05989"><ele>829.9999999999999</ele><time>2026-04-30T09:37:25.778Z</time></trkpt><trkpt lat="40.516515" lon="9.0599067"><ele>829.0</ele><time>2026-04-30T09:37:26.844Z</time></trkpt><trkpt lat="40.5164383" lon="9.0599083"><ele>828.9999999999999</ele><time>2026-04-30T09:37:27.778Z</time></trkpt><trkpt lat="40.5163617" lon="9.0598883"><ele>829.0</ele><time>2026-04-30T09:37:28.778Z</time></trkpt><trkpt lat="40.5162867" lon="9.059855"><ele>829.0</ele><time>2026-04-30T09:37:29.773Z</time></trkpt><trkpt lat="40.516205" lon="9.059815"><ele>829.0</ele><time>2026-04-30T09:37:30.78Z</time></trkpt><trkpt lat="40.5161183" lon="9.059785"><ele>828.9999999999999</ele><time>2026-04-30T09:37:31.778Z</time></trkpt><trkpt lat="40.516035" lon="9.0597633"><ele>829.0</ele><time>2026-04-30T09:37:32.777Z</time></trkpt><trkpt lat="40.5159533" lon="9.0597517"><ele>828.3333333333333</ele><time>2026-04-30T09:37:33.778Z</time></trkpt><trkpt lat="40.5158717" lon="9.0597567"><ele>827.6666666666666</ele><time>2026-04-30T09:37:34.781Z</time></trkpt><trkpt lat="40.5157917" lon="9.059775"><ele>827.0</ele><time>2026-04-30T09:37:35.778Z</time></trkpt><trkpt lat="40.5157167" lon="9.059805"><ele>826.3333333333333</ele><time>2026-04-30T09:37:36.78Z</time></trkpt><trkpt lat="40.5156483" lon="9.059855"><ele>825.6666666666666</ele><time>2026-04-30T09:37:37.778Z</time></trkpt><trkpt lat="40.5155783" lon="9.0599133"><ele>825.0</ele><time>2026-04-30T09:37:38.792Z</time></trkpt><trkpt lat="40.5155167" lon="9.059975"><ele>827.8333333333334</ele><time>2026-04-30T09:37:39.775Z</time></trkpt><trkpt lat="40.515455" lon="9.060025"><ele>830.6666666666667</ele><time>2026-04-30T09:37:40.78Z</time></trkpt><trkpt lat="40.5153983" lon="9.0600667"><ele>833.5</ele><time>2026-04-30T09:37:41.781Z</time></trkpt><trkpt lat="40.5153067" lon="9.0601083"><ele>836.3333333333334</ele><time>2026-04-30T09:37:43.78Z</time></trkpt><trkpt lat="40.51526" lon="9.06004"><ele>839.1666666666667</ele><time>2026-04-30T09:37:44.788Z</time></trkpt><trkpt lat="40.515215" lon="9.0599783"><ele>842.0</ele><time>2026-04-30T09:37:45.778Z</time></trkpt><trkpt lat="40.51513" lon="9.0598567"><ele>842.0000000000001</ele><time>2026-04-30T09:37:47.781Z</time></trkpt><trkpt lat="40.5150817" lon="9.0597883"><ele>842.0</ele><time>2026-04-30T09:37:48.78Z</time></trkpt><trkpt lat="40.5150333" lon="9.05972"><ele>842.0</ele><time>2026-04-30T09:37:49.778Z</time></trkpt><trkpt lat="40.514975" lon="9.059645"><ele>842.0</ele><time>2026-04-30T09:37:50.786Z</time></trkpt><trkpt lat="40.51492" lon="9.05957"><ele>842.0000000000001</ele><time>2026-04-30T09:37:51.775Z</time></trkpt><trkpt lat="40.5148633" lon="9.0594967"><ele>842.0</ele><time>2026-04-30T09:37:52.778Z</time></trkpt><trkpt lat="40.5148133" lon="9.0594217"><ele>842.0</ele><time>2026-04-30T09:37:53.776Z</time></trkpt><trkpt lat="40.5147733" lon="9.0593533"><ele>842.0</ele><time>2026-04-30T09:37:54.781Z</time></trkpt><trkpt lat="40.514745" lon="9.0592783"><ele>842.0</ele><time>2026-04-30T09:37:55.777Z</time></trkpt><trkpt lat="40.514735" lon="9.0591333"><ele>842.0</ele><time>2026-04-30T09:37:57.777Z</time></trkpt><trkpt lat="40.5147483" lon="9.059"><ele>842.0</ele><time>2026-04-30T09:37:59.779Z</time></trkpt><trkpt lat="40.514815" lon="9.0588617"><ele>844.8</ele><time>2026-04-30T09:38:01.778Z</time></trkpt><trkpt lat="40.5148683" lon="9.0587933"><ele>847.6</ele><time>2026-04-30T09:38:02.778Z</time></trkpt><trkpt lat="40.51494" lon="9.05873"><ele>850.3999999999999</ele><time>2026-04-30T09:38:03.78Z</time></trkpt><trkpt lat="40.5150317" lon="9.0586683"><ele>853.1999999999999</ele><time>2026-04-30T09:38:04.777Z</time></trkpt><trkpt lat="40.5151367" lon="9.058615"><ele>856.0</ele><time>2026-04-30T09:38:05.778Z</time></trkpt><trkpt lat="40.51523" lon="9.0585567"><ele>856.0</ele><time>2026-04-30T09:38:06.778Z</time></trkpt><trkpt lat="40.51533" lon="9.0584733"><ele>856.0</ele><time>2026-04-30T09:38:07.777Z</time></trkpt><trkpt lat="40.51544" lon="9.0583867"><ele>856.0</ele><time>2026-04-30T09:38:08.787Z</time></trkpt><trkpt lat="40.5155217" lon="9.058305"><ele>856.0</ele><time>2026-04-30T09:38:09.781Z</time></trkpt><trkpt lat="40.5156117" lon="9.0582067"><ele>851.5999999999999</ele><time>2026-04-30T09:38:10.777Z</time></trkpt><trkpt lat="40.5156917" lon="9.0581083"><ele>847.1999999999999</ele><time>2026-04-30T09:38:11.78Z</time></trkpt><trkpt lat="40.5157633" lon="9.0580167"><ele>842.8</ele><time>2026-04-30T09:38:12.78Z</time></trkpt><trkpt lat="40.5158333" lon="9.0579267"><ele>838.4000000000001</ele><time>2026-04-30T09:38:13.78Z</time></trkpt><trkpt lat="40.5158833" lon="9.057835"><ele>834.0</ele><time>2026-04-30T09:38:14.786Z</time></trkpt><trkpt lat="40.5159183" lon="9.0577383"><ele>834.0</ele><time>2026-04-30T09:38:15.777Z</time></trkpt><trkpt lat="40.51595" lon="9.057645"><ele>834.0</ele><time>2026-04-30T09:38:16.78Z</time></trkpt><trkpt lat="40.5159833" lon="9.0575567"><ele>834.0</ele><time>2026-04-30T09:38:17.781Z</time></trkpt><trkpt lat="40.5160317" lon="9.0574767"><ele>834.0</ele><time>2026-04-30T09:38:18.78Z</time></trkpt><trkpt lat="40.5160883" lon="9.0574033"><ele>834.0</ele><time>2026-04-30T09:38:19.775Z</time></trkpt><trkpt lat="40.5161533" lon="9.05734"><ele>834.0</ele><time>2026-04-30T09:38:20.789Z</time></trkpt><trkpt lat="40.5162333" lon="9.0572917"><ele>833.6</ele><time>2026-04-30T09:38:21.781Z</time></trkpt><trkpt lat="40.5163233" lon="9.0572567"><ele>833.2</ele><time>2026-04-30T09:38:22.776Z</time></trkpt><trkpt lat="40.5164317" lon="9.057235"><ele>832.8000000000001</ele><time>2026-04-30T09:38:23.782Z</time></trkpt><trkpt lat="40.5165467" lon="9.0572117"><ele>832.4000000000001</ele><time>2026-04-30T09:38:24.779Z</time></trkpt><trkpt lat="40.5166583" lon="9.0571833"><ele>832.0</ele><time>2026-04-30T09:38:25.78Z</time></trkpt><trkpt lat="40.516775" lon="9.0571483"><ele>832.0</ele><time>2026-04-30T09:38:26.78Z</time></trkpt><trkpt lat="40.5168883" lon="9.0571133"><ele>832.0</ele><time>2026-04-30T09:38:27.779Z</time></trkpt><trkpt lat="40.5169867" lon="9.0570733"><ele>832.0</ele><time>2026-04-30T09:38:28.782Z</time></trkpt><trkpt lat="40.5170817" lon="9.0570267"><ele>832.0</ele><time>2026-04-30T09:38:29.777Z</time></trkpt><trkpt lat="40.51717" lon="9.0569733"><ele>832.0</ele><time>2026-04-30T09:38:30.778Z</time></trkpt><trkpt lat="40.5172417" lon="9.0569083"><ele>830.1666666666666</ele><time>2026-04-30T09:38:31.781Z</time></trkpt><trkpt lat="40.5173067" lon="9.0568333"><ele>828.3333333333333</ele><time>2026-04-30T09:38:32.782Z</time></trkpt><trkpt lat="40.517365" lon="9.0567533"><ele>826.5</ele><time>2026-04-30T09:38:33.78Z</time></trkpt><trkpt lat="40.5174133" lon="9.05667"><ele>824.6666666666667</ele><time>2026-04-30T09:38:34.778Z</time></trkpt><trkpt lat="40.5174583" lon="9.0565883"><ele>822.8333333333334</ele><time>2026-04-30T09:38:35.783Z</time></trkpt><trkpt lat="40.517505" lon="9.05651"><ele>821.0</ele><time>2026-04-30T09:38:36.779Z</time></trkpt><trkpt lat="40.5175567" lon="9.0564417"><ele>821.0000000000001</ele><time>2026-04-30T09:38:37.784Z</time></trkpt><trkpt lat="40.5176133" lon="9.0563867"><ele>821.0</ele><time>2026-04-30T09:38:38.791Z</time></trkpt><trkpt lat="40.5176817" lon="9.0563433"><ele>821.0</ele><time>2026-04-30T09:38:39.783Z</time></trkpt><trkpt lat="40.5177567" lon="9.0563117"><ele>821.0</ele><time>2026-04-30T09:38:40.781Z</time></trkpt><trkpt lat="40.5178367" lon="9.0562933"><ele>821.0000000000001</ele><time>2026-04-30T09:38:41.781Z</time></trkpt><trkpt lat="40.5179217" lon="9.05628"><ele>821.0</ele><time>2026-04-30T09:38:42.776Z</time></trkpt><trkpt lat="40.51801" lon="9.0562583"><ele>819.0</ele><time>2026-04-30T09:38:43.78Z</time></trkpt><trkpt lat="40.5181" lon="9.0562317"><ele>817.0</ele><time>2026-04-30T09:38:44.791Z</time></trkpt><trkpt lat="40.5181933" lon="9.0562067"><ele>815.0</ele><time>2026-04-30T09:38:45.778Z</time></trkpt><trkpt lat="40.5182917" lon="9.0561883"><ele>813.0</ele><time>2026-04-30T09:38:46.778Z</time></trkpt><trkpt lat="40.518395" lon="9.0561767"><ele>811.0</ele><time>2026-04-30T09:38:47.78Z</time></trkpt><trkpt lat="40.5185" lon="9.056175"><ele>811.0</ele><time>2026-04-30T09:38:48.776Z</time></trkpt><trkpt lat="40.5186067" lon="9.056185"><ele>811.0</ele><time>2026-04-30T09:38:49.778Z</time></trkpt><trkpt lat="40.51872" lon="9.0561917"><ele>811.0</ele><time>2026-04-30T09:38:50.79Z</time></trkpt><trkpt lat="40.5188367" lon="9.0561983"><ele>811.0</ele><time>2026-04-30T09:38:51.776Z</time></trkpt><trkpt lat="40.5189517" lon="9.0562067"><ele>809.0</ele><time>2026-04-30T09:38:52.777Z</time></trkpt><trkpt lat="40.5190633" lon="9.0562167"><ele>807.0</ele><time>2026-04-30T09:38:53.784Z</time></trkpt><trkpt lat="40.51917" lon="9.0562317"><ele>805.0</ele><time>2026-04-30T09:38:54.783Z</time></trkpt><trkpt lat="40.5192867" lon="9.0562567"><ele>803.0</ele><time>2026-04-30T09:38:55.781Z</time></trkpt><trkpt lat="40.5193783" lon="9.056295"><ele>801.0</ele><time>2026-04-30T09:38:56.775Z</time></trkpt><trkpt lat="40.5194567" lon="9.0563433"><ele>801.0</ele><time>2026-04-30T09:38:57.775Z</time></trkpt><trkpt lat="40.51952" lon="9.056405"><ele>801.0</ele><time>2026-04-30T09:38:58.778Z</time></trkpt><trkpt lat="40.5195833" lon="9.0564617"><ele>801.0</ele><time>2026-04-30T09:38:59.781Z</time></trkpt><trkpt lat="40.519635" lon="9.0565117"><ele>801.0</ele><time>2026-04-30T09:39:00.776Z</time></trkpt><trkpt lat="40.519695" lon="9.05654"><ele>801.0</ele><time>2026-04-30T09:39:01.779Z</time></trkpt><trkpt lat="40.5197617" lon="9.05655"><ele>801.0</ele><time>2026-04-30T09:39:02.781Z</time></trkpt><trkpt lat="40.5198283" lon="9.0565533"><ele>801.0</ele><time>2026-04-30T09:39:03.779Z</time></trkpt><trkpt lat="40.5199033" lon="9.056535"><ele>799.5714285714286</ele><time>2026-04-30T09:39:04.778Z</time></trkpt><trkpt lat="40.5199733" lon="9.0564917"><ele>798.1428571428571</ele><time>2026-04-30T09:39:05.778Z</time></trkpt><trkpt lat="40.5200283" lon="9.0564383"><ele>796.7142857142858</ele><time>2026-04-30T09:39:06.775Z</time></trkpt><trkpt lat="40.52009" lon="9.0563867"><ele>795.2857142857142</ele><time>2026-04-30T09:39:07.779Z</time></trkpt><trkpt lat="40.52013" lon="9.0563083"><ele>793.8571428571429</ele><time>2026-04-30T09:39:08.793Z</time></trkpt><trkpt lat="40.5201883" lon="9.056245"><ele>792.4285714285714</ele><time>2026-04-30T09:39:09.775Z</time></trkpt><trkpt lat="40.5202467" lon="9.0561767"><ele>791.0</ele><time>2026-04-30T09:39:10.779Z</time></trkpt><trkpt lat="40.52031" lon="9.056125"><ele>791.0000000000001</ele><time>2026-04-30T09:39:11.779Z</time></trkpt><trkpt lat="40.52037" lon="9.0560717"><ele>791.0</ele><time>2026-04-30T09:39:12.778Z</time></trkpt><trkpt lat="40.5204517" lon="9.0560217"><ele>791.0</ele><time>2026-04-30T09:39:13.78Z</time></trkpt><trkpt lat="40.5205217" lon="9.05599"><ele>791.0</ele><time>2026-04-30T09:39:14.795Z</time></trkpt><trkpt lat="40.5205883" lon="9.055975"><ele>791.0000000000001</ele><time>2026-04-30T09:39:15.783Z</time></trkpt><trkpt lat="40.5206567" lon="9.05596"><ele>791.0</ele><time>2026-04-30T09:39:16.779Z</time></trkpt><trkpt lat="40.5207733" lon="9.055945"><ele>790.1999999999999</ele><time>2026-04-30T09:39:18.78Z</time></trkpt><trkpt lat="40.520885" lon="9.0559583"><ele>789.4</ele><time>2026-04-30T09:39:20.79Z</time></trkpt><trkpt lat="40.5209883" lon="9.0559933"><ele>788.6</ele><time>2026-04-30T09:39:22.779Z</time></trkpt><trkpt lat="40.5210833" lon="9.0560617"><ele>787.8</ele><time>2026-04-30T09:39:24.778Z</time></trkpt><trkpt lat="40.521135" lon="9.056115"><ele>787.0</ele><time>2026-04-30T09:39:25.776Z</time></trkpt><trkpt lat="40.5211983" lon="9.0561667"><ele>786.2857142857142</ele><time>2026-04-30T09:39:26.777Z</time></trkpt><trkpt lat="40.5212617" lon="9.056215"><ele>785.5714285714286</ele><time>2026-04-30T09:39:27.775Z</time></trkpt><trkpt lat="40.52133" lon="9.05626"><ele>784.8571428571429</ele><time>2026-04-30T09:39:28.779Z</time></trkpt><trkpt lat="40.521395" lon="9.0562867"><ele>784.1428571428571</ele><time>2026-04-30T09:39:29.778Z</time></trkpt><trkpt lat="40.5214633" lon="9.0562983"><ele>783.4285714285714</ele><time>2026-04-30T09:39:30.782Z</time></trkpt><trkpt lat="40.5215333" lon="9.0562967"><ele>782.7142857142857</ele><time>2026-04-30T09:39:31.78Z</time></trkpt><trkpt lat="40.5216033" lon="9.0562817"><ele>782.0</ele><time>2026-04-30T09:39:32.781Z</time></trkpt><trkpt lat="40.5216667" lon="9.0562383"><ele>782.0000000000001</ele><time>2026-04-30T09:39:33.779Z</time></trkpt><trkpt lat="40.52173" lon="9.0562017"><ele>782.0</ele><time>2026-04-30T09:39:34.78Z</time></trkpt><trkpt lat="40.52179" lon="9.0561467"><ele>782.0</ele><time>2026-04-30T09:39:35.781Z</time></trkpt><trkpt lat="40.521855" lon="9.0560767"><ele>782.0</ele><time>2026-04-30T09:39:36.779Z</time></trkpt><trkpt lat="40.52192" lon="9.0559917"><ele>782.0000000000001</ele><time>2026-04-30T09:39:37.78Z</time></trkpt><trkpt lat="40.5219933" lon="9.0558933"><ele>782.0</ele><time>2026-04-30T09:39:38.789Z</time></trkpt><trkpt lat="40.5220567" lon="9.05577"><ele>779.0</ele><time>2026-04-30T09:39:39.781Z</time></trkpt><trkpt lat="40.5221233" lon="9.0556633"><ele>776.0</ele><time>2026-04-30T09:39:40.783Z</time></trkpt><trkpt lat="40.5221817" lon="9.055545"><ele>773.0</ele><time>2026-04-30T09:39:41.783Z</time></trkpt><trkpt lat="40.5222267" lon="9.0553967"><ele>770.0</ele><time>2026-04-30T09:39:42.781Z</time></trkpt><trkpt lat="40.52228" lon="9.0552767"><ele>767.0</ele><time>2026-04-30T09:39:43.777Z</time></trkpt><trkpt lat="40.5223367" lon="9.0551667"><ele>767.0</ele><time>2026-04-30T09:39:44.791Z</time></trkpt><trkpt lat="40.5223883" lon="9.0550567"><ele>767.0</ele><time>2026-04-30T09:39:45.778Z</time></trkpt><trkpt lat="40.522445" lon="9.0549617"><ele>767.0</ele><time>2026-04-30T09:39:46.781Z</time></trkpt><trkpt lat="40.522515" lon="9.0548783"><ele>767.0</ele><time>2026-04-30T09:39:47.781Z</time></trkpt><trkpt lat="40.5226017" lon="9.0548483"><ele>767.0</ele><time>2026-04-30T09:39:48.782Z</time></trkpt><trkpt lat="40.5226983" lon="9.0548133"><ele>766.8</ele><time>2026-04-30T09:39:49.78Z</time></trkpt><trkpt lat="40.5227967" lon="9.054795"><ele>766.6</ele><time>2026-04-30T09:39:50.788Z</time></trkpt><trkpt lat="40.5229" lon="9.0547667"><ele>766.4</ele><time>2026-04-30T09:39:51.78Z</time></trkpt><trkpt lat="40.523" lon="9.0547333"><ele>766.1999999999999</ele><time>2026-04-30T09:39:52.786Z</time></trkpt><trkpt lat="40.52309" lon="9.0546883"><ele>766.0</ele><time>2026-04-30T09:39:53.781Z</time></trkpt><trkpt lat="40.5231767" lon="9.0546283"><ele>765.0</ele><time>2026-04-30T09:39:54.786Z</time></trkpt><trkpt lat="40.52326" lon="9.05456"><ele>764.0</ele><time>2026-04-30T09:39:55.78Z</time></trkpt><trkpt lat="40.5233333" lon="9.0544767"><ele>763.0</ele><time>2026-04-30T09:39:56.847Z</time></trkpt><trkpt lat="40.5234" lon="9.054385"><ele>762.0</ele><time>2026-04-30T09:39:57.777Z</time></trkpt><trkpt lat="40.52346" lon="9.0542883"><ele>761.0</ele><time>2026-04-30T09:39:58.777Z</time></trkpt><trkpt lat="40.5235233" lon="9.0541983"><ele>761.0</ele><time>2026-04-30T09:39:59.776Z</time></trkpt><trkpt lat="40.5235983" lon="9.0541217"><ele>761.0</ele><time>2026-04-30T09:40:00.779Z</time></trkpt><trkpt lat="40.5236817" lon="9.0540483"><ele>761.0</ele><time>2026-04-30T09:40:01.781Z</time></trkpt><trkpt lat="40.5237533" lon="9.0539617"><ele>761.0</ele><time>2026-04-30T09:40:02.78Z</time></trkpt><trkpt lat="40.523825" lon="9.0538633"><ele>761.0</ele><time>2026-04-30T09:40:03.778Z</time></trkpt><trkpt lat="40.52389" lon="9.0537433"><ele>758.75</ele><time>2026-04-30T09:40:04.779Z</time></trkpt><trkpt lat="40.5239517" lon="9.0536217"><ele>756.5</ele><time>2026-04-30T09:40:05.784Z</time></trkpt><trkpt lat="40.5240033" lon="9.0534867"><ele>754.25</ele><time>2026-04-30T09:40:06.775Z</time></trkpt><trkpt lat="40.52404" lon="9.0533433"><ele>752.0</ele><time>2026-04-30T09:40:07.777Z</time></trkpt><trkpt lat="40.52407" lon="9.0532033"><ele>752.0</ele><time>2026-04-30T09:40:08.795Z</time></trkpt><trkpt lat="40.524095" lon="9.05306"><ele>752.0</ele><time>2026-04-30T09:40:09.78Z</time></trkpt><trkpt lat="40.5241133" lon="9.05292"><ele>752.0</ele><time>2026-04-30T09:40:10.78Z</time></trkpt><trkpt lat="40.5241317" lon="9.0527833"><ele>752.0</ele><time>2026-04-30T09:40:11.777Z</time></trkpt><trkpt lat="40.5241517" lon="9.0526583"><ele>752.0</ele><time>2026-04-30T09:40:12.782Z</time></trkpt><trkpt lat="40.5241633" lon="9.05254"><ele>753.3333333333333</ele><time>2026-04-30T09:40:13.778Z</time></trkpt><trkpt lat="40.5241633" lon="9.05243"><ele>754.6666666666666</ele><time>2026-04-30T09:40:14.792Z</time></trkpt><trkpt lat="40.52416" lon="9.0523267"><ele>756.0</ele><time>2026-04-30T09:40:15.779Z</time></trkpt><trkpt lat="40.5241383" lon="9.0522267"><ele>757.3333333333334</ele><time>2026-04-30T09:40:16.777Z</time></trkpt><trkpt lat="40.5241083" lon="9.05213"><ele>758.6666666666667</ele><time>2026-04-30T09:40:17.78Z</time></trkpt><trkpt lat="40.5240767" lon="9.0520417"><ele>760.0</ele><time>2026-04-30T09:40:18.778Z</time></trkpt><trkpt lat="40.5240283" lon="9.0519717"><ele>760.0</ele><time>2026-04-30T09:40:19.777Z</time></trkpt><trkpt lat="40.5239633" lon="9.0519167"><ele>760.0</ele><time>2026-04-30T09:40:20.789Z</time></trkpt><trkpt lat="40.52391" lon="9.051855"><ele>760.0</ele><time>2026-04-30T09:40:21.782Z</time></trkpt><trkpt lat="40.52386" lon="9.051795"><ele>760.0</ele><time>2026-04-30T09:40:22.78Z</time></trkpt><trkpt lat="40.5238067" lon="9.0517333"><ele>760.0</ele><time>2026-04-30T09:40:23.778Z</time></trkpt><trkpt lat="40.5237483" lon="9.051675"><ele>760.0</ele><time>2026-04-30T09:40:24.779Z</time></trkpt><trkpt lat="40.5236917" lon="9.0516183"><ele>760.0</ele><time>2026-04-30T09:40:25.779Z</time></trkpt><trkpt lat="40.5236233" lon="9.0515517"><ele>755.5</ele><time>2026-04-30T09:40:26.776Z</time></trkpt><trkpt lat="40.5235583" lon="9.051485"><ele>751.0</ele><time>2026-04-30T09:40:27.775Z</time></trkpt><trkpt lat="40.5234933" lon="9.0514067"><ele>746.5</ele><time>2026-04-30T09:40:28.777Z</time></trkpt><trkpt lat="40.52344" lon="9.0513333"><ele>742.0</ele><time>2026-04-30T09:40:29.776Z</time></trkpt><trkpt lat="40.5233933" lon="9.051255"><ele>737.5</ele><time>2026-04-30T09:40:30.778Z</time></trkpt><trkpt lat="40.5233567" lon="9.0511817"><ele>733.0</ele><time>2026-04-30T09:40:31.779Z</time></trkpt><trkpt lat="40.5233283" lon="9.0511033"><ele>733.0</ele><time>2026-04-30T09:40:32.779Z</time></trkpt><trkpt lat="40.5233067" lon="9.0509417"><ele>733.0</ele><time>2026-04-30T09:40:34.78Z</time></trkpt><trkpt lat="40.5233633" lon="9.050835"><ele>733.0</ele><time>2026-04-30T09:40:35.777Z</time></trkpt><trkpt lat="40.5234133" lon="9.0507283"><ele>733.0</ele><time>2026-04-30T09:40:36.777Z</time></trkpt><trkpt lat="40.5234567" lon="9.05063"><ele>733.0</ele><time>2026-04-30T09:40:37.779Z</time></trkpt><trkpt lat="40.5235067" lon="9.05054"><ele>732.0</ele><time>2026-04-30T09:40:38.79Z</time></trkpt><trkpt lat="40.523555" lon="9.0504667"><ele>731.0</ele><time>2026-04-30T09:40:39.778Z</time></trkpt><trkpt lat="40.5236167" lon="9.050395"><ele>730.0</ele><time>2026-04-30T09:40:40.778Z</time></trkpt><trkpt lat="40.5236867" lon="9.0503317"><ele>729.0</ele><time>2026-04-30T09:40:41.774Z</time></trkpt><trkpt lat="40.5237683" lon="9.0502917"><ele>728.0</ele><time>2026-04-30T09:40:42.779Z</time></trkpt><trkpt lat="40.5238533" lon="9.0502483"><ele>727.0</ele><time>2026-04-30T09:40:43.777Z</time></trkpt><trkpt lat="40.5239383" lon="9.05019"><ele>727.0</ele><time>2026-04-30T09:40:44.789Z</time></trkpt><trkpt lat="40.52402" lon="9.050115"><ele>727.0</ele><time>2026-04-30T09:40:45.778Z</time></trkpt><trkpt lat="40.5240867" lon="9.050045"><ele>727.0</ele><time>2026-04-30T09:40:46.783Z</time></trkpt><trkpt lat="40.52414" lon="9.049965"><ele>727.0</ele><time>2026-04-30T09:40:47.776Z</time></trkpt><trkpt lat="40.524175" lon="9.0498817"><ele>727.0</ele><time>2026-04-30T09:40:48.779Z</time></trkpt><trkpt lat="40.5241967" lon="9.0497983"><ele>727.0</ele><time>2026-04-30T09:40:49.777Z</time></trkpt><trkpt lat="40.5241917" lon="9.0496967"><ele>724.3333333333334</ele><time>2026-04-30T09:40:50.787Z</time></trkpt><trkpt lat="40.52419" lon="9.0496033"><ele>721.6666666666667</ele><time>2026-04-30T09:40:51.776Z</time></trkpt><trkpt lat="40.5242183" lon="9.0494983"><ele>719.0</ele><time>2026-04-30T09:40:52.777Z</time></trkpt><trkpt lat="40.5242383" lon="9.0493983"><ele>716.3333333333334</ele><time>2026-04-30T09:40:53.778Z</time></trkpt><trkpt lat="40.5242917" lon="9.0492917"><ele>713.6666666666666</ele><time>2026-04-30T09:40:54.779Z</time></trkpt><trkpt lat="40.5243633" lon="9.049175"><ele>711.0</ele><time>2026-04-30T09:40:55.774Z</time></trkpt><trkpt lat="40.52444" lon="9.04906"><ele>712.0</ele><time>2026-04-30T09:40:56.779Z</time></trkpt><trkpt lat="40.524525" lon="9.0489583"><ele>713.0</ele><time>2026-04-30T09:40:57.778Z</time></trkpt><trkpt lat="40.5246033" lon="9.0488783"><ele>714.0</ele><time>2026-04-30T09:40:58.779Z</time></trkpt><trkpt lat="40.5246783" lon="9.0488217"><ele>715.0</ele><time>2026-04-30T09:40:59.777Z</time></trkpt><trkpt lat="40.5247517" lon="9.0487767"><ele>716.0</ele><time>2026-04-30T09:41:00.779Z</time></trkpt><trkpt lat="40.5248067" lon="9.0487167"><ele>716.0</ele><time>2026-04-30T09:41:01.778Z</time></trkpt><trkpt lat="40.5248583" lon="9.048645"><ele>716.0</ele><time>2026-04-30T09:41:02.778Z</time></trkpt><trkpt lat="40.5249033" lon="9.048565"><ele>716.0</ele><time>2026-04-30T09:41:03.78Z</time></trkpt><trkpt lat="40.5249317" lon="9.0484633"><ele>716.0</ele><time>2026-04-30T09:41:04.776Z</time></trkpt><trkpt lat="40.52496" lon="9.0483633"><ele>716.0</ele><time>2026-04-30T09:41:05.775Z</time></trkpt><trkpt lat="40.5249767" lon="9.0482533"><ele>716.0</ele><time>2026-04-30T09:41:06.78Z</time></trkpt><trkpt lat="40.524995" lon="9.0481417"><ele>713.0</ele><time>2026-04-30T09:41:07.781Z</time></trkpt><trkpt lat="40.5250167" lon="9.048025"><ele>710.0</ele><time>2026-04-30T09:41:08.79Z</time></trkpt><trkpt lat="40.5250433" lon="9.0479167"><ele>707.0</ele><time>2026-04-30T09:41:09.777Z</time></trkpt><trkpt lat="40.5250717" lon="9.0478133"><ele>704.0</ele><time>2026-04-30T09:41:10.781Z</time></trkpt><trkpt lat="40.5251083" lon="9.0477317"><ele>701.0</ele><time>2026-04-30T09:41:11.781Z</time></trkpt><trkpt lat="40.5251567" lon="9.047665"><ele>698.0</ele><time>2026-04-30T09:41:12.78Z</time></trkpt><trkpt lat="40.5252633" lon="9.0475733"><ele>698.0</ele><time>2026-04-30T09:41:14.791Z</time></trkpt><trkpt lat="40.5253267" lon="9.0475333"><ele>698.0</ele><time>2026-04-30T09:41:15.78Z</time></trkpt><trkpt lat="40.5254167" lon="9.0475417"><ele>698.0</ele><time>2026-04-30T09:41:16.788Z</time></trkpt><trkpt lat="40.5255017" lon="9.0475683"><ele>698.0</ele><time>2026-04-30T09:41:17.782Z</time></trkpt><trkpt lat="40.5256367" lon="9.047655"><ele>698.0</ele><time>2026-04-30T09:41:18.776Z</time></trkpt><trkpt lat="40.525735" lon="9.047725"><ele>698.6666666666666</ele><time>2026-04-30T09:41:19.776Z</time></trkpt><trkpt lat="40.5258133" lon="9.0477583"><ele>699.3333333333333</ele><time>2026-04-30T09:41:20.789Z</time></trkpt><trkpt lat="40.5258767" lon="9.0477717"><ele>700.0</ele><time>2026-04-30T09:41:21.777Z</time></trkpt><trkpt lat="40.5259867" lon="9.0477583"><ele>700.6666666666666</ele><time>2026-04-30T09:41:23.799Z</time></trkpt><trkpt lat="40.526045" lon="9.0476433"><ele>701.3333333333334</ele><time>2026-04-30T09:41:25.782Z</time></trkpt><trkpt lat="40.52604" lon="9.04756"><ele>702.0</ele><time>2026-04-30T09:41:26.78Z</time></trkpt><trkpt lat="40.5260083" lon="9.0474467"><ele>699.5714285714287</ele><time>2026-04-30T09:41:27.782Z</time></trkpt><trkpt lat="40.5259867" lon="9.0473433"><ele>697.1428571428571</ele><time>2026-04-30T09:41:28.783Z</time></trkpt><trkpt lat="40.52597" lon="9.0472433"><ele>694.7142857142858</ele><time>2026-04-30T09:41:29.78Z</time></trkpt><trkpt lat="40.5259667" lon="9.0471467"><ele>692.2857142857143</ele><time>2026-04-30T09:41:30.781Z</time></trkpt><trkpt lat="40.525975" lon="9.0470633"><ele>689.8571428571429</ele><time>2026-04-30T09:41:31.781Z</time></trkpt><trkpt lat="40.5260033" lon="9.0469817"><ele>687.4285714285714</ele><time>2026-04-30T09:41:32.791Z</time></trkpt><trkpt lat="40.52605" lon="9.0469117"><ele>685.0</ele><time>2026-04-30T09:41:33.777Z</time></trkpt><trkpt lat="40.5261117" lon="9.04685"><ele>685.0</ele><time>2026-04-30T09:41:34.778Z</time></trkpt><trkpt lat="40.5261733" lon="9.04679"><ele>685.0</ele><time>2026-04-30T09:41:35.779Z</time></trkpt><trkpt lat="40.5262383" lon="9.0467233"><ele>685.0</ele><time>2026-04-30T09:41:36.783Z</time></trkpt><trkpt lat="40.5263083" lon="9.0466683"><ele>685.0</ele><time>2026-04-30T09:41:37.781Z</time></trkpt><trkpt lat="40.5263867" lon="9.0466233"><ele>685.0</ele><time>2026-04-30T09:41:38.793Z</time></trkpt><trkpt lat="40.5264783" lon="9.0465783"><ele>685.0</ele><time>2026-04-30T09:41:39.784Z</time></trkpt><trkpt lat="40.5265767" lon="9.0465333"><ele>682.0</ele><time>2026-04-30T09:41:40.778Z</time></trkpt><trkpt lat="40.5266983" lon="9.046485"><ele>679.0</ele><time>2026-04-30T09:41:41.78Z</time></trkpt><trkpt lat="40.526815" lon="9.0464333"><ele>676.0</ele><time>2026-04-30T09:41:42.782Z</time></trkpt><trkpt lat="40.5269417" lon="9.0463767"><ele>673.0</ele><time>2026-04-30T09:41:43.78Z</time></trkpt><trkpt lat="40.5270633" lon="9.04631"><ele>673.0</ele><time>2026-04-30T09:41:44.789Z</time></trkpt><trkpt lat="40.5271783" lon="9.0462483"><ele>673.0</ele><time>2026-04-30T09:41:45.777Z</time></trkpt><trkpt lat="40.52729" lon="9.04619"><ele>673.0</ele><time>2026-04-30T09:41:46.782Z</time></trkpt><trkpt lat="40.5273983" lon="9.0461383"><ele>673.0</ele><time>2026-04-30T09:41:47.781Z</time></trkpt><trkpt lat="40.5274983" lon="9.046085"><ele>673.0</ele><time>2026-04-30T09:41:48.779Z</time></trkpt><trkpt lat="40.5276017" lon="9.0460233"><ele>673.0</ele><time>2026-04-30T09:41:49.779Z</time></trkpt><trkpt lat="40.5277067" lon="9.0459583"><ele>673.0</ele><time>2026-04-30T09:41:50.794Z</time></trkpt><trkpt lat="40.527805" lon="9.0458933"><ele>673.0</ele><time>2026-04-30T09:41:51.781Z</time></trkpt><trkpt lat="40.5279067" lon="9.0458217"><ele>671.4</ele><time>2026-04-30T09:41:52.78Z</time></trkpt><trkpt lat="40.527985" lon="9.04577"><ele>669.8</ele><time>2026-04-30T09:41:53.78Z</time></trkpt><trkpt lat="40.5280717" lon="9.0456883"><ele>668.2</ele><time>2026-04-30T09:41:54.778Z</time></trkpt><trkpt lat="40.5281483" lon="9.0455967"><ele>666.6</ele><time>2026-04-30T09:41:55.779Z</time></trkpt><trkpt lat="40.528235" lon="9.0455033"><ele>665.0</ele><time>2026-04-30T09:41:56.783Z</time></trkpt><trkpt lat="40.5283067" lon="9.0454133"><ele>665.0</ele><time>2026-04-30T09:41:57.778Z</time></trkpt><trkpt lat="40.52838" lon="9.04533"><ele>665.0</ele><time>2026-04-30T09:41:58.779Z</time></trkpt><trkpt lat="40.5284467" lon="9.0452483"><ele>665.0</ele><time>2026-04-30T09:41:59.778Z</time></trkpt><trkpt lat="40.5285117" lon="9.045175"><ele>665.0</ele><time>2026-04-30T09:42:00.782Z</time></trkpt><trkpt lat="40.5285733" lon="9.0451017"><ele>665.0</ele><time>2026-04-30T09:42:01.778Z</time></trkpt><trkpt lat="40.528625" lon="9.0450267"><ele>665.0</ele><time>2026-04-30T09:42:02.781Z</time></trkpt><trkpt lat="40.52868" lon="9.0449567"><ele>664.6666666666666</ele><time>2026-04-30T09:42:03.78Z</time></trkpt><trkpt lat="40.5287317" lon="9.0448783"><ele>664.3333333333333</ele><time>2026-04-30T09:42:04.783Z</time></trkpt><trkpt lat="40.52878" lon="9.0448017"><ele>664.0</ele><time>2026-04-30T09:42:05.78Z</time></trkpt><trkpt lat="40.5288217" lon="9.0447283"><ele>663.6666666666666</ele><time>2026-04-30T09:42:06.78Z</time></trkpt><trkpt lat="40.52889" lon="9.0446117"><ele>663.3333333333334</ele><time>2026-04-30T09:42:08.794Z</time></trkpt><trkpt lat="40.5289483" lon="9.0445183"><ele>663.0</ele><time>2026-04-30T09:42:10.778Z</time></trkpt><trkpt lat="40.5290117" lon="9.0444583"><ele>663.0</ele><time>2026-04-30T09:42:12.774Z</time></trkpt><trkpt lat="40.5290967" lon="9.04446"><ele>663.0</ele><time>2026-04-30T09:42:15.777Z</time></trkpt><trkpt lat="40.5290983" lon="9.0445667"><ele>663.0</ele><time>2026-04-30T09:42:18.777Z</time></trkpt><trkpt lat="40.529065" lon="9.04465"><ele>663.0</ele><time>2026-04-30T09:42:19.779Z</time></trkpt><trkpt lat="40.5290333" lon="9.0447317"><ele>663.0</ele><time>2026-04-30T09:42:20.791Z</time></trkpt><trkpt lat="40.52898" lon="9.044855"><ele>663.0</ele><time>2026-04-30T09:42:21.776Z</time></trkpt><trkpt lat="40.5289233" lon="9.044985"><ele>663.2</ele><time>2026-04-30T09:42:22.776Z</time></trkpt><trkpt lat="40.5288783" lon="9.0451117"><ele>663.4</ele><time>2026-04-30T09:42:23.778Z</time></trkpt><trkpt lat="40.5288467" lon="9.0452433"><ele>663.6</ele><time>2026-04-30T09:42:24.778Z</time></trkpt><trkpt lat="40.5288267" lon="9.04537"><ele>663.8000000000001</ele><time>2026-04-30T09:42:25.78Z</time></trkpt><trkpt lat="40.528815" lon="9.0454967"><ele>664.0</ele><time>2026-04-30T09:42:26.836Z</time></trkpt><trkpt lat="40.5288017" lon="9.0456317"><ele>664.0</ele><time>2026-04-30T09:42:27.775Z</time></trkpt><trkpt lat="40.5288017" lon="9.0457583"><ele>664.0</ele><time>2026-04-30T09:42:28.774Z</time></trkpt><trkpt lat="40.5288467" lon="9.0458917"><ele>664.0</ele><time>2026-04-30T09:42:30.776Z</time></trkpt><trkpt lat="40.5289283" lon="9.0459333"><ele>664.0</ele><time>2026-04-30T09:42:32.775Z</time></trkpt><trkpt lat="40.52901" lon="9.04589"><ele>664.0</ele><time>2026-04-30T09:42:33.779Z</time></trkpt><trkpt lat="40.52912" lon="9.04577"><ele>664.0</ele><time>2026-04-30T09:42:34.782Z</time></trkpt><trkpt lat="40.52931" lon="9.0455883"><ele>664.0</ele><time>2026-04-30T09:42:35.777Z</time></trkpt><trkpt lat="40.5294567" lon="9.04547"><ele>664.0</ele><time>2026-04-30T09:42:36.777Z</time></trkpt><trkpt lat="40.52957" lon="9.04535"><ele>661.25</ele><time>2026-04-30T09:42:37.777Z</time></trkpt><trkpt lat="40.5296967" lon="9.0452833"><ele>658.5</ele><time>2026-04-30T09:42:38.79Z</time></trkpt><trkpt lat="40.5298083" lon="9.0452333"><ele>655.75</ele><time>2026-04-30T09:42:39.776Z</time></trkpt><trkpt lat="40.5299233" lon="9.0452"><ele>653.0</ele><time>2026-04-30T09:42:40.778Z</time></trkpt><trkpt lat="40.5300433" lon="9.0451817"><ele>653.0</ele><time>2026-04-30T09:42:41.78Z</time></trkpt><trkpt lat="40.53017" lon="9.0451533"><ele>653.0</ele><time>2026-04-30T09:42:42.78Z</time></trkpt><trkpt lat="40.5302933" lon="9.045115"><ele>653.0</ele><time>2026-04-30T09:42:43.78Z</time></trkpt><trkpt lat="40.5304083" lon="9.0450667"><ele>653.0</ele><time>2026-04-30T09:42:44.788Z</time></trkpt><trkpt lat="40.5305267" lon="9.0449917"><ele>650.5</ele><time>2026-04-30T09:42:45.781Z</time></trkpt><trkpt lat="40.530645" lon="9.0448983"><ele>648.0</ele><time>2026-04-30T09:42:46.784Z</time></trkpt><trkpt lat="40.5307667" lon="9.0447967"><ele>645.5</ele><time>2026-04-30T09:42:47.777Z</time></trkpt><trkpt lat="40.5309033" lon="9.0446883"><ele>643.0</ele><time>2026-04-30T09:42:48.781Z</time></trkpt><trkpt lat="40.53102" lon="9.0445833"><ele>643.0</ele><time>2026-04-30T09:42:49.782Z</time></trkpt><trkpt lat="40.5311383" lon="9.044475"><ele>643.0</ele><time>2026-04-30T09:42:50.788Z</time></trkpt><trkpt lat="40.5312433" lon="9.0443617"><ele>643.0</ele><time>2026-04-30T09:42:51.781Z</time></trkpt><trkpt lat="40.53134" lon="9.0442367"><ele>643.0</ele><time>2026-04-30T09:42:52.775Z</time></trkpt><trkpt lat="40.5314283" lon="9.0440967"><ele>639.6666666666667</ele><time>2026-04-30T09:42:53.783Z</time></trkpt><trkpt lat="40.5315133" lon="9.0439367"><ele>636.3333333333334</ele><time>2026-04-30T09:42:54.776Z</time></trkpt><trkpt lat="40.5315883" lon="9.0437417"><ele>633.0</ele><time>2026-04-30T09:42:55.781Z</time></trkpt><trkpt lat="40.53166" lon="9.0435433"><ele>633.0</ele><time>2026-04-30T09:42:56.838Z</time></trkpt><trkpt lat="40.5317183" lon="9.0433117"><ele>633.0</ele><time>2026-04-30T09:42:57.779Z</time></trkpt><trkpt lat="40.5317467" lon="9.0430517"><ele>633.0</ele><time>2026-04-30T09:42:58.779Z</time></trkpt><trkpt lat="40.53178" lon="9.0428067"><ele>632.3333333333334</ele><time>2026-04-30T09:42:59.781Z</time></trkpt><trkpt lat="40.531805" lon="9.0425667"><ele>631.6666666666667</ele><time>2026-04-30T09:43:00.781Z</time></trkpt><trkpt lat="40.5318317" lon="9.04234"><ele>631.0</ele><time>2026-04-30T09:43:01.783Z</time></trkpt><trkpt lat="40.53186" lon="9.0421283"><ele>630.0</ele><time>2026-04-30T09:43:02.778Z</time></trkpt><trkpt lat="40.5318867" lon="9.041925"><ele>629.0</ele><time>2026-04-30T09:43:03.778Z</time></trkpt><trkpt lat="40.531925" lon="9.04173"><ele>628.0</ele><time>2026-04-30T09:43:04.787Z</time></trkpt><trkpt lat="40.5319733" lon="9.0415433"><ele>627.5</ele><time>2026-04-30T09:43:05.776Z</time></trkpt><trkpt lat="40.5320317" lon="9.0413667"><ele>627.0</ele><time>2026-04-30T09:43:06.777Z</time></trkpt><trkpt lat="40.53211" lon="9.0412083"><ele>626.5</ele><time>2026-04-30T09:43:07.784Z</time></trkpt><trkpt lat="40.5321817" lon="9.0410517"><ele>626.0</ele><time>2026-04-30T09:43:08.792Z</time></trkpt><trkpt lat="40.5322567" lon="9.0409283"><ele>625.8</ele><time>2026-04-30T09:43:09.776Z</time></trkpt><trkpt lat="40.5323283" lon="9.0408217"><ele>625.6</ele><time>2026-04-30T09:43:10.782Z</time></trkpt><trkpt lat="40.532405" lon="9.04074"><ele>625.4</ele><time>2026-04-30T09:43:11.782Z</time></trkpt><trkpt lat="40.53249" lon="9.0406783"><ele>625.2</ele><time>2026-04-30T09:43:12.779Z</time></trkpt><trkpt lat="40.532575" lon="9.04063"><ele>625.0</ele><time>2026-04-30T09:43:13.78Z</time></trkpt><trkpt lat="40.5326583" lon="9.0405917"><ele>625.5</ele><time>2026-04-30T09:43:14.793Z</time></trkpt><trkpt lat="40.5327367" lon="9.0405583"><ele>626.0</ele><time>2026-04-30T09:43:15.781Z</time></trkpt><trkpt lat="40.5328167" lon="9.040525"><ele>626.5</ele><time>2026-04-30T09:43:16.785Z</time></trkpt><trkpt lat="40.5328933" lon="9.040495"><ele>627.0</ele><time>2026-04-30T09:43:17.782Z</time></trkpt><trkpt lat="40.5329617" lon="9.0404683"><ele>627.5</ele><time>2026-04-30T09:43:18.78Z</time></trkpt><trkpt lat="40.5330233" lon="9.0404483"><ele>628.0</ele><time>2026-04-30T09:43:19.776Z</time></trkpt><trkpt lat="40.533115" lon="9.04043"><ele>628.0</ele><time>2026-04-30T09:43:21.78Z</time></trkpt><trkpt lat="40.5330067" lon="9.0404567"><ele>628.0</ele><time>2026-04-30T09:43:29.782Z</time></trkpt><trkpt lat="40.5329117" lon="9.040505"><ele>628.0</ele><time>2026-04-30T09:43:30.779Z</time></trkpt><trkpt lat="40.5327917" lon="9.0405683"><ele>628.0</ele><time>2026-04-30T09:43:31.776Z</time></trkpt><trkpt lat="40.5326617" lon="9.0406333"><ele>628.0</ele><time>2026-04-30T09:43:32.792Z</time></trkpt><trkpt lat="40.5325367" lon="9.0406933"><ele>628.0</ele><time>2026-04-30T09:43:33.783Z</time></trkpt><trkpt lat="40.53241" lon="9.0407617"><ele>628.0</ele><time>2026-04-30T09:43:34.778Z</time></trkpt><trkpt lat="40.5323033" lon="9.040835"><ele>628.0</ele><time>2026-04-30T09:43:35.779Z</time></trkpt><trkpt lat="40.53221" lon="9.040915"><ele>627.6666666666667</ele><time>2026-04-30T09:43:36.78Z</time></trkpt><trkpt lat="40.5321317" lon="9.0409983"><ele>627.3333333333334</ele><time>2026-04-30T09:43:37.78Z</time></trkpt><trkpt lat="40.5320667" lon="9.041085"><ele>627.0</ele><time>2026-04-30T09:43:38.79Z</time></trkpt><trkpt lat="40.5320133" lon="9.0411717"><ele>626.6666666666666</ele><time>2026-04-30T09:43:39.781Z</time></trkpt><trkpt lat="40.5319667" lon="9.0412533"><ele>626.3333333333333</ele><time>2026-04-30T09:43:40.78Z</time></trkpt><trkpt lat="40.531925" lon="9.0413267"><ele>626.0</ele><time>2026-04-30T09:43:41.776Z</time></trkpt><trkpt lat="40.5318617" lon="9.0414567"><ele>626.0</ele><time>2026-04-30T09:43:43.783Z</time></trkpt><trkpt lat="40.531825" lon="9.0415333"><ele>626.0</ele><time>2026-04-30T09:43:45.777Z</time></trkpt><trkpt lat="40.5317617" lon="9.041565"><ele>626.0</ele><time>2026-04-30T09:43:48.777Z</time></trkpt><trkpt lat="40.53169" lon="9.0415633"><ele>626.0</ele><time>2026-04-30T09:43:50.79Z</time></trkpt><trkpt lat="40.5315917" lon="9.0415517"><ele>626.0</ele><time>2026-04-30T09:43:52.775Z</time></trkpt><trkpt lat="40.5315167" lon="9.041545"><ele>626.0</ele><time>2026-04-30T09:43:53.775Z</time></trkpt><trkpt lat="40.5314367" lon="9.041535"><ele>626.0</ele><time>2026-04-30T09:43:54.777Z</time></trkpt><trkpt lat="40.5313433" lon="9.0415183"><ele>626.0</ele><time>2026-04-30T09:43:55.772Z</time></trkpt><trkpt lat="40.5312517" lon="9.041495"><ele>626.0</ele><time>2026-04-30T09:43:56.778Z</time></trkpt><trkpt lat="40.5311617" lon="9.0414783"><ele>626.0</ele><time>2026-04-30T09:43:57.777Z</time></trkpt><trkpt lat="40.5310817" lon="9.041445"><ele>626.0</ele><time>2026-04-30T09:43:58.775Z</time></trkpt><trkpt lat="40.5310033" lon="9.0414083"><ele>626.0</ele><time>2026-04-30T09:43:59.777Z</time></trkpt><trkpt lat="40.5309267" lon="9.04137"><ele>625.4</ele><time>2026-04-30T09:44:00.775Z</time></trkpt><trkpt lat="40.530845" lon="9.0413317"><ele>624.8</ele><time>2026-04-30T09:44:01.773Z</time></trkpt><trkpt lat="40.5307583" lon="9.0412917"><ele>624.1999999999999</ele><time>2026-04-30T09:44:02.777Z</time></trkpt><trkpt lat="40.53067" lon="9.0412483"><ele>623.6</ele><time>2026-04-30T09:44:03.779Z</time></trkpt><trkpt lat="40.5305867" lon="9.0412"><ele>623.0</ele><time>2026-04-30T09:44:04.775Z</time></trkpt><trkpt lat="40.5304983" lon="9.0411417"><ele>623.0</ele><time>2026-04-30T09:44:05.779Z</time></trkpt><trkpt lat="40.5304167" lon="9.041085"><ele>623.0</ele><time>2026-04-30T09:44:06.781Z</time></trkpt><trkpt lat="40.5303367" lon="9.041025"><ele>623.0</ele><time>2026-04-30T09:44:07.775Z</time></trkpt><trkpt lat="40.5302533" lon="9.04096"><ele>623.0</ele><time>2026-04-30T09:44:08.791Z</time></trkpt><trkpt lat="40.530175" lon="9.0409"><ele>623.0</ele><time>2026-04-30T09:44:09.779Z</time></trkpt><trkpt lat="40.5300967" lon="9.0408417"><ele>622.5</ele><time>2026-04-30T09:44:10.778Z</time></trkpt><trkpt lat="40.5300267" lon="9.04079"><ele>622.0</ele><time>2026-04-30T09:44:11.779Z</time></trkpt><trkpt lat="40.5299517" lon="9.0407283"><ele>621.5</ele><time>2026-04-30T09:44:12.778Z</time></trkpt><trkpt lat="40.5298683" lon="9.0406783"><ele>621.0</ele><time>2026-04-30T09:44:13.776Z</time></trkpt><trkpt lat="40.5297883" lon="9.0406317"><ele>620.5</ele><time>2026-04-30T09:44:14.787Z</time></trkpt><trkpt lat="40.5297167" lon="9.0405917"><ele>620.0</ele><time>2026-04-30T09:44:15.778Z</time></trkpt><trkpt lat="40.5296517" lon="9.04056"><ele>620.0</ele><time>2026-04-30T09:44:16.778Z</time></trkpt><trkpt lat="40.52957" lon="9.0405083"><ele>620.0</ele><time>2026-04-30T09:44:18.778Z</time></trkpt><trkpt lat="40.5294517" lon="9.04034"><ele>620.0</ele><time>2026-04-30T09:46:35.776Z</time></trkpt><trkpt lat="40.5293817" lon="9.0403883"><ele>620.0</ele><time>2026-04-30T09:46:38.799Z</time></trkpt><trkpt lat="40.529335" lon="9.0403167"><ele>620.0</ele><time>2026-04-30T09:46:42.772Z</time></trkpt><trkpt lat="40.5293233" lon="9.0401867"><ele>619.3333333333333</ele><time>2026-04-30T09:46:44.797Z</time></trkpt><trkpt lat="40.5293333" lon="9.0400733"><ele>618.6666666666666</ele><time>2026-04-30T09:46:46.779Z</time></trkpt><trkpt lat="40.5293383" lon="9.0399667"><ele>618.0</ele><time>2026-04-30T09:46:48.782Z</time></trkpt><trkpt lat="40.529335" lon="9.0398567"><ele>617.3333333333334</ele><time>2026-04-30T09:46:50.802Z</time></trkpt><trkpt lat="40.529315" lon="9.0397767"><ele>616.6666666666667</ele><time>2026-04-30T09:46:52.774Z</time></trkpt><trkpt lat="40.5292467" lon="9.03976"><ele>616.0</ele><time>2026-04-30T09:46:55.778Z</time></trkpt><trkpt lat="40.5291983" lon="9.0398317"><ele>616.0</ele><time>2026-04-30T09:46:57.777Z</time></trkpt><trkpt lat="40.5291683" lon="9.0399367"><ele>616.0</ele><time>2026-04-30T09:46:59.776Z</time></trkpt><trkpt lat="40.529135" lon="9.0400483"><ele>616.0</ele><time>2026-04-30T09:47:01.775Z</time></trkpt><trkpt lat="40.529085" lon="9.0401467"><ele>616.0</ele><time>2026-04-30T09:47:03.776Z</time></trkpt><trkpt lat="40.5290283" lon="9.0402033"><ele>616.0</ele><time>2026-04-30T09:47:05.775Z</time></trkpt><trkpt lat="40.528965" lon="9.040185"><ele>616.0</ele><time>2026-04-30T09:47:08.803Z</time></trkpt><trkpt lat="40.528915" lon="9.04006"><ele>615.6</ele><time>2026-04-30T09:47:10.778Z</time></trkpt><trkpt lat="40.5288417" lon="9.0399317"><ele>615.2</ele><time>2026-04-30T09:47:12.778Z</time></trkpt><trkpt lat="40.5287683" lon="9.039835"><ele>614.8</ele><time>2026-04-30T09:47:14.801Z</time></trkpt><trkpt lat="40.5286967" lon="9.039755"><ele>614.4</ele><time>2026-04-30T09:47:16.778Z</time></trkpt><trkpt lat="40.5286133" lon="9.0396833"><ele>614.0</ele><time>2026-04-30T09:47:18.777Z</time></trkpt><trkpt lat="40.52855" lon="9.0396317"><ele>612.8</ele><time>2026-04-30T09:47:20.801Z</time></trkpt><trkpt lat="40.52848" lon="9.0394867"><ele>611.5999999999999</ele><time>2026-04-30T09:49:01.775Z</time></trkpt><trkpt lat="40.5284283" lon="9.0394133"><ele>610.4</ele><time>2026-04-30T09:53:21.775Z</time></trkpt><trkpt lat="40.5283367" lon="9.0393667"><ele>609.1999999999999</ele><time>2026-04-30T09:53:23.778Z</time></trkpt><trkpt lat="40.5282167" lon="9.0393383"><ele>608.0</ele><time>2026-04-30T09:53:25.775Z</time></trkpt><trkpt lat="40.528145" lon="9.03932"><ele>608.0</ele><time>2026-04-30T09:53:26.774Z</time></trkpt><trkpt lat="40.5280717" lon="9.0393033"><ele>608.0</ele><time>2026-04-30T09:53:27.778Z</time></trkpt><trkpt lat="40.52799" lon="9.03928"><ele>608.0</ele><time>2026-04-30T09:53:28.773Z</time></trkpt><trkpt lat="40.5279" lon="9.039255"><ele>608.0</ele><time>2026-04-30T09:53:29.778Z</time></trkpt><trkpt lat="40.52781" lon="9.039225"><ele>608.0</ele><time>2026-04-30T09:53:30.776Z</time></trkpt><trkpt lat="40.52772" lon="9.03919"><ele>608.0</ele><time>2026-04-30T09:53:31.775Z</time></trkpt><trkpt lat="40.5276317" lon="9.0391533"><ele>606.8</ele><time>2026-04-30T09:53:32.778Z</time></trkpt><trkpt lat="40.527545" lon="9.03911"><ele>605.5999999999999</ele><time>2026-04-30T09:53:33.778Z</time></trkpt><trkpt lat="40.5274567" lon="9.039055"><ele>604.4000000000001</ele><time>2026-04-30T09:53:34.776Z</time></trkpt><trkpt lat="40.5273617" lon="9.0390033"><ele>603.2</ele><time>2026-04-30T09:53:35.777Z</time></trkpt><trkpt lat="40.527255" lon="9.03892"><ele>602.0</ele><time>2026-04-30T09:53:36.777Z</time></trkpt><trkpt lat="40.527175" lon="9.038845"><ele>602.0</ele><time>2026-04-30T09:53:37.772Z</time></trkpt><trkpt lat="40.5271267" lon="9.0387433"><ele>602.0</ele><time>2026-04-30T09:53:38.807Z</time></trkpt><trkpt lat="40.5270833" lon="9.0386533"><ele>602.0</ele><time>2026-04-30T09:53:39.778Z</time></trkpt><trkpt lat="40.5270367" lon="9.0385567"><ele>602.0</ele><time>2026-04-30T09:53:40.778Z</time></trkpt><trkpt lat="40.5269867" lon="9.0384567"><ele>602.0</ele><time>2026-04-30T09:53:41.781Z</time></trkpt><trkpt lat="40.5269767" lon="9.0383333"><ele>602.0</ele><time>2026-04-30T09:53:42.774Z</time></trkpt><trkpt lat="40.5269333" lon="9.0382117"><ele>601.5</ele><time>2026-04-30T09:53:43.777Z</time></trkpt><trkpt lat="40.5268767" lon="9.0380883"><ele>601.0</ele><time>2026-04-30T09:53:44.807Z</time></trkpt><trkpt lat="40.5268233" lon="9.037965"><ele>600.5</ele><time>2026-04-30T09:53:45.775Z</time></trkpt><trkpt lat="40.52675" lon="9.0378467"><ele>600.0</ele><time>2026-04-30T09:53:46.777Z</time></trkpt><trkpt lat="40.52666" lon="9.0377333"><ele>600.0</ele><time>2026-04-30T09:53:47.775Z</time></trkpt><trkpt lat="40.52656" lon="9.0376483"><ele>600.0</ele><time>2026-04-30T09:53:48.775Z</time></trkpt><trkpt lat="40.526475" lon="9.0375767"><ele>600.0</ele><time>2026-04-30T09:53:49.78Z</time></trkpt><trkpt lat="40.5263783" lon="9.03749"><ele>600.0</ele><time>2026-04-30T09:53:50.809Z</time></trkpt><trkpt lat="40.5262917" lon="9.037405"><ele>600.0</ele><time>2026-04-30T09:53:51.777Z</time></trkpt><trkpt lat="40.5262017" lon="9.0373083"><ele>601.0</ele><time>2026-04-30T09:53:52.777Z</time></trkpt><trkpt lat="40.5261367" lon="9.037235"><ele>602.0</ele><time>2026-04-30T09:53:53.779Z</time></trkpt><trkpt lat="40.52607" lon="9.0371483"><ele>603.0</ele><time>2026-04-30T09:53:54.776Z</time></trkpt><trkpt lat="40.52601" lon="9.037055"><ele>604.0</ele><time>2026-04-30T09:53:55.776Z</time></trkpt><trkpt lat="40.5259583" lon="9.0369717"><ele>605.0</ele><time>2026-04-30T09:53:56.78Z</time></trkpt><trkpt lat="40.5259067" lon="9.0368917"><ele>606.0</ele><time>2026-04-30T09:53:57.777Z</time></trkpt><trkpt lat="40.5258517" lon="9.0368267"><ele>606.0</ele><time>2026-04-30T09:53:58.776Z</time></trkpt><trkpt lat="40.5258" lon="9.0367567"><ele>606.0</ele><time>2026-04-30T09:53:59.777Z</time></trkpt><trkpt lat="40.5257567" lon="9.0366767"><ele>606.0</ele><time>2026-04-30T09:54:00.778Z</time></trkpt><trkpt lat="40.5257283" lon="9.0365933"><ele>606.0</ele><time>2026-04-30T09:54:01.778Z</time></trkpt><trkpt lat="40.525715" lon="9.0364267"><ele>606.0</ele><time>2026-04-30T09:54:03.777Z</time></trkpt><trkpt lat="40.5257233" lon="9.03633"><ele>606.0</ele><time>2026-04-30T09:54:04.777Z</time></trkpt><trkpt lat="40.525735" lon="9.0362267"><ele>604.8</ele><time>2026-04-30T09:54:05.781Z</time></trkpt><trkpt lat="40.5257483" lon="9.0361167"><ele>603.6</ele><time>2026-04-30T09:54:06.776Z</time></trkpt><trkpt lat="40.52576" lon="9.0359967"><ele>602.4</ele><time>2026-04-30T09:54:07.777Z</time></trkpt><trkpt lat="40.5257683" lon="9.0358633"><ele>601.2</ele><time>2026-04-30T09:54:08.806Z</time></trkpt><trkpt lat="40.52577" lon="9.035725"><ele>600.0</ele><time>2026-04-30T09:54:09.793Z</time></trkpt><trkpt lat="40.525775" lon="9.0355817"><ele>599.6</ele><time>2026-04-30T09:54:10.777Z</time></trkpt><trkpt lat="40.5257767" lon="9.0354333"><ele>599.2</ele><time>2026-04-30T09:54:11.777Z</time></trkpt><trkpt lat="40.5257617" lon="9.03529"><ele>598.8</ele><time>2026-04-30T09:54:12.776Z</time></trkpt><trkpt lat="40.52574" lon="9.0351467"><ele>598.4</ele><time>2026-04-30T09:54:13.782Z</time></trkpt><trkpt lat="40.52571" lon="9.0350033"><ele>598.0</ele><time>2026-04-30T09:54:14.809Z</time></trkpt><trkpt lat="40.5256667" lon="9.034865"><ele>597.0</ele><time>2026-04-30T09:54:15.779Z</time></trkpt><trkpt lat="40.5256133" lon="9.0347283"><ele>596.0</ele><time>2026-04-30T09:54:16.773Z</time></trkpt><trkpt lat="40.52556" lon="9.03459"><ele>595.0</ele><time>2026-04-30T09:54:17.777Z</time></trkpt><trkpt lat="40.5255067" lon="9.034455"><ele>594.0</ele><time>2026-04-30T09:54:18.777Z</time></trkpt><trkpt lat="40.5254517" lon="9.0343267"><ele>594.25</ele><time>2026-04-30T09:54:19.777Z</time></trkpt><trkpt lat="40.5253933" lon="9.0342033"><ele>594.5</ele><time>2026-04-30T09:54:20.806Z</time></trkpt><trkpt lat="40.525325" lon="9.03409"><ele>594.75</ele><time>2026-04-30T09:54:21.774Z</time></trkpt><trkpt lat="40.5252517" lon="9.0339817"><ele>595.0</ele><time>2026-04-30T09:54:22.778Z</time></trkpt><trkpt lat="40.5251817" lon="9.0338533"><ele>595.0</ele><time>2026-04-30T09:54:23.776Z</time></trkpt><trkpt lat="40.5251233" lon="9.0337233"><ele>595.0</ele><time>2026-04-30T09:54:24.776Z</time></trkpt><trkpt lat="40.52508" lon="9.033585"><ele>595.0</ele><time>2026-04-30T09:54:25.772Z</time></trkpt><trkpt lat="40.52504" lon="9.0334483"><ele>595.0</ele><time>2026-04-30T09:54:26.779Z</time></trkpt><trkpt lat="40.5250033" lon="9.0333233"><ele>595.0</ele><time>2026-04-30T09:54:27.775Z</time></trkpt><trkpt lat="40.5249667" lon="9.0332117"><ele>594.4</ele><time>2026-04-30T09:54:28.777Z</time></trkpt><trkpt lat="40.5249183" lon="9.03311"><ele>593.8</ele><time>2026-04-30T09:54:29.774Z</time></trkpt><trkpt lat="40.5248617" lon="9.03301"><ele>593.2</ele><time>2026-04-30T09:54:30.78Z</time></trkpt><trkpt lat="40.524805" lon="9.0329083"><ele>592.6</ele><time>2026-04-30T09:54:31.777Z</time></trkpt><trkpt lat="40.52475" lon="9.0328033"><ele>592.0</ele><time>2026-04-30T09:54:32.778Z</time></trkpt><trkpt lat="40.5246983" lon="9.0327017"><ele>592.0</ele><time>2026-04-30T09:54:33.776Z</time></trkpt><trkpt lat="40.524645" lon="9.03261"><ele>592.0</ele><time>2026-04-30T09:54:34.779Z</time></trkpt><trkpt lat="40.5245867" lon="9.0325283"><ele>592.0</ele><time>2026-04-30T09:54:35.779Z</time></trkpt><trkpt lat="40.5245217" lon="9.0324617"><ele>592.0</ele><time>2026-04-30T09:54:36.778Z</time></trkpt><trkpt lat="40.5244483" lon="9.032405"><ele>592.0</ele><time>2026-04-30T09:54:37.777Z</time></trkpt><trkpt lat="40.52437" lon="9.0323517"><ele>592.0</ele><time>2026-04-30T09:54:38.806Z</time></trkpt><trkpt lat="40.5242917" lon="9.032305"><ele>593.0</ele><time>2026-04-30T09:54:39.777Z</time></trkpt><trkpt lat="40.5242117" lon="9.0322717"><ele>594.0</ele><time>2026-04-30T09:54:40.775Z</time></trkpt><trkpt lat="40.5241283" lon="9.0322583"><ele>595.0</ele><time>2026-04-30T09:54:41.778Z</time></trkpt><trkpt lat="40.524045" lon="9.0322533"><ele>596.0</ele><time>2026-04-30T09:54:42.777Z</time></trkpt><trkpt lat="40.5239533" lon="9.03226"><ele>597.0</ele><time>2026-04-30T09:54:43.778Z</time></trkpt><trkpt lat="40.523855" lon="9.0322833"><ele>598.0</ele><time>2026-04-30T09:54:44.805Z</time></trkpt><trkpt lat="40.5237583" lon="9.0323017"><ele>596.8</ele><time>2026-04-30T09:54:45.772Z</time></trkpt><trkpt lat="40.52366" lon="9.0323283"><ele>595.5999999999999</ele><time>2026-04-30T09:54:46.778Z</time></trkpt><trkpt lat="40.5235617" lon="9.0323617"><ele>594.4000000000001</ele><time>2026-04-30T09:54:47.782Z</time></trkpt><trkpt lat="40.5234617" lon="9.0324"><ele>593.2</ele><time>2026-04-30T09:54:48.778Z</time></trkpt><trkpt lat="40.523345" lon="9.032465"><ele>592.0</ele><time>2026-04-30T09:54:49.778Z</time></trkpt><trkpt lat="40.523225" lon="9.0325233"><ele>592.0</ele><time>2026-04-30T09:54:50.804Z</time></trkpt><trkpt lat="40.523115" lon="9.0325533"><ele>592.0</ele><time>2026-04-30T09:54:51.774Z</time></trkpt><trkpt lat="40.5230067" lon="9.032555"><ele>592.0</ele><time>2026-04-30T09:54:52.777Z</time></trkpt><trkpt lat="40.5229183" lon="9.032545"><ele>592.0</ele><time>2026-04-30T09:54:53.777Z</time></trkpt><trkpt lat="40.5228467" lon="9.0325383"><ele>592.0</ele><time>2026-04-30T09:54:54.775Z</time></trkpt><trkpt lat="40.52277" lon="9.0324883"><ele>592.4285714285714</ele><time>2026-04-30T09:54:55.781Z</time></trkpt><trkpt lat="40.5227017" lon="9.0324383"><ele>592.8571428571429</ele><time>2026-04-30T09:54:56.845Z</time></trkpt><trkpt lat="40.5226483" lon="9.0323633"><ele>593.2857142857142</ele><time>2026-04-30T09:54:57.773Z</time></trkpt><trkpt lat="40.5226133" lon="9.0322917"><ele>593.7142857142858</ele><time>2026-04-30T09:54:58.777Z</time></trkpt><trkpt lat="40.5225817" lon="9.0322133"><ele>594.1428571428571</ele><time>2026-04-30T09:54:59.775Z</time></trkpt><trkpt lat="40.522585" lon="9.0321083"><ele>594.5714285714286</ele><time>2026-04-30T09:55:00.775Z</time></trkpt><trkpt lat="40.5225833" lon="9.032015"><ele>595.0</ele><time>2026-04-30T09:55:01.777Z</time></trkpt><trkpt lat="40.5226" lon="9.0318567"><ele>595.0</ele><time>2026-04-30T09:55:03.776Z</time></trkpt><trkpt lat="40.5226167" lon="9.0317667"><ele>595.0</ele><time>2026-04-30T09:55:04.775Z</time></trkpt><trkpt lat="40.52268" lon="9.0316567"><ele>595.0</ele><time>2026-04-30T09:55:05.774Z</time></trkpt><trkpt lat="40.52273" lon="9.0315517"><ele>595.0</ele><time>2026-04-30T09:55:06.778Z</time></trkpt><trkpt lat="40.5227533" lon="9.03144"><ele>595.0</ele><time>2026-04-30T09:55:07.776Z</time></trkpt><trkpt lat="40.522795" lon="9.0313317"><ele>592.8</ele><time>2026-04-30T09:55:08.802Z</time></trkpt><trkpt lat="40.5228217" lon="9.03122"><ele>590.6</ele><time>2026-04-30T09:55:09.777Z</time></trkpt><trkpt lat="40.5228333" lon="9.0311233"><ele>588.4</ele><time>2026-04-30T09:55:10.775Z</time></trkpt><trkpt lat="40.5228383" lon="9.0309933"><ele>586.2</ele><time>2026-04-30T09:55:12.775Z</time></trkpt><trkpt lat="40.52281" lon="9.0308283"><ele>584.0</ele><time>2026-04-30T09:55:28.773Z</time></trkpt><trkpt lat="40.52275" lon="9.0307683"><ele>584.0</ele><time>2026-04-30T09:55:31.781Z</time></trkpt><trkpt lat="40.5226867" lon="9.030755"><ele>584.0</ele><time>2026-04-30T09:55:33.777Z</time></trkpt><trkpt lat="40.522575" lon="9.0307517"><ele>584.0</ele><time>2026-04-30T09:56:01.778Z</time></trkpt><trkpt lat="40.5224567" lon="9.0307533"><ele>584.0</ele><time>2026-04-30T09:56:03.774Z</time></trkpt><trkpt lat="40.5223817" lon="9.0307467"><ele>584.0</ele><time>2026-04-30T09:56:04.774Z</time></trkpt><trkpt lat="40.522305" lon="9.0307433"><ele>584.0</ele><time>2026-04-30T09:56:05.773Z</time></trkpt><trkpt lat="40.5222283" lon="9.0307467"><ele>584.0</ele><time>2026-04-30T09:56:06.777Z</time></trkpt><trkpt lat="40.522155" lon="9.030745"><ele>584.0</ele><time>2026-04-30T09:56:07.778Z</time></trkpt><trkpt lat="40.52208" lon="9.0307367"><ele>584.0</ele><time>2026-04-30T09:56:08.803Z</time></trkpt><trkpt lat="40.5220017" lon="9.03072"><ele>584.0</ele><time>2026-04-30T09:56:09.771Z</time></trkpt><trkpt lat="40.52193" lon="9.0307"><ele>584.0</ele><time>2026-04-30T09:56:10.777Z</time></trkpt><trkpt lat="40.5218517" lon="9.0306733"><ele>584.0</ele><time>2026-04-30T09:56:11.778Z</time></trkpt><trkpt lat="40.5217717" lon="9.0306483"><ele>583.0</ele><time>2026-04-30T09:56:12.778Z</time></trkpt><trkpt lat="40.52169" lon="9.03062"><ele>582.0</ele><time>2026-04-30T09:56:13.78Z</time></trkpt><trkpt lat="40.5216117" lon="9.0305833"><ele>581.0</ele><time>2026-04-30T09:56:14.804Z</time></trkpt><trkpt lat="40.5215367" lon="9.0305383"><ele>580.0</ele><time>2026-04-30T09:56:15.779Z</time></trkpt><trkpt lat="40.521465" lon="9.0304767"><ele>579.0</ele><time>2026-04-30T09:56:16.777Z</time></trkpt><trkpt lat="40.5213967" lon="9.0303983"><ele>578.0</ele><time>2026-04-30T09:56:17.773Z</time></trkpt><trkpt lat="40.5213283" lon="9.0303217"><ele>578.0</ele><time>2026-04-30T09:56:18.775Z</time></trkpt><trkpt lat="40.5212617" lon="9.0302417"><ele>578.0</ele><time>2026-04-30T09:56:19.774Z</time></trkpt><trkpt lat="40.5211883" lon="9.0301483"><ele>578.0</ele><time>2026-04-30T09:56:20.808Z</time></trkpt><trkpt lat="40.52112" lon="9.03004"><ele>578.0</ele><time>2026-04-30T09:56:21.777Z</time></trkpt><trkpt lat="40.5210467" lon="9.02992"><ele>578.0</ele><time>2026-04-30T09:56:22.774Z</time></trkpt><trkpt lat="40.520975" lon="9.0297983"><ele>578.5</ele><time>2026-04-30T09:56:23.779Z</time></trkpt><trkpt lat="40.5208917" lon="9.029675"><ele>579.0</ele><time>2026-04-30T09:56:24.772Z</time></trkpt><trkpt lat="40.5208267" lon="9.0295333"><ele>579.5</ele><time>2026-04-30T09:56:25.778Z</time></trkpt><trkpt lat="40.52077" lon="9.029405"><ele>580.0</ele><time>2026-04-30T09:56:26.774Z</time></trkpt><trkpt lat="40.5207283" lon="9.0292817"><ele>580.0</ele><time>2026-04-30T09:56:27.778Z</time></trkpt><trkpt lat="40.5206933" lon="9.02917"><ele>580.0</ele><time>2026-04-30T09:56:28.775Z</time></trkpt><trkpt lat="40.52067" lon="9.0290367"><ele>580.0</ele><time>2026-04-30T09:56:29.771Z</time></trkpt><trkpt lat="40.5206567" lon="9.0289117"><ele>580.0</ele><time>2026-04-30T09:56:30.778Z</time></trkpt><trkpt lat="40.52064" lon="9.0287517"><ele>580.0</ele><time>2026-04-30T09:56:31.774Z</time></trkpt><trkpt lat="40.5206317" lon="9.0286083"><ele>579.4</ele><time>2026-04-30T09:56:32.774Z</time></trkpt><trkpt lat="40.5206733" lon="9.0284667"><ele>578.8</ele><time>2026-04-30T09:56:33.772Z</time></trkpt><trkpt lat="40.5207017" lon="9.02832"><ele>578.2</ele><time>2026-04-30T09:56:34.774Z</time></trkpt><trkpt lat="40.5207333" lon="9.0282117"><ele>577.6</ele><time>2026-04-30T09:56:35.777Z</time></trkpt><trkpt lat="40.5207483" lon="9.0281067"><ele>577.0</ele><time>2026-04-30T09:56:36.775Z</time></trkpt><trkpt lat="40.5207567" lon="9.0280083"><ele>576.6666666666667</ele><time>2026-04-30T09:56:37.774Z</time></trkpt><trkpt lat="40.5207567" lon="9.02792"><ele>576.3333333333334</ele><time>2026-04-30T09:56:38.805Z</time></trkpt><trkpt lat="40.5207167" lon="9.0278317"><ele>576.0</ele><time>2026-04-30T09:56:39.776Z</time></trkpt><trkpt lat="40.52068" lon="9.0277533"><ele>575.6666666666666</ele><time>2026-04-30T09:56:40.774Z</time></trkpt><trkpt lat="40.5205817" lon="9.0276533"><ele>575.3333333333333</ele><time>2026-04-30T09:56:42.776Z</time></trkpt><trkpt lat="40.5205067" lon="9.027635"><ele>575.0</ele><time>2026-04-30T09:56:43.778Z</time></trkpt><trkpt lat="40.5204133" lon="9.0276333"><ele>574.8</ele><time>2026-04-30T09:56:44.808Z</time></trkpt><trkpt lat="40.5203133" lon="9.027635"><ele>574.6</ele><time>2026-04-30T09:56:45.773Z</time></trkpt><trkpt lat="40.5202117" lon="9.0276317"><ele>574.4</ele><time>2026-04-30T09:56:46.776Z</time></trkpt><trkpt lat="40.5200983" lon="9.0276033"><ele>574.2</ele><time>2026-04-30T09:56:47.777Z</time></trkpt><trkpt lat="40.5200017" lon="9.0275733"><ele>574.0</ele><time>2026-04-30T09:56:48.775Z</time></trkpt><trkpt lat="40.5199017" lon="9.0275233"><ele>574.4</ele><time>2026-04-30T09:56:49.775Z</time></trkpt><trkpt lat="40.519805" lon="9.0274733"><ele>574.8</ele><time>2026-04-30T09:56:50.804Z</time></trkpt><trkpt lat="40.519705" lon="9.0274117"><ele>575.2</ele><time>2026-04-30T09:56:51.777Z</time></trkpt><trkpt lat="40.5196233" lon="9.027335"><ele>575.6</ele><time>2026-04-30T09:56:52.773Z</time></trkpt><trkpt lat="40.5195417" lon="9.02726"><ele>576.0</ele><time>2026-04-30T09:56:53.774Z</time></trkpt><trkpt lat="40.5194733" lon="9.0271917"><ele>576.0</ele><time>2026-04-30T09:56:54.773Z</time></trkpt><trkpt lat="40.519405" lon="9.0271333"><ele>576.0</ele><time>2026-04-30T09:56:55.779Z</time></trkpt><trkpt lat="40.519335" lon="9.0270817"><ele>576.0</ele><time>2026-04-30T09:56:56.842Z</time></trkpt><trkpt lat="40.51926" lon="9.027045"><ele>576.0</ele><time>2026-04-30T09:56:57.778Z</time></trkpt><trkpt lat="40.5191933" lon="9.0270233"><ele>576.0</ele><time>2026-04-30T09:56:58.774Z</time></trkpt><trkpt lat="40.5191267" lon="9.0270133"><ele>576.0</ele><time>2026-04-30T09:56:59.779Z</time></trkpt><trkpt lat="40.5190467" lon="9.0270133"><ele>576.0</ele><time>2026-04-30T09:57:00.777Z</time></trkpt><trkpt lat="40.5189683" lon="9.0270117"><ele>576.0</ele><time>2026-04-30T09:57:01.778Z</time></trkpt><trkpt lat="40.5188967" lon="9.0270183"><ele>576.0</ele><time>2026-04-30T09:57:02.82Z</time></trkpt><trkpt lat="40.5188567" lon="9.0270833"><ele>576.0</ele><time>2026-04-30T09:57:03.771Z</time></trkpt><trkpt lat="40.518765" lon="9.02715"><ele>576.0</ele><time>2026-04-30T09:57:05.779Z</time></trkpt><trkpt lat="40.5186767" lon="9.0272533"><ele>576.0</ele><time>2026-04-30T09:57:07.777Z</time></trkpt><trkpt lat="40.5186283" lon="9.0273067"><ele>576.0</ele><time>2026-04-30T09:57:08.803Z</time></trkpt><trkpt lat="40.5185717" lon="9.0273583"><ele>576.0</ele><time>2026-04-30T09:57:09.775Z</time></trkpt><trkpt lat="40.5185067" lon="9.027405"><ele>576.0</ele><time>2026-04-30T09:57:10.774Z</time></trkpt><trkpt lat="40.5184367" lon="9.0274467"><ele>576.0</ele><time>2026-04-30T09:57:11.774Z</time></trkpt><trkpt lat="40.5183617" lon="9.0274767"><ele>576.0</ele><time>2026-04-30T09:57:12.775Z</time></trkpt><trkpt lat="40.5182867" lon="9.0274967"><ele>576.0</ele><time>2026-04-30T09:57:13.775Z</time></trkpt><trkpt lat="40.51821" lon="9.0274967"><ele>576.0</ele><time>2026-04-30T09:57:14.805Z</time></trkpt><trkpt lat="40.51814" lon="9.027485"><ele>576.0</ele><time>2026-04-30T09:57:15.773Z</time></trkpt><trkpt lat="40.5180733" lon="9.0274567"><ele>576.0</ele><time>2026-04-30T09:57:16.773Z</time></trkpt><trkpt lat="40.518005" lon="9.02741"><ele>576.0</ele><time>2026-04-30T09:57:17.773Z</time></trkpt><trkpt lat="40.517945" lon="9.0273367"><ele>576.0</ele><time>2026-04-30T09:57:18.772Z</time></trkpt><trkpt lat="40.517895" lon="9.0272517"><ele>576.0</ele><time>2026-04-30T09:57:19.776Z</time></trkpt><trkpt lat="40.5178467" lon="9.0271717"><ele>577.5</ele><time>2026-04-30T09:57:20.805Z</time></trkpt><trkpt lat="40.5177833" lon="9.0271117"><ele>579.0</ele><time>2026-04-30T09:57:21.771Z</time></trkpt><trkpt lat="40.51772" lon="9.027055"><ele>580.5</ele><time>2026-04-30T09:57:22.774Z</time></trkpt><trkpt lat="40.517655" lon="9.0269933"><ele>582.0</ele><time>2026-04-30T09:57:23.774Z</time></trkpt><trkpt lat="40.51759" lon="9.0269183"><ele>583.5</ele><time>2026-04-30T09:57:24.776Z</time></trkpt><trkpt lat="40.5175267" lon="9.02684"><ele>585.0</ele><time>2026-04-30T09:57:25.775Z</time></trkpt><trkpt lat="40.5174667" lon="9.0267567"><ele>585.0</ele><time>2026-04-30T09:57:26.842Z</time></trkpt><trkpt lat="40.5174067" lon="9.0267"><ele>585.0</ele><time>2026-04-30T09:57:27.776Z</time></trkpt><trkpt lat="40.5173467" lon="9.0266483"><ele>585.0</ele><time>2026-04-30T09:57:28.777Z</time></trkpt><trkpt lat="40.5172767" lon="9.0266"><ele>585.0</ele><time>2026-04-30T09:57:29.774Z</time></trkpt><trkpt lat="40.517205" lon="9.0265533"><ele>585.0</ele><time>2026-04-30T09:57:30.773Z</time></trkpt><trkpt lat="40.5171333" lon="9.0265"><ele>585.0</ele><time>2026-04-30T09:57:31.779Z</time></trkpt><trkpt lat="40.5170667" lon="9.0264333"><ele>583.6666666666666</ele><time>2026-04-30T09:57:32.817Z</time></trkpt><trkpt lat="40.517005" lon="9.0263533"><ele>582.3333333333334</ele><time>2026-04-30T09:57:33.774Z</time></trkpt><trkpt lat="40.5169433" lon="9.0262667"><ele>581.0</ele><time>2026-04-30T09:57:34.774Z</time></trkpt><trkpt lat="40.5168817" lon="9.0261817"><ele>579.6666666666667</ele><time>2026-04-30T09:57:35.777Z</time></trkpt><trkpt lat="40.5168117" lon="9.0261067"><ele>578.3333333333334</ele><time>2026-04-30T09:57:36.775Z</time></trkpt><trkpt lat="40.516735" lon="9.0260417"><ele>577.0</ele><time>2026-04-30T09:57:37.774Z</time></trkpt><trkpt lat="40.5166567" lon="9.0259783"><ele>577.0</ele><time>2026-04-30T09:57:38.804Z</time></trkpt><trkpt lat="40.5165733" lon="9.02592"><ele>577.0</ele><time>2026-04-30T09:57:39.777Z</time></trkpt><trkpt lat="40.51649" lon="9.0258583"><ele>577.0</ele><time>2026-04-30T09:57:40.775Z</time></trkpt><trkpt lat="40.5164017" lon="9.025795"><ele>577.0</ele><time>2026-04-30T09:57:41.773Z</time></trkpt><trkpt lat="40.5163117" lon="9.02572"><ele>577.0</ele><time>2026-04-30T09:57:42.776Z</time></trkpt><trkpt lat="40.516225" lon="9.025645"><ele>577.0</ele><time>2026-04-30T09:57:43.779Z</time></trkpt><trkpt lat="40.5161383" lon="9.025575"><ele>577.0</ele><time>2026-04-30T09:57:44.805Z</time></trkpt><trkpt lat="40.5160567" lon="9.0255017"><ele>577.0</ele><time>2026-04-30T09:57:45.775Z</time></trkpt><trkpt lat="40.5159817" lon="9.0253917"><ele>577.0</ele><time>2026-04-30T09:57:46.773Z</time></trkpt><trkpt lat="40.5159167" lon="9.0252833"><ele>577.0</ele><time>2026-04-30T09:57:47.774Z</time></trkpt><trkpt lat="40.5158617" lon="9.0251733"><ele>577.0</ele><time>2026-04-30T09:57:48.775Z</time></trkpt><trkpt lat="40.5158083" lon="9.0250683"><ele>577.0</ele><time>2026-04-30T09:57:49.774Z</time></trkpt><trkpt lat="40.51576" lon="9.0249483"><ele>577.0</ele><time>2026-04-30T09:57:50.804Z</time></trkpt><trkpt lat="40.5157233" lon="9.02484"><ele>577.0</ele><time>2026-04-30T09:57:51.776Z</time></trkpt><trkpt lat="40.5157" lon="9.0247333"><ele>577.0</ele><time>2026-04-30T09:57:52.775Z</time></trkpt><trkpt lat="40.5156783" lon="9.0246467"><ele>577.0</ele><time>2026-04-30T09:57:53.776Z</time></trkpt><trkpt lat="40.5156483" lon="9.0245733"><ele>573.8000000000001</ele><time>2026-04-30T09:57:54.777Z</time></trkpt><trkpt lat="40.5156217" lon="9.0244967"><ele>570.6</ele><time>2026-04-30T09:57:55.776Z</time></trkpt><trkpt lat="40.5155517" lon="9.02437"><ele>567.4000000000001</ele><time>2026-04-30T09:57:57.774Z</time></trkpt><trkpt lat="40.5154533" lon="9.0242683"><ele>564.2</ele><time>2026-04-30T09:57:59.777Z</time></trkpt><trkpt lat="40.5153883" lon="9.024235"><ele>561.0</ele><time>2026-04-30T09:58:00.774Z</time></trkpt><trkpt lat="40.5153183" lon="9.0242017"><ele>561.0</ele><time>2026-04-30T09:58:01.774Z</time></trkpt><trkpt lat="40.5152533" lon="9.0241517"><ele>561.0</ele><time>2026-04-30T09:58:02.77Z</time></trkpt><trkpt lat="40.515185" lon="9.02411"><ele>561.0</ele><time>2026-04-30T09:58:03.774Z</time></trkpt><trkpt lat="40.5151117" lon="9.0240717"><ele>561.0</ele><time>2026-04-30T09:58:04.773Z</time></trkpt><trkpt lat="40.515035" lon="9.0240417"><ele>561.0</ele><time>2026-04-30T09:58:05.775Z</time></trkpt><trkpt lat="40.5149533" lon="9.024015"><ele>561.0</ele><time>2026-04-30T09:58:06.776Z</time></trkpt><trkpt lat="40.514875" lon="9.023985"><ele>557.1666666666666</ele><time>2026-04-30T09:58:07.773Z</time></trkpt><trkpt lat="40.5148" lon="9.023955"><ele>553.3333333333334</ele><time>2026-04-30T09:58:08.805Z</time></trkpt><trkpt lat="40.51473" lon="9.0239333"><ele>549.5</ele><time>2026-04-30T09:58:09.776Z</time></trkpt><trkpt lat="40.51465" lon="9.0239233"><ele>545.6666666666667</ele><time>2026-04-30T09:58:10.776Z</time></trkpt><trkpt lat="40.5145767" lon="9.0239167"><ele>541.8333333333334</ele><time>2026-04-30T09:58:11.776Z</time></trkpt><trkpt lat="40.514495" lon="9.0239183"><ele>538.0</ele><time>2026-04-30T09:58:12.773Z</time></trkpt><trkpt lat="40.514415" lon="9.0239233"><ele>536.6666666666667</ele><time>2026-04-30T09:58:13.779Z</time></trkpt><trkpt lat="40.5143283" lon="9.0239383"><ele>535.3333333333334</ele><time>2026-04-30T09:58:14.805Z</time></trkpt><trkpt lat="40.5142433" lon="9.0239517"><ele>534.0</ele><time>2026-04-30T09:58:15.775Z</time></trkpt><trkpt lat="40.5141583" lon="9.0239583"><ele>532.6666666666666</ele><time>2026-04-30T09:58:16.775Z</time></trkpt><trkpt lat="40.514085" lon="9.0239483"><ele>531.3333333333333</ele><time>2026-04-30T09:58:17.776Z</time></trkpt><trkpt lat="40.514015" lon="9.02393"><ele>530.0</ele><time>2026-04-30T09:58:18.776Z</time></trkpt><trkpt lat="40.5139483" lon="9.0239117"><ele>530.0</ele><time>2026-04-30T09:58:19.775Z</time></trkpt><trkpt lat="40.5138317" lon="9.023895"><ele>530.0</ele><time>2026-04-30T09:58:21.773Z</time></trkpt><trkpt lat="40.5137433" lon="9.0239517"><ele>530.0</ele><time>2026-04-30T09:58:23.775Z</time></trkpt><trkpt lat="40.5136433" lon="9.0240033"><ele>530.0</ele><time>2026-04-30T09:58:25.776Z</time></trkpt><trkpt lat="40.51354" lon="9.0240083"><ele>530.0</ele><time>2026-04-30T09:58:27.776Z</time></trkpt><trkpt lat="40.5134533" lon="9.0239717"><ele>529.8</ele><time>2026-04-30T09:58:29.777Z</time></trkpt><trkpt lat="40.513395" lon="9.0238833"><ele>529.6</ele><time>2026-04-30T09:58:31.776Z</time></trkpt><trkpt lat="40.5133617" lon="9.0237567"><ele>529.4</ele><time>2026-04-30T09:58:33.772Z</time></trkpt><trkpt lat="40.5133483" lon="9.0236083"><ele>529.2</ele><time>2026-04-30T09:58:35.776Z</time></trkpt><trkpt lat="40.513335" lon="9.0234467"><ele>529.0</ele><time>2026-04-30T09:58:37.774Z</time></trkpt><trkpt lat="40.5133367" lon="9.0232917"><ele>527.8</ele><time>2026-04-30T09:58:39.779Z</time></trkpt><trkpt lat="40.5133333" lon="9.0231383"><ele>526.5999999999999</ele><time>2026-04-30T09:58:41.776Z</time></trkpt><trkpt lat="40.51328" lon="9.0230183"><ele>525.4</ele><time>2026-04-30T09:58:43.774Z</time></trkpt><trkpt lat="40.51318" lon="9.0229267"><ele>524.1999999999999</ele><time>2026-04-30T09:58:45.774Z</time></trkpt><trkpt lat="40.5131217" lon="9.0228783"><ele>523.0</ele><time>2026-04-30T09:58:46.773Z</time></trkpt><trkpt lat="40.51306" lon="9.022825"><ele>523.0</ele><time>2026-04-30T09:58:47.777Z</time></trkpt><trkpt lat="40.5129933" lon="9.0227717"><ele>523.0</ele><time>2026-04-30T09:58:48.774Z</time></trkpt><trkpt lat="40.51292" lon="9.02271"><ele>523.0</ele><time>2026-04-30T09:58:49.776Z</time></trkpt><trkpt lat="40.5128517" lon="9.022655"><ele>523.0</ele><time>2026-04-30T09:58:50.802Z</time></trkpt><trkpt lat="40.51278" lon="9.0225967"><ele>523.0</ele><time>2026-04-30T09:58:51.77Z</time></trkpt><trkpt lat="40.512715" lon="9.0225433"><ele>523.0</ele><time>2026-04-30T09:58:52.776Z</time></trkpt><trkpt lat="40.51265" lon="9.0224917"><ele>522.3333333333334</ele><time>2026-04-30T09:58:53.777Z</time></trkpt><trkpt lat="40.5125883" lon="9.02244"><ele>521.6666666666667</ele><time>2026-04-30T09:58:54.775Z</time></trkpt><trkpt lat="40.5125267" lon="9.022385"><ele>521.0</ele><time>2026-04-30T09:58:55.775Z</time></trkpt><trkpt lat="40.5124583" lon="9.0223283"><ele>520.3333333333334</ele><time>2026-04-30T09:58:56.841Z</time></trkpt><trkpt lat="40.5123933" lon="9.022275"><ele>519.6666666666666</ele><time>2026-04-30T09:58:57.776Z</time></trkpt><trkpt lat="40.5123217" lon="9.0222317"><ele>519.0</ele><time>2026-04-30T09:58:58.773Z</time></trkpt><trkpt lat="40.5122467" lon="9.022195"><ele>519.0</ele><time>2026-04-30T09:58:59.774Z</time></trkpt><trkpt lat="40.5121733" lon="9.0221517"><ele>519.0</ele><time>2026-04-30T09:59:00.778Z</time></trkpt><trkpt lat="40.5121033" lon="9.0221083"><ele>519.0</ele><time>2026-04-30T09:59:01.774Z</time></trkpt><trkpt lat="40.5120317" lon="9.0220617"><ele>519.0</ele><time>2026-04-30T09:59:02.814Z</time></trkpt><trkpt lat="40.5119567" lon="9.0220183"><ele>519.0</ele><time>2026-04-30T09:59:03.773Z</time></trkpt><trkpt lat="40.51188" lon="9.02197"><ele>519.0</ele><time>2026-04-30T09:59:04.773Z</time></trkpt><trkpt lat="40.5117967" lon="9.021925"><ele>518.25</ele><time>2026-04-30T09:59:05.774Z</time></trkpt><trkpt lat="40.5117083" lon="9.0218867"><ele>517.5</ele><time>2026-04-30T09:59:06.776Z</time></trkpt><trkpt lat="40.5116067" lon="9.02185"><ele>516.75</ele><time>2026-04-30T09:59:07.773Z</time></trkpt><trkpt lat="40.51149" lon="9.0218183"><ele>516.0</ele><time>2026-04-30T09:59:08.803Z</time></trkpt><trkpt lat="40.5113583" lon="9.0217883"><ele>516.25</ele><time>2026-04-30T09:59:09.772Z</time></trkpt><trkpt lat="40.51124" lon="9.0217583"><ele>516.5</ele><time>2026-04-30T09:59:10.775Z</time></trkpt><trkpt lat="40.51111" lon="9.021715"><ele>516.75</ele><time>2026-04-30T09:59:11.772Z</time></trkpt><trkpt lat="40.5109967" lon="9.0216867"><ele>517.0</ele><time>2026-04-30T09:59:12.776Z</time></trkpt><trkpt lat="40.51087" lon="9.021665"><ele>516.5</ele><time>2026-04-30T09:59:13.772Z</time></trkpt><trkpt lat="40.5107483" lon="9.0216367"><ele>516.0</ele><time>2026-04-30T09:59:14.805Z</time></trkpt><trkpt lat="40.5106133" lon="9.0216267"><ele>515.5</ele><time>2026-04-30T09:59:15.774Z</time></trkpt><trkpt lat="40.5105083" lon="9.0215817"><ele>515.0</ele><time>2026-04-30T09:59:16.777Z</time></trkpt><trkpt lat="40.510415" lon="9.021525"><ele>514.6</ele><time>2026-04-30T09:59:17.771Z</time></trkpt><trkpt lat="40.51034" lon="9.0214483"><ele>514.2</ele><time>2026-04-30T09:59:18.775Z</time></trkpt><trkpt lat="40.510245" lon="9.0213883"><ele>513.8</ele><time>2026-04-30T09:59:19.774Z</time></trkpt><trkpt lat="40.5101517" lon="9.0213383"><ele>513.4</ele><time>2026-04-30T09:59:20.803Z</time></trkpt><trkpt lat="40.5100467" lon="9.0212883"><ele>513.0</ele><time>2026-04-30T09:59:21.773Z</time></trkpt><trkpt lat="40.5099317" lon="9.0212467"><ele>513.0</ele><time>2026-04-30T09:59:22.774Z</time></trkpt><trkpt lat="40.5098183" lon="9.0212017"><ele>513.0</ele><time>2026-04-30T09:59:23.775Z</time></trkpt><trkpt lat="40.5097083" lon="9.021155"><ele>513.0</ele><time>2026-04-30T09:59:24.775Z</time></trkpt><trkpt lat="40.5096" lon="9.0211083"><ele>513.0</ele><time>2026-04-30T09:59:25.772Z</time></trkpt><trkpt lat="40.5094967" lon="9.021065"><ele>514.1999999999999</ele><time>2026-04-30T09:59:26.839Z</time></trkpt><trkpt lat="40.509395" lon="9.0210217"><ele>515.4</ele><time>2026-04-30T09:59:27.776Z</time></trkpt><trkpt lat="40.5093017" lon="9.02098"><ele>516.5999999999999</ele><time>2026-04-30T09:59:28.774Z</time></trkpt><trkpt lat="40.5092167" lon="9.0209417"><ele>517.8</ele><time>2026-04-30T09:59:29.771Z</time></trkpt><trkpt lat="40.5091317" lon="9.0208917"><ele>519.0</ele><time>2026-04-30T09:59:30.775Z</time></trkpt><trkpt lat="40.5090467" lon="9.0208567"><ele>519.0</ele><time>2026-04-30T09:59:31.775Z</time></trkpt><trkpt lat="40.5089583" lon="9.02082"><ele>519.0</ele><time>2026-04-30T09:59:32.818Z</time></trkpt><trkpt lat="40.50888" lon="9.02077"><ele>519.0</ele><time>2026-04-30T09:59:33.771Z</time></trkpt><trkpt lat="40.5088083" lon="9.0207067"><ele>519.0</ele><time>2026-04-30T09:59:34.776Z</time></trkpt><trkpt lat="40.508745" lon="9.0206433"><ele>519.0</ele><time>2026-04-30T09:59:35.771Z</time></trkpt><trkpt lat="40.5086833" lon="9.020575"><ele>519.0</ele><time>2026-04-30T09:59:36.772Z</time></trkpt><trkpt lat="40.5086317" lon="9.0204983"><ele>518.0</ele><time>2026-04-30T09:59:37.776Z</time></trkpt><trkpt lat="40.508565" lon="9.0203683"><ele>517.0</ele><time>2026-04-30T09:59:39.777Z</time></trkpt><trkpt lat="40.50852" lon="9.0202367"><ele>516.0</ele><time>2026-04-30T09:59:41.774Z</time></trkpt><trkpt lat="40.50847" lon="9.020105"><ele>515.0</ele><time>2026-04-30T09:59:43.773Z</time></trkpt><trkpt lat="40.5084017" lon="9.0199583"><ele>513.4</ele><time>2026-04-30T09:59:45.772Z</time></trkpt><trkpt lat="40.5083583" lon="9.01988"><ele>511.8</ele><time>2026-04-30T09:59:46.775Z</time></trkpt><trkpt lat="40.5083067" lon="9.019795"><ele>510.20000000000005</ele><time>2026-04-30T09:59:47.771Z</time></trkpt><trkpt lat="40.50825" lon="9.0197017"><ele>508.6</ele><time>2026-04-30T09:59:48.778Z</time></trkpt><trkpt lat="40.5081833" lon="9.019605"><ele>507.0</ele><time>2026-04-30T09:59:49.778Z</time></trkpt><trkpt lat="40.508115" lon="9.0195033"><ele>507.0</ele><time>2026-04-30T09:59:50.776Z</time></trkpt><trkpt lat="40.5080567" lon="9.019405"><ele>507.00000000000006</ele><time>2026-04-30T09:59:51.776Z</time></trkpt><trkpt lat="40.5079633" lon="9.019285"><ele>507.00000000000006</ele><time>2026-04-30T09:59:52.777Z</time></trkpt><trkpt lat="40.5078833" lon="9.0191883"><ele>507.0</ele><time>2026-04-30T09:59:53.771Z</time></trkpt><trkpt lat="40.5078067" lon="9.0190983"><ele>507.0</ele><time>2026-04-30T09:59:54.775Z</time></trkpt><trkpt lat="40.50773" lon="9.0190167"><ele>506.1666666666667</ele><time>2026-04-30T09:59:55.773Z</time></trkpt><trkpt lat="40.50766" lon="9.018935"><ele>505.33333333333337</ele><time>2026-04-30T09:59:56.839Z</time></trkpt><trkpt lat="40.5075817" lon="9.0188567"><ele>504.5</ele><time>2026-04-30T09:59:57.778Z</time></trkpt><trkpt lat="40.50751" lon="9.0188"><ele>503.6666666666667</ele><time>2026-04-30T09:59:58.774Z</time></trkpt><trkpt lat="40.5074367" lon="9.0187567"><ele>502.83333333333337</ele><time>2026-04-30T09:59:59.777Z</time></trkpt><trkpt lat="40.5073567" lon="9.0187167"><ele>502.0</ele><time>2026-04-30T10:00:00.778Z</time></trkpt><trkpt lat="40.5072633" lon="9.0186967"><ele>502.0</ele><time>2026-04-30T10:00:01.776Z</time></trkpt><trkpt lat="40.507175" lon="9.0186717"><ele>502.00000000000006</ele><time>2026-04-30T10:00:02.821Z</time></trkpt><trkpt lat="40.5070867" lon="9.0186583"><ele>502.00000000000006</ele><time>2026-04-30T10:00:03.778Z</time></trkpt><trkpt lat="40.5069983" lon="9.018645"><ele>502.0</ele><time>2026-04-30T10:00:04.773Z</time></trkpt><trkpt lat="40.5069" lon="9.01863"><ele>502.0</ele><time>2026-04-30T10:00:05.779Z</time></trkpt><trkpt lat="40.50679" lon="9.0186233"><ele>502.20000000000005</ele><time>2026-04-30T10:00:06.772Z</time></trkpt><trkpt lat="40.50668" lon="9.0186083"><ele>502.40000000000003</ele><time>2026-04-30T10:00:07.775Z</time></trkpt><trkpt lat="40.50659" lon="9.0186017"><ele>502.59999999999997</ele><time>2026-04-30T10:00:08.772Z</time></trkpt><trkpt lat="40.5065033" lon="9.0185967"><ele>502.79999999999995</ele><time>2026-04-30T10:00:09.774Z</time></trkpt><trkpt lat="40.506415" lon="9.018595"><ele>503.0</ele><time>2026-04-30T10:00:10.773Z</time></trkpt><trkpt lat="40.50634" lon="9.018585"><ele>503.0</ele><time>2026-04-30T10:00:11.777Z</time></trkpt><trkpt lat="40.50627" lon="9.0185633"><ele>502.99999999999994</ele><time>2026-04-30T10:00:12.776Z</time></trkpt><trkpt lat="40.5062067" lon="9.0185333"><ele>502.99999999999994</ele><time>2026-04-30T10:00:13.774Z</time></trkpt><trkpt lat="40.5061117" lon="9.018475"><ele>503.0</ele><time>2026-04-30T10:00:15.777Z</time></trkpt><trkpt lat="40.506065" lon="9.0183317"><ele>503.0</ele><time>2026-04-30T10:01:20.78Z</time></trkpt><trkpt lat="40.5060133" lon="9.01816"><ele>503.79999999999995</ele><time>2026-04-30T10:01:22.775Z</time></trkpt><trkpt lat="40.5059833" lon="9.018055"><ele>504.59999999999997</ele><time>2026-04-30T10:01:23.778Z</time></trkpt><trkpt lat="40.5059467" lon="9.01792"><ele>505.40000000000003</ele><time>2026-04-30T10:01:24.776Z</time></trkpt><trkpt lat="40.50592" lon="9.0178017"><ele>506.20000000000005</ele><time>2026-04-30T10:01:25.772Z</time></trkpt><trkpt lat="40.5059" lon="9.0176867"><ele>507.0</ele><time>2026-04-30T10:01:26.841Z</time></trkpt><trkpt lat="40.5058783" lon="9.0175683"><ele>505.6666666666667</ele><time>2026-04-30T10:01:27.777Z</time></trkpt><trkpt lat="40.505855" lon="9.0174583"><ele>504.33333333333337</ele><time>2026-04-30T10:01:28.772Z</time></trkpt><trkpt lat="40.5058083" lon="9.017345"><ele>503.0</ele><time>2026-04-30T10:01:29.772Z</time></trkpt><trkpt lat="40.50575" lon="9.01726"><ele>501.6666666666667</ele><time>2026-04-30T10:01:30.771Z</time></trkpt><trkpt lat="40.5056867" lon="9.0171867"><ele>500.33333333333337</ele><time>2026-04-30T10:01:31.772Z</time></trkpt><trkpt lat="40.50561" lon="9.0171267"><ele>499.0</ele><time>2026-04-30T10:01:32.816Z</time></trkpt><trkpt lat="40.5055233" lon="9.01708"><ele>499.0</ele><time>2026-04-30T10:01:33.778Z</time></trkpt><trkpt lat="40.5054317" lon="9.0170367"><ele>499.0</ele><time>2026-04-30T10:01:34.807Z</time></trkpt><trkpt lat="40.5053417" lon="9.017"><ele>499.0</ele><time>2026-04-30T10:01:35.779Z</time></trkpt><trkpt lat="40.5052567" lon="9.016955"><ele>499.0</ele><time>2026-04-30T10:01:36.777Z</time></trkpt><trkpt lat="40.5051683" lon="9.016915"><ele>499.0</ele><time>2026-04-30T10:01:37.772Z</time></trkpt><trkpt lat="40.50509" lon="9.0168667"><ele>500.1666666666667</ele><time>2026-04-30T10:01:38.779Z</time></trkpt><trkpt lat="40.50502" lon="9.016845"><ele>501.33333333333337</ele><time>2026-04-30T10:01:39.773Z</time></trkpt><trkpt lat="40.5049533" lon="9.01684"><ele>502.5</ele><time>2026-04-30T10:01:40.777Z</time></trkpt><trkpt lat="40.504855" lon="9.0169033"><ele>503.66666666666663</ele><time>2026-04-30T10:01:42.779Z</time></trkpt><trkpt lat="40.50479" lon="9.0170317"><ele>504.8333333333333</ele><time>2026-04-30T10:01:44.782Z</time></trkpt><trkpt lat="40.50476" lon="9.0171083"><ele>506.0</ele><time>2026-04-30T10:01:45.775Z</time></trkpt><trkpt lat="40.5047383" lon="9.0171883"><ele>505.99999999999994</ele><time>2026-04-30T10:01:46.778Z</time></trkpt><trkpt lat="40.504725" lon="9.017275"><ele>506.0</ele><time>2026-04-30T10:01:47.775Z</time></trkpt><trkpt lat="40.5047233" lon="9.0173667"><ele>506.0</ele><time>2026-04-30T10:01:48.775Z</time></trkpt><trkpt lat="40.5047367" lon="9.0174633"><ele>506.0</ele><time>2026-04-30T10:01:49.774Z</time></trkpt><trkpt lat="40.5047633" lon="9.0175667"><ele>505.99999999999994</ele><time>2026-04-30T10:01:50.781Z</time></trkpt><trkpt lat="40.5048033" lon="9.0176633"><ele>506.0</ele><time>2026-04-30T10:01:51.776Z</time></trkpt><trkpt lat="40.504855" lon="9.0177433"><ele>507.3333333333333</ele><time>2026-04-30T10:01:52.778Z</time></trkpt><trkpt lat="40.5049167" lon="9.017815"><ele>508.66666666666663</ele><time>2026-04-30T10:01:53.773Z</time></trkpt><trkpt lat="40.5049767" lon="9.017885"><ele>510.0</ele><time>2026-04-30T10:01:54.776Z</time></trkpt><trkpt lat="40.5050317" lon="9.0179583"><ele>511.33333333333337</ele><time>2026-04-30T10:01:55.772Z</time></trkpt><trkpt lat="40.5050917" lon="9.0180367"><ele>512.6666666666667</ele><time>2026-04-30T10:01:56.841Z</time></trkpt><trkpt lat="40.5051383" lon="9.0181217"><ele>514.0</ele><time>2026-04-30T10:01:57.773Z</time></trkpt><trkpt lat="40.505185" lon="9.018215"><ele>514.0</ele><time>2026-04-30T10:01:58.772Z</time></trkpt><trkpt lat="40.5052183" lon="9.0183167"><ele>514.0</ele><time>2026-04-30T10:01:59.774Z</time></trkpt><trkpt lat="40.50524" lon="9.0184267"><ele>514.0</ele><time>2026-04-30T10:02:00.773Z</time></trkpt><trkpt lat="40.5052533" lon="9.0185483"><ele>514.0</ele><time>2026-04-30T10:02:01.774Z</time></trkpt><trkpt lat="40.5052467" lon="9.0186717"><ele>514.0</ele><time>2026-04-30T10:02:02.837Z</time></trkpt><trkpt lat="40.50524" lon="9.0187933"><ele>515.4</ele><time>2026-04-30T10:02:03.774Z</time></trkpt><trkpt lat="40.5052217" lon="9.01891"><ele>516.8</ele><time>2026-04-30T10:02:04.775Z</time></trkpt><trkpt lat="40.5052167" lon="9.0190367"><ele>518.2</ele><time>2026-04-30T10:02:05.78Z</time></trkpt><trkpt lat="40.5052167" lon="9.0191583"><ele>519.6</ele><time>2026-04-30T10:02:06.776Z</time></trkpt><trkpt lat="40.5052333" lon="9.0192867"><ele>521.0</ele><time>2026-04-30T10:02:07.776Z</time></trkpt><trkpt lat="40.505255" lon="9.019425"><ele>523.2</ele><time>2026-04-30T10:02:08.776Z</time></trkpt><trkpt lat="40.5052817" lon="9.0195583"><ele>525.4000000000001</ele><time>2026-04-30T10:02:09.772Z</time></trkpt><trkpt lat="40.5053" lon="9.019695"><ele>527.6</ele><time>2026-04-30T10:02:10.772Z</time></trkpt><trkpt lat="40.5053083" lon="9.0198317"><ele>529.8000000000001</ele><time>2026-04-30T10:02:11.773Z</time></trkpt><trkpt lat="40.50531" lon="9.019965"><ele>532.0</ele><time>2026-04-30T10:02:12.774Z</time></trkpt><trkpt lat="40.5053033" lon="9.0201"><ele>533.6</ele><time>2026-04-30T10:02:13.78Z</time></trkpt><trkpt lat="40.5053" lon="9.0202417"><ele>535.2</ele><time>2026-04-30T10:02:14.78Z</time></trkpt><trkpt lat="40.5053033" lon="9.0203883"><ele>536.8</ele><time>2026-04-30T10:02:15.775Z</time></trkpt><trkpt lat="40.5053133" lon="9.02053"><ele>538.4</ele><time>2026-04-30T10:02:16.776Z</time></trkpt><trkpt lat="40.50533" lon="9.0206717"><ele>540.0</ele><time>2026-04-30T10:02:17.783Z</time></trkpt><trkpt lat="40.505365" lon="9.0208067"><ele>541.2</ele><time>2026-04-30T10:02:18.777Z</time></trkpt><trkpt lat="40.5054083" lon="9.0209417"><ele>542.4</ele><time>2026-04-30T10:02:19.771Z</time></trkpt><trkpt lat="40.5054517" lon="9.021075"><ele>543.6</ele><time>2026-04-30T10:02:20.779Z</time></trkpt><trkpt lat="40.50549" lon="9.0212017"><ele>544.8</ele><time>2026-04-30T10:02:21.775Z</time></trkpt><trkpt lat="40.505525" lon="9.0213283"><ele>546.0</ele><time>2026-04-30T10:02:22.778Z</time></trkpt><trkpt lat="40.50556" lon="9.0214567"><ele>546.0</ele><time>2026-04-30T10:02:23.774Z</time></trkpt><trkpt lat="40.5055933" lon="9.0215867"><ele>546.0</ele><time>2026-04-30T10:02:24.775Z</time></trkpt><trkpt lat="40.5056283" lon="9.0217167"><ele>546.0</ele><time>2026-04-30T10:02:25.775Z</time></trkpt><trkpt lat="40.505665" lon="9.02185"><ele>546.0</ele><time>2026-04-30T10:02:26.846Z</time></trkpt><trkpt lat="40.505705" lon="9.0219833"><ele>546.0</ele><time>2026-04-30T10:02:27.771Z</time></trkpt><trkpt lat="40.5057433" lon="9.0221167"><ele>548.2</ele><time>2026-04-30T10:02:28.782Z</time></trkpt><trkpt lat="40.5057783" lon="9.02225"><ele>550.4000000000001</ele><time>2026-04-30T10:02:29.785Z</time></trkpt><trkpt lat="40.5058117" lon="9.022385"><ele>552.6</ele><time>2026-04-30T10:02:30.775Z</time></trkpt><trkpt lat="40.5058467" lon="9.0225217"><ele>554.8000000000001</ele><time>2026-04-30T10:02:31.777Z</time></trkpt><trkpt lat="40.50588" lon="9.0226567"><ele>557.0</ele><time>2026-04-30T10:02:32.8Z</time></trkpt><trkpt lat="40.5059167" lon="9.0227883"><ele>560.0</ele><time>2026-04-30T10:02:33.777Z</time></trkpt><trkpt lat="40.5059533" lon="9.022915"><ele>563.0</ele><time>2026-04-30T10:02:34.777Z</time></trkpt><trkpt lat="40.50598" lon="9.0230433"><ele>566.0</ele><time>2026-04-30T10:02:35.773Z</time></trkpt><trkpt lat="40.5059983" lon="9.023175"><ele>569.0</ele><time>2026-04-30T10:02:36.774Z</time></trkpt><trkpt lat="40.5060067" lon="9.02331"><ele>572.0</ele><time>2026-04-30T10:02:37.772Z</time></trkpt><trkpt lat="40.5060033" lon="9.0234367"><ele>573.0</ele><time>2026-04-30T10:02:38.779Z</time></trkpt><trkpt lat="40.5059967" lon="9.0235533"><ele>574.0</ele><time>2026-04-30T10:02:39.777Z</time></trkpt><trkpt lat="40.5059783" lon="9.0236633"><ele>575.0</ele><time>2026-04-30T10:02:40.775Z</time></trkpt><trkpt lat="40.50596" lon="9.0237617"><ele>576.0</ele><time>2026-04-30T10:02:41.776Z</time></trkpt><trkpt lat="40.5059467" lon="9.023855"><ele>577.0</ele><time>2026-04-30T10:02:42.777Z</time></trkpt><trkpt lat="40.5059433" lon="9.0239417"><ele>578.0</ele><time>2026-04-30T10:02:43.778Z</time></trkpt><trkpt lat="40.5059917" lon="9.0240983"><ele>579.0</ele><time>2026-04-30T10:02:45.771Z</time></trkpt><trkpt lat="40.5060167" lon="9.0241983"><ele>580.0</ele><time>2026-04-30T10:02:46.777Z</time></trkpt><trkpt lat="40.5060467" lon="9.0243117"><ele>581.0</ele><time>2026-04-30T10:02:47.774Z</time></trkpt><trkpt lat="40.5060767" lon="9.0244267"><ele>582.0</ele><time>2026-04-30T10:02:48.774Z</time></trkpt><trkpt lat="40.5061167" lon="9.0245633"><ele>583.0</ele><time>2026-04-30T10:02:49.774Z</time></trkpt><trkpt lat="40.5061567" lon="9.0247133"><ele>583.0</ele><time>2026-04-30T10:02:50.782Z</time></trkpt><trkpt lat="40.5061967" lon="9.0248917"><ele>583.0</ele><time>2026-04-30T10:02:51.777Z</time></trkpt><trkpt lat="40.50625" lon="9.0250617"><ele>583.0</ele><time>2026-04-30T10:02:52.777Z</time></trkpt><trkpt lat="40.506295" lon="9.0252317"><ele>583.0</ele><time>2026-04-30T10:02:53.776Z</time></trkpt><trkpt lat="40.5063467" lon="9.0253917"><ele>587.5</ele><time>2026-04-30T10:02:54.776Z</time></trkpt><trkpt lat="40.5063983" lon="9.0255467"><ele>592.0</ele><time>2026-04-30T10:02:55.778Z</time></trkpt><trkpt lat="40.5064517" lon="9.0256917"><ele>596.5</ele><time>2026-04-30T10:02:56.817Z</time></trkpt><trkpt lat="40.5065067" lon="9.02583"><ele>601.0</ele><time>2026-04-30T10:02:57.778Z</time></trkpt><trkpt lat="40.5065617" lon="9.0259617"><ele>601.0</ele><time>2026-04-30T10:02:58.778Z</time></trkpt><trkpt lat="40.5066117" lon="9.02609"><ele>601.0</ele><time>2026-04-30T10:02:59.773Z</time></trkpt><trkpt lat="40.5066617" lon="9.026205"><ele>601.0</ele><time>2026-04-30T10:03:00.775Z</time></trkpt><trkpt lat="40.5067083" lon="9.0263067"><ele>601.0</ele><time>2026-04-30T10:03:01.772Z</time></trkpt><trkpt lat="40.5067533" lon="9.0264017"><ele>601.0</ele><time>2026-04-30T10:03:02.775Z</time></trkpt><trkpt lat="40.5067867" lon="9.026495"><ele>601.0</ele><time>2026-04-30T10:03:03.772Z</time></trkpt><trkpt lat="40.5068133" lon="9.0265917"><ele>601.0</ele><time>2026-04-30T10:03:04.773Z</time></trkpt><trkpt lat="40.5068283" lon="9.026695"><ele>601.0</ele><time>2026-04-30T10:03:05.772Z</time></trkpt><trkpt lat="40.5068283" lon="9.02679"><ele>601.0</ele><time>2026-04-30T10:03:06.771Z</time></trkpt><trkpt lat="40.506785" lon="9.0268883"><ele>601.0</ele><time>2026-04-30T10:03:07.774Z</time></trkpt><trkpt lat="40.5066483" lon="9.0269517"><ele>601.25</ele><time>2026-04-30T10:03:08.782Z</time></trkpt><trkpt lat="40.5065417" lon="9.027015"><ele>601.5</ele><time>2026-04-30T10:03:09.773Z</time></trkpt><trkpt lat="40.5064383" lon="9.0270867"><ele>601.75</ele><time>2026-04-30T10:03:10.772Z</time></trkpt><trkpt lat="40.5063317" lon="9.027165"><ele>602.0</ele><time>2026-04-30T10:03:11.772Z</time></trkpt><trkpt lat="40.5062333" lon="9.0272433"><ele>601.4</ele><time>2026-04-30T10:03:12.774Z</time></trkpt><trkpt lat="40.506135" lon="9.0273"><ele>600.8000000000001</ele><time>2026-04-30T10:03:13.771Z</time></trkpt><trkpt lat="40.50606" lon="9.0273733"><ele>600.2</ele><time>2026-04-30T10:03:14.775Z</time></trkpt><trkpt lat="40.5060017" lon="9.0274417"><ele>599.6</ele><time>2026-04-30T10:03:15.777Z</time></trkpt><trkpt lat="40.5059533" lon="9.0275233"><ele>599.0</ele><time>2026-04-30T10:03:16.773Z</time></trkpt><trkpt lat="40.5059783" lon="9.0276817"><ele>601.0</ele><time>2026-04-30T10:03:18.772Z</time></trkpt><trkpt lat="40.5060067" lon="9.02783"><ele>603.0</ele><time>2026-04-30T10:03:20.775Z</time></trkpt><trkpt lat="40.5059983" lon="9.0279667"><ele>605.0</ele><time>2026-04-30T10:03:22.772Z</time></trkpt><trkpt lat="40.5059383" lon="9.0280883"><ele>607.0</ele><time>2026-04-30T10:03:24.773Z</time></trkpt><trkpt lat="40.5058833" lon="9.02814"><ele>609.0</ele><time>2026-04-30T10:03:25.775Z</time></trkpt><trkpt lat="40.5058183" lon="9.0281817"><ele>609.0</ele><time>2026-04-30T10:03:26.79Z</time></trkpt><trkpt lat="40.505765" lon="9.0282433"><ele>609.0</ele><time>2026-04-30T10:03:27.774Z</time></trkpt><trkpt lat="40.5057133" lon="9.0283033"><ele>609.0</ele><time>2026-04-30T10:03:28.774Z</time></trkpt><trkpt lat="40.5056583" lon="9.0284233"><ele>609.0</ele><time>2026-04-30T10:03:30.773Z</time></trkpt><trkpt lat="40.50567" lon="9.028555"><ele>609.0</ele><time>2026-04-30T10:03:32.775Z</time></trkpt><trkpt lat="40.5057133" lon="9.0286217"><ele>609.0</ele><time>2026-04-30T10:03:33.77Z</time></trkpt><trkpt lat="40.505765" lon="9.0286833"><ele>610.8</ele><time>2026-04-30T10:03:34.771Z</time></trkpt><trkpt lat="40.5058267" lon="9.0287233"><ele>612.5999999999999</ele><time>2026-04-30T10:03:35.774Z</time></trkpt><trkpt lat="40.5058967" lon="9.02876"><ele>614.4</ele><time>2026-04-30T10:03:36.777Z</time></trkpt><trkpt lat="40.5059733" lon="9.0287933"><ele>616.1999999999999</ele><time>2026-04-30T10:03:37.769Z</time></trkpt><trkpt lat="40.5060833" lon="9.0288167"><ele>618.0</ele><time>2026-04-30T10:03:38.778Z</time></trkpt><trkpt lat="40.5062" lon="9.0288317"><ele>618.75</ele><time>2026-04-30T10:03:39.774Z</time></trkpt><trkpt lat="40.5063183" lon="9.0288567"><ele>619.5</ele><time>2026-04-30T10:03:40.773Z</time></trkpt><trkpt lat="40.50644" lon="9.0288867"><ele>620.25</ele><time>2026-04-30T10:03:41.772Z</time></trkpt><trkpt lat="40.5065417" lon="9.0289383"><ele>621.0</ele><time>2026-04-30T10:03:42.778Z</time></trkpt><trkpt lat="40.50664" lon="9.0290017"><ele>621.0</ele><time>2026-04-30T10:03:43.775Z</time></trkpt><trkpt lat="40.5067333" lon="9.02906"><ele>621.0</ele><time>2026-04-30T10:03:44.78Z</time></trkpt><trkpt lat="40.5068283" lon="9.0291083"><ele>621.0</ele><time>2026-04-30T10:03:45.775Z</time></trkpt><trkpt lat="40.5069317" lon="9.0291417"><ele>621.0</ele><time>2026-04-30T10:03:46.769Z</time></trkpt><trkpt lat="40.5070267" lon="9.0291683"><ele>621.0</ele><time>2026-04-30T10:03:47.776Z</time></trkpt><trkpt lat="40.5071267" lon="9.0291717"><ele>623.5</ele><time>2026-04-30T10:03:48.775Z</time></trkpt><trkpt lat="40.507245" lon="9.0291417"><ele>626.0</ele><time>2026-04-30T10:03:49.774Z</time></trkpt><trkpt lat="40.5073567" lon="9.029125"><ele>628.5</ele><time>2026-04-30T10:03:50.774Z</time></trkpt><trkpt lat="40.5074717" lon="9.0291167"><ele>631.0</ele><time>2026-04-30T10:03:51.769Z</time></trkpt><trkpt lat="40.50758" lon="9.0291183"><ele>631.0</ele><time>2026-04-30T10:03:52.773Z</time></trkpt><trkpt lat="40.5076833" lon="9.0291317"><ele>631.0</ele><time>2026-04-30T10:03:53.776Z</time></trkpt><trkpt lat="40.5077767" lon="9.0291617"><ele>631.0</ele><time>2026-04-30T10:03:54.775Z</time></trkpt><trkpt lat="40.5078583" lon="9.0291817"><ele>631.0</ele><time>2026-04-30T10:03:55.773Z</time></trkpt><trkpt lat="40.5079283" lon="9.0292167"><ele>631.0</ele><time>2026-04-30T10:03:56.789Z</time></trkpt><trkpt lat="40.508005" lon="9.02924"><ele>631.0</ele><time>2026-04-30T10:03:57.771Z</time></trkpt><trkpt lat="40.50808" lon="9.0292533"><ele>632.5</ele><time>2026-04-30T10:03:58.773Z</time></trkpt><trkpt lat="40.5081583" lon="9.02925"><ele>634.0</ele><time>2026-04-30T10:03:59.771Z</time></trkpt><trkpt lat="40.5082433" lon="9.029245"><ele>635.5</ele><time>2026-04-30T10:04:00.769Z</time></trkpt><trkpt lat="40.508325" lon="9.0292583"><ele>637.0</ele><time>2026-04-30T10:04:01.77Z</time></trkpt><trkpt lat="40.5084083" lon="9.029285"><ele>638.5</ele><time>2026-04-30T10:04:02.816Z</time></trkpt><trkpt lat="40.50849" lon="9.0293383"><ele>640.0</ele><time>2026-04-30T10:04:03.776Z</time></trkpt><trkpt lat="40.5085717" lon="9.0294017"><ele>640.0</ele><time>2026-04-30T10:04:04.774Z</time></trkpt><trkpt lat="40.5086583" lon="9.0294817"><ele>640.0</ele><time>2026-04-30T10:04:05.773Z</time></trkpt><trkpt lat="40.5087467" lon="9.0295767"><ele>640.0</ele><time>2026-04-30T10:04:06.775Z</time></trkpt><trkpt lat="40.50886" lon="9.0296967"><ele>640.0</ele><time>2026-04-30T10:04:07.769Z</time></trkpt><trkpt lat="40.5089467" lon="9.02984"><ele>641.0</ele><time>2026-04-30T10:04:08.777Z</time></trkpt><trkpt lat="40.509055" lon="9.0299367"><ele>642.0</ele><time>2026-04-30T10:04:09.771Z</time></trkpt><trkpt lat="40.5091367" lon="9.0300133"><ele>643.0</ele><time>2026-04-30T10:04:10.771Z</time></trkpt><trkpt lat="40.5092167" lon="9.0300867"><ele>644.0</ele><time>2026-04-30T10:04:11.769Z</time></trkpt><trkpt lat="40.5093" lon="9.030155"><ele>645.0</ele><time>2026-04-30T10:04:12.774Z</time></trkpt><trkpt lat="40.5093767" lon="9.03022"><ele>645.8333333333334</ele><time>2026-04-30T10:04:13.771Z</time></trkpt><trkpt lat="40.509445" lon="9.030285"><ele>646.6666666666666</ele><time>2026-04-30T10:04:14.777Z</time></trkpt><trkpt lat="40.509505" lon="9.0303483"><ele>647.5</ele><time>2026-04-30T10:04:15.771Z</time></trkpt><trkpt lat="40.50959" lon="9.0304533"><ele>648.3333333333333</ele><time>2026-04-30T10:04:17.776Z</time></trkpt><trkpt lat="40.5095617" lon="9.030545"><ele>649.1666666666666</ele><time>2026-04-30T10:04:19.775Z</time></trkpt><trkpt lat="40.509505" lon="9.03059"><ele>650.0</ele><time>2026-04-30T10:04:20.781Z</time></trkpt><trkpt lat="40.5094483" lon="9.0306433"><ele>650.0</ele><time>2026-04-30T10:04:21.773Z</time></trkpt><trkpt lat="40.5093933" lon="9.0307083"><ele>650.0</ele><time>2026-04-30T10:04:22.772Z</time></trkpt><trkpt lat="40.50934" lon="9.030785"><ele>650.0</ele><time>2026-04-30T10:04:23.768Z</time></trkpt><trkpt lat="40.5092783" lon="9.030895"><ele>650.0</ele><time>2026-04-30T10:04:24.776Z</time></trkpt><trkpt lat="40.5092383" lon="9.0309967"><ele>650.0</ele><time>2026-04-30T10:04:25.769Z</time></trkpt><trkpt lat="40.5092" lon="9.031085"><ele>650.0</ele><time>2026-04-30T10:04:26.814Z</time></trkpt><trkpt lat="40.509165" lon="9.031185"><ele>652.0</ele><time>2026-04-30T10:04:27.774Z</time></trkpt><trkpt lat="40.5091267" lon="9.031305"><ele>654.0</ele><time>2026-04-30T10:04:28.774Z</time></trkpt><trkpt lat="40.5090867" lon="9.031425"><ele>656.0</ele><time>2026-04-30T10:04:29.771Z</time></trkpt><trkpt lat="40.5090433" lon="9.0315367"><ele>658.0</ele><time>2026-04-30T10:04:30.773Z</time></trkpt><trkpt lat="40.5089933" lon="9.0316467"><ele>660.0</ele><time>2026-04-30T10:04:31.774Z</time></trkpt><trkpt lat="40.5089367" lon="9.03175"><ele>660.8</ele><time>2026-04-30T10:04:32.812Z</time></trkpt><trkpt lat="40.50886" lon="9.031845"><ele>661.6</ele><time>2026-04-30T10:04:33.769Z</time></trkpt><trkpt lat="40.50878" lon="9.0319117"><ele>662.4000000000001</ele><time>2026-04-30T10:04:34.775Z</time></trkpt><trkpt lat="40.508675" lon="9.0319483"><ele>663.2</ele><time>2026-04-30T10:04:35.774Z</time></trkpt><trkpt lat="40.5085833" lon="9.03201"><ele>664.0</ele><time>2026-04-30T10:04:36.774Z</time></trkpt><trkpt lat="40.5085" lon="9.0320817"><ele>664.0</ele><time>2026-04-30T10:04:37.77Z</time></trkpt><trkpt lat="40.50842" lon="9.0321583"><ele>664.0</ele><time>2026-04-30T10:04:38.779Z</time></trkpt><trkpt lat="40.5083467" lon="9.03225"><ele>664.0</ele><time>2026-04-30T10:04:39.771Z</time></trkpt><trkpt lat="40.5082783" lon="9.0323317"><ele>664.0</ele><time>2026-04-30T10:04:40.774Z</time></trkpt><trkpt lat="40.5082233" lon="9.032415"><ele>664.0</ele><time>2026-04-30T10:04:41.773Z</time></trkpt><trkpt lat="40.5081783" lon="9.032495"><ele>664.3333333333334</ele><time>2026-04-30T10:04:42.772Z</time></trkpt><trkpt lat="40.5081483" lon="9.0325817"><ele>664.6666666666667</ele><time>2026-04-30T10:04:43.774Z</time></trkpt><trkpt lat="40.5081217" lon="9.0326867"><ele>665.0</ele><time>2026-04-30T10:04:44.776Z</time></trkpt><trkpt lat="40.5080967" lon="9.03279"><ele>665.3333333333334</ele><time>2026-04-30T10:04:45.775Z</time></trkpt><trkpt lat="40.5080633" lon="9.0328983"><ele>665.6666666666666</ele><time>2026-04-30T10:04:46.773Z</time></trkpt><trkpt lat="40.5080317" lon="9.0330067"><ele>666.0</ele><time>2026-04-30T10:04:47.773Z</time></trkpt><trkpt lat="40.5079967" lon="9.033115"><ele>666.0</ele><time>2026-04-30T10:04:48.776Z</time></trkpt><trkpt lat="40.5079617" lon="9.033225"><ele>666.0</ele><time>2026-04-30T10:04:49.773Z</time></trkpt><trkpt lat="40.5079233" lon="9.0333383"><ele>666.0</ele><time>2026-04-30T10:04:50.78Z</time></trkpt><trkpt lat="40.5078833" lon="9.0334483"><ele>666.0</ele><time>2026-04-30T10:04:51.776Z</time></trkpt><trkpt lat="40.5078367" lon="9.0335667"><ele>666.0</ele><time>2026-04-30T10:04:52.774Z</time></trkpt><trkpt lat="40.5077917" lon="9.0336883"><ele>667.1999999999999</ele><time>2026-04-30T10:04:53.772Z</time></trkpt><trkpt lat="40.5077467" lon="9.0338117"><ele>668.4</ele><time>2026-04-30T10:04:54.773Z</time></trkpt><trkpt lat="40.507695" lon="9.03394"><ele>669.6</ele><time>2026-04-30T10:04:55.776Z</time></trkpt><trkpt lat="40.5076367" lon="9.0340633"><ele>670.8</ele><time>2026-04-30T10:04:56.842Z</time></trkpt><trkpt lat="40.5075733" lon="9.0341817"><ele>672.0</ele><time>2026-04-30T10:04:57.769Z</time></trkpt><trkpt lat="40.5074983" lon="9.0342967"><ele>672.8</ele><time>2026-04-30T10:04:58.772Z</time></trkpt><trkpt lat="40.5074167" lon="9.0344033"><ele>673.6</ele><time>2026-04-30T10:04:59.775Z</time></trkpt><trkpt lat="40.5073317" lon="9.034505"><ele>674.4</ele><time>2026-04-30T10:05:00.773Z</time></trkpt><trkpt lat="40.50725" lon="9.034605"><ele>675.1999999999999</ele><time>2026-04-30T10:05:01.774Z</time></trkpt><trkpt lat="40.507175" lon="9.0346933"><ele>676.0</ele><time>2026-04-30T10:05:02.81Z</time></trkpt><trkpt lat="40.5071" lon="9.03478"><ele>675.6666666666667</ele><time>2026-04-30T10:05:03.774Z</time></trkpt><trkpt lat="40.5070267" lon="9.034865"><ele>675.3333333333334</ele><time>2026-04-30T10:05:04.772Z</time></trkpt><trkpt lat="40.50696" lon="9.034935"><ele>675.0</ele><time>2026-04-30T10:05:05.775Z</time></trkpt><trkpt lat="40.5069083" lon="9.0350133"><ele>674.6666666666666</ele><time>2026-04-30T10:05:06.769Z</time></trkpt><trkpt lat="40.5068683" lon="9.0350967"><ele>674.3333333333333</ele><time>2026-04-30T10:05:07.774Z</time></trkpt><trkpt lat="40.50683" lon="9.03519"><ele>674.0</ele><time>2026-04-30T10:05:08.781Z</time></trkpt><trkpt lat="40.5068017" lon="9.035285"><ele>674.0</ele><time>2026-04-30T10:05:09.774Z</time></trkpt><trkpt lat="40.506785" lon="9.0353883"><ele>674.0</ele><time>2026-04-30T10:05:10.769Z</time></trkpt><trkpt lat="40.506785" lon="9.0355"><ele>674.0</ele><time>2026-04-30T10:05:11.773Z</time></trkpt><trkpt lat="40.506785" lon="9.0356233"><ele>674.0</ele><time>2026-04-30T10:05:12.768Z</time></trkpt><trkpt lat="40.5067867" lon="9.03575"><ele>674.0</ele><time>2026-04-30T10:05:13.774Z</time></trkpt><trkpt lat="40.5067717" lon="9.0358767"><ele>675.0</ele><time>2026-04-30T10:05:14.78Z</time></trkpt><trkpt lat="40.50676" lon="9.0360017"><ele>676.0</ele><time>2026-04-30T10:05:15.774Z</time></trkpt><trkpt lat="40.5067533" lon="9.03613"><ele>677.0</ele><time>2026-04-30T10:05:16.77Z</time></trkpt><trkpt lat="40.5067517" lon="9.0362517"><ele>678.0</ele><time>2026-04-30T10:05:17.775Z</time></trkpt><trkpt lat="40.5067583" lon="9.03638"><ele>679.0</ele><time>2026-04-30T10:05:18.773Z</time></trkpt><trkpt lat="40.5067683" lon="9.0365167"><ele>678.75</ele><time>2026-04-30T10:05:19.774Z</time></trkpt><trkpt lat="40.50679" lon="9.0366883"><ele>678.5</ele><time>2026-04-30T10:05:20.78Z</time></trkpt><trkpt lat="40.50682" lon="9.03683"><ele>678.25</ele><time>2026-04-30T10:05:21.77Z</time></trkpt><trkpt lat="40.50685" lon="9.036965"><ele>678.0</ele><time>2026-04-30T10:05:22.771Z</time></trkpt><trkpt lat="40.5068817" lon="9.0370883"><ele>678.0</ele><time>2026-04-30T10:05:23.771Z</time></trkpt><trkpt lat="40.5069" lon="9.037215"><ele>678.0</ele><time>2026-04-30T10:05:24.773Z</time></trkpt><trkpt lat="40.5069183" lon="9.0373417"><ele>678.0</ele><time>2026-04-30T10:05:25.773Z</time></trkpt><trkpt lat="40.5069433" lon="9.037465"><ele>678.0</ele><time>2026-04-30T10:05:26.796Z</time></trkpt><trkpt lat="40.5069567" lon="9.0375867"><ele>678.0</ele><time>2026-04-30T10:05:27.772Z</time></trkpt><trkpt lat="40.5069633" lon="9.03768"><ele>678.4</ele><time>2026-04-30T10:05:28.775Z</time></trkpt><trkpt lat="40.5069583" lon="9.0377767"><ele>678.8</ele><time>2026-04-30T10:05:29.774Z</time></trkpt><trkpt lat="40.50695" lon="9.0378683"><ele>679.2</ele><time>2026-04-30T10:05:30.774Z</time></trkpt><trkpt lat="40.50689" lon="9.0379983"><ele>679.6</ele><time>2026-04-30T10:05:32.801Z</time></trkpt><trkpt lat="40.506765" lon="9.037985"><ele>680.0</ele><time>2026-04-30T10:05:34.775Z</time></trkpt><trkpt lat="40.5067" lon="9.03796"><ele>680.0</ele><time>2026-04-30T10:05:35.776Z</time></trkpt><trkpt lat="40.5066317" lon="9.0379267"><ele>680.0</ele><time>2026-04-30T10:05:36.773Z</time></trkpt><trkpt lat="40.5065333" lon="9.03789"><ele>680.0</ele><time>2026-04-30T10:05:37.771Z</time></trkpt><trkpt lat="40.50644" lon="9.03788"><ele>680.0</ele><time>2026-04-30T10:05:38.779Z</time></trkpt><trkpt lat="40.506345" lon="9.0378833"><ele>680.0</ele><time>2026-04-30T10:05:39.773Z</time></trkpt><trkpt lat="40.50625" lon="9.0379067"><ele>678.3333333333333</ele><time>2026-04-30T10:05:40.769Z</time></trkpt><trkpt lat="40.5061617" lon="9.0379417"><ele>676.6666666666666</ele><time>2026-04-30T10:05:41.776Z</time></trkpt><trkpt lat="40.5060783" lon="9.0379783"><ele>675.0</ele><time>2026-04-30T10:05:42.774Z</time></trkpt><trkpt lat="40.5059917" lon="9.0380067"><ele>673.3333333333334</ele><time>2026-04-30T10:05:43.775Z</time></trkpt><trkpt lat="40.5059083" lon="9.038045"><ele>671.6666666666667</ele><time>2026-04-30T10:05:44.779Z</time></trkpt><trkpt lat="40.5058333" lon="9.0380983"><ele>670.0</ele><time>2026-04-30T10:05:45.771Z</time></trkpt><trkpt lat="40.5057717" lon="9.038165"><ele>670.0</ele><time>2026-04-30T10:05:46.77Z</time></trkpt><trkpt lat="40.5057217" lon="9.03823"><ele>670.0</ele><time>2026-04-30T10:05:47.774Z</time></trkpt><trkpt lat="40.5056783" lon="9.0383017"><ele>670.0</ele><time>2026-04-30T10:05:48.776Z</time></trkpt><trkpt lat="40.5056517" lon="9.0384633"><ele>670.0</ele><time>2026-04-30T10:05:50.78Z</time></trkpt><trkpt lat="40.5056883" lon="9.03863"><ele>670.0</ele><time>2026-04-30T10:05:52.773Z</time></trkpt><trkpt lat="40.5057283" lon="9.0387233"><ele>672.1666666666667</ele><time>2026-04-30T10:05:53.775Z</time></trkpt><trkpt lat="40.5057633" lon="9.038815"><ele>674.3333333333334</ele><time>2026-04-30T10:05:54.775Z</time></trkpt><trkpt lat="40.5057917" lon="9.0389"><ele>676.5</ele><time>2026-04-30T10:05:55.772Z</time></trkpt><trkpt lat="40.5058117" lon="9.0389833"><ele>678.6666666666666</ele><time>2026-04-30T10:05:56.773Z</time></trkpt><trkpt lat="40.5058" lon="9.0391517"><ele>680.8333333333333</ele><time>2026-04-30T10:05:58.772Z</time></trkpt><trkpt lat="40.5057717" lon="9.03925"><ele>683.0</ele><time>2026-04-30T10:05:59.774Z</time></trkpt><trkpt lat="40.5057283" lon="9.0393467"><ele>684.5</ele><time>2026-04-30T10:06:00.772Z</time></trkpt><trkpt lat="40.50567" lon="9.0394483"><ele>686.0</ele><time>2026-04-30T10:06:01.776Z</time></trkpt><trkpt lat="40.505605" lon="9.0395417"><ele>687.5</ele><time>2026-04-30T10:06:02.77Z</time></trkpt><trkpt lat="40.505555" lon="9.0396333"><ele>689.0</ele><time>2026-04-30T10:06:03.772Z</time></trkpt><trkpt lat="40.5055083" lon="9.0397233"><ele>690.5</ele><time>2026-04-30T10:06:04.771Z</time></trkpt><trkpt lat="40.5054667" lon="9.039815"><ele>692.0</ele><time>2026-04-30T10:06:05.777Z</time></trkpt><trkpt lat="40.5054283" lon="9.03991"><ele>692.3333333333333</ele><time>2026-04-30T10:06:06.775Z</time></trkpt><trkpt lat="40.5053967" lon="9.0400033"><ele>692.6666666666666</ele><time>2026-04-30T10:06:07.77Z</time></trkpt><trkpt lat="40.5053633" lon="9.0401"><ele>693.0</ele><time>2026-04-30T10:06:08.78Z</time></trkpt><trkpt lat="40.5053267" lon="9.040195"><ele>693.3333333333334</ele><time>2026-04-30T10:06:09.772Z</time></trkpt><trkpt lat="40.5052817" lon="9.04029"><ele>693.6666666666667</ele><time>2026-04-30T10:06:10.773Z</time></trkpt><trkpt lat="40.5052317" lon="9.040385"><ele>694.0</ele><time>2026-04-30T10:06:11.775Z</time></trkpt><trkpt lat="40.5051767" lon="9.0404767"><ele>694.0</ele><time>2026-04-30T10:06:12.774Z</time></trkpt><trkpt lat="40.5051183" lon="9.0405583"><ele>694.0</ele><time>2026-04-30T10:06:13.774Z</time></trkpt><trkpt lat="40.5050617" lon="9.0406383"><ele>694.0</ele><time>2026-04-30T10:06:14.78Z</time></trkpt><trkpt lat="40.5050033" lon="9.0407183"><ele>694.0</ele><time>2026-04-30T10:06:15.773Z</time></trkpt><trkpt lat="40.504945" lon="9.0408"><ele>694.0</ele><time>2026-04-30T10:06:16.772Z</time></trkpt><trkpt lat="40.5048833" lon="9.0408867"><ele>694.0</ele><time>2026-04-30T10:06:17.771Z</time></trkpt><trkpt lat="40.5048217" lon="9.0409817"><ele>698.0</ele><time>2026-04-30T10:06:18.781Z</time></trkpt><trkpt lat="40.5047617" lon="9.0410783"><ele>702.0</ele><time>2026-04-30T10:06:19.776Z</time></trkpt><trkpt lat="40.5046967" lon="9.0411767"><ele>706.0</ele><time>2026-04-30T10:06:20.778Z</time></trkpt><trkpt lat="40.5046383" lon="9.04128"><ele>710.0</ele><time>2026-04-30T10:06:21.773Z</time></trkpt><trkpt lat="40.5045767" lon="9.0413817"><ele>714.0</ele><time>2026-04-30T10:06:22.773Z</time></trkpt><trkpt lat="40.504525" lon="9.0414567"><ele>714.0</ele><time>2026-04-30T10:06:23.773Z</time></trkpt><trkpt lat="40.5044567" lon="9.0415783"><ele>714.0</ele><time>2026-04-30T10:06:25.77Z</time></trkpt><trkpt lat="40.50441" lon="9.0416883"><ele>714.0</ele><time>2026-04-30T10:06:27.773Z</time></trkpt><trkpt lat="40.5045" lon="9.0416217"><ele>714.0</ele><time>2026-04-30T10:06:32.793Z</time></trkpt><trkpt lat="40.504575" lon="9.0415517"><ele>714.0</ele><time>2026-04-30T10:06:33.773Z</time></trkpt><trkpt lat="40.50466" lon="9.0414833"><ele>714.0</ele><time>2026-04-30T10:06:34.773Z</time></trkpt><trkpt lat="40.5047933" lon="9.041375"><ele>714.0</ele><time>2026-04-30T10:06:35.772Z</time></trkpt><trkpt lat="40.50493" lon="9.0412833"><ele>714.0</ele><time>2026-04-30T10:06:36.774Z</time></trkpt><trkpt lat="40.505045" lon="9.0412083"><ele>714.0</ele><time>2026-04-30T10:06:37.774Z</time></trkpt><trkpt lat="40.5051733" lon="9.04113"><ele>714.0</ele><time>2026-04-30T10:06:38.779Z</time></trkpt><trkpt lat="40.50528" lon="9.041065"><ele>714.0</ele><time>2026-04-30T10:06:39.776Z</time></trkpt><trkpt lat="40.5053817" lon="9.0410117"><ele>714.0</ele><time>2026-04-30T10:06:40.773Z</time></trkpt><trkpt lat="40.50549" lon="9.0409683"><ele>714.0</ele><time>2026-04-30T10:06:41.775Z</time></trkpt><trkpt lat="40.5055917" lon="9.0409383"><ele>714.0</ele><time>2026-04-30T10:06:42.77Z</time></trkpt><trkpt lat="40.505695" lon="9.0409217"><ele>712.8000000000001</ele><time>2026-04-30T10:06:43.769Z</time></trkpt><trkpt lat="40.50579" lon="9.040905"><ele>711.6</ele><time>2026-04-30T10:06:44.782Z</time></trkpt><trkpt lat="40.5058767" lon="9.0408783"><ele>710.4</ele><time>2026-04-30T10:06:45.771Z</time></trkpt><trkpt lat="40.50597" lon="9.04084"><ele>709.2</ele><time>2026-04-30T10:06:46.771Z</time></trkpt><trkpt lat="40.50606" lon="9.0407933"><ele>708.0</ele><time>2026-04-30T10:06:47.773Z</time></trkpt><trkpt lat="40.5061583" lon="9.0407183"><ele>711.0</ele><time>2026-04-30T10:06:48.774Z</time></trkpt><trkpt lat="40.50625" lon="9.04064"><ele>714.0</ele><time>2026-04-30T10:06:49.773Z</time></trkpt><trkpt lat="40.5063333" lon="9.0405717"><ele>717.0</ele><time>2026-04-30T10:06:50.778Z</time></trkpt><trkpt lat="40.5064083" lon="9.04051"><ele>720.0</ele><time>2026-04-30T10:06:51.775Z</time></trkpt><trkpt lat="40.5064783" lon="9.0404583"><ele>723.0</ele><time>2026-04-30T10:06:52.772Z</time></trkpt><trkpt lat="40.5065533" lon="9.04041"><ele>723.0</ele><time>2026-04-30T10:06:53.77Z</time></trkpt><trkpt lat="40.5066283" lon="9.0403867"><ele>723.0</ele><time>2026-04-30T10:06:54.773Z</time></trkpt><trkpt lat="40.5067033" lon="9.0403733"><ele>723.0</ele><time>2026-04-30T10:06:55.772Z</time></trkpt><trkpt lat="40.5068167" lon="9.0404"><ele>723.0</ele><time>2026-04-30T10:06:57.771Z</time></trkpt><trkpt lat="40.50688" lon="9.0404383"><ele>723.0</ele><time>2026-04-30T10:06:58.772Z</time></trkpt><trkpt lat="40.5069483" lon="9.0404733"><ele>723.0</ele><time>2026-04-30T10:06:59.777Z</time></trkpt><trkpt lat="40.5070167" lon="9.040515"><ele>722.5999999999999</ele><time>2026-04-30T10:07:00.775Z</time></trkpt><trkpt lat="40.507095" lon="9.0405683"><ele>722.1999999999999</ele><time>2026-04-30T10:07:01.774Z</time></trkpt><trkpt lat="40.5071783" lon="9.040645"><ele>721.8</ele><time>2026-04-30T10:07:02.775Z</time></trkpt><trkpt lat="40.5072733" lon="9.0407333"><ele>721.4</ele><time>2026-04-30T10:07:03.774Z</time></trkpt><trkpt lat="40.5073783" lon="9.0408117"><ele>721.0</ele><time>2026-04-30T10:07:04.774Z</time></trkpt><trkpt lat="40.5074883" lon="9.0408833"><ele>724.25</ele><time>2026-04-30T10:07:05.772Z</time></trkpt><trkpt lat="40.507605" lon="9.0409417"><ele>727.5</ele><time>2026-04-30T10:07:06.773Z</time></trkpt><trkpt lat="40.5077467" lon="9.040985"><ele>730.75</ele><time>2026-04-30T10:07:07.775Z</time></trkpt><trkpt lat="40.50787" lon="9.04101"><ele>734.0</ele><time>2026-04-30T10:07:08.781Z</time></trkpt><trkpt lat="40.507995" lon="9.041025"><ele>734.0</ele><time>2026-04-30T10:07:09.775Z</time></trkpt><trkpt lat="40.5081083" lon="9.0410333"><ele>734.0</ele><time>2026-04-30T10:07:10.776Z</time></trkpt><trkpt lat="40.5082167" lon="9.0410417"><ele>734.0</ele><time>2026-04-30T10:07:11.777Z</time></trkpt><trkpt lat="40.5083217" lon="9.0410483"><ele>734.0</ele><time>2026-04-30T10:07:12.772Z</time></trkpt><trkpt lat="40.5084183" lon="9.041055"><ele>734.0</ele><time>2026-04-30T10:07:13.776Z</time></trkpt><trkpt lat="40.5085233" lon="9.0410667"><ele>734.0</ele><time>2026-04-30T10:07:14.779Z</time></trkpt><trkpt lat="40.508625" lon="9.0410933"><ele>734.0</ele><time>2026-04-30T10:07:15.771Z</time></trkpt><trkpt lat="40.5087283" lon="9.041115"><ele>734.0</ele><time>2026-04-30T10:07:16.776Z</time></trkpt><trkpt lat="40.5088283" lon="9.0411283"><ele>734.0</ele><time>2026-04-30T10:07:17.775Z</time></trkpt><trkpt lat="40.5089283" lon="9.0411317"><ele>734.0</ele><time>2026-04-30T10:07:18.773Z</time></trkpt><trkpt lat="40.5090317" lon="9.0411283"><ele>735.8000000000001</ele><time>2026-04-30T10:07:19.771Z</time></trkpt><trkpt lat="40.5091317" lon="9.041105"><ele>737.6</ele><time>2026-04-30T10:07:20.782Z</time></trkpt><trkpt lat="40.5092367" lon="9.04106"><ele>739.4</ele><time>2026-04-30T10:07:21.774Z</time></trkpt><trkpt lat="40.509325" lon="9.0410217"><ele>741.2</ele><time>2026-04-30T10:07:22.775Z</time></trkpt><trkpt lat="40.5094033" lon="9.040975"><ele>743.0</ele><time>2026-04-30T10:07:23.772Z</time></trkpt><trkpt lat="40.5094683" lon="9.0409367"><ele>743.0</ele><time>2026-04-30T10:07:24.773Z</time></trkpt><trkpt lat="40.509575" lon="9.0408667"><ele>743.0</ele><time>2026-04-30T10:07:26.841Z</time></trkpt><trkpt lat="40.5096617" lon="9.0408183"><ele>743.0</ele><time>2026-04-30T10:07:28.774Z</time></trkpt><trkpt lat="40.5097383" lon="9.0408033"><ele>743.0</ele><time>2026-04-30T10:07:30.772Z</time></trkpt><trkpt lat="40.50981" lon="9.0408033"><ele>743.0</ele><time>2026-04-30T10:07:32.774Z</time></trkpt><trkpt lat="40.5098717" lon="9.040855"><ele>743.0</ele><time>2026-04-30T10:07:34.773Z</time></trkpt><trkpt lat="40.509915" lon="9.0409167"><ele>744.75</ele><time>2026-04-30T10:07:35.775Z</time></trkpt><trkpt lat="40.5099983" lon="9.0410467"><ele>746.5</ele><time>2026-04-30T10:07:36.776Z</time></trkpt><trkpt lat="40.5100467" lon="9.0411483"><ele>748.25</ele><time>2026-04-30T10:07:37.775Z</time></trkpt><trkpt lat="40.5100983" lon="9.0412833"><ele>750.0</ele><time>2026-04-30T10:07:38.775Z</time></trkpt><trkpt lat="40.5101583" lon="9.0414217"><ele>750.0</ele><time>2026-04-30T10:07:39.773Z</time></trkpt><trkpt lat="40.510215" lon="9.0415733"><ele>750.0</ele><time>2026-04-30T10:07:40.774Z</time></trkpt><trkpt lat="40.5102717" lon="9.041735"><ele>750.0</ele><time>2026-04-30T10:07:41.773Z</time></trkpt><trkpt lat="40.5103183" lon="9.041895"><ele>750.0</ele><time>2026-04-30T10:07:42.776Z</time></trkpt><trkpt lat="40.510365" lon="9.0420467"><ele>752.75</ele><time>2026-04-30T10:07:43.776Z</time></trkpt><trkpt lat="40.5104117" lon="9.04218"><ele>755.5</ele><time>2026-04-30T10:07:44.782Z</time></trkpt><trkpt lat="40.510435" lon="9.0423433"><ele>758.25</ele><time>2026-04-30T10:07:45.772Z</time></trkpt><trkpt lat="40.5104517" lon="9.0425"><ele>761.0</ele><time>2026-04-30T10:07:46.771Z</time></trkpt><trkpt lat="40.51046" lon="9.0426433"><ele>761.0</ele><time>2026-04-30T10:07:47.773Z</time></trkpt><trkpt lat="40.5104533" lon="9.0427683"><ele>761.0</ele><time>2026-04-30T10:07:48.771Z</time></trkpt><trkpt lat="40.5104233" lon="9.0428817"><ele>761.0</ele><time>2026-04-30T10:07:49.773Z</time></trkpt><trkpt lat="40.5103683" lon="9.0429983"><ele>761.0</ele><time>2026-04-30T10:07:50.777Z</time></trkpt><trkpt lat="40.51028" lon="9.0431117"><ele>761.0</ele><time>2026-04-30T10:07:51.773Z</time></trkpt><trkpt lat="40.51019" lon="9.0432333"><ele>762.75</ele><time>2026-04-30T10:07:52.774Z</time></trkpt><trkpt lat="40.5100917" lon="9.0433483"><ele>764.5</ele><time>2026-04-30T10:07:53.775Z</time></trkpt><trkpt lat="40.51002" lon="9.0434567"><ele>766.25</ele><time>2026-04-30T10:07:54.772Z</time></trkpt><trkpt lat="40.5099467" lon="9.0435733"><ele>768.0</ele><time>2026-04-30T10:07:55.778Z</time></trkpt><trkpt lat="40.5098833" lon="9.0436817"><ele>768.0</ele><time>2026-04-30T10:07:56.845Z</time></trkpt><trkpt lat="40.50982" lon="9.0437817"><ele>768.0</ele><time>2026-04-30T10:07:57.771Z</time></trkpt><trkpt lat="40.5097633" lon="9.04387"><ele>768.0</ele><time>2026-04-30T10:07:58.775Z</time></trkpt><trkpt lat="40.5097033" lon="9.043955"><ele>768.0</ele><time>2026-04-30T10:07:59.771Z</time></trkpt><trkpt lat="40.5096483" lon="9.04401"><ele>768.0</ele><time>2026-04-30T10:08:00.774Z</time></trkpt><trkpt lat="40.5095133" lon="9.0440417"><ele>769.2</ele><time>2026-04-30T10:08:02.79Z</time></trkpt><trkpt lat="40.5094317" lon="9.044025"><ele>770.4</ele><time>2026-04-30T10:08:03.773Z</time></trkpt><trkpt lat="40.5093667" lon="9.0439817"><ele>771.6</ele><time>2026-04-30T10:08:04.773Z</time></trkpt><trkpt lat="40.5093217" lon="9.0438833"><ele>772.8000000000001</ele><time>2026-04-30T10:08:05.776Z</time></trkpt><trkpt lat="40.50926" lon="9.04375"><ele>774.0</ele><time>2026-04-30T10:08:06.777Z</time></trkpt><trkpt lat="40.5091983" lon="9.0436167"><ele>774.0</ele><time>2026-04-30T10:08:07.78Z</time></trkpt><trkpt lat="40.5091233" lon="9.0434683"><ele>774.0</ele><time>2026-04-30T10:08:08.779Z</time></trkpt><trkpt lat="40.5090333" lon="9.04332"><ele>774.0</ele><time>2026-04-30T10:08:09.773Z</time></trkpt><trkpt lat="40.5089217" lon="9.0431817"><ele>774.0</ele><time>2026-04-30T10:08:10.769Z</time></trkpt><trkpt lat="40.5088183" lon="9.0430533"><ele>773.6666666666667</ele><time>2026-04-30T10:08:11.772Z</time></trkpt><trkpt lat="40.50871" lon="9.0429267"><ele>773.3333333333334</ele><time>2026-04-30T10:08:12.773Z</time></trkpt><trkpt lat="40.5085817" lon="9.0427983"><ele>773.0</ele><time>2026-04-30T10:08:13.774Z</time></trkpt><trkpt lat="40.508435" lon="9.04267"><ele>773.0</ele><time>2026-04-30T10:08:14.78Z</time></trkpt><trkpt lat="40.50829" lon="9.04254"><ele>773.0</ele><time>2026-04-30T10:08:15.775Z</time></trkpt><trkpt lat="40.5081383" lon="9.04244"><ele>773.0</ele><time>2026-04-30T10:08:16.772Z</time></trkpt><trkpt lat="40.5079733" lon="9.042365"><ele>769.0</ele><time>2026-04-30T10:08:17.774Z</time></trkpt><trkpt lat="40.5078083" lon="9.0423033"><ele>765.0</ele><time>2026-04-30T10:08:18.774Z</time></trkpt><trkpt lat="40.5076417" lon="9.0422683"><ele>761.0</ele><time>2026-04-30T10:08:19.772Z</time></trkpt><trkpt lat="40.50747" lon="9.0422567"><ele>761.0</ele><time>2026-04-30T10:08:20.778Z</time></trkpt><trkpt lat="40.5073033" lon="9.04227"><ele>761.0</ele><time>2026-04-30T10:08:21.776Z</time></trkpt><trkpt lat="40.5071367" lon="9.0423083"><ele>761.0</ele><time>2026-04-30T10:08:22.772Z</time></trkpt><trkpt lat="40.506965" lon="9.0423667"><ele>766.3333333333333</ele><time>2026-04-30T10:08:23.771Z</time></trkpt><trkpt lat="40.5068117" lon="9.0424783"><ele>771.6666666666666</ele><time>2026-04-30T10:08:24.771Z</time></trkpt><trkpt lat="40.50666" lon="9.042625"><ele>777.0</ele><time>2026-04-30T10:08:25.774Z</time></trkpt><trkpt lat="40.506515" lon="9.0427383"><ele>777.0</ele><time>2026-04-30T10:08:26.782Z</time></trkpt><trkpt lat="40.506385" lon="9.0428583"><ele>777.0</ele><time>2026-04-30T10:08:27.768Z</time></trkpt><trkpt lat="40.5062567" lon="9.0429733"><ele>777.0</ele><time>2026-04-30T10:08:28.774Z</time></trkpt><trkpt lat="40.5061433" lon="9.0431033"><ele>778.0</ele><time>2026-04-30T10:08:29.772Z</time></trkpt><trkpt lat="40.5060367" lon="9.04324"><ele>779.0</ele><time>2026-04-30T10:08:30.775Z</time></trkpt><trkpt lat="40.5059383" lon="9.0433833"><ele>780.0</ele><time>2026-04-30T10:08:31.773Z</time></trkpt><trkpt lat="40.5058667" lon="9.04355"><ele>781.0</ele><time>2026-04-30T10:08:32.79Z</time></trkpt><trkpt lat="40.5057883" lon="9.043715"><ele>781.0</ele><time>2026-04-30T10:08:33.775Z</time></trkpt><trkpt lat="40.505705" lon="9.0438783"><ele>781.0</ele><time>2026-04-30T10:08:34.773Z</time></trkpt><trkpt lat="40.5056167" lon="9.0440317"><ele>781.0</ele><time>2026-04-30T10:08:35.772Z</time></trkpt><trkpt lat="40.50553" lon="9.0441867"><ele>781.0</ele><time>2026-04-30T10:08:36.774Z</time></trkpt><trkpt lat="40.50543" lon="9.0443233"><ele>783.3333333333333</ele><time>2026-04-30T10:08:37.769Z</time></trkpt><trkpt lat="40.5053233" lon="9.0444533"><ele>785.6666666666667</ele><time>2026-04-30T10:08:38.776Z</time></trkpt><trkpt lat="40.5052017" lon="9.0445867"><ele>788.0</ele><time>2026-04-30T10:08:39.768Z</time></trkpt><trkpt lat="40.5050833" lon="9.0447083"><ele>788.0</ele><time>2026-04-30T10:08:40.769Z</time></trkpt><trkpt lat="40.5049717" lon="9.0448167"><ele>788.0</ele><time>2026-04-30T10:08:41.772Z</time></trkpt><trkpt lat="40.504825" lon="9.0448867"><ele>788.0</ele><time>2026-04-30T10:08:42.771Z</time></trkpt><trkpt lat="40.5046683" lon="9.0449683"><ele>792.6666666666667</ele><time>2026-04-30T10:08:43.774Z</time></trkpt><trkpt lat="40.50451" lon="9.0450283"><ele>797.3333333333333</ele><time>2026-04-30T10:08:44.774Z</time></trkpt><trkpt lat="40.5043633" lon="9.0451167"><ele>802.0</ele><time>2026-04-30T10:08:45.771Z</time></trkpt><trkpt lat="40.5042067" lon="9.0451817"><ele>802.0</ele><time>2026-04-30T10:08:46.769Z</time></trkpt><trkpt lat="40.5040483" lon="9.0452133"><ele>802.0</ele><time>2026-04-30T10:08:47.773Z</time></trkpt><trkpt lat="40.5038717" lon="9.0452"><ele>802.0</ele><time>2026-04-30T10:08:48.768Z</time></trkpt><trkpt lat="40.5036783" lon="9.0451267"><ele>800.0</ele><time>2026-04-30T10:08:49.773Z</time></trkpt><trkpt lat="40.50351" lon="9.045075"><ele>798.0</ele><time>2026-04-30T10:08:50.776Z</time></trkpt><trkpt lat="40.5033517" lon="9.0450483"><ele>796.0</ele><time>2026-04-30T10:08:51.768Z</time></trkpt><trkpt lat="40.5031717" lon="9.0450167"><ele>796.0</ele><time>2026-04-30T10:08:52.771Z</time></trkpt><trkpt lat="40.5029817" lon="9.0450017"><ele>796.0</ele><time>2026-04-30T10:08:53.769Z</time></trkpt><trkpt lat="40.5027917" lon="9.0450633"><ele>796.0</ele><time>2026-04-30T10:08:54.768Z</time></trkpt><trkpt lat="40.5025967" lon="9.0451533"><ele>791.3333333333333</ele><time>2026-04-30T10:08:55.772Z</time></trkpt><trkpt lat="40.5024283" lon="9.0452783"><ele>786.6666666666667</ele><time>2026-04-30T10:08:56.771Z</time></trkpt><trkpt lat="40.5022667" lon="9.0454017"><ele>782.0</ele><time>2026-04-30T10:08:57.772Z</time></trkpt><trkpt lat="40.50211" lon="9.0455233"><ele>782.6666666666667</ele><time>2026-04-30T10:08:58.775Z</time></trkpt><trkpt lat="40.50196" lon="9.0456317"><ele>783.3333333333333</ele><time>2026-04-30T10:08:59.772Z</time></trkpt><trkpt lat="40.5018317" lon="9.0457417"><ele>784.0</ele><time>2026-04-30T10:09:00.769Z</time></trkpt><trkpt lat="40.5017183" lon="9.0458783"><ele>784.0</ele><time>2026-04-30T10:09:01.773Z</time></trkpt><trkpt lat="40.501615" lon="9.0460333"><ele>784.0</ele><time>2026-04-30T10:09:02.772Z</time></trkpt><trkpt lat="40.5015267" lon="9.0461983"><ele>784.0</ele><time>2026-04-30T10:09:03.772Z</time></trkpt><trkpt lat="40.5014433" lon="9.0463583"><ele>784.0</ele><time>2026-04-30T10:09:04.776Z</time></trkpt><trkpt lat="40.5013617" lon="9.0465117"><ele>784.0</ele><time>2026-04-30T10:09:05.771Z</time></trkpt><trkpt lat="40.50129" lon="9.0466483"><ele>784.0</ele><time>2026-04-30T10:09:06.768Z</time></trkpt><trkpt lat="40.5012267" lon="9.046765"><ele>784.0</ele><time>2026-04-30T10:09:07.773Z</time></trkpt><trkpt lat="40.5011633" lon="9.04686"><ele>785.9999999999999</ele><time>2026-04-30T10:09:08.773Z</time></trkpt><trkpt lat="40.5011" lon="9.0469283"><ele>788.0</ele><time>2026-04-30T10:09:09.77Z</time></trkpt><trkpt lat="40.5010217" lon="9.0468767"><ele>790.0</ele><time>2026-04-30T10:09:10.771Z</time></trkpt><trkpt lat="40.500945" lon="9.04683"><ele>792.0</ele><time>2026-04-30T10:09:11.774Z</time></trkpt><trkpt lat="40.500895" lon="9.0467283"><ele>793.9999999999999</ele><time>2026-04-30T10:09:12.774Z</time></trkpt><trkpt lat="40.5008567" lon="9.04663"><ele>796.0</ele><time>2026-04-30T10:09:13.773Z</time></trkpt><trkpt lat="40.5008617" lon="9.0464717"><ele>798.6666666666666</ele><time>2026-04-30T10:09:14.78Z</time></trkpt><trkpt lat="40.5009033" lon="9.0463"><ele>801.3333333333333</ele><time>2026-04-30T10:09:15.772Z</time></trkpt><trkpt lat="40.5009417" lon="9.0461133"><ele>804.0</ele><time>2026-04-30T10:09:16.771Z</time></trkpt><trkpt lat="40.5009917" lon="9.0458967"><ele>800.0</ele><time>2026-04-30T10:09:17.772Z</time></trkpt><trkpt lat="40.5010383" lon="9.04568"><ele>796.0</ele><time>2026-04-30T10:09:18.772Z</time></trkpt><trkpt lat="40.5010783" lon="9.0454667"><ele>792.0</ele><time>2026-04-30T10:09:19.772Z</time></trkpt><trkpt lat="40.5010867" lon="9.0452767"><ele>792.0</ele><time>2026-04-30T10:09:20.781Z</time></trkpt><trkpt lat="40.5010583" lon="9.0451033"><ele>792.0</ele><time>2026-04-30T10:09:21.77Z</time></trkpt><trkpt lat="40.5010067" lon="9.0449383"><ele>792.0</ele><time>2026-04-30T10:09:22.773Z</time></trkpt><trkpt lat="40.50092" lon="9.0447917"><ele>792.0</ele><time>2026-04-30T10:09:23.771Z</time></trkpt><trkpt lat="40.50082" lon="9.0446467"><ele>792.0</ele><time>2026-04-30T10:09:24.77Z</time></trkpt><trkpt lat="40.5006883" lon="9.0445183"><ele>792.0</ele><time>2026-04-30T10:09:25.769Z</time></trkpt><trkpt lat="40.5005567" lon="9.04439"><ele>792.0</ele><time>2026-04-30T10:09:26.839Z</time></trkpt><trkpt lat="40.5004133" lon="9.044265"><ele>792.0</ele><time>2026-04-30T10:09:27.772Z</time></trkpt><trkpt lat="40.5002633" lon="9.0441467"><ele>792.0</ele><time>2026-04-30T10:09:28.772Z</time></trkpt><trkpt lat="40.5000967" lon="9.0440333"><ele>792.0</ele><time>2026-04-30T10:09:29.772Z</time></trkpt><trkpt lat="40.49992" lon="9.0439267"><ele>787.0</ele><time>2026-04-30T10:09:30.77Z</time></trkpt><trkpt lat="40.49975" lon="9.04386"><ele>782.0</ele><time>2026-04-30T10:09:31.771Z</time></trkpt><trkpt lat="40.49958" lon="9.0437933"><ele>777.0</ele><time>2026-04-30T10:09:32.808Z</time></trkpt><trkpt lat="40.4994133" lon="9.0437517"><ele>777.0</ele><time>2026-04-30T10:09:33.772Z</time></trkpt><trkpt lat="40.49924" lon="9.0437383"><ele>777.0</ele><time>2026-04-30T10:09:34.773Z</time></trkpt><trkpt lat="40.4990667" lon="9.0437533"><ele>777.0</ele><time>2026-04-30T10:09:35.772Z</time></trkpt><trkpt lat="40.4989033" lon="9.043785"><ele>779.6666666666667</ele><time>2026-04-30T10:09:36.773Z</time></trkpt><trkpt lat="40.498745" lon="9.0438117"><ele>782.3333333333334</ele><time>2026-04-30T10:09:37.773Z</time></trkpt><trkpt lat="40.4986067" lon="9.043855"><ele>785.0</ele><time>2026-04-30T10:09:38.778Z</time></trkpt><trkpt lat="40.4984317" lon="9.0438767"><ele>785.0</ele><time>2026-04-30T10:09:39.77Z</time></trkpt><trkpt lat="40.4983017" lon="9.04383"><ele>785.0</ele><time>2026-04-30T10:09:40.768Z</time></trkpt><trkpt lat="40.498175" lon="9.0437467"><ele>785.0</ele><time>2026-04-30T10:09:41.773Z</time></trkpt><trkpt lat="40.4980333" lon="9.04368"><ele>785.0</ele><time>2026-04-30T10:09:42.768Z</time></trkpt><trkpt lat="40.4978883" lon="9.0436333"><ele>786.6666666666667</ele><time>2026-04-30T10:09:43.771Z</time></trkpt><trkpt lat="40.4977317" lon="9.0436217"><ele>788.3333333333333</ele><time>2026-04-30T10:09:44.779Z</time></trkpt><trkpt lat="40.4975617" lon="9.043665"><ele>790.0</ele><time>2026-04-30T10:09:45.77Z</time></trkpt><trkpt lat="40.497385" lon="9.04374"><ele>790.0</ele><time>2026-04-30T10:09:46.772Z</time></trkpt><trkpt lat="40.4972117" lon="9.043815"><ele>790.0</ele><time>2026-04-30T10:09:47.771Z</time></trkpt><trkpt lat="40.497045" lon="9.0438717"><ele>790.0</ele><time>2026-04-30T10:09:48.774Z</time></trkpt><trkpt lat="40.4968767" lon="9.0439217"><ele>792.0</ele><time>2026-04-30T10:09:49.767Z</time></trkpt><trkpt lat="40.4967083" lon="9.04397"><ele>794.0</ele><time>2026-04-30T10:09:50.776Z</time></trkpt><trkpt lat="40.4965383" lon="9.0440167"><ele>796.0</ele><time>2026-04-30T10:09:51.772Z</time></trkpt><trkpt lat="40.496375" lon="9.0440767"><ele>799.0</ele><time>2026-04-30T10:09:52.773Z</time></trkpt><trkpt lat="40.4962233" lon="9.044105"><ele>802.0</ele><time>2026-04-30T10:09:53.772Z</time></trkpt><trkpt lat="40.496055" lon="9.044055"><ele>805.0</ele><time>2026-04-30T10:09:54.767Z</time></trkpt><trkpt lat="40.4958867" lon="9.043955"><ele>805.0</ele><time>2026-04-30T10:09:55.768Z</time></trkpt><trkpt lat="40.4957333" lon="9.0438517"><ele>805.0</ele><time>2026-04-30T10:09:56.837Z</time></trkpt><trkpt lat="40.4955717" lon="9.04375"><ele>805.0</ele><time>2026-04-30T10:09:57.77Z</time></trkpt><trkpt lat="40.495405" lon="9.0436767"><ele>806.6666666666666</ele><time>2026-04-30T10:09:58.771Z</time></trkpt><trkpt lat="40.4952367" lon="9.0436367"><ele>808.3333333333333</ele><time>2026-04-30T10:09:59.768Z</time></trkpt><trkpt lat="40.49506" lon="9.04363"><ele>810.0</ele><time>2026-04-30T10:10:00.773Z</time></trkpt><trkpt lat="40.494885" lon="9.0436583"><ele>810.0</ele><time>2026-04-30T10:10:01.771Z</time></trkpt><trkpt lat="40.4947183" lon="9.043715"><ele>810.0</ele><time>2026-04-30T10:10:02.816Z</time></trkpt><trkpt lat="40.4945583" lon="9.04379"><ele>810.0</ele><time>2026-04-30T10:10:03.77Z</time></trkpt><trkpt lat="40.4944183" lon="9.04388"><ele>813.3333333333333</ele><time>2026-04-30T10:10:04.77Z</time></trkpt><trkpt lat="40.4942733" lon="9.0439517"><ele>816.6666666666666</ele><time>2026-04-30T10:10:05.769Z</time></trkpt><trkpt lat="40.4941233" lon="9.0439967"><ele>820.0</ele><time>2026-04-30T10:10:06.774Z</time></trkpt><trkpt lat="40.4939733" lon="9.0439633"><ele>820.0</ele><time>2026-04-30T10:10:07.771Z</time></trkpt><trkpt lat="40.49383" lon="9.043885"><ele>820.0</ele><time>2026-04-30T10:10:08.776Z</time></trkpt><trkpt lat="40.4936917" lon="9.0437833"><ele>820.0</ele><time>2026-04-30T10:10:09.772Z</time></trkpt><trkpt lat="40.4935483" lon="9.0436583"><ele>824.3333333333333</ele><time>2026-04-30T10:10:10.772Z</time></trkpt><trkpt lat="40.4934083" lon="9.04348"><ele>828.6666666666667</ele><time>2026-04-30T10:10:11.772Z</time></trkpt><trkpt lat="40.4932833" lon="9.0433333"><ele>833.0</ele><time>2026-04-30T10:10:12.773Z</time></trkpt><trkpt lat="40.4931683" lon="9.04321"><ele>833.0</ele><time>2026-04-30T10:10:13.772Z</time></trkpt><trkpt lat="40.4930417" lon="9.0431283"><ele>833.0</ele><time>2026-04-30T10:10:14.775Z</time></trkpt><trkpt lat="40.4929183" lon="9.0430967"><ele>833.0</ele><time>2026-04-30T10:10:15.772Z</time></trkpt><trkpt lat="40.4927983" lon="9.0431383"><ele>833.0</ele><time>2026-04-30T10:10:16.771Z</time></trkpt><trkpt lat="40.4926917" lon="9.0432033"><ele>834.25</ele><time>2026-04-30T10:10:17.772Z</time></trkpt><trkpt lat="40.4925783" lon="9.0432933"><ele>835.5</ele><time>2026-04-30T10:10:18.77Z</time></trkpt><trkpt lat="40.4924517" lon="9.04339"><ele>836.75</ele><time>2026-04-30T10:10:19.772Z</time></trkpt><trkpt lat="40.4923267" lon="9.0434733"><ele>838.0</ele><time>2026-04-30T10:10:20.774Z</time></trkpt><trkpt lat="40.49219" lon="9.0435267"><ele>837.6666666666666</ele><time>2026-04-30T10:10:21.775Z</time></trkpt><trkpt lat="40.49204" lon="9.043565"><ele>837.3333333333333</ele><time>2026-04-30T10:10:22.773Z</time></trkpt><trkpt lat="40.4918817" lon="9.0436033"><ele>837.0</ele><time>2026-04-30T10:10:23.775Z</time></trkpt><trkpt lat="40.4917167" lon="9.0436517"><ele>837.0</ele><time>2026-04-30T10:10:24.774Z</time></trkpt><trkpt lat="40.4915483" lon="9.0437117"><ele>837.0</ele><time>2026-04-30T10:10:25.773Z</time></trkpt><trkpt lat="40.4913783" lon="9.0437683"><ele>837.0</ele><time>2026-04-30T10:10:26.772Z</time></trkpt><trkpt lat="40.4912083" lon="9.0438233"><ele>835.0</ele><time>2026-04-30T10:10:27.77Z</time></trkpt><trkpt lat="40.4910383" lon="9.0438783"><ele>833.0</ele><time>2026-04-30T10:10:28.771Z</time></trkpt><trkpt lat="40.4908683" lon="9.0439317"><ele>831.0</ele><time>2026-04-30T10:10:29.77Z</time></trkpt><trkpt lat="40.490705" lon="9.0439917"><ele>831.0</ele><time>2026-04-30T10:10:30.77Z</time></trkpt><trkpt lat="40.4905533" lon="9.044075"><ele>831.0</ele><time>2026-04-30T10:10:31.768Z</time></trkpt><trkpt lat="40.49042" lon="9.0441817"><ele>831.0</ele><time>2026-04-30T10:10:32.769Z</time></trkpt><trkpt lat="40.4902933" lon="9.0443017"><ele>837.3333333333333</ele><time>2026-04-30T10:10:33.773Z</time></trkpt><trkpt lat="40.4901783" lon="9.0444383"><ele>843.6666666666666</ele><time>2026-04-30T10:10:34.773Z</time></trkpt><trkpt lat="40.4900683" lon="9.044585"><ele>850.0</ele><time>2026-04-30T10:10:35.775Z</time></trkpt><trkpt lat="40.48996" lon="9.044715"><ele>850.0</ele><time>2026-04-30T10:10:36.774Z</time></trkpt><trkpt lat="40.4898467" lon="9.04482"><ele>850.0</ele><time>2026-04-30T10:10:37.771Z</time></trkpt><trkpt lat="40.4897267" lon="9.0449083"><ele>850.0</ele><time>2026-04-30T10:10:38.78Z</time></trkpt><trkpt lat="40.4896017" lon="9.0449767"><ele>850.0</ele><time>2026-04-30T10:10:39.773Z</time></trkpt><trkpt lat="40.489465" lon="9.0450067"><ele>859.3333333333333</ele><time>2026-04-30T10:10:40.771Z</time></trkpt><trkpt lat="40.4893067" lon="9.045"><ele>868.6666666666667</ele><time>2026-04-30T10:10:41.769Z</time></trkpt><trkpt lat="40.4891517" lon="9.045005"><ele>878.0</ele><time>2026-04-30T10:10:42.772Z</time></trkpt><trkpt lat="40.4890033" lon="9.0450033"><ele>878.0</ele><time>2026-04-30T10:10:43.77Z</time></trkpt><trkpt lat="40.48885" lon="9.045015"><ele>878.0</ele><time>2026-04-30T10:10:44.776Z</time></trkpt><trkpt lat="40.4887" lon="9.0450367"><ele>878.0</ele><time>2026-04-30T10:10:45.767Z</time></trkpt><trkpt lat="40.4885383" lon="9.045065"><ele>876.75</ele><time>2026-04-30T10:10:46.771Z</time></trkpt><trkpt lat="40.488385" lon="9.0451133"><ele>875.5</ele><time>2026-04-30T10:10:47.769Z</time></trkpt><trkpt lat="40.4882633" lon="9.0451767"><ele>874.25</ele><time>2026-04-30T10:10:48.772Z</time></trkpt><trkpt lat="40.488175" lon="9.0452683"><ele>873.0</ele><time>2026-04-30T10:10:49.773Z</time></trkpt><trkpt lat="40.4881217" lon="9.0453867"><ele>873.0</ele><time>2026-04-30T10:10:50.778Z</time></trkpt><trkpt lat="40.48811" lon="9.045565"><ele>873.0</ele><time>2026-04-30T10:10:51.77Z</time></trkpt><trkpt lat="40.4881333" lon="9.04575"><ele>873.0</ele><time>2026-04-30T10:10:52.77Z</time></trkpt><trkpt lat="40.4882267" lon="9.0459017"><ele>873.0</ele><time>2026-04-30T10:10:53.77Z</time></trkpt><trkpt lat="40.4883333" lon="9.0460783"><ele>875.6666666666667</ele><time>2026-04-30T10:10:54.768Z</time></trkpt><trkpt lat="40.488455" lon="9.0462517"><ele>878.3333333333334</ele><time>2026-04-30T10:10:55.773Z</time></trkpt><trkpt lat="40.4885817" lon="9.0464217"><ele>881.0</ele><time>2026-04-30T10:10:56.781Z</time></trkpt><trkpt lat="40.4887167" lon="9.046575"><ele>884.0</ele><time>2026-04-30T10:10:57.771Z</time></trkpt><trkpt lat="40.4888333" lon="9.04672"><ele>887.0</ele><time>2026-04-30T10:10:58.768Z</time></trkpt><trkpt lat="40.48895" lon="9.046855"><ele>890.0</ele><time>2026-04-30T10:10:59.771Z</time></trkpt><trkpt lat="40.4890383" lon="9.0469867"><ele>893.0</ele><time>2026-04-30T10:11:00.77Z</time></trkpt><trkpt lat="40.48911" lon="9.0471167"><ele>893.0</ele><time>2026-04-30T10:11:01.777Z</time></trkpt><trkpt lat="40.4891183" lon="9.0472517"><ele>893.0</ele><time>2026-04-30T10:11:02.803Z</time></trkpt><trkpt lat="40.48907" lon="9.04738"><ele>893.0</ele><time>2026-04-30T10:11:03.771Z</time></trkpt><trkpt lat="40.4889967" lon="9.047485"><ele>893.0</ele><time>2026-04-30T10:11:04.771Z</time></trkpt><trkpt lat="40.4889" lon="9.04759"><ele>893.0</ele><time>2026-04-30T10:11:05.773Z</time></trkpt><trkpt lat="40.4887933" lon="9.04768"><ele>893.25</ele><time>2026-04-30T10:11:06.774Z</time></trkpt><trkpt lat="40.4886717" lon="9.0477583"><ele>893.5</ele><time>2026-04-30T10:11:07.778Z</time></trkpt><trkpt lat="40.4885417" lon="9.0478317"><ele>893.75</ele><time>2026-04-30T10:11:08.777Z</time></trkpt><trkpt lat="40.4883983" lon="9.0479"><ele>894.0</ele><time>2026-04-30T10:11:09.77Z</time></trkpt><trkpt lat="40.4882483" lon="9.04796"><ele>894.0</ele><time>2026-04-30T10:11:10.769Z</time></trkpt><trkpt lat="40.4880917" lon="9.0480017"><ele>894.0</ele><time>2026-04-30T10:11:11.773Z</time></trkpt><trkpt lat="40.4879217" lon="9.0480233"><ele>894.0</ele><time>2026-04-30T10:11:12.77Z</time></trkpt><trkpt lat="40.48775" lon="9.0480333"><ele>894.3333333333333</ele><time>2026-04-30T10:11:13.767Z</time></trkpt><trkpt lat="40.4875833" lon="9.0480533"><ele>894.6666666666666</ele><time>2026-04-30T10:11:14.777Z</time></trkpt><trkpt lat="40.4874133" lon="9.0480517"><ele>895.0</ele><time>2026-04-30T10:11:15.768Z</time></trkpt><trkpt lat="40.48723" lon="9.0480417"><ele>896.3333333333333</ele><time>2026-04-30T10:11:16.772Z</time></trkpt><trkpt lat="40.4870517" lon="9.0480417"><ele>897.6666666666667</ele><time>2026-04-30T10:11:17.772Z</time></trkpt><trkpt lat="40.4868783" lon="9.0480567"><ele>899.0</ele><time>2026-04-30T10:11:18.776Z</time></trkpt><trkpt lat="40.4867017" lon="9.0480767"><ele>899.0</ele><time>2026-04-30T10:11:19.77Z</time></trkpt><trkpt lat="40.486525" lon="9.0481017"><ele>899.0</ele><time>2026-04-30T10:11:20.778Z</time></trkpt><trkpt lat="40.4863417" lon="9.048125"><ele>899.0</ele><time>2026-04-30T10:11:21.774Z</time></trkpt><trkpt lat="40.4861683" lon="9.0481433"><ele>901.3333333333334</ele><time>2026-04-30T10:11:22.772Z</time></trkpt><trkpt lat="40.4860017" lon="9.0481417"><ele>903.6666666666667</ele><time>2026-04-30T10:11:23.771Z</time></trkpt><trkpt lat="40.4858433" lon="9.0481167"><ele>906.0</ele><time>2026-04-30T10:11:24.771Z</time></trkpt><trkpt lat="40.4856883" lon="9.0480767"><ele>906.0</ele><time>2026-04-30T10:11:25.774Z</time></trkpt><trkpt lat="40.48554" lon="9.04802"><ele>906.0</ele><time>2026-04-30T10:11:26.84Z</time></trkpt><trkpt lat="40.4853983" lon="9.0479633"><ele>906.0</ele><time>2026-04-30T10:11:27.768Z</time></trkpt><trkpt lat="40.48523" lon="9.0478867"><ele>911.0</ele><time>2026-04-30T10:11:28.771Z</time></trkpt><trkpt lat="40.485065" lon="9.0478233"><ele>916.0</ele><time>2026-04-30T10:11:29.773Z</time></trkpt><trkpt lat="40.4848917" lon="9.04778"><ele>921.0</ele><time>2026-04-30T10:11:30.768Z</time></trkpt><trkpt lat="40.484715" lon="9.0477233"><ele>921.6666666666667</ele><time>2026-04-30T10:11:31.77Z</time></trkpt><trkpt lat="40.4845333" lon="9.0477083"><ele>922.3333333333334</ele><time>2026-04-30T10:11:32.809Z</time></trkpt><trkpt lat="40.4843483" lon="9.0477"><ele>923.0</ele><time>2026-04-30T10:11:33.77Z</time></trkpt><trkpt lat="40.4841617" lon="9.0476983"><ele>923.0</ele><time>2026-04-30T10:11:34.767Z</time></trkpt><trkpt lat="40.48398" lon="9.0476983"><ele>923.0</ele><time>2026-04-30T10:11:35.775Z</time></trkpt><trkpt lat="40.4838" lon="9.0476833"><ele>923.0</ele><time>2026-04-30T10:11:36.769Z</time></trkpt><trkpt lat="40.483615" lon="9.0476617"><ele>923.0</ele><time>2026-04-30T10:11:37.768Z</time></trkpt><trkpt lat="40.48343" lon="9.047635"><ele>923.0</ele><time>2026-04-30T10:11:38.776Z</time></trkpt><trkpt lat="40.48325" lon="9.0476133"><ele>923.0</ele><time>2026-04-30T10:11:39.768Z</time></trkpt><trkpt lat="40.4830633" lon="9.047585"><ele>926.0</ele><time>2026-04-30T10:11:40.773Z</time></trkpt><trkpt lat="40.4828683" lon="9.0475767"><ele>929.0</ele><time>2026-04-30T10:11:41.77Z</time></trkpt><trkpt lat="40.482695" lon="9.0475567"><ele>932.0</ele><time>2026-04-30T10:11:42.772Z</time></trkpt><trkpt lat="40.4825133" lon="9.04751"><ele>932.0</ele><time>2026-04-30T10:11:43.772Z</time></trkpt><trkpt lat="40.4823317" lon="9.04747"><ele>932.0</ele><time>2026-04-30T10:11:44.777Z</time></trkpt><trkpt lat="40.4821617" lon="9.0474333"><ele>932.0</ele><time>2026-04-30T10:11:45.774Z</time></trkpt><trkpt lat="40.4819983" lon="9.0473783"><ele>927.6666666666667</ele><time>2026-04-30T10:11:46.771Z</time></trkpt><trkpt lat="40.481825" lon="9.0473417"><ele>923.3333333333333</ele><time>2026-04-30T10:11:47.77Z</time></trkpt><trkpt lat="40.4816517" lon="9.0472933"><ele>919.0</ele><time>2026-04-30T10:11:48.77Z</time></trkpt><trkpt lat="40.4814833" lon="9.0472617"><ele>919.0</ele><time>2026-04-30T10:11:49.772Z</time></trkpt><trkpt lat="40.481305" lon="9.047225"><ele>919.0</ele><time>2026-04-30T10:11:50.776Z</time></trkpt><trkpt lat="40.4811583" lon="9.0472333"><ele>919.0</ele><time>2026-04-30T10:11:51.772Z</time></trkpt><trkpt lat="40.4809933" lon="9.0472183"><ele>921.0</ele><time>2026-04-30T10:11:52.771Z</time></trkpt><trkpt lat="40.4808383" lon="9.0472217"><ele>923.0</ele><time>2026-04-30T10:11:53.772Z</time></trkpt><trkpt lat="40.4806767" lon="9.047245"><ele>925.0</ele><time>2026-04-30T10:11:54.772Z</time></trkpt><trkpt lat="40.4805267" lon="9.0472667"><ele>927.5</ele><time>2026-04-30T10:11:55.767Z</time></trkpt><trkpt lat="40.4803817" lon="9.0472833"><ele>930.0</ele><time>2026-04-30T10:11:56.837Z</time></trkpt><trkpt lat="40.480235" lon="9.0472667"><ele>932.5</ele><time>2026-04-30T10:11:57.768Z</time></trkpt><trkpt lat="40.480085" lon="9.0472267"><ele>935.0</ele><time>2026-04-30T10:11:58.769Z</time></trkpt><trkpt lat="40.4799367" lon="9.0471733"><ele>935.0</ele><time>2026-04-30T10:11:59.771Z</time></trkpt><trkpt lat="40.4797883" lon="9.0471033"><ele>935.0</ele><time>2026-04-30T10:12:00.774Z</time></trkpt><trkpt lat="40.479635" lon="9.047035"><ele>935.0</ele><time>2026-04-30T10:12:01.768Z</time></trkpt><trkpt lat="40.4794783" lon="9.0469783"><ele>938.6666666666667</ele><time>2026-04-30T10:12:02.81Z</time></trkpt><trkpt lat="40.4793183" lon="9.0469233"><ele>942.3333333333333</ele><time>2026-04-30T10:12:03.77Z</time></trkpt><trkpt lat="40.4791417" lon="9.04686"><ele>946.0</ele><time>2026-04-30T10:12:04.774Z</time></trkpt><trkpt lat="40.4789633" lon="9.0467883"><ele>946.0</ele><time>2026-04-30T10:12:05.772Z</time></trkpt><trkpt lat="40.4787817" lon="9.0467033"><ele>946.0</ele><time>2026-04-30T10:12:06.77Z</time></trkpt><trkpt lat="40.478615" lon="9.0466067"><ele>946.0</ele><time>2026-04-30T10:12:07.771Z</time></trkpt><trkpt lat="40.4784567" lon="9.046525"><ele>944.3333333333333</ele><time>2026-04-30T10:12:08.777Z</time></trkpt><trkpt lat="40.4783133" lon="9.046435"><ele>942.6666666666667</ele><time>2026-04-30T10:12:09.773Z</time></trkpt><trkpt lat="40.478155" lon="9.0463367"><ele>941.0</ele><time>2026-04-30T10:12:10.774Z</time></trkpt><trkpt lat="40.477995" lon="9.0462417"><ele>944.3333333333334</ele><time>2026-04-30T10:12:11.773Z</time></trkpt><trkpt lat="40.4778333" lon="9.04615"><ele>947.6666666666667</ele><time>2026-04-30T10:12:12.771Z</time></trkpt><trkpt lat="40.477665" lon="9.0460783"><ele>951.0</ele><time>2026-04-30T10:12:13.771Z</time></trkpt><trkpt lat="40.4774867" lon="9.0460333"><ele>951.0</ele><time>2026-04-30T10:12:14.781Z</time></trkpt><trkpt lat="40.4773017" lon="9.0460033"><ele>951.0</ele><time>2026-04-30T10:12:15.774Z</time></trkpt><trkpt lat="40.4771317" lon="9.0459633"><ele>951.0</ele><time>2026-04-30T10:12:16.77Z</time></trkpt><trkpt lat="40.4769483" lon="9.04595"><ele>953.0</ele><time>2026-04-30T10:12:17.769Z</time></trkpt><trkpt lat="40.4767767" lon="9.0459233"><ele>955.0</ele><time>2026-04-30T10:12:18.773Z</time></trkpt><trkpt lat="40.4765883" lon="9.045925"><ele>957.0</ele><time>2026-04-30T10:12:19.772Z</time></trkpt><trkpt lat="40.476415" lon="9.0459267"><ele>959.0</ele><time>2026-04-30T10:12:20.777Z</time></trkpt><trkpt lat="40.4762417" lon="9.045935"><ele>961.0</ele><time>2026-04-30T10:12:21.774Z</time></trkpt><trkpt lat="40.47607" lon="9.0459917"><ele>963.0</ele><time>2026-04-30T10:12:22.772Z</time></trkpt><trkpt lat="40.4759067" lon="9.04606"><ele>963.0</ele><time>2026-04-30T10:12:23.768Z</time></trkpt><trkpt lat="40.475745" lon="9.0461417"><ele>963.0</ele><time>2026-04-30T10:12:24.771Z</time></trkpt><trkpt lat="40.4755883" lon="9.046225"><ele>963.0</ele><time>2026-04-30T10:12:25.771Z</time></trkpt><trkpt lat="40.47543" lon="9.0463133"><ele>964.3333333333333</ele><time>2026-04-30T10:12:26.834Z</time></trkpt><trkpt lat="40.4752733" lon="9.04639"><ele>965.6666666666666</ele><time>2026-04-30T10:12:27.769Z</time></trkpt><trkpt lat="40.4751117" lon="9.046495"><ele>967.0</ele><time>2026-04-30T10:12:28.772Z</time></trkpt><trkpt lat="40.4749517" lon="9.0465883"><ele>969.3333333333333</ele><time>2026-04-30T10:12:29.773Z</time></trkpt><trkpt lat="40.4747883" lon="9.0466817"><ele>971.6666666666667</ele><time>2026-04-30T10:12:30.773Z</time></trkpt><trkpt lat="40.4746267" lon="9.04678"><ele>974.0</ele><time>2026-04-30T10:12:31.769Z</time></trkpt><trkpt lat="40.47447" lon="9.0468983"><ele>975.3333333333334</ele><time>2026-04-30T10:12:32.814Z</time></trkpt><trkpt lat="40.474315" lon="9.0470233"><ele>976.6666666666667</ele><time>2026-04-30T10:12:33.775Z</time></trkpt><trkpt lat="40.4741617" lon="9.04714"><ele>978.0</ele><time>2026-04-30T10:12:34.772Z</time></trkpt><trkpt lat="40.4739983" lon="9.0472617"><ele>978.0</ele><time>2026-04-30T10:12:35.768Z</time></trkpt><trkpt lat="40.4738283" lon="9.0473733"><ele>978.0</ele><time>2026-04-30T10:12:36.771Z</time></trkpt><trkpt lat="40.473685" lon="9.0474983"><ele>978.0</ele><time>2026-04-30T10:12:37.772Z</time></trkpt><trkpt lat="40.473515" lon="9.0476067"><ele>979.3333333333333</ele><time>2026-04-30T10:12:38.781Z</time></trkpt><trkpt lat="40.473345" lon="9.047695"><ele>980.6666666666666</ele><time>2026-04-30T10:12:39.773Z</time></trkpt><trkpt lat="40.4731683" lon="9.0477733"><ele>982.0</ele><time>2026-04-30T10:12:40.77Z</time></trkpt><trkpt lat="40.4729933" lon="9.047845"><ele>983.3333333333333</ele><time>2026-04-30T10:12:41.771Z</time></trkpt><trkpt lat="40.4728283" lon="9.0479217"><ele>984.6666666666667</ele><time>2026-04-30T10:12:42.771Z</time></trkpt><trkpt lat="40.4726717" lon="9.0480017"><ele>986.0</ele><time>2026-04-30T10:12:43.768Z</time></trkpt><trkpt lat="40.4725267" lon="9.0480617"><ele>986.0</ele><time>2026-04-30T10:12:44.776Z</time></trkpt><trkpt lat="40.4723733" lon="9.0481367"><ele>986.0</ele><time>2026-04-30T10:12:45.771Z</time></trkpt><trkpt lat="40.4722067" lon="9.04821"><ele>986.0</ele><time>2026-04-30T10:12:46.772Z</time></trkpt><trkpt lat="40.4720567" lon="9.0482817"><ele>983.6666666666667</ele><time>2026-04-30T10:12:47.772Z</time></trkpt><trkpt lat="40.47191" lon="9.0483733"><ele>981.3333333333333</ele><time>2026-04-30T10:12:48.773Z</time></trkpt><trkpt lat="40.4717617" lon="9.048425"><ele>979.0</ele><time>2026-04-30T10:12:49.773Z</time></trkpt><trkpt lat="40.471605" lon="9.0484867"><ele>979.0</ele><time>2026-04-30T10:12:50.775Z</time></trkpt><trkpt lat="40.47144" lon="9.048545"><ele>979.0</ele><time>2026-04-30T10:12:51.77Z</time></trkpt><trkpt lat="40.4712767" lon="9.0485917"><ele>979.0</ele><time>2026-04-30T10:12:52.772Z</time></trkpt><trkpt lat="40.4710867" lon="9.0486583"><ele>980.0</ele><time>2026-04-30T10:12:53.772Z</time></trkpt><trkpt lat="40.470915" lon="9.0486867"><ele>981.0</ele><time>2026-04-30T10:12:54.773Z</time></trkpt><trkpt lat="40.4707467" lon="9.04871"><ele>982.0</ele><time>2026-04-30T10:12:55.767Z</time></trkpt><trkpt lat="40.4705667" lon="9.0487767"><ele>983.6666666666666</ele><time>2026-04-30T10:12:56.837Z</time></trkpt><trkpt lat="40.4703933" lon="9.04883"><ele>985.3333333333333</ele><time>2026-04-30T10:12:57.77Z</time></trkpt><trkpt lat="40.4702433" lon="9.04889"><ele>987.0</ele><time>2026-04-30T10:12:58.768Z</time></trkpt><trkpt lat="40.470105" lon="9.0489683"><ele>987.0</ele><time>2026-04-30T10:12:59.774Z</time></trkpt><trkpt lat="40.4699967" lon="9.0490517"><ele>987.0</ele><time>2026-04-30T10:13:00.771Z</time></trkpt><trkpt lat="40.4699017" lon="9.0491417"><ele>987.0</ele><time>2026-04-30T10:13:01.772Z</time></trkpt><trkpt lat="40.46981" lon="9.0492133"><ele>987.0</ele><time>2026-04-30T10:13:02.81Z</time></trkpt><trkpt lat="40.4697117" lon="9.049265"><ele>979.5</ele><time>2026-04-30T10:13:03.768Z</time></trkpt><trkpt lat="40.4696083" lon="9.0493"><ele>972.0</ele><time>2026-04-30T10:13:04.775Z</time></trkpt><trkpt lat="40.46949" lon="9.04931"><ele>964.5</ele><time>2026-04-30T10:13:05.773Z</time></trkpt><trkpt lat="40.469315" lon="9.0492433"><ele>957.0</ele><time>2026-04-30T10:13:06.775Z</time></trkpt><trkpt lat="40.4691733" lon="9.0492"><ele>957.0</ele><time>2026-04-30T10:13:07.774Z</time></trkpt><trkpt lat="40.4690433" lon="9.049145"><ele>957.0</ele><time>2026-04-30T10:13:08.777Z</time></trkpt><trkpt lat="40.4689367" lon="9.049065"><ele>957.0</ele><time>2026-04-30T10:13:09.772Z</time></trkpt><trkpt lat="40.4688283" lon="9.0489833"><ele>957.0</ele><time>2026-04-30T10:13:10.77Z</time></trkpt><trkpt lat="40.46873" lon="9.0488817"><ele>956.0</ele><time>2026-04-30T10:13:11.772Z</time></trkpt><trkpt lat="40.4686433" lon="9.0487467"><ele>955.0</ele><time>2026-04-30T10:13:12.77Z</time></trkpt><trkpt lat="40.46857" lon="9.0485833"><ele>954.0</ele><time>2026-04-30T10:13:13.769Z</time></trkpt><trkpt lat="40.4684967" lon="9.0484217"><ele>953.0</ele><time>2026-04-30T10:13:14.774Z</time></trkpt><trkpt lat="40.4684433" lon="9.0482417"><ele>953.0</ele><time>2026-04-30T10:13:15.774Z</time></trkpt><trkpt lat="40.468405" lon="9.048045"><ele>953.0</ele><time>2026-04-30T10:13:16.772Z</time></trkpt><trkpt lat="40.4683683" lon="9.0478433"><ele>953.0</ele><time>2026-04-30T10:13:17.77Z</time></trkpt><trkpt lat="40.4683433" lon="9.0476283"><ele>955.3333333333334</ele><time>2026-04-30T10:13:18.772Z</time></trkpt><trkpt lat="40.4683317" lon="9.0473983"><ele>957.6666666666667</ele><time>2026-04-30T10:13:19.772Z</time></trkpt><trkpt lat="40.4683167" lon="9.0471783"><ele>960.0</ele><time>2026-04-30T10:13:20.774Z</time></trkpt><trkpt lat="40.4682833" lon="9.0469567"><ele>960.0</ele><time>2026-04-30T10:13:21.77Z</time></trkpt><trkpt lat="40.4682483" lon="9.0467633"><ele>960.0</ele><time>2026-04-30T10:13:22.773Z</time></trkpt><trkpt lat="40.4682017" lon="9.0465833"><ele>960.0</ele><time>2026-04-30T10:13:23.767Z</time></trkpt><trkpt lat="40.4681567" lon="9.0464167"><ele>960.0</ele><time>2026-04-30T10:13:24.769Z</time></trkpt><trkpt lat="40.468115" lon="9.0462483"><ele>960.5</ele><time>2026-04-30T10:13:25.773Z</time></trkpt><trkpt lat="40.4680933" lon="9.04607"><ele>961.0</ele><time>2026-04-30T10:13:26.834Z</time></trkpt><trkpt lat="40.46811" lon="9.045865"><ele>961.5</ele><time>2026-04-30T10:13:27.771Z</time></trkpt><trkpt lat="40.4681133" lon="9.0456683"><ele>962.0</ele><time>2026-04-30T10:13:28.772Z</time></trkpt><trkpt lat="40.4681317" lon="9.045465"><ele>960.0</ele><time>2026-04-30T10:13:29.769Z</time></trkpt><trkpt lat="40.4681517" lon="9.0452683"><ele>958.0</ele><time>2026-04-30T10:13:30.774Z</time></trkpt><trkpt lat="40.4681817" lon="9.0450683"><ele>956.0</ele><time>2026-04-30T10:13:31.773Z</time></trkpt><trkpt lat="40.4682383" lon="9.0448533"><ele>956.0</ele><time>2026-04-30T10:13:32.792Z</time></trkpt><trkpt lat="40.468295" lon="9.0446483"><ele>956.0</ele><time>2026-04-30T10:13:33.77Z</time></trkpt><trkpt lat="40.468345" lon="9.04449"><ele>956.0</ele><time>2026-04-30T10:13:34.771Z</time></trkpt><trkpt lat="40.4684067" lon="9.0443133"><ele>956.0</ele><time>2026-04-30T10:13:35.774Z</time></trkpt><trkpt lat="40.468425" lon="9.0441467"><ele>958.0</ele><time>2026-04-30T10:13:36.771Z</time></trkpt><trkpt lat="40.4684067" lon="9.043975"><ele>960.0</ele><time>2026-04-30T10:13:37.769Z</time></trkpt><trkpt lat="40.468345" lon="9.0438317"><ele>962.0</ele><time>2026-04-30T10:13:38.779Z</time></trkpt><trkpt lat="40.4682817" lon="9.04371"><ele>964.0</ele><time>2026-04-30T10:13:39.772Z</time></trkpt><trkpt lat="40.468175" lon="9.0436433"><ele>964.0</ele><time>2026-04-30T10:13:40.768Z</time></trkpt><trkpt lat="40.4680633" lon="9.0435783"><ele>964.0</ele><time>2026-04-30T10:13:41.769Z</time></trkpt><trkpt lat="40.4679467" lon="9.0435217"><ele>964.0</ele><time>2026-04-30T10:13:42.773Z</time></trkpt><trkpt lat="40.4678617" lon="9.0434483"><ele>964.0</ele><time>2026-04-30T10:13:43.771Z</time></trkpt><trkpt lat="40.46781" lon="9.04333"><ele>964.5</ele><time>2026-04-30T10:13:44.778Z</time></trkpt><trkpt lat="40.4677683" lon="9.043195"><ele>965.0</ele><time>2026-04-30T10:13:45.772Z</time></trkpt><trkpt lat="40.4677033" lon="9.04308"><ele>965.5</ele><time>2026-04-30T10:13:46.771Z</time></trkpt><trkpt lat="40.4676317" lon="9.0429533"><ele>966.0</ele><time>2026-04-30T10:13:47.771Z</time></trkpt><trkpt lat="40.4675517" lon="9.042835"><ele>966.0</ele><time>2026-04-30T10:13:48.768Z</time></trkpt><trkpt lat="40.4674483" lon="9.0427367"><ele>966.0</ele><time>2026-04-30T10:13:49.769Z</time></trkpt><trkpt lat="40.4673333" lon="9.0426533"><ele>966.0</ele><time>2026-04-30T10:13:50.776Z</time></trkpt><trkpt lat="40.4671567" lon="9.0426317"><ele>966.0</ele><time>2026-04-30T10:13:51.773Z</time></trkpt><trkpt lat="40.4669867" lon="9.042615"><ele>962.6666666666667</ele><time>2026-04-30T10:13:52.773Z</time></trkpt><trkpt lat="40.466795" lon="9.0426217"><ele>959.3333333333334</ele><time>2026-04-30T10:13:53.774Z</time></trkpt><trkpt lat="40.4666083" lon="9.04264"><ele>956.0</ele><time>2026-04-30T10:13:54.773Z</time></trkpt><trkpt lat="40.4664467" lon="9.0426367"><ele>956.0</ele><time>2026-04-30T10:13:55.769Z</time></trkpt><trkpt lat="40.4662883" lon="9.04263"><ele>956.0</ele><time>2026-04-30T10:13:56.838Z</time></trkpt><trkpt lat="40.4661367" lon="9.0426333"><ele>956.0</ele><time>2026-04-30T10:13:57.767Z</time></trkpt><trkpt lat="40.465995" lon="9.0426067"><ele>950.3333333333334</ele><time>2026-04-30T10:13:58.769Z</time></trkpt><trkpt lat="40.4658517" lon="9.0425483"><ele>944.6666666666667</ele><time>2026-04-30T10:13:59.771Z</time></trkpt><trkpt lat="40.4656933" lon="9.042515"><ele>939.0</ele><time>2026-04-30T10:14:00.771Z</time></trkpt><trkpt lat="40.4655367" lon="9.0424733"><ele>946.6666666666667</ele><time>2026-04-30T10:14:01.77Z</time></trkpt><trkpt lat="40.4653717" lon="9.0424517"><ele>954.3333333333334</ele><time>2026-04-30T10:14:02.818Z</time></trkpt><trkpt lat="40.4651983" lon="9.0424433"><ele>962.0</ele><time>2026-04-30T10:14:03.769Z</time></trkpt><trkpt lat="40.4650233" lon="9.042445"><ele>962.0</ele><time>2026-04-30T10:14:04.772Z</time></trkpt><trkpt lat="40.46485" lon="9.042455"><ele>962.0</ele><time>2026-04-30T10:14:05.769Z</time></trkpt><trkpt lat="40.4646817" lon="9.0424733"><ele>962.0</ele><time>2026-04-30T10:14:06.774Z</time></trkpt><trkpt lat="40.46452" lon="9.0424933"><ele>952.75</ele><time>2026-04-30T10:14:07.769Z</time></trkpt><trkpt lat="40.4643633" lon="9.04252"><ele>943.5</ele><time>2026-04-30T10:14:08.774Z</time></trkpt><trkpt lat="40.464215" lon="9.0425483"><ele>934.25</ele><time>2026-04-30T10:14:09.767Z</time></trkpt><trkpt lat="40.4640783" lon="9.0425583"><ele>925.0</ele><time>2026-04-30T10:14:10.767Z</time></trkpt><trkpt lat="40.4639417" lon="9.0425467"><ele>925.0</ele><time>2026-04-30T10:14:11.769Z</time></trkpt><trkpt lat="40.4638133" lon="9.0425217"><ele>925.0</ele><time>2026-04-30T10:14:12.772Z</time></trkpt><trkpt lat="40.4636883" lon="9.04245"><ele>925.0</ele><time>2026-04-30T10:14:13.768Z</time></trkpt><trkpt lat="40.4635633" lon="9.04235"><ele>925.0</ele><time>2026-04-30T10:14:14.774Z</time></trkpt><trkpt lat="40.46344" lon="9.0422567"><ele>924.25</ele><time>2026-04-30T10:14:15.768Z</time></trkpt><trkpt lat="40.4633133" lon="9.0421817"><ele>923.5</ele><time>2026-04-30T10:14:16.771Z</time></trkpt><trkpt lat="40.4631933" lon="9.0421133"><ele>922.75</ele><time>2026-04-30T10:14:17.77Z</time></trkpt><trkpt lat="40.4630833" lon="9.0420367"><ele>922.0</ele><time>2026-04-30T10:14:18.773Z</time></trkpt><trkpt lat="40.4629883" lon="9.0419433"><ele>917.25</ele><time>2026-04-30T10:14:19.775Z</time></trkpt><trkpt lat="40.4629067" lon="9.041835"><ele>912.5</ele><time>2026-04-30T10:14:20.78Z</time></trkpt><trkpt lat="40.4628383" lon="9.0417183"><ele>907.75</ele><time>2026-04-30T10:14:21.769Z</time></trkpt><trkpt lat="40.4628283" lon="9.0415167"><ele>903.0</ele><time>2026-04-30T10:14:22.77Z</time></trkpt><trkpt lat="40.462805" lon="9.0413383"><ele>903.0</ele><time>2026-04-30T10:14:23.771Z</time></trkpt><trkpt lat="40.4627683" lon="9.041165"><ele>903.0</ele><time>2026-04-30T10:14:24.774Z</time></trkpt><trkpt lat="40.4627133" lon="9.040995"><ele>903.0</ele><time>2026-04-30T10:14:25.771Z</time></trkpt><trkpt lat="40.4626433" lon="9.04083"><ele>903.0</ele><time>2026-04-30T10:14:26.835Z</time></trkpt><trkpt lat="40.4625517" lon="9.0406783"><ele>915.6666666666667</ele><time>2026-04-30T10:14:27.769Z</time></trkpt><trkpt lat="40.46243" lon="9.0405533"><ele>928.3333333333334</ele><time>2026-04-30T10:14:28.77Z</time></trkpt><trkpt lat="40.4623017" lon="9.04043"><ele>941.0</ele><time>2026-04-30T10:14:29.768Z</time></trkpt><trkpt lat="40.46218" lon="9.040305"><ele>932.3333333333334</ele><time>2026-04-30T10:14:30.767Z</time></trkpt><trkpt lat="40.4620383" lon="9.0402217"><ele>923.6666666666667</ele><time>2026-04-30T10:14:31.768Z</time></trkpt><trkpt lat="40.4618917" lon="9.0401617"><ele>915.0</ele><time>2026-04-30T10:14:32.836Z</time></trkpt><trkpt lat="40.461745" lon="9.0400983"><ele>915.0</ele><time>2026-04-30T10:14:33.768Z</time></trkpt><trkpt lat="40.4615983" lon="9.04003"><ele>915.0</ele><time>2026-04-30T10:14:34.771Z</time></trkpt><trkpt lat="40.4614567" lon="9.0399517"><ele>915.0</ele><time>2026-04-30T10:14:35.773Z</time></trkpt><trkpt lat="40.461325" lon="9.0398583"><ele>921.25</ele><time>2026-04-30T10:14:36.771Z</time></trkpt><trkpt lat="40.4611917" lon="9.0397883"><ele>927.5</ele><time>2026-04-30T10:14:37.778Z</time></trkpt><trkpt lat="40.4610517" lon="9.03975"><ele>933.75</ele><time>2026-04-30T10:14:38.774Z</time></trkpt><trkpt lat="40.460905" lon="9.03975"><ele>940.0</ele><time>2026-04-30T10:14:39.769Z</time></trkpt><trkpt lat="40.4607533" lon="9.0397783"><ele>940.0</ele><time>2026-04-30T10:14:40.767Z</time></trkpt><trkpt lat="40.4606133" lon="9.0398133"><ele>940.0</ele><time>2026-04-30T10:14:41.771Z</time></trkpt><trkpt lat="40.46047" lon="9.0398583"><ele>940.0</ele><time>2026-04-30T10:14:42.769Z</time></trkpt><trkpt lat="40.4603267" lon="9.039875"><ele>940.0</ele><time>2026-04-30T10:14:43.771Z</time></trkpt><trkpt lat="40.46018" lon="9.039865"><ele>931.75</ele><time>2026-04-30T10:14:44.784Z</time></trkpt><trkpt lat="40.4600367" lon="9.0398283"><ele>923.5</ele><time>2026-04-30T10:14:45.775Z</time></trkpt><trkpt lat="40.4598967" lon="9.0397767"><ele>915.25</ele><time>2026-04-30T10:14:46.769Z</time></trkpt><trkpt lat="40.4597583" lon="9.0397067"><ele>907.0</ele><time>2026-04-30T10:14:47.775Z</time></trkpt><trkpt lat="40.4596417" lon="9.0396133"><ele>903.5</ele><time>2026-04-30T10:14:48.77Z</time></trkpt><trkpt lat="40.4595283" lon="9.039525"><ele>900.0</ele><time>2026-04-30T10:14:49.771Z</time></trkpt><trkpt lat="40.459435" lon="9.0394217"><ele>896.5</ele><time>2026-04-30T10:14:50.774Z</time></trkpt><trkpt lat="40.4593617" lon="9.0392933"><ele>893.0</ele><time>2026-04-30T10:14:51.768Z</time></trkpt><trkpt lat="40.4593183" lon="9.03913"><ele>893.0</ele><time>2026-04-30T10:14:52.767Z</time></trkpt><trkpt lat="40.4592983" lon="9.0389333"><ele>893.0</ele><time>2026-04-30T10:14:53.767Z</time></trkpt><trkpt lat="40.4592717" lon="9.038765"><ele>893.0</ele><time>2026-04-30T10:14:54.768Z</time></trkpt><trkpt lat="40.4592083" lon="9.0386267"><ele>893.0</ele><time>2026-04-30T10:14:55.768Z</time></trkpt><trkpt lat="40.459135" lon="9.03851"><ele>893.0</ele><time>2026-04-30T10:14:56.835Z</time></trkpt><trkpt lat="40.45903" lon="9.03846"><ele>893.0</ele><time>2026-04-30T10:14:57.769Z</time></trkpt><trkpt lat="40.4589033" lon="9.0384417"><ele>893.0</ele><time>2026-04-30T10:14:58.77Z</time></trkpt><trkpt lat="40.458775" lon="9.0384367"><ele>893.0</ele><time>2026-04-30T10:14:59.77Z</time></trkpt><trkpt lat="40.45865" lon="9.0384183"><ele>895.5</ele><time>2026-04-30T10:15:00.768Z</time></trkpt><trkpt lat="40.4585267" lon="9.0383867"><ele>898.0</ele><time>2026-04-30T10:15:01.769Z</time></trkpt><trkpt lat="40.4584017" lon="9.0383333"><ele>900.5</ele><time>2026-04-30T10:15:02.802Z</time></trkpt><trkpt lat="40.45828" lon="9.0382567"><ele>903.0</ele><time>2026-04-30T10:15:03.768Z</time></trkpt><trkpt lat="40.4581717" lon="9.0381533"><ele>903.0</ele><time>2026-04-30T10:15:04.768Z</time></trkpt><trkpt lat="40.458095" lon="9.03801"><ele>903.0</ele><time>2026-04-30T10:15:05.767Z</time></trkpt><trkpt lat="40.4580183" lon="9.0378967"><ele>903.0</ele><time>2026-04-30T10:15:06.774Z</time></trkpt><trkpt lat="40.45796" lon="9.0377833"><ele>903.0</ele><time>2026-04-30T10:15:07.769Z</time></trkpt><trkpt lat="40.4578933" lon="9.0377017"><ele>903.0</ele><time>2026-04-30T10:15:08.777Z</time></trkpt><trkpt lat="40.4578383" lon="9.0376167"><ele>902.5999999999999</ele><time>2026-04-30T10:15:09.766Z</time></trkpt><trkpt lat="40.4578" lon="9.037535"><ele>902.1999999999999</ele><time>2026-04-30T10:15:10.772Z</time></trkpt><trkpt lat="40.4577483" lon="9.0374833"><ele>901.8</ele><time>2026-04-30T10:15:11.771Z</time></trkpt><trkpt lat="40.457625" lon="9.0374517"><ele>901.4</ele><time>2026-04-30T10:15:13.773Z</time></trkpt><trkpt lat="40.4574817" lon="9.037485"><ele>901.0</ele><time>2026-04-30T10:15:15.772Z</time></trkpt><trkpt lat="40.45739" lon="9.0375267"><ele>901.0</ele><time>2026-04-30T10:15:16.77Z</time></trkpt><trkpt lat="40.45729" lon="9.0375767"><ele>901.0</ele><time>2026-04-30T10:15:17.77Z</time></trkpt><trkpt lat="40.4571767" lon="9.0376433"><ele>901.0</ele><time>2026-04-30T10:15:18.769Z</time></trkpt><trkpt lat="40.4570633" lon="9.0377067"><ele>901.0</ele><time>2026-04-30T10:15:19.77Z</time></trkpt><trkpt lat="40.4569567" lon="9.03776"><ele>905.75</ele><time>2026-04-30T10:15:20.775Z</time></trkpt><trkpt lat="40.4568483" lon="9.0378067"><ele>910.5</ele><time>2026-04-30T10:15:21.772Z</time></trkpt><trkpt lat="40.4567333" lon="9.0378533"><ele>915.25</ele><time>2026-04-30T10:15:22.772Z</time></trkpt><trkpt lat="40.4566233" lon="9.0378983"><ele>920.0</ele><time>2026-04-30T10:15:23.768Z</time></trkpt><trkpt lat="40.456515" lon="9.0379267"><ele>920.0</ele><time>2026-04-30T10:15:24.772Z</time></trkpt><trkpt lat="40.4564067" lon="9.0379517"><ele>920.0</ele><time>2026-04-30T10:15:25.769Z</time></trkpt><trkpt lat="40.4562933" lon="9.0379633"><ele>920.0</ele><time>2026-04-30T10:15:26.82Z</time></trkpt><trkpt lat="40.4561783" lon="9.0379867"><ele>920.0</ele><time>2026-04-30T10:15:27.765Z</time></trkpt><trkpt lat="40.456065" lon="9.0380167"><ele>925.0</ele><time>2026-04-30T10:15:28.773Z</time></trkpt><trkpt lat="40.4559533" lon="9.0380567"><ele>930.0</ele><time>2026-04-30T10:15:29.771Z</time></trkpt><trkpt lat="40.4558433" lon="9.038105"><ele>935.0</ele><time>2026-04-30T10:15:30.774Z</time></trkpt><trkpt lat="40.4557367" lon="9.038165"><ele>940.0</ele><time>2026-04-30T10:15:31.773Z</time></trkpt><trkpt lat="40.455635" lon="9.0382367"><ele>939.2</ele><time>2026-04-30T10:15:32.769Z</time></trkpt><trkpt lat="40.455535" lon="9.0383033"><ele>938.4</ele><time>2026-04-30T10:15:33.771Z</time></trkpt><trkpt lat="40.4554317" lon="9.038365"><ele>937.5999999999999</ele><time>2026-04-30T10:15:34.772Z</time></trkpt><trkpt lat="40.4553317" lon="9.0384167"><ele>936.8</ele><time>2026-04-30T10:15:35.774Z</time></trkpt><trkpt lat="40.45523" lon="9.0384633"><ele>936.0</ele><time>2026-04-30T10:15:36.769Z</time></trkpt><trkpt lat="40.4551233" lon="9.0385"><ele>936.0</ele><time>2026-04-30T10:15:37.766Z</time></trkpt><trkpt lat="40.4550167" lon="9.0385367"><ele>936.0</ele><time>2026-04-30T10:15:38.778Z</time></trkpt><trkpt lat="40.4549083" lon="9.0385583"><ele>936.0</ele><time>2026-04-30T10:15:39.769Z</time></trkpt><trkpt lat="40.4547933" lon="9.0386067"><ele>936.0</ele><time>2026-04-30T10:15:40.769Z</time></trkpt><trkpt lat="40.4546833" lon="9.038655"><ele>934.8</ele><time>2026-04-30T10:15:41.774Z</time></trkpt><trkpt lat="40.4545733" lon="9.0387233"><ele>933.5999999999999</ele><time>2026-04-30T10:15:42.772Z</time></trkpt><trkpt lat="40.4544767" lon="9.0387833"><ele>932.4</ele><time>2026-04-30T10:15:43.771Z</time></trkpt><trkpt lat="40.454395" lon="9.038835"><ele>931.2</ele><time>2026-04-30T10:15:44.776Z</time></trkpt><trkpt lat="40.4543183" lon="9.0388667"><ele>930.0</ele><time>2026-04-30T10:15:45.773Z</time></trkpt><trkpt lat="40.45417" lon="9.0388483"><ele>930.0</ele><time>2026-04-30T10:15:47.77Z</time></trkpt><trkpt lat="40.4541267" lon="9.0387417"><ele>930.0</ele><time>2026-04-30T10:15:49.772Z</time></trkpt><trkpt lat="40.45412" lon="9.0385667"><ele>930.0</ele><time>2026-04-30T10:15:51.769Z</time></trkpt><trkpt lat="40.4540983" lon="9.038485"><ele>930.0</ele><time>2026-04-30T10:15:52.769Z</time></trkpt><trkpt lat="40.4540717" lon="9.0384067"><ele>930.0</ele><time>2026-04-30T10:15:53.769Z</time></trkpt><trkpt lat="40.45405" lon="9.0383267"><ele>930.0</ele><time>2026-04-30T10:15:54.767Z</time></trkpt><trkpt lat="40.4540267" lon="9.0382483"><ele>933.8333333333334</ele><time>2026-04-30T10:15:55.771Z</time></trkpt><trkpt lat="40.4539867" lon="9.03818"><ele>937.6666666666667</ele><time>2026-04-30T10:15:56.79Z</time></trkpt><trkpt lat="40.4539383" lon="9.038115"><ele>941.5</ele><time>2026-04-30T10:15:57.772Z</time></trkpt><trkpt lat="40.45387" lon="9.0380517"><ele>945.3333333333334</ele><time>2026-04-30T10:15:58.77Z</time></trkpt><trkpt lat="40.4538017" lon="9.03798"><ele>949.1666666666667</ele><time>2026-04-30T10:15:59.77Z</time></trkpt><trkpt lat="40.4537083" lon="9.0379183"><ele>953.0</ele><time>2026-04-30T10:16:00.769Z</time></trkpt><trkpt lat="40.453595" lon="9.0378583"><ele>953.0</ele><time>2026-04-30T10:16:01.77Z</time></trkpt><trkpt lat="40.45347" lon="9.0378033"><ele>953.0</ele><time>2026-04-30T10:16:02.773Z</time></trkpt><trkpt lat="40.45335" lon="9.0377533"><ele>953.0</ele><time>2026-04-30T10:16:03.771Z</time></trkpt><trkpt lat="40.4532217" lon="9.03771"><ele>953.0</ele><time>2026-04-30T10:16:04.77Z</time></trkpt><trkpt lat="40.453105" lon="9.0376683"><ele>953.0</ele><time>2026-04-30T10:16:05.773Z</time></trkpt><trkpt lat="40.45299" lon="9.037625"><ele>953.0</ele><time>2026-04-30T10:16:06.774Z</time></trkpt><trkpt lat="40.4528683" lon="9.0375783"><ele>953.0</ele><time>2026-04-30T10:16:07.769Z</time></trkpt><trkpt lat="40.45275" lon="9.037515"><ele>953.0</ele><time>2026-04-30T10:16:08.772Z</time></trkpt><trkpt lat="40.4526333" lon="9.0374367"><ele>955.75</ele><time>2026-04-30T10:16:09.768Z</time></trkpt><trkpt lat="40.45252" lon="9.0373467"><ele>958.5</ele><time>2026-04-30T10:16:10.773Z</time></trkpt><trkpt lat="40.4524083" lon="9.0372467"><ele>961.25</ele><time>2026-04-30T10:16:11.773Z</time></trkpt><trkpt lat="40.4522983" lon="9.03714"><ele>964.0</ele><time>2026-04-30T10:16:12.768Z</time></trkpt><trkpt lat="40.45218" lon="9.037045"><ele>961.0</ele><time>2026-04-30T10:16:13.772Z</time></trkpt><trkpt lat="40.452065" lon="9.0369517"><ele>958.0</ele><time>2026-04-30T10:16:14.775Z</time></trkpt><trkpt lat="40.451955" lon="9.0368483"><ele>955.0</ele><time>2026-04-30T10:16:15.77Z</time></trkpt><trkpt lat="40.4518333" lon="9.03675"><ele>952.0</ele><time>2026-04-30T10:16:16.77Z</time></trkpt><trkpt lat="40.4517133" lon="9.0366383"><ele>951.75</ele><time>2026-04-30T10:16:17.768Z</time></trkpt><trkpt lat="40.4516017" lon="9.036535"><ele>951.5</ele><time>2026-04-30T10:16:18.766Z</time></trkpt><trkpt lat="40.4514817" lon="9.0364433"><ele>951.25</ele><time>2026-04-30T10:16:19.769Z</time></trkpt><trkpt lat="40.4513683" lon="9.0363517"><ele>951.0</ele><time>2026-04-30T10:16:20.776Z</time></trkpt><trkpt lat="40.4512717" lon="9.0362567"><ele>951.0</ele><time>2026-04-30T10:16:21.767Z</time></trkpt><trkpt lat="40.4511717" lon="9.0361883"><ele>950.9999999999999</ele><time>2026-04-30T10:16:22.768Z</time></trkpt><trkpt lat="40.4510817" lon="9.03611"><ele>950.9999999999999</ele><time>2026-04-30T10:16:23.772Z</time></trkpt><trkpt lat="40.4510067" lon="9.0360283"><ele>951.0</ele><time>2026-04-30T10:16:24.78Z</time></trkpt><trkpt lat="40.450945" lon="9.0359417"><ele>951.0</ele><time>2026-04-30T10:16:25.769Z</time></trkpt><trkpt lat="40.45089" lon="9.0358533"><ele>952.75</ele><time>2026-04-30T10:16:26.79Z</time></trkpt><trkpt lat="40.4508383" lon="9.0357417"><ele>954.5</ele><time>2026-04-30T10:16:27.771Z</time></trkpt><trkpt lat="40.4507883" lon="9.035615"><ele>956.25</ele><time>2026-04-30T10:16:28.767Z</time></trkpt><trkpt lat="40.450745" lon="9.0354467"><ele>958.0</ele><time>2026-04-30T10:16:29.772Z</time></trkpt><trkpt lat="40.4507067" lon="9.0352833"><ele>958.0</ele><time>2026-04-30T10:16:30.773Z</time></trkpt><trkpt lat="40.4506717" lon="9.0351167"><ele>958.0</ele><time>2026-04-30T10:16:31.78Z</time></trkpt><trkpt lat="40.4506267" lon="9.0349517"><ele>958.0</ele><time>2026-04-30T10:16:32.812Z</time></trkpt><trkpt lat="40.4505783" lon="9.0347767"><ele>958.0</ele><time>2026-04-30T10:16:33.768Z</time></trkpt><trkpt lat="40.4505283" lon="9.034605"><ele>958.0</ele><time>2026-04-30T10:16:34.771Z</time></trkpt><trkpt lat="40.4504817" lon="9.0344317"><ele>958.0</ele><time>2026-04-30T10:16:35.771Z</time></trkpt><trkpt lat="40.4504383" lon="9.0342667"><ele>958.0</ele><time>2026-04-30T10:16:36.774Z</time></trkpt><trkpt lat="40.4504" lon="9.034105"><ele>958.0</ele><time>2026-04-30T10:16:37.771Z</time></trkpt><trkpt lat="40.4503683" lon="9.0339417"><ele>958.75</ele><time>2026-04-30T10:16:38.778Z</time></trkpt><trkpt lat="40.4503383" lon="9.0337883"><ele>959.5</ele><time>2026-04-30T10:16:39.769Z</time></trkpt><trkpt lat="40.4503217" lon="9.0336217"><ele>960.25</ele><time>2026-04-30T10:16:40.77Z</time></trkpt><trkpt lat="40.4503183" lon="9.033445"><ele>961.0</ele><time>2026-04-30T10:16:41.767Z</time></trkpt><trkpt lat="40.4503167" lon="9.0332617"><ele>961.75</ele><time>2026-04-30T10:16:42.766Z</time></trkpt><trkpt lat="40.45031" lon="9.03308"><ele>962.5</ele><time>2026-04-30T10:16:43.769Z</time></trkpt><trkpt lat="40.450315" lon="9.0328883"><ele>963.25</ele><time>2026-04-30T10:16:44.777Z</time></trkpt><trkpt lat="40.4503067" lon="9.0327017"><ele>964.0</ele><time>2026-04-30T10:16:45.772Z</time></trkpt><trkpt lat="40.4502867" lon="9.0325467"><ele>965.0</ele><time>2026-04-30T10:16:46.771Z</time></trkpt><trkpt lat="40.45028" lon="9.0323867"><ele>966.0</ele><time>2026-04-30T10:16:47.768Z</time></trkpt><trkpt lat="40.4502767" lon="9.032235"><ele>967.0</ele><time>2026-04-30T10:16:48.772Z</time></trkpt><trkpt lat="40.4502733" lon="9.0320817"><ele>968.0</ele><time>2026-04-30T10:16:49.769Z</time></trkpt><trkpt lat="40.4502817" lon="9.0319267"><ele>968.0</ele><time>2026-04-30T10:16:50.775Z</time></trkpt><trkpt lat="40.4502917" lon="9.031775"><ele>968.0</ele><time>2026-04-30T10:16:51.77Z</time></trkpt><trkpt lat="40.4503083" lon="9.0316217"><ele>968.0</ele><time>2026-04-30T10:16:52.772Z</time></trkpt><trkpt lat="40.45033" lon="9.03147"><ele>968.0</ele><time>2026-04-30T10:16:53.768Z</time></trkpt><trkpt lat="40.4503483" lon="9.0313167"><ele>969.5</ele><time>2026-04-30T10:16:54.77Z</time></trkpt><trkpt lat="40.4503717" lon="9.0311633"><ele>971.0</ele><time>2026-04-30T10:16:55.773Z</time></trkpt><trkpt lat="40.4503983" lon="9.031015"><ele>972.5</ele><time>2026-04-30T10:16:56.812Z</time></trkpt><trkpt lat="40.45043" lon="9.030865"><ele>974.0</ele><time>2026-04-30T10:16:57.771Z</time></trkpt><trkpt lat="40.4504583" lon="9.0307183"><ele>976.0</ele><time>2026-04-30T10:16:58.772Z</time></trkpt><trkpt lat="40.4505017" lon="9.0305717"><ele>978.0</ele><time>2026-04-30T10:16:59.773Z</time></trkpt><trkpt lat="40.4505533" lon="9.0304217"><ele>980.0</ele><time>2026-04-30T10:17:00.77Z</time></trkpt><trkpt lat="40.450605" lon="9.0302717"><ele>982.0</ele><time>2026-04-30T10:17:01.769Z</time></trkpt><trkpt lat="40.4506533" lon="9.030115"><ele>982.25</ele><time>2026-04-30T10:17:02.816Z</time></trkpt><trkpt lat="40.4507033" lon="9.0299583"><ele>982.5</ele><time>2026-04-30T10:17:03.769Z</time></trkpt><trkpt lat="40.4507617" lon="9.0298"><ele>982.75</ele><time>2026-04-30T10:17:04.77Z</time></trkpt><trkpt lat="40.4508233" lon="9.0296433"><ele>983.0</ele><time>2026-04-30T10:17:05.769Z</time></trkpt><trkpt lat="40.4508733" lon="9.0294833"><ele>983.0</ele><time>2026-04-30T10:17:06.774Z</time></trkpt><trkpt lat="40.450925" lon="9.02932"><ele>983.0</ele><time>2026-04-30T10:17:07.77Z</time></trkpt><trkpt lat="40.4509783" lon="9.02915"><ele>983.0</ele><time>2026-04-30T10:17:08.776Z</time></trkpt><trkpt lat="40.4510317" lon="9.0289833"><ele>983.0</ele><time>2026-04-30T10:17:09.772Z</time></trkpt><trkpt lat="40.4511" lon="9.0288133"><ele>983.75</ele><time>2026-04-30T10:17:10.771Z</time></trkpt><trkpt lat="40.451175" lon="9.02865"><ele>984.5</ele><time>2026-04-30T10:17:11.77Z</time></trkpt><trkpt lat="40.4512467" lon="9.0284933"><ele>985.25</ele><time>2026-04-30T10:17:12.775Z</time></trkpt><trkpt lat="40.45133" lon="9.0283317"><ele>986.0</ele><time>2026-04-30T10:17:13.766Z</time></trkpt><trkpt lat="40.4514133" lon="9.0281817"><ele>988.5</ele><time>2026-04-30T10:17:14.776Z</time></trkpt><trkpt lat="40.4514967" lon="9.028035"><ele>991.0</ele><time>2026-04-30T10:17:15.773Z</time></trkpt><trkpt lat="40.4515833" lon="9.027895"><ele>993.5</ele><time>2026-04-30T10:17:16.77Z</time></trkpt><trkpt lat="40.45167" lon="9.0277617"><ele>996.0</ele><time>2026-04-30T10:17:17.772Z</time></trkpt><trkpt lat="40.4517617" lon="9.0276367"><ele>996.0</ele><time>2026-04-30T10:17:18.769Z</time></trkpt><trkpt lat="40.451865" lon="9.0275217"><ele>996.0</ele><time>2026-04-30T10:17:19.773Z</time></trkpt><trkpt lat="40.4519817" lon="9.02742"><ele>996.0</ele><time>2026-04-30T10:17:20.776Z</time></trkpt><trkpt lat="40.4520967" lon="9.0273433"><ele>996.0</ele><time>2026-04-30T10:17:21.771Z</time></trkpt><trkpt lat="40.452215" lon="9.02727"><ele>997.5</ele><time>2026-04-30T10:17:22.772Z</time></trkpt><trkpt lat="40.4523217" lon="9.0271933"><ele>999.0</ele><time>2026-04-30T10:17:23.777Z</time></trkpt><trkpt lat="40.4524333" lon="9.0271117"><ele>1000.5</ele><time>2026-04-30T10:17:24.776Z</time></trkpt><trkpt lat="40.4525383" lon="9.0270333"><ele>1002.0</ele><time>2026-04-30T10:17:25.769Z</time></trkpt><trkpt lat="40.452625" lon="9.0269317"><ele>1002.0</ele><time>2026-04-30T10:17:26.84Z</time></trkpt><trkpt lat="40.4526967" lon="9.026825"><ele>1002.0</ele><time>2026-04-30T10:17:27.774Z</time></trkpt><trkpt lat="40.452765" lon="9.0267183"><ele>1002.0</ele><time>2026-04-30T10:17:28.771Z</time></trkpt><trkpt lat="40.4528417" lon="9.0266167"><ele>1002.0</ele><time>2026-04-30T10:17:29.771Z</time></trkpt><trkpt lat="40.45291" lon="9.02653"><ele>1002.0</ele><time>2026-04-30T10:17:30.772Z</time></trkpt><trkpt lat="40.45296" lon="9.026445"><ele>1003.6</ele><time>2026-04-30T10:17:31.772Z</time></trkpt><trkpt lat="40.4530033" lon="9.0263733"><ele>1005.2</ele><time>2026-04-30T10:17:32.809Z</time></trkpt><trkpt lat="40.4530233" lon="9.02625"><ele>1006.8</ele><time>2026-04-30T10:17:34.772Z</time></trkpt><trkpt lat="40.4529667" lon="9.0261783"><ele>1008.4</ele><time>2026-04-30T10:17:36.766Z</time></trkpt><trkpt lat="40.452855" lon="9.0261017"><ele>1010.0</ele><time>2026-04-30T10:17:38.777Z</time></trkpt><trkpt lat="40.4527683" lon="9.0260717"><ele>1010.0000000000001</ele><time>2026-04-30T10:17:39.767Z</time></trkpt><trkpt lat="40.4526967" lon="9.0260283"><ele>1010.0</ele><time>2026-04-30T10:17:40.769Z</time></trkpt><trkpt lat="40.4526233" lon="9.02598"><ele>1010.0</ele><time>2026-04-30T10:17:41.768Z</time></trkpt><trkpt lat="40.4525483" lon="9.02593"><ele>1010.0</ele><time>2026-04-30T10:17:42.77Z</time></trkpt><trkpt lat="40.452455" lon="9.0258783"><ele>1010.0000000000001</ele><time>2026-04-30T10:17:43.775Z</time></trkpt><trkpt lat="40.4523883" lon="9.025815"><ele>1010.0</ele><time>2026-04-30T10:17:44.777Z</time></trkpt><trkpt lat="40.4522683" lon="9.02567"><ele>1009.4</ele><time>2026-04-30T10:17:46.768Z</time></trkpt><trkpt lat="40.452205" lon="9.025595"><ele>1008.8</ele><time>2026-04-30T10:17:47.77Z</time></trkpt><trkpt lat="40.45214" lon="9.0254983"><ele>1008.2</ele><time>2026-04-30T10:17:48.77Z</time></trkpt><trkpt lat="40.452085" lon="9.0253833"><ele>1007.6</ele><time>2026-04-30T10:17:49.768Z</time></trkpt><trkpt lat="40.452025" lon="9.02527"><ele>1007.0</ele><time>2026-04-30T10:17:50.775Z</time></trkpt><trkpt lat="40.4519683" lon="9.025155"><ele>1007.0</ele><time>2026-04-30T10:17:51.772Z</time></trkpt><trkpt lat="40.4519033" lon="9.025045"><ele>1007.0</ele><time>2026-04-30T10:17:52.772Z</time></trkpt><trkpt lat="40.4518417" lon="9.0249183"><ele>1007.0</ele><time>2026-04-30T10:17:53.774Z</time></trkpt><trkpt lat="40.4517883" lon="9.0248067"><ele>1007.0</ele><time>2026-04-30T10:17:54.771Z</time></trkpt><trkpt lat="40.4517417" lon="9.02468"><ele>1007.0</ele><time>2026-04-30T10:17:55.774Z</time></trkpt><trkpt lat="40.4517117" lon="9.0245617"><ele>1008.4000000000001</ele><time>2026-04-30T10:17:56.796Z</time></trkpt><trkpt lat="40.4516883" lon="9.0244317"><ele>1009.8000000000001</ele><time>2026-04-30T10:17:57.773Z</time></trkpt><trkpt lat="40.45168" lon="9.0243083"><ele>1011.2</ele><time>2026-04-30T10:17:58.77Z</time></trkpt><trkpt lat="40.4516817" lon="9.0241817"><ele>1012.6</ele><time>2026-04-30T10:17:59.769Z</time></trkpt><trkpt lat="40.4516833" lon="9.0240383"><ele>1014.0</ele><time>2026-04-30T10:18:00.767Z</time></trkpt><trkpt lat="40.4516983" lon="9.02389"><ele>1014.6</ele><time>2026-04-30T10:18:01.769Z</time></trkpt><trkpt lat="40.4517383" lon="9.0237333"><ele>1015.2</ele><time>2026-04-30T10:18:02.796Z</time></trkpt><trkpt lat="40.451765" lon="9.02359"><ele>1015.8000000000001</ele><time>2026-04-30T10:18:03.771Z</time></trkpt><trkpt lat="40.4517783" lon="9.0234633"><ele>1016.4000000000001</ele><time>2026-04-30T10:18:04.773Z</time></trkpt><trkpt lat="40.4517633" lon="9.0233533"><ele>1017.0</ele><time>2026-04-30T10:18:05.774Z</time></trkpt><trkpt lat="40.4517383" lon="9.0232467"><ele>1018.0</ele><time>2026-04-30T10:18:06.772Z</time></trkpt><trkpt lat="40.4517067" lon="9.02314"><ele>1019.0</ele><time>2026-04-30T10:18:07.773Z</time></trkpt><trkpt lat="40.4516717" lon="9.0230417"><ele>1020.0</ele><time>2026-04-30T10:18:08.775Z</time></trkpt><trkpt lat="40.451635" lon="9.022955"><ele>1021.0</ele><time>2026-04-30T10:18:09.773Z</time></trkpt><trkpt lat="40.4516017" lon="9.0228817"><ele>1022.0</ele><time>2026-04-30T10:18:10.772Z</time></trkpt><trkpt lat="40.4515233" lon="9.0227633"><ele>1023.0</ele><time>2026-04-30T10:18:12.769Z</time></trkpt><trkpt lat="40.45142" lon="9.0227067"><ele>1023.0</ele><time>2026-04-30T10:18:14.776Z</time></trkpt><trkpt lat="40.451355" lon="9.0226967"><ele>1023.0</ele><time>2026-04-30T10:18:15.772Z</time></trkpt><trkpt lat="40.4512533" lon="9.0227383"><ele>1023.0</ele><time>2026-04-30T10:18:16.772Z</time></trkpt><trkpt lat="40.45117" lon="9.0227667"><ele>1023.0</ele><time>2026-04-30T10:18:17.771Z</time></trkpt><trkpt lat="40.4510717" lon="9.0228367"><ele>1023.0</ele><time>2026-04-30T10:18:18.765Z</time></trkpt><trkpt lat="40.4509667" lon="9.0229217"><ele>1027.75</ele><time>2026-04-30T10:18:19.772Z</time></trkpt><trkpt lat="40.4508717" lon="9.0229917"><ele>1032.5</ele><time>2026-04-30T10:18:20.779Z</time></trkpt><trkpt lat="40.4507817" lon="9.0230583"><ele>1037.25</ele><time>2026-04-30T10:18:21.767Z</time></trkpt><trkpt lat="40.4506633" lon="9.0231533"><ele>1042.0</ele><time>2026-04-30T10:18:22.766Z</time></trkpt><trkpt lat="40.4505633" lon="9.02323"><ele>1041.75</ele><time>2026-04-30T10:18:23.77Z</time></trkpt><trkpt lat="40.4504567" lon="9.0233333"><ele>1041.5</ele><time>2026-04-30T10:18:24.773Z</time></trkpt><trkpt lat="40.450325" lon="9.0234467"><ele>1041.25</ele><time>2026-04-30T10:18:25.77Z</time></trkpt><trkpt lat="40.45021" lon="9.0235417"><ele>1041.0</ele><time>2026-04-30T10:18:26.773Z</time></trkpt><trkpt lat="40.4500983" lon="9.0236217"><ele>1041.0</ele><time>2026-04-30T10:18:27.769Z</time></trkpt><trkpt lat="40.4499833" lon="9.0237067"><ele>1041.0</ele><time>2026-04-30T10:18:28.769Z</time></trkpt><trkpt lat="40.4498717" lon="9.023785"><ele>1041.0</ele><time>2026-04-30T10:18:29.77Z</time></trkpt><trkpt lat="40.4497667" lon="9.0238583"><ele>1041.0</ele><time>2026-04-30T10:18:30.773Z</time></trkpt><trkpt lat="40.4496667" lon="9.02392"><ele>1039.2</ele><time>2026-04-30T10:18:31.766Z</time></trkpt><trkpt lat="40.4495617" lon="9.0239817"><ele>1037.3999999999999</ele><time>2026-04-30T10:18:32.767Z</time></trkpt><trkpt lat="40.4494633" lon="9.0240333"><ele>1035.6</ele><time>2026-04-30T10:18:33.767Z</time></trkpt><trkpt lat="40.4493617" lon="9.0240883"><ele>1033.8</ele><time>2026-04-30T10:18:34.768Z</time></trkpt><trkpt lat="40.4492633" lon="9.0241367"><ele>1032.0</ele><time>2026-04-30T10:18:35.769Z</time></trkpt><trkpt lat="40.4491717" lon="9.024175"><ele>1032.0</ele><time>2026-04-30T10:18:36.768Z</time></trkpt><trkpt lat="40.4490833" lon="9.02421"><ele>1032.0</ele><time>2026-04-30T10:18:37.768Z</time></trkpt><trkpt lat="40.4490033" lon="9.0242233"><ele>1032.0</ele><time>2026-04-30T10:18:38.779Z</time></trkpt><trkpt lat="40.448925" lon="9.024235"><ele>1032.0</ele><time>2026-04-30T10:18:39.768Z</time></trkpt><trkpt lat="40.44885" lon="9.02424"><ele>1032.0</ele><time>2026-04-30T10:18:40.772Z</time></trkpt><trkpt lat="40.448775" lon="9.02424"><ele>1032.0</ele><time>2026-04-30T10:18:41.773Z</time></trkpt><trkpt lat="40.4486967" lon="9.024245"><ele>1032.142857142857</ele><time>2026-04-30T10:18:42.77Z</time></trkpt><trkpt lat="40.4486217" lon="9.0242483"><ele>1032.2857142857142</ele><time>2026-04-30T10:18:43.772Z</time></trkpt><trkpt lat="40.4485383" lon="9.024255"><ele>1032.4285714285716</ele><time>2026-04-30T10:18:44.777Z</time></trkpt><trkpt lat="40.448465" lon="9.0242683"><ele>1032.5714285714284</ele><time>2026-04-30T10:18:45.768Z</time></trkpt><trkpt lat="40.448395" lon="9.0242783"><ele>1032.7142857142858</ele><time>2026-04-30T10:18:46.769Z</time></trkpt><trkpt lat="40.448325" lon="9.0242817"><ele>1032.857142857143</ele><time>2026-04-30T10:18:47.768Z</time></trkpt><trkpt lat="40.4482567" lon="9.0242767"><ele>1033.0</ele><time>2026-04-30T10:18:48.769Z</time></trkpt><trkpt lat="40.4481433" lon="9.0242567"><ele>1033.0</ele><time>2026-04-30T10:18:50.776Z</time></trkpt><trkpt lat="40.4480433" lon="9.0242467"><ele>1033.0</ele><time>2026-04-30T10:18:52.771Z</time></trkpt><trkpt lat="40.44798" lon="9.0242433"><ele>1033.0</ele><time>2026-04-30T10:18:54.772Z</time></trkpt><trkpt lat="40.44789" lon="9.02423"><ele>1033.0</ele><time>2026-04-30T10:18:57.769Z</time></trkpt><trkpt lat="40.4477983" lon="9.0241983"><ele>1033.0</ele><time>2026-04-30T10:19:00.767Z</time></trkpt><trkpt lat="40.4477233" lon="9.0241583"><ele>1033.0</ele><time>2026-04-30T10:19:03.766Z</time></trkpt><trkpt lat="40.44765" lon="9.024125"><ele>1035.8</ele><time>2026-04-30T10:19:06.773Z</time></trkpt><trkpt lat="40.4475783" lon="9.02405"><ele>1038.6</ele><time>2026-04-30T10:19:09.766Z</time></trkpt><trkpt lat="40.4475167" lon="9.0239967"><ele>1041.4</ele><time>2026-04-30T10:19:11.769Z</time></trkpt><trkpt lat="40.4474367" lon="9.0239433"><ele>1044.2</ele><time>2026-04-30T10:19:13.771Z</time></trkpt><trkpt lat="40.447345" lon="9.0238933"><ele>1047.0</ele><time>2026-04-30T10:19:15.772Z</time></trkpt><trkpt lat="40.4472333" lon="9.0238283"><ele>1047.0</ele><time>2026-04-30T10:19:17.773Z</time></trkpt><trkpt lat="40.4471633" lon="9.023795"><ele>1047.0</ele><time>2026-04-30T10:19:18.766Z</time></trkpt><trkpt lat="40.44708" lon="9.023765"><ele>1047.0</ele><time>2026-04-30T10:19:19.768Z</time></trkpt><trkpt lat="40.4469867" lon="9.0237533"><ele>1047.0</ele><time>2026-04-30T10:19:20.775Z</time></trkpt><trkpt lat="40.4468767" lon="9.0237617"><ele>1047.0</ele><time>2026-04-30T10:19:21.766Z</time></trkpt><trkpt lat="40.4467433" lon="9.0237983"><ele>1045.5</ele><time>2026-04-30T10:19:22.768Z</time></trkpt><trkpt lat="40.4466133" lon="9.0238467"><ele>1044.0</ele><time>2026-04-30T10:19:23.768Z</time></trkpt><trkpt lat="40.4464683" lon="9.0239217"><ele>1042.5</ele><time>2026-04-30T10:19:24.769Z</time></trkpt><trkpt lat="40.44635" lon="9.0239817"><ele>1041.0</ele><time>2026-04-30T10:19:25.769Z</time></trkpt><trkpt lat="40.4462233" lon="9.024045"><ele>1038.5</ele><time>2026-04-30T10:19:26.768Z</time></trkpt><trkpt lat="40.44611" lon="9.0241033"><ele>1036.0</ele><time>2026-04-30T10:19:27.773Z</time></trkpt><trkpt lat="40.4460017" lon="9.02417"><ele>1033.5</ele><time>2026-04-30T10:19:28.771Z</time></trkpt><trkpt lat="40.4458933" lon="9.02425"><ele>1031.0</ele><time>2026-04-30T10:19:29.775Z</time></trkpt><trkpt lat="40.44577" lon="9.0243417"><ele>1031.0</ele><time>2026-04-30T10:19:30.772Z</time></trkpt><trkpt lat="40.4456567" lon="9.0244267"><ele>1031.0</ele><time>2026-04-30T10:19:31.772Z</time></trkpt><trkpt lat="40.4455283" lon="9.0245233"><ele>1031.0</ele><time>2026-04-30T10:19:32.768Z</time></trkpt><trkpt lat="40.4454033" lon="9.0246133"><ele>1031.0</ele><time>2026-04-30T10:19:33.765Z</time></trkpt><trkpt lat="40.4452783" lon="9.024695"><ele>1034.25</ele><time>2026-04-30T10:19:34.768Z</time></trkpt><trkpt lat="40.4451567" lon="9.0247717"><ele>1037.5</ele><time>2026-04-30T10:19:35.773Z</time></trkpt><trkpt lat="40.4450333" lon="9.02484"><ele>1040.75</ele><time>2026-04-30T10:19:36.768Z</time></trkpt><trkpt lat="40.444905" lon="9.0248983"><ele>1044.0</ele><time>2026-04-30T10:19:37.77Z</time></trkpt><trkpt lat="40.4447833" lon="9.0249467"><ele>1040.25</ele><time>2026-04-30T10:19:38.772Z</time></trkpt><trkpt lat="40.4446667" lon="9.0249883"><ele>1036.5</ele><time>2026-04-30T10:19:39.768Z</time></trkpt><trkpt lat="40.4445433" lon="9.0250283"><ele>1032.75</ele><time>2026-04-30T10:19:40.771Z</time></trkpt><trkpt lat="40.4444267" lon="9.02506"><ele>1029.0</ele><time>2026-04-30T10:19:41.767Z</time></trkpt><trkpt lat="40.4443117" lon="9.02509"><ele>1029.0</ele><time>2026-04-30T10:19:42.765Z</time></trkpt><trkpt lat="40.4441967" lon="9.02512"><ele>1029.0</ele><time>2026-04-30T10:19:43.766Z</time></trkpt><trkpt lat="40.4440867" lon="9.0251417"><ele>1029.0</ele><time>2026-04-30T10:19:44.775Z</time></trkpt><trkpt lat="40.4439833" lon="9.0251367"><ele>1029.0</ele><time>2026-04-30T10:19:45.77Z</time></trkpt><trkpt lat="40.443875" lon="9.0251367"><ele>1029.0</ele><time>2026-04-30T10:19:46.771Z</time></trkpt><trkpt lat="40.4437817" lon="9.0251417"><ele>1029.3333333333333</ele><time>2026-04-30T10:19:47.771Z</time></trkpt><trkpt lat="40.4436967" lon="9.0251567"><ele>1029.6666666666667</ele><time>2026-04-30T10:19:48.765Z</time></trkpt><trkpt lat="40.4436217" lon="9.0251833"><ele>1030.0</ele><time>2026-04-30T10:19:49.772Z</time></trkpt><trkpt lat="40.4435583" lon="9.0252267"><ele>1030.3333333333335</ele><time>2026-04-30T10:19:50.775Z</time></trkpt><trkpt lat="40.44349" lon="9.025285"><ele>1030.6666666666667</ele><time>2026-04-30T10:19:51.772Z</time></trkpt><trkpt lat="40.4434283" lon="9.025355"><ele>1031.0</ele><time>2026-04-30T10:19:52.769Z</time></trkpt><trkpt lat="40.443375" lon="9.0254417"><ele>1031.0</ele><time>2026-04-30T10:19:53.767Z</time></trkpt><trkpt lat="40.44333" lon="9.0255533"><ele>1031.0</ele><time>2026-04-30T10:19:54.771Z</time></trkpt><trkpt lat="40.4432817" lon="9.0256617"><ele>1031.0</ele><time>2026-04-30T10:19:55.77Z</time></trkpt><trkpt lat="40.4432367" lon="9.0257583"><ele>1031.0</ele><time>2026-04-30T10:19:56.833Z</time></trkpt><trkpt lat="40.44318" lon="9.0258467"><ele>1031.0</ele><time>2026-04-30T10:19:57.773Z</time></trkpt><trkpt lat="40.4431133" lon="9.025915"><ele>1028.2</ele><time>2026-04-30T10:19:58.77Z</time></trkpt><trkpt lat="40.4430533" lon="9.0259583"><ele>1025.3999999999999</ele><time>2026-04-30T10:19:59.768Z</time></trkpt><trkpt lat="40.44299" lon="9.0259867"><ele>1022.6</ele><time>2026-04-30T10:20:00.768Z</time></trkpt><trkpt lat="40.4428633" lon="9.0260033"><ele>1019.8</ele><time>2026-04-30T10:20:02.768Z</time></trkpt><trkpt lat="40.4427283" lon="9.0259567"><ele>1017.0</ele><time>2026-04-30T10:20:04.767Z</time></trkpt><trkpt lat="40.4426333" lon="9.0258867"><ele>1022.0</ele><time>2026-04-30T10:20:05.769Z</time></trkpt><trkpt lat="40.44251" lon="9.0257867"><ele>1027.0</ele><time>2026-04-30T10:20:06.773Z</time></trkpt><trkpt lat="40.44239" lon="9.0256883"><ele>1032.0</ele><time>2026-04-30T10:20:07.769Z</time></trkpt><trkpt lat="40.442275" lon="9.0256033"><ele>1037.0</ele><time>2026-04-30T10:20:08.772Z</time></trkpt><trkpt lat="40.44216" lon="9.0255417"><ele>1037.75</ele><time>2026-04-30T10:20:09.769Z</time></trkpt><trkpt lat="40.4420483" lon="9.025485"><ele>1038.5</ele><time>2026-04-30T10:20:10.767Z</time></trkpt><trkpt lat="40.4419217" lon="9.0254567"><ele>1039.25</ele><time>2026-04-30T10:20:11.768Z</time></trkpt><trkpt lat="40.4418017" lon="9.0254333"><ele>1040.0</ele><time>2026-04-30T10:20:12.769Z</time></trkpt><trkpt lat="40.4416767" lon="9.0254283"><ele>1040.0</ele><time>2026-04-30T10:20:13.77Z</time></trkpt><trkpt lat="40.4415517" lon="9.0254367"><ele>1040.0</ele><time>2026-04-30T10:20:14.776Z</time></trkpt><trkpt lat="40.4414333" lon="9.02546"><ele>1040.0</ele><time>2026-04-30T10:20:15.766Z</time></trkpt><trkpt lat="40.4413233" lon="9.0254817"><ele>1040.0</ele><time>2026-04-30T10:20:16.77Z</time></trkpt><trkpt lat="40.4412133" lon="9.0254967"><ele>1039.8</ele><time>2026-04-30T10:20:17.768Z</time></trkpt><trkpt lat="40.4411167" lon="9.0255083"><ele>1039.6</ele><time>2026-04-30T10:20:18.769Z</time></trkpt><trkpt lat="40.4410217" lon="9.025515"><ele>1039.4</ele><time>2026-04-30T10:20:19.77Z</time></trkpt><trkpt lat="40.4409317" lon="9.0255117"><ele>1039.2</ele><time>2026-04-30T10:20:20.775Z</time></trkpt><trkpt lat="40.44084" lon="9.0254967"><ele>1039.0</ele><time>2026-04-30T10:20:21.769Z</time></trkpt><trkpt lat="40.4407417" lon="9.025465"><ele>1039.0</ele><time>2026-04-30T10:20:22.771Z</time></trkpt><trkpt lat="40.4406483" lon="9.025455"><ele>1039.0</ele><time>2026-04-30T10:20:23.773Z</time></trkpt><trkpt lat="40.4405633" lon="9.0254633"><ele>1039.0</ele><time>2026-04-30T10:20:24.767Z</time></trkpt><trkpt lat="40.4404817" lon="9.025485"><ele>1039.0</ele><time>2026-04-30T10:20:25.768Z</time></trkpt><trkpt lat="40.4403983" lon="9.0255233"><ele>1039.0</ele><time>2026-04-30T10:20:26.837Z</time></trkpt><trkpt lat="40.4403183" lon="9.02558"><ele>1039.0</ele><time>2026-04-30T10:20:27.772Z</time></trkpt><trkpt lat="40.44024" lon="9.025645"><ele>1038.6000000000001</ele><time>2026-04-30T10:20:28.771Z</time></trkpt><trkpt lat="40.4401667" lon="9.0257233"><ele>1038.2</ele><time>2026-04-30T10:20:29.769Z</time></trkpt><trkpt lat="40.4401017" lon="9.0258217"><ele>1037.8000000000002</ele><time>2026-04-30T10:20:30.769Z</time></trkpt><trkpt lat="40.4400433" lon="9.0259283"><ele>1037.4</ele><time>2026-04-30T10:20:31.766Z</time></trkpt><trkpt lat="40.4399967" lon="9.02604"><ele>1037.0</ele><time>2026-04-30T10:20:32.813Z</time></trkpt><trkpt lat="40.439955" lon="9.0261567"><ele>1034.0</ele><time>2026-04-30T10:20:33.765Z</time></trkpt><trkpt lat="40.4399117" lon="9.0262667"><ele>1031.0</ele><time>2026-04-30T10:20:34.769Z</time></trkpt><trkpt lat="40.4398833" lon="9.0263683"><ele>1028.0</ele><time>2026-04-30T10:20:35.765Z</time></trkpt><trkpt lat="40.4398383" lon="9.0264633"><ele>1025.0</ele><time>2026-04-30T10:20:36.772Z</time></trkpt><trkpt lat="40.4397917" lon="9.0265517"><ele>1022.0000000000001</ele><time>2026-04-30T10:20:37.77Z</time></trkpt><trkpt lat="40.4397383" lon="9.0266333"><ele>1019.0</ele><time>2026-04-30T10:20:38.773Z</time></trkpt><trkpt lat="40.4396833" lon="9.0267067"><ele>1017.6</ele><time>2026-04-30T10:20:39.771Z</time></trkpt><trkpt lat="40.4396267" lon="9.0267733"><ele>1016.2</ele><time>2026-04-30T10:20:40.769Z</time></trkpt><trkpt lat="40.43956" lon="9.0268333"><ele>1014.8000000000001</ele><time>2026-04-30T10:20:41.77Z</time></trkpt><trkpt lat="40.4394367" lon="9.0269617"><ele>1013.4000000000001</ele><time>2026-04-30T10:20:43.764Z</time></trkpt><trkpt lat="40.4393717" lon="9.027025"><ele>1012.0</ele><time>2026-04-30T10:20:44.774Z</time></trkpt><trkpt lat="40.4393217" lon="9.0270817"><ele>1011.9999999999999</ele><time>2026-04-30T10:20:45.77Z</time></trkpt><trkpt lat="40.4392767" lon="9.027145"><ele>1012.0</ele><time>2026-04-30T10:20:46.766Z</time></trkpt><trkpt lat="40.439235" lon="9.0272133"><ele>1012.0</ele><time>2026-04-30T10:20:47.769Z</time></trkpt><trkpt lat="40.4391967" lon="9.0272917"><ele>1012.0</ele><time>2026-04-30T10:20:48.768Z</time></trkpt><trkpt lat="40.4391517" lon="9.027375"><ele>1011.9999999999999</ele><time>2026-04-30T10:20:49.771Z</time></trkpt><trkpt lat="40.4390983" lon="9.0274633"><ele>1012.0</ele><time>2026-04-30T10:20:50.771Z</time></trkpt><trkpt lat="40.4390433" lon="9.0275483"><ele>1011.0</ele><time>2026-04-30T10:20:51.767Z</time></trkpt><trkpt lat="40.43899" lon="9.027635"><ele>1010.0</ele><time>2026-04-30T10:20:52.769Z</time></trkpt><trkpt lat="40.438925" lon="9.0277183"><ele>1009.0</ele><time>2026-04-30T10:20:53.769Z</time></trkpt><trkpt lat="40.4388583" lon="9.0278083"><ele>1008.0</ele><time>2026-04-30T10:20:54.767Z</time></trkpt><trkpt lat="40.4387783" lon="9.0278983"><ele>1007.0</ele><time>2026-04-30T10:20:55.77Z</time></trkpt><trkpt lat="40.4386867" lon="9.028"><ele>1007.0</ele><time>2026-04-30T10:20:56.781Z</time></trkpt><trkpt lat="40.4385917" lon="9.02811"><ele>1007.0</ele><time>2026-04-30T10:20:57.769Z</time></trkpt><trkpt lat="40.4384917" lon="9.0282383"><ele>1007.0</ele><time>2026-04-30T10:20:58.769Z</time></trkpt><trkpt lat="40.4383817" lon="9.0283733"><ele>1007.0</ele><time>2026-04-30T10:20:59.769Z</time></trkpt><trkpt lat="40.4382717" lon="9.0285033"><ele>1004.0</ele><time>2026-04-30T10:21:00.77Z</time></trkpt><trkpt lat="40.4381767" lon="9.02863"><ele>1001.0</ele><time>2026-04-30T10:21:01.771Z</time></trkpt><trkpt lat="40.4380833" lon="9.0287533"><ele>998.0</ele><time>2026-04-30T10:21:02.791Z</time></trkpt><trkpt lat="40.4380083" lon="9.0288717"><ele>995.0</ele><time>2026-04-30T10:21:03.768Z</time></trkpt><trkpt lat="40.4379383" lon="9.0289817"><ele>995.0</ele><time>2026-04-30T10:21:04.77Z</time></trkpt><trkpt lat="40.4378567" lon="9.029105"><ele>995.0</ele><time>2026-04-30T10:21:05.766Z</time></trkpt><trkpt lat="40.4377767" lon="9.0292067"><ele>995.0</ele><time>2026-04-30T10:21:06.769Z</time></trkpt><trkpt lat="40.4377" lon="9.0292967"><ele>995.0</ele><time>2026-04-30T10:21:07.77Z</time></trkpt><trkpt lat="40.43762" lon="9.0293883"><ele>995.0</ele><time>2026-04-30T10:21:08.771Z</time></trkpt><trkpt lat="40.4375433" lon="9.0294667"><ele>992.0</ele><time>2026-04-30T10:21:09.765Z</time></trkpt><trkpt lat="40.4374567" lon="9.0295367"><ele>989.0</ele><time>2026-04-30T10:21:10.77Z</time></trkpt><trkpt lat="40.4373617" lon="9.0295917"><ele>986.0</ele><time>2026-04-30T10:21:11.771Z</time></trkpt><trkpt lat="40.437275" lon="9.0296467"><ele>983.0</ele><time>2026-04-30T10:21:12.77Z</time></trkpt><trkpt lat="40.4371867" lon="9.0296933"><ele>980.0</ele><time>2026-04-30T10:21:13.766Z</time></trkpt><trkpt lat="40.4370917" lon="9.0297217"><ele>976.6</ele><time>2026-04-30T10:21:14.776Z</time></trkpt><trkpt lat="40.4370067" lon="9.0297517"><ele>973.2</ele><time>2026-04-30T10:21:15.767Z</time></trkpt><trkpt lat="40.4369267" lon="9.0297783"><ele>969.8</ele><time>2026-04-30T10:21:16.767Z</time></trkpt><trkpt lat="40.43684" lon="9.0297767"><ele>966.4</ele><time>2026-04-30T10:21:17.765Z</time></trkpt><trkpt lat="40.436755" lon="9.0298033"><ele>963.0</ele><time>2026-04-30T10:21:18.768Z</time></trkpt><trkpt lat="40.4366483" lon="9.02977"><ele>963.0</ele><time>2026-04-30T10:21:20.776Z</time></trkpt><trkpt lat="40.4365517" lon="9.0297133"><ele>963.0</ele><time>2026-04-30T10:21:22.77Z</time></trkpt><trkpt lat="40.4364767" lon="9.02968"><ele>963.0</ele><time>2026-04-30T10:21:24.768Z</time></trkpt><trkpt lat="40.4364" lon="9.0295433"><ele>963.0</ele><time>2026-04-30T10:21:25.768Z</time></trkpt><trkpt lat="40.436335" lon="9.0293617"><ele>956.5</ele><time>2026-04-30T10:21:26.832Z</time></trkpt><trkpt lat="40.4361833" lon="9.02906"><ele>950.0</ele><time>2026-04-30T10:21:27.766Z</time></trkpt><trkpt lat="40.4360533" lon="9.0288217"><ele>950.0</ele><time>2026-04-30T10:21:28.77Z</time></trkpt><trkpt lat="40.4359517" lon="9.028705"><ele>950.0</ele><time>2026-04-30T10:21:29.771Z</time></trkpt><trkpt lat="40.4358417" lon="9.0286167"><ele>950.0</ele><time>2026-04-30T10:21:30.767Z</time></trkpt><trkpt lat="40.43573" lon="9.0285317"><ele>950.0</ele><time>2026-04-30T10:21:31.771Z</time></trkpt><trkpt lat="40.4355917" lon="9.0283933"><ele>950.0</ele><time>2026-04-30T10:21:32.768Z</time></trkpt><trkpt lat="40.4354617" lon="9.0282717"><ele>950.0</ele><time>2026-04-30T10:21:33.769Z</time></trkpt><trkpt lat="40.4353517" lon="9.0281867"><ele>950.0</ele><time>2026-04-30T10:21:34.766Z</time></trkpt><trkpt lat="40.43525" lon="9.0281083"><ele>950.0</ele><time>2026-04-30T10:21:35.768Z</time></trkpt><trkpt lat="40.4351433" lon="9.0280217"><ele>950.0</ele><time>2026-04-30T10:21:36.769Z</time></trkpt><trkpt lat="40.4350833" lon="9.0279483"><ele>950.0</ele><time>2026-04-30T10:21:37.77Z</time></trkpt><trkpt lat="40.4350533" lon="9.0278433"><ele>950.0</ele><time>2026-04-30T10:21:38.773Z</time></trkpt><trkpt lat="40.4350717" lon="9.0279417"><ele>950.0</ele><time>2026-04-30T10:21:43.772Z</time></trkpt><trkpt lat="40.435165" lon="9.0280917"><ele>950.0</ele><time>2026-04-30T10:21:45.766Z</time></trkpt><trkpt lat="40.4352867" lon="9.0282517"><ele>950.0</ele><time>2026-04-30T10:21:46.77Z</time></trkpt><trkpt lat="40.4353583" lon="9.028405"><ele>950.0</ele><time>2026-04-30T10:21:47.77Z</time></trkpt><trkpt lat="40.43541" lon="9.0285133"><ele>950.0</ele><time>2026-04-30T10:21:48.769Z</time></trkpt><trkpt lat="40.4354483" lon="9.02862"><ele>950.0</ele><time>2026-04-30T10:21:49.77Z</time></trkpt><trkpt lat="40.4354783" lon="9.0287167"><ele>950.0</ele><time>2026-04-30T10:21:50.775Z</time></trkpt><trkpt lat="40.4354967" lon="9.0288117"><ele>950.0</ele><time>2026-04-30T10:21:51.769Z</time></trkpt><trkpt lat="40.4355033" lon="9.0288967"><ele>950.0</ele><time>2026-04-30T10:21:52.77Z</time></trkpt><trkpt lat="40.4353267" lon="9.0288017"><ele>950.0</ele><time>2026-04-30T10:21:55.77Z</time></trkpt><trkpt lat="40.4352733" lon="9.0287117"><ele>950.0</ele><time>2026-04-30T10:21:56.835Z</time></trkpt><trkpt lat="40.4352" lon="9.028605"><ele>950.0000000000001</ele><time>2026-04-30T10:21:57.766Z</time></trkpt><trkpt lat="40.4351317" lon="9.02853"><ele>950.0</ele><time>2026-04-30T10:21:58.766Z</time></trkpt><trkpt lat="40.4350733" lon="9.0284717"><ele>950.0</ele><time>2026-04-30T10:21:59.765Z</time></trkpt><trkpt lat="40.4349983" lon="9.0284383"><ele>950.0</ele><time>2026-04-30T10:22:00.769Z</time></trkpt><trkpt lat="40.434915" lon="9.02835"><ele>950.0000000000001</ele><time>2026-04-30T10:22:02.809Z</time></trkpt><trkpt lat="40.43485" lon="9.0282833"><ele>950.0</ele><time>2026-04-30T10:22:06.768Z</time></trkpt><trkpt lat="40.4348033" lon="9.0281833"><ele>950.0</ele><time>2026-04-30T10:22:08.778Z</time></trkpt><trkpt lat="40.4347433" lon="9.0280333"><ele>950.0</ele><time>2026-04-30T10:22:10.772Z</time></trkpt><trkpt lat="40.4347133" lon="9.0279133"><ele>950.0</ele><time>2026-04-30T10:22:11.772Z</time></trkpt><trkpt lat="40.4346783" lon="9.0277783"><ele>950.0</ele><time>2026-04-30T10:22:12.772Z</time></trkpt><trkpt lat="40.4346467" lon="9.0276333"><ele>950.0</ele><time>2026-04-30T10:22:13.767Z</time></trkpt><trkpt lat="40.4346083" lon="9.0274733"><ele>948.0</ele><time>2026-04-30T10:22:14.777Z</time></trkpt><trkpt lat="40.4345467" lon="9.027315"><ele>946.0</ele><time>2026-04-30T10:22:15.769Z</time></trkpt><trkpt lat="40.4344717" lon="9.0271717"><ele>944.0</ele><time>2026-04-30T10:22:16.771Z</time></trkpt><trkpt lat="40.4343683" lon="9.0270383"><ele>942.0</ele><time>2026-04-30T10:22:17.771Z</time></trkpt><trkpt lat="40.4342483" lon="9.0269517"><ele>942.0</ele><time>2026-04-30T10:22:18.766Z</time></trkpt><trkpt lat="40.4341267" lon="9.0268683"><ele>942.0</ele><time>2026-04-30T10:22:19.768Z</time></trkpt><trkpt lat="40.4339917" lon="9.0268"><ele>942.0</ele><time>2026-04-30T10:22:20.772Z</time></trkpt><trkpt lat="40.43384" lon="9.0267533"><ele>942.0</ele><time>2026-04-30T10:22:21.767Z</time></trkpt><trkpt lat="40.4336817" lon="9.0267167"><ele>940.6666666666667</ele><time>2026-04-30T10:22:22.77Z</time></trkpt><trkpt lat="40.4335117" lon="9.0266933"><ele>939.3333333333334</ele><time>2026-04-30T10:22:23.772Z</time></trkpt><trkpt lat="40.4333167" lon="9.0267017"><ele>938.0</ele><time>2026-04-30T10:22:24.769Z</time></trkpt><trkpt lat="40.4331233" lon="9.0266917"><ele>937.0</ele><time>2026-04-30T10:22:25.768Z</time></trkpt><trkpt lat="40.43294" lon="9.0266817"><ele>936.0</ele><time>2026-04-30T10:22:26.835Z</time></trkpt><trkpt lat="40.432765" lon="9.0266583"><ele>935.0</ele><time>2026-04-30T10:22:27.769Z</time></trkpt><trkpt lat="40.4325967" lon="9.0266067"><ele>941.3333333333334</ele><time>2026-04-30T10:22:28.773Z</time></trkpt><trkpt lat="40.43244" lon="9.0265433"><ele>947.6666666666667</ele><time>2026-04-30T10:22:29.771Z</time></trkpt><trkpt lat="40.432285" lon="9.0264733"><ele>954.0</ele><time>2026-04-30T10:22:30.772Z</time></trkpt><trkpt lat="40.4321417" lon="9.0263833"><ele>947.25</ele><time>2026-04-30T10:22:31.773Z</time></trkpt><trkpt lat="40.4320317" lon="9.0262567"><ele>940.5</ele><time>2026-04-30T10:22:32.808Z</time></trkpt><trkpt lat="40.4319367" lon="9.0261367"><ele>933.75</ele><time>2026-04-30T10:22:33.769Z</time></trkpt><trkpt lat="40.431875" lon="9.026005"><ele>927.0</ele><time>2026-04-30T10:22:34.771Z</time></trkpt><trkpt lat="40.4318667" lon="9.0257933"><ele>924.0</ele><time>2026-04-30T10:22:35.773Z</time></trkpt><trkpt lat="40.4318767" lon="9.0255717"><ele>921.0</ele><time>2026-04-30T10:22:36.769Z</time></trkpt><trkpt lat="40.4319183" lon="9.025255"><ele>918.0</ele><time>2026-04-30T10:22:37.77Z</time></trkpt><trkpt lat="40.4319933" lon="9.0248883"><ele>913.0</ele><time>2026-04-30T10:22:38.771Z</time></trkpt><trkpt lat="40.4320367" lon="9.0246117"><ele>908.0</ele><time>2026-04-30T10:22:39.77Z</time></trkpt><trkpt lat="40.43207" lon="9.0243817"><ele>903.0</ele><time>2026-04-30T10:22:40.768Z</time></trkpt><trkpt lat="40.4321117" lon="9.0241733"><ele>912.0</ele><time>2026-04-30T10:22:41.771Z</time></trkpt><trkpt lat="40.4323283" lon="9.02398"><ele>921.0</ele><time>2026-04-30T10:22:42.77Z</time></trkpt><trkpt lat="40.4325833" lon="9.023825"><ele>921.0</ele><time>2026-04-30T10:22:43.771Z</time></trkpt><trkpt lat="40.432705" lon="9.0236733"><ele>921.0</ele><time>2026-04-30T10:22:44.773Z</time></trkpt><trkpt lat="40.432815" lon="9.0235267"><ele>921.0</ele><time>2026-04-30T10:22:45.769Z</time></trkpt><trkpt lat="40.43293" lon="9.0233783"><ele>935.75</ele><time>2026-04-30T10:22:46.778Z</time></trkpt><trkpt lat="40.4330233" lon="9.023225"><ele>950.5</ele><time>2026-04-30T10:22:47.77Z</time></trkpt><trkpt lat="40.4331033" lon="9.023075"><ele>965.25</ele><time>2026-04-30T10:22:48.772Z</time></trkpt><trkpt lat="40.4331683" lon="9.0229117"><ele>980.0</ele><time>2026-04-30T10:22:49.772Z</time></trkpt><trkpt lat="40.4331983" lon="9.0227283"><ele>980.0</ele><time>2026-04-30T10:22:50.778Z</time></trkpt><trkpt lat="40.43321" lon="9.0225433"><ele>980.0</ele><time>2026-04-30T10:22:51.769Z</time></trkpt><trkpt lat="40.4331983" lon="9.022355"><ele>980.0</ele><time>2026-04-30T10:22:52.769Z</time></trkpt><trkpt lat="40.4331717" lon="9.0221667"><ele>980.0</ele><time>2026-04-30T10:22:53.77Z</time></trkpt><trkpt lat="40.43316" lon="9.02198"><ele>981.5</ele><time>2026-04-30T10:22:54.773Z</time></trkpt><trkpt lat="40.43316" lon="9.02179"><ele>983.0</ele><time>2026-04-30T10:22:55.771Z</time></trkpt><trkpt lat="40.4331733" lon="9.0216033"><ele>984.5</ele><time>2026-04-30T10:22:56.837Z</time></trkpt><trkpt lat="40.433175" lon="9.0214167"><ele>986.0</ele><time>2026-04-30T10:22:57.773Z</time></trkpt><trkpt lat="40.4331617" lon="9.0212217"><ele>991.6666666666667</ele><time>2026-04-30T10:22:58.769Z</time></trkpt><trkpt lat="40.4331317" lon="9.0210367"><ele>997.3333333333333</ele><time>2026-04-30T10:22:59.772Z</time></trkpt><trkpt lat="40.43307" lon="9.0208533"><ele>1003.0</ele><time>2026-04-30T10:23:00.77Z</time></trkpt><trkpt lat="40.432945" lon="9.0206733"><ele>1004.3333333333333</ele><time>2026-04-30T10:23:01.769Z</time></trkpt><trkpt lat="40.4328083" lon="9.0205133"><ele>1005.6666666666667</ele><time>2026-04-30T10:23:02.772Z</time></trkpt><trkpt lat="40.4326733" lon="9.02037"><ele>1007.0</ele><time>2026-04-30T10:23:03.771Z</time></trkpt><trkpt lat="40.4325433" lon="9.0202383"><ele>1007.0</ele><time>2026-04-30T10:23:04.77Z</time></trkpt><trkpt lat="40.43237" lon="9.0201667"><ele>1007.0</ele><time>2026-04-30T10:23:05.767Z</time></trkpt><trkpt lat="40.4322" lon="9.020115"><ele>1007.0</ele><time>2026-04-30T10:23:06.769Z</time></trkpt><trkpt lat="40.4320383" lon="9.0200617"><ele>1007.3333333333334</ele><time>2026-04-30T10:23:07.771Z</time></trkpt><trkpt lat="40.4318783" lon="9.0199967"><ele>1007.6666666666667</ele><time>2026-04-30T10:23:08.777Z</time></trkpt><trkpt lat="40.4317233" lon="9.019915"><ele>1008.0</ele><time>2026-04-30T10:23:09.77Z</time></trkpt><trkpt lat="40.4315867" lon="9.0198133"><ele>1008.0</ele><time>2026-04-30T10:23:10.769Z</time></trkpt><trkpt lat="40.43147" lon="9.019685"><ele>1008.0</ele><time>2026-04-30T10:23:11.771Z</time></trkpt><trkpt lat="40.4313733" lon="9.0195383"><ele>1008.0</ele><time>2026-04-30T10:23:12.769Z</time></trkpt><trkpt lat="40.43129" lon="9.019395"><ele>1008.0</ele><time>2026-04-30T10:23:13.771Z</time></trkpt><trkpt lat="40.43124" lon="9.01921"><ele>994.0</ele><time>2026-04-30T10:23:14.778Z</time></trkpt><trkpt lat="40.43122" lon="9.019005"><ele>980.0</ele><time>2026-04-30T10:23:15.769Z</time></trkpt><trkpt lat="40.43123" lon="9.01878"><ele>966.0</ele><time>2026-04-30T10:23:16.769Z</time></trkpt><trkpt lat="40.4312783" lon="9.0185217"><ele>967.3333333333333</ele><time>2026-04-30T10:23:17.769Z</time></trkpt><trkpt lat="40.4313033" lon="9.0183"><ele>968.6666666666666</ele><time>2026-04-30T10:23:18.77Z</time></trkpt><trkpt lat="40.4313233" lon="9.01807"><ele>970.0</ele><time>2026-04-30T10:23:19.772Z</time></trkpt><trkpt lat="40.431335" lon="9.0178383"><ele>989.0</ele><time>2026-04-30T10:23:20.774Z</time></trkpt><trkpt lat="40.43134" lon="9.0176017"><ele>1008.0</ele><time>2026-04-30T10:23:21.77Z</time></trkpt><trkpt lat="40.4313367" lon="9.017365"><ele>1027.0</ele><time>2026-04-30T10:23:22.772Z</time></trkpt><trkpt lat="40.43133" lon="9.0171317"><ele>1027.0</ele><time>2026-04-30T10:23:23.767Z</time></trkpt><trkpt lat="40.4313233" lon="9.0168917"><ele>1027.0</ele><time>2026-04-30T10:23:24.769Z</time></trkpt><trkpt lat="40.43133" lon="9.0166517"><ele>1027.0</ele><time>2026-04-30T10:23:25.77Z</time></trkpt><trkpt lat="40.4313383" lon="9.016415"><ele>1026.0</ele><time>2026-04-30T10:23:26.78Z</time></trkpt><trkpt lat="40.431355" lon="9.0161683"><ele>1025.0</ele><time>2026-04-30T10:23:27.769Z</time></trkpt><trkpt lat="40.4313767" lon="9.0159283"><ele>1024.0</ele><time>2026-04-30T10:23:28.771Z</time></trkpt><trkpt lat="40.4313983" lon="9.0156867"><ele>1022.3333333333333</ele><time>2026-04-30T10:23:29.772Z</time></trkpt><trkpt lat="40.43143" lon="9.015445"><ele>1020.6666666666667</ele><time>2026-04-30T10:23:30.771Z</time></trkpt><trkpt lat="40.43147" lon="9.0152017"><ele>1019.0</ele><time>2026-04-30T10:23:31.774Z</time></trkpt><trkpt lat="40.4315233" lon="9.01496"><ele>1018.0</ele><time>2026-04-30T10:23:32.809Z</time></trkpt><trkpt lat="40.4315967" lon="9.01473"><ele>1017.0</ele><time>2026-04-30T10:23:33.769Z</time></trkpt><trkpt lat="40.4316867" lon="9.0145033"><ele>1016.0</ele><time>2026-04-30T10:23:34.772Z</time></trkpt><trkpt lat="40.4317767" lon="9.0142783"><ele>1017.0</ele><time>2026-04-30T10:23:35.773Z</time></trkpt><trkpt lat="40.4318567" lon="9.0140533"><ele>1018.0</ele><time>2026-04-30T10:23:36.773Z</time></trkpt><trkpt lat="40.431935" lon="9.0138333"><ele>1019.0</ele><time>2026-04-30T10:23:37.773Z</time></trkpt><trkpt lat="40.4319867" lon="9.0136233"><ele>1019.0</ele><time>2026-04-30T10:23:38.774Z</time></trkpt><trkpt lat="40.4320183" lon="9.0134133"><ele>1019.0</ele><time>2026-04-30T10:23:39.77Z</time></trkpt><trkpt lat="40.432025" lon="9.0132017"><ele>1019.0</ele><time>2026-04-30T10:23:40.769Z</time></trkpt><trkpt lat="40.4320133" lon="9.01299"><ele>1024.3333333333335</ele><time>2026-04-30T10:23:41.769Z</time></trkpt><trkpt lat="40.43195" lon="9.0127783"><ele>1029.6666666666667</ele><time>2026-04-30T10:23:42.771Z</time></trkpt><trkpt lat="40.431885" lon="9.0125683"><ele>1035.0</ele><time>2026-04-30T10:23:43.771Z</time></trkpt><trkpt lat="40.4318117" lon="9.012355"><ele>1037.0</ele><time>2026-04-30T10:23:44.777Z</time></trkpt><trkpt lat="40.4317333" lon="9.01214"><ele>1039.0</ele><time>2026-04-30T10:23:45.769Z</time></trkpt><trkpt lat="40.43165" lon="9.0119283"><ele>1041.0</ele><time>2026-04-30T10:23:46.771Z</time></trkpt><trkpt lat="40.4315567" lon="9.0117217"><ele>1042.0</ele><time>2026-04-30T10:23:47.769Z</time></trkpt><trkpt lat="40.4314667" lon="9.0115167"><ele>1043.0</ele><time>2026-04-30T10:23:48.772Z</time></trkpt><trkpt lat="40.4313667" lon="9.0113167"><ele>1044.0</ele><time>2026-04-30T10:23:49.767Z</time></trkpt><trkpt lat="40.4312717" lon="9.0111183"><ele>1044.0</ele><time>2026-04-30T10:23:50.776Z</time></trkpt><trkpt lat="40.43118" lon="9.01092"><ele>1044.0</ele><time>2026-04-30T10:23:51.77Z</time></trkpt><trkpt lat="40.4310883" lon="9.0107233"><ele>1044.0</ele><time>2026-04-30T10:23:52.768Z</time></trkpt><trkpt lat="40.4309983" lon="9.0105267"><ele>1044.0</ele><time>2026-04-30T10:23:53.768Z</time></trkpt><trkpt lat="40.43091" lon="9.0103267"><ele>1044.0</ele><time>2026-04-30T10:23:54.767Z</time></trkpt><trkpt lat="40.4308183" lon="9.0101267"><ele>1044.0</ele><time>2026-04-30T10:23:55.772Z</time></trkpt><trkpt lat="40.4307267" lon="9.0099283"><ele>1042.0</ele><time>2026-04-30T10:23:56.835Z</time></trkpt><trkpt lat="40.43064" lon="9.0097267"><ele>1040.0</ele><time>2026-04-30T10:23:57.769Z</time></trkpt><trkpt lat="40.4305567" lon="9.0095283"><ele>1038.0</ele><time>2026-04-30T10:23:58.77Z</time></trkpt><trkpt lat="40.43048" lon="9.00933"><ele>1040.6666666666667</ele><time>2026-04-30T10:23:59.772Z</time></trkpt><trkpt lat="40.4304117" lon="9.00913"><ele>1043.3333333333335</ele><time>2026-04-30T10:24:00.767Z</time></trkpt><trkpt lat="40.4303483" lon="9.0089233"><ele>1046.0</ele><time>2026-04-30T10:24:01.767Z</time></trkpt><trkpt lat="40.4302867" lon="9.0087083"><ele>1046.0</ele><time>2026-04-30T10:24:02.811Z</time></trkpt><trkpt lat="40.43023" lon="9.0084883"><ele>1046.0</ele><time>2026-04-30T10:24:03.771Z</time></trkpt><trkpt lat="40.4301783" lon="9.00827"><ele>1046.0</ele><time>2026-04-30T10:24:04.772Z</time></trkpt><trkpt lat="40.4301317" lon="9.00805"><ele>1044.6666666666667</ele><time>2026-04-30T10:24:05.767Z</time></trkpt><trkpt lat="40.4300867" lon="9.0078367"><ele>1043.3333333333333</ele><time>2026-04-30T10:24:06.771Z</time></trkpt><trkpt lat="40.4300483" lon="9.0076267"><ele>1042.0</ele><time>2026-04-30T10:24:07.772Z</time></trkpt><trkpt lat="40.4300133" lon="9.0074217"><ele>1042.0</ele><time>2026-04-30T10:24:08.774Z</time></trkpt><trkpt lat="40.4299917" lon="9.0072133"><ele>1042.0</ele><time>2026-04-30T10:24:09.77Z</time></trkpt><trkpt lat="40.429985" lon="9.0070017"><ele>1042.0</ele><time>2026-04-30T10:24:10.771Z</time></trkpt><trkpt lat="40.42999" lon="9.00679"><ele>1040.6666666666665</ele><time>2026-04-30T10:24:11.773Z</time></trkpt><trkpt lat="40.4300083" lon="9.0065867"><ele>1039.3333333333333</ele><time>2026-04-30T10:24:12.771Z</time></trkpt><trkpt lat="40.43004" lon="9.0063783"><ele>1038.0</ele><time>2026-04-30T10:24:13.771Z</time></trkpt><trkpt lat="40.43007" lon="9.0061667"><ele>1038.0</ele><time>2026-04-30T10:24:14.772Z</time></trkpt><trkpt lat="40.4300883" lon="9.0059533"><ele>1038.0</ele><time>2026-04-30T10:24:15.768Z</time></trkpt><trkpt lat="40.430075" lon="9.005745"><ele>1038.0</ele><time>2026-04-30T10:24:16.772Z</time></trkpt><trkpt lat="40.43005" lon="9.0055483"><ele>1038.25</ele><time>2026-04-30T10:24:17.773Z</time></trkpt><trkpt lat="40.4300267" lon="9.00536"><ele>1038.5</ele><time>2026-04-30T10:24:18.772Z</time></trkpt><trkpt lat="40.43001" lon="9.00518"><ele>1038.75</ele><time>2026-04-30T10:24:19.77Z</time></trkpt><trkpt lat="40.4299983" lon="9.0050067"><ele>1039.0</ele><time>2026-04-30T10:24:20.776Z</time></trkpt><trkpt lat="40.4300067" lon="9.0048333"><ele>1041.5</ele><time>2026-04-30T10:24:21.771Z</time></trkpt><trkpt lat="40.430035" lon="9.0046483"><ele>1044.0</ele><time>2026-04-30T10:24:22.766Z</time></trkpt><trkpt lat="40.4300717" lon="9.0044733"><ele>1046.5</ele><time>2026-04-30T10:24:23.77Z</time></trkpt><trkpt lat="40.4301567" lon="9.004315"><ele>1049.0</ele><time>2026-04-30T10:24:24.77Z</time></trkpt><trkpt lat="40.4302667" lon="9.004195"><ele>1048.6666666666667</ele><time>2026-04-30T10:24:25.77Z</time></trkpt><trkpt lat="40.4303733" lon="9.0040767"><ele>1048.3333333333333</ele><time>2026-04-30T10:24:26.837Z</time></trkpt><trkpt lat="40.4304967" lon="9.003955"><ele>1048.0</ele><time>2026-04-30T10:24:27.766Z</time></trkpt><trkpt lat="40.4306167" lon="9.0038033"><ele>1042.25</ele><time>2026-04-30T10:24:28.769Z</time></trkpt><trkpt lat="40.430705" lon="9.003665"><ele>1036.5</ele><time>2026-04-30T10:24:29.768Z</time></trkpt><trkpt lat="40.4307767" lon="9.003525"><ele>1030.75</ele><time>2026-04-30T10:24:30.771Z</time></trkpt><trkpt lat="40.4308317" lon="9.00338"><ele>1025.0</ele><time>2026-04-30T10:24:31.771Z</time></trkpt><trkpt lat="40.4308617" lon="9.0032233"><ele>1023.3333333333334</ele><time>2026-04-30T10:24:32.811Z</time></trkpt><trkpt lat="40.4308883" lon="9.00306"><ele>1021.6666666666667</ele><time>2026-04-30T10:24:33.766Z</time></trkpt><trkpt lat="40.4308733" lon="9.0028383"><ele>1020.0</ele><time>2026-04-30T10:24:34.768Z</time></trkpt><trkpt lat="40.4308583" lon="9.00257"><ele>1017.3333333333333</ele><time>2026-04-30T10:24:35.771Z</time></trkpt><trkpt lat="40.4308467" lon="9.0023167"><ele>1014.6666666666666</ele><time>2026-04-30T10:24:36.772Z</time></trkpt><trkpt lat="40.430815" lon="9.002065"><ele>1012.0</ele><time>2026-04-30T10:24:37.773Z</time></trkpt><trkpt lat="40.4307833" lon="9.00182"><ele>1007.6666666666666</ele><time>2026-04-30T10:24:38.776Z</time></trkpt><trkpt lat="40.4307383" lon="9.0015933"><ele>1003.3333333333333</ele><time>2026-04-30T10:24:39.766Z</time></trkpt><trkpt lat="40.4306867" lon="9.0013917"><ele>999.0</ele><time>2026-04-30T10:24:40.767Z</time></trkpt><trkpt lat="40.4306167" lon="9.00121"><ele>999.0</ele><time>2026-04-30T10:24:41.769Z</time></trkpt><trkpt lat="40.4305333" lon="9.0010433"><ele>999.0</ele><time>2026-04-30T10:24:42.77Z</time></trkpt><trkpt lat="40.43043" lon="9.00089"><ele>999.0</ele><time>2026-04-30T10:24:43.767Z</time></trkpt><trkpt lat="40.4303267" lon="9.000755"><ele>997.5</ele><time>2026-04-30T10:24:44.775Z</time></trkpt><trkpt lat="40.43024" lon="9.0006267"><ele>996.0</ele><time>2026-04-30T10:24:45.769Z</time></trkpt><trkpt lat="40.4301433" lon="9.0005217"><ele>994.5</ele><time>2026-04-30T10:24:46.764Z</time></trkpt><trkpt lat="40.4300517" lon="9.0004183"><ele>993.0</ele><time>2026-04-30T10:24:47.771Z</time></trkpt><trkpt lat="40.4299533" lon="9.00032"><ele>993.0</ele><time>2026-04-30T10:24:48.768Z</time></trkpt><trkpt lat="40.4298483" lon="9.00022"><ele>993.0</ele><time>2026-04-30T10:24:49.771Z</time></trkpt><trkpt lat="40.4297533" lon="9.000115"><ele>993.0</ele><time>2026-04-30T10:24:50.773Z</time></trkpt><trkpt lat="40.429665" lon="8.9999983"><ele>993.0</ele><time>2026-04-30T10:24:51.769Z</time></trkpt><trkpt lat="40.4295883" lon="8.9998533"><ele>1001.3333333333333</ele><time>2026-04-30T10:24:52.769Z</time></trkpt><trkpt lat="40.4295117" lon="8.9996967"><ele>1009.6666666666666</ele><time>2026-04-30T10:24:53.77Z</time></trkpt><trkpt lat="40.4294483" lon="8.9995183"><ele>1018.0</ele><time>2026-04-30T10:24:54.769Z</time></trkpt><trkpt lat="40.4293917" lon="8.9993233"><ele>1012.6666666666666</ele><time>2026-04-30T10:24:55.769Z</time></trkpt><trkpt lat="40.4293467" lon="8.9991"><ele>1007.3333333333333</ele><time>2026-04-30T10:24:56.834Z</time></trkpt><trkpt lat="40.4292767" lon="8.9989333"><ele>1002.0</ele><time>2026-04-30T10:24:57.77Z</time></trkpt><trkpt lat="40.42921" lon="8.9987767"><ele>1002.0</ele><time>2026-04-30T10:24:58.773Z</time></trkpt><trkpt lat="40.4291233" lon="8.998635"><ele>1002.0</ele><time>2026-04-30T10:24:59.775Z</time></trkpt><trkpt lat="40.4290217" lon="8.9985283"><ele>1002.0</ele><time>2026-04-30T10:25:00.768Z</time></trkpt><trkpt lat="40.4288533" lon="8.9984967"><ele>1002.0</ele><time>2026-04-30T10:25:01.771Z</time></trkpt><trkpt lat="40.428755" lon="8.9984033"><ele>1001.6666666666667</ele><time>2026-04-30T10:25:02.812Z</time></trkpt><trkpt lat="40.4285783" lon="8.9984167"><ele>1001.3333333333334</ele><time>2026-04-30T10:25:03.77Z</time></trkpt><trkpt lat="40.4283533" lon="8.998545"><ele>1001.0</ele><time>2026-04-30T10:25:04.771Z</time></trkpt><trkpt lat="40.4281667" lon="8.9986317"><ele>997.0</ele><time>2026-04-30T10:25:05.769Z</time></trkpt><trkpt lat="40.4279617" lon="8.9987517"><ele>993.0</ele><time>2026-04-30T10:25:06.767Z</time></trkpt><trkpt lat="40.42779" lon="8.9988283"><ele>989.0</ele><time>2026-04-30T10:25:07.771Z</time></trkpt><trkpt lat="40.4276383" lon="8.9989417"><ele>989.0</ele><time>2026-04-30T10:25:08.775Z</time></trkpt><trkpt lat="40.4275" lon="8.999095"><ele>989.0</ele><time>2026-04-30T10:25:09.767Z</time></trkpt><trkpt lat="40.42738" lon="8.9992033"><ele>989.0</ele><time>2026-04-30T10:25:10.766Z</time></trkpt><trkpt lat="40.4272433" lon="8.9993117"><ele>995.0</ele><time>2026-04-30T10:25:11.771Z</time></trkpt><trkpt lat="40.4271133" lon="8.9993917"><ele>1001.0</ele><time>2026-04-30T10:25:12.772Z</time></trkpt><trkpt lat="40.42699" lon="8.9994733"><ele>1007.0</ele><time>2026-04-30T10:25:13.765Z</time></trkpt><trkpt lat="40.4268917" lon="8.9995633"><ele>1013.0</ele><time>2026-04-30T10:25:14.776Z</time></trkpt><trkpt lat="40.4267867" lon="8.9995833"><ele>1013.0</ele><time>2026-04-30T10:25:15.772Z</time></trkpt><trkpt lat="40.4266883" lon="8.9995367"><ele>1013.0</ele><time>2026-04-30T10:25:16.77Z</time></trkpt><trkpt lat="40.4266333" lon="8.999415"><ele>1013.0</ele><time>2026-04-30T10:25:17.773Z</time></trkpt><trkpt lat="40.426585" lon="8.999315"><ele>1013.0</ele><time>2026-04-30T10:25:18.774Z</time></trkpt><trkpt lat="40.4265283" lon="8.9991883"><ele>1013.0</ele><time>2026-04-30T10:25:19.77Z</time></trkpt><trkpt lat="40.42648" lon="8.9990717"><ele>1012.0</ele><time>2026-04-30T10:25:20.773Z</time></trkpt><trkpt lat="40.4264383" lon="8.9989683"><ele>1011.0</ele><time>2026-04-30T10:25:21.768Z</time></trkpt><trkpt lat="40.4263467" lon="8.9988117"><ele>1010.0</ele><time>2026-04-30T10:25:22.767Z</time></trkpt><trkpt lat="40.4262917" lon="8.9986433"><ele>1009.0</ele><time>2026-04-30T10:25:23.769Z</time></trkpt><trkpt lat="40.4262683" lon="8.9983983"><ele>1021.6666666666666</ele><time>2026-04-30T10:25:24.769Z</time></trkpt><trkpt lat="40.4262983" lon="8.9980883"><ele>1034.3333333333333</ele><time>2026-04-30T10:25:25.769Z</time></trkpt><trkpt lat="40.4262917" lon="8.9978267"><ele>1047.0</ele><time>2026-04-30T10:25:26.835Z</time></trkpt><trkpt lat="40.426305" lon="8.9975683"><ele>1045.3333333333333</ele><time>2026-04-30T10:25:27.77Z</time></trkpt><trkpt lat="40.4263067" lon="8.997335"><ele>1043.6666666666665</ele><time>2026-04-30T10:25:28.771Z</time></trkpt><trkpt lat="40.4263033" lon="8.99711"><ele>1042.0</ele><time>2026-04-30T10:25:29.77Z</time></trkpt><trkpt lat="40.42628" lon="8.9968917"><ele>1042.0</ele><time>2026-04-30T10:25:30.769Z</time></trkpt><trkpt lat="40.42624" lon="8.9966833"><ele>1042.0</ele><time>2026-04-30T10:25:31.771Z</time></trkpt><trkpt lat="40.4262033" lon="8.9964533"><ele>1042.0</ele><time>2026-04-30T10:25:32.81Z</time></trkpt><trkpt lat="40.4261533" lon="8.99625"><ele>1036.0</ele><time>2026-04-30T10:25:33.769Z</time></trkpt><trkpt lat="40.42611" lon="8.99601"><ele>1030.0</ele><time>2026-04-30T10:25:34.768Z</time></trkpt><trkpt lat="40.426035" lon="8.9958133"><ele>1024.0</ele><time>2026-04-30T10:25:35.767Z</time></trkpt><trkpt lat="40.4260067" lon="8.9955667"><ele>1017.5</ele><time>2026-04-30T10:25:36.772Z</time></trkpt><trkpt lat="40.4259183" lon="8.9954017"><ele>1011.0</ele><time>2026-04-30T10:25:37.772Z</time></trkpt><trkpt lat="40.4258367" lon="8.9952267"><ele>1004.5</ele><time>2026-04-30T10:25:38.77Z</time></trkpt><trkpt lat="40.4257267" lon="8.995115"><ele>998.0</ele><time>2026-04-30T10:25:39.769Z</time></trkpt><trkpt lat="40.4256117" lon="8.9950317"><ele>995.75</ele><time>2026-04-30T10:25:40.765Z</time></trkpt><trkpt lat="40.4255183" lon="8.9949183"><ele>993.5</ele><time>2026-04-30T10:25:41.774Z</time></trkpt><trkpt lat="40.425435" lon="8.994805"><ele>991.25</ele><time>2026-04-30T10:25:42.768Z</time></trkpt><trkpt lat="40.425365" lon="8.99469"><ele>989.0</ele><time>2026-04-30T10:25:43.766Z</time></trkpt><trkpt lat="40.4253083" lon="8.994575"><ele>989.0</ele><time>2026-04-30T10:25:44.774Z</time></trkpt><trkpt lat="40.42527" lon="8.9944433"><ele>989.0</ele><time>2026-04-30T10:25:45.77Z</time></trkpt><trkpt lat="40.4252317" lon="8.9943067"><ele>989.0</ele><time>2026-04-30T10:25:46.768Z</time></trkpt><trkpt lat="40.4252267" lon="8.9941417"><ele>989.0</ele><time>2026-04-30T10:25:47.769Z</time></trkpt><trkpt lat="40.4252517" lon="8.9939267"><ele>991.0</ele><time>2026-04-30T10:25:48.766Z</time></trkpt><trkpt lat="40.4252867" lon="8.99371"><ele>993.0</ele><time>2026-04-30T10:25:49.769Z</time></trkpt><trkpt lat="40.42534" lon="8.9934733"><ele>995.0</ele><time>2026-04-30T10:25:50.773Z</time></trkpt><trkpt lat="40.4253917" lon="8.993255"><ele>995.3333333333334</ele><time>2026-04-30T10:25:51.769Z</time></trkpt><trkpt lat="40.4254517" lon="8.9930283"><ele>995.6666666666667</ele><time>2026-04-30T10:25:52.771Z</time></trkpt><trkpt lat="40.425535" lon="8.9928"><ele>996.0</ele><time>2026-04-30T10:25:53.768Z</time></trkpt><trkpt lat="40.4256067" lon="8.9925983"><ele>985.3333333333333</ele><time>2026-04-30T10:25:54.769Z</time></trkpt><trkpt lat="40.425695" lon="8.992405"><ele>974.6666666666666</ele><time>2026-04-30T10:25:55.772Z</time></trkpt><trkpt lat="40.4257933" lon="8.9922217"><ele>964.0</ele><time>2026-04-30T10:25:56.831Z</time></trkpt><trkpt lat="40.4258983" lon="8.9920517"><ele>964.0</ele><time>2026-04-30T10:25:57.771Z</time></trkpt><trkpt lat="40.4260117" lon="8.9918967"><ele>964.0</ele><time>2026-04-30T10:25:58.771Z</time></trkpt><trkpt lat="40.4261267" lon="8.99177"><ele>964.0</ele><time>2026-04-30T10:25:59.767Z</time></trkpt><trkpt lat="40.4262583" lon="8.9916433"><ele>971.6666666666666</ele><time>2026-04-30T10:26:00.77Z</time></trkpt><trkpt lat="40.4263983" lon="8.9915283"><ele>979.3333333333333</ele><time>2026-04-30T10:26:01.769Z</time></trkpt><trkpt lat="40.42654" lon="8.9914633"><ele>987.0</ele><time>2026-04-30T10:26:02.784Z</time></trkpt><trkpt lat="40.4266617" lon="8.99137"><ele>987.0</ele><time>2026-04-30T10:26:03.774Z</time></trkpt><trkpt lat="40.4267833" lon="8.9912683"><ele>987.0</ele><time>2026-04-30T10:26:04.767Z</time></trkpt><trkpt lat="40.42694" lon="8.9912217"><ele>987.0</ele><time>2026-04-30T10:26:05.769Z</time></trkpt><trkpt lat="40.4271367" lon="8.9912483"><ele>984.0</ele><time>2026-04-30T10:26:06.768Z</time></trkpt><trkpt lat="40.42738" lon="8.991345"><ele>981.0</ele><time>2026-04-30T10:26:07.766Z</time></trkpt><trkpt lat="40.4276333" lon="8.99149"><ele>981.0</ele><time>2026-04-30T10:26:08.777Z</time></trkpt><trkpt lat="40.4278" lon="8.9915383"><ele>981.0</ele><time>2026-04-30T10:26:09.765Z</time></trkpt><trkpt lat="40.4279583" lon="8.9915933"><ele>981.0</ele><time>2026-04-30T10:26:10.772Z</time></trkpt><trkpt lat="40.4282683" lon="8.9916567"><ele>967.0</ele><time>2026-04-30T10:26:11.771Z</time></trkpt><trkpt lat="40.42852" lon="8.9916883"><ele>953.0</ele><time>2026-04-30T10:26:12.769Z</time></trkpt><trkpt lat="40.4287483" lon="8.9917017"><ele>954.0</ele><time>2026-04-30T10:26:13.77Z</time></trkpt><trkpt lat="40.4289667" lon="8.99177"><ele>955.0</ele><time>2026-04-30T10:26:14.774Z</time></trkpt><trkpt lat="40.429175" lon="8.9917833"><ele>956.0</ele><time>2026-04-30T10:26:15.771Z</time></trkpt><trkpt lat="40.429375" lon="8.99178"><ele>956.0</ele><time>2026-04-30T10:26:16.77Z</time></trkpt><trkpt lat="40.42953" lon="8.99166"><ele>956.0</ele><time>2026-04-30T10:26:17.77Z</time></trkpt><trkpt lat="40.429675" lon="8.9915517"><ele>956.0</ele><time>2026-04-30T10:26:18.766Z</time></trkpt><trkpt lat="40.4297817" lon="8.9914133"><ele>956.0</ele><time>2026-04-30T10:26:19.768Z</time></trkpt><trkpt lat="40.42989" lon="8.9912833"><ele>956.0</ele><time>2026-04-30T10:26:20.773Z</time></trkpt><trkpt lat="40.4299483" lon="8.9911433"><ele>956.0</ele><time>2026-04-30T10:26:21.764Z</time></trkpt><trkpt lat="40.429985" lon="8.9909967"><ele>956.0</ele><time>2026-04-30T10:26:22.766Z</time></trkpt><trkpt lat="40.4297933" lon="8.99081"><ele>955.6666666666667</ele><time>2026-04-30T10:26:23.767Z</time></trkpt><trkpt lat="40.4296817" lon="8.9906133"><ele>955.3333333333333</ele><time>2026-04-30T10:26:24.771Z</time></trkpt><trkpt lat="40.4295183" lon="8.990355"><ele>955.0</ele><time>2026-04-30T10:26:25.77Z</time></trkpt><trkpt lat="40.4293867" lon="8.99014"><ele>950.6666666666666</ele><time>2026-04-30T10:26:26.833Z</time></trkpt><trkpt lat="40.4292583" lon="8.9899317"><ele>946.3333333333333</ele><time>2026-04-30T10:26:27.764Z</time></trkpt><trkpt lat="40.42911" lon="8.9896967"><ele>942.0</ele><time>2026-04-30T10:26:28.769Z</time></trkpt><trkpt lat="40.42897" lon="8.989485"><ele>942.0</ele><time>2026-04-30T10:26:29.768Z</time></trkpt><trkpt lat="40.4288317" lon="8.9893017"><ele>942.0</ele><time>2026-04-30T10:26:30.768Z</time></trkpt><trkpt lat="40.4286733" lon="8.989115"><ele>942.0</ele><time>2026-04-30T10:26:31.77Z</time></trkpt><trkpt lat="40.4285167" lon="8.988935"><ele>943.6666666666667</ele><time>2026-04-30T10:26:32.807Z</time></trkpt><trkpt lat="40.428375" lon="8.9887583"><ele>945.3333333333334</ele><time>2026-04-30T10:26:33.766Z</time></trkpt><trkpt lat="40.4282383" lon="8.9885833"><ele>947.0</ele><time>2026-04-30T10:26:34.77Z</time></trkpt><trkpt lat="40.4281217" lon="8.9884017"><ele>950.3333333333334</ele><time>2026-04-30T10:26:35.769Z</time></trkpt><trkpt lat="40.4280167" lon="8.9882233"><ele>953.6666666666667</ele><time>2026-04-30T10:26:36.769Z</time></trkpt><trkpt lat="40.4279233" lon="8.9880467"><ele>957.0</ele><time>2026-04-30T10:26:37.767Z</time></trkpt><trkpt lat="40.42783" lon="8.9878783"><ele>957.0</ele><time>2026-04-30T10:26:38.775Z</time></trkpt><trkpt lat="40.4277417" lon="8.98771"><ele>957.0</ele><time>2026-04-30T10:26:39.769Z</time></trkpt><trkpt lat="40.4276667" lon="8.98754"><ele>957.0</ele><time>2026-04-30T10:26:40.771Z</time></trkpt><trkpt lat="40.4276033" lon="8.98737"><ele>957.0</ele><time>2026-04-30T10:26:41.77Z</time></trkpt><trkpt lat="40.427545" lon="8.9872"><ele>958.0</ele><time>2026-04-30T10:26:42.766Z</time></trkpt><trkpt lat="40.4274883" lon="8.9870317"><ele>959.0</ele><time>2026-04-30T10:26:43.762Z</time></trkpt><trkpt lat="40.427435" lon="8.9868683"><ele>960.0</ele><time>2026-04-30T10:26:44.775Z</time></trkpt><trkpt lat="40.4273867" lon="8.9867217"><ele>961.0</ele><time>2026-04-30T10:26:45.771Z</time></trkpt><trkpt lat="40.42733" lon="8.98659"><ele>961.0</ele><time>2026-04-30T10:26:46.766Z</time></trkpt><trkpt lat="40.4273017" lon="8.98647"><ele>960.9999999999999</ele><time>2026-04-30T10:26:47.768Z</time></trkpt><trkpt lat="40.4272683" lon="8.9863867"><ele>960.9999999999999</ele><time>2026-04-30T10:26:48.768Z</time></trkpt><trkpt lat="40.4272167" lon="8.9862833"><ele>961.0</ele><time>2026-04-30T10:26:49.764Z</time></trkpt><trkpt lat="40.427165" lon="8.9861833"><ele>961.0</ele><time>2026-04-30T10:26:50.773Z</time></trkpt><trkpt lat="40.427185" lon="8.98605"><ele>961.0</ele><time>2026-04-30T10:26:51.769Z</time></trkpt><trkpt lat="40.4272267" lon="8.985895"><ele>961.0</ele><time>2026-04-30T10:26:52.769Z</time></trkpt><trkpt lat="40.4272017" lon="8.9857117"><ele>961.0</ele><time>2026-04-30T10:26:53.768Z</time></trkpt><trkpt lat="40.4272883" lon="8.9855233"><ele>961.0</ele><time>2026-04-30T10:26:54.771Z</time></trkpt><trkpt lat="40.427355" lon="8.9853483"><ele>963.6666666666666</ele><time>2026-04-30T10:26:55.769Z</time></trkpt><trkpt lat="40.427525" lon="8.9851867"><ele>966.3333333333333</ele><time>2026-04-30T10:26:56.835Z</time></trkpt><trkpt lat="40.427665" lon="8.9850467"><ele>969.0</ele><time>2026-04-30T10:26:57.77Z</time></trkpt><trkpt lat="40.427805" lon="8.9849017"><ele>969.0</ele><time>2026-04-30T10:26:58.768Z</time></trkpt><trkpt lat="40.4279383" lon="8.9847567"><ele>969.0</ele><time>2026-04-30T10:26:59.765Z</time></trkpt><trkpt lat="40.4280667" lon="8.98461"><ele>969.0</ele><time>2026-04-30T10:27:00.768Z</time></trkpt><trkpt lat="40.4281933" lon="8.9844583"><ele>968.6666666666667</ele><time>2026-04-30T10:27:01.768Z</time></trkpt><trkpt lat="40.4283167" lon="8.98432"><ele>968.3333333333334</ele><time>2026-04-30T10:27:02.832Z</time></trkpt><trkpt lat="40.4284317" lon="8.9841667"><ele>968.0</ele><time>2026-04-30T10:27:03.766Z</time></trkpt><trkpt lat="40.4285533" lon="8.9840133"><ele>966.6666666666667</ele><time>2026-04-30T10:27:04.767Z</time></trkpt><trkpt lat="40.4286767" lon="8.9838533"><ele>965.3333333333333</ele><time>2026-04-30T10:27:05.764Z</time></trkpt><trkpt lat="40.4287983" lon="8.9836867"><ele>964.0</ele><time>2026-04-30T10:27:06.769Z</time></trkpt><trkpt lat="40.42893" lon="8.98353"><ele>960.6666666666666</ele><time>2026-04-30T10:27:07.765Z</time></trkpt><trkpt lat="40.4290717" lon="8.9833717"><ele>957.3333333333333</ele><time>2026-04-30T10:27:08.771Z</time></trkpt><trkpt lat="40.429215" lon="8.9832133"><ele>954.0</ele><time>2026-04-30T10:27:09.769Z</time></trkpt><trkpt lat="40.42936" lon="8.9830567"><ele>951.0</ele><time>2026-04-30T10:27:10.767Z</time></trkpt><trkpt lat="40.4294983" lon="8.982915"><ele>948.0</ele><time>2026-04-30T10:27:11.77Z</time></trkpt><trkpt lat="40.42963" lon="8.9828"><ele>945.0</ele><time>2026-04-30T10:27:12.77Z</time></trkpt><trkpt lat="40.429755" lon="8.98268"><ele>941.6666666666667</ele><time>2026-04-30T10:27:13.765Z</time></trkpt><trkpt lat="40.4298733" lon="8.9825567"><ele>938.3333333333334</ele><time>2026-04-30T10:27:14.77Z</time></trkpt><trkpt lat="40.4300033" lon="8.9824167"><ele>935.0</ele><time>2026-04-30T10:27:15.766Z</time></trkpt><trkpt lat="40.4301317" lon="8.9822733"><ele>931.6666666666667</ele><time>2026-04-30T10:27:16.765Z</time></trkpt><trkpt lat="40.4302533" lon="8.982135"><ele>928.3333333333333</ele><time>2026-04-30T10:27:17.771Z</time></trkpt><trkpt lat="40.4303683" lon="8.9819833"><ele>925.0</ele><time>2026-04-30T10:27:18.767Z</time></trkpt><trkpt lat="40.4304667" lon="8.9818283"><ele>916.6666666666666</ele><time>2026-04-30T10:27:19.767Z</time></trkpt><trkpt lat="40.4305567" lon="8.9816717"><ele>908.3333333333333</ele><time>2026-04-30T10:27:20.771Z</time></trkpt><trkpt lat="40.430845" lon="8.9816417"><ele>900.0</ele><time>2026-04-30T10:27:21.773Z</time></trkpt><trkpt lat="40.4309917" lon="8.981515"><ele>900.0</ele><time>2026-04-30T10:27:22.767Z</time></trkpt><trkpt lat="40.4311" lon="8.9813967"><ele>900.0</ele><time>2026-04-30T10:27:23.77Z</time></trkpt><trkpt lat="40.431255" lon="8.9812983"><ele>900.0</ele><time>2026-04-30T10:27:24.769Z</time></trkpt><trkpt lat="40.4314567" lon="8.981245"><ele>898.75</ele><time>2026-04-30T10:27:25.768Z</time></trkpt><trkpt lat="40.4316167" lon="8.9811517"><ele>897.5</ele><time>2026-04-30T10:27:26.832Z</time></trkpt><trkpt lat="40.4315833" lon="8.9810167"><ele>896.25</ele><time>2026-04-30T10:27:27.766Z</time></trkpt><trkpt lat="40.4315367" lon="8.98085"><ele>895.0</ele><time>2026-04-30T10:27:28.77Z</time></trkpt><trkpt lat="40.43146" lon="8.98068"><ele>892.0</ele><time>2026-04-30T10:27:29.77Z</time></trkpt><trkpt lat="40.4313567" lon="8.98051"><ele>889.0</ele><time>2026-04-30T10:27:30.769Z</time></trkpt><trkpt lat="40.4312417" lon="8.980345"><ele>886.0</ele><time>2026-04-30T10:27:31.769Z</time></trkpt><trkpt lat="40.43112" lon="8.9801917"><ele>886.0</ele><time>2026-04-30T10:27:32.792Z</time></trkpt><trkpt lat="40.4310083" lon="8.9800367"><ele>886.0</ele><time>2026-04-30T10:27:33.764Z</time></trkpt><trkpt lat="40.43087" lon="8.979905"><ele>886.0</ele><time>2026-04-30T10:27:34.77Z</time></trkpt><trkpt lat="40.430705" lon="8.9798017"><ele>885.6666666666666</ele><time>2026-04-30T10:27:35.77Z</time></trkpt><trkpt lat="40.430545" lon="8.9796817"><ele>885.3333333333333</ele><time>2026-04-30T10:27:36.768Z</time></trkpt><trkpt lat="40.4304017" lon="8.9795433"><ele>885.0</ele><time>2026-04-30T10:27:37.768Z</time></trkpt><trkpt lat="40.4302583" lon="8.9794067"><ele>885.0</ele><time>2026-04-30T10:27:38.772Z</time></trkpt><trkpt lat="40.4301183" lon="8.9792733"><ele>885.0</ele><time>2026-04-30T10:27:39.766Z</time></trkpt><trkpt lat="40.429985" lon="8.979135"><ele>885.0</ele><time>2026-04-30T10:27:40.768Z</time></trkpt><trkpt lat="40.4298567" lon="8.979"><ele>884.0</ele><time>2026-04-30T10:27:41.767Z</time></trkpt><trkpt lat="40.42974" lon="8.9788533"><ele>883.0</ele><time>2026-04-30T10:27:42.766Z</time></trkpt><trkpt lat="40.4296283" lon="8.9787017"><ele>882.0</ele><time>2026-04-30T10:27:43.771Z</time></trkpt><trkpt lat="40.4295217" lon="8.9785383"><ele>882.0</ele><time>2026-04-30T10:27:44.775Z</time></trkpt><trkpt lat="40.4294167" lon="8.9783667"><ele>882.0</ele><time>2026-04-30T10:27:45.767Z</time></trkpt><trkpt lat="40.4293267" lon="8.978185"><ele>882.0</ele><time>2026-04-30T10:27:46.767Z</time></trkpt><trkpt lat="40.429245" lon="8.977985"><ele>877.6666666666667</ele><time>2026-04-30T10:27:47.77Z</time></trkpt><trkpt lat="40.4291533" lon="8.9777917"><ele>873.3333333333334</ele><time>2026-04-30T10:27:48.77Z</time></trkpt><trkpt lat="40.429055" lon="8.9775967"><ele>869.0</ele><time>2026-04-30T10:27:49.768Z</time></trkpt><trkpt lat="40.4289333" lon="8.9774"><ele>867.3333333333334</ele><time>2026-04-30T10:27:50.773Z</time></trkpt><trkpt lat="40.4288033" lon="8.9772133"><ele>865.6666666666667</ele><time>2026-04-30T10:27:51.772Z</time></trkpt><trkpt lat="40.42868" lon="8.97703"><ele>864.0</ele><time>2026-04-30T10:27:52.766Z</time></trkpt><trkpt lat="40.4285667" lon="8.97684"><ele>860.3333333333333</ele><time>2026-04-30T10:27:53.769Z</time></trkpt><trkpt lat="40.4284683" lon="8.9766433"><ele>856.6666666666666</ele><time>2026-04-30T10:27:54.765Z</time></trkpt><trkpt lat="40.4283817" lon="8.97644"><ele>853.0</ele><time>2026-04-30T10:27:55.768Z</time></trkpt><trkpt lat="40.4283017" lon="8.97624"><ele>853.0</ele><time>2026-04-30T10:27:56.811Z</time></trkpt><trkpt lat="40.428225" lon="8.97605"><ele>853.0</ele><time>2026-04-30T10:27:57.767Z</time></trkpt><trkpt lat="40.428145" lon="8.9758833"><ele>853.0</ele><time>2026-04-30T10:27:58.771Z</time></trkpt><trkpt lat="40.42807" lon="8.9757383"><ele>853.0</ele><time>2026-04-30T10:27:59.765Z</time></trkpt><trkpt lat="40.4279917" lon="8.9756183"><ele>848.75</ele><time>2026-04-30T10:28:00.767Z</time></trkpt><trkpt lat="40.4278983" lon="8.9755283"><ele>844.5</ele><time>2026-04-30T10:28:01.769Z</time></trkpt><trkpt lat="40.427795" lon="8.975475"><ele>840.25</ele><time>2026-04-30T10:28:02.77Z</time></trkpt><trkpt lat="40.427635" lon="8.9755733"><ele>836.0</ele><time>2026-04-30T10:28:03.775Z</time></trkpt><trkpt lat="40.4274883" lon="8.97575"><ele>835.3333333333334</ele><time>2026-04-30T10:28:04.769Z</time></trkpt><trkpt lat="40.4273617" lon="8.9759283"><ele>834.6666666666667</ele><time>2026-04-30T10:28:05.771Z</time></trkpt><trkpt lat="40.4272433" lon="8.9761"><ele>834.0</ele><time>2026-04-30T10:28:06.768Z</time></trkpt><trkpt lat="40.4271167" lon="8.9762767"><ele>834.0</ele><time>2026-04-30T10:28:07.769Z</time></trkpt><trkpt lat="40.4269983" lon="8.97645"><ele>834.0</ele><time>2026-04-30T10:28:08.777Z</time></trkpt><trkpt lat="40.4268917" lon="8.9766133"><ele>834.0</ele><time>2026-04-30T10:28:09.765Z</time></trkpt><trkpt lat="40.42679" lon="8.9768133"><ele>836.0</ele><time>2026-04-30T10:28:10.769Z</time></trkpt><trkpt lat="40.4267233" lon="8.9769933"><ele>838.0</ele><time>2026-04-30T10:28:11.767Z</time></trkpt><trkpt lat="40.4266983" lon="8.9772117"><ele>840.0</ele><time>2026-04-30T10:28:12.767Z</time></trkpt><trkpt lat="40.4266833" lon="8.9774183"><ele>840.75</ele><time>2026-04-30T10:28:13.77Z</time></trkpt><trkpt lat="40.426705" lon="8.97762"><ele>841.5</ele><time>2026-04-30T10:28:14.774Z</time></trkpt><trkpt lat="40.4266983" lon="8.977805"><ele>842.25</ele><time>2026-04-30T10:28:15.769Z</time></trkpt><trkpt lat="40.4266817" lon="8.9779967"><ele>843.0</ele><time>2026-04-30T10:28:16.767Z</time></trkpt><trkpt lat="40.4266333" lon="8.9781717"><ele>843.0</ele><time>2026-04-30T10:28:17.769Z</time></trkpt><trkpt lat="40.4265017" lon="8.978265"><ele>843.0</ele><time>2026-04-30T10:28:18.768Z</time></trkpt><trkpt lat="40.4263567" lon="8.9783367"><ele>843.0</ele><time>2026-04-30T10:28:19.768Z</time></trkpt><trkpt lat="40.4261983" lon="8.9784067"><ele>845.25</ele><time>2026-04-30T10:28:20.776Z</time></trkpt><trkpt lat="40.4260533" lon="8.97846"><ele>847.5</ele><time>2026-04-30T10:28:21.767Z</time></trkpt><trkpt lat="40.4259117" lon="8.9785"><ele>849.75</ele><time>2026-04-30T10:28:22.766Z</time></trkpt><trkpt lat="40.4257717" lon="8.9785117"><ele>852.0</ele><time>2026-04-30T10:28:23.762Z</time></trkpt><trkpt lat="40.425645" lon="8.978395"><ele>848.6666666666667</ele><time>2026-04-30T10:28:24.77Z</time></trkpt><trkpt lat="40.4255133" lon="8.978275"><ele>845.3333333333334</ele><time>2026-04-30T10:28:25.767Z</time></trkpt><trkpt lat="40.4253917" lon="8.9781367"><ele>842.0</ele><time>2026-04-30T10:28:26.786Z</time></trkpt><trkpt lat="40.42528" lon="8.97797"><ele>842.0</ele><time>2026-04-30T10:28:27.771Z</time></trkpt><trkpt lat="40.4251667" lon="8.9777867"><ele>842.0</ele><time>2026-04-30T10:28:28.766Z</time></trkpt><trkpt lat="40.4250333" lon="8.97761"><ele>842.0</ele><time>2026-04-30T10:28:29.772Z</time></trkpt><trkpt lat="40.424895" lon="8.9774417"><ele>842.3333333333334</ele><time>2026-04-30T10:28:30.771Z</time></trkpt><trkpt lat="40.4247667" lon="8.977275"><ele>842.6666666666667</ele><time>2026-04-30T10:28:31.771Z</time></trkpt><trkpt lat="40.4246517" lon="8.9771233"><ele>843.0</ele><time>2026-04-30T10:28:32.766Z</time></trkpt><trkpt lat="40.42455" lon="8.976975"><ele>843.0</ele><time>2026-04-30T10:28:33.765Z</time></trkpt><trkpt lat="40.42446" lon="8.976825"><ele>843.0</ele><time>2026-04-30T10:28:34.767Z</time></trkpt><trkpt lat="40.42438" lon="8.97667"><ele>843.0</ele><time>2026-04-30T10:28:35.769Z</time></trkpt><trkpt lat="40.42431" lon="8.976505"><ele>843.0</ele><time>2026-04-30T10:28:36.766Z</time></trkpt><trkpt lat="40.4242517" lon="8.9763383"><ele>843.0</ele><time>2026-04-30T10:28:37.767Z</time></trkpt><trkpt lat="40.4242" lon="8.97618"><ele>843.0</ele><time>2026-04-30T10:28:38.774Z</time></trkpt><trkpt lat="40.4241583" lon="8.9760233"><ele>843.0</ele><time>2026-04-30T10:28:39.767Z</time></trkpt><trkpt lat="40.4241883" lon="8.9758483"><ele>843.0</ele><time>2026-04-30T10:28:40.77Z</time></trkpt><trkpt lat="40.424365" lon="8.97565"><ele>843.0</ele><time>2026-04-30T10:28:41.767Z</time></trkpt><trkpt lat="40.4245183" lon="8.975435"><ele>843.0</ele><time>2026-04-30T10:28:42.764Z</time></trkpt><trkpt lat="40.4246433" lon="8.9752217"><ele>843.0</ele><time>2026-04-30T10:28:43.769Z</time></trkpt><trkpt lat="40.4247483" lon="8.974985"><ele>838.3333333333333</ele><time>2026-04-30T10:28:44.774Z</time></trkpt><trkpt lat="40.42486" lon="8.9747367"><ele>833.6666666666666</ele><time>2026-04-30T10:28:45.769Z</time></trkpt><trkpt lat="40.424965" lon="8.9744867"><ele>829.0</ele><time>2026-04-30T10:28:46.768Z</time></trkpt><trkpt lat="40.4250583" lon="8.9742417"><ele>829.0</ele><time>2026-04-30T10:28:47.769Z</time></trkpt><trkpt lat="40.4251633" lon="8.9740117"><ele>829.0</ele><time>2026-04-30T10:28:48.774Z</time></trkpt><trkpt lat="40.425265" lon="8.973785"><ele>829.0</ele><time>2026-04-30T10:28:49.766Z</time></trkpt><trkpt lat="40.4253567" lon="8.97354"><ele>828.0</ele><time>2026-04-30T10:28:50.772Z</time></trkpt><trkpt lat="40.4254383" lon="8.97328"><ele>827.0</ele><time>2026-04-30T10:28:51.768Z</time></trkpt><trkpt lat="40.425505" lon="8.973015"><ele>826.0</ele><time>2026-04-30T10:28:52.771Z</time></trkpt><trkpt lat="40.4255517" lon="8.9727433"><ele>820.6666666666666</ele><time>2026-04-30T10:28:53.772Z</time></trkpt><trkpt lat="40.4255883" lon="8.9724783"><ele>815.3333333333333</ele><time>2026-04-30T10:28:54.766Z</time></trkpt><trkpt lat="40.4256233" lon="8.9722217"><ele>810.0</ele><time>2026-04-30T10:28:55.766Z</time></trkpt><trkpt lat="40.425655" lon="8.9719767"><ele>810.0</ele><time>2026-04-30T10:28:56.789Z</time></trkpt><trkpt lat="40.42569" lon="8.9717433"><ele>810.0</ele><time>2026-04-30T10:28:57.768Z</time></trkpt><trkpt lat="40.4257383" lon="8.97152"><ele>810.0</ele><time>2026-04-30T10:28:58.777Z</time></trkpt><trkpt lat="40.4257767" lon="8.971315"><ele>810.0</ele><time>2026-04-30T10:28:59.767Z</time></trkpt><trkpt lat="40.42582" lon="8.97112"><ele>810.0</ele><time>2026-04-30T10:29:00.769Z</time></trkpt><trkpt lat="40.4258433" lon="8.97094"><ele>810.0</ele><time>2026-04-30T10:29:01.772Z</time></trkpt><trkpt lat="40.4258683" lon="8.9707767"><ele>810.0</ele><time>2026-04-30T10:29:02.808Z</time></trkpt><trkpt lat="40.425885" lon="8.9706317"><ele>809.3333333333334</ele><time>2026-04-30T10:29:03.77Z</time></trkpt><trkpt lat="40.4259067" lon="8.9705083"><ele>808.6666666666667</ele><time>2026-04-30T10:29:04.771Z</time></trkpt><trkpt lat="40.42591" lon="8.9704083"><ele>808.0</ele><time>2026-04-30T10:29:05.771Z</time></trkpt><trkpt lat="40.4259033" lon="8.970325"><ele>807.3333333333334</ele><time>2026-04-30T10:29:06.767Z</time></trkpt><trkpt lat="40.42584" lon="8.97022"><ele>806.6666666666667</ele><time>2026-04-30T10:29:08.775Z</time></trkpt><trkpt lat="40.4257733" lon="8.9702167"><ele>806.0</ele><time>2026-04-30T10:29:09.771Z</time></trkpt><trkpt lat="40.4257067" lon="8.9702167"><ele>806.0</ele><time>2026-04-30T10:29:10.771Z</time></trkpt><trkpt lat="40.425615" lon="8.9702583"><ele>806.0</ele><time>2026-04-30T10:29:11.765Z</time></trkpt><trkpt lat="40.42553" lon="8.9702933"><ele>806.0</ele><time>2026-04-30T10:29:12.767Z</time></trkpt><trkpt lat="40.4254433" lon="8.97033"><ele>806.0</ele><time>2026-04-30T10:29:13.767Z</time></trkpt><trkpt lat="40.42535" lon="8.9703817"><ele>806.0</ele><time>2026-04-30T10:29:14.774Z</time></trkpt><trkpt lat="40.425245" lon="8.9704517"><ele>806.0</ele><time>2026-04-30T10:29:15.771Z</time></trkpt><trkpt lat="40.425135" lon="8.970535"><ele>806.0</ele><time>2026-04-30T10:29:16.77Z</time></trkpt><trkpt lat="40.4249983" lon="8.9706517"><ele>806.0</ele><time>2026-04-30T10:29:17.767Z</time></trkpt><trkpt lat="40.424855" lon="8.9707767"><ele>808.3333333333334</ele><time>2026-04-30T10:29:18.764Z</time></trkpt><trkpt lat="40.4246817" lon="8.9709417"><ele>810.6666666666667</ele><time>2026-04-30T10:29:19.772Z</time></trkpt><trkpt lat="40.4245183" lon="8.9710883"><ele>813.0</ele><time>2026-04-30T10:29:20.775Z</time></trkpt><trkpt lat="40.4243567" lon="8.971235"><ele>813.0</ele><time>2026-04-30T10:29:21.77Z</time></trkpt><trkpt lat="40.4242" lon="8.97138"><ele>813.0</ele><time>2026-04-30T10:29:22.77Z</time></trkpt><trkpt lat="40.4240383" lon="8.9715283"><ele>813.0</ele><time>2026-04-30T10:29:23.769Z</time></trkpt><trkpt lat="40.42388" lon="8.9716683"><ele>815.6666666666667</ele><time>2026-04-30T10:29:24.771Z</time></trkpt><trkpt lat="40.42372" lon="8.971805"><ele>818.3333333333334</ele><time>2026-04-30T10:29:25.771Z</time></trkpt><trkpt lat="40.4235583" lon="8.9719433"><ele>821.0</ele><time>2026-04-30T10:29:26.812Z</time></trkpt><trkpt lat="40.4233983" lon="8.9720783"><ele>821.0</ele><time>2026-04-30T10:29:27.77Z</time></trkpt><trkpt lat="40.4232433" lon="8.9722083"><ele>821.0</ele><time>2026-04-30T10:29:28.769Z</time></trkpt><trkpt lat="40.423085" lon="8.97234"><ele>821.0</ele><time>2026-04-30T10:29:29.764Z</time></trkpt><trkpt lat="40.4229283" lon="8.9724683"><ele>823.6666666666667</ele><time>2026-04-30T10:29:30.768Z</time></trkpt><trkpt lat="40.422775" lon="8.9725967"><ele>826.3333333333333</ele><time>2026-04-30T10:29:31.764Z</time></trkpt><trkpt lat="40.4226333" lon="8.9727233"><ele>829.0</ele><time>2026-04-30T10:29:32.809Z</time></trkpt><trkpt lat="40.422495" lon="8.9728417"><ele>829.0</ele><time>2026-04-30T10:29:33.769Z</time></trkpt><trkpt lat="40.4223717" lon="8.97295"><ele>829.0</ele><time>2026-04-30T10:29:34.77Z</time></trkpt><trkpt lat="40.4222517" lon="8.9730583"><ele>829.0</ele><time>2026-04-30T10:29:35.767Z</time></trkpt><trkpt lat="40.4221333" lon="8.9731567"><ele>829.0</ele><time>2026-04-30T10:29:36.77Z</time></trkpt><trkpt lat="40.4220167" lon="8.9732517"><ele>827.0</ele><time>2026-04-30T10:29:37.77Z</time></trkpt><trkpt lat="40.42191" lon="8.973335"><ele>825.0</ele><time>2026-04-30T10:29:38.777Z</time></trkpt><trkpt lat="40.4218083" lon="8.9734083"><ele>823.0</ele><time>2026-04-30T10:29:39.769Z</time></trkpt><trkpt lat="40.4217017" lon="8.97347"><ele>821.0</ele><time>2026-04-30T10:29:40.767Z</time></trkpt><trkpt lat="40.4215867" lon="8.9734967"><ele>822.0</ele><time>2026-04-30T10:29:41.771Z</time></trkpt><trkpt lat="40.4214783" lon="8.973505"><ele>823.0</ele><time>2026-04-30T10:29:42.768Z</time></trkpt><trkpt lat="40.4213667" lon="8.9734867"><ele>824.0</ele><time>2026-04-30T10:29:43.767Z</time></trkpt><trkpt lat="40.4212533" lon="8.97345"><ele>825.0</ele><time>2026-04-30T10:29:44.776Z</time></trkpt><trkpt lat="40.4211683" lon="8.973395"><ele>826.0</ele><time>2026-04-30T10:29:45.763Z</time></trkpt><trkpt lat="40.421105" lon="8.973105"><ele>826.0</ele><time>2026-04-30T10:29:46.769Z</time></trkpt><trkpt lat="40.421065" lon="8.9729367"><ele>826.0</ele><time>2026-04-30T10:29:47.766Z</time></trkpt><trkpt lat="40.421015" lon="8.972745"><ele>826.0</ele><time>2026-04-30T10:29:48.768Z</time></trkpt><trkpt lat="40.42101" lon="8.97251"><ele>827.6666666666666</ele><time>2026-04-30T10:29:49.768Z</time></trkpt><trkpt lat="40.4209683" lon="8.9722967"><ele>829.3333333333333</ele><time>2026-04-30T10:29:50.774Z</time></trkpt><trkpt lat="40.4209533" lon="8.9720533"><ele>831.0</ele><time>2026-04-30T10:29:51.771Z</time></trkpt><trkpt lat="40.420915" lon="8.97182"><ele>831.3333333333333</ele><time>2026-04-30T10:29:52.768Z</time></trkpt><trkpt lat="40.420895" lon="8.9715883"><ele>831.6666666666666</ele><time>2026-04-30T10:29:53.767Z</time></trkpt><trkpt lat="40.4208667" lon="8.971375"><ele>832.0</ele><time>2026-04-30T10:29:54.765Z</time></trkpt><trkpt lat="40.420825" lon="8.9711783"><ele>832.0</ele><time>2026-04-30T10:29:55.769Z</time></trkpt><trkpt lat="40.4207833" lon="8.9710083"><ele>832.0</ele><time>2026-04-30T10:29:56.828Z</time></trkpt><trkpt lat="40.4207483" lon="8.970845"><ele>832.0</ele><time>2026-04-30T10:29:57.771Z</time></trkpt><trkpt lat="40.4207033" lon="8.97071"><ele>832.0</ele><time>2026-04-30T10:29:58.77Z</time></trkpt><trkpt lat="40.4206667" lon="8.9705817"><ele>831.0</ele><time>2026-04-30T10:29:59.771Z</time></trkpt><trkpt lat="40.42065" lon="8.97045"><ele>830.0</ele><time>2026-04-30T10:30:00.769Z</time></trkpt><trkpt lat="40.4206233" lon="8.9703333"><ele>829.0</ele><time>2026-04-30T10:30:01.766Z</time></trkpt><trkpt lat="40.4205933" lon="8.97023"><ele>828.0</ele><time>2026-04-30T10:30:02.811Z</time></trkpt><trkpt lat="40.42056" lon="8.97015"><ele>827.0</ele><time>2026-04-30T10:30:03.77Z</time></trkpt><trkpt lat="40.4205083" lon="8.9700283"><ele>826.1666666666667</ele><time>2026-04-30T10:30:05.77Z</time></trkpt><trkpt lat="40.4204917" lon="8.9699267"><ele>825.3333333333334</ele><time>2026-04-30T10:30:08.771Z</time></trkpt><trkpt lat="40.420475" lon="8.9698433"><ele>824.5</ele><time>2026-04-30T10:30:11.77Z</time></trkpt><trkpt lat="40.4205633" lon="8.969805"><ele>823.6666666666667</ele><time>2026-04-30T10:30:38.776Z</time></trkpt><trkpt lat="40.4205417" lon="8.9697233"><ele>822.8333333333334</ele><time>2026-04-30T10:31:23.767Z</time></trkpt><trkpt lat="40.4204567" lon="8.9696017"><ele>822.0</ele><time>2026-04-30T10:31:26.767Z</time></trkpt><trkpt lat="40.4203667" lon="8.9694667"><ele>823.4000000000001</ele><time>2026-04-30T10:31:28.767Z</time></trkpt><trkpt lat="40.4203333" lon="8.9693733"><ele>824.8000000000001</ele><time>2026-04-30T10:31:29.771Z</time></trkpt><trkpt lat="40.420305" lon="8.9692833"><ele>826.2</ele><time>2026-04-30T10:31:30.765Z</time></trkpt><trkpt lat="40.4202767" lon="8.9691733"><ele>827.6</ele><time>2026-04-30T10:31:31.766Z</time></trkpt><trkpt lat="40.4202267" lon="8.9689667"><ele>829.0</ele><time>2026-04-30T10:31:32.785Z</time></trkpt><trkpt lat="40.4201833" lon="8.9687283"><ele>829.0</ele><time>2026-04-30T10:31:33.765Z</time></trkpt><trkpt lat="40.420145" lon="8.96848"><ele>829.0</ele><time>2026-04-30T10:31:34.769Z</time></trkpt><trkpt lat="40.42012" lon="8.9682167"><ele>829.0</ele><time>2026-04-30T10:31:35.765Z</time></trkpt><trkpt lat="40.4200967" lon="8.9679783"><ele>828.0</ele><time>2026-04-30T10:31:36.767Z</time></trkpt><trkpt lat="40.4200683" lon="8.9677233"><ele>827.0</ele><time>2026-04-30T10:31:37.77Z</time></trkpt><trkpt lat="40.4200633" lon="8.967475"><ele>826.0</ele><time>2026-04-30T10:31:38.779Z</time></trkpt><trkpt lat="40.420075" lon="8.967225"><ele>824.6666666666666</ele><time>2026-04-30T10:31:39.769Z</time></trkpt><trkpt lat="40.4201033" lon="8.9669733"><ele>823.3333333333333</ele><time>2026-04-30T10:31:40.767Z</time></trkpt><trkpt lat="40.42017" lon="8.9666867"><ele>822.0</ele><time>2026-04-30T10:31:41.764Z</time></trkpt><trkpt lat="40.420225" lon="8.96643"><ele>820.5</ele><time>2026-04-30T10:31:42.77Z</time></trkpt><trkpt lat="40.4202817" lon="8.966135"><ele>819.0</ele><time>2026-04-30T10:31:43.772Z</time></trkpt><trkpt lat="40.4203617" lon="8.9658217"><ele>819.0</ele><time>2026-04-30T10:31:44.78Z</time></trkpt><trkpt lat="40.4204317" lon="8.96553"><ele>819.0</ele><time>2026-04-30T10:31:45.768Z</time></trkpt><trkpt lat="40.4204933" lon="8.9652167"><ele>815.6666666666667</ele><time>2026-04-30T10:31:46.768Z</time></trkpt><trkpt lat="40.420565" lon="8.9649417"><ele>812.3333333333334</ele><time>2026-04-30T10:31:47.765Z</time></trkpt><trkpt lat="40.4206333" lon="8.9646583"><ele>809.0</ele><time>2026-04-30T10:31:48.767Z</time></trkpt><trkpt lat="40.4207033" lon="8.9644033"><ele>808.6666666666667</ele><time>2026-04-30T10:31:49.764Z</time></trkpt><trkpt lat="40.4207767" lon="8.9641617"><ele>808.3333333333333</ele><time>2026-04-30T10:31:50.78Z</time></trkpt><trkpt lat="40.4208483" lon="8.963925"><ele>808.0</ele><time>2026-04-30T10:31:51.769Z</time></trkpt><trkpt lat="40.42092" lon="8.9636917"><ele>808.0</ele><time>2026-04-30T10:31:52.768Z</time></trkpt><trkpt lat="40.420995" lon="8.9634583"><ele>808.0</ele><time>2026-04-30T10:31:53.769Z</time></trkpt><trkpt lat="40.42107" lon="8.9632267"><ele>808.0</ele><time>2026-04-30T10:31:54.768Z</time></trkpt><trkpt lat="40.421145" lon="8.9630067"><ele>807.3333333333333</ele><time>2026-04-30T10:31:55.765Z</time></trkpt><trkpt lat="40.4212183" lon="8.9627867"><ele>806.6666666666667</ele><time>2026-04-30T10:31:56.766Z</time></trkpt><trkpt lat="40.42129" lon="8.9625633"><ele>806.0</ele><time>2026-04-30T10:31:57.77Z</time></trkpt><trkpt lat="40.42135" lon="8.9623367"><ele>803.3333333333334</ele><time>2026-04-30T10:31:58.77Z</time></trkpt><trkpt lat="40.421395" lon="8.9620983"><ele>800.6666666666667</ele><time>2026-04-30T10:31:59.768Z</time></trkpt><trkpt lat="40.421425" lon="8.961845"><ele>798.0</ele><time>2026-04-30T10:32:00.765Z</time></trkpt><trkpt lat="40.4214467" lon="8.9615767"><ele>796.6666666666667</ele><time>2026-04-30T10:32:01.769Z</time></trkpt><trkpt lat="40.4214683" lon="8.96131"><ele>795.3333333333334</ele><time>2026-04-30T10:32:02.771Z</time></trkpt><trkpt lat="40.4214833" lon="8.9610333"><ele>794.0</ele><time>2026-04-30T10:32:03.769Z</time></trkpt><trkpt lat="40.4214917" lon="8.960765"><ele>792.6666666666667</ele><time>2026-04-30T10:32:04.766Z</time></trkpt><trkpt lat="40.4214883" lon="8.9605017"><ele>791.3333333333333</ele><time>2026-04-30T10:32:05.77Z</time></trkpt><trkpt lat="40.4214783" lon="8.9602433"><ele>790.0</ele><time>2026-04-30T10:32:06.772Z</time></trkpt><trkpt lat="40.4214617" lon="8.9599833"><ele>788.3333333333333</ele><time>2026-04-30T10:32:07.769Z</time></trkpt><trkpt lat="40.4214467" lon="8.95973"><ele>786.6666666666667</ele><time>2026-04-30T10:32:08.783Z</time></trkpt><trkpt lat="40.42143" lon="8.9594767"><ele>785.0</ele><time>2026-04-30T10:32:09.769Z</time></trkpt><trkpt lat="40.4214133" lon="8.9592267"><ele>783.0</ele><time>2026-04-30T10:32:10.77Z</time></trkpt><trkpt lat="40.421405" lon="8.9589817"><ele>781.0</ele><time>2026-04-30T10:32:11.771Z</time></trkpt><trkpt lat="40.4214033" lon="8.9587417"><ele>779.0</ele><time>2026-04-30T10:32:12.765Z</time></trkpt><trkpt lat="40.4214133" lon="8.9584983"><ele>777.0</ele><time>2026-04-30T10:32:13.764Z</time></trkpt><trkpt lat="40.4214533" lon="8.958235"><ele>775.0</ele><time>2026-04-30T10:32:14.776Z</time></trkpt><trkpt lat="40.4214967" lon="8.957965"><ele>773.0</ele><time>2026-04-30T10:32:15.771Z</time></trkpt><trkpt lat="40.4215467" lon="8.9577117"><ele>771.0</ele><time>2026-04-30T10:32:16.77Z</time></trkpt><trkpt lat="40.4215967" lon="8.9574567"><ele>769.0</ele><time>2026-04-30T10:32:17.767Z</time></trkpt><trkpt lat="40.4216483" lon="8.9571967"><ele>767.0</ele><time>2026-04-30T10:32:18.771Z</time></trkpt><trkpt lat="40.4216983" lon="8.9569383"><ele>764.6666666666666</ele><time>2026-04-30T10:32:19.767Z</time></trkpt><trkpt lat="40.4217367" lon="8.956685"><ele>762.3333333333334</ele><time>2026-04-30T10:32:20.783Z</time></trkpt><trkpt lat="40.42178" lon="8.9564367"><ele>760.0</ele><time>2026-04-30T10:32:21.763Z</time></trkpt><trkpt lat="40.421825" lon="8.9561867"><ele>760.0</ele><time>2026-04-30T10:32:22.766Z</time></trkpt><trkpt lat="40.4218817" lon="8.95594"><ele>760.0</ele><time>2026-04-30T10:32:23.768Z</time></trkpt><trkpt lat="40.4219383" lon="8.955685"><ele>760.0</ele><time>2026-04-30T10:32:24.772Z</time></trkpt><trkpt lat="40.422" lon="8.9554283"><ele>758.3333333333334</ele><time>2026-04-30T10:32:25.768Z</time></trkpt><trkpt lat="40.4220633" lon="8.9551717"><ele>756.6666666666666</ele><time>2026-04-30T10:32:26.828Z</time></trkpt><trkpt lat="40.4221333" lon="8.9549117"><ele>755.0</ele><time>2026-04-30T10:32:27.771Z</time></trkpt><trkpt lat="40.4222117" lon="8.95464"><ele>753.0</ele><time>2026-04-30T10:32:28.768Z</time></trkpt><trkpt lat="40.42228" lon="8.9543667"><ele>751.0</ele><time>2026-04-30T10:32:29.764Z</time></trkpt><trkpt lat="40.4223433" lon="8.9540967"><ele>749.0</ele><time>2026-04-30T10:32:30.769Z</time></trkpt><trkpt lat="40.4224" lon="8.9538233"><ele>748.0</ele><time>2026-04-30T10:32:31.766Z</time></trkpt><trkpt lat="40.4224633" lon="8.9535383"><ele>747.0</ele><time>2026-04-30T10:32:32.768Z</time></trkpt><trkpt lat="40.4225417" lon="8.95326"><ele>745.6666666666666</ele><time>2026-04-30T10:32:33.767Z</time></trkpt><trkpt lat="40.4225783" lon="8.95297"><ele>744.3333333333333</ele><time>2026-04-30T10:32:34.768Z</time></trkpt><trkpt lat="40.4226267" lon="8.95269"><ele>743.0</ele><time>2026-04-30T10:32:35.767Z</time></trkpt><trkpt lat="40.4226767" lon="8.952415"><ele>742.0</ele><time>2026-04-30T10:32:36.768Z</time></trkpt><trkpt lat="40.4227167" lon="8.9521317"><ele>741.0</ele><time>2026-04-30T10:32:37.767Z</time></trkpt><trkpt lat="40.422755" lon="8.9518583"><ele>740.0</ele><time>2026-04-30T10:32:38.775Z</time></trkpt><trkpt lat="40.4227867" lon="8.95158"><ele>739.0</ele><time>2026-04-30T10:32:39.77Z</time></trkpt><trkpt lat="40.42282" lon="8.95132"><ele>738.0</ele><time>2026-04-30T10:32:40.769Z</time></trkpt><trkpt lat="40.4228533" lon="8.951055"><ele>737.0</ele><time>2026-04-30T10:32:41.768Z</time></trkpt><trkpt lat="40.4228883" lon="8.9507967"><ele>737.0</ele><time>2026-04-30T10:32:42.763Z</time></trkpt><trkpt lat="40.42293" lon="8.9505383"><ele>737.0</ele><time>2026-04-30T10:32:43.766Z</time></trkpt><trkpt lat="40.4229733" lon="8.950295"><ele>737.0</ele><time>2026-04-30T10:32:44.779Z</time></trkpt><trkpt lat="40.42305" lon="8.9500533"><ele>733.6666666666666</ele><time>2026-04-30T10:32:45.765Z</time></trkpt><trkpt lat="40.4231533" lon="8.9498117"><ele>730.3333333333334</ele><time>2026-04-30T10:32:46.765Z</time></trkpt><trkpt lat="40.4232433" lon="8.9495617"><ele>727.0</ele><time>2026-04-30T10:32:47.768Z</time></trkpt><trkpt lat="40.42333" lon="8.9493083"><ele>726.6666666666667</ele><time>2026-04-30T10:32:48.768Z</time></trkpt><trkpt lat="40.42343" lon="8.9490533"><ele>726.3333333333334</ele><time>2026-04-30T10:32:49.768Z</time></trkpt><trkpt lat="40.423505" lon="8.948795"><ele>726.0</ele><time>2026-04-30T10:32:50.782Z</time></trkpt><trkpt lat="40.4235917" lon="8.9485433"><ele>725.3333333333334</ele><time>2026-04-30T10:32:51.768Z</time></trkpt><trkpt lat="40.42367" lon="8.9483"><ele>724.6666666666667</ele><time>2026-04-30T10:32:52.765Z</time></trkpt><trkpt lat="40.4237433" lon="8.948055"><ele>724.0</ele><time>2026-04-30T10:32:53.768Z</time></trkpt><trkpt lat="40.423815" lon="8.9478283"><ele>724.0</ele><time>2026-04-30T10:32:54.768Z</time></trkpt><trkpt lat="40.4238833" lon="8.94761"><ele>724.0</ele><time>2026-04-30T10:32:55.77Z</time></trkpt><trkpt lat="40.4239417" lon="8.9473867"><ele>724.0</ele><time>2026-04-30T10:32:56.822Z</time></trkpt><trkpt lat="40.4239717" lon="8.9471567"><ele>722.6666666666667</ele><time>2026-04-30T10:32:57.762Z</time></trkpt><trkpt lat="40.4239917" lon="8.946925"><ele>721.3333333333334</ele><time>2026-04-30T10:32:58.769Z</time></trkpt><trkpt lat="40.4239667" lon="8.9466567"><ele>720.0</ele><time>2026-04-30T10:32:59.763Z</time></trkpt><trkpt lat="40.4239217" lon="8.9464067"><ele>720.0</ele><time>2026-04-30T10:33:00.769Z</time></trkpt><trkpt lat="40.42386" lon="8.9461667"><ele>720.0</ele><time>2026-04-30T10:33:01.763Z</time></trkpt><trkpt lat="40.4238" lon="8.9459183"><ele>720.0</ele><time>2026-04-30T10:33:02.81Z</time></trkpt><trkpt lat="40.4237333" lon="8.945685"><ele>718.3333333333334</ele><time>2026-04-30T10:33:03.764Z</time></trkpt><trkpt lat="40.423675" lon="8.94546"><ele>716.6666666666667</ele><time>2026-04-30T10:33:04.767Z</time></trkpt><trkpt lat="40.4236333" lon="8.9452383"><ele>715.0</ele><time>2026-04-30T10:33:05.767Z</time></trkpt><trkpt lat="40.4236133" lon="8.945005"><ele>715.0</ele><time>2026-04-30T10:33:06.77Z</time></trkpt><trkpt lat="40.4236267" lon="8.9447767"><ele>715.0</ele><time>2026-04-30T10:33:07.767Z</time></trkpt><trkpt lat="40.4236417" lon="8.944545"><ele>715.0</ele><time>2026-04-30T10:33:08.781Z</time></trkpt><trkpt lat="40.4236533" lon="8.9443017"><ele>714.6666666666667</ele><time>2026-04-30T10:33:09.769Z</time></trkpt><trkpt lat="40.4236567" lon="8.94405"><ele>714.3333333333334</ele><time>2026-04-30T10:33:10.768Z</time></trkpt><trkpt lat="40.4236517" lon="8.9437983"><ele>714.0</ele><time>2026-04-30T10:33:11.769Z</time></trkpt><trkpt lat="40.4236567" lon="8.943545"><ele>714.0</ele><time>2026-04-30T10:33:12.768Z</time></trkpt><trkpt lat="40.423645" lon="8.9433067"><ele>714.0</ele><time>2026-04-30T10:33:13.767Z</time></trkpt><trkpt lat="40.4236217" lon="8.943075"><ele>714.0</ele><time>2026-04-30T10:33:14.777Z</time></trkpt><trkpt lat="40.4235883" lon="8.9428533"><ele>714.0</ele><time>2026-04-30T10:33:15.767Z</time></trkpt><trkpt lat="40.42353" lon="8.9426417"><ele>714.0</ele><time>2026-04-30T10:33:16.769Z</time></trkpt><trkpt lat="40.4234467" lon="8.942435"><ele>714.0</ele><time>2026-04-30T10:33:17.764Z</time></trkpt><trkpt lat="40.4233483" lon="8.9422333"><ele>714.0</ele><time>2026-04-30T10:33:18.77Z</time></trkpt><trkpt lat="40.4232533" lon="8.94204"><ele>714.0</ele><time>2026-04-30T10:33:19.765Z</time></trkpt><trkpt lat="40.42317" lon="8.941835"><ele>714.0</ele><time>2026-04-30T10:33:20.779Z</time></trkpt><trkpt lat="40.4230767" lon="8.9416367"><ele>714.6666666666666</ele><time>2026-04-30T10:33:21.768Z</time></trkpt><trkpt lat="40.4230167" lon="8.9414167"><ele>715.3333333333333</ele><time>2026-04-30T10:33:22.768Z</time></trkpt><trkpt lat="40.422985" lon="8.941215"><ele>716.0</ele><time>2026-04-30T10:33:23.77Z</time></trkpt><trkpt lat="40.4229533" lon="8.9409783"><ele>716.3333333333333</ele><time>2026-04-30T10:33:24.769Z</time></trkpt><trkpt lat="40.4229483" lon="8.9407383"><ele>716.6666666666666</ele><time>2026-04-30T10:33:25.768Z</time></trkpt><trkpt lat="40.4229333" lon="8.9405"><ele>717.0</ele><time>2026-04-30T10:33:26.775Z</time></trkpt><trkpt lat="40.4229133" lon="8.9402717"><ele>717.0</ele><time>2026-04-30T10:33:27.768Z</time></trkpt><trkpt lat="40.4229417" lon="8.940055"><ele>717.0</ele><time>2026-04-30T10:33:28.767Z</time></trkpt><trkpt lat="40.4229117" lon="8.93985"><ele>717.0</ele><time>2026-04-30T10:33:29.765Z</time></trkpt><trkpt lat="40.4228617" lon="8.93966"><ele>716.6666666666666</ele><time>2026-04-30T10:33:30.771Z</time></trkpt><trkpt lat="40.4228067" lon="8.9394633"><ele>716.3333333333333</ele><time>2026-04-30T10:33:31.766Z</time></trkpt><trkpt lat="40.422735" lon="8.9392767"><ele>716.0</ele><time>2026-04-30T10:33:32.792Z</time></trkpt><trkpt lat="40.4226633" lon="8.93909"><ele>714.0</ele><time>2026-04-30T10:33:33.764Z</time></trkpt><trkpt lat="40.4225783" lon="8.938895"><ele>712.0</ele><time>2026-04-30T10:33:34.771Z</time></trkpt><trkpt lat="40.4224883" lon="8.9386933"><ele>710.0</ele><time>2026-04-30T10:33:35.765Z</time></trkpt><trkpt lat="40.42238" lon="8.9384583"><ele>710.0</ele><time>2026-04-30T10:33:36.769Z</time></trkpt><trkpt lat="40.4222967" lon="8.9382583"><ele>710.0</ele><time>2026-04-30T10:33:37.766Z</time></trkpt><trkpt lat="40.4222" lon="8.93806"><ele>710.0</ele><time>2026-04-30T10:33:38.777Z</time></trkpt><trkpt lat="40.4221083" lon="8.93786"><ele>710.6666666666666</ele><time>2026-04-30T10:33:39.765Z</time></trkpt><trkpt lat="40.4220167" lon="8.93765"><ele>711.3333333333334</ele><time>2026-04-30T10:33:40.769Z</time></trkpt><trkpt lat="40.4219283" lon="8.9374383"><ele>712.0</ele><time>2026-04-30T10:33:41.767Z</time></trkpt><trkpt lat="40.4218367" lon="8.937225"><ele>712.0</ele><time>2026-04-30T10:33:42.771Z</time></trkpt><trkpt lat="40.421745" lon="8.937015"><ele>712.0</ele><time>2026-04-30T10:33:43.764Z</time></trkpt><trkpt lat="40.4216567" lon="8.9368133"><ele>712.0</ele><time>2026-04-30T10:33:44.777Z</time></trkpt><trkpt lat="40.4215717" lon="8.93663"><ele>713.0</ele><time>2026-04-30T10:33:45.766Z</time></trkpt><trkpt lat="40.4214867" lon="8.936455"><ele>714.0</ele><time>2026-04-30T10:33:46.768Z</time></trkpt><trkpt lat="40.4214033" lon="8.93629"><ele>715.0</ele><time>2026-04-30T10:33:47.767Z</time></trkpt><trkpt lat="40.421305" lon="8.9361433"><ele>715.0</ele><time>2026-04-30T10:33:48.768Z</time></trkpt><trkpt lat="40.4211967" lon="8.9360017"><ele>715.0</ele><time>2026-04-30T10:33:49.771Z</time></trkpt><trkpt lat="40.42109" lon="8.9358917"><ele>715.0</ele><time>2026-04-30T10:33:50.779Z</time></trkpt><trkpt lat="40.4209717" lon="8.9358067"><ele>715.0</ele><time>2026-04-30T10:33:51.765Z</time></trkpt><trkpt lat="40.42086" lon="8.9357283"><ele>717.0</ele><time>2026-04-30T10:33:52.767Z</time></trkpt><trkpt lat="40.4207367" lon="8.93567"><ele>719.0</ele><time>2026-04-30T10:33:53.767Z</time></trkpt><trkpt lat="40.4206317" lon="8.93562"><ele>721.0</ele><time>2026-04-30T10:33:54.77Z</time></trkpt><trkpt lat="40.4205133" lon="8.93559"><ele>723.0</ele><time>2026-04-30T10:33:55.77Z</time></trkpt><trkpt lat="40.4204067" lon="8.9355833"><ele>723.0</ele><time>2026-04-30T10:33:56.831Z</time></trkpt><trkpt lat="40.4203283" lon="8.935595"><ele>723.0</ele><time>2026-04-30T10:33:57.765Z</time></trkpt><trkpt lat="40.4202283" lon="8.9356733"><ele>723.0</ele><time>2026-04-30T10:33:59.77Z</time></trkpt><trkpt lat="40.4201533" lon="8.9356633"><ele>723.0</ele><time>2026-04-30T10:34:00.767Z</time></trkpt><trkpt lat="40.4200817" lon="8.935645"><ele>723.0</ele><time>2026-04-30T10:34:01.766Z</time></trkpt><trkpt lat="40.4199983" lon="8.9356167"><ele>723.0</ele><time>2026-04-30T10:34:02.769Z</time></trkpt><trkpt lat="40.4199333" lon="8.9355483"><ele>723.0</ele><time>2026-04-30T10:34:03.768Z</time></trkpt><trkpt lat="40.4198667" lon="8.935465"><ele>723.0</ele><time>2026-04-30T10:34:04.764Z</time></trkpt><trkpt lat="40.419795" lon="8.9353617"><ele>723.0</ele><time>2026-04-30T10:34:05.765Z</time></trkpt><trkpt lat="40.4197233" lon="8.9352267"><ele>723.0</ele><time>2026-04-30T10:34:06.766Z</time></trkpt><trkpt lat="40.4196483" lon="8.9350683"><ele>722.25</ele><time>2026-04-30T10:34:07.767Z</time></trkpt><trkpt lat="40.4195717" lon="8.9349167"><ele>721.5</ele><time>2026-04-30T10:34:08.782Z</time></trkpt><trkpt lat="40.4194967" lon="8.9347617"><ele>720.75</ele><time>2026-04-30T10:34:09.769Z</time></trkpt><trkpt lat="40.4194333" lon="8.9346"><ele>720.0</ele><time>2026-04-30T10:34:10.77Z</time></trkpt><trkpt lat="40.41938" lon="8.9344333"><ele>720.0</ele><time>2026-04-30T10:34:11.764Z</time></trkpt><trkpt lat="40.4193333" lon="8.9342467"><ele>720.0</ele><time>2026-04-30T10:34:12.767Z</time></trkpt><trkpt lat="40.4193" lon="8.9340517"><ele>720.0</ele><time>2026-04-30T10:34:13.765Z</time></trkpt><trkpt lat="40.419275" lon="8.9338533"><ele>720.3333333333334</ele><time>2026-04-30T10:34:14.781Z</time></trkpt><trkpt lat="40.419255" lon="8.9336583"><ele>720.6666666666667</ele><time>2026-04-30T10:34:15.773Z</time></trkpt><trkpt lat="40.4192383" lon="8.93346"><ele>721.0</ele><time>2026-04-30T10:34:16.772Z</time></trkpt><trkpt lat="40.4192133" lon="8.9332683"><ele>721.25</ele><time>2026-04-30T10:34:17.767Z</time></trkpt><trkpt lat="40.4191833" lon="8.9330783"><ele>721.5</ele><time>2026-04-30T10:34:18.784Z</time></trkpt><trkpt lat="40.4191483" lon="8.9328917"><ele>721.75</ele><time>2026-04-30T10:34:19.768Z</time></trkpt><trkpt lat="40.41911" lon="8.9327067"><ele>722.0</ele><time>2026-04-30T10:34:20.783Z</time></trkpt><trkpt lat="40.41907" lon="8.93252"><ele>722.3333333333333</ele><time>2026-04-30T10:34:21.763Z</time></trkpt><trkpt lat="40.419025" lon="8.93233"><ele>722.6666666666666</ele><time>2026-04-30T10:34:22.77Z</time></trkpt><trkpt lat="40.41898" lon="8.9321417"><ele>723.0</ele><time>2026-04-30T10:34:23.771Z</time></trkpt><trkpt lat="40.4189333" lon="8.931955"><ele>723.0</ele><time>2026-04-30T10:34:24.772Z</time></trkpt><trkpt lat="40.418885" lon="8.9317683"><ele>723.0</ele><time>2026-04-30T10:34:25.769Z</time></trkpt><trkpt lat="40.4188367" lon="8.9315783"><ele>723.0</ele><time>2026-04-30T10:34:26.83Z</time></trkpt><trkpt lat="40.4187867" lon="8.93139"><ele>723.0</ele><time>2026-04-30T10:34:27.765Z</time></trkpt><trkpt lat="40.4187383" lon="8.931205"><ele>723.0</ele><time>2026-04-30T10:34:28.764Z</time></trkpt><trkpt lat="40.4186883" lon="8.9310217"><ele>723.0</ele><time>2026-04-30T10:34:29.77Z</time></trkpt><trkpt lat="40.4186417" lon="8.9308417"><ele>723.0</ele><time>2026-04-30T10:34:30.766Z</time></trkpt><trkpt lat="40.418595" lon="8.93067"><ele>723.2</ele><time>2026-04-30T10:34:31.763Z</time></trkpt><trkpt lat="40.4185533" lon="8.9305083"><ele>723.4</ele><time>2026-04-30T10:34:32.808Z</time></trkpt><trkpt lat="40.4185167" lon="8.9303583"><ele>723.6</ele><time>2026-04-30T10:34:33.767Z</time></trkpt><trkpt lat="40.4184817" lon="8.9302283"><ele>723.8000000000001</ele><time>2026-04-30T10:34:34.766Z</time></trkpt><trkpt lat="40.4184467" lon="8.9301183"><ele>724.0</ele><time>2026-04-30T10:34:35.77Z</time></trkpt><trkpt lat="40.4183933" lon="8.9300433"><ele>724.0</ele><time>2026-04-30T10:34:36.768Z</time></trkpt><trkpt lat="40.4183367" lon="8.9299867"><ele>724.0</ele><time>2026-04-30T10:34:37.772Z</time></trkpt><trkpt lat="40.4182533" lon="8.9299583"><ele>724.0</ele><time>2026-04-30T10:34:38.779Z</time></trkpt><trkpt lat="40.41815" lon="8.9299467"><ele>724.0</ele><time>2026-04-30T10:34:39.769Z</time></trkpt><trkpt lat="40.4180333" lon="8.9299317"><ele>724.0</ele><time>2026-04-30T10:34:40.769Z</time></trkpt><trkpt lat="40.4179017" lon="8.929915"><ele>725.25</ele><time>2026-04-30T10:34:41.769Z</time></trkpt><trkpt lat="40.41777" lon="8.92988"><ele>726.5</ele><time>2026-04-30T10:34:42.768Z</time></trkpt><trkpt lat="40.41763" lon="8.929835"><ele>727.75</ele><time>2026-04-30T10:34:43.766Z</time></trkpt><trkpt lat="40.41748" lon="8.9297917"><ele>729.0</ele><time>2026-04-30T10:34:44.778Z</time></trkpt><trkpt lat="40.4173317" lon="8.9297433"><ele>729.0</ele><time>2026-04-30T10:34:45.764Z</time></trkpt><trkpt lat="40.417175" lon="8.9296967"><ele>729.0</ele><time>2026-04-30T10:34:46.768Z</time></trkpt><trkpt lat="40.4170117" lon="8.9296517"><ele>729.0</ele><time>2026-04-30T10:34:47.764Z</time></trkpt><trkpt lat="40.4168467" lon="8.929605"><ele>732.3333333333334</ele><time>2026-04-30T10:34:48.77Z</time></trkpt><trkpt lat="40.4166817" lon="8.92955"><ele>735.6666666666667</ele><time>2026-04-30T10:34:49.768Z</time></trkpt><trkpt lat="40.4165117" lon="8.929495"><ele>739.0</ele><time>2026-04-30T10:34:50.78Z</time></trkpt><trkpt lat="40.41634" lon="8.9294383"><ele>739.0</ele><time>2026-04-30T10:34:51.773Z</time></trkpt><trkpt lat="40.4161633" lon="8.92938"><ele>739.0</ele><time>2026-04-30T10:34:52.766Z</time></trkpt><trkpt lat="40.4159933" lon="8.9293067"><ele>739.0</ele><time>2026-04-30T10:34:53.767Z</time></trkpt><trkpt lat="40.41583" lon="8.9292233"><ele>739.0</ele><time>2026-04-30T10:34:54.766Z</time></trkpt><trkpt lat="40.4156683" lon="8.9291217"><ele>739.0</ele><time>2026-04-30T10:34:55.769Z</time></trkpt><trkpt lat="40.415515" lon="8.928995"><ele>739.0</ele><time>2026-04-30T10:34:56.826Z</time></trkpt><trkpt lat="40.41537" lon="8.9288483"><ele>740.3333333333334</ele><time>2026-04-30T10:34:57.769Z</time></trkpt><trkpt lat="40.4152433" lon="8.9286783"><ele>741.6666666666666</ele><time>2026-04-30T10:34:58.769Z</time></trkpt><trkpt lat="40.4151367" lon="8.9284867"><ele>743.0</ele><time>2026-04-30T10:34:59.772Z</time></trkpt><trkpt lat="40.41505" lon="8.928275"><ele>743.0</ele><time>2026-04-30T10:35:00.767Z</time></trkpt><trkpt lat="40.4149833" lon="8.9280367"><ele>743.0</ele><time>2026-04-30T10:35:01.768Z</time></trkpt><trkpt lat="40.4149267" lon="8.9277917"><ele>743.0</ele><time>2026-04-30T10:35:02.807Z</time></trkpt><trkpt lat="40.4148883" lon="8.9275283"><ele>743.0</ele><time>2026-04-30T10:35:03.765Z</time></trkpt><trkpt lat="40.4148583" lon="8.9272667"><ele>743.0</ele><time>2026-04-30T10:35:04.765Z</time></trkpt><trkpt lat="40.4148417" lon="8.926995"><ele>743.0</ele><time>2026-04-30T10:35:05.769Z</time></trkpt><trkpt lat="40.4148267" lon="8.9267233"><ele>743.6666666666666</ele><time>2026-04-30T10:35:06.77Z</time></trkpt><trkpt lat="40.4147983" lon="8.9264517"><ele>744.3333333333334</ele><time>2026-04-30T10:35:07.769Z</time></trkpt><trkpt lat="40.4147567" lon="8.9261817"><ele>745.0</ele><time>2026-04-30T10:35:08.779Z</time></trkpt><trkpt lat="40.414705" lon="8.92592"><ele>749.0</ele><time>2026-04-30T10:35:09.769Z</time></trkpt><trkpt lat="40.4146367" lon="8.92567"><ele>753.0</ele><time>2026-04-30T10:35:10.767Z</time></trkpt><trkpt lat="40.4145567" lon="8.9254317"><ele>757.0</ele><time>2026-04-30T10:35:11.766Z</time></trkpt><trkpt lat="40.4144617" lon="8.92521"><ele>756.6666666666667</ele><time>2026-04-30T10:35:12.769Z</time></trkpt><trkpt lat="40.4143517" lon="8.9249983"><ele>756.3333333333334</ele><time>2026-04-30T10:35:13.767Z</time></trkpt><trkpt lat="40.4142217" lon="8.9248033"><ele>756.0</ele><time>2026-04-30T10:35:14.779Z</time></trkpt><trkpt lat="40.4140767" lon="8.9246183"><ele>756.0</ele><time>2026-04-30T10:35:15.765Z</time></trkpt><trkpt lat="40.4138967" lon="8.9244817"><ele>756.0</ele><time>2026-04-30T10:35:16.769Z</time></trkpt><trkpt lat="40.4136817" lon="8.9243983"><ele>756.0</ele><time>2026-04-30T10:35:17.771Z</time></trkpt><trkpt lat="40.41348" lon="8.9243117"><ele>756.0</ele><time>2026-04-30T10:35:18.769Z</time></trkpt><trkpt lat="40.4132767" lon="8.9242317"><ele>756.0</ele><time>2026-04-30T10:35:19.764Z</time></trkpt><trkpt lat="40.4130733" lon="8.92416"><ele>756.0</ele><time>2026-04-30T10:35:20.777Z</time></trkpt><trkpt lat="40.4128667" lon="8.9241"><ele>756.0</ele><time>2026-04-30T10:35:21.771Z</time></trkpt><trkpt lat="40.4126583" lon="8.92404"><ele>756.0</ele><time>2026-04-30T10:35:22.769Z</time></trkpt><trkpt lat="40.4124517" lon="8.923975"><ele>756.0</ele><time>2026-04-30T10:35:23.767Z</time></trkpt><trkpt lat="40.4122433" lon="8.9239133"><ele>758.0</ele><time>2026-04-30T10:35:24.767Z</time></trkpt><trkpt lat="40.4120367" lon="8.9238483"><ele>760.0</ele><time>2026-04-30T10:35:25.767Z</time></trkpt><trkpt lat="40.41183" lon="8.9237867"><ele>762.0</ele><time>2026-04-30T10:35:26.829Z</time></trkpt><trkpt lat="40.4116217" lon="8.92372"><ele>762.0</ele><time>2026-04-30T10:35:27.766Z</time></trkpt><trkpt lat="40.411415" lon="8.923655"><ele>762.0</ele><time>2026-04-30T10:35:28.771Z</time></trkpt><trkpt lat="40.4112083" lon="8.9235883"><ele>762.0</ele><time>2026-04-30T10:35:29.767Z</time></trkpt><trkpt lat="40.4109967" lon="8.9235283"><ele>763.6666666666666</ele><time>2026-04-30T10:35:30.766Z</time></trkpt><trkpt lat="40.410785" lon="8.9234667"><ele>765.3333333333333</ele><time>2026-04-30T10:35:31.768Z</time></trkpt><trkpt lat="40.4105717" lon="8.9234"><ele>767.0</ele><time>2026-04-30T10:35:32.767Z</time></trkpt><trkpt lat="40.4103583" lon="8.92333"><ele>767.3333333333333</ele><time>2026-04-30T10:35:33.768Z</time></trkpt><trkpt lat="40.4101433" lon="8.9232633"><ele>767.6666666666666</ele><time>2026-04-30T10:35:34.766Z</time></trkpt><trkpt lat="40.4099283" lon="8.9231983"><ele>768.0</ele><time>2026-04-30T10:35:35.769Z</time></trkpt><trkpt lat="40.40971" lon="8.9231317"><ele>768.6666666666667</ele><time>2026-04-30T10:35:36.761Z</time></trkpt><trkpt lat="40.409495" lon="8.9230633"><ele>769.3333333333334</ele><time>2026-04-30T10:35:37.765Z</time></trkpt><trkpt lat="40.4092767" lon="8.9229983"><ele>770.0</ele><time>2026-04-30T10:35:38.777Z</time></trkpt><trkpt lat="40.4090567" lon="8.9229333"><ele>770.0</ele><time>2026-04-30T10:35:39.768Z</time></trkpt><trkpt lat="40.4088383" lon="8.922865"><ele>770.0</ele><time>2026-04-30T10:35:40.767Z</time></trkpt><trkpt lat="40.4086217" lon="8.922795"><ele>770.0</ele><time>2026-04-30T10:35:41.769Z</time></trkpt><trkpt lat="40.4084067" lon="8.92273"><ele>770.0</ele><time>2026-04-30T10:35:42.765Z</time></trkpt><trkpt lat="40.4081917" lon="8.922665"><ele>770.0</ele><time>2026-04-30T10:35:43.768Z</time></trkpt><trkpt lat="40.40798" lon="8.9225983"><ele>770.0</ele><time>2026-04-30T10:35:44.78Z</time></trkpt><trkpt lat="40.4077667" lon="8.9225283"><ele>770.0</ele><time>2026-04-30T10:35:45.765Z</time></trkpt><trkpt lat="40.4075533" lon="8.9224583"><ele>770.0</ele><time>2026-04-30T10:35:46.769Z</time></trkpt><trkpt lat="40.4073417" lon="8.9223917"><ele>770.0</ele><time>2026-04-30T10:35:47.769Z</time></trkpt><trkpt lat="40.40713" lon="8.9223283"><ele>771.3333333333334</ele><time>2026-04-30T10:35:48.768Z</time></trkpt><trkpt lat="40.4069183" lon="8.9222633"><ele>772.6666666666667</ele><time>2026-04-30T10:35:49.769Z</time></trkpt><trkpt lat="40.4067117" lon="8.922195"><ele>774.0</ele><time>2026-04-30T10:35:50.775Z</time></trkpt><trkpt lat="40.4065083" lon="8.92213"><ele>776.0</ele><time>2026-04-30T10:35:51.764Z</time></trkpt><trkpt lat="40.4063033" lon="8.922065"><ele>778.0</ele><time>2026-04-30T10:35:52.769Z</time></trkpt><trkpt lat="40.4061017" lon="8.9219967"><ele>780.0</ele><time>2026-04-30T10:35:53.77Z</time></trkpt><trkpt lat="40.4058983" lon="8.9219283"><ele>780.0</ele><time>2026-04-30T10:35:54.768Z</time></trkpt><trkpt lat="40.4056967" lon="8.9218633"><ele>780.0</ele><time>2026-04-30T10:35:55.768Z</time></trkpt><trkpt lat="40.4054967" lon="8.9217967"><ele>780.0</ele><time>2026-04-30T10:35:56.781Z</time></trkpt><trkpt lat="40.4052967" lon="8.92173"><ele>783.3333333333333</ele><time>2026-04-30T10:35:57.765Z</time></trkpt><trkpt lat="40.4051" lon="8.9216667"><ele>786.6666666666666</ele><time>2026-04-30T10:35:58.768Z</time></trkpt><trkpt lat="40.4049083" lon="8.9216017"><ele>790.0</ele><time>2026-04-30T10:35:59.769Z</time></trkpt><trkpt lat="40.4047017" lon="8.92154"><ele>789.6666666666666</ele><time>2026-04-30T10:36:00.766Z</time></trkpt><trkpt lat="40.4045067" lon="8.921475"><ele>789.3333333333333</ele><time>2026-04-30T10:36:01.763Z</time></trkpt><trkpt lat="40.404315" lon="8.92141"><ele>789.0</ele><time>2026-04-30T10:36:02.81Z</time></trkpt><trkpt lat="40.4041217" lon="8.921335"><ele>789.0</ele><time>2026-04-30T10:36:03.765Z</time></trkpt><trkpt lat="40.4039283" lon="8.9212517"><ele>789.0</ele><time>2026-04-30T10:36:04.765Z</time></trkpt><trkpt lat="40.403735" lon="8.9211633"><ele>789.0</ele><time>2026-04-30T10:36:05.765Z</time></trkpt><trkpt lat="40.4035433" lon="8.9210733"><ele>788.3333333333333</ele><time>2026-04-30T10:36:06.769Z</time></trkpt><trkpt lat="40.4033517" lon="8.9209733"><ele>787.6666666666666</ele><time>2026-04-30T10:36:07.77Z</time></trkpt><trkpt lat="40.4031617" lon="8.9208667"><ele>787.0</ele><time>2026-04-30T10:36:08.783Z</time></trkpt><trkpt lat="40.4029733" lon="8.92075"><ele>790.0</ele><time>2026-04-30T10:36:09.765Z</time></trkpt><trkpt lat="40.40279" lon="8.92064"><ele>793.0</ele><time>2026-04-30T10:36:10.763Z</time></trkpt><trkpt lat="40.4025967" lon="8.9205367"><ele>796.0</ele><time>2026-04-30T10:36:11.769Z</time></trkpt><trkpt lat="40.402405" lon="8.92043"><ele>796.0</ele><time>2026-04-30T10:36:12.771Z</time></trkpt><trkpt lat="40.4022083" lon="8.9203467"><ele>796.0</ele><time>2026-04-30T10:36:13.773Z</time></trkpt><trkpt lat="40.402005" lon="8.9202733"><ele>796.0</ele><time>2026-04-30T10:36:14.785Z</time></trkpt><trkpt lat="40.4017983" lon="8.9202117"><ele>798.0</ele><time>2026-04-30T10:36:15.767Z</time></trkpt><trkpt lat="40.401595" lon="8.92016"><ele>800.0</ele><time>2026-04-30T10:36:16.769Z</time></trkpt><trkpt lat="40.401395" lon="8.920115"><ele>802.0</ele><time>2026-04-30T10:36:17.769Z</time></trkpt><trkpt lat="40.401195" lon="8.920075"><ele>808.0</ele><time>2026-04-30T10:36:18.768Z</time></trkpt><trkpt lat="40.4009933" lon="8.9200417"><ele>814.0</ele><time>2026-04-30T10:36:19.77Z</time></trkpt><trkpt lat="40.40079" lon="8.920015"><ele>820.0</ele><time>2026-04-30T10:36:20.785Z</time></trkpt><trkpt lat="40.4005833" lon="8.919995"><ele>822.0</ele><time>2026-04-30T10:36:21.767Z</time></trkpt><trkpt lat="40.40038" lon="8.9199767"><ele>824.0</ele><time>2026-04-30T10:36:22.769Z</time></trkpt><trkpt lat="40.4001783" lon="8.9199617"><ele>826.0</ele><time>2026-04-30T10:36:23.765Z</time></trkpt><trkpt lat="40.39999" lon="8.9199583"><ele>826.0</ele><time>2026-04-30T10:36:24.769Z</time></trkpt><trkpt lat="40.3997817" lon="8.9199317"><ele>826.0</ele><time>2026-04-30T10:36:25.765Z</time></trkpt><trkpt lat="40.3996" lon="8.9198883"><ele>826.0</ele><time>2026-04-30T10:36:26.827Z</time></trkpt><trkpt lat="40.399415" lon="8.91982"><ele>825.6666666666666</ele><time>2026-04-30T10:36:27.764Z</time></trkpt><trkpt lat="40.3992133" lon="8.9197417"><ele>825.3333333333333</ele><time>2026-04-30T10:36:28.766Z</time></trkpt><trkpt lat="40.399005" lon="8.9196283"><ele>825.0</ele><time>2026-04-30T10:36:29.769Z</time></trkpt><trkpt lat="40.3988083" lon="8.9195067"><ele>827.3333333333333</ele><time>2026-04-30T10:36:30.77Z</time></trkpt><trkpt lat="40.3986267" lon="8.9193667"><ele>829.6666666666666</ele><time>2026-04-30T10:36:31.764Z</time></trkpt><trkpt lat="40.3984517" lon="8.91922"><ele>832.0</ele><time>2026-04-30T10:36:32.808Z</time></trkpt><trkpt lat="40.3982833" lon="8.919065"><ele>832.6666666666666</ele><time>2026-04-30T10:36:33.767Z</time></trkpt><trkpt lat="40.39812" lon="8.9189017"><ele>833.3333333333333</ele><time>2026-04-30T10:36:34.768Z</time></trkpt><trkpt lat="40.3979533" lon="8.9187317"><ele>834.0</ele><time>2026-04-30T10:36:35.767Z</time></trkpt><trkpt lat="40.3977783" lon="8.91857"><ele>834.6666666666667</ele><time>2026-04-30T10:36:36.766Z</time></trkpt><trkpt lat="40.397605" lon="8.9184067"><ele>835.3333333333334</ele><time>2026-04-30T10:36:37.769Z</time></trkpt><trkpt lat="40.3974267" lon="8.9182383"><ele>836.0</ele><time>2026-04-30T10:36:38.784Z</time></trkpt><trkpt lat="40.3972383" lon="8.9180733"><ele>838.6666666666667</ele><time>2026-04-30T10:36:39.766Z</time></trkpt><trkpt lat="40.3970533" lon="8.9179083"><ele>841.3333333333333</ele><time>2026-04-30T10:36:40.77Z</time></trkpt><trkpt lat="40.3968817" lon="8.917745"><ele>844.0</ele><time>2026-04-30T10:36:41.764Z</time></trkpt><trkpt lat="40.39671" lon="8.917595"><ele>843.0</ele><time>2026-04-30T10:36:42.767Z</time></trkpt><trkpt lat="40.3965417" lon="8.917445"><ele>842.0</ele><time>2026-04-30T10:36:43.766Z</time></trkpt><trkpt lat="40.3963733" lon="8.9173067"><ele>841.0</ele><time>2026-04-30T10:36:44.784Z</time></trkpt><trkpt lat="40.3961983" lon="8.91718"><ele>841.0</ele><time>2026-04-30T10:36:45.765Z</time></trkpt><trkpt lat="40.3960183" lon="8.91707"><ele>841.0</ele><time>2026-04-30T10:36:46.769Z</time></trkpt><trkpt lat="40.3958267" lon="8.916975"><ele>841.0</ele><time>2026-04-30T10:36:47.764Z</time></trkpt><trkpt lat="40.3956317" lon="8.91689"><ele>841.6666666666666</ele><time>2026-04-30T10:36:48.769Z</time></trkpt><trkpt lat="40.3954283" lon="8.9168233"><ele>842.3333333333333</ele><time>2026-04-30T10:36:49.767Z</time></trkpt><trkpt lat="40.3952217" lon="8.9167583"><ele>843.0</ele><time>2026-04-30T10:36:50.783Z</time></trkpt><trkpt lat="40.3950133" lon="8.9166983"><ele>843.6666666666667</ele><time>2026-04-30T10:36:51.766Z</time></trkpt><trkpt lat="40.394805" lon="8.9166483"><ele>844.3333333333334</ele><time>2026-04-30T10:36:52.769Z</time></trkpt><trkpt lat="40.394595" lon="8.9165933"><ele>845.0</ele><time>2026-04-30T10:36:53.768Z</time></trkpt><trkpt lat="40.3943883" lon="8.91654"><ele>845.0</ele><time>2026-04-30T10:36:54.766Z</time></trkpt><trkpt lat="40.3941633" lon="8.9164833"><ele>845.0</ele><time>2026-04-30T10:36:55.769Z</time></trkpt><trkpt lat="40.3939633" lon="8.9164283"><ele>845.0</ele><time>2026-04-30T10:36:56.827Z</time></trkpt><trkpt lat="40.3937617" lon="8.916385"><ele>849.3333333333334</ele><time>2026-04-30T10:36:57.766Z</time></trkpt><trkpt lat="40.3935617" lon="8.9163317"><ele>853.6666666666667</ele><time>2026-04-30T10:36:58.763Z</time></trkpt><trkpt lat="40.3933467" lon="8.9162767"><ele>858.0</ele><time>2026-04-30T10:36:59.764Z</time></trkpt><trkpt lat="40.3931367" lon="8.91623"><ele>857.6666666666667</ele><time>2026-04-30T10:37:00.764Z</time></trkpt><trkpt lat="40.39293" lon="8.9161817"><ele>857.3333333333334</ele><time>2026-04-30T10:37:01.767Z</time></trkpt><trkpt lat="40.3927283" lon="8.916145"><ele>857.0</ele><time>2026-04-30T10:37:02.809Z</time></trkpt><trkpt lat="40.3925417" lon="8.9161233"><ele>857.0</ele><time>2026-04-30T10:37:03.77Z</time></trkpt><trkpt lat="40.3923533" lon="8.9161467"><ele>857.0</ele><time>2026-04-30T10:37:04.766Z</time></trkpt><trkpt lat="40.3921817" lon="8.9161933"><ele>857.0</ele><time>2026-04-30T10:37:05.768Z</time></trkpt><trkpt lat="40.39202" lon="8.9162683"><ele>856.0</ele><time>2026-04-30T10:37:06.769Z</time></trkpt><trkpt lat="40.3918567" lon="8.9163583"><ele>855.0</ele><time>2026-04-30T10:37:07.77Z</time></trkpt><trkpt lat="40.3917183" lon="8.916485"><ele>854.0</ele><time>2026-04-30T10:37:08.783Z</time></trkpt><trkpt lat="40.3915783" lon="8.9166383"><ele>855.0</ele><time>2026-04-30T10:37:09.771Z</time></trkpt><trkpt lat="40.3914633" lon="8.9168083"><ele>856.0</ele><time>2026-04-30T10:37:10.765Z</time></trkpt><trkpt lat="40.39136" lon="8.91701"><ele>857.0</ele><time>2026-04-30T10:37:11.767Z</time></trkpt><trkpt lat="40.3912483" lon="8.91721"><ele>857.0</ele><time>2026-04-30T10:37:12.77Z</time></trkpt><trkpt lat="40.391145" lon="8.9174067"><ele>857.0</ele><time>2026-04-30T10:37:13.763Z</time></trkpt><trkpt lat="40.3910383" lon="8.9176167"><ele>857.0</ele><time>2026-04-30T10:37:14.786Z</time></trkpt><trkpt lat="40.3909317" lon="8.9178267"><ele>858.6666666666667</ele><time>2026-04-30T10:37:15.764Z</time></trkpt><trkpt lat="40.3908283" lon="8.9180467"><ele>860.3333333333333</ele><time>2026-04-30T10:37:16.769Z</time></trkpt><trkpt lat="40.3907233" lon="8.918265"><ele>862.0</ele><time>2026-04-30T10:37:17.771Z</time></trkpt><trkpt lat="40.390625" lon="8.9184883"><ele>862.6666666666666</ele><time>2026-04-30T10:37:18.768Z</time></trkpt><trkpt lat="40.39052" lon="8.918715"><ele>863.3333333333333</ele><time>2026-04-30T10:37:19.769Z</time></trkpt><trkpt lat="40.390415" lon="8.91894"><ele>864.0</ele><time>2026-04-30T10:37:20.785Z</time></trkpt><trkpt lat="40.3903117" lon="8.9191683"><ele>866.0</ele><time>2026-04-30T10:37:21.767Z</time></trkpt><trkpt lat="40.39021" lon="8.9193967"><ele>868.0</ele><time>2026-04-30T10:37:22.769Z</time></trkpt><trkpt lat="40.3901033" lon="8.9196217"><ele>870.0</ele><time>2026-04-30T10:37:23.768Z</time></trkpt><trkpt lat="40.3899917" lon="8.91984"><ele>870.0</ele><time>2026-04-30T10:37:24.766Z</time></trkpt><trkpt lat="40.3898717" lon="8.9200517"><ele>870.0</ele><time>2026-04-30T10:37:25.763Z</time></trkpt><trkpt lat="40.3897483" lon="8.920265"><ele>870.0</ele><time>2026-04-30T10:37:26.829Z</time></trkpt><trkpt lat="40.3896217" lon="8.9204783"><ele>869.6666666666667</ele><time>2026-04-30T10:37:27.769Z</time></trkpt><trkpt lat="40.3894933" lon="8.9206967"><ele>869.3333333333334</ele><time>2026-04-30T10:37:28.768Z</time></trkpt><trkpt lat="40.3893683" lon="8.92092"><ele>869.0</ele><time>2026-04-30T10:37:29.769Z</time></trkpt><trkpt lat="40.3892317" lon="8.921125"><ele>869.0</ele><time>2026-04-30T10:37:30.769Z</time></trkpt><trkpt lat="40.38909" lon="8.9213417"><ele>869.0</ele><time>2026-04-30T10:37:31.768Z</time></trkpt><trkpt lat="40.388945" lon="8.9215617"><ele>869.0</ele><time>2026-04-30T10:37:32.806Z</time></trkpt><trkpt lat="40.3888017" lon="8.92178"><ele>871.0</ele><time>2026-04-30T10:37:33.766Z</time></trkpt><trkpt lat="40.38866" lon="8.9219967"><ele>873.0</ele><time>2026-04-30T10:37:34.764Z</time></trkpt><trkpt lat="40.38852" lon="8.9222083"><ele>875.0</ele><time>2026-04-30T10:37:35.765Z</time></trkpt><trkpt lat="40.388375" lon="8.922425"><ele>874.3333333333334</ele><time>2026-04-30T10:37:36.764Z</time></trkpt><trkpt lat="40.388235" lon="8.9226367"><ele>873.6666666666667</ele><time>2026-04-30T10:37:37.767Z</time></trkpt><trkpt lat="40.388125" lon="8.922875"><ele>873.0</ele><time>2026-04-30T10:37:38.785Z</time></trkpt><trkpt lat="40.3879933" lon="8.9231"><ele>874.0</ele><time>2026-04-30T10:37:39.769Z</time></trkpt><trkpt lat="40.38787" lon="8.923325"><ele>875.0</ele><time>2026-04-30T10:37:40.769Z</time></trkpt><trkpt lat="40.38775" lon="8.9235717"><ele>876.0</ele><time>2026-04-30T10:37:41.765Z</time></trkpt><trkpt lat="40.38764" lon="8.9238133"><ele>876.0</ele><time>2026-04-30T10:37:42.767Z</time></trkpt><trkpt lat="40.38752" lon="8.9240667"><ele>876.0</ele><time>2026-04-30T10:37:43.765Z</time></trkpt><trkpt lat="40.3874033" lon="8.924305"><ele>876.0</ele><time>2026-04-30T10:37:44.784Z</time></trkpt><trkpt lat="40.3873033" lon="8.924585"><ele>876.6666666666667</ele><time>2026-04-30T10:37:45.765Z</time></trkpt><trkpt lat="40.387195" lon="8.9248317"><ele>877.3333333333334</ele><time>2026-04-30T10:37:46.769Z</time></trkpt><trkpt lat="40.3870833" lon="8.9250633"><ele>878.0</ele><time>2026-04-30T10:37:47.768Z</time></trkpt><trkpt lat="40.3869733" lon="8.9253"><ele>879.6666666666667</ele><time>2026-04-30T10:37:48.769Z</time></trkpt><trkpt lat="40.38686" lon="8.9255333"><ele>881.3333333333333</ele><time>2026-04-30T10:37:49.764Z</time></trkpt><trkpt lat="40.3867433" lon="8.92576"><ele>883.0</ele><time>2026-04-30T10:37:50.785Z</time></trkpt><trkpt lat="40.3866233" lon="8.9259683"><ele>883.0</ele><time>2026-04-30T10:37:51.768Z</time></trkpt><trkpt lat="40.3865033" lon="8.9261517"><ele>883.0</ele><time>2026-04-30T10:37:52.768Z</time></trkpt><trkpt lat="40.3863533" lon="8.9263433"><ele>883.0</ele><time>2026-04-30T10:37:53.767Z</time></trkpt><trkpt lat="40.3862117" lon="8.9265283"><ele>885.3333333333333</ele><time>2026-04-30T10:37:54.764Z</time></trkpt><trkpt lat="40.38606" lon="8.9266967"><ele>887.6666666666667</ele><time>2026-04-30T10:37:55.765Z</time></trkpt><trkpt lat="40.385905" lon="8.9268883"><ele>890.0</ele><time>2026-04-30T10:37:56.826Z</time></trkpt><trkpt lat="40.3857317" lon="8.9270517"><ele>890.0</ele><time>2026-04-30T10:37:57.767Z</time></trkpt><trkpt lat="40.3855217" lon="8.9271917"><ele>890.0</ele><time>2026-04-30T10:37:58.765Z</time></trkpt><trkpt lat="40.3853317" lon="8.9273517"><ele>893.0</ele><time>2026-04-30T10:37:59.77Z</time></trkpt><trkpt lat="40.38514" lon="8.9275167"><ele>896.0</ele><time>2026-04-30T10:38:00.766Z</time></trkpt><trkpt lat="40.3849533" lon="8.92768"><ele>896.3333333333334</ele><time>2026-04-30T10:38:01.766Z</time></trkpt><trkpt lat="40.38477" lon="8.92784"><ele>896.6666666666667</ele><time>2026-04-30T10:38:02.806Z</time></trkpt><trkpt lat="40.38458" lon="8.9279983"><ele>897.0</ele><time>2026-04-30T10:38:03.764Z</time></trkpt><trkpt lat="40.384395" lon="8.92816"><ele>897.0</ele><time>2026-04-30T10:38:04.764Z</time></trkpt><trkpt lat="40.3842117" lon="8.928315"><ele>897.0</ele><time>2026-04-30T10:38:05.766Z</time></trkpt><trkpt lat="40.384015" lon="8.9284767"><ele>895.5</ele><time>2026-04-30T10:38:06.77Z</time></trkpt><trkpt lat="40.3837967" lon="8.928585"><ele>894.0</ele><time>2026-04-30T10:38:07.765Z</time></trkpt><trkpt lat="40.383605" lon="8.9287517"><ele>894.0</ele><time>2026-04-30T10:38:08.785Z</time></trkpt><trkpt lat="40.3834133" lon="8.9289167"><ele>894.0</ele><time>2026-04-30T10:38:09.765Z</time></trkpt><trkpt lat="40.38323" lon="8.9290833"><ele>893.5</ele><time>2026-04-30T10:38:10.765Z</time></trkpt><trkpt lat="40.383035" lon="8.9292717"><ele>893.0</ele><time>2026-04-30T10:38:11.77Z</time></trkpt><trkpt lat="40.3828333" lon="8.92944"><ele>890.5</ele><time>2026-04-30T10:38:12.765Z</time></trkpt><trkpt lat="40.3826317" lon="8.9295967"><ele>888.0</ele><time>2026-04-30T10:38:13.77Z</time></trkpt><trkpt lat="40.3824433" lon="8.9297633"><ele>888.0</ele><time>2026-04-30T10:38:14.786Z</time></trkpt><trkpt lat="40.3822417" lon="8.9299233"><ele>888.0</ele><time>2026-04-30T10:38:15.764Z</time></trkpt><trkpt lat="40.3820483" lon="8.9300917"><ele>886.3333333333333</ele><time>2026-04-30T10:38:16.766Z</time></trkpt><trkpt lat="40.38186" lon="8.9302583"><ele>884.6666666666666</ele><time>2026-04-30T10:38:17.765Z</time></trkpt><trkpt lat="40.3816767" lon="8.9304233"><ele>883.0</ele><time>2026-04-30T10:38:18.767Z</time></trkpt><trkpt lat="40.3815017" lon="8.9305917"><ele>882.6666666666666</ele><time>2026-04-30T10:38:19.77Z</time></trkpt><trkpt lat="40.3813367" lon="8.9307717"><ele>882.3333333333333</ele><time>2026-04-30T10:38:20.786Z</time></trkpt><trkpt lat="40.381185" lon="8.9309617"><ele>882.0</ele><time>2026-04-30T10:38:21.769Z</time></trkpt><trkpt lat="40.3810483" lon="8.93117"><ele>881.3333333333333</ele><time>2026-04-30T10:38:22.768Z</time></trkpt><trkpt lat="40.3809317" lon="8.9314033"><ele>880.6666666666666</ele><time>2026-04-30T10:38:23.764Z</time></trkpt><trkpt lat="40.380835" lon="8.9316567"><ele>880.0</ele><time>2026-04-30T10:38:24.768Z</time></trkpt><trkpt lat="40.3807567" lon="8.9319333"><ele>878.0</ele><time>2026-04-30T10:38:25.767Z</time></trkpt><trkpt lat="40.380705" lon="8.9322267"><ele>876.0</ele><time>2026-04-30T10:38:26.826Z</time></trkpt><trkpt lat="40.3806617" lon="8.9325283"><ele>874.0</ele><time>2026-04-30T10:38:27.768Z</time></trkpt><trkpt lat="40.38062" lon="8.9328317"><ele>872.0</ele><time>2026-04-30T10:38:28.767Z</time></trkpt><trkpt lat="40.38058" lon="8.9331383"><ele>869.5</ele><time>2026-04-30T10:38:29.766Z</time></trkpt><trkpt lat="40.3805417" lon="8.9334467"><ele>867.0</ele><time>2026-04-30T10:38:30.769Z</time></trkpt><trkpt lat="40.3805033" lon="8.9337567"><ele>867.0</ele><time>2026-04-30T10:38:31.767Z</time></trkpt><trkpt lat="40.380465" lon="8.934065"><ele>867.0</ele><time>2026-04-30T10:38:32.784Z</time></trkpt><trkpt lat="40.3804267" lon="8.9343733"><ele>867.0</ele><time>2026-04-30T10:38:33.765Z</time></trkpt><trkpt lat="40.3803917" lon="8.9346783"><ele>867.0</ele><time>2026-04-30T10:38:34.763Z</time></trkpt><trkpt lat="40.3803533" lon="8.93498"><ele>865.0</ele><time>2026-04-30T10:38:35.764Z</time></trkpt><trkpt lat="40.3803217" lon="8.935275"><ele>863.0</ele><time>2026-04-30T10:38:36.765Z</time></trkpt><trkpt lat="40.3802883" lon="8.93556"><ele>861.0</ele><time>2026-04-30T10:38:37.769Z</time></trkpt><trkpt lat="40.3802567" lon="8.9358333"><ele>861.0</ele><time>2026-04-30T10:38:38.783Z</time></trkpt><trkpt lat="40.3802233" lon="8.9361017"><ele>861.0</ele><time>2026-04-30T10:38:39.765Z</time></trkpt><trkpt lat="40.3801917" lon="8.9363617"><ele>861.0</ele><time>2026-04-30T10:38:40.767Z</time></trkpt><trkpt lat="40.3801617" lon="8.93661"><ele>859.0</ele><time>2026-04-30T10:38:41.765Z</time></trkpt><trkpt lat="40.3801317" lon="8.93685"><ele>857.0</ele><time>2026-04-30T10:38:42.769Z</time></trkpt><trkpt lat="40.3801" lon="8.9370833"><ele>855.0</ele><time>2026-04-30T10:38:43.764Z</time></trkpt><trkpt lat="40.380075" lon="8.9373117"><ele>855.0</ele><time>2026-04-30T10:38:44.787Z</time></trkpt><trkpt lat="40.3800383" lon="8.9375383"><ele>855.0</ele><time>2026-04-30T10:38:45.767Z</time></trkpt><trkpt lat="40.3799933" lon="8.937765"><ele>855.0</ele><time>2026-04-30T10:38:46.769Z</time></trkpt><trkpt lat="40.37995" lon="8.9379933"><ele>851.6666666666667</ele><time>2026-04-30T10:38:47.769Z</time></trkpt><trkpt lat="40.3799" lon="8.9382317"><ele>848.3333333333334</ele><time>2026-04-30T10:38:48.764Z</time></trkpt><trkpt lat="40.3798217" lon="8.9384283"><ele>845.0</ele><time>2026-04-30T10:38:49.768Z</time></trkpt><trkpt lat="40.3797333" lon="8.9386533"><ele>844.0</ele><time>2026-04-30T10:38:50.783Z</time></trkpt><trkpt lat="40.3796567" lon="8.93887"><ele>843.0</ele><time>2026-04-30T10:38:51.767Z</time></trkpt><trkpt lat="40.379535" lon="8.9390417"><ele>842.0</ele><time>2026-04-30T10:38:52.766Z</time></trkpt><trkpt lat="40.37942" lon="8.939235"><ele>840.6666666666667</ele><time>2026-04-30T10:38:53.763Z</time></trkpt><trkpt lat="40.379285" lon="8.9394"><ele>839.3333333333333</ele><time>2026-04-30T10:38:54.768Z</time></trkpt><trkpt lat="40.3790817" lon="8.9395083"><ele>838.0</ele><time>2026-04-30T10:38:55.763Z</time></trkpt><trkpt lat="40.3788867" lon="8.93962"><ele>837.6666666666666</ele><time>2026-04-30T10:38:56.824Z</time></trkpt><trkpt lat="40.3786733" lon="8.9396133"><ele>837.3333333333333</ele><time>2026-04-30T10:38:57.765Z</time></trkpt><trkpt lat="40.378475" lon="8.9395967"><ele>837.0</ele><time>2026-04-30T10:38:58.765Z</time></trkpt><trkpt lat="40.3782767" lon="8.93958"><ele>837.0</ele><time>2026-04-30T10:38:59.765Z</time></trkpt><trkpt lat="40.378085" lon="8.9395517"><ele>837.0</ele><time>2026-04-30T10:39:00.771Z</time></trkpt><trkpt lat="40.377885" lon="8.9394933"><ele>837.0</ele><time>2026-04-30T10:39:01.769Z</time></trkpt><trkpt lat="40.3776817" lon="8.939405"><ele>836.3333333333333</ele><time>2026-04-30T10:39:02.806Z</time></trkpt><trkpt lat="40.3774717" lon="8.9393"><ele>835.6666666666666</ele><time>2026-04-30T10:39:03.765Z</time></trkpt><trkpt lat="40.377265" lon="8.9392117"><ele>835.0</ele><time>2026-04-30T10:39:04.767Z</time></trkpt><trkpt lat="40.3770533" lon="8.93912"><ele>835.0</ele><time>2026-04-30T10:39:05.766Z</time></trkpt><trkpt lat="40.376835" lon="8.9390217"><ele>835.0</ele><time>2026-04-30T10:39:06.764Z</time></trkpt><trkpt lat="40.3766067" lon="8.9388967"><ele>835.0</ele><time>2026-04-30T10:39:07.772Z</time></trkpt><trkpt lat="40.3763733" lon="8.9387683"><ele>835.0</ele><time>2026-04-30T10:39:08.782Z</time></trkpt><trkpt lat="40.3761433" lon="8.9386467"><ele>832.5</ele><time>2026-04-30T10:39:09.769Z</time></trkpt><trkpt lat="40.3759167" lon="8.9385233"><ele>830.0</ele><time>2026-04-30T10:39:10.766Z</time></trkpt><trkpt lat="40.3756883" lon="8.9383933"><ele>835.5</ele><time>2026-04-30T10:39:11.769Z</time></trkpt><trkpt lat="40.3754667" lon="8.938275"><ele>841.0</ele><time>2026-04-30T10:39:12.765Z</time></trkpt><trkpt lat="40.3752433" lon="8.9381533"><ele>841.0</ele><time>2026-04-30T10:39:13.766Z</time></trkpt><trkpt lat="40.3750167" lon="8.938015"><ele>841.0</ele><time>2026-04-30T10:39:14.785Z</time></trkpt><trkpt lat="40.3747983" lon="8.9378883"><ele>845.3333333333333</ele><time>2026-04-30T10:39:15.768Z</time></trkpt><trkpt lat="40.3745867" lon="8.9377883"><ele>849.6666666666667</ele><time>2026-04-30T10:39:16.767Z</time></trkpt><trkpt lat="40.3743767" lon="8.9376917"><ele>854.0</ele><time>2026-04-30T10:39:17.765Z</time></trkpt><trkpt lat="40.3741733" lon="8.9376"><ele>854.3333333333334</ele><time>2026-04-30T10:39:18.769Z</time></trkpt><trkpt lat="40.373975" lon="8.9375233"><ele>854.6666666666667</ele><time>2026-04-30T10:39:19.767Z</time></trkpt><trkpt lat="40.37378" lon="8.937445"><ele>855.0</ele><time>2026-04-30T10:39:20.784Z</time></trkpt><trkpt lat="40.3735883" lon="8.9374017"><ele>858.6666666666667</ele><time>2026-04-30T10:39:21.763Z</time></trkpt><trkpt lat="40.3734" lon="8.9374133"><ele>862.3333333333334</ele><time>2026-04-30T10:39:22.767Z</time></trkpt><trkpt lat="40.3732017" lon="8.9374533"><ele>866.0</ele><time>2026-04-30T10:39:23.768Z</time></trkpt><trkpt lat="40.37301" lon="8.93751"><ele>865.0</ele><time>2026-04-30T10:39:24.767Z</time></trkpt><trkpt lat="40.3728217" lon="8.93759"><ele>864.0</ele><time>2026-04-30T10:39:25.766Z</time></trkpt><trkpt lat="40.3726333" lon="8.93769"><ele>863.0</ele><time>2026-04-30T10:39:26.825Z</time></trkpt><trkpt lat="40.3724817" lon="8.9379183"><ele>863.0</ele><time>2026-04-30T10:39:27.767Z</time></trkpt><trkpt lat="40.3723433" lon="8.938155"><ele>863.0</ele><time>2026-04-30T10:39:28.766Z</time></trkpt><trkpt lat="40.37221" lon="8.9383867"><ele>863.0</ele><time>2026-04-30T10:39:29.768Z</time></trkpt><trkpt lat="40.3720983" lon="8.9386083"><ele>866.0</ele><time>2026-04-30T10:39:30.766Z</time></trkpt><trkpt lat="40.37201" lon="8.938845"><ele>869.0</ele><time>2026-04-30T10:39:31.764Z</time></trkpt><trkpt lat="40.3719383" lon="8.93908"><ele>872.0</ele><time>2026-04-30T10:39:32.828Z</time></trkpt><trkpt lat="40.3719083" lon="8.939355"><ele>874.3333333333334</ele><time>2026-04-30T10:39:33.765Z</time></trkpt><trkpt lat="40.371905" lon="8.939625"><ele>876.6666666666667</ele><time>2026-04-30T10:39:34.766Z</time></trkpt><trkpt lat="40.3719317" lon="8.9399017"><ele>879.0</ele><time>2026-04-30T10:39:35.761Z</time></trkpt><trkpt lat="40.37201" lon="8.940175"><ele>881.5</ele><time>2026-04-30T10:39:36.765Z</time></trkpt><trkpt lat="40.372105" lon="8.9404383"><ele>884.0</ele><time>2026-04-30T10:39:37.769Z</time></trkpt><trkpt lat="40.37222" lon="8.9406967"><ele>882.0</ele><time>2026-04-30T10:39:38.786Z</time></trkpt><trkpt lat="40.3723317" lon="8.9409483"><ele>880.0</ele><time>2026-04-30T10:39:39.77Z</time></trkpt><trkpt lat="40.37244" lon="8.9411983"><ele>878.0</ele><time>2026-04-30T10:39:40.769Z</time></trkpt><trkpt lat="40.3725417" lon="8.9414483"><ele>878.0</ele><time>2026-04-30T10:39:41.768Z</time></trkpt><trkpt lat="40.3726383" lon="8.9416983"><ele>878.0</ele><time>2026-04-30T10:39:42.77Z</time></trkpt><trkpt lat="40.3727367" lon="8.9419483"><ele>878.0</ele><time>2026-04-30T10:39:43.768Z</time></trkpt><trkpt lat="40.372835" lon="8.9422"><ele>879.6666666666667</ele><time>2026-04-30T10:39:44.782Z</time></trkpt><trkpt lat="40.37293" lon="8.94245"><ele>881.3333333333333</ele><time>2026-04-30T10:39:45.765Z</time></trkpt><trkpt lat="40.3730217" lon="8.9427017"><ele>883.0</ele><time>2026-04-30T10:39:46.766Z</time></trkpt><trkpt lat="40.3730983" lon="8.942955"><ele>883.0</ele><time>2026-04-30T10:39:47.766Z</time></trkpt><trkpt lat="40.3731733" lon="8.9432117"><ele>883.0</ele><time>2026-04-30T10:39:48.769Z</time></trkpt><trkpt lat="40.373235" lon="8.9434733"><ele>883.0</ele><time>2026-04-30T10:39:49.766Z</time></trkpt><trkpt lat="40.3732817" lon="8.9437383"><ele>884.0</ele><time>2026-04-30T10:39:50.786Z</time></trkpt><trkpt lat="40.3733067" lon="8.9440067"><ele>885.0</ele><time>2026-04-30T10:39:51.765Z</time></trkpt><trkpt lat="40.3733183" lon="8.94428"><ele>886.0</ele><time>2026-04-30T10:39:52.769Z</time></trkpt><trkpt lat="40.3733117" lon="8.944555"><ele>886.5</ele><time>2026-04-30T10:39:53.77Z</time></trkpt><trkpt lat="40.3732783" lon="8.9448617"><ele>887.0</ele><time>2026-04-30T10:39:54.769Z</time></trkpt><trkpt lat="40.3732133" lon="8.9451317"><ele>887.6666666666667</ele><time>2026-04-30T10:39:55.765Z</time></trkpt><trkpt lat="40.3731433" lon="8.9453917"><ele>888.3333333333333</ele><time>2026-04-30T10:39:56.824Z</time></trkpt><trkpt lat="40.373075" lon="8.94565"><ele>889.0</ele><time>2026-04-30T10:39:57.768Z</time></trkpt><trkpt lat="40.3729583" lon="8.9458967"><ele>891.5</ele><time>2026-04-30T10:39:58.766Z</time></trkpt><trkpt lat="40.3728117" lon="8.9461533"><ele>894.0</ele><time>2026-04-30T10:39:59.763Z</time></trkpt><trkpt lat="40.3726717" lon="8.9463967"><ele>894.0</ele><time>2026-04-30T10:40:00.768Z</time></trkpt><trkpt lat="40.3725333" lon="8.9466383"><ele>894.0</ele><time>2026-04-30T10:40:01.766Z</time></trkpt><trkpt lat="40.372375" lon="8.9468817"><ele>896.5</ele><time>2026-04-30T10:40:02.792Z</time></trkpt><trkpt lat="40.3722083" lon="8.94711"><ele>899.0</ele><time>2026-04-30T10:40:03.766Z</time></trkpt><trkpt lat="40.3720283" lon="8.94732"><ele>905.5</ele><time>2026-04-30T10:40:04.766Z</time></trkpt><trkpt lat="40.3718733" lon="8.947545"><ele>912.0</ele><time>2026-04-30T10:40:05.768Z</time></trkpt><trkpt lat="40.3717217" lon="8.9477667"><ele>912.0</ele><time>2026-04-30T10:40:06.764Z</time></trkpt><trkpt lat="40.3715533" lon="8.9479567"><ele>912.0</ele><time>2026-04-30T10:40:07.768Z</time></trkpt><trkpt lat="40.371355" lon="8.94811"><ele>913.0</ele><time>2026-04-30T10:40:08.785Z</time></trkpt><trkpt lat="40.3711633" lon="8.9482633"><ele>914.0</ele><time>2026-04-30T10:40:09.766Z</time></trkpt><trkpt lat="40.3709717" lon="8.9484283"><ele>919.5</ele><time>2026-04-30T10:40:10.767Z</time></trkpt><trkpt lat="40.3707833" lon="8.94859"><ele>925.0</ele><time>2026-04-30T10:40:11.766Z</time></trkpt><trkpt lat="40.3706" lon="8.9487617"><ele>925.6666666666666</ele><time>2026-04-30T10:40:12.763Z</time></trkpt><trkpt lat="40.370425" lon="8.9489417"><ele>926.3333333333333</ele><time>2026-04-30T10:40:13.767Z</time></trkpt><trkpt lat="40.3702583" lon="8.9491383"><ele>927.0</ele><time>2026-04-30T10:40:14.784Z</time></trkpt><trkpt lat="40.3701" lon="8.9493467"><ele>927.0</ele><time>2026-04-30T10:40:15.763Z</time></trkpt><trkpt lat="40.36994" lon="8.9495483"><ele>927.0</ele><time>2026-04-30T10:40:16.766Z</time></trkpt><trkpt lat="40.3697867" lon="8.949755"><ele>927.0</ele><time>2026-04-30T10:40:17.762Z</time></trkpt><trkpt lat="40.3696383" lon="8.949955"><ele>928.0</ele><time>2026-04-30T10:40:18.765Z</time></trkpt><trkpt lat="40.3694967" lon="8.9501467"><ele>929.0</ele><time>2026-04-30T10:40:19.769Z</time></trkpt><trkpt lat="40.3693633" lon="8.95034"><ele>930.0</ele><time>2026-04-30T10:40:20.781Z</time></trkpt><trkpt lat="40.369235" lon="8.9505217"><ele>930.0</ele><time>2026-04-30T10:40:21.764Z</time></trkpt><trkpt lat="40.3691067" lon="8.9507"><ele>930.0</ele><time>2026-04-30T10:40:22.768Z</time></trkpt><trkpt lat="40.36898" lon="8.950875"><ele>930.0</ele><time>2026-04-30T10:40:23.766Z</time></trkpt><trkpt lat="40.3688517" lon="8.9510433"><ele>929.6666666666667</ele><time>2026-04-30T10:40:24.767Z</time></trkpt><trkpt lat="40.3687267" lon="8.9512083"><ele>929.3333333333334</ele><time>2026-04-30T10:40:25.769Z</time></trkpt><trkpt lat="40.3685933" lon="8.9513567"><ele>929.0</ele><time>2026-04-30T10:40:26.807Z</time></trkpt><trkpt lat="40.368445" lon="8.9514767"><ele>929.0</ele><time>2026-04-30T10:40:27.767Z</time></trkpt><trkpt lat="40.368285" lon="8.9515817"><ele>929.0</ele><time>2026-04-30T10:40:28.765Z</time></trkpt><trkpt lat="40.368095" lon="8.9515833"><ele>929.0</ele><time>2026-04-30T10:40:29.767Z</time></trkpt><trkpt lat="40.36791" lon="8.951605"><ele>926.3333333333334</ele><time>2026-04-30T10:40:30.766Z</time></trkpt><trkpt lat="40.36773" lon="8.9516183"><ele>923.6666666666667</ele><time>2026-04-30T10:40:31.764Z</time></trkpt><trkpt lat="40.3675417" lon="8.9516"><ele>921.0</ele><time>2026-04-30T10:40:32.768Z</time></trkpt><trkpt lat="40.3673633" lon="8.9515733"><ele>918.0</ele><time>2026-04-30T10:40:33.768Z</time></trkpt><trkpt lat="40.36719" lon="8.9514833"><ele>915.0</ele><time>2026-04-30T10:40:34.77Z</time></trkpt><trkpt lat="40.3670233" lon="8.9513517"><ele>912.0</ele><time>2026-04-30T10:40:35.767Z</time></trkpt><trkpt lat="40.366875" lon="8.9512417"><ele>912.0</ele><time>2026-04-30T10:40:36.771Z</time></trkpt><trkpt lat="40.3667333" lon="8.9511417"><ele>912.0</ele><time>2026-04-30T10:40:37.763Z</time></trkpt><trkpt lat="40.3666133" lon="8.9510667"><ele>912.0</ele><time>2026-04-30T10:40:38.786Z</time></trkpt><trkpt lat="40.366515" lon="8.9509667"><ele>912.0</ele><time>2026-04-30T10:40:39.763Z</time></trkpt><trkpt lat="40.3664433" lon="8.9508433"><ele>912.25</ele><time>2026-04-30T10:40:40.767Z</time></trkpt><trkpt lat="40.3663767" lon="8.950705"><ele>912.5</ele><time>2026-04-30T10:40:41.764Z</time></trkpt><trkpt lat="40.366345" lon="8.95052"><ele>912.75</ele><time>2026-04-30T10:40:42.773Z</time></trkpt><trkpt lat="40.366315" lon="8.9503217"><ele>913.0</ele><time>2026-04-30T10:40:43.767Z</time></trkpt><trkpt lat="40.3662717" lon="8.95013"><ele>914.3333333333333</ele><time>2026-04-30T10:40:44.785Z</time></trkpt><trkpt lat="40.36623" lon="8.949915"><ele>915.6666666666667</ele><time>2026-04-30T10:40:45.767Z</time></trkpt><trkpt lat="40.3661917" lon="8.9497067"><ele>917.0</ele><time>2026-04-30T10:40:46.768Z</time></trkpt><trkpt lat="40.36615" lon="8.9495033"><ele>917.0</ele><time>2026-04-30T10:40:47.764Z</time></trkpt><trkpt lat="40.3661133" lon="8.9492867"><ele>917.0</ele><time>2026-04-30T10:40:48.762Z</time></trkpt><trkpt lat="40.3660783" lon="8.9490617"><ele>917.0</ele><time>2026-04-30T10:40:49.768Z</time></trkpt><trkpt lat="40.36604" lon="8.94883"><ele>919.0</ele><time>2026-04-30T10:40:50.784Z</time></trkpt><trkpt lat="40.36601" lon="8.948605"><ele>921.0</ele><time>2026-04-30T10:40:51.77Z</time></trkpt><trkpt lat="40.36599" lon="8.948375"><ele>923.0</ele><time>2026-04-30T10:40:52.767Z</time></trkpt><trkpt lat="40.3659733" lon="8.9481533"><ele>925.3333333333334</ele><time>2026-04-30T10:40:53.764Z</time></trkpt><trkpt lat="40.36597" lon="8.9479233"><ele>927.6666666666667</ele><time>2026-04-30T10:40:54.769Z</time></trkpt><trkpt lat="40.3659983" lon="8.9476733"><ele>930.0</ele><time>2026-04-30T10:40:55.768Z</time></trkpt><trkpt lat="40.36604" lon="8.9474283"><ele>931.3333333333333</ele><time>2026-04-30T10:40:56.785Z</time></trkpt><trkpt lat="40.3660967" lon="8.9471767"><ele>932.6666666666666</ele><time>2026-04-30T10:40:57.767Z</time></trkpt><trkpt lat="40.3661583" lon="8.9469267"><ele>934.0</ele><time>2026-04-30T10:40:58.765Z</time></trkpt><trkpt lat="40.3662217" lon="8.9466767"><ele>935.3333333333333</ele><time>2026-04-30T10:40:59.77Z</time></trkpt><trkpt lat="40.3662817" lon="8.9464117"><ele>936.6666666666667</ele><time>2026-04-30T10:41:00.769Z</time></trkpt><trkpt lat="40.36635" lon="8.946145"><ele>938.0</ele><time>2026-04-30T10:41:01.763Z</time></trkpt><trkpt lat="40.36642" lon="8.9458733"><ele>939.5</ele><time>2026-04-30T10:41:02.763Z</time></trkpt><trkpt lat="40.366495" lon="8.945595"><ele>941.0</ele><time>2026-04-30T10:41:03.766Z</time></trkpt><trkpt lat="40.3665817" lon="8.945285"><ele>942.0</ele><time>2026-04-30T10:41:04.766Z</time></trkpt><trkpt lat="40.3666583" lon="8.94498"><ele>943.0</ele><time>2026-04-30T10:41:05.767Z</time></trkpt><trkpt lat="40.366745" lon="8.9446817"><ele>943.0</ele><time>2026-04-30T10:41:06.768Z</time></trkpt><trkpt lat="40.366825" lon="8.94439"><ele>943.0</ele><time>2026-04-30T10:41:07.765Z</time></trkpt><trkpt lat="40.3669033" lon="8.9441067"><ele>944.0</ele><time>2026-04-30T10:41:08.784Z</time></trkpt><trkpt lat="40.3670017" lon="8.94383"><ele>945.0</ele><time>2026-04-30T10:41:09.764Z</time></trkpt><trkpt lat="40.3670683" lon="8.9435883"><ele>946.0</ele><time>2026-04-30T10:41:10.767Z</time></trkpt><trkpt lat="40.36714" lon="8.94335"><ele>944.6666666666666</ele><time>2026-04-30T10:41:11.769Z</time></trkpt><trkpt lat="40.3672017" lon="8.94314"><ele>943.3333333333333</ele><time>2026-04-30T10:41:12.765Z</time></trkpt><trkpt lat="40.3672633" lon="8.942925"><ele>942.0</ele><time>2026-04-30T10:41:13.764Z</time></trkpt><trkpt lat="40.367335" lon="8.94274"><ele>942.0</ele><time>2026-04-30T10:41:14.782Z</time></trkpt><trkpt lat="40.3674033" lon="8.9425533"><ele>942.0</ele><time>2026-04-30T10:41:15.765Z</time></trkpt><trkpt lat="40.3674617" lon="8.94236"><ele>942.0</ele><time>2026-04-30T10:41:16.764Z</time></trkpt><trkpt lat="40.367525" lon="8.9421667"><ele>943.6666666666667</ele><time>2026-04-30T10:41:17.766Z</time></trkpt><trkpt lat="40.367565" lon="8.9419533"><ele>945.3333333333334</ele><time>2026-04-30T10:41:18.768Z</time></trkpt><trkpt lat="40.367615" lon="8.9417333"><ele>947.0</ele><time>2026-04-30T10:41:19.764Z</time></trkpt><trkpt lat="40.3676667" lon="8.9414883"><ele>948.6666666666667</ele><time>2026-04-30T10:41:20.785Z</time></trkpt><trkpt lat="40.367705" lon="8.94126"><ele>950.3333333333333</ele><time>2026-04-30T10:41:21.762Z</time></trkpt><trkpt lat="40.3677467" lon="8.941005"><ele>952.0</ele><time>2026-04-30T10:41:22.763Z</time></trkpt><trkpt lat="40.36777" lon="8.94076"><ele>953.0</ele><time>2026-04-30T10:41:23.763Z</time></trkpt><trkpt lat="40.3678067" lon="8.9405167"><ele>954.0</ele><time>2026-04-30T10:41:24.766Z</time></trkpt><trkpt lat="40.3678433" lon="8.9402933"><ele>955.0</ele><time>2026-04-30T10:41:25.762Z</time></trkpt><trkpt lat="40.3678767" lon="8.94008"><ele>956.0</ele><time>2026-04-30T10:41:26.783Z</time></trkpt><trkpt lat="40.367905" lon="8.939875"><ele>957.0</ele><time>2026-04-30T10:41:27.762Z</time></trkpt><trkpt lat="40.3679333" lon="8.9397033"><ele>958.0</ele><time>2026-04-30T10:41:28.762Z</time></trkpt><trkpt lat="40.3679267" lon="8.9395233"><ele>959.0</ele><time>2026-04-30T10:41:29.767Z</time></trkpt><trkpt lat="40.367915" lon="8.9393433"><ele>959.0</ele><time>2026-04-30T10:41:30.763Z</time></trkpt><trkpt lat="40.367875" lon="8.9391633"><ele>959.0</ele><time>2026-04-30T10:41:31.766Z</time></trkpt><trkpt lat="40.3678067" lon="8.938985"><ele>959.0</ele><time>2026-04-30T10:41:32.806Z</time></trkpt><trkpt lat="40.3676967" lon="8.9388117"><ele>959.0</ele><time>2026-04-30T10:41:33.763Z</time></trkpt><trkpt lat="40.3676033" lon="8.93863"><ele>959.0</ele><time>2026-04-30T10:41:34.764Z</time></trkpt><trkpt lat="40.36751" lon="8.93845"><ele>959.0</ele><time>2026-04-30T10:41:35.767Z</time></trkpt><trkpt lat="40.3674033" lon="8.938285"><ele>961.0</ele><time>2026-04-30T10:41:36.768Z</time></trkpt><trkpt lat="40.3672617" lon="8.9381217"><ele>963.0</ele><time>2026-04-30T10:41:37.763Z</time></trkpt><trkpt lat="40.3671033" lon="8.9379633"><ele>965.0</ele><time>2026-04-30T10:41:38.785Z</time></trkpt><trkpt lat="40.3669417" lon="8.9378167"><ele>965.0</ele><time>2026-04-30T10:41:39.762Z</time></trkpt><trkpt lat="40.36677" lon="8.93766"><ele>965.0</ele><time>2026-04-30T10:41:40.764Z</time></trkpt><trkpt lat="40.366605" lon="8.9375083"><ele>965.0</ele><time>2026-04-30T10:41:41.764Z</time></trkpt><trkpt lat="40.3664417" lon="8.9373567"><ele>964.6666666666667</ele><time>2026-04-30T10:41:42.765Z</time></trkpt><trkpt lat="40.3662717" lon="8.9372033"><ele>964.3333333333333</ele><time>2026-04-30T10:41:43.769Z</time></trkpt><trkpt lat="40.366095" lon="8.937045"><ele>964.0</ele><time>2026-04-30T10:41:44.783Z</time></trkpt><trkpt lat="40.3659133" lon="8.9368883"><ele>964.0</ele><time>2026-04-30T10:41:45.765Z</time></trkpt><trkpt lat="40.36574" lon="8.93672"><ele>964.0</ele><time>2026-04-30T10:41:46.77Z</time></trkpt><trkpt lat="40.3655617" lon="8.9365517"><ele>964.0</ele><time>2026-04-30T10:41:47.766Z</time></trkpt><trkpt lat="40.3653717" lon="8.9363833"><ele>965.6666666666666</ele><time>2026-04-30T10:41:48.77Z</time></trkpt><trkpt lat="40.3651867" lon="8.9362183"><ele>967.3333333333333</ele><time>2026-04-30T10:41:49.764Z</time></trkpt><trkpt lat="40.365015" lon="8.9360633"><ele>969.0</ele><time>2026-04-30T10:41:50.791Z</time></trkpt><trkpt lat="40.3648317" lon="8.9359033"><ele>970.3333333333333</ele><time>2026-04-30T10:41:51.767Z</time></trkpt><trkpt lat="40.3646467" lon="8.9357367"><ele>971.6666666666666</ele><time>2026-04-30T10:41:52.766Z</time></trkpt><trkpt lat="40.36446" lon="8.935575"><ele>973.0</ele><time>2026-04-30T10:41:53.765Z</time></trkpt><trkpt lat="40.3642817" lon="8.9354233"><ele>973.0</ele><time>2026-04-30T10:41:54.768Z</time></trkpt><trkpt lat="40.3641133" lon="8.93525"><ele>973.0</ele><time>2026-04-30T10:41:55.768Z</time></trkpt><trkpt lat="40.3639417" lon="8.9350767"><ele>973.0</ele><time>2026-04-30T10:41:56.808Z</time></trkpt><trkpt lat="40.3637767" lon="8.934915"><ele>974.3333333333333</ele><time>2026-04-30T10:41:57.77Z</time></trkpt><trkpt lat="40.3636083" lon="8.9347467"><ele>975.6666666666667</ele><time>2026-04-30T10:41:58.768Z</time></trkpt><trkpt lat="40.363435" lon="8.9345817"><ele>977.0</ele><time>2026-04-30T10:41:59.769Z</time></trkpt><trkpt lat="40.3632683" lon="8.9344117"><ele>977.0</ele><time>2026-04-30T10:42:00.768Z</time></trkpt><trkpt lat="40.3630833" lon="8.934245"><ele>977.0</ele><time>2026-04-30T10:42:01.768Z</time></trkpt><trkpt lat="40.362905" lon="8.9340767"><ele>977.0</ele><time>2026-04-30T10:42:02.807Z</time></trkpt><trkpt lat="40.3627333" lon="8.9339283"><ele>978.3333333333334</ele><time>2026-04-30T10:42:03.764Z</time></trkpt><trkpt lat="40.3625483" lon="8.9337533"><ele>979.6666666666667</ele><time>2026-04-30T10:42:04.765Z</time></trkpt><trkpt lat="40.3623817" lon="8.9335967"><ele>981.0</ele><time>2026-04-30T10:42:05.768Z</time></trkpt><trkpt lat="40.3622067" lon="8.9334367"><ele>982.3333333333333</ele><time>2026-04-30T10:42:06.766Z</time></trkpt><trkpt lat="40.36203" lon="8.9332633"><ele>983.6666666666666</ele><time>2026-04-30T10:42:07.764Z</time></trkpt><trkpt lat="40.3618433" lon="8.93309"><ele>985.0</ele><time>2026-04-30T10:42:08.788Z</time></trkpt><trkpt lat="40.3616767" lon="8.9329433"><ele>985.0</ele><time>2026-04-30T10:42:09.768Z</time></trkpt><trkpt lat="40.3615233" lon="8.932805"><ele>985.0</ele><time>2026-04-30T10:42:10.764Z</time></trkpt><trkpt lat="40.3613933" lon="8.9326633"><ele>985.0</ele><time>2026-04-30T10:42:11.766Z</time></trkpt><trkpt lat="40.36128" lon="8.93252"><ele>986.0</ele><time>2026-04-30T10:42:12.764Z</time></trkpt><trkpt lat="40.3611817" lon="8.93233"><ele>987.0</ele><time>2026-04-30T10:42:13.767Z</time></trkpt><trkpt lat="40.36111" lon="8.9321217"><ele>988.0</ele><time>2026-04-30T10:42:14.79Z</time></trkpt><trkpt lat="40.3610367" lon="8.9318933"><ele>985.3333333333333</ele><time>2026-04-30T10:42:15.766Z</time></trkpt><trkpt lat="40.36095" lon="8.931675"><ele>982.6666666666667</ele><time>2026-04-30T10:42:16.768Z</time></trkpt><trkpt lat="40.360855" lon="8.9314517"><ele>980.0</ele><time>2026-04-30T10:42:17.763Z</time></trkpt><trkpt lat="40.3607683" lon="8.931205"><ele>980.0</ele><time>2026-04-30T10:42:18.767Z</time></trkpt><trkpt lat="40.36067" lon="8.93095"><ele>980.0</ele><time>2026-04-30T10:42:19.767Z</time></trkpt><trkpt lat="40.3605767" lon="8.930715"><ele>980.0</ele><time>2026-04-30T10:42:20.788Z</time></trkpt><trkpt lat="40.36047" lon="8.9304533"><ele>979.0</ele><time>2026-04-30T10:42:21.768Z</time></trkpt><trkpt lat="40.36036" lon="8.9301967"><ele>978.0</ele><time>2026-04-30T10:42:22.766Z</time></trkpt><trkpt lat="40.3602583" lon="8.929935"><ele>977.0</ele><time>2026-04-30T10:42:23.769Z</time></trkpt><trkpt lat="40.3601467" lon="8.9296867"><ele>977.0</ele><time>2026-04-30T10:42:24.766Z</time></trkpt><trkpt lat="40.36004" lon="8.9294233"><ele>977.0</ele><time>2026-04-30T10:42:25.768Z</time></trkpt><trkpt lat="40.35994" lon="8.9291783"><ele>977.0</ele><time>2026-04-30T10:42:26.826Z</time></trkpt><trkpt lat="40.3598433" lon="8.92895"><ele>975.0</ele><time>2026-04-30T10:42:27.765Z</time></trkpt><trkpt lat="40.35974" lon="8.928715"><ele>973.0</ele><time>2026-04-30T10:42:28.768Z</time></trkpt><trkpt lat="40.3596317" lon="8.9284817"><ele>971.0</ele><time>2026-04-30T10:42:29.765Z</time></trkpt><trkpt lat="40.3595117" lon="8.92825"><ele>976.0</ele><time>2026-04-30T10:42:30.77Z</time></trkpt><trkpt lat="40.3594233" lon="8.9280383"><ele>981.0</ele><time>2026-04-30T10:42:31.765Z</time></trkpt><trkpt lat="40.359335" lon="8.9278267"><ele>986.0</ele><time>2026-04-30T10:42:32.809Z</time></trkpt><trkpt lat="40.35925" lon="8.9275933"><ele>985.0</ele><time>2026-04-30T10:42:33.766Z</time></trkpt><trkpt lat="40.3591883" lon="8.9273717"><ele>984.0</ele><time>2026-04-30T10:42:34.766Z</time></trkpt><trkpt lat="40.35912" lon="8.927135"><ele>983.0</ele><time>2026-04-30T10:42:35.768Z</time></trkpt><trkpt lat="40.359055" lon="8.9268783"><ele>981.3333333333334</ele><time>2026-04-30T10:42:36.766Z</time></trkpt><trkpt lat="40.3589917" lon="8.926625"><ele>979.6666666666667</ele><time>2026-04-30T10:42:37.763Z</time></trkpt><trkpt lat="40.358935" lon="8.9263733"><ele>978.0</ele><time>2026-04-30T10:42:38.792Z</time></trkpt><trkpt lat="40.35888" lon="8.92611"><ele>983.0</ele><time>2026-04-30T10:42:39.762Z</time></trkpt><trkpt lat="40.35882" lon="8.925855"><ele>988.0</ele><time>2026-04-30T10:42:40.768Z</time></trkpt><trkpt lat="40.3587583" lon="8.92562"><ele>993.0</ele><time>2026-04-30T10:42:41.766Z</time></trkpt><trkpt lat="40.3586883" lon="8.9253717"><ele>993.0</ele><time>2026-04-30T10:42:42.768Z</time></trkpt><trkpt lat="40.3586067" lon="8.9251167"><ele>993.0</ele><time>2026-04-30T10:42:43.767Z</time></trkpt><trkpt lat="40.35851" lon="8.924855"><ele>993.0</ele><time>2026-04-30T10:42:44.791Z</time></trkpt><trkpt lat="40.3584267" lon="8.9246017"><ele>991.0</ele><time>2026-04-30T10:42:45.767Z</time></trkpt><trkpt lat="40.3583383" lon="8.9243617"><ele>989.0</ele><time>2026-04-30T10:42:46.768Z</time></trkpt><trkpt lat="40.3582317" lon="8.92411"><ele>987.0</ele><time>2026-04-30T10:42:47.761Z</time></trkpt><trkpt lat="40.35812" lon="8.9238567"><ele>992.0</ele><time>2026-04-30T10:42:48.769Z</time></trkpt><trkpt lat="40.3580267" lon="8.9236117"><ele>997.0</ele><time>2026-04-30T10:42:49.765Z</time></trkpt><trkpt lat="40.357935" lon="8.9233667"><ele>1002.0</ele><time>2026-04-30T10:42:50.791Z</time></trkpt><trkpt lat="40.357845" lon="8.923125"><ele>1002.0</ele><time>2026-04-30T10:42:51.767Z</time></trkpt><trkpt lat="40.3577533" lon="8.9228767"><ele>1002.0</ele><time>2026-04-30T10:42:52.77Z</time></trkpt><trkpt lat="40.357665" lon="8.9226483"><ele>1002.0</ele><time>2026-04-30T10:42:53.764Z</time></trkpt><trkpt lat="40.3575783" lon="8.9223833"><ele>1000.3333333333333</ele><time>2026-04-30T10:42:54.766Z</time></trkpt><trkpt lat="40.3574883" lon="8.9221367"><ele>998.6666666666666</ele><time>2026-04-30T10:42:55.769Z</time></trkpt><trkpt lat="40.3573833" lon="8.9218917"><ele>997.0</ele><time>2026-04-30T10:42:56.791Z</time></trkpt><trkpt lat="40.357275" lon="8.9216467"><ele>1003.0</ele><time>2026-04-30T10:42:57.763Z</time></trkpt><trkpt lat="40.3571767" lon="8.9214033"><ele>1009.0</ele><time>2026-04-30T10:42:58.768Z</time></trkpt><trkpt lat="40.3570917" lon="8.9211683"><ele>1015.0</ele><time>2026-04-30T10:42:59.769Z</time></trkpt><trkpt lat="40.3569967" lon="8.92093"><ele>1014.0</ele><time>2026-04-30T10:43:00.765Z</time></trkpt><trkpt lat="40.3568983" lon="8.920685"><ele>1013.0</ele><time>2026-04-30T10:43:01.767Z</time></trkpt><trkpt lat="40.3568033" lon="8.920445"><ele>1012.0</ele><time>2026-04-30T10:43:02.791Z</time></trkpt><trkpt lat="40.3567117" lon="8.9202133"><ele>1011.0</ele><time>2026-04-30T10:43:03.763Z</time></trkpt><trkpt lat="40.3566183" lon="8.9199917"><ele>1010.0</ele><time>2026-04-30T10:43:04.768Z</time></trkpt><trkpt lat="40.356525" lon="8.919775"><ele>1009.0</ele><time>2026-04-30T10:43:05.763Z</time></trkpt><trkpt lat="40.3564333" lon="8.91959"><ele>1010.6666666666666</ele><time>2026-04-30T10:43:06.767Z</time></trkpt><trkpt lat="40.3563267" lon="8.91941"><ele>1012.3333333333333</ele><time>2026-04-30T10:43:07.765Z</time></trkpt><trkpt lat="40.356195" lon="8.9192517"><ele>1014.0</ele><time>2026-04-30T10:43:08.789Z</time></trkpt><trkpt lat="40.3560467" lon="8.9191067"><ele>1014.0</ele><time>2026-04-30T10:43:09.762Z</time></trkpt><trkpt lat="40.355895" lon="8.9189633"><ele>1014.0</ele><time>2026-04-30T10:43:10.767Z</time></trkpt><trkpt lat="40.355735" lon="8.9188217"><ele>1014.0</ele><time>2026-04-30T10:43:11.766Z</time></trkpt><trkpt lat="40.3555733" lon="8.9186833"><ele>1015.3333333333333</ele><time>2026-04-30T10:43:12.767Z</time></trkpt><trkpt lat="40.3554133" lon="8.9185417"><ele>1016.6666666666666</ele><time>2026-04-30T10:43:13.768Z</time></trkpt><trkpt lat="40.35525" lon="8.9184"><ele>1018.0</ele><time>2026-04-30T10:43:14.791Z</time></trkpt><trkpt lat="40.3550817" lon="8.91826"><ele>1018.0</ele><time>2026-04-30T10:43:15.766Z</time></trkpt><trkpt lat="40.3549167" lon="8.9181017"><ele>1018.0</ele><time>2026-04-30T10:43:16.766Z</time></trkpt><trkpt lat="40.3547533" lon="8.91795"><ele>1018.0</ele><time>2026-04-30T10:43:17.766Z</time></trkpt><trkpt lat="40.35459" lon="8.9178"><ele>1018.3333333333333</ele><time>2026-04-30T10:43:18.768Z</time></trkpt><trkpt lat="40.3544283" lon="8.9176483"><ele>1018.6666666666667</ele><time>2026-04-30T10:43:19.769Z</time></trkpt><trkpt lat="40.3542683" lon="8.9174983"><ele>1019.0</ele><time>2026-04-30T10:43:20.792Z</time></trkpt><trkpt lat="40.3541" lon="8.9173483"><ele>1019.0</ele><time>2026-04-30T10:43:21.764Z</time></trkpt><trkpt lat="40.353935" lon="8.91719"><ele>1019.0</ele><time>2026-04-30T10:43:22.766Z</time></trkpt><trkpt lat="40.353775" lon="8.9170267"><ele>1019.0</ele><time>2026-04-30T10:43:23.766Z</time></trkpt><trkpt lat="40.3536167" lon="8.9168533"><ele>1019.3333333333334</ele><time>2026-04-30T10:43:24.764Z</time></trkpt><trkpt lat="40.3534633" lon="8.9166633"><ele>1019.6666666666667</ele><time>2026-04-30T10:43:25.764Z</time></trkpt><trkpt lat="40.3533117" lon="8.9164683"><ele>1020.0</ele><time>2026-04-30T10:43:26.785Z</time></trkpt><trkpt lat="40.3531633" lon="8.9162717"><ele>1020.6666666666667</ele><time>2026-04-30T10:43:27.767Z</time></trkpt><trkpt lat="40.3530117" lon="8.9160717"><ele>1021.3333333333334</ele><time>2026-04-30T10:43:28.767Z</time></trkpt><trkpt lat="40.3528517" lon="8.9158733"><ele>1022.0</ele><time>2026-04-30T10:43:29.767Z</time></trkpt><trkpt lat="40.3526933" lon="8.915675"><ele>1022.0</ele><time>2026-04-30T10:43:30.764Z</time></trkpt><trkpt lat="40.3525367" lon="8.9154733"><ele>1022.0</ele><time>2026-04-30T10:43:31.768Z</time></trkpt><trkpt lat="40.3523817" lon="8.9152717"><ele>1022.0</ele><time>2026-04-30T10:43:32.784Z</time></trkpt><trkpt lat="40.3522283" lon="8.9150633"><ele>1025.0</ele><time>2026-04-30T10:43:33.767Z</time></trkpt><trkpt lat="40.35208" lon="8.914855"><ele>1028.0</ele><time>2026-04-30T10:43:34.765Z</time></trkpt><trkpt lat="40.3519317" lon="8.9146467"><ele>1031.0</ele><time>2026-04-30T10:43:35.767Z</time></trkpt><trkpt lat="40.351785" lon="8.914435"><ele>1028.3333333333335</ele><time>2026-04-30T10:43:36.769Z</time></trkpt><trkpt lat="40.35164" lon="8.9142217"><ele>1025.6666666666667</ele><time>2026-04-30T10:43:37.762Z</time></trkpt><trkpt lat="40.3514967" lon="8.9140167"><ele>1023.0</ele><time>2026-04-30T10:43:38.788Z</time></trkpt><trkpt lat="40.3513533" lon="8.9138133"><ele>1024.6666666666667</ele><time>2026-04-30T10:43:39.764Z</time></trkpt><trkpt lat="40.3512083" lon="8.9136117"><ele>1026.3333333333335</ele><time>2026-04-30T10:43:40.765Z</time></trkpt><trkpt lat="40.351065" lon="8.91341"><ele>1028.0</ele><time>2026-04-30T10:43:41.767Z</time></trkpt><trkpt lat="40.3509183" lon="8.9132083"><ele>1028.0</ele><time>2026-04-30T10:43:42.764Z</time></trkpt><trkpt lat="40.35077" lon="8.9130067"><ele>1028.0</ele><time>2026-04-30T10:43:43.768Z</time></trkpt><trkpt lat="40.3506217" lon="8.9128083"><ele>1028.0</ele><time>2026-04-30T10:43:44.793Z</time></trkpt><trkpt lat="40.3504733" lon="8.9126117"><ele>1029.6666666666667</ele><time>2026-04-30T10:43:45.763Z</time></trkpt><trkpt lat="40.3503217" lon="8.9124167"><ele>1031.3333333333333</ele><time>2026-04-30T10:43:46.768Z</time></trkpt><trkpt lat="40.3501683" lon="8.9122233"><ele>1033.0</ele><time>2026-04-30T10:43:47.769Z</time></trkpt><trkpt lat="40.3500167" lon="8.9120333"><ele>1033.0</ele><time>2026-04-30T10:43:48.769Z</time></trkpt><trkpt lat="40.3498683" lon="8.9118383"><ele>1033.0</ele><time>2026-04-30T10:43:49.765Z</time></trkpt><trkpt lat="40.3497217" lon="8.911645"><ele>1033.0</ele><time>2026-04-30T10:43:50.79Z</time></trkpt><trkpt lat="40.3495733" lon="8.91145"><ele>1031.0</ele><time>2026-04-30T10:43:51.762Z</time></trkpt><trkpt lat="40.3494233" lon="8.9112483"><ele>1029.0</ele><time>2026-04-30T10:43:52.769Z</time></trkpt><trkpt lat="40.3492717" lon="8.91105"><ele>1027.0</ele><time>2026-04-30T10:43:53.764Z</time></trkpt><trkpt lat="40.34912" lon="8.9108533"><ele>1027.0</ele><time>2026-04-30T10:43:54.769Z</time></trkpt><trkpt lat="40.34897" lon="8.9106533"><ele>1027.0</ele><time>2026-04-30T10:43:55.766Z</time></trkpt><trkpt lat="40.3488267" lon="8.9104483"><ele>1027.0</ele><time>2026-04-30T10:43:56.766Z</time></trkpt><trkpt lat="40.3486867" lon="8.9102433"><ele>1029.6666666666665</ele><time>2026-04-30T10:43:57.765Z</time></trkpt><trkpt lat="40.3485567" lon="8.9100267"><ele>1032.3333333333333</ele><time>2026-04-30T10:43:58.769Z</time></trkpt><trkpt lat="40.3484283" lon="8.9098117"><ele>1035.0</ele><time>2026-04-30T10:43:59.766Z</time></trkpt><trkpt lat="40.3483033" lon="8.9095917"><ele>1035.0</ele><time>2026-04-30T10:44:00.766Z</time></trkpt><trkpt lat="40.3481817" lon="8.9093733"><ele>1035.0</ele><time>2026-04-30T10:44:01.77Z</time></trkpt><trkpt lat="40.3480667" lon="8.909155"><ele>1035.0</ele><time>2026-04-30T10:44:02.786Z</time></trkpt><trkpt lat="40.3479583" lon="8.908955"><ele>1035.6666666666667</ele><time>2026-04-30T10:44:03.769Z</time></trkpt><trkpt lat="40.3478533" lon="8.9087567"><ele>1036.3333333333335</ele><time>2026-04-30T10:44:04.766Z</time></trkpt><trkpt lat="40.3477533" lon="8.9085533"><ele>1037.0</ele><time>2026-04-30T10:44:05.769Z</time></trkpt><trkpt lat="40.3476667" lon="8.9083467"><ele>1037.0</ele><time>2026-04-30T10:44:06.768Z</time></trkpt><trkpt lat="40.3475933" lon="8.9081317"><ele>1037.0</ele><time>2026-04-30T10:44:07.766Z</time></trkpt><trkpt lat="40.3475733" lon="8.9078817"><ele>1037.0</ele><time>2026-04-30T10:44:08.788Z</time></trkpt><trkpt lat="40.3475767" lon="8.9076317"><ele>1035.6666666666667</ele><time>2026-04-30T10:44:09.766Z</time></trkpt><trkpt lat="40.3475817" lon="8.9073967"><ele>1034.3333333333333</ele><time>2026-04-30T10:44:10.768Z</time></trkpt><trkpt lat="40.3475817" lon="8.9071867"><ele>1033.0</ele><time>2026-04-30T10:44:11.767Z</time></trkpt><trkpt lat="40.3475767" lon="8.9069883"><ele>1033.0</ele><time>2026-04-30T10:44:12.764Z</time></trkpt><trkpt lat="40.347565" lon="8.9068033"><ele>1033.0</ele><time>2026-04-30T10:44:13.768Z</time></trkpt><trkpt lat="40.3475617" lon="8.90663"><ele>1033.0</ele><time>2026-04-30T10:44:14.792Z</time></trkpt><trkpt lat="40.3475517" lon="8.9064633"><ele>1033.0</ele><time>2026-04-30T10:44:15.769Z</time></trkpt><trkpt lat="40.3475467" lon="8.9063067"><ele>1032.5</ele><time>2026-04-30T10:44:16.768Z</time></trkpt><trkpt lat="40.3475417" lon="8.9061567"><ele>1032.0</ele><time>2026-04-30T10:44:17.769Z</time></trkpt><trkpt lat="40.3475383" lon="8.9060083"><ele>1031.5</ele><time>2026-04-30T10:44:18.765Z</time></trkpt><trkpt lat="40.347535" lon="8.90586"><ele>1031.0</ele><time>2026-04-30T10:44:19.763Z</time></trkpt><trkpt lat="40.3475383" lon="8.90571"><ele>1031.0</ele><time>2026-04-30T10:44:20.789Z</time></trkpt><trkpt lat="40.34753" lon="8.9055583"><ele>1031.0</ele><time>2026-04-30T10:44:21.763Z</time></trkpt><trkpt lat="40.3475283" lon="8.9054067"><ele>1031.0</ele><time>2026-04-30T10:44:22.768Z</time></trkpt><trkpt lat="40.3475383" lon="8.9052533"><ele>1031.0</ele><time>2026-04-30T10:44:23.764Z</time></trkpt><trkpt lat="40.3475717" lon="8.9051017"><ele>1031.5</ele><time>2026-04-30T10:44:24.767Z</time></trkpt><trkpt lat="40.3476367" lon="8.90495"><ele>1032.0</ele><time>2026-04-30T10:44:25.767Z</time></trkpt><trkpt lat="40.34771" lon="8.9047933"><ele>1032.5</ele><time>2026-04-30T10:44:26.78Z</time></trkpt><trkpt lat="40.3477933" lon="8.9046333"><ele>1033.0</ele><time>2026-04-30T10:44:27.767Z</time></trkpt><trkpt lat="40.3478867" lon="8.9044583"><ele>1033.0</ele><time>2026-04-30T10:44:28.767Z</time></trkpt><trkpt lat="40.34798" lon="8.9042733"><ele>1033.0</ele><time>2026-04-30T10:44:29.77Z</time></trkpt><trkpt lat="40.3480767" lon="8.90408"><ele>1033.0</ele><time>2026-04-30T10:44:30.77Z</time></trkpt><trkpt lat="40.34819" lon="8.9038833"><ele>1034.0</ele><time>2026-04-30T10:44:31.766Z</time></trkpt><trkpt lat="40.3483067" lon="8.9036833"><ele>1035.0</ele><time>2026-04-30T10:44:32.782Z</time></trkpt><trkpt lat="40.3484283" lon="8.903495"><ele>1036.0</ele><time>2026-04-30T10:44:33.768Z</time></trkpt><trkpt lat="40.3485533" lon="8.9033233"><ele>1036.0</ele><time>2026-04-30T10:44:34.763Z</time></trkpt><trkpt lat="40.3486883" lon="8.9031283"><ele>1036.0</ele><time>2026-04-30T10:44:35.765Z</time></trkpt><trkpt lat="40.3488033" lon="8.902955"><ele>1036.0</ele><time>2026-04-30T10:44:36.769Z</time></trkpt><trkpt lat="40.34891" lon="8.9027917"><ele>1037.3333333333333</ele><time>2026-04-30T10:44:37.764Z</time></trkpt><trkpt lat="40.34903" lon="8.9026417"><ele>1038.6666666666667</ele><time>2026-04-30T10:44:38.789Z</time></trkpt><trkpt lat="40.349135" lon="8.9024783"><ele>1040.0</ele><time>2026-04-30T10:44:39.766Z</time></trkpt><trkpt lat="40.3492317" lon="8.9023217"><ele>1040.3333333333335</ele><time>2026-04-30T10:44:40.765Z</time></trkpt><trkpt lat="40.3493317" lon="8.90217"><ele>1040.6666666666667</ele><time>2026-04-30T10:44:41.769Z</time></trkpt><trkpt lat="40.3494267" lon="8.902015"><ele>1041.0</ele><time>2026-04-30T10:44:42.768Z</time></trkpt><trkpt lat="40.3495183" lon="8.901865"><ele>1040.5</ele><time>2026-04-30T10:44:43.767Z</time></trkpt><trkpt lat="40.3496133" lon="8.9017267"><ele>1040.0</ele><time>2026-04-30T10:44:44.791Z</time></trkpt><trkpt lat="40.3497083" lon="8.901575"><ele>1039.5</ele><time>2026-04-30T10:44:45.768Z</time></trkpt><trkpt lat="40.3498" lon="8.9014567"><ele>1039.0</ele><time>2026-04-30T10:44:46.766Z</time></trkpt><trkpt lat="40.3498933" lon="8.90132"><ele>1040.25</ele><time>2026-04-30T10:44:47.763Z</time></trkpt><trkpt lat="40.34999" lon="8.9011783"><ele>1041.5</ele><time>2026-04-30T10:44:48.766Z</time></trkpt><trkpt lat="40.3500767" lon="8.90106"><ele>1042.75</ele><time>2026-04-30T10:44:49.767Z</time></trkpt><trkpt lat="40.3501733" lon="8.9009167"><ele>1044.0</ele><time>2026-04-30T10:44:50.791Z</time></trkpt><trkpt lat="40.3502433" lon="8.9008083"><ele>1044.0</ele><time>2026-04-30T10:44:51.764Z</time></trkpt><trkpt lat="40.3503067" lon="8.9006883"><ele>1044.0</ele><time>2026-04-30T10:44:52.766Z</time></trkpt><trkpt lat="40.3503533" lon="8.9005833"><ele>1044.0</ele><time>2026-04-30T10:44:53.763Z</time></trkpt><trkpt lat="40.35038" lon="8.9004833"><ele>1044.0</ele><time>2026-04-30T10:44:54.764Z</time></trkpt><trkpt lat="40.3503717" lon="8.9003583"><ele>1044.0</ele><time>2026-04-30T10:44:55.765Z</time></trkpt><trkpt lat="40.35038" lon="8.9002383"><ele>1044.0</ele><time>2026-04-30T10:44:56.827Z</time></trkpt><trkpt lat="40.3503817" lon="8.9001033"><ele>1044.0</ele><time>2026-04-30T10:44:57.767Z</time></trkpt><trkpt lat="40.3503717" lon="8.8999633"><ele>1044.0</ele><time>2026-04-30T10:44:58.766Z</time></trkpt><trkpt lat="40.3503533" lon="8.899825"><ele>1044.0</ele><time>2026-04-30T10:44:59.766Z</time></trkpt><trkpt lat="40.3503333" lon="8.8996867"><ele>1044.0</ele><time>2026-04-30T10:45:00.768Z</time></trkpt><trkpt lat="40.35031" lon="8.89955"><ele>1044.2</ele><time>2026-04-30T10:45:01.768Z</time></trkpt><trkpt lat="40.35028" lon="8.899415"><ele>1044.4</ele><time>2026-04-30T10:45:02.763Z</time></trkpt><trkpt lat="40.3502483" lon="8.8992817"><ele>1044.6</ele><time>2026-04-30T10:45:03.763Z</time></trkpt><trkpt lat="40.3502117" lon="8.8991433"><ele>1044.8</ele><time>2026-04-30T10:45:04.763Z</time></trkpt><trkpt lat="40.3501733" lon="8.8990083"><ele>1045.0</ele><time>2026-04-30T10:45:05.767Z</time></trkpt><trkpt lat="40.350125" lon="8.8988767"><ele>1045.8</ele><time>2026-04-30T10:45:06.768Z</time></trkpt><trkpt lat="40.350085" lon="8.8987417"><ele>1046.6</ele><time>2026-04-30T10:45:07.768Z</time></trkpt><trkpt lat="40.35005" lon="8.8986117"><ele>1047.4</ele><time>2026-04-30T10:45:08.788Z</time></trkpt><trkpt lat="40.350015" lon="8.8984817"><ele>1048.2</ele><time>2026-04-30T10:45:09.763Z</time></trkpt><trkpt lat="40.3499983" lon="8.8983583"><ele>1049.0</ele><time>2026-04-30T10:45:10.766Z</time></trkpt><trkpt lat="40.3499733" lon="8.8982067"><ele>1049.0</ele><time>2026-04-30T10:45:11.769Z</time></trkpt><trkpt lat="40.3499517" lon="8.89805"><ele>1049.0</ele><time>2026-04-30T10:45:12.765Z</time></trkpt><trkpt lat="40.3499483" lon="8.89789"><ele>1049.0</ele><time>2026-04-30T10:45:13.768Z</time></trkpt><trkpt lat="40.349935" lon="8.8977367"><ele>1049.0</ele><time>2026-04-30T10:45:14.788Z</time></trkpt><trkpt lat="40.3499183" lon="8.8975933"><ele>1049.75</ele><time>2026-04-30T10:45:15.768Z</time></trkpt><trkpt lat="40.3498867" lon="8.897445"><ele>1050.5</ele><time>2026-04-30T10:45:16.768Z</time></trkpt><trkpt lat="40.34986" lon="8.8973"><ele>1051.25</ele><time>2026-04-30T10:45:17.766Z</time></trkpt><trkpt lat="40.3498267" lon="8.8971567"><ele>1052.0</ele><time>2026-04-30T10:45:18.768Z</time></trkpt><trkpt lat="40.3497983" lon="8.897015"><ele>1052.0</ele><time>2026-04-30T10:45:19.769Z</time></trkpt><trkpt lat="40.3497733" lon="8.8968767"><ele>1052.0</ele><time>2026-04-30T10:45:20.794Z</time></trkpt><trkpt lat="40.349755" lon="8.89674"><ele>1052.0</ele><time>2026-04-30T10:45:21.767Z</time></trkpt><trkpt lat="40.34975" lon="8.8966167"><ele>1052.0</ele><time>2026-04-30T10:45:22.766Z</time></trkpt><trkpt lat="40.349755" lon="8.8965067"><ele>1052.0</ele><time>2026-04-30T10:45:23.767Z</time></trkpt><trkpt lat="40.349775" lon="8.89642"><ele>1052.0</ele><time>2026-04-30T10:45:24.766Z</time></trkpt><trkpt lat="40.3498567" lon="8.8962967"><ele>1052.0</ele><time>2026-04-30T10:45:26.824Z</time></trkpt><trkpt lat="40.349895" lon="8.8962233"><ele>1052.0</ele><time>2026-04-30T10:45:27.763Z</time></trkpt><trkpt lat="40.34993" lon="8.896145"><ele>1052.0</ele><time>2026-04-30T10:45:28.768Z</time></trkpt><trkpt lat="40.3499683" lon="8.8960567"><ele>1052.0</ele><time>2026-04-30T10:45:29.763Z</time></trkpt><trkpt lat="40.3499983" lon="8.895965"><ele>1052.0</ele><time>2026-04-30T10:45:30.766Z</time></trkpt><trkpt lat="40.3500217" lon="8.8958733"><ele>1051.5</ele><time>2026-04-30T10:45:31.763Z</time></trkpt><trkpt lat="40.3500333" lon="8.89577"><ele>1051.0</ele><time>2026-04-30T10:45:32.809Z</time></trkpt><trkpt lat="40.3500367" lon="8.8956683"><ele>1050.5</ele><time>2026-04-30T10:45:33.765Z</time></trkpt><trkpt lat="40.3500317" lon="8.895565"><ele>1050.0</ele><time>2026-04-30T10:45:34.766Z</time></trkpt><trkpt lat="40.3500267" lon="8.8954633"><ele>1049.5</ele><time>2026-04-30T10:45:35.762Z</time></trkpt><trkpt lat="40.3500217" lon="8.8953617"><ele>1049.0</ele><time>2026-04-30T10:45:36.761Z</time></trkpt><trkpt lat="40.3500117" lon="8.89526"><ele>1049.0</ele><time>2026-04-30T10:45:37.767Z</time></trkpt><trkpt lat="40.3500133" lon="8.8951533"><ele>1049.0</ele><time>2026-04-30T10:45:38.787Z</time></trkpt><trkpt lat="40.3500167" lon="8.895045"><ele>1049.0</ele><time>2026-04-30T10:45:39.766Z</time></trkpt><trkpt lat="40.35002" lon="8.8949367"><ele>1049.0</ele><time>2026-04-30T10:45:40.762Z</time></trkpt><trkpt lat="40.35003" lon="8.894835"><ele>1049.0</ele><time>2026-04-30T10:45:41.764Z</time></trkpt><trkpt lat="40.3500433" lon="8.8947317"><ele>1049.0</ele><time>2026-04-30T10:45:42.762Z</time></trkpt><trkpt lat="40.35007" lon="8.894625"><ele>1048.6666666666667</ele><time>2026-04-30T10:45:43.766Z</time></trkpt><trkpt lat="40.3501017" lon="8.89452"><ele>1048.3333333333335</ele><time>2026-04-30T10:45:44.789Z</time></trkpt><trkpt lat="40.3501317" lon="8.8944283"><ele>1048.0</ele><time>2026-04-30T10:45:45.763Z</time></trkpt><trkpt lat="40.3501633" lon="8.894335"><ele>1047.6666666666667</ele><time>2026-04-30T10:45:46.763Z</time></trkpt><trkpt lat="40.350195" lon="8.89424"><ele>1047.3333333333333</ele><time>2026-04-30T10:45:47.764Z</time></trkpt><trkpt lat="40.350225" lon="8.8941433"><ele>1047.0</ele><time>2026-04-30T10:45:48.763Z</time></trkpt><trkpt lat="40.3502533" lon="8.89404"><ele>1046.3333333333333</ele><time>2026-04-30T10:45:49.765Z</time></trkpt><trkpt lat="40.3502817" lon="8.89393"><ele>1045.6666666666667</ele><time>2026-04-30T10:45:50.785Z</time></trkpt><trkpt lat="40.3503067" lon="8.89382"><ele>1045.0</ele><time>2026-04-30T10:45:51.761Z</time></trkpt><trkpt lat="40.3503233" lon="8.8937117"><ele>1044.3333333333335</ele><time>2026-04-30T10:45:52.765Z</time></trkpt><trkpt lat="40.3503333" lon="8.893605"><ele>1043.6666666666667</ele><time>2026-04-30T10:45:53.761Z</time></trkpt><trkpt lat="40.35034" lon="8.8935033"><ele>1043.0</ele><time>2026-04-30T10:45:54.762Z</time></trkpt><trkpt lat="40.350335" lon="8.8933967"><ele>1042.3333333333335</ele><time>2026-04-30T10:45:55.767Z</time></trkpt><trkpt lat="40.3503333" lon="8.8932917"><ele>1041.6666666666667</ele><time>2026-04-30T10:45:56.774Z</time></trkpt><trkpt lat="40.350325" lon="8.89319"><ele>1041.0</ele><time>2026-04-30T10:45:57.763Z</time></trkpt><trkpt lat="40.3503233" lon="8.8930817"><ele>1040.3333333333333</ele><time>2026-04-30T10:45:58.761Z</time></trkpt><trkpt lat="40.3503333" lon="8.8929767"><ele>1039.6666666666665</ele><time>2026-04-30T10:45:59.763Z</time></trkpt><trkpt lat="40.3503433" lon="8.89287"><ele>1039.0</ele><time>2026-04-30T10:46:00.766Z</time></trkpt><trkpt lat="40.3503567" lon="8.8927617"><ele>1039.0</ele><time>2026-04-30T10:46:01.766Z</time></trkpt><trkpt lat="40.3503683" lon="8.89265"><ele>1039.0</ele><time>2026-04-30T10:46:02.786Z</time></trkpt><trkpt lat="40.3503783" lon="8.8925367"><ele>1039.0</ele><time>2026-04-30T10:46:03.763Z</time></trkpt><trkpt lat="40.350385" lon="8.89242"><ele>1039.0</ele><time>2026-04-30T10:46:04.764Z</time></trkpt><trkpt lat="40.3503917" lon="8.8922967"><ele>1039.0</ele><time>2026-04-30T10:46:05.766Z</time></trkpt><trkpt lat="40.350395" lon="8.8921717"><ele>1037.8</ele><time>2026-04-30T10:46:06.765Z</time></trkpt><trkpt lat="40.3504" lon="8.8920467"><ele>1036.6000000000001</ele><time>2026-04-30T10:46:07.768Z</time></trkpt><trkpt lat="40.3504033" lon="8.8919133"><ele>1035.4</ele><time>2026-04-30T10:46:08.787Z</time></trkpt><trkpt lat="40.3503933" lon="8.89177"><ele>1034.2</ele><time>2026-04-30T10:46:09.764Z</time></trkpt><trkpt lat="40.350385" lon="8.8916133"><ele>1033.0</ele><time>2026-04-30T10:46:10.764Z</time></trkpt><trkpt lat="40.35038" lon="8.8914567"><ele>1032.0</ele><time>2026-04-30T10:46:11.765Z</time></trkpt><trkpt lat="40.35038" lon="8.8912967"><ele>1031.0</ele><time>2026-04-30T10:46:12.765Z</time></trkpt><trkpt lat="40.3503683" lon="8.8911383"><ele>1030.0</ele><time>2026-04-30T10:46:13.767Z</time></trkpt><trkpt lat="40.3503583" lon="8.8909733"><ele>1029.0</ele><time>2026-04-30T10:46:14.788Z</time></trkpt><trkpt lat="40.350345" lon="8.89081"><ele>1027.5</ele><time>2026-04-30T10:46:15.767Z</time></trkpt><trkpt lat="40.3503317" lon="8.890645"><ele>1026.0</ele><time>2026-04-30T10:46:16.766Z</time></trkpt><trkpt lat="40.3503167" lon="8.8904817"><ele>1024.5</ele><time>2026-04-30T10:46:17.763Z</time></trkpt><trkpt lat="40.3503017" lon="8.890325"><ele>1023.0</ele><time>2026-04-30T10:46:18.764Z</time></trkpt><trkpt lat="40.35029" lon="8.890165"><ele>1022.0</ele><time>2026-04-30T10:46:19.765Z</time></trkpt><trkpt lat="40.3502783" lon="8.890005"><ele>1021.0</ele><time>2026-04-30T10:46:20.787Z</time></trkpt><trkpt lat="40.350265" lon="8.8898483"><ele>1020.0</ele><time>2026-04-30T10:46:21.763Z</time></trkpt><trkpt lat="40.3502567" lon="8.8896883"><ele>1019.0</ele><time>2026-04-30T10:46:22.769Z</time></trkpt><trkpt lat="40.3502417" lon="8.8895267"><ele>1019.0</ele><time>2026-04-30T10:46:23.762Z</time></trkpt><trkpt lat="40.350225" lon="8.8893667"><ele>1019.0</ele><time>2026-04-30T10:46:24.765Z</time></trkpt><trkpt lat="40.3502083" lon="8.8892083"><ele>1019.0</ele><time>2026-04-30T10:46:25.764Z</time></trkpt><trkpt lat="40.3501917" lon="8.88905"><ele>1019.0</ele><time>2026-04-30T10:46:26.825Z</time></trkpt><trkpt lat="40.350175" lon="8.88889"><ele>1016.75</ele><time>2026-04-30T10:46:27.771Z</time></trkpt><trkpt lat="40.3501667" lon="8.8887317"><ele>1014.5</ele><time>2026-04-30T10:46:28.765Z</time></trkpt><trkpt lat="40.3501583" lon="8.8885717"><ele>1012.25</ele><time>2026-04-30T10:46:29.762Z</time></trkpt><trkpt lat="40.3501433" lon="8.888415"><ele>1010.0</ele><time>2026-04-30T10:46:30.768Z</time></trkpt><trkpt lat="40.3501317" lon="8.888255"><ele>1008.5</ele><time>2026-04-30T10:46:31.765Z</time></trkpt><trkpt lat="40.3501217" lon="8.8880767"><ele>1007.0</ele><time>2026-04-30T10:46:32.768Z</time></trkpt><trkpt lat="40.350105" lon="8.8878883"><ele>1005.5</ele><time>2026-04-30T10:46:33.766Z</time></trkpt><trkpt lat="40.3501" lon="8.887715"><ele>1004.0</ele><time>2026-04-30T10:46:34.768Z</time></trkpt><trkpt lat="40.35009" lon="8.887565"><ele>1003.0</ele><time>2026-04-30T10:46:35.763Z</time></trkpt><trkpt lat="40.3500533" lon="8.887415"><ele>1002.0</ele><time>2026-04-30T10:46:36.765Z</time></trkpt><trkpt lat="40.3500383" lon="8.8872683"><ele>1001.0</ele><time>2026-04-30T10:46:37.763Z</time></trkpt><trkpt lat="40.3500367" lon="8.8871033"><ele>1000.0</ele><time>2026-04-30T10:46:38.789Z</time></trkpt><trkpt lat="40.35004" lon="8.88693"><ele>999.25</ele><time>2026-04-30T10:46:39.767Z</time></trkpt><trkpt lat="40.3500367" lon="8.8867583"><ele>998.5</ele><time>2026-04-30T10:46:40.766Z</time></trkpt><trkpt lat="40.3500283" lon="8.8865983"><ele>997.75</ele><time>2026-04-30T10:46:41.765Z</time></trkpt><trkpt lat="40.3500133" lon="8.8864383"><ele>997.0</ele><time>2026-04-30T10:46:42.762Z</time></trkpt><trkpt lat="40.34998" lon="8.8862367"><ele>997.0</ele><time>2026-04-30T10:46:43.766Z</time></trkpt><trkpt lat="40.3499633" lon="8.88605"><ele>997.0</ele><time>2026-04-30T10:46:44.788Z</time></trkpt><trkpt lat="40.3499317" lon="8.8858783"><ele>997.0</ele><time>2026-04-30T10:46:45.769Z</time></trkpt><trkpt lat="40.3499233" lon="8.8857117"><ele>997.0</ele><time>2026-04-30T10:46:46.766Z</time></trkpt><trkpt lat="40.3499217" lon="8.8855283"><ele>995.75</ele><time>2026-04-30T10:46:47.764Z</time></trkpt><trkpt lat="40.3499217" lon="8.8853533"><ele>994.5</ele><time>2026-04-30T10:46:48.764Z</time></trkpt><trkpt lat="40.3499233" lon="8.88519"><ele>993.25</ele><time>2026-04-30T10:46:49.762Z</time></trkpt><trkpt lat="40.3499317" lon="8.8850167"><ele>992.0</ele><time>2026-04-30T10:46:50.787Z</time></trkpt><trkpt lat="40.3499467" lon="8.8848383"><ele>991.25</ele><time>2026-04-30T10:46:51.768Z</time></trkpt><trkpt lat="40.34995" lon="8.8846667"><ele>990.5</ele><time>2026-04-30T10:46:52.765Z</time></trkpt><trkpt lat="40.349955" lon="8.8844933"><ele>989.75</ele><time>2026-04-30T10:46:53.767Z</time></trkpt><trkpt lat="40.3499683" lon="8.8843183"><ele>989.0</ele><time>2026-04-30T10:46:54.762Z</time></trkpt><trkpt lat="40.3499783" lon="8.884135"><ele>988.5</ele><time>2026-04-30T10:46:55.764Z</time></trkpt><trkpt lat="40.3499883" lon="8.883955"><ele>988.0</ele><time>2026-04-30T10:46:56.825Z</time></trkpt><trkpt lat="40.35001" lon="8.88377"><ele>987.5</ele><time>2026-04-30T10:46:57.764Z</time></trkpt><trkpt lat="40.350015" lon="8.88359"><ele>987.0</ele><time>2026-04-30T10:46:58.767Z</time></trkpt><trkpt lat="40.3500183" lon="8.88341"><ele>986.5</ele><time>2026-04-30T10:46:59.764Z</time></trkpt><trkpt lat="40.35002" lon="8.8832217"><ele>986.0</ele><time>2026-04-30T10:47:00.762Z</time></trkpt><trkpt lat="40.350025" lon="8.8830467"><ele>985.5</ele><time>2026-04-30T10:47:01.762Z</time></trkpt><trkpt lat="40.35003" lon="8.8828683"><ele>985.0</ele><time>2026-04-30T10:47:02.807Z</time></trkpt><trkpt lat="40.3500383" lon="8.8826917"><ele>984.5</ele><time>2026-04-30T10:47:03.764Z</time></trkpt><trkpt lat="40.3500533" lon="8.8825267"><ele>984.0</ele><time>2026-04-30T10:47:04.765Z</time></trkpt><trkpt lat="40.3500683" lon="8.8823867"><ele>983.5</ele><time>2026-04-30T10:47:05.762Z</time></trkpt><trkpt lat="40.3500783" lon="8.8822267"><ele>983.0</ele><time>2026-04-30T10:47:06.763Z</time></trkpt><trkpt lat="40.350075" lon="8.8820733"><ele>983.0</ele><time>2026-04-30T10:47:07.766Z</time></trkpt><trkpt lat="40.3501167" lon="8.8819183"><ele>983.0</ele><time>2026-04-30T10:47:08.789Z</time></trkpt><trkpt lat="40.3501033" lon="8.8817733"><ele>983.0</ele><time>2026-04-30T10:47:09.763Z</time></trkpt><trkpt lat="40.3500667" lon="8.8816267"><ele>983.0</ele><time>2026-04-30T10:47:10.764Z</time></trkpt><trkpt lat="40.35002" lon="8.8814867"><ele>982.5</ele><time>2026-04-30T10:47:11.763Z</time></trkpt><trkpt lat="40.349975" lon="8.8813483"><ele>982.0</ele><time>2026-04-30T10:47:12.766Z</time></trkpt><trkpt lat="40.3499183" lon="8.881225"><ele>981.5</ele><time>2026-04-30T10:47:13.766Z</time></trkpt><trkpt lat="40.3498733" lon="8.881085"><ele>981.0</ele><time>2026-04-30T10:47:14.789Z</time></trkpt><trkpt lat="40.34981" lon="8.8809667"><ele>981.4</ele><time>2026-04-30T10:47:15.768Z</time></trkpt><trkpt lat="40.3497483" lon="8.88083"><ele>981.8</ele><time>2026-04-30T10:47:16.764Z</time></trkpt><trkpt lat="40.3497117" lon="8.8807133"><ele>982.1999999999999</ele><time>2026-04-30T10:47:17.769Z</time></trkpt><trkpt lat="40.349675" lon="8.880605"><ele>982.5999999999999</ele><time>2026-04-30T10:47:18.767Z</time></trkpt><trkpt lat="40.3496383" lon="8.8805017"><ele>983.0</ele><time>2026-04-30T10:47:19.766Z</time></trkpt><trkpt lat="40.349605" lon="8.8804017"><ele>982.4</ele><time>2026-04-30T10:47:20.79Z</time></trkpt><trkpt lat="40.3495717" lon="8.8803083"><ele>981.8</ele><time>2026-04-30T10:47:21.763Z</time></trkpt><trkpt lat="40.3495383" lon="8.88023"><ele>981.2</ele><time>2026-04-30T10:47:22.766Z</time></trkpt><trkpt lat="40.3494867" lon="8.8800867"><ele>980.6</ele><time>2026-04-30T10:47:24.766Z</time></trkpt><trkpt lat="40.3494433" lon="8.87997"><ele>980.0</ele><time>2026-04-30T10:47:26.824Z</time></trkpt><trkpt lat="40.3493967" lon="8.87986"><ele>980.0000000000001</ele><time>2026-04-30T10:47:28.769Z</time></trkpt><trkpt lat="40.3493583" lon="8.87976"><ele>980.0</ele><time>2026-04-30T10:47:30.762Z</time></trkpt><trkpt lat="40.3493267" lon="8.8796617"><ele>980.0</ele><time>2026-04-30T10:47:32.808Z</time></trkpt><trkpt lat="40.3492983" lon="8.8795633"><ele>980.0</ele><time>2026-04-30T10:47:34.765Z</time></trkpt><trkpt lat="40.34927" lon="8.8794617"><ele>980.0000000000001</ele><time>2026-04-30T10:47:36.763Z</time></trkpt><trkpt lat="40.34925" lon="8.879355"><ele>980.0</ele><time>2026-04-30T10:47:38.791Z</time></trkpt><trkpt lat="40.3492383" lon="8.8792317"><ele>979.8</ele><time>2026-04-30T10:47:40.764Z</time></trkpt><trkpt lat="40.3492217" lon="8.8790717"><ele>979.6</ele><time>2026-04-30T10:47:42.768Z</time></trkpt><trkpt lat="40.3492083" lon="8.87897"><ele>979.4000000000001</ele><time>2026-04-30T10:47:43.761Z</time></trkpt><trkpt lat="40.349195" lon="8.8788517"><ele>979.2</ele><time>2026-04-30T10:47:44.788Z</time></trkpt><trkpt lat="40.3491883" lon="8.8787117"><ele>979.0</ele><time>2026-04-30T10:47:45.762Z</time></trkpt><trkpt lat="40.349185" lon="8.87852"><ele>978.25</ele><time>2026-04-30T10:47:46.764Z</time></trkpt><trkpt lat="40.3492" lon="8.8783267"><ele>977.5</ele><time>2026-04-30T10:47:47.765Z</time></trkpt><trkpt lat="40.3492067" lon="8.87816"><ele>976.75</ele><time>2026-04-30T10:47:48.767Z</time></trkpt><trkpt lat="40.3491967" lon="8.8779633"><ele>976.0</ele><time>2026-04-30T10:47:49.767Z</time></trkpt><trkpt lat="40.34918" lon="8.8777933"><ele>976.0</ele><time>2026-04-30T10:47:50.79Z</time></trkpt><trkpt lat="40.34917" lon="8.8776083"><ele>976.0</ele><time>2026-04-30T10:47:51.762Z</time></trkpt><trkpt lat="40.349135" lon="8.877425"><ele>976.0</ele><time>2026-04-30T10:47:52.767Z</time></trkpt><trkpt lat="40.3491183" lon="8.8772417"><ele>976.0</ele><time>2026-04-30T10:47:53.764Z</time></trkpt><trkpt lat="40.349085" lon="8.87705"><ele>974.0</ele><time>2026-04-30T10:47:54.766Z</time></trkpt><trkpt lat="40.3490733" lon="8.8768583"><ele>972.0</ele><time>2026-04-30T10:47:55.767Z</time></trkpt><trkpt lat="40.349035" lon="8.8766717"><ele>970.0</ele><time>2026-04-30T10:47:56.821Z</time></trkpt><trkpt lat="40.3490167" lon="8.8764683"><ele>969.25</ele><time>2026-04-30T10:47:57.767Z</time></trkpt><trkpt lat="40.3489967" lon="8.8762783"><ele>968.5</ele><time>2026-04-30T10:47:58.765Z</time></trkpt><trkpt lat="40.3489883" lon="8.87611"><ele>967.75</ele><time>2026-04-30T10:47:59.763Z</time></trkpt><trkpt lat="40.3489617" lon="8.87594"><ele>967.0</ele><time>2026-04-30T10:48:00.763Z</time></trkpt><trkpt lat="40.3489483" lon="8.875785"><ele>966.6</ele><time>2026-04-30T10:48:01.762Z</time></trkpt><trkpt lat="40.3489283" lon="8.8756567"><ele>966.2</ele><time>2026-04-30T10:48:02.808Z</time></trkpt><trkpt lat="40.348925" lon="8.8755067"><ele>965.8</ele><time>2026-04-30T10:48:03.767Z</time></trkpt><trkpt lat="40.3489217" lon="8.8753567"><ele>965.4</ele><time>2026-04-30T10:48:04.763Z</time></trkpt><trkpt lat="40.3489283" lon="8.8752"><ele>965.0</ele><time>2026-04-30T10:48:05.766Z</time></trkpt><trkpt lat="40.34892" lon="8.8750433"><ele>963.75</ele><time>2026-04-30T10:48:06.764Z</time></trkpt><trkpt lat="40.3489083" lon="8.874885"><ele>962.5</ele><time>2026-04-30T10:48:07.766Z</time></trkpt><trkpt lat="40.34889" lon="8.8747417"><ele>961.25</ele><time>2026-04-30T10:48:08.791Z</time></trkpt><trkpt lat="40.3488817" lon="8.8745917"><ele>960.0</ele><time>2026-04-30T10:48:09.77Z</time></trkpt><trkpt lat="40.348875" lon="8.8744533"><ele>959.8</ele><time>2026-04-30T10:48:10.766Z</time></trkpt><trkpt lat="40.3488617" lon="8.87431"><ele>959.6</ele><time>2026-04-30T10:48:11.762Z</time></trkpt><trkpt lat="40.34885" lon="8.87416"><ele>959.4000000000001</ele><time>2026-04-30T10:48:12.763Z</time></trkpt><trkpt lat="40.3488533" lon="8.87401"><ele>959.2</ele><time>2026-04-30T10:48:13.767Z</time></trkpt><trkpt lat="40.34888" lon="8.8738867"><ele>959.0</ele><time>2026-04-30T10:48:14.79Z</time></trkpt><trkpt lat="40.3489217" lon="8.8737517"><ele>959.0</ele><time>2026-04-30T10:48:15.764Z</time></trkpt><trkpt lat="40.3489567" lon="8.8736117"><ele>959.0</ele><time>2026-04-30T10:48:16.765Z</time></trkpt><trkpt lat="40.3490067" lon="8.87347"><ele>959.0</ele><time>2026-04-30T10:48:17.763Z</time></trkpt><trkpt lat="40.3490567" lon="8.8733183"><ele>959.0</ele><time>2026-04-30T10:48:18.763Z</time></trkpt><trkpt lat="40.3491133" lon="8.8731683"><ele>959.0</ele><time>2026-04-30T10:48:19.762Z</time></trkpt><trkpt lat="40.3491583" lon="8.8730333"><ele>959.0</ele><time>2026-04-30T10:48:20.79Z</time></trkpt><trkpt lat="40.3492083" lon="8.8728883"><ele>959.0</ele><time>2026-04-30T10:48:21.763Z</time></trkpt><trkpt lat="40.3492683" lon="8.8727217"><ele>959.0</ele><time>2026-04-30T10:48:22.767Z</time></trkpt><trkpt lat="40.3493217" lon="8.8725433"><ele>958.3333333333334</ele><time>2026-04-30T10:48:23.765Z</time></trkpt><trkpt lat="40.3493833" lon="8.87234"><ele>957.6666666666667</ele><time>2026-04-30T10:48:24.762Z</time></trkpt><trkpt lat="40.3494583" lon="8.872145"><ele>957.0</ele><time>2026-04-30T10:48:25.762Z</time></trkpt><trkpt lat="40.3495367" lon="8.87196"><ele>957.0</ele><time>2026-04-30T10:48:26.784Z</time></trkpt><trkpt lat="40.3496183" lon="8.87177"><ele>957.0</ele><time>2026-04-30T10:48:27.765Z</time></trkpt><trkpt lat="40.3496967" lon="8.871575"><ele>957.0</ele><time>2026-04-30T10:48:28.761Z</time></trkpt><trkpt lat="40.349755" lon="8.8713467"><ele>955.6666666666667</ele><time>2026-04-30T10:48:29.761Z</time></trkpt><trkpt lat="40.3498183" lon="8.8711283"><ele>954.3333333333334</ele><time>2026-04-30T10:48:30.765Z</time></trkpt><trkpt lat="40.3498867" lon="8.8709033"><ele>953.0</ele><time>2026-04-30T10:48:31.769Z</time></trkpt><trkpt lat="40.3499567" lon="8.8706817"><ele>952.0</ele><time>2026-04-30T10:48:32.806Z</time></trkpt><trkpt lat="40.350025" lon="8.8704633"><ele>951.0</ele><time>2026-04-30T10:48:33.769Z</time></trkpt><trkpt lat="40.3500833" lon="8.87023"><ele>950.0</ele><time>2026-04-30T10:48:34.764Z</time></trkpt><trkpt lat="40.35014" lon="8.8700033"><ele>950.0</ele><time>2026-04-30T10:48:35.767Z</time></trkpt><trkpt lat="40.3501917" lon="8.8697733"><ele>950.0</ele><time>2026-04-30T10:48:36.764Z</time></trkpt><trkpt lat="40.350245" lon="8.8695333"><ele>950.0</ele><time>2026-04-30T10:48:37.764Z</time></trkpt><trkpt lat="40.350295" lon="8.869335"><ele>950.3333333333334</ele><time>2026-04-30T10:48:38.786Z</time></trkpt><trkpt lat="40.3503567" lon="8.8691317"><ele>950.6666666666667</ele><time>2026-04-30T10:48:39.763Z</time></trkpt><trkpt lat="40.3504117" lon="8.8689233"><ele>951.0</ele><time>2026-04-30T10:48:40.762Z</time></trkpt><trkpt lat="40.35047" lon="8.8687083"><ele>951.0</ele><time>2026-04-30T10:48:41.761Z</time></trkpt><trkpt lat="40.3505317" lon="8.8684967"><ele>951.0</ele><time>2026-04-30T10:48:42.765Z</time></trkpt><trkpt lat="40.350605" lon="8.8682817"><ele>951.0</ele><time>2026-04-30T10:48:43.765Z</time></trkpt><trkpt lat="40.3506533" lon="8.86808"><ele>948.0</ele><time>2026-04-30T10:48:44.786Z</time></trkpt><trkpt lat="40.3506883" lon="8.8678817"><ele>945.0</ele><time>2026-04-30T10:48:45.762Z</time></trkpt><trkpt lat="40.350745" lon="8.8676733"><ele>942.0</ele><time>2026-04-30T10:48:46.763Z</time></trkpt><trkpt lat="40.3508033" lon="8.8674783"><ele>940.75</ele><time>2026-04-30T10:48:47.763Z</time></trkpt><trkpt lat="40.35085" lon="8.86729"><ele>939.5</ele><time>2026-04-30T10:48:48.768Z</time></trkpt><trkpt lat="40.3509017" lon="8.8671017"><ele>938.25</ele><time>2026-04-30T10:48:49.762Z</time></trkpt><trkpt lat="40.3509483" lon="8.8669233"><ele>937.0</ele><time>2026-04-30T10:48:50.786Z</time></trkpt><trkpt lat="40.350995" lon="8.8667433"><ele>936.25</ele><time>2026-04-30T10:48:51.764Z</time></trkpt><trkpt lat="40.3510417" lon="8.8665717"><ele>935.5</ele><time>2026-04-30T10:48:52.767Z</time></trkpt><trkpt lat="40.351085" lon="8.8664067"><ele>934.75</ele><time>2026-04-30T10:48:53.766Z</time></trkpt><trkpt lat="40.3511283" lon="8.8662433"><ele>934.0</ele><time>2026-04-30T10:48:54.766Z</time></trkpt><trkpt lat="40.35117" lon="8.8660867"><ele>934.0</ele><time>2026-04-30T10:48:55.769Z</time></trkpt><trkpt lat="40.3512117" lon="8.8659283"><ele>934.0</ele><time>2026-04-30T10:48:56.824Z</time></trkpt><trkpt lat="40.3512517" lon="8.865775"><ele>934.0</ele><time>2026-04-30T10:48:57.766Z</time></trkpt><trkpt lat="40.3512967" lon="8.8656267"><ele>934.0</ele><time>2026-04-30T10:48:58.767Z</time></trkpt><trkpt lat="40.3513517" lon="8.865485"><ele>932.25</ele><time>2026-04-30T10:48:59.762Z</time></trkpt><trkpt lat="40.351415" lon="8.865355"><ele>930.5</ele><time>2026-04-30T10:49:00.766Z</time></trkpt><trkpt lat="40.35149" lon="8.865245"><ele>928.75</ele><time>2026-04-30T10:49:01.764Z</time></trkpt><trkpt lat="40.351585" lon="8.86515"><ele>927.0</ele><time>2026-04-30T10:49:02.805Z</time></trkpt><trkpt lat="40.35171" lon="8.8650767"><ele>926.3333333333333</ele><time>2026-04-30T10:49:03.766Z</time></trkpt><trkpt lat="40.3518383" lon="8.8649967"><ele>925.6666666666666</ele><time>2026-04-30T10:49:04.767Z</time></trkpt><trkpt lat="40.3519783" lon="8.8649183"><ele>925.0</ele><time>2026-04-30T10:49:05.762Z</time></trkpt><trkpt lat="40.35213" lon="8.8648383"><ele>924.0</ele><time>2026-04-30T10:49:06.764Z</time></trkpt><trkpt lat="40.3522883" lon="8.864755"><ele>923.0</ele><time>2026-04-30T10:49:07.764Z</time></trkpt><trkpt lat="40.3524533" lon="8.8646717"><ele>922.0</ele><time>2026-04-30T10:49:08.79Z</time></trkpt><trkpt lat="40.3526167" lon="8.864585"><ele>922.0</ele><time>2026-04-30T10:49:09.763Z</time></trkpt><trkpt lat="40.3527833" lon="8.8644983"><ele>922.0</ele><time>2026-04-30T10:49:10.767Z</time></trkpt><trkpt lat="40.352945" lon="8.8644083"><ele>922.0</ele><time>2026-04-30T10:49:11.761Z</time></trkpt><trkpt lat="40.3531033" lon="8.864315"><ele>919.3333333333333</ele><time>2026-04-30T10:49:12.763Z</time></trkpt><trkpt lat="40.3532633" lon="8.8642267"><ele>916.6666666666667</ele><time>2026-04-30T10:49:13.762Z</time></trkpt><trkpt lat="40.35342" lon="8.86414"><ele>914.0</ele><time>2026-04-30T10:49:14.787Z</time></trkpt><trkpt lat="40.3535783" lon="8.8640533"><ele>914.0</ele><time>2026-04-30T10:49:15.767Z</time></trkpt><trkpt lat="40.3537317" lon="8.8639667"><ele>914.0</ele><time>2026-04-30T10:49:16.765Z</time></trkpt><trkpt lat="40.3538833" lon="8.8638783"><ele>914.0</ele><time>2026-04-30T10:49:17.763Z</time></trkpt><trkpt lat="40.3540383" lon="8.8637883"><ele>915.3333333333334</ele><time>2026-04-30T10:49:18.767Z</time></trkpt><trkpt lat="40.3541967" lon="8.8637"><ele>916.6666666666667</ele><time>2026-04-30T10:49:19.77Z</time></trkpt><trkpt lat="40.35435" lon="8.8636133"><ele>918.0</ele><time>2026-04-30T10:49:20.791Z</time></trkpt><trkpt lat="40.3545017" lon="8.8635283"><ele>916.6666666666667</ele><time>2026-04-30T10:49:21.766Z</time></trkpt><trkpt lat="40.354645" lon="8.8634433"><ele>915.3333333333334</ele><time>2026-04-30T10:49:22.765Z</time></trkpt><trkpt lat="40.3547833" lon="8.8633583"><ele>914.0</ele><time>2026-04-30T10:49:23.766Z</time></trkpt><trkpt lat="40.3549183" lon="8.8632667"><ele>914.0</ele><time>2026-04-30T10:49:24.765Z</time></trkpt><trkpt lat="40.3550483" lon="8.8631667"><ele>914.0</ele><time>2026-04-30T10:49:25.766Z</time></trkpt><trkpt lat="40.355175" lon="8.8630533"><ele>914.0</ele><time>2026-04-30T10:49:26.824Z</time></trkpt><trkpt lat="40.3553033" lon="8.8629233"><ele>914.0</ele><time>2026-04-30T10:49:27.762Z</time></trkpt><trkpt lat="40.3554183" lon="8.8627767"><ele>914.0</ele><time>2026-04-30T10:49:28.767Z</time></trkpt><trkpt lat="40.35553" lon="8.862615"><ele>914.0</ele><time>2026-04-30T10:49:29.764Z</time></trkpt><trkpt lat="40.3556417" lon="8.86244"><ele>911.3333333333334</ele><time>2026-04-30T10:49:30.764Z</time></trkpt><trkpt lat="40.35575" lon="8.8622583"><ele>908.6666666666667</ele><time>2026-04-30T10:49:31.765Z</time></trkpt><trkpt lat="40.3558567" lon="8.8620617"><ele>906.0</ele><time>2026-04-30T10:49:32.805Z</time></trkpt><trkpt lat="40.3559683" lon="8.8618633"><ele>903.0</ele><time>2026-04-30T10:49:33.766Z</time></trkpt><trkpt lat="40.3560783" lon="8.8616683"><ele>900.0</ele><time>2026-04-30T10:49:34.767Z</time></trkpt><trkpt lat="40.3561883" lon="8.8614767"><ele>897.0</ele><time>2026-04-30T10:49:35.765Z</time></trkpt><trkpt lat="40.3562967" lon="8.8612783"><ele>897.3333333333333</ele><time>2026-04-30T10:49:36.763Z</time></trkpt><trkpt lat="40.35641" lon="8.8610783"><ele>897.6666666666666</ele><time>2026-04-30T10:49:37.763Z</time></trkpt><trkpt lat="40.3565267" lon="8.860875"><ele>898.0</ele><time>2026-04-30T10:49:38.79Z</time></trkpt><trkpt lat="40.3566467" lon="8.8606717"><ele>896.0</ele><time>2026-04-30T10:49:39.767Z</time></trkpt><trkpt lat="40.3567667" lon="8.8604667"><ele>894.0</ele><time>2026-04-30T10:49:40.766Z</time></trkpt><trkpt lat="40.356885" lon="8.8602667"><ele>892.0</ele><time>2026-04-30T10:49:41.768Z</time></trkpt><trkpt lat="40.3570017" lon="8.8600733"><ele>890.6666666666666</ele><time>2026-04-30T10:49:42.765Z</time></trkpt><trkpt lat="40.357115" lon="8.8598867"><ele>889.3333333333333</ele><time>2026-04-30T10:49:43.767Z</time></trkpt><trkpt lat="40.3572267" lon="8.8597033"><ele>888.0</ele><time>2026-04-30T10:49:44.787Z</time></trkpt><trkpt lat="40.3573367" lon="8.859525"><ele>888.0</ele><time>2026-04-30T10:49:45.765Z</time></trkpt><trkpt lat="40.3574417" lon="8.8593517"><ele>888.0</ele><time>2026-04-30T10:49:46.766Z</time></trkpt><trkpt lat="40.3575317" lon="8.85918"><ele>888.0</ele><time>2026-04-30T10:49:47.766Z</time></trkpt><trkpt lat="40.3576117" lon="8.859005"><ele>886.3333333333333</ele><time>2026-04-30T10:49:48.766Z</time></trkpt><trkpt lat="40.3576833" lon="8.85882"><ele>884.6666666666666</ele><time>2026-04-30T10:49:49.762Z</time></trkpt><trkpt lat="40.3577433" lon="8.85862"><ele>883.0</ele><time>2026-04-30T10:49:50.789Z</time></trkpt><trkpt lat="40.3577967" lon="8.8584067"><ele>881.0</ele><time>2026-04-30T10:49:51.765Z</time></trkpt><trkpt lat="40.357845" lon="8.85818"><ele>879.0</ele><time>2026-04-30T10:49:52.766Z</time></trkpt><trkpt lat="40.3578917" lon="8.857945"><ele>877.0</ele><time>2026-04-30T10:49:53.768Z</time></trkpt><trkpt lat="40.3579383" lon="8.857705"><ele>875.6666666666666</ele><time>2026-04-30T10:49:54.765Z</time></trkpt><trkpt lat="40.3579883" lon="8.8574617"><ele>874.3333333333333</ele><time>2026-04-30T10:49:55.765Z</time></trkpt><trkpt lat="40.3580383" lon="8.85722"><ele>873.0</ele><time>2026-04-30T10:49:56.825Z</time></trkpt><trkpt lat="40.35809" lon="8.8569817"><ele>869.6666666666667</ele><time>2026-04-30T10:49:57.762Z</time></trkpt><trkpt lat="40.3581383" lon="8.8567517"><ele>866.3333333333334</ele><time>2026-04-30T10:49:58.768Z</time></trkpt><trkpt lat="40.358185" lon="8.856525"><ele>863.0</ele><time>2026-04-30T10:49:59.766Z</time></trkpt><trkpt lat="40.3582333" lon="8.8563017"><ele>863.0</ele><time>2026-04-30T10:50:00.766Z</time></trkpt><trkpt lat="40.3582783" lon="8.8560817"><ele>863.0</ele><time>2026-04-30T10:50:01.765Z</time></trkpt><trkpt lat="40.358325" lon="8.8558617"><ele>863.0</ele><time>2026-04-30T10:50:02.808Z</time></trkpt><trkpt lat="40.3583717" lon="8.8556433"><ele>862.0</ele><time>2026-04-30T10:50:03.763Z</time></trkpt><trkpt lat="40.3584217" lon="8.8554233"><ele>861.0</ele><time>2026-04-30T10:50:04.765Z</time></trkpt><trkpt lat="40.3584717" lon="8.8552033"><ele>860.0</ele><time>2026-04-30T10:50:05.767Z</time></trkpt><trkpt lat="40.3585217" lon="8.8549867"><ele>857.3333333333334</ele><time>2026-04-30T10:50:06.762Z</time></trkpt><trkpt lat="40.35857" lon="8.85477"><ele>854.6666666666667</ele><time>2026-04-30T10:50:07.767Z</time></trkpt><trkpt lat="40.3585883" lon="8.854565"><ele>852.0</ele><time>2026-04-30T10:50:08.798Z</time></trkpt><trkpt lat="40.3586367" lon="8.85434"><ele>850.0</ele><time>2026-04-30T10:50:09.767Z</time></trkpt><trkpt lat="40.35868" lon="8.8541117"><ele>848.0</ele><time>2026-04-30T10:50:10.767Z</time></trkpt><trkpt lat="40.3587217" lon="8.8538883"><ele>846.0</ele><time>2026-04-30T10:50:11.769Z</time></trkpt><trkpt lat="40.358765" lon="8.8536683"><ele>843.6666666666667</ele><time>2026-04-30T10:50:12.766Z</time></trkpt><trkpt lat="40.3588" lon="8.853445"><ele>841.3333333333334</ele><time>2026-04-30T10:50:13.768Z</time></trkpt><trkpt lat="40.3588283" lon="8.8532367"><ele>839.0</ele><time>2026-04-30T10:50:14.796Z</time></trkpt><trkpt lat="40.3588883" lon="8.8530317"><ele>837.75</ele><time>2026-04-30T10:50:15.763Z</time></trkpt><trkpt lat="40.3589733" lon="8.8528533"><ele>836.5</ele><time>2026-04-30T10:50:16.767Z</time></trkpt><trkpt lat="40.35904" lon="8.8526733"><ele>835.25</ele><time>2026-04-30T10:50:17.767Z</time></trkpt><trkpt lat="40.3591217" lon="8.852535"><ele>834.0</ele><time>2026-04-30T10:50:18.768Z</time></trkpt><trkpt lat="40.3591833" lon="8.8523783"><ele>833.75</ele><time>2026-04-30T10:50:19.767Z</time></trkpt><trkpt lat="40.3592533" lon="8.8522517"><ele>833.5</ele><time>2026-04-30T10:50:20.796Z</time></trkpt><trkpt lat="40.3593383" lon="8.8521367"><ele>833.25</ele><time>2026-04-30T10:50:21.767Z</time></trkpt><trkpt lat="40.3594533" lon="8.8520383"><ele>833.0</ele><time>2026-04-30T10:50:22.765Z</time></trkpt><trkpt lat="40.3595783" lon="8.85196"><ele>831.0</ele><time>2026-04-30T10:50:23.767Z</time></trkpt><trkpt lat="40.35971" lon="8.8518933"><ele>829.0</ele><time>2026-04-30T10:50:24.766Z</time></trkpt><trkpt lat="40.3598483" lon="8.85184"><ele>827.0</ele><time>2026-04-30T10:50:25.765Z</time></trkpt><trkpt lat="40.359995" lon="8.8518017"><ele>825.0</ele><time>2026-04-30T10:50:26.826Z</time></trkpt><trkpt lat="40.36015" lon="8.8517783"><ele>825.0</ele><time>2026-04-30T10:50:27.763Z</time></trkpt><trkpt lat="40.3603" lon="8.8517667"><ele>825.0</ele><time>2026-04-30T10:50:28.767Z</time></trkpt><trkpt lat="40.3604567" lon="8.85177"><ele>825.0</ele><time>2026-04-30T10:50:29.765Z</time></trkpt><trkpt lat="40.3606083" lon="8.8517883"><ele>823.25</ele><time>2026-04-30T10:50:30.764Z</time></trkpt><trkpt lat="40.3607567" lon="8.851825"><ele>821.5</ele><time>2026-04-30T10:50:31.769Z</time></trkpt><trkpt lat="40.360905" lon="8.85188"><ele>819.75</ele><time>2026-04-30T10:50:32.814Z</time></trkpt><trkpt lat="40.3610367" lon="8.85195"><ele>818.0</ele><time>2026-04-30T10:50:33.763Z</time></trkpt><trkpt lat="40.361165" lon="8.8520233"><ele>818.0</ele><time>2026-04-30T10:50:34.769Z</time></trkpt><trkpt lat="40.3612783" lon="8.8520683"><ele>818.0</ele><time>2026-04-30T10:50:35.763Z</time></trkpt><trkpt lat="40.3613883" lon="8.8520917"><ele>818.0</ele><time>2026-04-30T10:50:36.766Z</time></trkpt><trkpt lat="40.3614867" lon="8.8520533"><ele>818.0</ele><time>2026-04-30T10:50:37.763Z</time></trkpt><trkpt lat="40.36158" lon="8.8519583"><ele>817.25</ele><time>2026-04-30T10:50:38.795Z</time></trkpt><trkpt lat="40.361675" lon="8.8518217"><ele>816.5</ele><time>2026-04-30T10:50:39.765Z</time></trkpt><trkpt lat="40.3617717" lon="8.8516667"><ele>815.75</ele><time>2026-04-30T10:50:40.765Z</time></trkpt><trkpt lat="40.3618667" lon="8.8515067"><ele>815.0</ele><time>2026-04-30T10:50:41.769Z</time></trkpt><trkpt lat="40.3619633" lon="8.8513517"><ele>814.0</ele><time>2026-04-30T10:50:42.763Z</time></trkpt><trkpt lat="40.3620567" lon="8.8512017"><ele>813.0</ele><time>2026-04-30T10:50:43.766Z</time></trkpt><trkpt lat="40.3621483" lon="8.851055"><ele>812.0</ele><time>2026-04-30T10:50:44.792Z</time></trkpt><trkpt lat="40.3622333" lon="8.8509133"><ele>811.0</ele><time>2026-04-30T10:50:45.762Z</time></trkpt><trkpt lat="40.3623133" lon="8.8507733"><ele>809.0</ele><time>2026-04-30T10:50:46.765Z</time></trkpt><trkpt lat="40.3623867" lon="8.8506367"><ele>807.0</ele><time>2026-04-30T10:50:47.764Z</time></trkpt><trkpt lat="40.362455" lon="8.8505017"><ele>805.0</ele><time>2026-04-30T10:50:48.766Z</time></trkpt><trkpt lat="40.362515" lon="8.850365"><ele>803.0</ele><time>2026-04-30T10:50:49.764Z</time></trkpt><trkpt lat="40.362565" lon="8.8502217"><ele>802.4</ele><time>2026-04-30T10:50:50.79Z</time></trkpt><trkpt lat="40.36261" lon="8.85008"><ele>801.8</ele><time>2026-04-30T10:50:51.763Z</time></trkpt><trkpt lat="40.3626483" lon="8.84994"><ele>801.2</ele><time>2026-04-30T10:50:52.767Z</time></trkpt><trkpt lat="40.362685" lon="8.8498033"><ele>800.6</ele><time>2026-04-30T10:50:53.764Z</time></trkpt><trkpt lat="40.3627167" lon="8.8496683"><ele>800.0</ele><time>2026-04-30T10:50:54.764Z</time></trkpt><trkpt lat="40.3627467" lon="8.8495383"><ele>800.0</ele><time>2026-04-30T10:50:55.766Z</time></trkpt><trkpt lat="40.362775" lon="8.8494117"><ele>800.0</ele><time>2026-04-30T10:50:56.822Z</time></trkpt><trkpt lat="40.3628033" lon="8.849295"><ele>800.0</ele><time>2026-04-30T10:50:57.765Z</time></trkpt><trkpt lat="40.3628283" lon="8.8491917"><ele>800.0</ele><time>2026-04-30T10:50:58.764Z</time></trkpt><trkpt lat="40.3628483" lon="8.8491"><ele>800.0</ele><time>2026-04-30T10:50:59.762Z</time></trkpt><trkpt lat="40.3628783" lon="8.8489517"><ele>799.2</ele><time>2026-04-30T10:51:01.763Z</time></trkpt><trkpt lat="40.362905" lon="8.8488283"><ele>798.4</ele><time>2026-04-30T10:51:03.768Z</time></trkpt><trkpt lat="40.3629333" lon="8.8487167"><ele>797.5999999999999</ele><time>2026-04-30T10:51:05.768Z</time></trkpt><trkpt lat="40.362965" lon="8.8485967"><ele>796.8</ele><time>2026-04-30T10:51:07.767Z</time></trkpt><trkpt lat="40.3629917" lon="8.848465"><ele>796.0</ele><time>2026-04-30T10:51:09.764Z</time></trkpt><trkpt lat="40.363025" lon="8.8483283"><ele>793.75</ele><time>2026-04-30T10:51:11.762Z</time></trkpt><trkpt lat="40.3630617" lon="8.84818"><ele>791.5</ele><time>2026-04-30T10:51:13.768Z</time></trkpt><trkpt lat="40.3631017" lon="8.84802"><ele>789.25</ele><time>2026-04-30T10:51:15.765Z</time></trkpt><trkpt lat="40.3631367" lon="8.84787"><ele>787.0</ele><time>2026-04-30T10:51:17.765Z</time></trkpt><trkpt lat="40.363175" lon="8.8477267"><ele>786.0</ele><time>2026-04-30T10:51:19.765Z</time></trkpt><trkpt lat="40.3632133" lon="8.84758"><ele>785.0</ele><time>2026-04-30T10:51:21.765Z</time></trkpt><trkpt lat="40.36326" lon="8.8474333"><ele>784.0</ele><time>2026-04-30T10:51:23.764Z</time></trkpt><trkpt lat="40.3633083" lon="8.84729"><ele>783.0</ele><time>2026-04-30T10:51:25.765Z</time></trkpt><trkpt lat="40.3633317" lon="8.847205"><ele>782.0</ele><time>2026-04-30T10:51:26.822Z</time></trkpt><trkpt lat="40.3633583" lon="8.847115"><ele>782.0000000000001</ele><time>2026-04-30T10:51:27.763Z</time></trkpt><trkpt lat="40.3633867" lon="8.8470167"><ele>782.0</ele><time>2026-04-30T10:51:28.763Z</time></trkpt><trkpt lat="40.3634133" lon="8.8469117"><ele>782.0</ele><time>2026-04-30T10:51:29.768Z</time></trkpt><trkpt lat="40.36344" lon="8.846805"><ele>782.0</ele><time>2026-04-30T10:51:30.766Z</time></trkpt><trkpt lat="40.36347" lon="8.8467"><ele>782.0000000000001</ele><time>2026-04-30T10:51:31.769Z</time></trkpt><trkpt lat="40.3635017" lon="8.84659"><ele>782.0</ele><time>2026-04-30T10:51:32.804Z</time></trkpt><trkpt lat="40.363535" lon="8.8464783"><ele>780.8</ele><time>2026-04-30T10:51:33.762Z</time></trkpt><trkpt lat="40.3635683" lon="8.8463667"><ele>779.6</ele><time>2026-04-30T10:51:34.77Z</time></trkpt><trkpt lat="40.3636" lon="8.8462517"><ele>778.4</ele><time>2026-04-30T10:51:35.768Z</time></trkpt><trkpt lat="40.36363" lon="8.8461367"><ele>777.1999999999999</ele><time>2026-04-30T10:51:36.764Z</time></trkpt><trkpt lat="40.3636617" lon="8.84602"><ele>776.0</ele><time>2026-04-30T10:51:37.768Z</time></trkpt><trkpt lat="40.3636917" lon="8.8458967"><ele>775.1999999999999</ele><time>2026-04-30T10:51:38.793Z</time></trkpt><trkpt lat="40.3637267" lon="8.8457717"><ele>774.4</ele><time>2026-04-30T10:51:39.766Z</time></trkpt><trkpt lat="40.3637633" lon="8.8456433"><ele>773.6</ele><time>2026-04-30T10:51:40.767Z</time></trkpt><trkpt lat="40.3638017" lon="8.8455183"><ele>772.8</ele><time>2026-04-30T10:51:41.766Z</time></trkpt><trkpt lat="40.3638383" lon="8.8453917"><ele>772.0</ele><time>2026-04-30T10:51:42.766Z</time></trkpt><trkpt lat="40.3638733" lon="8.845265"><ele>772.0</ele><time>2026-04-30T10:51:43.767Z</time></trkpt><trkpt lat="40.3639117" lon="8.8451417"><ele>772.0</ele><time>2026-04-30T10:51:44.798Z</time></trkpt><trkpt lat="40.36395" lon="8.845015"><ele>772.0</ele><time>2026-04-30T10:51:45.77Z</time></trkpt><trkpt lat="40.36399" lon="8.84489"><ele>772.0</ele><time>2026-04-30T10:51:46.768Z</time></trkpt><trkpt lat="40.36403" lon="8.8447667"><ele>772.0</ele><time>2026-04-30T10:51:47.767Z</time></trkpt><trkpt lat="40.3640683" lon="8.8446483"><ele>771.4999999999999</ele><time>2026-04-30T10:51:48.764Z</time></trkpt><trkpt lat="40.364105" lon="8.844535"><ele>771.0</ele><time>2026-04-30T10:51:49.769Z</time></trkpt><trkpt lat="40.3641383" lon="8.8444233"><ele>770.5</ele><time>2026-04-30T10:51:50.795Z</time></trkpt><trkpt lat="40.3641667" lon="8.8443167"><ele>770.0</ele><time>2026-04-30T10:51:51.763Z</time></trkpt><trkpt lat="40.364195" lon="8.844215"><ele>769.4999999999999</ele><time>2026-04-30T10:51:52.767Z</time></trkpt><trkpt lat="40.3642233" lon="8.8441267"><ele>769.0</ele><time>2026-04-30T10:51:53.766Z</time></trkpt><trkpt lat="40.36425" lon="8.8440467"><ele>768.8000000000001</ele><time>2026-04-30T10:51:54.767Z</time></trkpt><trkpt lat="40.3642933" lon="8.8439"><ele>768.6</ele><time>2026-04-30T10:51:56.821Z</time></trkpt><trkpt lat="40.3643283" lon="8.8437717"><ele>768.4</ele><time>2026-04-30T10:51:58.761Z</time></trkpt><trkpt lat="40.364355" lon="8.8436533"><ele>768.2</ele><time>2026-04-30T10:52:00.762Z</time></trkpt><trkpt lat="40.3643817" lon="8.8435467"><ele>768.0</ele><time>2026-04-30T10:52:02.821Z</time></trkpt><trkpt lat="40.364425" lon="8.8434383"><ele>767.5999999999999</ele><time>2026-04-30T10:52:04.764Z</time></trkpt><trkpt lat="40.3644733" lon="8.8433033"><ele>767.1999999999999</ele><time>2026-04-30T10:52:06.764Z</time></trkpt><trkpt lat="40.3645017" lon="8.8431633"><ele>766.8</ele><time>2026-04-30T10:52:08.792Z</time></trkpt><trkpt lat="40.3645067" lon="8.843075"><ele>766.4</ele><time>2026-04-30T10:52:10.762Z</time></trkpt><trkpt lat="40.3644483" lon="8.8430033"><ele>766.0</ele><time>2026-04-30T10:52:13.762Z</time></trkpt><trkpt lat="40.3643467" lon="8.8429417"><ele>766.0</ele><time>2026-04-30T10:52:15.762Z</time></trkpt><trkpt lat="40.364275" lon="8.8428917"><ele>766.0</ele><time>2026-04-30T10:52:16.764Z</time></trkpt><trkpt lat="40.3642" lon="8.8428367"><ele>766.0</ele><time>2026-04-30T10:52:17.762Z</time></trkpt><trkpt lat="40.36411" lon="8.8427667"><ele>766.0</ele><time>2026-04-30T10:52:18.764Z</time></trkpt><trkpt lat="40.3640333" lon="8.8426867"><ele>766.0</ele><time>2026-04-30T10:52:19.764Z</time></trkpt><trkpt lat="40.3639533" lon="8.8425867"><ele>765.25</ele><time>2026-04-30T10:52:20.797Z</time></trkpt><trkpt lat="40.3638733" lon="8.8424583"><ele>764.5</ele><time>2026-04-30T10:52:21.765Z</time></trkpt><trkpt lat="40.3638" lon="8.842305"><ele>763.75</ele><time>2026-04-30T10:52:22.766Z</time></trkpt><trkpt lat="40.363735" lon="8.842145"><ele>763.0</ele><time>2026-04-30T10:52:23.766Z</time></trkpt><trkpt lat="40.3636733" lon="8.8419817"><ele>761.75</ele><time>2026-04-30T10:52:24.768Z</time></trkpt><trkpt lat="40.3636167" lon="8.8418167"><ele>760.5</ele><time>2026-04-30T10:52:25.762Z</time></trkpt><trkpt lat="40.3635717" lon="8.8416433"><ele>759.25</ele><time>2026-04-30T10:52:26.821Z</time></trkpt><trkpt lat="40.3635367" lon="8.841465"><ele>758.0</ele><time>2026-04-30T10:52:27.766Z</time></trkpt><trkpt lat="40.3635117" lon="8.8412867"><ele>757.5</ele><time>2026-04-30T10:52:28.762Z</time></trkpt><trkpt lat="40.36349" lon="8.8411167"><ele>757.0</ele><time>2026-04-30T10:52:29.763Z</time></trkpt><trkpt lat="40.363475" lon="8.84095"><ele>756.5</ele><time>2026-04-30T10:52:30.767Z</time></trkpt><trkpt lat="40.3634583" lon="8.8407817"><ele>756.0</ele><time>2026-04-30T10:52:31.767Z</time></trkpt><trkpt lat="40.36345" lon="8.8406083"><ele>755.75</ele><time>2026-04-30T10:52:32.807Z</time></trkpt><trkpt lat="40.3634467" lon="8.8404267"><ele>755.5</ele><time>2026-04-30T10:52:33.761Z</time></trkpt><trkpt lat="40.3634467" lon="8.840245"><ele>755.25</ele><time>2026-04-30T10:52:34.764Z</time></trkpt><trkpt lat="40.363455" lon="8.8400733"><ele>755.0</ele><time>2026-04-30T10:52:35.767Z</time></trkpt><trkpt lat="40.3634683" lon="8.839905"><ele>754.2</ele><time>2026-04-30T10:52:36.764Z</time></trkpt><trkpt lat="40.363475" lon="8.8397433"><ele>753.4</ele><time>2026-04-30T10:52:37.763Z</time></trkpt><trkpt lat="40.3634767" lon="8.8395933"><ele>752.5999999999999</ele><time>2026-04-30T10:52:38.797Z</time></trkpt><trkpt lat="40.36347" lon="8.8394633"><ele>751.8</ele><time>2026-04-30T10:52:39.767Z</time></trkpt><trkpt lat="40.363455" lon="8.83935"><ele>751.0</ele><time>2026-04-30T10:52:40.767Z</time></trkpt><trkpt lat="40.3634267" lon="8.839255"><ele>750.1666666666667</ele><time>2026-04-30T10:52:41.763Z</time></trkpt><trkpt lat="40.3633883" lon="8.8391767"><ele>749.3333333333334</ele><time>2026-04-30T10:52:42.767Z</time></trkpt><trkpt lat="40.36333" lon="8.839135"><ele>748.5</ele><time>2026-04-30T10:52:43.761Z</time></trkpt><trkpt lat="40.3632383" lon="8.8391867"><ele>747.6666666666666</ele><time>2026-04-30T10:52:44.792Z</time></trkpt><trkpt lat="40.3631667" lon="8.83922"><ele>746.8333333333333</ele><time>2026-04-30T10:52:45.77Z</time></trkpt><trkpt lat="40.363095" lon="8.8392667"><ele>746.0</ele><time>2026-04-30T10:52:46.763Z</time></trkpt><trkpt lat="40.36302" lon="8.8393583"><ele>743.0</ele><time>2026-04-30T10:52:47.764Z</time></trkpt><trkpt lat="40.3629417" lon="8.83947"><ele>740.0</ele><time>2026-04-30T10:52:48.764Z</time></trkpt><trkpt lat="40.36286" lon="8.8396033"><ele>737.0</ele><time>2026-04-30T10:52:49.763Z</time></trkpt><trkpt lat="40.362775" lon="8.8397433"><ele>734.0</ele><time>2026-04-30T10:52:50.796Z</time></trkpt><trkpt lat="40.3626833" lon="8.83988"><ele>734.0</ele><time>2026-04-30T10:52:51.763Z</time></trkpt><trkpt lat="40.36259" lon="8.8400183"><ele>734.0</ele><time>2026-04-30T10:52:52.764Z</time></trkpt><trkpt lat="40.3624983" lon="8.8401617"><ele>734.0</ele><time>2026-04-30T10:52:53.762Z</time></trkpt><trkpt lat="40.3624083" lon="8.8402967"><ele>734.0</ele><time>2026-04-30T10:52:54.767Z</time></trkpt><trkpt lat="40.3623217" lon="8.8404283"><ele>734.8000000000001</ele><time>2026-04-30T10:52:55.766Z</time></trkpt><trkpt lat="40.3622417" lon="8.84055"><ele>735.6</ele><time>2026-04-30T10:52:56.806Z</time></trkpt><trkpt lat="40.3621667" lon="8.8406633"><ele>736.4</ele><time>2026-04-30T10:52:57.764Z</time></trkpt><trkpt lat="40.3620933" lon="8.8407617"><ele>737.2</ele><time>2026-04-30T10:52:58.765Z</time></trkpt><trkpt lat="40.362015" lon="8.8408483"><ele>738.0</ele><time>2026-04-30T10:52:59.764Z</time></trkpt><trkpt lat="40.3619283" lon="8.840855"><ele>734.75</ele><time>2026-04-30T10:53:00.765Z</time></trkpt><trkpt lat="40.3618417" lon="8.8408667"><ele>731.5</ele><time>2026-04-30T10:53:01.762Z</time></trkpt><trkpt lat="40.3617383" lon="8.8408417"><ele>728.25</ele><time>2026-04-30T10:53:02.765Z</time></trkpt><trkpt lat="40.3616133" lon="8.8407583"><ele>725.0</ele><time>2026-04-30T10:53:03.763Z</time></trkpt><trkpt lat="40.361485" lon="8.8406567"><ele>726.0</ele><time>2026-04-30T10:53:04.766Z</time></trkpt><trkpt lat="40.3613533" lon="8.8405517"><ele>727.0</ele><time>2026-04-30T10:53:05.761Z</time></trkpt><trkpt lat="40.361235" lon="8.8404583"><ele>728.0</ele><time>2026-04-30T10:53:06.763Z</time></trkpt><trkpt lat="40.361125" lon="8.8403733"><ele>729.0</ele><time>2026-04-30T10:53:07.766Z</time></trkpt><trkpt lat="40.361025" lon="8.8402933"><ele>729.0</ele><time>2026-04-30T10:53:08.792Z</time></trkpt><trkpt lat="40.3609367" lon="8.84021"><ele>729.0</ele><time>2026-04-30T10:53:09.766Z</time></trkpt><trkpt lat="40.36086" lon="8.8401233"><ele>729.0</ele><time>2026-04-30T10:53:10.764Z</time></trkpt><trkpt lat="40.3608017" lon="8.8400183"><ele>729.0</ele><time>2026-04-30T10:53:11.765Z</time></trkpt><trkpt lat="40.3607667" lon="8.8398917"><ele>729.0</ele><time>2026-04-30T10:53:12.763Z</time></trkpt><trkpt lat="40.3607617" lon="8.83973"><ele>730.0</ele><time>2026-04-30T10:53:13.765Z</time></trkpt><trkpt lat="40.360785" lon="8.8395383"><ele>731.0</ele><time>2026-04-30T10:53:14.795Z</time></trkpt><trkpt lat="40.3608083" lon="8.8393383"><ele>732.0</ele><time>2026-04-30T10:53:15.768Z</time></trkpt><trkpt lat="40.3608333" lon="8.83913"><ele>732.6666666666666</ele><time>2026-04-30T10:53:16.764Z</time></trkpt><trkpt lat="40.3608483" lon="8.838925"><ele>733.3333333333333</ele><time>2026-04-30T10:53:17.764Z</time></trkpt><trkpt lat="40.3608467" lon="8.8387267"><ele>734.0</ele><time>2026-04-30T10:53:18.762Z</time></trkpt><trkpt lat="40.3608167" lon="8.8385367"><ele>733.6666666666666</ele><time>2026-04-30T10:53:19.765Z</time></trkpt><trkpt lat="40.3607667" lon="8.83834"><ele>733.3333333333334</ele><time>2026-04-30T10:53:20.797Z</time></trkpt><trkpt lat="40.360715" lon="8.838105"><ele>733.0</ele><time>2026-04-30T10:53:21.761Z</time></trkpt><trkpt lat="40.3606617" lon="8.837885"><ele>733.0</ele><time>2026-04-30T10:53:22.762Z</time></trkpt><trkpt lat="40.3605733" lon="8.837675"><ele>733.0</ele><time>2026-04-30T10:53:23.765Z</time></trkpt><trkpt lat="40.3605067" lon="8.83749"><ele>733.0</ele><time>2026-04-30T10:53:24.762Z</time></trkpt><trkpt lat="40.3604333" lon="8.8373483"><ele>737.6666666666667</ele><time>2026-04-30T10:53:25.765Z</time></trkpt><trkpt lat="40.3603633" lon="8.8371983"><ele>742.3333333333334</ele><time>2026-04-30T10:53:26.779Z</time></trkpt><trkpt lat="40.3602533" lon="8.8370517"><ele>747.0</ele><time>2026-04-30T10:53:27.761Z</time></trkpt><trkpt lat="40.3601233" lon="8.83692"><ele>747.0</ele><time>2026-04-30T10:53:28.763Z</time></trkpt><trkpt lat="40.359995" lon="8.8368067"><ele>747.0</ele><time>2026-04-30T10:53:29.76Z</time></trkpt><trkpt lat="40.359875" lon="8.8366533"><ele>747.0</ele><time>2026-04-30T10:53:30.763Z</time></trkpt><trkpt lat="40.3597483" lon="8.8365033"><ele>751.0</ele><time>2026-04-30T10:53:31.765Z</time></trkpt><trkpt lat="40.35962" lon="8.8363617"><ele>755.0</ele><time>2026-04-30T10:53:32.782Z</time></trkpt><trkpt lat="40.359495" lon="8.8362333"><ele>759.0</ele><time>2026-04-30T10:53:33.766Z</time></trkpt><trkpt lat="40.35939" lon="8.8360983"><ele>757.5</ele><time>2026-04-30T10:53:34.766Z</time></trkpt><trkpt lat="40.3592917" lon="8.83596"><ele>756.0</ele><time>2026-04-30T10:53:35.762Z</time></trkpt><trkpt lat="40.3591833" lon="8.8358067"><ele>754.5</ele><time>2026-04-30T10:53:36.768Z</time></trkpt><trkpt lat="40.3590917" lon="8.8356667"><ele>753.0</ele><time>2026-04-30T10:53:37.762Z</time></trkpt><trkpt lat="40.3590233" lon="8.835495"><ele>753.0</ele><time>2026-04-30T10:53:38.795Z</time></trkpt><trkpt lat="40.3589467" lon="8.835335"><ele>753.0</ele><time>2026-04-30T10:53:39.763Z</time></trkpt><trkpt lat="40.358885" lon="8.8351733"><ele>753.0</ele><time>2026-04-30T10:53:40.763Z</time></trkpt><trkpt lat="40.3588" lon="8.8350383"><ele>753.0</ele><time>2026-04-30T10:53:41.765Z</time></trkpt><trkpt lat="40.358705" lon="8.834905"><ele>754.25</ele><time>2026-04-30T10:53:42.762Z</time></trkpt><trkpt lat="40.35861" lon="8.83478"><ele>755.5</ele><time>2026-04-30T10:53:43.763Z</time></trkpt><trkpt lat="40.35849" lon="8.8346617"><ele>756.75</ele><time>2026-04-30T10:53:44.795Z</time></trkpt><trkpt lat="40.3583533" lon="8.8345517"><ele>758.0</ele><time>2026-04-30T10:53:45.763Z</time></trkpt><trkpt lat="40.3581983" lon="8.8344517"><ele>758.0</ele><time>2026-04-30T10:53:46.765Z</time></trkpt><trkpt lat="40.3580533" lon="8.83435"><ele>758.0</ele><time>2026-04-30T10:53:47.766Z</time></trkpt><trkpt lat="40.3578967" lon="8.8342533"><ele>758.0</ele><time>2026-04-30T10:53:48.764Z</time></trkpt><trkpt lat="40.35774" lon="8.8341367"><ele>757.0</ele><time>2026-04-30T10:53:49.764Z</time></trkpt><trkpt lat="40.3575917" lon="8.834025"><ele>756.0</ele><time>2026-04-30T10:53:50.798Z</time></trkpt><trkpt lat="40.357455" lon="8.8339217"><ele>755.0</ele><time>2026-04-30T10:53:51.767Z</time></trkpt><trkpt lat="40.3573317" lon="8.83381"><ele>755.0</ele><time>2026-04-30T10:53:52.767Z</time></trkpt><trkpt lat="40.3572067" lon="8.833685"><ele>755.0</ele><time>2026-04-30T10:53:53.764Z</time></trkpt><trkpt lat="40.3570983" lon="8.8335483"><ele>755.0</ele><time>2026-04-30T10:53:54.764Z</time></trkpt><trkpt lat="40.356985" lon="8.833405"><ele>754.5</ele><time>2026-04-30T10:53:55.766Z</time></trkpt><trkpt lat="40.3568767" lon="8.8332617"><ele>754.0</ele><time>2026-04-30T10:53:56.783Z</time></trkpt><trkpt lat="40.3567867" lon="8.833105"><ele>753.5</ele><time>2026-04-30T10:53:57.759Z</time></trkpt><trkpt lat="40.35671" lon="8.8329683"><ele>753.0</ele><time>2026-04-30T10:53:58.766Z</time></trkpt><trkpt lat="40.356605" lon="8.832855"><ele>753.0</ele><time>2026-04-30T10:53:59.762Z</time></trkpt><trkpt lat="40.3565083" lon="8.832775"><ele>753.0</ele><time>2026-04-30T10:54:00.764Z</time></trkpt><trkpt lat="40.356395" lon="8.8327067"><ele>753.0</ele><time>2026-04-30T10:54:01.765Z</time></trkpt><trkpt lat="40.356275" lon="8.832655"><ele>753.0</ele><time>2026-04-30T10:54:02.804Z</time></trkpt><trkpt lat="40.3561333" lon="8.8326017"><ele>752.3333333333334</ele><time>2026-04-30T10:54:03.767Z</time></trkpt><trkpt lat="40.3559717" lon="8.832555"><ele>751.6666666666667</ele><time>2026-04-30T10:54:04.762Z</time></trkpt><trkpt lat="40.3558183" lon="8.83251"><ele>751.0</ele><time>2026-04-30T10:54:05.765Z</time></trkpt><trkpt lat="40.3556883" lon="8.83245"><ele>751.0</ele><time>2026-04-30T10:54:06.761Z</time></trkpt><trkpt lat="40.3555633" lon="8.8324033"><ele>751.0</ele><time>2026-04-30T10:54:07.765Z</time></trkpt><trkpt lat="40.3554433" lon="8.832365"><ele>751.0</ele><time>2026-04-30T10:54:08.791Z</time></trkpt><trkpt lat="40.3553267" lon="8.83234"><ele>751.0</ele><time>2026-04-30T10:54:09.762Z</time></trkpt><trkpt lat="40.3552" lon="8.8323283"><ele>750.25</ele><time>2026-04-30T10:54:10.765Z</time></trkpt><trkpt lat="40.3550733" lon="8.8323317"><ele>749.5</ele><time>2026-04-30T10:54:11.766Z</time></trkpt><trkpt lat="40.35495" lon="8.8323383"><ele>748.75</ele><time>2026-04-30T10:54:12.765Z</time></trkpt><trkpt lat="40.3548283" lon="8.832345"><ele>748.0</ele><time>2026-04-30T10:54:13.765Z</time></trkpt><trkpt lat="40.3547067" lon="8.832355"><ele>746.5999999999999</ele><time>2026-04-30T10:54:14.791Z</time></trkpt><trkpt lat="40.3546017" lon="8.8323583"><ele>745.1999999999999</ele><time>2026-04-30T10:54:15.766Z</time></trkpt><trkpt lat="40.35451" lon="8.8323683"><ele>743.8</ele><time>2026-04-30T10:54:16.764Z</time></trkpt><trkpt lat="40.3543917" lon="8.8323917"><ele>742.4</ele><time>2026-04-30T10:54:17.761Z</time></trkpt><trkpt lat="40.3542917" lon="8.83243"><ele>741.0</ele><time>2026-04-30T10:54:18.763Z</time></trkpt><trkpt lat="40.3542017" lon="8.8324833"><ele>741.0</ele><time>2026-04-30T10:54:19.765Z</time></trkpt><trkpt lat="40.3541183" lon="8.8325467"><ele>741.0</ele><time>2026-04-30T10:54:20.792Z</time></trkpt><trkpt lat="40.3540317" lon="8.83261"><ele>741.0</ele><time>2026-04-30T10:54:21.762Z</time></trkpt><trkpt lat="40.3539483" lon="8.8326717"><ele>741.0</ele><time>2026-04-30T10:54:22.762Z</time></trkpt><trkpt lat="40.3538733" lon="8.83271"><ele>741.0</ele><time>2026-04-30T10:54:23.765Z</time></trkpt><trkpt lat="40.3537767" lon="8.8327283"><ele>741.5</ele><time>2026-04-30T10:54:24.766Z</time></trkpt><trkpt lat="40.353675" lon="8.832725"><ele>742.0</ele><time>2026-04-30T10:54:25.765Z</time></trkpt><trkpt lat="40.3535533" lon="8.8326817"><ele>742.5</ele><time>2026-04-30T10:54:26.811Z</time></trkpt><trkpt lat="40.3534217" lon="8.8326067"><ele>743.0</ele><time>2026-04-30T10:54:27.765Z</time></trkpt><trkpt lat="40.3532783" lon="8.8325367"><ele>742.6666666666666</ele><time>2026-04-30T10:54:28.765Z</time></trkpt><trkpt lat="40.3531367" lon="8.8324583"><ele>742.3333333333334</ele><time>2026-04-30T10:54:29.766Z</time></trkpt><trkpt lat="40.35299" lon="8.8323833"><ele>742.0</ele><time>2026-04-30T10:54:30.762Z</time></trkpt><trkpt lat="40.3528583" lon="8.8323217"><ele>742.0</ele><time>2026-04-30T10:54:31.766Z</time></trkpt><trkpt lat="40.35269" lon="8.83223"><ele>742.0</ele><time>2026-04-30T10:54:32.811Z</time></trkpt><trkpt lat="40.352535" lon="8.832165"><ele>742.0</ele><time>2026-04-30T10:54:33.766Z</time></trkpt><trkpt lat="40.3523633" lon="8.832075"><ele>744.0</ele><time>2026-04-30T10:54:34.766Z</time></trkpt><trkpt lat="40.3521983" lon="8.8319933"><ele>746.0</ele><time>2026-04-30T10:54:35.76Z</time></trkpt><trkpt lat="40.352035" lon="8.831915"><ele>748.0</ele><time>2026-04-30T10:54:36.767Z</time></trkpt><trkpt lat="40.3519" lon="8.8318483"><ele>746.0</ele><time>2026-04-30T10:54:37.767Z</time></trkpt><trkpt lat="40.3517533" lon="8.83178"><ele>744.0</ele><time>2026-04-30T10:54:38.796Z</time></trkpt><trkpt lat="40.351605" lon="8.8317"><ele>742.0</ele><time>2026-04-30T10:54:39.762Z</time></trkpt><trkpt lat="40.3514517" lon="8.8316117"><ele>743.3333333333334</ele><time>2026-04-30T10:54:40.76Z</time></trkpt><trkpt lat="40.3512967" lon="8.8315267"><ele>744.6666666666666</ele><time>2026-04-30T10:54:41.762Z</time></trkpt><trkpt lat="40.35115" lon="8.83142"><ele>746.0</ele><time>2026-04-30T10:54:42.761Z</time></trkpt><trkpt lat="40.35101" lon="8.8312967"><ele>746.0</ele><time>2026-04-30T10:54:43.764Z</time></trkpt><trkpt lat="40.3508567" lon="8.8312133"><ele>746.0</ele><time>2026-04-30T10:54:44.79Z</time></trkpt><trkpt lat="40.3507083" lon="8.8311267"><ele>746.0</ele><time>2026-04-30T10:54:45.761Z</time></trkpt><trkpt lat="40.3505617" lon="8.8310183"><ele>748.3333333333333</ele><time>2026-04-30T10:54:46.766Z</time></trkpt><trkpt lat="40.3504233" lon="8.8309133"><ele>750.6666666666666</ele><time>2026-04-30T10:54:47.766Z</time></trkpt><trkpt lat="40.3502983" lon="8.830775"><ele>753.0</ele><time>2026-04-30T10:54:48.767Z</time></trkpt><trkpt lat="40.3501683" lon="8.8306417"><ele>753.0</ele><time>2026-04-30T10:54:49.761Z</time></trkpt><trkpt lat="40.3500433" lon="8.830495"><ele>753.0</ele><time>2026-04-30T10:54:50.793Z</time></trkpt><trkpt lat="40.3499133" lon="8.8303533"><ele>753.0</ele><time>2026-04-30T10:54:51.762Z</time></trkpt><trkpt lat="40.3497717" lon="8.8302283"><ele>754.0</ele><time>2026-04-30T10:54:52.763Z</time></trkpt><trkpt lat="40.349625" lon="8.8300983"><ele>755.0</ele><time>2026-04-30T10:54:53.764Z</time></trkpt><trkpt lat="40.3494883" lon="8.8299517"><ele>756.0</ele><time>2026-04-30T10:54:54.765Z</time></trkpt><trkpt lat="40.3493467" lon="8.829815"><ele>756.0</ele><time>2026-04-30T10:54:55.761Z</time></trkpt><trkpt lat="40.34921" lon="8.829675"><ele>756.0</ele><time>2026-04-30T10:54:56.826Z</time></trkpt><trkpt lat="40.349075" lon="8.8295433"><ele>756.0</ele><time>2026-04-30T10:54:57.762Z</time></trkpt><trkpt lat="40.3489367" lon="8.8294"><ele>756.3333333333334</ele><time>2026-04-30T10:54:58.765Z</time></trkpt><trkpt lat="40.3487983" lon="8.8292367"><ele>756.6666666666667</ele><time>2026-04-30T10:54:59.761Z</time></trkpt><trkpt lat="40.3486817" lon="8.8290767"><ele>757.0</ele><time>2026-04-30T10:55:00.766Z</time></trkpt><trkpt lat="40.348575" lon="8.8289067"><ele>757.0</ele><time>2026-04-30T10:55:01.762Z</time></trkpt><trkpt lat="40.3484617" lon="8.8287317"><ele>757.0</ele><time>2026-04-30T10:55:02.812Z</time></trkpt><trkpt lat="40.348345" lon="8.8285633"><ele>757.0</ele><time>2026-04-30T10:55:03.763Z</time></trkpt><trkpt lat="40.3482033" lon="8.8283817"><ele>757.0</ele><time>2026-04-30T10:55:04.763Z</time></trkpt><trkpt lat="40.3480633" lon="8.828205"><ele>757.0</ele><time>2026-04-30T10:55:05.765Z</time></trkpt><trkpt lat="40.3479133" lon="8.8280133"><ele>757.0</ele><time>2026-04-30T10:55:06.766Z</time></trkpt><trkpt lat="40.3477683" lon="8.8278183"><ele>755.6666666666667</ele><time>2026-04-30T10:55:07.768Z</time></trkpt><trkpt lat="40.34762" lon="8.8276333"><ele>754.3333333333334</ele><time>2026-04-30T10:55:08.792Z</time></trkpt><trkpt lat="40.3474733" lon="8.8274483"><ele>753.0</ele><time>2026-04-30T10:55:09.765Z</time></trkpt><trkpt lat="40.3473333" lon="8.82726"><ele>755.6666666666666</ele><time>2026-04-30T10:55:10.763Z</time></trkpt><trkpt lat="40.3472033" lon="8.82708"><ele>758.3333333333333</ele><time>2026-04-30T10:55:11.761Z</time></trkpt><trkpt lat="40.3470817" lon="8.8269017"><ele>761.0</ele><time>2026-04-30T10:55:12.761Z</time></trkpt><trkpt lat="40.346955" lon="8.8267467"><ele>761.25</ele><time>2026-04-30T10:55:13.767Z</time></trkpt><trkpt lat="40.3468467" lon="8.826595"><ele>761.5</ele><time>2026-04-30T10:55:14.789Z</time></trkpt><trkpt lat="40.34674" lon="8.8264633"><ele>761.75</ele><time>2026-04-30T10:55:15.766Z</time></trkpt><trkpt lat="40.3466317" lon="8.8263517"><ele>762.0</ele><time>2026-04-30T10:55:16.765Z</time></trkpt><trkpt lat="40.3465117" lon="8.82626"><ele>762.0</ele><time>2026-04-30T10:55:17.766Z</time></trkpt><trkpt lat="40.3464117" lon="8.8261683"><ele>762.0</ele><time>2026-04-30T10:55:18.763Z</time></trkpt><trkpt lat="40.3463167" lon="8.826085"><ele>762.0</ele><time>2026-04-30T10:55:19.762Z</time></trkpt><trkpt lat="40.3462317" lon="8.8260033"><ele>762.0</ele><time>2026-04-30T10:55:20.796Z</time></trkpt><trkpt lat="40.3461567" lon="8.8258867"><ele>762.75</ele><time>2026-04-30T10:55:21.762Z</time></trkpt><trkpt lat="40.3461067" lon="8.8257583"><ele>763.5</ele><time>2026-04-30T10:55:22.766Z</time></trkpt><trkpt lat="40.3460383" lon="8.825595"><ele>764.25</ele><time>2026-04-30T10:55:23.762Z</time></trkpt><trkpt lat="40.3459533" lon="8.8254267"><ele>765.0</ele><time>2026-04-30T10:55:24.764Z</time></trkpt><trkpt lat="40.3458683" lon="8.825245"><ele>765.0</ele><time>2026-04-30T10:55:25.767Z</time></trkpt><trkpt lat="40.3457933" lon="8.8250867"><ele>765.0</ele><time>2026-04-30T10:55:26.789Z</time></trkpt><trkpt lat="40.3457267" lon="8.8249367"><ele>765.0</ele><time>2026-04-30T10:55:27.762Z</time></trkpt><trkpt lat="40.3456717" lon="8.824795"><ele>765.0</ele><time>2026-04-30T10:55:28.763Z</time></trkpt><trkpt lat="40.3456083" lon="8.82464"><ele>766.3333333333333</ele><time>2026-04-30T10:55:29.763Z</time></trkpt><trkpt lat="40.3455033" lon="8.824495"><ele>767.6666666666666</ele><time>2026-04-30T10:55:30.766Z</time></trkpt><trkpt lat="40.3453933" lon="8.8243483"><ele>769.0</ele><time>2026-04-30T10:55:31.763Z</time></trkpt><trkpt lat="40.3452933" lon="8.8241967"><ele>769.0</ele><time>2026-04-30T10:55:32.79Z</time></trkpt><trkpt lat="40.3452" lon="8.824055"><ele>769.0</ele><time>2026-04-30T10:55:33.76Z</time></trkpt><trkpt lat="40.3451117" lon="8.8239"><ele>769.0</ele><time>2026-04-30T10:55:34.762Z</time></trkpt><trkpt lat="40.3449967" lon="8.8237417"><ele>769.0</ele><time>2026-04-30T10:55:35.76Z</time></trkpt><trkpt lat="40.3448867" lon="8.823575"><ele>769.0</ele><time>2026-04-30T10:55:36.761Z</time></trkpt><trkpt lat="40.3447767" lon="8.823405"><ele>769.0</ele><time>2026-04-30T10:55:37.765Z</time></trkpt><trkpt lat="40.3446633" lon="8.8232367"><ele>769.6666666666666</ele><time>2026-04-30T10:55:38.799Z</time></trkpt><trkpt lat="40.3445583" lon="8.823075"><ele>770.3333333333333</ele><time>2026-04-30T10:55:39.766Z</time></trkpt><trkpt lat="40.34445" lon="8.8229217"><ele>771.0</ele><time>2026-04-30T10:55:40.766Z</time></trkpt><trkpt lat="40.3443367" lon="8.8227767"><ele>771.0</ele><time>2026-04-30T10:55:41.764Z</time></trkpt><trkpt lat="40.3442167" lon="8.82264"><ele>771.0</ele><time>2026-04-30T10:55:42.766Z</time></trkpt><trkpt lat="40.344095" lon="8.8225033"><ele>771.0</ele><time>2026-04-30T10:55:43.759Z</time></trkpt><trkpt lat="40.3439667" lon="8.82237"><ele>773.0</ele><time>2026-04-30T10:55:44.793Z</time></trkpt><trkpt lat="40.3438383" lon="8.8222333"><ele>775.0</ele><time>2026-04-30T10:55:45.764Z</time></trkpt><trkpt lat="40.343705" lon="8.8220933"><ele>777.0</ele><time>2026-04-30T10:55:46.76Z</time></trkpt><trkpt lat="40.34357" lon="8.8219533"><ele>777.0</ele><time>2026-04-30T10:55:47.767Z</time></trkpt><trkpt lat="40.3434383" lon="8.8218183"><ele>777.0</ele><time>2026-04-30T10:55:48.764Z</time></trkpt><trkpt lat="40.3433083" lon="8.82169"><ele>777.0</ele><time>2026-04-30T10:55:49.767Z</time></trkpt><trkpt lat="40.34318" lon="8.8215667"><ele>777.6666666666667</ele><time>2026-04-30T10:55:50.792Z</time></trkpt><trkpt lat="40.3430483" lon="8.82145"><ele>778.3333333333334</ele><time>2026-04-30T10:55:51.762Z</time></trkpt><trkpt lat="40.3429033" lon="8.821345"><ele>779.0</ele><time>2026-04-30T10:55:52.763Z</time></trkpt><trkpt lat="40.3427483" lon="8.82124"><ele>779.0</ele><time>2026-04-30T10:55:53.766Z</time></trkpt><trkpt lat="40.34259" lon="8.8211367"><ele>779.0</ele><time>2026-04-30T10:55:54.766Z</time></trkpt><trkpt lat="40.3424233" lon="8.8210333"><ele>779.0</ele><time>2026-04-30T10:55:55.766Z</time></trkpt><trkpt lat="40.342255" lon="8.8209283"><ele>778.0</ele><time>2026-04-30T10:55:56.788Z</time></trkpt><trkpt lat="40.3420833" lon="8.820825"><ele>777.0</ele><time>2026-04-30T10:55:57.762Z</time></trkpt><trkpt lat="40.3419117" lon="8.8207217"><ele>776.0</ele><time>2026-04-30T10:55:58.764Z</time></trkpt><trkpt lat="40.3417417" lon="8.8206167"><ele>776.0</ele><time>2026-04-30T10:55:59.766Z</time></trkpt><trkpt lat="40.34157" lon="8.820515"><ele>776.0</ele><time>2026-04-30T10:56:00.77Z</time></trkpt><trkpt lat="40.3414017" lon="8.8204133"><ele>776.0</ele><time>2026-04-30T10:56:01.762Z</time></trkpt><trkpt lat="40.341235" lon="8.820315"><ele>777.6666666666667</ele><time>2026-04-30T10:56:02.814Z</time></trkpt><trkpt lat="40.34107" lon="8.82022"><ele>779.3333333333333</ele><time>2026-04-30T10:56:03.762Z</time></trkpt><trkpt lat="40.3409067" lon="8.820125"><ele>781.0</ele><time>2026-04-30T10:56:04.764Z</time></trkpt><trkpt lat="40.34074" lon="8.8200333"><ele>779.3333333333333</ele><time>2026-04-30T10:56:05.763Z</time></trkpt><trkpt lat="40.3405733" lon="8.819945"><ele>777.6666666666667</ele><time>2026-04-30T10:56:06.765Z</time></trkpt><trkpt lat="40.3404067" lon="8.8198583"><ele>776.0</ele><time>2026-04-30T10:56:07.761Z</time></trkpt><trkpt lat="40.3402417" lon="8.8197667"><ele>776.0</ele><time>2026-04-30T10:56:08.791Z</time></trkpt><trkpt lat="40.3400767" lon="8.819675"><ele>776.0</ele><time>2026-04-30T10:56:09.764Z</time></trkpt><trkpt lat="40.3399083" lon="8.8195767"><ele>776.0</ele><time>2026-04-30T10:56:10.767Z</time></trkpt><trkpt lat="40.3397417" lon="8.8194783"><ele>777.0</ele><time>2026-04-30T10:56:11.764Z</time></trkpt><trkpt lat="40.3395733" lon="8.819375"><ele>778.0</ele><time>2026-04-30T10:56:12.763Z</time></trkpt><trkpt lat="40.339415" lon="8.8192683"><ele>779.0</ele><time>2026-04-30T10:56:13.762Z</time></trkpt><trkpt lat="40.3392617" lon="8.8191583"><ele>776.3333333333334</ele><time>2026-04-30T10:56:14.795Z</time></trkpt><trkpt lat="40.3391167" lon="8.819045"><ele>773.6666666666667</ele><time>2026-04-30T10:56:15.765Z</time></trkpt><trkpt lat="40.33898" lon="8.8189333"><ele>771.0</ele><time>2026-04-30T10:56:16.762Z</time></trkpt><trkpt lat="40.3388517" lon="8.8188317"><ele>771.0</ele><time>2026-04-30T10:56:17.761Z</time></trkpt><trkpt lat="40.3387283" lon="8.818735"><ele>771.0</ele><time>2026-04-30T10:56:18.766Z</time></trkpt><trkpt lat="40.3386017" lon="8.8186517"><ele>771.0</ele><time>2026-04-30T10:56:19.761Z</time></trkpt><trkpt lat="40.33847" lon="8.818585"><ele>771.0</ele><time>2026-04-30T10:56:20.799Z</time></trkpt><trkpt lat="40.3383367" lon="8.8185267"><ele>767.6666666666666</ele><time>2026-04-30T10:56:21.768Z</time></trkpt><trkpt lat="40.3381967" lon="8.818475"><ele>764.3333333333333</ele><time>2026-04-30T10:56:22.764Z</time></trkpt><trkpt lat="40.3380467" lon="8.818435"><ele>761.0</ele><time>2026-04-30T10:56:23.765Z</time></trkpt><trkpt lat="40.3378883" lon="8.8183983"><ele>760.3333333333333</ele><time>2026-04-30T10:56:24.763Z</time></trkpt><trkpt lat="40.337725" lon="8.818365"><ele>759.6666666666666</ele><time>2026-04-30T10:56:25.761Z</time></trkpt><trkpt lat="40.3375633" lon="8.818335"><ele>759.0</ele><time>2026-04-30T10:56:26.766Z</time></trkpt><trkpt lat="40.3374067" lon="8.8183033"><ele>759.0</ele><time>2026-04-30T10:56:27.767Z</time></trkpt><trkpt lat="40.3372567" lon="8.818275"><ele>759.0</ele><time>2026-04-30T10:56:28.761Z</time></trkpt><trkpt lat="40.3371117" lon="8.8182483"><ele>759.0</ele><time>2026-04-30T10:56:29.76Z</time></trkpt><trkpt lat="40.3369783" lon="8.8182183"><ele>759.0</ele><time>2026-04-30T10:56:30.762Z</time></trkpt><trkpt lat="40.336845" lon="8.8181817"><ele>757.75</ele><time>2026-04-30T10:56:31.766Z</time></trkpt><trkpt lat="40.3367117" lon="8.8181267"><ele>756.5</ele><time>2026-04-30T10:56:32.79Z</time></trkpt><trkpt lat="40.3365733" lon="8.81805"><ele>755.25</ele><time>2026-04-30T10:56:33.762Z</time></trkpt><trkpt lat="40.3364333" lon="8.8179633"><ele>754.0</ele><time>2026-04-30T10:56:34.764Z</time></trkpt><trkpt lat="40.33629" lon="8.817875"><ele>753.3333333333334</ele><time>2026-04-30T10:56:35.767Z</time></trkpt><trkpt lat="40.3361483" lon="8.81779"><ele>752.6666666666666</ele><time>2026-04-30T10:56:36.767Z</time></trkpt><trkpt lat="40.33601" lon="8.817705"><ele>752.0</ele><time>2026-04-30T10:56:37.764Z</time></trkpt><trkpt lat="40.3358717" lon="8.8176233"><ele>749.6666666666666</ele><time>2026-04-30T10:56:38.798Z</time></trkpt><trkpt lat="40.3357317" lon="8.8175483"><ele>747.3333333333334</ele><time>2026-04-30T10:56:39.766Z</time></trkpt><trkpt lat="40.335585" lon="8.8174783"><ele>745.0</ele><time>2026-04-30T10:56:40.765Z</time></trkpt><trkpt lat="40.3354317" lon="8.8174067"><ele>744.3333333333334</ele><time>2026-04-30T10:56:41.765Z</time></trkpt><trkpt lat="40.3352683" lon="8.8173367"><ele>743.6666666666666</ele><time>2026-04-30T10:56:42.767Z</time></trkpt><trkpt lat="40.3351017" lon="8.8172633"><ele>743.0</ele><time>2026-04-30T10:56:43.761Z</time></trkpt><trkpt lat="40.3349267" lon="8.81719"><ele>743.0</ele><time>2026-04-30T10:56:44.803Z</time></trkpt><trkpt lat="40.334745" lon="8.8171183"><ele>743.0</ele><time>2026-04-30T10:56:45.761Z</time></trkpt><trkpt lat="40.3345617" lon="8.817045"><ele>743.0</ele><time>2026-04-30T10:56:46.759Z</time></trkpt><trkpt lat="40.3343783" lon="8.81697"><ele>742.3333333333333</ele><time>2026-04-30T10:56:47.762Z</time></trkpt><trkpt lat="40.3341933" lon="8.81689"><ele>741.6666666666666</ele><time>2026-04-30T10:56:48.767Z</time></trkpt><trkpt lat="40.3340083" lon="8.81681"><ele>741.0</ele><time>2026-04-30T10:56:49.765Z</time></trkpt><trkpt lat="40.3338217" lon="8.8167267"><ele>740.6666666666666</ele><time>2026-04-30T10:56:50.8Z</time></trkpt><trkpt lat="40.333635" lon="8.8166433"><ele>740.3333333333333</ele><time>2026-04-30T10:56:51.767Z</time></trkpt><trkpt lat="40.3334517" lon="8.8165583"><ele>740.0</ele><time>2026-04-30T10:56:52.763Z</time></trkpt><trkpt lat="40.3332733" lon="8.81648"><ele>740.0</ele><time>2026-04-30T10:56:53.767Z</time></trkpt><trkpt lat="40.333105" lon="8.8164117"><ele>740.0</ele><time>2026-04-30T10:56:54.767Z</time></trkpt><trkpt lat="40.3329417" lon="8.8163567"><ele>740.0</ele><time>2026-04-30T10:56:55.764Z</time></trkpt><trkpt lat="40.3327783" lon="8.8163133"><ele>741.3333333333333</ele><time>2026-04-30T10:56:56.787Z</time></trkpt><trkpt lat="40.33261" lon="8.8162867"><ele>742.6666666666666</ele><time>2026-04-30T10:56:57.763Z</time></trkpt><trkpt lat="40.3324333" lon="8.8162667"><ele>744.0</ele><time>2026-04-30T10:56:58.764Z</time></trkpt><trkpt lat="40.3322517" lon="8.81625"><ele>744.3333333333334</ele><time>2026-04-30T10:56:59.763Z</time></trkpt><trkpt lat="40.332065" lon="8.8162333"><ele>744.6666666666667</ele><time>2026-04-30T10:57:00.765Z</time></trkpt><trkpt lat="40.3318733" lon="8.8162217"><ele>745.0</ele><time>2026-04-30T10:57:01.764Z</time></trkpt><trkpt lat="40.33168" lon="8.81621"><ele>745.0</ele><time>2026-04-30T10:57:02.787Z</time></trkpt><trkpt lat="40.3314833" lon="8.8161967"><ele>745.0</ele><time>2026-04-30T10:57:03.763Z</time></trkpt><trkpt lat="40.3312883" lon="8.8161833"><ele>745.0</ele><time>2026-04-30T10:57:04.765Z</time></trkpt><trkpt lat="40.331095" lon="8.816165"><ele>747.0</ele><time>2026-04-30T10:57:05.766Z</time></trkpt><trkpt lat="40.3309083" lon="8.8161533"><ele>749.0</ele><time>2026-04-30T10:57:06.763Z</time></trkpt><trkpt lat="40.330725" lon="8.8161433"><ele>751.0</ele><time>2026-04-30T10:57:07.765Z</time></trkpt><trkpt lat="40.3305483" lon="8.8161333"><ele>751.3333333333334</ele><time>2026-04-30T10:57:08.8Z</time></trkpt><trkpt lat="40.330375" lon="8.8161233"><ele>751.6666666666666</ele><time>2026-04-30T10:57:09.759Z</time></trkpt><trkpt lat="40.3302017" lon="8.8161167"><ele>752.0</ele><time>2026-04-30T10:57:10.76Z</time></trkpt><trkpt lat="40.33003" lon="8.8161183"><ele>752.0</ele><time>2026-04-30T10:57:11.762Z</time></trkpt><trkpt lat="40.32986" lon="8.8161233"><ele>752.0</ele><time>2026-04-30T10:57:12.762Z</time></trkpt><trkpt lat="40.3296867" lon="8.8161267"><ele>752.0</ele><time>2026-04-30T10:57:13.763Z</time></trkpt><trkpt lat="40.329515" lon="8.8161233"><ele>751.3333333333333</ele><time>2026-04-30T10:57:14.799Z</time></trkpt><trkpt lat="40.3293383" lon="8.816105"><ele>750.6666666666666</ele><time>2026-04-30T10:57:15.762Z</time></trkpt><trkpt lat="40.32916" lon="8.8160767"><ele>750.0</ele><time>2026-04-30T10:57:16.761Z</time></trkpt><trkpt lat="40.3289833" lon="8.8160417"><ele>749.3333333333334</ele><time>2026-04-30T10:57:17.766Z</time></trkpt><trkpt lat="40.3288167" lon="8.8160067"><ele>748.6666666666667</ele><time>2026-04-30T10:57:18.767Z</time></trkpt><trkpt lat="40.32866" lon="8.8159733"><ele>748.0</ele><time>2026-04-30T10:57:19.762Z</time></trkpt><trkpt lat="40.3285133" lon="8.8159383"><ele>748.0</ele><time>2026-04-30T10:57:20.798Z</time></trkpt><trkpt lat="40.328375" lon="8.81589"><ele>748.0</ele><time>2026-04-30T10:57:21.761Z</time></trkpt><trkpt lat="40.3282417" lon="8.8158183"><ele>748.0</ele><time>2026-04-30T10:57:22.764Z</time></trkpt><trkpt lat="40.3281117" lon="8.81573"><ele>748.0</ele><time>2026-04-30T10:57:23.763Z</time></trkpt><trkpt lat="40.327985" lon="8.8156383"><ele>750.0</ele><time>2026-04-30T10:57:24.763Z</time></trkpt><trkpt lat="40.3278667" lon="8.8155383"><ele>752.0</ele><time>2026-04-30T10:57:25.762Z</time></trkpt><trkpt lat="40.3277583" lon="8.8154383"><ele>754.0</ele><time>2026-04-30T10:57:26.825Z</time></trkpt><trkpt lat="40.3276467" lon="8.8153567"><ele>756.0</ele><time>2026-04-30T10:57:27.763Z</time></trkpt><trkpt lat="40.3275267" lon="8.8152967"><ele>756.0</ele><time>2026-04-30T10:57:28.76Z</time></trkpt><trkpt lat="40.3273967" lon="8.8152517"><ele>756.0</ele><time>2026-04-30T10:57:29.762Z</time></trkpt><trkpt lat="40.327255" lon="8.8152217"><ele>756.0</ele><time>2026-04-30T10:57:30.763Z</time></trkpt><trkpt lat="40.3271083" lon="8.8152033"><ele>756.0</ele><time>2026-04-30T10:57:31.764Z</time></trkpt><trkpt lat="40.3269583" lon="8.8151967"><ele>755.5</ele><time>2026-04-30T10:57:32.765Z</time></trkpt><trkpt lat="40.32682" lon="8.8151767"><ele>755.0</ele><time>2026-04-30T10:57:33.764Z</time></trkpt><trkpt lat="40.32668" lon="8.8151433"><ele>754.5</ele><time>2026-04-30T10:57:34.76Z</time></trkpt><trkpt lat="40.3265383" lon="8.81509"><ele>754.0</ele><time>2026-04-30T10:57:35.763Z</time></trkpt><trkpt lat="40.3263917" lon="8.8150117"><ele>754.0</ele><time>2026-04-30T10:57:36.767Z</time></trkpt><trkpt lat="40.3262417" lon="8.814925"><ele>754.0</ele><time>2026-04-30T10:57:37.763Z</time></trkpt><trkpt lat="40.326095" lon="8.8148417"><ele>754.0</ele><time>2026-04-30T10:57:38.802Z</time></trkpt><trkpt lat="40.32595" lon="8.8147517"><ele>754.0</ele><time>2026-04-30T10:57:39.764Z</time></trkpt><trkpt lat="40.32581" lon="8.8146483"><ele>754.0</ele><time>2026-04-30T10:57:40.762Z</time></trkpt><trkpt lat="40.3256733" lon="8.8145467"><ele>754.0</ele><time>2026-04-30T10:57:41.763Z</time></trkpt><trkpt lat="40.3255367" lon="8.8144383"><ele>755.6666666666667</ele><time>2026-04-30T10:57:42.763Z</time></trkpt><trkpt lat="40.3254083" lon="8.81434"><ele>757.3333333333334</ele><time>2026-04-30T10:57:43.764Z</time></trkpt><trkpt lat="40.325275" lon="8.8142517"><ele>759.0</ele><time>2026-04-30T10:57:44.797Z</time></trkpt><trkpt lat="40.3251333" lon="8.81418"><ele>754.3333333333334</ele><time>2026-04-30T10:57:45.765Z</time></trkpt><trkpt lat="40.3249833" lon="8.814115"><ele>749.6666666666667</ele><time>2026-04-30T10:57:46.761Z</time></trkpt><trkpt lat="40.3248283" lon="8.814065"><ele>745.0</ele><time>2026-04-30T10:57:47.762Z</time></trkpt><trkpt lat="40.32466" lon="8.8140233"><ele>744.3333333333334</ele><time>2026-04-30T10:57:48.767Z</time></trkpt><trkpt lat="40.3244833" lon="8.81398"><ele>743.6666666666666</ele><time>2026-04-30T10:57:49.764Z</time></trkpt><trkpt lat="40.3243033" lon="8.81394"><ele>743.0</ele><time>2026-04-30T10:57:50.798Z</time></trkpt><trkpt lat="40.3241217" lon="8.8138983"><ele>743.0</ele><time>2026-04-30T10:57:51.764Z</time></trkpt><trkpt lat="40.3239483" lon="8.8138583"><ele>743.0</ele><time>2026-04-30T10:57:52.761Z</time></trkpt><trkpt lat="40.3237817" lon="8.8138133"><ele>743.0</ele><time>2026-04-30T10:57:53.764Z</time></trkpt><trkpt lat="40.3236217" lon="8.8137583"><ele>744.0</ele><time>2026-04-30T10:57:54.765Z</time></trkpt><trkpt lat="40.32347" lon="8.8136833"><ele>745.0</ele><time>2026-04-30T10:57:55.763Z</time></trkpt><trkpt lat="40.3233233" lon="8.81359"><ele>746.0</ele><time>2026-04-30T10:57:56.824Z</time></trkpt><trkpt lat="40.3231883" lon="8.8134817"><ele>745.75</ele><time>2026-04-30T10:57:57.762Z</time></trkpt><trkpt lat="40.3230583" lon="8.8133767"><ele>745.5</ele><time>2026-04-30T10:57:58.764Z</time></trkpt><trkpt lat="40.322935" lon="8.813285"><ele>745.25</ele><time>2026-04-30T10:57:59.763Z</time></trkpt><trkpt lat="40.3228117" lon="8.8132067"><ele>745.0</ele><time>2026-04-30T10:58:00.763Z</time></trkpt><trkpt lat="40.3226817" lon="8.8131433"><ele>745.0</ele><time>2026-04-30T10:58:01.764Z</time></trkpt><trkpt lat="40.322555" lon="8.8130967"><ele>745.0</ele><time>2026-04-30T10:58:02.811Z</time></trkpt><trkpt lat="40.3224217" lon="8.8130833"><ele>745.0</ele><time>2026-04-30T10:58:03.763Z</time></trkpt><trkpt lat="40.3222867" lon="8.8130817"><ele>745.0</ele><time>2026-04-30T10:58:04.765Z</time></trkpt><trkpt lat="40.322145" lon="8.81309"><ele>745.3333333333334</ele><time>2026-04-30T10:58:05.761Z</time></trkpt><trkpt lat="40.3219917" lon="8.8131133"><ele>745.6666666666666</ele><time>2026-04-30T10:58:06.764Z</time></trkpt><trkpt lat="40.3218333" lon="8.8131433"><ele>746.0</ele><time>2026-04-30T10:58:07.763Z</time></trkpt><trkpt lat="40.3216733" lon="8.813175"><ele>746.0</ele><time>2026-04-30T10:58:08.801Z</time></trkpt><trkpt lat="40.321515" lon="8.8132067"><ele>746.0</ele><time>2026-04-30T10:58:09.764Z</time></trkpt><trkpt lat="40.321365" lon="8.8132433"><ele>746.0</ele><time>2026-04-30T10:58:10.764Z</time></trkpt><trkpt lat="40.3212167" lon="8.8132783"><ele>746.0</ele><time>2026-04-30T10:58:11.762Z</time></trkpt><trkpt lat="40.3210717" lon="8.8133233"><ele>746.0</ele><time>2026-04-30T10:58:12.764Z</time></trkpt><trkpt lat="40.32093" lon="8.81339"><ele>746.0</ele><time>2026-04-30T10:58:13.761Z</time></trkpt><trkpt lat="40.320795" lon="8.8134683"><ele>746.0</ele><time>2026-04-30T10:58:14.799Z</time></trkpt><trkpt lat="40.3206633" lon="8.813555"><ele>746.75</ele><time>2026-04-30T10:58:15.76Z</time></trkpt><trkpt lat="40.3205367" lon="8.8136367"><ele>747.5</ele><time>2026-04-30T10:58:16.763Z</time></trkpt><trkpt lat="40.3204117" lon="8.8137167"><ele>748.25</ele><time>2026-04-30T10:58:17.766Z</time></trkpt><trkpt lat="40.3203017" lon="8.81381"><ele>749.0</ele><time>2026-04-30T10:58:18.766Z</time></trkpt><trkpt lat="40.3201967" lon="8.8139333"><ele>749.0</ele><time>2026-04-30T10:58:19.76Z</time></trkpt><trkpt lat="40.3200933" lon="8.8140683"><ele>749.0</ele><time>2026-04-30T10:58:20.8Z</time></trkpt><trkpt lat="40.3199933" lon="8.814215"><ele>749.0</ele><time>2026-04-30T10:58:21.764Z</time></trkpt><trkpt lat="40.3199067" lon="8.81436"><ele>749.0</ele><time>2026-04-30T10:58:22.765Z</time></trkpt><trkpt lat="40.3198317" lon="8.814505"><ele>748.75</ele><time>2026-04-30T10:58:23.762Z</time></trkpt><trkpt lat="40.3197717" lon="8.8146633"><ele>748.5</ele><time>2026-04-30T10:58:24.765Z</time></trkpt><trkpt lat="40.3197267" lon="8.8148283"><ele>748.25</ele><time>2026-04-30T10:58:25.765Z</time></trkpt><trkpt lat="40.3197067" lon="8.815005"><ele>748.0</ele><time>2026-04-30T10:58:26.777Z</time></trkpt><trkpt lat="40.3196983" lon="8.8151933"><ele>745.0</ele><time>2026-04-30T10:58:27.761Z</time></trkpt><trkpt lat="40.3196933" lon="8.8153917"><ele>742.0</ele><time>2026-04-30T10:58:28.764Z</time></trkpt><trkpt lat="40.3196767" lon="8.8155783"><ele>739.0</ele><time>2026-04-30T10:58:29.761Z</time></trkpt><trkpt lat="40.3196583" lon="8.8157583"><ele>736.0</ele><time>2026-04-30T10:58:30.763Z</time></trkpt><trkpt lat="40.3196333" lon="8.815925"><ele>737.0</ele><time>2026-04-30T10:58:31.766Z</time></trkpt><trkpt lat="40.319585" lon="8.8160883"><ele>738.0</ele><time>2026-04-30T10:58:32.783Z</time></trkpt><trkpt lat="40.3195117" lon="8.8162467"><ele>739.0</ele><time>2026-04-30T10:58:33.768Z</time></trkpt><trkpt lat="40.3194167" lon="8.8164017"><ele>740.0</ele><time>2026-04-30T10:58:34.763Z</time></trkpt><trkpt lat="40.3193217" lon="8.8165533"><ele>740.0</ele><time>2026-04-30T10:58:35.764Z</time></trkpt><trkpt lat="40.31923" lon="8.8167"><ele>740.0</ele><time>2026-04-30T10:58:36.765Z</time></trkpt><trkpt lat="40.3191367" lon="8.8168333"><ele>740.0</ele><time>2026-04-30T10:58:37.764Z</time></trkpt><trkpt lat="40.31904" lon="8.8169517"><ele>740.0</ele><time>2026-04-30T10:58:38.795Z</time></trkpt><trkpt lat="40.3189283" lon="8.817055"><ele>741.25</ele><time>2026-04-30T10:58:39.763Z</time></trkpt><trkpt lat="40.3188117" lon="8.81714"><ele>742.5</ele><time>2026-04-30T10:58:40.764Z</time></trkpt><trkpt lat="40.318695" lon="8.8172017"><ele>743.75</ele><time>2026-04-30T10:58:41.761Z</time></trkpt><trkpt lat="40.3185733" lon="8.8172417"><ele>745.0</ele><time>2026-04-30T10:58:42.765Z</time></trkpt><trkpt lat="40.3184367" lon="8.81719"><ele>745.0</ele><time>2026-04-30T10:58:43.758Z</time></trkpt><trkpt lat="40.3183" lon="8.817145"><ele>745.0</ele><time>2026-04-30T10:58:44.801Z</time></trkpt><trkpt lat="40.3181633" lon="8.8170817"><ele>745.0</ele><time>2026-04-30T10:58:45.762Z</time></trkpt><trkpt lat="40.3180117" lon="8.81705"><ele>745.0</ele><time>2026-04-30T10:58:46.764Z</time></trkpt><trkpt lat="40.317845" lon="8.81703"><ele>745.3333333333334</ele><time>2026-04-30T10:58:47.763Z</time></trkpt><trkpt lat="40.31768" lon="8.81702"><ele>745.6666666666666</ele><time>2026-04-30T10:58:48.765Z</time></trkpt><trkpt lat="40.31752" lon="8.8170167"><ele>746.0</ele><time>2026-04-30T10:58:49.762Z</time></trkpt><trkpt lat="40.3173683" lon="8.817025"><ele>745.5</ele><time>2026-04-30T10:58:50.801Z</time></trkpt><trkpt lat="40.3172217" lon="8.817045"><ele>745.0</ele><time>2026-04-30T10:58:51.766Z</time></trkpt><trkpt lat="40.3170767" lon="8.817075"><ele>744.5</ele><time>2026-04-30T10:58:52.764Z</time></trkpt><trkpt lat="40.3169283" lon="8.8171283"><ele>744.0</ele><time>2026-04-30T10:58:53.766Z</time></trkpt><trkpt lat="40.3167733" lon="8.81719"><ele>744.0</ele><time>2026-04-30T10:58:54.764Z</time></trkpt><trkpt lat="40.31662" lon="8.8172417"><ele>744.0</ele><time>2026-04-30T10:58:55.764Z</time></trkpt><trkpt lat="40.3164683" lon="8.8172817"><ele>744.0</ele><time>2026-04-30T10:58:56.825Z</time></trkpt><trkpt lat="40.3163267" lon="8.81731"><ele>743.75</ele><time>2026-04-30T10:58:57.761Z</time></trkpt><trkpt lat="40.316195" lon="8.817315"><ele>743.5</ele><time>2026-04-30T10:58:58.763Z</time></trkpt><trkpt lat="40.3160733" lon="8.8172983"><ele>743.25</ele><time>2026-04-30T10:58:59.762Z</time></trkpt><trkpt lat="40.3159583" lon="8.8172617"><ele>743.0</ele><time>2026-04-30T10:59:00.759Z</time></trkpt><trkpt lat="40.3158517" lon="8.817205"><ele>743.0</ele><time>2026-04-30T10:59:01.764Z</time></trkpt><trkpt lat="40.315755" lon="8.8171233"><ele>743.0</ele><time>2026-04-30T10:59:02.76Z</time></trkpt><trkpt lat="40.3156767" lon="8.81695"><ele>743.0</ele><time>2026-04-30T10:59:03.762Z</time></trkpt><trkpt lat="40.3155933" lon="8.8167433"><ele>743.0</ele><time>2026-04-30T10:59:04.761Z</time></trkpt><trkpt lat="40.3155167" lon="8.8165267"><ele>741.3333333333333</ele><time>2026-04-30T10:59:05.766Z</time></trkpt><trkpt lat="40.315435" lon="8.8162867"><ele>739.6666666666666</ele><time>2026-04-30T10:59:06.766Z</time></trkpt><trkpt lat="40.31535" lon="8.8160467"><ele>738.0</ele><time>2026-04-30T10:59:07.762Z</time></trkpt><trkpt lat="40.3152567" lon="8.815805"><ele>736.6666666666666</ele><time>2026-04-30T10:59:08.795Z</time></trkpt><trkpt lat="40.31517" lon="8.81556"><ele>735.3333333333333</ele><time>2026-04-30T10:59:09.765Z</time></trkpt><trkpt lat="40.3150833" lon="8.81532"><ele>734.0</ele><time>2026-04-30T10:59:10.762Z</time></trkpt><trkpt lat="40.3149933" lon="8.8150817"><ele>732.3333333333333</ele><time>2026-04-30T10:59:11.761Z</time></trkpt><trkpt lat="40.31491" lon="8.8148517"><ele>730.6666666666666</ele><time>2026-04-30T10:59:12.76Z</time></trkpt><trkpt lat="40.314825" lon="8.814635"><ele>729.0</ele><time>2026-04-30T10:59:13.764Z</time></trkpt><trkpt lat="40.3147517" lon="8.8144233"><ele>728.0</ele><time>2026-04-30T10:59:14.798Z</time></trkpt><trkpt lat="40.3146867" lon="8.8142233"><ele>727.0</ele><time>2026-04-30T10:59:15.761Z</time></trkpt><trkpt lat="40.31464" lon="8.8140183"><ele>726.0</ele><time>2026-04-30T10:59:16.764Z</time></trkpt><trkpt lat="40.3146067" lon="8.81382"><ele>726.0</ele><time>2026-04-30T10:59:17.76Z</time></trkpt><trkpt lat="40.3145817" lon="8.8136267"><ele>726.0</ele><time>2026-04-30T10:59:18.764Z</time></trkpt><trkpt lat="40.3145517" lon="8.8134583"><ele>726.0</ele><time>2026-04-30T10:59:19.761Z</time></trkpt><trkpt lat="40.3144967" lon="8.8133133"><ele>726.0</ele><time>2026-04-30T10:59:20.799Z</time></trkpt><trkpt lat="40.31443" lon="8.8131883"><ele>725.0</ele><time>2026-04-30T10:59:21.759Z</time></trkpt><trkpt lat="40.31433" lon="8.8130817"><ele>724.0</ele><time>2026-04-30T10:59:22.764Z</time></trkpt><trkpt lat="40.3142083" lon="8.812985"><ele>723.0</ele><time>2026-04-30T10:59:23.76Z</time></trkpt><trkpt lat="40.31409" lon="8.8128733"><ele>722.0</ele><time>2026-04-30T10:59:24.764Z</time></trkpt><trkpt lat="40.3139717" lon="8.8127433"><ele>721.0</ele><time>2026-04-30T10:59:25.764Z</time></trkpt><trkpt lat="40.3138533" lon="8.8126"><ele>720.0</ele><time>2026-04-30T10:59:26.825Z</time></trkpt><trkpt lat="40.3137383" lon="8.8124467"><ele>719.0</ele><time>2026-04-30T10:59:27.765Z</time></trkpt><trkpt lat="40.3136317" lon="8.8122867"><ele>719.0</ele><time>2026-04-30T10:59:28.761Z</time></trkpt><trkpt lat="40.313535" lon="8.8121133"><ele>719.0</ele><time>2026-04-30T10:59:29.761Z</time></trkpt><trkpt lat="40.31345" lon="8.811935"><ele>719.0</ele><time>2026-04-30T10:59:30.763Z</time></trkpt><trkpt lat="40.3133683" lon="8.8117567"><ele>718.0</ele><time>2026-04-30T10:59:31.764Z</time></trkpt><trkpt lat="40.31329" lon="8.8115883"><ele>717.0</ele><time>2026-04-30T10:59:32.807Z</time></trkpt><trkpt lat="40.3131983" lon="8.8114317"><ele>716.0</ele><time>2026-04-30T10:59:33.764Z</time></trkpt><trkpt lat="40.31309" lon="8.8112867"><ele>716.0</ele><time>2026-04-30T10:59:34.762Z</time></trkpt><trkpt lat="40.3129717" lon="8.8111483"><ele>716.0</ele><time>2026-04-30T10:59:35.762Z</time></trkpt><trkpt lat="40.312845" lon="8.8110117"><ele>716.0</ele><time>2026-04-30T10:59:36.763Z</time></trkpt><trkpt lat="40.3127217" lon="8.8108817"><ele>715.5</ele><time>2026-04-30T10:59:37.767Z</time></trkpt><trkpt lat="40.312605" lon="8.810755"><ele>715.0</ele><time>2026-04-30T10:59:38.797Z</time></trkpt><trkpt lat="40.3124983" lon="8.81063"><ele>714.5</ele><time>2026-04-30T10:59:39.762Z</time></trkpt><trkpt lat="40.3124083" lon="8.8104933"><ele>714.0</ele><time>2026-04-30T10:59:40.765Z</time></trkpt><trkpt lat="40.3123367" lon="8.8103467"><ele>714.0</ele><time>2026-04-30T10:59:41.766Z</time></trkpt><trkpt lat="40.31229" lon="8.8101933"><ele>714.0</ele><time>2026-04-30T10:59:42.762Z</time></trkpt><trkpt lat="40.3122733" lon="8.8100417"><ele>714.0</ele><time>2026-04-30T10:59:43.761Z</time></trkpt><trkpt lat="40.3122733" lon="8.809895"><ele>714.0</ele><time>2026-04-30T10:59:44.802Z</time></trkpt><trkpt lat="40.3122633" lon="8.8097517"><ele>714.0</ele><time>2026-04-30T10:59:45.761Z</time></trkpt><trkpt lat="40.31223" lon="8.8096067"><ele>714.0</ele><time>2026-04-30T10:59:46.764Z</time></trkpt><trkpt lat="40.3121767" lon="8.80946"><ele>714.0</ele><time>2026-04-30T10:59:47.758Z</time></trkpt><trkpt lat="40.3121067" lon="8.8093083"><ele>714.0</ele><time>2026-04-30T10:59:48.766Z</time></trkpt><trkpt lat="40.3120167" lon="8.8091583"><ele>714.0</ele><time>2026-04-30T10:59:49.762Z</time></trkpt><trkpt lat="40.3119233" lon="8.80902"><ele>714.0</ele><time>2026-04-30T10:59:50.798Z</time></trkpt><trkpt lat="40.3118267" lon="8.8088983"><ele>714.0</ele><time>2026-04-30T10:59:51.759Z</time></trkpt><trkpt lat="40.311725" lon="8.80879"><ele>714.0</ele><time>2026-04-30T10:59:52.761Z</time></trkpt><trkpt lat="40.3116083" lon="8.8087033"><ele>714.0</ele><time>2026-04-30T10:59:53.762Z</time></trkpt><trkpt lat="40.3114783" lon="8.8086367"><ele>714.0</ele><time>2026-04-30T10:59:54.759Z</time></trkpt><trkpt lat="40.3113417" lon="8.8085783"><ele>714.0</ele><time>2026-04-30T10:59:55.763Z</time></trkpt><trkpt lat="40.3112067" lon="8.8085233"><ele>714.0</ele><time>2026-04-30T10:59:56.819Z</time></trkpt><trkpt lat="40.311085" lon="8.808475"><ele>714.4000000000001</ele><time>2026-04-30T10:59:57.76Z</time></trkpt><trkpt lat="40.3109633" lon="8.8084333"><ele>714.8</ele><time>2026-04-30T10:59:58.766Z</time></trkpt><trkpt lat="40.310855" lon="8.8084033"><ele>715.2</ele><time>2026-04-30T10:59:59.765Z</time></trkpt><trkpt lat="40.3107533" lon="8.8083883"><ele>715.5999999999999</ele><time>2026-04-30T11:00:00.765Z</time></trkpt><trkpt lat="40.31065" lon="8.808385"><ele>716.0</ele><time>2026-04-30T11:00:01.761Z</time></trkpt><trkpt lat="40.31054" lon="8.8083883"><ele>716.75</ele><time>2026-04-30T11:00:02.809Z</time></trkpt><trkpt lat="40.3104217" lon="8.8084"><ele>717.5</ele><time>2026-04-30T11:00:03.761Z</time></trkpt><trkpt lat="40.3102883" lon="8.808415"><ele>718.25</ele><time>2026-04-30T11:00:04.76Z</time></trkpt><trkpt lat="40.31015" lon="8.80843"><ele>719.0</ele><time>2026-04-30T11:00:05.763Z</time></trkpt><trkpt lat="40.3100067" lon="8.8084517"><ele>719.0</ele><time>2026-04-30T11:00:06.765Z</time></trkpt><trkpt lat="40.3098583" lon="8.80848"><ele>719.0</ele><time>2026-04-30T11:00:07.763Z</time></trkpt><trkpt lat="40.3097033" lon="8.8085117"><ele>719.0</ele><time>2026-04-30T11:00:08.799Z</time></trkpt><trkpt lat="40.3095467" lon="8.8085467"><ele>721.6666666666666</ele><time>2026-04-30T11:00:09.762Z</time></trkpt><trkpt lat="40.3093917" lon="8.80859"><ele>724.3333333333334</ele><time>2026-04-30T11:00:10.762Z</time></trkpt><trkpt lat="40.3092367" lon="8.8086433"><ele>727.0</ele><time>2026-04-30T11:00:11.764Z</time></trkpt><trkpt lat="40.3090817" lon="8.8087083"><ele>727.0</ele><time>2026-04-30T11:00:12.765Z</time></trkpt><trkpt lat="40.3089233" lon="8.808785"><ele>727.0</ele><time>2026-04-30T11:00:13.764Z</time></trkpt><trkpt lat="40.308765" lon="8.808865"><ele>727.0</ele><time>2026-04-30T11:00:14.799Z</time></trkpt><trkpt lat="40.308605" lon="8.80895"><ele>729.6666666666667</ele><time>2026-04-30T11:00:15.761Z</time></trkpt><trkpt lat="40.308445" lon="8.809035"><ele>732.3333333333334</ele><time>2026-04-30T11:00:16.763Z</time></trkpt><trkpt lat="40.30828" lon="8.8091233"><ele>735.0</ele><time>2026-04-30T11:00:17.759Z</time></trkpt><trkpt lat="40.3081167" lon="8.8092117"><ele>735.6666666666666</ele><time>2026-04-30T11:00:18.765Z</time></trkpt><trkpt lat="40.3079517" lon="8.8092983"><ele>736.3333333333333</ele><time>2026-04-30T11:00:19.762Z</time></trkpt><trkpt lat="40.3077817" lon="8.8093783"><ele>737.0</ele><time>2026-04-30T11:00:20.796Z</time></trkpt><trkpt lat="40.3076117" lon="8.8094467"><ele>740.6666666666666</ele><time>2026-04-30T11:00:21.761Z</time></trkpt><trkpt lat="40.3074483" lon="8.8095083"><ele>744.3333333333334</ele><time>2026-04-30T11:00:22.763Z</time></trkpt><trkpt lat="40.3072917" lon="8.80956"><ele>748.0</ele><time>2026-04-30T11:00:23.759Z</time></trkpt><trkpt lat="40.3071433" lon="8.80961"><ele>748.0</ele><time>2026-04-30T11:00:24.762Z</time></trkpt><trkpt lat="40.3069983" lon="8.8096633"><ele>748.0</ele><time>2026-04-30T11:00:25.759Z</time></trkpt><trkpt lat="40.3068583" lon="8.8097283"><ele>748.0</ele><time>2026-04-30T11:00:26.818Z</time></trkpt><trkpt lat="40.306725" lon="8.8098"><ele>748.0</ele><time>2026-04-30T11:00:27.762Z</time></trkpt><trkpt lat="40.306595" lon="8.8098783"><ele>748.0</ele><time>2026-04-30T11:00:28.764Z</time></trkpt><trkpt lat="40.3064733" lon="8.8099617"><ele>748.0</ele><time>2026-04-30T11:00:29.766Z</time></trkpt><trkpt lat="40.306355" lon="8.8100633"><ele>748.0</ele><time>2026-04-30T11:00:30.765Z</time></trkpt><trkpt lat="40.3062417" lon="8.81018"><ele>748.0</ele><time>2026-04-30T11:00:31.764Z</time></trkpt><trkpt lat="40.3061317" lon="8.8103183"><ele>751.0</ele><time>2026-04-30T11:00:32.81Z</time></trkpt><trkpt lat="40.306025" lon="8.8104667"><ele>754.0</ele><time>2026-04-30T11:00:33.765Z</time></trkpt><trkpt lat="40.3059217" lon="8.8106083"><ele>757.0</ele><time>2026-04-30T11:00:34.765Z</time></trkpt><trkpt lat="40.3058167" lon="8.8107433"><ele>757.0</ele><time>2026-04-30T11:00:35.768Z</time></trkpt><trkpt lat="40.305715" lon="8.8108683"><ele>757.0</ele><time>2026-04-30T11:00:36.759Z</time></trkpt><trkpt lat="40.3056133" lon="8.810975"><ele>757.0</ele><time>2026-04-30T11:00:37.762Z</time></trkpt><trkpt lat="40.3055133" lon="8.8110633"><ele>757.0</ele><time>2026-04-30T11:00:38.809Z</time></trkpt><trkpt lat="40.30541" lon="8.81113"><ele>760.25</ele><time>2026-04-30T11:00:39.759Z</time></trkpt><trkpt lat="40.3053083" lon="8.8111733"><ele>763.5</ele><time>2026-04-30T11:00:40.765Z</time></trkpt><trkpt lat="40.3052033" lon="8.811185"><ele>766.75</ele><time>2026-04-30T11:00:41.765Z</time></trkpt><trkpt lat="40.3051" lon="8.8111683"><ele>770.0</ele><time>2026-04-30T11:00:42.763Z</time></trkpt><trkpt lat="40.30498" lon="8.8110883"><ele>770.0</ele><time>2026-04-30T11:00:43.765Z</time></trkpt><trkpt lat="40.304855" lon="8.8110183"><ele>770.0</ele><time>2026-04-30T11:00:44.797Z</time></trkpt><trkpt lat="40.30472" lon="8.81097"><ele>770.0</ele><time>2026-04-30T11:00:45.763Z</time></trkpt><trkpt lat="40.30458" lon="8.810925"><ele>770.0</ele><time>2026-04-30T11:00:46.764Z</time></trkpt><trkpt lat="40.304435" lon="8.810895"><ele>769.0</ele><time>2026-04-30T11:00:47.764Z</time></trkpt><trkpt lat="40.3042933" lon="8.8108783"><ele>768.0</ele><time>2026-04-30T11:00:48.762Z</time></trkpt><trkpt lat="40.3041517" lon="8.8108683"><ele>767.0</ele><time>2026-04-30T11:00:49.761Z</time></trkpt><trkpt lat="40.3040167" lon="8.8108783"><ele>766.0</ele><time>2026-04-30T11:00:50.799Z</time></trkpt><trkpt lat="40.3038833" lon="8.8109067"><ele>765.5</ele><time>2026-04-30T11:00:51.764Z</time></trkpt><trkpt lat="40.3037583" lon="8.810955"><ele>765.0</ele><time>2026-04-30T11:00:52.76Z</time></trkpt><trkpt lat="40.3036517" lon="8.8110367"><ele>764.5</ele><time>2026-04-30T11:00:53.762Z</time></trkpt><trkpt lat="40.3035617" lon="8.811145"><ele>764.0</ele><time>2026-04-30T11:00:54.764Z</time></trkpt><trkpt lat="40.303475" lon="8.81128"><ele>764.5</ele><time>2026-04-30T11:00:55.768Z</time></trkpt><trkpt lat="40.3033767" lon="8.811395"><ele>765.0</ele><time>2026-04-30T11:00:56.781Z</time></trkpt><trkpt lat="40.3032817" lon="8.8115383"><ele>765.5</ele><time>2026-04-30T11:00:57.76Z</time></trkpt><trkpt lat="40.3031483" lon="8.8116433"><ele>766.0</ele><time>2026-04-30T11:00:58.764Z</time></trkpt><trkpt lat="40.30301" lon="8.8117417"><ele>770.0</ele><time>2026-04-30T11:00:59.761Z</time></trkpt><trkpt lat="40.3028617" lon="8.81184"><ele>774.0</ele><time>2026-04-30T11:01:00.759Z</time></trkpt><trkpt lat="40.302705" lon="8.811925"><ele>778.0</ele><time>2026-04-30T11:01:01.762Z</time></trkpt><trkpt lat="40.3025467" lon="8.8120083"><ele>778.0</ele><time>2026-04-30T11:01:02.81Z</time></trkpt><trkpt lat="40.3023967" lon="8.812085"><ele>778.0</ele><time>2026-04-30T11:01:03.762Z</time></trkpt><trkpt lat="40.3022567" lon="8.8121583"><ele>778.0</ele><time>2026-04-30T11:01:04.765Z</time></trkpt><trkpt lat="40.302125" lon="8.8122433"><ele>776.75</ele><time>2026-04-30T11:01:05.763Z</time></trkpt><trkpt lat="40.302" lon="8.8123417"><ele>775.5</ele><time>2026-04-30T11:01:06.764Z</time></trkpt><trkpt lat="40.3018767" lon="8.8124533"><ele>774.25</ele><time>2026-04-30T11:01:07.766Z</time></trkpt><trkpt lat="40.3017617" lon="8.812575"><ele>773.0</ele><time>2026-04-30T11:01:08.798Z</time></trkpt><trkpt lat="40.30165" lon="8.8126917"><ele>776.0</ele><time>2026-04-30T11:01:09.77Z</time></trkpt><trkpt lat="40.301545" lon="8.8128217"><ele>779.0</ele><time>2026-04-30T11:01:10.767Z</time></trkpt><trkpt lat="40.3014533" lon="8.812955"><ele>782.0</ele><time>2026-04-30T11:01:11.761Z</time></trkpt><trkpt lat="40.301375" lon="8.8131117"><ele>785.0</ele><time>2026-04-30T11:01:12.762Z</time></trkpt><trkpt lat="40.3013083" lon="8.8132817"><ele>785.0</ele><time>2026-04-30T11:01:13.758Z</time></trkpt><trkpt lat="40.3012433" lon="8.8134683"><ele>785.0</ele><time>2026-04-30T11:01:14.799Z</time></trkpt><trkpt lat="40.3011817" lon="8.8136633"><ele>785.0</ele><time>2026-04-30T11:01:15.761Z</time></trkpt><trkpt lat="40.301125" lon="8.8138633"><ele>786.25</ele><time>2026-04-30T11:01:16.765Z</time></trkpt><trkpt lat="40.3010767" lon="8.8140583"><ele>787.5</ele><time>2026-04-30T11:01:17.76Z</time></trkpt><trkpt lat="40.3010433" lon="8.8142467"><ele>788.75</ele><time>2026-04-30T11:01:18.76Z</time></trkpt><trkpt lat="40.3010083" lon="8.8144133"><ele>790.0</ele><time>2026-04-30T11:01:19.765Z</time></trkpt><trkpt lat="40.30097" lon="8.8145567"><ele>790.8333333333333</ele><time>2026-04-30T11:01:20.8Z</time></trkpt><trkpt lat="40.3009217" lon="8.8146833"><ele>791.6666666666666</ele><time>2026-04-30T11:01:21.76Z</time></trkpt><trkpt lat="40.300865" lon="8.8147933"><ele>792.5</ele><time>2026-04-30T11:01:22.764Z</time></trkpt><trkpt lat="40.3008183" lon="8.8148867"><ele>793.3333333333333</ele><time>2026-04-30T11:01:23.768Z</time></trkpt><trkpt lat="40.3007633" lon="8.8149533"><ele>794.1666666666666</ele><time>2026-04-30T11:01:24.767Z</time></trkpt><trkpt lat="40.3007" lon="8.8149417"><ele>795.0</ele><time>2026-04-30T11:01:25.761Z</time></trkpt><trkpt lat="40.300615" lon="8.81495"><ele>793.5</ele><time>2026-04-30T11:01:26.837Z</time></trkpt><trkpt lat="40.3005167" lon="8.8149483"><ele>792.0</ele><time>2026-04-30T11:01:27.762Z</time></trkpt><trkpt lat="40.3003983" lon="8.8149517"><ele>790.5</ele><time>2026-04-30T11:01:28.762Z</time></trkpt><trkpt lat="40.3002783" lon="8.8149733"><ele>789.0</ele><time>2026-04-30T11:01:29.762Z</time></trkpt><trkpt lat="40.300155" lon="8.8149983"><ele>789.0</ele><time>2026-04-30T11:01:30.76Z</time></trkpt><trkpt lat="40.3000383" lon="8.8150383"><ele>789.0</ele><time>2026-04-30T11:01:31.767Z</time></trkpt><trkpt lat="40.2999267" lon="8.8151133"><ele>789.0</ele><time>2026-04-30T11:01:32.811Z</time></trkpt><trkpt lat="40.2998283" lon="8.8152167"><ele>789.0</ele><time>2026-04-30T11:01:33.765Z</time></trkpt><trkpt lat="40.2997417" lon="8.8153533"><ele>787.0</ele><time>2026-04-30T11:01:34.764Z</time></trkpt><trkpt lat="40.2996683" lon="8.8155217"><ele>785.0</ele><time>2026-04-30T11:01:35.767Z</time></trkpt><trkpt lat="40.2995917" lon="8.815705"><ele>783.0</ele><time>2026-04-30T11:01:36.76Z</time></trkpt><trkpt lat="40.29952" lon="8.815895"><ele>783.6666666666667</ele><time>2026-04-30T11:01:37.761Z</time></trkpt><trkpt lat="40.2994567" lon="8.816085"><ele>784.3333333333334</ele><time>2026-04-30T11:01:38.8Z</time></trkpt><trkpt lat="40.2993917" lon="8.8162733"><ele>785.0</ele><time>2026-04-30T11:01:39.762Z</time></trkpt><trkpt lat="40.2993217" lon="8.8164583"><ele>785.0</ele><time>2026-04-30T11:01:40.759Z</time></trkpt><trkpt lat="40.2992417" lon="8.8166367"><ele>785.0</ele><time>2026-04-30T11:01:41.764Z</time></trkpt><trkpt lat="40.29915" lon="8.8168133"><ele>785.0</ele><time>2026-04-30T11:01:42.763Z</time></trkpt><trkpt lat="40.2990533" lon="8.8169833"><ele>785.6666666666667</ele><time>2026-04-30T11:01:43.767Z</time></trkpt><trkpt lat="40.2989483" lon="8.8171467"><ele>786.3333333333333</ele><time>2026-04-30T11:01:44.796Z</time></trkpt><trkpt lat="40.2988483" lon="8.81731"><ele>787.0</ele><time>2026-04-30T11:01:45.765Z</time></trkpt><trkpt lat="40.298755" lon="8.81746"><ele>787.0</ele><time>2026-04-30T11:01:46.759Z</time></trkpt><trkpt lat="40.2986683" lon="8.8175967"><ele>787.0</ele><time>2026-04-30T11:01:47.76Z</time></trkpt><trkpt lat="40.2985933" lon="8.8177267"><ele>787.0</ele><time>2026-04-30T11:01:48.76Z</time></trkpt><trkpt lat="40.298525" lon="8.8178383"><ele>787.0</ele><time>2026-04-30T11:01:49.763Z</time></trkpt><trkpt lat="40.2984667" lon="8.817895"><ele>787.0</ele><time>2026-04-30T11:01:50.799Z</time></trkpt><trkpt lat="40.298405" lon="8.81785"><ele>787.0</ele><time>2026-04-30T11:01:52.76Z</time></trkpt><trkpt lat="40.2983767" lon="8.8177"><ele>787.0</ele><time>2026-04-30T11:01:53.763Z</time></trkpt><trkpt lat="40.2983533" lon="8.8175"><ele>787.0</ele><time>2026-04-30T11:01:54.761Z</time></trkpt><trkpt lat="40.2983367" lon="8.8173067"><ele>787.0</ele><time>2026-04-30T11:01:55.76Z</time></trkpt><trkpt lat="40.2983283" lon="8.8171383"><ele>787.0</ele><time>2026-04-30T11:01:56.829Z</time></trkpt><trkpt lat="40.29833" lon="8.8169367"><ele>787.0</ele><time>2026-04-30T11:01:57.76Z</time></trkpt><trkpt lat="40.2983183" lon="8.8167317"><ele>787.0</ele><time>2026-04-30T11:01:58.764Z</time></trkpt><trkpt lat="40.2983" lon="8.816505"><ele>786.3333333333333</ele><time>2026-04-30T11:01:59.763Z</time></trkpt><trkpt lat="40.298275" lon="8.816265"><ele>785.6666666666667</ele><time>2026-04-30T11:02:00.761Z</time></trkpt><trkpt lat="40.2982383" lon="8.816015"><ele>785.0</ele><time>2026-04-30T11:02:01.764Z</time></trkpt><trkpt lat="40.29819" lon="8.8157417"><ele>784.0</ele><time>2026-04-30T11:02:02.815Z</time></trkpt><trkpt lat="40.29814" lon="8.8154617"><ele>783.0</ele><time>2026-04-30T11:02:03.764Z</time></trkpt><trkpt lat="40.2980867" lon="8.8151733"><ele>782.0</ele><time>2026-04-30T11:02:04.763Z</time></trkpt><trkpt lat="40.29803" lon="8.8148833"><ele>781.0</ele><time>2026-04-30T11:02:05.76Z</time></trkpt><trkpt lat="40.2979717" lon="8.814585"><ele>780.0</ele><time>2026-04-30T11:02:06.766Z</time></trkpt><trkpt lat="40.2979083" lon="8.81426"><ele>780.0</ele><time>2026-04-30T11:02:07.767Z</time></trkpt><trkpt lat="40.2978517" lon="8.813965"><ele>780.0</ele><time>2026-04-30T11:02:08.8Z</time></trkpt><trkpt lat="40.2977967" lon="8.8136733"><ele>779.0</ele><time>2026-04-30T11:02:09.76Z</time></trkpt><trkpt lat="40.2977417" lon="8.813385"><ele>778.0</ele><time>2026-04-30T11:02:10.761Z</time></trkpt><trkpt lat="40.2976867" lon="8.8130983"><ele>778.0</ele><time>2026-04-30T11:02:11.765Z</time></trkpt><trkpt lat="40.29763" lon="8.81282"><ele>778.0</ele><time>2026-04-30T11:02:12.764Z</time></trkpt><trkpt lat="40.2975717" lon="8.8125433"><ele>778.0</ele><time>2026-04-30T11:02:13.761Z</time></trkpt><trkpt lat="40.2975133" lon="8.8122667"><ele>777.6666666666666</ele><time>2026-04-30T11:02:14.799Z</time></trkpt><trkpt lat="40.2974583" lon="8.811995"><ele>777.3333333333333</ele><time>2026-04-30T11:02:15.764Z</time></trkpt><trkpt lat="40.297405" lon="8.811725"><ele>777.0</ele><time>2026-04-30T11:02:16.764Z</time></trkpt><trkpt lat="40.2973533" lon="8.8114533"><ele>777.0</ele><time>2026-04-30T11:02:17.765Z</time></trkpt><trkpt lat="40.2973083" lon="8.8111883"><ele>777.0</ele><time>2026-04-30T11:02:18.765Z</time></trkpt><trkpt lat="40.2972617" lon="8.81093"><ele>777.0</ele><time>2026-04-30T11:02:19.765Z</time></trkpt><trkpt lat="40.2972167" lon="8.8106733"><ele>776.6666666666667</ele><time>2026-04-30T11:02:20.797Z</time></trkpt><trkpt lat="40.2971733" lon="8.8104233"><ele>776.3333333333334</ele><time>2026-04-30T11:02:21.764Z</time></trkpt><trkpt lat="40.2971283" lon="8.8101767"><ele>776.0</ele><time>2026-04-30T11:02:22.764Z</time></trkpt><trkpt lat="40.2970867" lon="8.809935"><ele>776.0</ele><time>2026-04-30T11:02:23.761Z</time></trkpt><trkpt lat="40.2970467" lon="8.8096967"><ele>776.0</ele><time>2026-04-30T11:02:24.764Z</time></trkpt><trkpt lat="40.2970067" lon="8.809465"><ele>776.0</ele><time>2026-04-30T11:02:25.76Z</time></trkpt><trkpt lat="40.29697" lon="8.809235"><ele>776.0</ele><time>2026-04-30T11:02:26.825Z</time></trkpt><trkpt lat="40.2969283" lon="8.8090083"><ele>776.0</ele><time>2026-04-30T11:02:27.765Z</time></trkpt><trkpt lat="40.2968867" lon="8.8087817"><ele>776.0</ele><time>2026-04-30T11:02:28.764Z</time></trkpt><trkpt lat="40.2968417" lon="8.8085567"><ele>775.3333333333334</ele><time>2026-04-30T11:02:29.759Z</time></trkpt><trkpt lat="40.296785" lon="8.8083317"><ele>774.6666666666667</ele><time>2026-04-30T11:02:30.764Z</time></trkpt><trkpt lat="40.2967217" lon="8.8081067"><ele>774.0</ele><time>2026-04-30T11:02:31.765Z</time></trkpt><trkpt lat="40.2966533" lon="8.8078833"><ele>774.0</ele><time>2026-04-30T11:02:32.818Z</time></trkpt><trkpt lat="40.2965833" lon="8.8076567"><ele>774.0</ele><time>2026-04-30T11:02:33.76Z</time></trkpt><trkpt lat="40.296515" lon="8.8074283"><ele>774.0</ele><time>2026-04-30T11:02:34.761Z</time></trkpt><trkpt lat="40.296445" lon="8.8072017"><ele>774.0</ele><time>2026-04-30T11:02:35.761Z</time></trkpt><trkpt lat="40.296375" lon="8.8069733"><ele>774.0</ele><time>2026-04-30T11:02:36.763Z</time></trkpt><trkpt lat="40.2963017" lon="8.8067467"><ele>774.0</ele><time>2026-04-30T11:02:37.762Z</time></trkpt><trkpt lat="40.2962283" lon="8.8065217"><ele>773.6666666666667</ele><time>2026-04-30T11:02:38.799Z</time></trkpt><trkpt lat="40.2961583" lon="8.8063017"><ele>773.3333333333334</ele><time>2026-04-30T11:02:39.763Z</time></trkpt><trkpt lat="40.2960867" lon="8.8060883"><ele>773.0</ele><time>2026-04-30T11:02:40.763Z</time></trkpt><trkpt lat="40.2960133" lon="8.8058783"><ele>771.3333333333334</ele><time>2026-04-30T11:02:41.762Z</time></trkpt><trkpt lat="40.29594" lon="8.8056717"><ele>769.6666666666667</ele><time>2026-04-30T11:02:42.766Z</time></trkpt><trkpt lat="40.2958683" lon="8.8054783"><ele>768.0</ele><time>2026-04-30T11:02:43.763Z</time></trkpt><trkpt lat="40.2958" lon="8.805285"><ele>766.3333333333334</ele><time>2026-04-30T11:02:44.803Z</time></trkpt><trkpt lat="40.29574" lon="8.8050967"><ele>764.6666666666667</ele><time>2026-04-30T11:02:45.763Z</time></trkpt><trkpt lat="40.2956967" lon="8.8049083"><ele>763.0</ele><time>2026-04-30T11:02:46.766Z</time></trkpt><trkpt lat="40.29567" lon="8.804715"><ele>763.0</ele><time>2026-04-30T11:02:47.76Z</time></trkpt><trkpt lat="40.2956467" lon="8.8045333"><ele>763.0</ele><time>2026-04-30T11:02:48.763Z</time></trkpt><trkpt lat="40.2956267" lon="8.8043667"><ele>763.0</ele><time>2026-04-30T11:02:49.762Z</time></trkpt><trkpt lat="40.2956067" lon="8.804205"><ele>763.0</ele><time>2026-04-30T11:02:50.799Z</time></trkpt><trkpt lat="40.29558" lon="8.8040467"><ele>763.25</ele><time>2026-04-30T11:02:51.766Z</time></trkpt><trkpt lat="40.2955283" lon="8.803885"><ele>763.5</ele><time>2026-04-30T11:02:52.765Z</time></trkpt><trkpt lat="40.2954667" lon="8.8037233"><ele>763.75</ele><time>2026-04-30T11:02:53.76Z</time></trkpt><trkpt lat="40.2954017" lon="8.8035617"><ele>764.0</ele><time>2026-04-30T11:02:54.762Z</time></trkpt><trkpt lat="40.2953367" lon="8.8033983"><ele>762.5</ele><time>2026-04-30T11:02:55.76Z</time></trkpt><trkpt lat="40.295285" lon="8.8032317"><ele>761.0</ele><time>2026-04-30T11:02:56.831Z</time></trkpt><trkpt lat="40.2952383" lon="8.8030533"><ele>759.5</ele><time>2026-04-30T11:02:57.76Z</time></trkpt><trkpt lat="40.29522" lon="8.80286"><ele>758.0</ele><time>2026-04-30T11:02:58.763Z</time></trkpt><trkpt lat="40.2952033" lon="8.8026617"><ele>755.6666666666666</ele><time>2026-04-30T11:02:59.764Z</time></trkpt><trkpt lat="40.295195" lon="8.8024583"><ele>753.3333333333334</ele><time>2026-04-30T11:03:00.766Z</time></trkpt><trkpt lat="40.2951933" lon="8.8022567"><ele>751.0</ele><time>2026-04-30T11:03:01.759Z</time></trkpt><trkpt lat="40.295205" lon="8.8020517"><ele>751.0</ele><time>2026-04-30T11:03:02.815Z</time></trkpt><trkpt lat="40.2952167" lon="8.80185"><ele>751.0</ele><time>2026-04-30T11:03:03.759Z</time></trkpt><trkpt lat="40.295225" lon="8.8016517"><ele>751.0</ele><time>2026-04-30T11:03:04.76Z</time></trkpt><trkpt lat="40.2952383" lon="8.8014483"><ele>749.25</ele><time>2026-04-30T11:03:05.765Z</time></trkpt><trkpt lat="40.2952483" lon="8.8012467"><ele>747.5</ele><time>2026-04-30T11:03:06.76Z</time></trkpt><trkpt lat="40.295255" lon="8.80105"><ele>745.75</ele><time>2026-04-30T11:03:07.76Z</time></trkpt><trkpt lat="40.29526" lon="8.8008617"><ele>744.0</ele><time>2026-04-30T11:03:08.796Z</time></trkpt><trkpt lat="40.295265" lon="8.8006883"><ele>742.6</ele><time>2026-04-30T11:03:09.762Z</time></trkpt><trkpt lat="40.2952633" lon="8.8005333"><ele>741.2</ele><time>2026-04-30T11:03:10.761Z</time></trkpt><trkpt lat="40.295255" lon="8.8003917"><ele>739.8000000000001</ele><time>2026-04-30T11:03:11.762Z</time></trkpt><trkpt lat="40.2952233" lon="8.8002667"><ele>738.4000000000001</ele><time>2026-04-30T11:03:12.76Z</time></trkpt><trkpt lat="40.2951783" lon="8.8001433"><ele>737.0</ele><time>2026-04-30T11:03:13.765Z</time></trkpt><trkpt lat="40.2951067" lon="8.8000283"><ele>735.25</ele><time>2026-04-30T11:03:14.794Z</time></trkpt><trkpt lat="40.2950083" lon="8.7999167"><ele>733.5</ele><time>2026-04-30T11:03:15.759Z</time></trkpt><trkpt lat="40.294875" lon="8.7998167"><ele>731.75</ele><time>2026-04-30T11:03:16.767Z</time></trkpt><trkpt lat="40.2947367" lon="8.79972"><ele>730.0</ele><time>2026-04-30T11:03:17.762Z</time></trkpt><trkpt lat="40.2946133" lon="8.7996217"><ele>730.0</ele><time>2026-04-30T11:03:18.759Z</time></trkpt><trkpt lat="40.2945067" lon="8.79952"><ele>730.0</ele><time>2026-04-30T11:03:19.762Z</time></trkpt><trkpt lat="40.2944117" lon="8.7994117"><ele>730.0</ele><time>2026-04-30T11:03:20.8Z</time></trkpt><trkpt lat="40.2943317" lon="8.7992917"><ele>730.0</ele><time>2026-04-30T11:03:21.763Z</time></trkpt><trkpt lat="40.294265" lon="8.79916"><ele>727.6666666666667</ele><time>2026-04-30T11:03:22.763Z</time></trkpt><trkpt lat="40.2942233" lon="8.7989883"><ele>725.3333333333334</ele><time>2026-04-30T11:03:23.76Z</time></trkpt><trkpt lat="40.294195" lon="8.7987833"><ele>723.0</ele><time>2026-04-30T11:03:24.759Z</time></trkpt><trkpt lat="40.29418" lon="8.7985667"><ele>722.3333333333334</ele><time>2026-04-30T11:03:25.766Z</time></trkpt><trkpt lat="40.2941517" lon="8.7983517"><ele>721.6666666666667</ele><time>2026-04-30T11:03:26.831Z</time></trkpt><trkpt lat="40.2941183" lon="8.7981483"><ele>721.0</ele><time>2026-04-30T11:03:27.766Z</time></trkpt><trkpt lat="40.2940917" lon="8.7979617"><ele>721.0</ele><time>2026-04-30T11:03:28.764Z</time></trkpt><trkpt lat="40.294075" lon="8.7977783"><ele>721.0</ele><time>2026-04-30T11:03:29.76Z</time></trkpt><trkpt lat="40.2940717" lon="8.79761"><ele>721.0</ele><time>2026-04-30T11:03:30.767Z</time></trkpt><trkpt lat="40.2940883" lon="8.797445"><ele>721.0</ele><time>2026-04-30T11:03:31.76Z</time></trkpt><trkpt lat="40.29412" lon="8.7972767"><ele>720.5</ele><time>2026-04-30T11:03:32.79Z</time></trkpt><trkpt lat="40.2941517" lon="8.7970967"><ele>720.0</ele><time>2026-04-30T11:03:33.765Z</time></trkpt><trkpt lat="40.29418" lon="8.79691"><ele>719.5</ele><time>2026-04-30T11:03:34.765Z</time></trkpt><trkpt lat="40.2942083" lon="8.7967133"><ele>719.0</ele><time>2026-04-30T11:03:35.763Z</time></trkpt><trkpt lat="40.2942267" lon="8.7965067"><ele>717.75</ele><time>2026-04-30T11:03:36.762Z</time></trkpt><trkpt lat="40.2942367" lon="8.7963017"><ele>716.5</ele><time>2026-04-30T11:03:37.765Z</time></trkpt><trkpt lat="40.2942367" lon="8.7961083"><ele>715.25</ele><time>2026-04-30T11:03:38.802Z</time></trkpt><trkpt lat="40.2942267" lon="8.79592"><ele>714.0</ele><time>2026-04-30T11:03:39.762Z</time></trkpt><trkpt lat="40.2942067" lon="8.79574"><ele>712.75</ele><time>2026-04-30T11:03:40.762Z</time></trkpt><trkpt lat="40.2941767" lon="8.7955683"><ele>711.5</ele><time>2026-04-30T11:03:41.767Z</time></trkpt><trkpt lat="40.294145" lon="8.795405"><ele>710.25</ele><time>2026-04-30T11:03:42.761Z</time></trkpt><trkpt lat="40.294105" lon="8.7952483"><ele>709.0</ele><time>2026-04-30T11:03:43.763Z</time></trkpt><trkpt lat="40.2940683" lon="8.7951"><ele>708.4000000000001</ele><time>2026-04-30T11:03:44.795Z</time></trkpt><trkpt lat="40.2940267" lon="8.79496"><ele>707.8</ele><time>2026-04-30T11:03:45.767Z</time></trkpt><trkpt lat="40.2939917" lon="8.7948283"><ele>707.2</ele><time>2026-04-30T11:03:46.765Z</time></trkpt><trkpt lat="40.2939633" lon="8.7947017"><ele>706.5999999999999</ele><time>2026-04-30T11:03:47.767Z</time></trkpt><trkpt lat="40.293945" lon="8.7945817"><ele>706.0</ele><time>2026-04-30T11:03:48.764Z</time></trkpt><trkpt lat="40.29393" lon="8.7944683"><ele>706.0</ele><time>2026-04-30T11:03:49.761Z</time></trkpt><trkpt lat="40.2939183" lon="8.7943567"><ele>706.0</ele><time>2026-04-30T11:03:50.8Z</time></trkpt><trkpt lat="40.293905" lon="8.7942467"><ele>706.0</ele><time>2026-04-30T11:03:51.764Z</time></trkpt><trkpt lat="40.2938917" lon="8.7941367"><ele>706.0</ele><time>2026-04-30T11:03:52.763Z</time></trkpt><trkpt lat="40.2938817" lon="8.79403"><ele>706.0</ele><time>2026-04-30T11:03:53.764Z</time></trkpt><trkpt lat="40.2938683" lon="8.7939267"><ele>706.0</ele><time>2026-04-30T11:03:54.767Z</time></trkpt><trkpt lat="40.2938617" lon="8.7938233"><ele>706.0</ele><time>2026-04-30T11:03:55.764Z</time></trkpt><trkpt lat="40.2938583" lon="8.79372"><ele>706.0</ele><time>2026-04-30T11:03:56.828Z</time></trkpt><trkpt lat="40.2938583" lon="8.793625"><ele>706.0</ele><time>2026-04-30T11:03:57.764Z</time></trkpt><trkpt lat="40.29385" lon="8.7935383"><ele>706.0</ele><time>2026-04-30T11:03:58.764Z</time></trkpt><trkpt lat="40.2938417" lon="8.793455"><ele>706.0</ele><time>2026-04-30T11:03:59.762Z</time></trkpt><trkpt lat="40.2938167" lon="8.7933017"><ele>706.0</ele><time>2026-04-30T11:04:01.763Z</time></trkpt><trkpt lat="40.2937967" lon="8.79314"><ele>705.5</ele><time>2026-04-30T11:04:03.765Z</time></trkpt><trkpt lat="40.2937867" lon="8.7930467"><ele>705.0</ele><time>2026-04-30T11:04:04.762Z</time></trkpt><trkpt lat="40.2937717" lon="8.792945"><ele>704.5</ele><time>2026-04-30T11:04:05.761Z</time></trkpt><trkpt lat="40.2937533" lon="8.7928383"><ele>704.0</ele><time>2026-04-30T11:04:06.764Z</time></trkpt><trkpt lat="40.2937417" lon="8.7927283"><ele>703.5</ele><time>2026-04-30T11:04:07.765Z</time></trkpt><trkpt lat="40.293735" lon="8.792615"><ele>703.0</ele><time>2026-04-30T11:04:08.795Z</time></trkpt><trkpt lat="40.29374" lon="8.7925033"><ele>702.2</ele><time>2026-04-30T11:04:09.762Z</time></trkpt><trkpt lat="40.2937567" lon="8.7923917"><ele>701.4</ele><time>2026-04-30T11:04:10.763Z</time></trkpt><trkpt lat="40.2937867" lon="8.7922733"><ele>700.6</ele><time>2026-04-30T11:04:11.765Z</time></trkpt><trkpt lat="40.2938383" lon="8.7921567"><ele>699.8000000000001</ele><time>2026-04-30T11:04:12.764Z</time></trkpt><trkpt lat="40.293895" lon="8.7920317"><ele>699.0</ele><time>2026-04-30T11:04:13.764Z</time></trkpt><trkpt lat="40.2939617" lon="8.7919017"><ele>697.0</ele><time>2026-04-30T11:04:14.799Z</time></trkpt><trkpt lat="40.2940317" lon="8.7917717"><ele>695.0</ele><time>2026-04-30T11:04:15.764Z</time></trkpt><trkpt lat="40.2941083" lon="8.79163"><ele>693.0</ele><time>2026-04-30T11:04:16.764Z</time></trkpt><trkpt lat="40.2941933" lon="8.7914817"><ele>691.0</ele><time>2026-04-30T11:04:17.76Z</time></trkpt><trkpt lat="40.2942817" lon="8.7913267"><ele>691.0</ele><time>2026-04-30T11:04:18.76Z</time></trkpt><trkpt lat="40.2943717" lon="8.7911633"><ele>691.0</ele><time>2026-04-30T11:04:19.764Z</time></trkpt><trkpt lat="40.2944667" lon="8.7910017"><ele>691.0</ele><time>2026-04-30T11:04:20.799Z</time></trkpt><trkpt lat="40.2945667" lon="8.7908417"><ele>690.25</ele><time>2026-04-30T11:04:21.761Z</time></trkpt><trkpt lat="40.2946633" lon="8.7906917"><ele>689.5</ele><time>2026-04-30T11:04:22.764Z</time></trkpt><trkpt lat="40.2947533" lon="8.7905533"><ele>688.75</ele><time>2026-04-30T11:04:23.761Z</time></trkpt><trkpt lat="40.2948383" lon="8.79042"><ele>688.0</ele><time>2026-04-30T11:04:24.761Z</time></trkpt><trkpt lat="40.2949233" lon="8.7902983"><ele>687.8</ele><time>2026-04-30T11:04:25.764Z</time></trkpt><trkpt lat="40.2950067" lon="8.7901917"><ele>687.5999999999999</ele><time>2026-04-30T11:04:26.827Z</time></trkpt><trkpt lat="40.29509" lon="8.7901"><ele>687.4000000000001</ele><time>2026-04-30T11:04:27.76Z</time></trkpt><trkpt lat="40.2951683" lon="8.7900233"><ele>687.2</ele><time>2026-04-30T11:04:28.762Z</time></trkpt><trkpt lat="40.295245" lon="8.7899633"><ele>687.0</ele><time>2026-04-30T11:04:29.766Z</time></trkpt><trkpt lat="40.2953183" lon="8.7899233"><ele>687.0</ele><time>2026-04-30T11:04:30.761Z</time></trkpt><trkpt lat="40.2953883" lon="8.7899067"><ele>687.0</ele><time>2026-04-30T11:04:31.761Z</time></trkpt><trkpt lat="40.2954533" lon="8.7899383"><ele>687.0</ele><time>2026-04-30T11:04:32.827Z</time></trkpt><trkpt lat="40.2955133" lon="8.7900033"><ele>687.0</ele><time>2026-04-30T11:04:33.762Z</time></trkpt><trkpt lat="40.295555" lon="8.7901083"><ele>687.0</ele><time>2026-04-30T11:04:34.762Z</time></trkpt><trkpt lat="40.2955733" lon="8.79025"><ele>687.0</ele><time>2026-04-30T11:04:35.764Z</time></trkpt><trkpt lat="40.2956183" lon="8.7903883"><ele>685.4000000000001</ele><time>2026-04-30T11:04:36.762Z</time></trkpt><trkpt lat="40.295675" lon="8.7905033"><ele>683.8000000000001</ele><time>2026-04-30T11:04:37.76Z</time></trkpt><trkpt lat="40.2957483" lon="8.7905983"><ele>682.2</ele><time>2026-04-30T11:04:38.797Z</time></trkpt><trkpt lat="40.2958267" lon="8.7906983"><ele>680.6</ele><time>2026-04-30T11:04:39.765Z</time></trkpt><trkpt lat="40.2959233" lon="8.7907717"><ele>679.0</ele><time>2026-04-30T11:04:40.76Z</time></trkpt><trkpt lat="40.2960533" lon="8.790835"><ele>679.0</ele><time>2026-04-30T11:04:41.765Z</time></trkpt><trkpt lat="40.296175" lon="8.7908517"><ele>679.0</ele><time>2026-04-30T11:04:42.762Z</time></trkpt><trkpt lat="40.2963117" lon="8.7908483"><ele>679.0</ele><time>2026-04-30T11:04:43.764Z</time></trkpt><trkpt lat="40.296445" lon="8.79082"><ele>679.0</ele><time>2026-04-30T11:04:44.799Z</time></trkpt><trkpt lat="40.2965683" lon="8.7908167"><ele>677.25</ele><time>2026-04-30T11:04:45.764Z</time></trkpt><trkpt lat="40.2966883" lon="8.7908283"><ele>675.5</ele><time>2026-04-30T11:04:46.762Z</time></trkpt><trkpt lat="40.29682" lon="8.790855"><ele>673.75</ele><time>2026-04-30T11:04:47.765Z</time></trkpt><trkpt lat="40.2969567" lon="8.79091"><ele>672.0</ele><time>2026-04-30T11:04:48.76Z</time></trkpt><trkpt lat="40.2971017" lon="8.7909767"><ele>671.5</ele><time>2026-04-30T11:04:49.764Z</time></trkpt><trkpt lat="40.29722" lon="8.791065"><ele>671.0</ele><time>2026-04-30T11:04:50.798Z</time></trkpt><trkpt lat="40.29734" lon="8.79115"><ele>670.5</ele><time>2026-04-30T11:04:51.763Z</time></trkpt><trkpt lat="40.2974517" lon="8.7912233"><ele>670.0</ele><time>2026-04-30T11:04:52.765Z</time></trkpt><trkpt lat="40.2975533" lon="8.7912933"><ele>670.0</ele><time>2026-04-30T11:04:53.762Z</time></trkpt><trkpt lat="40.2976467" lon="8.7913333"><ele>670.0</ele><time>2026-04-30T11:04:54.763Z</time></trkpt><trkpt lat="40.2977383" lon="8.791345"><ele>670.0</ele><time>2026-04-30T11:04:55.759Z</time></trkpt><trkpt lat="40.29782" lon="8.7913067"><ele>670.0</ele><time>2026-04-30T11:04:56.829Z</time></trkpt><trkpt lat="40.2978833" lon="8.791205"><ele>670.0</ele><time>2026-04-30T11:04:57.759Z</time></trkpt><trkpt lat="40.2979383" lon="8.791"><ele>670.25</ele><time>2026-04-30T11:04:58.76Z</time></trkpt><trkpt lat="40.297995" lon="8.79083"><ele>670.5</ele><time>2026-04-30T11:04:59.761Z</time></trkpt><trkpt lat="40.2980483" lon="8.7906517"><ele>670.75</ele><time>2026-04-30T11:05:00.765Z</time></trkpt><trkpt lat="40.298095" lon="8.790455"><ele>671.0</ele><time>2026-04-30T11:05:01.764Z</time></trkpt><trkpt lat="40.29814" lon="8.7902567"><ele>668.3333333333333</ele><time>2026-04-30T11:05:02.813Z</time></trkpt><trkpt lat="40.298175" lon="8.7900517"><ele>665.6666666666666</ele><time>2026-04-30T11:05:03.76Z</time></trkpt><trkpt lat="40.2982017" lon="8.7898417"><ele>663.0</ele><time>2026-04-30T11:05:04.763Z</time></trkpt><trkpt lat="40.2982217" lon="8.78964"><ele>663.0</ele><time>2026-04-30T11:05:05.763Z</time></trkpt><trkpt lat="40.29824" lon="8.7894433"><ele>663.0</ele><time>2026-04-30T11:05:06.76Z</time></trkpt><trkpt lat="40.29826" lon="8.7892683"><ele>663.0</ele><time>2026-04-30T11:05:07.759Z</time></trkpt><trkpt lat="40.2982833" lon="8.789115"><ele>663.0</ele><time>2026-04-30T11:05:08.797Z</time></trkpt><trkpt lat="40.2983117" lon="8.7889683"><ele>661.0</ele><time>2026-04-30T11:05:09.762Z</time></trkpt><trkpt lat="40.29835" lon="8.7888283"><ele>659.0</ele><time>2026-04-30T11:05:10.759Z</time></trkpt><trkpt lat="40.298395" lon="8.7887033"><ele>657.0</ele><time>2026-04-30T11:05:11.762Z</time></trkpt><trkpt lat="40.2984583" lon="8.7886217"><ele>655.0</ele><time>2026-04-30T11:05:12.76Z</time></trkpt><trkpt lat="40.2985767" lon="8.78858"><ele>653.0</ele><time>2026-04-30T11:05:13.759Z</time></trkpt><trkpt lat="40.2986967" lon="8.7885683"><ele>653.0</ele><time>2026-04-30T11:05:14.799Z</time></trkpt><trkpt lat="40.2988433" lon="8.7885933"><ele>653.0</ele><time>2026-04-30T11:05:15.761Z</time></trkpt><trkpt lat="40.2989867" lon="8.788605"><ele>653.0</ele><time>2026-04-30T11:05:16.763Z</time></trkpt><trkpt lat="40.2992417" lon="8.788655"><ele>652.3333333333333</ele><time>2026-04-30T11:05:17.763Z</time></trkpt><trkpt lat="40.2994483" lon="8.7887583"><ele>651.6666666666666</ele><time>2026-04-30T11:05:18.764Z</time></trkpt><trkpt lat="40.2996017" lon="8.788825"><ele>651.0</ele><time>2026-04-30T11:05:19.76Z</time></trkpt><trkpt lat="40.29973" lon="8.788875"><ele>649.5999999999999</ele><time>2026-04-30T11:05:20.797Z</time></trkpt><trkpt lat="40.2998417" lon="8.7889233"><ele>648.2</ele><time>2026-04-30T11:05:21.767Z</time></trkpt><trkpt lat="40.2999483" lon="8.78895"><ele>646.8</ele><time>2026-04-30T11:05:22.762Z</time></trkpt><trkpt lat="40.30005" lon="8.788945"><ele>645.4000000000001</ele><time>2026-04-30T11:05:23.76Z</time></trkpt><trkpt lat="40.3001433" lon="8.7889033"><ele>644.0</ele><time>2026-04-30T11:05:24.759Z</time></trkpt><trkpt lat="40.30023" lon="8.7887717"><ele>644.0</ele><time>2026-04-30T11:05:25.759Z</time></trkpt><trkpt lat="40.30031" lon="8.78866"><ele>644.0</ele><time>2026-04-30T11:05:26.818Z</time></trkpt><trkpt lat="40.3003867" lon="8.7885483"><ele>644.0</ele><time>2026-04-30T11:05:27.76Z</time></trkpt><trkpt lat="40.30047" lon="8.7884333"><ele>644.0</ele><time>2026-04-30T11:05:28.762Z</time></trkpt><trkpt lat="40.3005667" lon="8.7883067"><ele>643.6666666666666</ele><time>2026-04-30T11:05:29.764Z</time></trkpt><trkpt lat="40.3006583" lon="8.7881567"><ele>643.3333333333334</ele><time>2026-04-30T11:05:30.765Z</time></trkpt><trkpt lat="40.3007483" lon="8.78799"><ele>643.0</ele><time>2026-04-30T11:05:31.76Z</time></trkpt><trkpt lat="40.30082" lon="8.7878"><ele>643.0</ele><time>2026-04-30T11:05:32.763Z</time></trkpt><trkpt lat="40.3008783" lon="8.7875817"><ele>643.0</ele><time>2026-04-30T11:05:33.76Z</time></trkpt><trkpt lat="40.30092" lon="8.7873417"><ele>643.0</ele><time>2026-04-30T11:05:34.763Z</time></trkpt><trkpt lat="40.3009583" lon="8.7870983"><ele>643.0</ele><time>2026-04-30T11:05:35.762Z</time></trkpt><trkpt lat="40.3009967" lon="8.786865"><ele>643.0</ele><time>2026-04-30T11:05:36.762Z</time></trkpt><trkpt lat="40.301025" lon="8.78663"><ele>643.0</ele><time>2026-04-30T11:05:37.76Z</time></trkpt><trkpt lat="40.301055" lon="8.7864033"><ele>643.6666666666667</ele><time>2026-04-30T11:05:38.795Z</time></trkpt><trkpt lat="40.3010683" lon="8.7861783"><ele>644.3333333333334</ele><time>2026-04-30T11:05:39.759Z</time></trkpt><trkpt lat="40.3010617" lon="8.78595"><ele>645.0</ele><time>2026-04-30T11:05:40.757Z</time></trkpt><trkpt lat="40.30104" lon="8.7857133"><ele>647.0</ele><time>2026-04-30T11:05:41.76Z</time></trkpt><trkpt lat="40.3010133" lon="8.7854767"><ele>649.0</ele><time>2026-04-30T11:05:42.763Z</time></trkpt><trkpt lat="40.3009867" lon="8.7852467"><ele>651.0</ele><time>2026-04-30T11:05:43.764Z</time></trkpt><trkpt lat="40.3009733" lon="8.7850233"><ele>652.6666666666666</ele><time>2026-04-30T11:05:44.797Z</time></trkpt><trkpt lat="40.30098" lon="8.7848083"><ele>654.3333333333333</ele><time>2026-04-30T11:05:45.764Z</time></trkpt><trkpt lat="40.3010033" lon="8.78459"><ele>656.0</ele><time>2026-04-30T11:05:46.763Z</time></trkpt><trkpt lat="40.30103" lon="8.784375"><ele>655.6666666666666</ele><time>2026-04-30T11:05:47.765Z</time></trkpt><trkpt lat="40.3010517" lon="8.784165"><ele>655.3333333333334</ele><time>2026-04-30T11:05:48.759Z</time></trkpt><trkpt lat="40.3010583" lon="8.7839567"><ele>655.0</ele><time>2026-04-30T11:05:49.761Z</time></trkpt><trkpt lat="40.3010433" lon="8.78375"><ele>655.0</ele><time>2026-04-30T11:05:50.799Z</time></trkpt><trkpt lat="40.301" lon="8.7835483"><ele>655.0</ele><time>2026-04-30T11:05:51.759Z</time></trkpt><trkpt lat="40.30093" lon="8.7833483"><ele>655.0</ele><time>2026-04-30T11:05:52.761Z</time></trkpt><trkpt lat="40.3008517" lon="8.7831383"><ele>656.3333333333334</ele><time>2026-04-30T11:05:53.761Z</time></trkpt><trkpt lat="40.300755" lon="8.782935"><ele>657.6666666666666</ele><time>2026-04-30T11:05:54.76Z</time></trkpt><trkpt lat="40.3006633" lon="8.7827417"><ele>659.0</ele><time>2026-04-30T11:05:55.762Z</time></trkpt><trkpt lat="40.3005783" lon="8.78256"><ele>659.5</ele><time>2026-04-30T11:05:56.792Z</time></trkpt><trkpt lat="40.3005033" lon="8.7823883"><ele>660.0</ele><time>2026-04-30T11:05:57.761Z</time></trkpt><trkpt lat="40.30044" lon="8.78222"><ele>660.5</ele><time>2026-04-30T11:05:58.762Z</time></trkpt><trkpt lat="40.3004" lon="8.782055"><ele>661.0</ele><time>2026-04-30T11:05:59.766Z</time></trkpt><trkpt lat="40.30038" lon="8.7818783"><ele>661.6666666666667</ele><time>2026-04-30T11:06:00.763Z</time></trkpt><trkpt lat="40.30037" lon="8.7816917"><ele>662.3333333333334</ele><time>2026-04-30T11:06:01.763Z</time></trkpt><trkpt lat="40.3003683" lon="8.7814933"><ele>663.0</ele><time>2026-04-30T11:06:02.791Z</time></trkpt><trkpt lat="40.3003683" lon="8.78128"><ele>663.0</ele><time>2026-04-30T11:06:03.76Z</time></trkpt><trkpt lat="40.3003717" lon="8.7810583"><ele>663.0</ele><time>2026-04-30T11:06:04.76Z</time></trkpt><trkpt lat="40.3003817" lon="8.7808383"><ele>663.0</ele><time>2026-04-30T11:06:05.763Z</time></trkpt><trkpt lat="40.3003917" lon="8.7806267"><ele>662.75</ele><time>2026-04-30T11:06:06.764Z</time></trkpt><trkpt lat="40.3004033" lon="8.7804233"><ele>662.5</ele><time>2026-04-30T11:06:07.76Z</time></trkpt><trkpt lat="40.3004133" lon="8.7802317"><ele>662.25</ele><time>2026-04-30T11:06:08.796Z</time></trkpt><trkpt lat="40.300425" lon="8.7800533"><ele>662.0</ele><time>2026-04-30T11:06:09.76Z</time></trkpt><trkpt lat="40.3004383" lon="8.77988"><ele>662.0</ele><time>2026-04-30T11:06:10.76Z</time></trkpt><trkpt lat="40.30045" lon="8.7797183"><ele>662.0</ele><time>2026-04-30T11:06:11.763Z</time></trkpt><trkpt lat="40.30046" lon="8.779565"><ele>662.0</ele><time>2026-04-30T11:06:12.762Z</time></trkpt><trkpt lat="40.30047" lon="8.7794217"><ele>662.0</ele><time>2026-04-30T11:06:13.765Z</time></trkpt><trkpt lat="40.30048" lon="8.7792917"><ele>661.8</ele><time>2026-04-30T11:06:14.797Z</time></trkpt><trkpt lat="40.30049" lon="8.779185"><ele>661.6</ele><time>2026-04-30T11:06:15.759Z</time></trkpt><trkpt lat="40.30053" lon="8.7790533"><ele>661.4</ele><time>2026-04-30T11:06:17.76Z</time></trkpt><trkpt lat="40.3005683" lon="8.7789867"><ele>661.1999999999999</ele><time>2026-04-30T11:06:19.761Z</time></trkpt><trkpt lat="40.3006783" lon="8.7790033"><ele>661.0</ele><time>2026-04-30T11:07:11.763Z</time></trkpt><trkpt lat="40.3008083" lon="8.7790417"><ele>661.0</ele><time>2026-04-30T11:07:13.761Z</time></trkpt><trkpt lat="40.3009" lon="8.7790667"><ele>661.0</ele><time>2026-04-30T11:07:14.801Z</time></trkpt><trkpt lat="40.3010133" lon="8.7790967"><ele>661.0</ele><time>2026-04-30T11:07:15.763Z</time></trkpt><trkpt lat="40.301135" lon="8.7791283"><ele>661.0</ele><time>2026-04-30T11:07:16.764Z</time></trkpt><trkpt lat="40.3012733" lon="8.7791683"><ele>661.3333333333334</ele><time>2026-04-30T11:07:17.766Z</time></trkpt><trkpt lat="40.3014183" lon="8.7792067"><ele>661.6666666666666</ele><time>2026-04-30T11:07:18.764Z</time></trkpt><trkpt lat="40.301585" lon="8.7792483"><ele>662.0</ele><time>2026-04-30T11:07:19.765Z</time></trkpt><trkpt lat="40.3017733" lon="8.77931"><ele>662.3333333333333</ele><time>2026-04-30T11:07:20.8Z</time></trkpt><trkpt lat="40.301965" lon="8.7793617"><ele>662.6666666666666</ele><time>2026-04-30T11:07:21.763Z</time></trkpt><trkpt lat="40.3021533" lon="8.7794183"><ele>663.0</ele><time>2026-04-30T11:07:22.764Z</time></trkpt><trkpt lat="40.3023383" lon="8.7794717"><ele>663.0</ele><time>2026-04-30T11:07:23.763Z</time></trkpt><trkpt lat="40.3025267" lon="8.7795283"><ele>663.0</ele><time>2026-04-30T11:07:24.764Z</time></trkpt><trkpt lat="40.302715" lon="8.77957"><ele>663.0</ele><time>2026-04-30T11:07:25.767Z</time></trkpt><trkpt lat="40.3029117" lon="8.77962"><ele>662.6666666666666</ele><time>2026-04-30T11:07:26.83Z</time></trkpt><trkpt lat="40.30311" lon="8.77967"><ele>662.3333333333333</ele><time>2026-04-30T11:07:27.774Z</time></trkpt><trkpt lat="40.303315" lon="8.7797233"><ele>662.0</ele><time>2026-04-30T11:07:28.766Z</time></trkpt><trkpt lat="40.3035233" lon="8.7797867"><ele>662.0</ele><time>2026-04-30T11:07:29.767Z</time></trkpt><trkpt lat="40.3037333" lon="8.7798483"><ele>662.0</ele><time>2026-04-30T11:07:30.767Z</time></trkpt><trkpt lat="40.30395" lon="8.779905"><ele>662.0</ele><time>2026-04-30T11:07:31.763Z</time></trkpt><trkpt lat="40.3041683" lon="8.7799633"><ele>661.5</ele><time>2026-04-30T11:07:32.818Z</time></trkpt><trkpt lat="40.3043917" lon="8.780025"><ele>661.0</ele><time>2026-04-30T11:07:33.763Z</time></trkpt><trkpt lat="40.3046167" lon="8.780085"><ele>661.0</ele><time>2026-04-30T11:07:34.761Z</time></trkpt><trkpt lat="40.3048417" lon="8.7801467"><ele>661.0</ele><time>2026-04-30T11:07:35.759Z</time></trkpt><trkpt lat="40.3050667" lon="8.78021"><ele>661.0</ele><time>2026-04-30T11:07:36.763Z</time></trkpt><trkpt lat="40.30529" lon="8.780275"><ele>661.0</ele><time>2026-04-30T11:07:37.758Z</time></trkpt><trkpt lat="40.3055117" lon="8.7803383"><ele>661.5</ele><time>2026-04-30T11:07:38.799Z</time></trkpt><trkpt lat="40.3057317" lon="8.7804"><ele>662.0</ele><time>2026-04-30T11:07:39.766Z</time></trkpt><trkpt lat="40.3059533" lon="8.78046"><ele>662.0</ele><time>2026-04-30T11:07:40.762Z</time></trkpt><trkpt lat="40.3061817" lon="8.7805217"><ele>662.0</ele><time>2026-04-30T11:07:41.765Z</time></trkpt><trkpt lat="40.3064083" lon="8.780585"><ele>662.5</ele><time>2026-04-30T11:07:42.765Z</time></trkpt><trkpt lat="40.3066317" lon="8.7806367"><ele>663.0</ele><time>2026-04-30T11:07:43.765Z</time></trkpt><trkpt lat="40.3068517" lon="8.780695"><ele>663.0</ele><time>2026-04-30T11:07:44.801Z</time></trkpt><trkpt lat="40.3070683" lon="8.7807533"><ele>663.0</ele><time>2026-04-30T11:07:45.759Z</time></trkpt><trkpt lat="40.3072833" lon="8.78082"><ele>663.0</ele><time>2026-04-30T11:07:46.763Z</time></trkpt><trkpt lat="40.3074983" lon="8.7808883"><ele>663.0</ele><time>2026-04-30T11:07:47.764Z</time></trkpt><trkpt lat="40.3077167" lon="8.7809417"><ele>663.0</ele><time>2026-04-30T11:07:48.764Z</time></trkpt><trkpt lat="40.3079283" lon="8.7810067"><ele>663.0</ele><time>2026-04-30T11:07:49.764Z</time></trkpt><trkpt lat="40.3081417" lon="8.7810717"><ele>663.3333333333334</ele><time>2026-04-30T11:07:50.798Z</time></trkpt><trkpt lat="40.3083517" lon="8.78114"><ele>663.6666666666667</ele><time>2026-04-30T11:07:51.763Z</time></trkpt><trkpt lat="40.308575" lon="8.7811917"><ele>664.0</ele><time>2026-04-30T11:07:52.763Z</time></trkpt><trkpt lat="40.3088017" lon="8.7812367"><ele>663.6666666666667</ele><time>2026-04-30T11:07:53.765Z</time></trkpt><trkpt lat="40.3090267" lon="8.7812983"><ele>663.3333333333334</ele><time>2026-04-30T11:07:54.762Z</time></trkpt><trkpt lat="40.309235" lon="8.7813717"><ele>663.0</ele><time>2026-04-30T11:07:55.764Z</time></trkpt><trkpt lat="40.30945" lon="8.7814317"><ele>663.0</ele><time>2026-04-30T11:07:56.816Z</time></trkpt><trkpt lat="40.30966" lon="8.7814917"><ele>663.0</ele><time>2026-04-30T11:07:57.765Z</time></trkpt><trkpt lat="40.3098733" lon="8.7815467"><ele>663.0</ele><time>2026-04-30T11:07:58.763Z</time></trkpt><trkpt lat="40.310085" lon="8.781605"><ele>663.0</ele><time>2026-04-30T11:07:59.766Z</time></trkpt><trkpt lat="40.3103" lon="8.7816633"><ele>663.0</ele><time>2026-04-30T11:08:00.763Z</time></trkpt><trkpt lat="40.31051" lon="8.7817267"><ele>663.0</ele><time>2026-04-30T11:08:01.764Z</time></trkpt><trkpt lat="40.310725" lon="8.781785"><ele>663.0</ele><time>2026-04-30T11:08:02.819Z</time></trkpt><trkpt lat="40.3109383" lon="8.7818417"><ele>663.0</ele><time>2026-04-30T11:08:03.761Z</time></trkpt><trkpt lat="40.3111517" lon="8.7819"><ele>663.0</ele><time>2026-04-30T11:08:04.761Z</time></trkpt><trkpt lat="40.3113583" lon="8.7819617"><ele>663.6666666666666</ele><time>2026-04-30T11:08:05.762Z</time></trkpt><trkpt lat="40.3115733" lon="8.7820183"><ele>664.3333333333333</ele><time>2026-04-30T11:08:06.765Z</time></trkpt><trkpt lat="40.3117817" lon="8.782075"><ele>665.0</ele><time>2026-04-30T11:08:07.764Z</time></trkpt><trkpt lat="40.311995" lon="8.782135"><ele>665.0</ele><time>2026-04-30T11:08:08.799Z</time></trkpt><trkpt lat="40.3122133" lon="8.7821933"><ele>665.0</ele><time>2026-04-30T11:08:09.762Z</time></trkpt><trkpt lat="40.312435" lon="8.7822533"><ele>665.0</ele><time>2026-04-30T11:08:10.764Z</time></trkpt><trkpt lat="40.3126533" lon="8.7823167"><ele>664.3333333333333</ele><time>2026-04-30T11:08:11.768Z</time></trkpt><trkpt lat="40.31287" lon="8.7823817"><ele>663.6666666666666</ele><time>2026-04-30T11:08:12.766Z</time></trkpt><trkpt lat="40.3130917" lon="8.78244"><ele>663.0</ele><time>2026-04-30T11:08:13.767Z</time></trkpt><trkpt lat="40.3133083" lon="8.7825017"><ele>662.6666666666666</ele><time>2026-04-30T11:08:14.799Z</time></trkpt><trkpt lat="40.31353" lon="8.7825633"><ele>662.3333333333333</ele><time>2026-04-30T11:08:15.764Z</time></trkpt><trkpt lat="40.3137483" lon="8.78262"><ele>662.0</ele><time>2026-04-30T11:08:16.763Z</time></trkpt><trkpt lat="40.313975" lon="8.78268"><ele>661.6666666666666</ele><time>2026-04-30T11:08:17.761Z</time></trkpt><trkpt lat="40.3141867" lon="8.7827467"><ele>661.3333333333334</ele><time>2026-04-30T11:08:18.766Z</time></trkpt><trkpt lat="40.314405" lon="8.7827967"><ele>661.0</ele><time>2026-04-30T11:08:19.766Z</time></trkpt><trkpt lat="40.3146233" lon="8.7828417"><ele>660.0</ele><time>2026-04-30T11:08:20.801Z</time></trkpt><trkpt lat="40.314865" lon="8.7829317"><ele>659.0</ele><time>2026-04-30T11:08:21.763Z</time></trkpt><trkpt lat="40.3150683" lon="8.7829767"><ele>659.0</ele><time>2026-04-30T11:08:22.762Z</time></trkpt><trkpt lat="40.3152667" lon="8.7830283"><ele>659.0</ele><time>2026-04-30T11:08:23.765Z</time></trkpt><trkpt lat="40.3154733" lon="8.783085"><ele>659.0</ele><time>2026-04-30T11:08:24.765Z</time></trkpt><trkpt lat="40.3156867" lon="8.78314"><ele>658.6666666666666</ele><time>2026-04-30T11:08:25.76Z</time></trkpt><trkpt lat="40.3159" lon="8.7832083"><ele>658.3333333333334</ele><time>2026-04-30T11:08:26.794Z</time></trkpt><trkpt lat="40.3161033" lon="8.7832683"><ele>658.0</ele><time>2026-04-30T11:08:27.764Z</time></trkpt><trkpt lat="40.3163117" lon="8.7833233"><ele>658.0</ele><time>2026-04-30T11:08:28.764Z</time></trkpt><trkpt lat="40.3165217" lon="8.7833883"><ele>658.0</ele><time>2026-04-30T11:08:29.764Z</time></trkpt><trkpt lat="40.316735" lon="8.783445"><ele>658.0</ele><time>2026-04-30T11:08:30.763Z</time></trkpt><trkpt lat="40.3169533" lon="8.7834983"><ele>658.0</ele><time>2026-04-30T11:08:31.765Z</time></trkpt><trkpt lat="40.317165" lon="8.7835533"><ele>658.0</ele><time>2026-04-30T11:08:32.815Z</time></trkpt><trkpt lat="40.3173767" lon="8.7836183"><ele>658.0</ele><time>2026-04-30T11:08:33.761Z</time></trkpt><trkpt lat="40.31759" lon="8.783675"><ele>658.0</ele><time>2026-04-30T11:08:34.764Z</time></trkpt><trkpt lat="40.3178067" lon="8.78373"><ele>658.0</ele><time>2026-04-30T11:08:35.763Z</time></trkpt><trkpt lat="40.3180217" lon="8.7837867"><ele>658.0</ele><time>2026-04-30T11:08:36.763Z</time></trkpt><trkpt lat="40.31824" lon="8.7838383"><ele>657.6666666666667</ele><time>2026-04-30T11:08:37.762Z</time></trkpt><trkpt lat="40.3184467" lon="8.7839067"><ele>657.3333333333334</ele><time>2026-04-30T11:08:38.799Z</time></trkpt><trkpt lat="40.318665" lon="8.783965"><ele>657.0</ele><time>2026-04-30T11:08:39.76Z</time></trkpt><trkpt lat="40.318885" lon="8.7840283"><ele>656.3333333333334</ele><time>2026-04-30T11:08:40.763Z</time></trkpt><trkpt lat="40.3191017" lon="8.784095"><ele>655.6666666666667</ele><time>2026-04-30T11:08:41.763Z</time></trkpt><trkpt lat="40.3193233" lon="8.7841583"><ele>655.0</ele><time>2026-04-30T11:08:42.76Z</time></trkpt><trkpt lat="40.319555" lon="8.7842317"><ele>654.3333333333334</ele><time>2026-04-30T11:08:43.763Z</time></trkpt><trkpt lat="40.3197733" lon="8.7842983"><ele>653.6666666666666</ele><time>2026-04-30T11:08:44.796Z</time></trkpt><trkpt lat="40.31999" lon="8.7843683"><ele>653.0</ele><time>2026-04-30T11:08:45.762Z</time></trkpt><trkpt lat="40.3202117" lon="8.7844367"><ele>653.0</ele><time>2026-04-30T11:08:46.765Z</time></trkpt><trkpt lat="40.3204417" lon="8.7845117"><ele>653.0</ele><time>2026-04-30T11:08:47.767Z</time></trkpt><trkpt lat="40.3206717" lon="8.7845917"><ele>653.5</ele><time>2026-04-30T11:08:48.766Z</time></trkpt><trkpt lat="40.3208933" lon="8.784665"><ele>654.0</ele><time>2026-04-30T11:08:49.76Z</time></trkpt><trkpt lat="40.321125" lon="8.78473"><ele>654.0</ele><time>2026-04-30T11:08:50.8Z</time></trkpt><trkpt lat="40.3213517" lon="8.7848133"><ele>654.0</ele><time>2026-04-30T11:08:51.763Z</time></trkpt><trkpt lat="40.3215833" lon="8.7848833"><ele>654.0</ele><time>2026-04-30T11:08:52.764Z</time></trkpt><trkpt lat="40.3218217" lon="8.784955"><ele>654.0</ele><time>2026-04-30T11:08:53.765Z</time></trkpt><trkpt lat="40.3220567" lon="8.785025"><ele>654.0</ele><time>2026-04-30T11:08:54.763Z</time></trkpt><trkpt lat="40.322285" lon="8.7850833"><ele>654.0</ele><time>2026-04-30T11:08:55.764Z</time></trkpt><trkpt lat="40.3225183" lon="8.785155"><ele>653.0</ele><time>2026-04-30T11:08:56.792Z</time></trkpt><trkpt lat="40.322755" lon="8.785225"><ele>652.0</ele><time>2026-04-30T11:08:57.765Z</time></trkpt><trkpt lat="40.3229883" lon="8.7852983"><ele>652.0</ele><time>2026-04-30T11:08:58.766Z</time></trkpt><trkpt lat="40.3232217" lon="8.7853667"><ele>652.0</ele><time>2026-04-30T11:08:59.764Z</time></trkpt><trkpt lat="40.3234467" lon="8.7854417"><ele>652.0</ele><time>2026-04-30T11:09:00.763Z</time></trkpt><trkpt lat="40.3236817" lon="8.7855067"><ele>652.0</ele><time>2026-04-30T11:09:01.761Z</time></trkpt><trkpt lat="40.3239133" lon="8.78558"><ele>653.0</ele><time>2026-04-30T11:09:02.793Z</time></trkpt><trkpt lat="40.3241483" lon="8.7856467"><ele>654.0</ele><time>2026-04-30T11:09:03.764Z</time></trkpt><trkpt lat="40.324385" lon="8.7857167"><ele>654.0</ele><time>2026-04-30T11:09:04.763Z</time></trkpt><trkpt lat="40.3246233" lon="8.7857717"><ele>654.0</ele><time>2026-04-30T11:09:05.779Z</time></trkpt><trkpt lat="40.3248617" lon="8.7858367"><ele>654.0</ele><time>2026-04-30T11:09:06.766Z</time></trkpt><trkpt lat="40.3250933" lon="8.7858983"><ele>654.0</ele><time>2026-04-30T11:09:07.765Z</time></trkpt><trkpt lat="40.325335" lon="8.7859583"><ele>653.5</ele><time>2026-04-30T11:09:08.797Z</time></trkpt><trkpt lat="40.3255717" lon="8.7860183"><ele>653.0</ele><time>2026-04-30T11:09:09.766Z</time></trkpt><trkpt lat="40.3258017" lon="8.7860833"><ele>653.0</ele><time>2026-04-30T11:09:10.766Z</time></trkpt><trkpt lat="40.3260367" lon="8.7861567"><ele>653.0</ele><time>2026-04-30T11:09:11.761Z</time></trkpt><trkpt lat="40.3262817" lon="8.7862117"><ele>653.5</ele><time>2026-04-30T11:09:12.765Z</time></trkpt><trkpt lat="40.3265233" lon="8.7862717"><ele>654.0</ele><time>2026-04-30T11:09:13.765Z</time></trkpt><trkpt lat="40.3267633" lon="8.7863317"><ele>654.0</ele><time>2026-04-30T11:09:14.799Z</time></trkpt><trkpt lat="40.3269817" lon="8.7864017"><ele>654.0</ele><time>2026-04-30T11:09:15.76Z</time></trkpt><trkpt lat="40.327195" lon="8.7864567"><ele>654.0</ele><time>2026-04-30T11:09:16.762Z</time></trkpt><trkpt lat="40.327395" lon="8.786515"><ele>654.6666666666666</ele><time>2026-04-30T11:09:17.762Z</time></trkpt><trkpt lat="40.3275833" lon="8.78657"><ele>655.3333333333333</ele><time>2026-04-30T11:09:18.765Z</time></trkpt><trkpt lat="40.3277667" lon="8.7866233"><ele>656.0</ele><time>2026-04-30T11:09:19.765Z</time></trkpt><trkpt lat="40.3279383" lon="8.7866683"><ele>656.6666666666666</ele><time>2026-04-30T11:09:20.795Z</time></trkpt><trkpt lat="40.3281033" lon="8.7867117"><ele>657.3333333333334</ele><time>2026-04-30T11:09:21.763Z</time></trkpt><trkpt lat="40.3282617" lon="8.78675"><ele>658.0</ele><time>2026-04-30T11:09:22.765Z</time></trkpt><trkpt lat="40.3284133" lon="8.7867883"><ele>658.0</ele><time>2026-04-30T11:09:23.764Z</time></trkpt><trkpt lat="40.3285533" lon="8.786825"><ele>658.0</ele><time>2026-04-30T11:09:24.761Z</time></trkpt><trkpt lat="40.32869" lon="8.7868417"><ele>658.0</ele><time>2026-04-30T11:09:25.763Z</time></trkpt><trkpt lat="40.3288" lon="8.7868783"><ele>658.0</ele><time>2026-04-30T11:09:26.794Z</time></trkpt><trkpt lat="40.3289133" lon="8.78691"><ele>658.0</ele><time>2026-04-30T11:09:27.763Z</time></trkpt><trkpt lat="40.3290233" lon="8.7869467"><ele>658.0</ele><time>2026-04-30T11:09:28.762Z</time></trkpt><trkpt lat="40.32913" lon="8.7869867"><ele>658.0</ele><time>2026-04-30T11:09:29.764Z</time></trkpt><trkpt lat="40.3292117" lon="8.7870583"><ele>658.0</ele><time>2026-04-30T11:09:30.764Z</time></trkpt><trkpt lat="40.329285" lon="8.7871467"><ele>658.0</ele><time>2026-04-30T11:09:31.762Z</time></trkpt><trkpt lat="40.3293183" lon="8.7872783"><ele>658.0</ele><time>2026-04-30T11:09:32.795Z</time></trkpt><trkpt lat="40.3293483" lon="8.78742"><ele>658.0</ele><time>2026-04-30T11:09:33.766Z</time></trkpt><trkpt lat="40.3293633" lon="8.7875483"><ele>658.0</ele><time>2026-04-30T11:09:34.762Z</time></trkpt><trkpt lat="40.329375" lon="8.7876617"><ele>658.0</ele><time>2026-04-30T11:09:35.759Z</time></trkpt><trkpt lat="40.3292917" lon="8.7878017"><ele>658.0</ele><time>2026-04-30T11:09:36.762Z</time></trkpt><trkpt lat="40.329215" lon="8.7879283"><ele>658.0</ele><time>2026-04-30T11:09:37.762Z</time></trkpt><trkpt lat="40.3291317" lon="8.7880333"><ele>658.0</ele><time>2026-04-30T11:09:38.799Z</time></trkpt><trkpt lat="40.329035" lon="8.78813"><ele>658.0</ele><time>2026-04-30T11:09:39.761Z</time></trkpt><trkpt lat="40.3289317" lon="8.7882083"><ele>658.0</ele><time>2026-04-30T11:09:40.762Z</time></trkpt><trkpt lat="40.3287783" lon="8.7881817"><ele>656.6666666666667</ele><time>2026-04-30T11:09:41.762Z</time></trkpt><trkpt lat="40.3286383" lon="8.7881017"><ele>655.3333333333334</ele><time>2026-04-30T11:09:42.763Z</time></trkpt><trkpt lat="40.3284833" lon="8.787995"><ele>654.0</ele><time>2026-04-30T11:09:43.759Z</time></trkpt><trkpt lat="40.32832" lon="8.7878717"><ele>654.0</ele><time>2026-04-30T11:09:44.799Z</time></trkpt><trkpt lat="40.3281517" lon="8.7877383"><ele>654.0</ele><time>2026-04-30T11:09:45.757Z</time></trkpt><trkpt lat="40.327995" lon="8.7876083"><ele>654.0</ele><time>2026-04-30T11:09:46.762Z</time></trkpt><trkpt lat="40.3278517" lon="8.787475"><ele>654.0</ele><time>2026-04-30T11:09:47.762Z</time></trkpt><trkpt lat="40.32773" lon="8.787355"><ele>654.0</ele><time>2026-04-30T11:09:48.758Z</time></trkpt><trkpt lat="40.3276417" lon="8.7872217"><ele>654.0</ele><time>2026-04-30T11:09:49.762Z</time></trkpt><trkpt lat="40.3275633" lon="8.7870733"><ele>654.0</ele><time>2026-04-30T11:09:50.801Z</time></trkpt><trkpt lat="40.32752" lon="8.7869017"><ele>654.4000000000001</ele><time>2026-04-30T11:09:51.76Z</time></trkpt><trkpt lat="40.3274983" lon="8.7867483"><ele>654.8</ele><time>2026-04-30T11:09:52.763Z</time></trkpt><trkpt lat="40.3274917" lon="8.78661"><ele>655.2</ele><time>2026-04-30T11:09:53.763Z</time></trkpt><trkpt lat="40.32749" lon="8.7864817"><ele>655.5999999999999</ele><time>2026-04-30T11:09:54.761Z</time></trkpt><trkpt lat="40.327515" lon="8.7863417"><ele>656.0</ele><time>2026-04-30T11:09:55.759Z</time></trkpt><trkpt lat="40.3275433" lon="8.7862083"><ele>656.0</ele><time>2026-04-30T11:09:56.829Z</time></trkpt><trkpt lat="40.3275817" lon="8.7860883"><ele>656.0</ele><time>2026-04-30T11:09:57.761Z</time></trkpt><trkpt lat="40.32764" lon="8.7859883"><ele>656.0</ele><time>2026-04-30T11:09:58.763Z</time></trkpt><trkpt lat="40.327725" lon="8.78592"><ele>656.0</ele><time>2026-04-30T11:09:59.76Z</time></trkpt><trkpt lat="40.3278383" lon="8.7858817"><ele>656.0</ele><time>2026-04-30T11:10:00.765Z</time></trkpt><trkpt lat="40.32798" lon="8.785865"><ele>656.3333333333333</ele><time>2026-04-30T11:10:01.764Z</time></trkpt><trkpt lat="40.3281333" lon="8.7858567"><ele>656.6666666666666</ele><time>2026-04-30T11:10:02.765Z</time></trkpt><trkpt lat="40.3282883" lon="8.7858617"><ele>657.0</ele><time>2026-04-30T11:10:03.763Z</time></trkpt><trkpt lat="40.32847" lon="8.7858733"><ele>657.0</ele><time>2026-04-30T11:10:04.762Z</time></trkpt><trkpt lat="40.3286483" lon="8.7858733"><ele>657.0</ele><time>2026-04-30T11:10:05.762Z</time></trkpt><trkpt lat="40.328825" lon="8.7858783"><ele>657.0</ele><time>2026-04-30T11:10:06.763Z</time></trkpt><trkpt lat="40.3289867" lon="8.785885"><ele>657.0</ele><time>2026-04-30T11:10:07.762Z</time></trkpt><trkpt lat="40.3291333" lon="8.7858983"><ele>657.0</ele><time>2026-04-30T11:10:08.802Z</time></trkpt><trkpt lat="40.3292683" lon="8.7859233"><ele>657.0</ele><time>2026-04-30T11:10:09.761Z</time></trkpt><trkpt lat="40.3293917" lon="8.78596"><ele>657.0</ele><time>2026-04-30T11:10:10.763Z</time></trkpt><trkpt lat="40.3294983" lon="8.7860033"><ele>657.2</ele><time>2026-04-30T11:10:11.763Z</time></trkpt><trkpt lat="40.3295483" lon="8.786105"><ele>657.4000000000001</ele><time>2026-04-30T11:10:12.76Z</time></trkpt><trkpt lat="40.3295767" lon="8.786225"><ele>657.5999999999999</ele><time>2026-04-30T11:10:13.763Z</time></trkpt><trkpt lat="40.3295767" lon="8.7863433"><ele>657.8</ele><time>2026-04-30T11:10:14.8Z</time></trkpt><trkpt lat="40.329475" lon="8.7865117"><ele>658.0</ele><time>2026-04-30T11:10:15.761Z</time></trkpt><trkpt lat="40.3294133" lon="8.7866183"><ele>658.0</ele><time>2026-04-30T11:10:16.759Z</time></trkpt><trkpt lat="40.3293367" lon="8.786715"><ele>658.0</ele><time>2026-04-30T11:10:17.765Z</time></trkpt><trkpt lat="40.3292517" lon="8.7867883"><ele>658.0</ele><time>2026-04-30T11:10:18.762Z</time></trkpt><trkpt lat="40.32916" lon="8.78685"><ele>658.0</ele><time>2026-04-30T11:10:19.762Z</time></trkpt><trkpt lat="40.3290533" lon="8.7868817"><ele>658.0</ele><time>2026-04-30T11:10:20.796Z</time></trkpt><trkpt lat="40.3288667" lon="8.7868383"><ele>658.0</ele><time>2026-04-30T11:10:21.763Z</time></trkpt><trkpt lat="40.3286983" lon="8.7867983"><ele>658.0</ele><time>2026-04-30T11:10:22.763Z</time></trkpt><trkpt lat="40.3285167" lon="8.7867583"><ele>658.0</ele><time>2026-04-30T11:10:23.764Z</time></trkpt><trkpt lat="40.3283067" lon="8.7866983"><ele>658.0</ele><time>2026-04-30T11:10:24.765Z</time></trkpt><trkpt lat="40.3280917" lon="8.786645"><ele>658.0</ele><time>2026-04-30T11:10:25.764Z</time></trkpt><trkpt lat="40.327875" lon="8.7865867"><ele>658.0</ele><time>2026-04-30T11:10:26.828Z</time></trkpt><trkpt lat="40.3276467" lon="8.7865283"><ele>657.0</ele><time>2026-04-30T11:10:27.763Z</time></trkpt><trkpt lat="40.32741" lon="8.7864617"><ele>656.0</ele><time>2026-04-30T11:10:28.759Z</time></trkpt><trkpt lat="40.3271833" lon="8.7864017"><ele>655.0</ele><time>2026-04-30T11:10:29.759Z</time></trkpt><trkpt lat="40.32695" lon="8.7863367"><ele>654.0</ele><time>2026-04-30T11:10:30.772Z</time></trkpt><trkpt lat="40.3267117" lon="8.7862683"><ele>654.0</ele><time>2026-04-30T11:10:31.761Z</time></trkpt><trkpt lat="40.3264717" lon="8.7862033"><ele>654.0</ele><time>2026-04-30T11:10:32.821Z</time></trkpt><trkpt lat="40.3262317" lon="8.786135"><ele>653.5</ele><time>2026-04-30T11:10:33.764Z</time></trkpt><trkpt lat="40.3259933" lon="8.7860667"><ele>653.0</ele><time>2026-04-30T11:10:34.766Z</time></trkpt><trkpt lat="40.3257533" lon="8.786"><ele>653.5</ele><time>2026-04-30T11:10:35.763Z</time></trkpt><trkpt lat="40.3255167" lon="8.7859317"><ele>654.0</ele><time>2026-04-30T11:10:36.763Z</time></trkpt><trkpt lat="40.32528" lon="8.7858667"><ele>654.0</ele><time>2026-04-30T11:10:37.764Z</time></trkpt><trkpt lat="40.3250417" lon="8.7858"><ele>654.0</ele><time>2026-04-30T11:10:38.796Z</time></trkpt><trkpt lat="40.32479" lon="8.785725"><ele>654.0</ele><time>2026-04-30T11:10:39.758Z</time></trkpt><trkpt lat="40.3245483" lon="8.785655"><ele>654.0</ele><time>2026-04-30T11:10:40.762Z</time></trkpt><trkpt lat="40.32431" lon="8.7855883"><ele>654.0</ele><time>2026-04-30T11:10:41.761Z</time></trkpt><trkpt lat="40.3240733" lon="8.78552"><ele>654.0</ele><time>2026-04-30T11:10:42.761Z</time></trkpt><trkpt lat="40.3238383" lon="8.7854517"><ele>653.0</ele><time>2026-04-30T11:10:43.763Z</time></trkpt><trkpt lat="40.3236017" lon="8.7853833"><ele>652.0</ele><time>2026-04-30T11:10:44.798Z</time></trkpt><trkpt lat="40.3233633" lon="8.7853133"><ele>652.0</ele><time>2026-04-30T11:10:45.758Z</time></trkpt><trkpt lat="40.3231267" lon="8.7852433"><ele>652.0</ele><time>2026-04-30T11:10:46.76Z</time></trkpt><trkpt lat="40.32289" lon="8.7851717"><ele>653.0</ele><time>2026-04-30T11:10:47.765Z</time></trkpt><trkpt lat="40.3226517" lon="8.7851017"><ele>654.0</ele><time>2026-04-30T11:10:48.772Z</time></trkpt><trkpt lat="40.3224167" lon="8.7850317"><ele>654.0</ele><time>2026-04-30T11:10:49.764Z</time></trkpt><trkpt lat="40.3221833" lon="8.78496"><ele>654.0</ele><time>2026-04-30T11:10:50.804Z</time></trkpt><trkpt lat="40.32195" lon="8.7848917"><ele>654.0</ele><time>2026-04-30T11:10:51.764Z</time></trkpt><trkpt lat="40.3217167" lon="8.78482"><ele>654.0</ele><time>2026-04-30T11:10:52.763Z</time></trkpt><trkpt lat="40.3214817" lon="8.7847483"><ele>654.0</ele><time>2026-04-30T11:10:53.76Z</time></trkpt><trkpt lat="40.3212483" lon="8.784675"><ele>654.0</ele><time>2026-04-30T11:10:54.766Z</time></trkpt><trkpt lat="40.3210133" lon="8.7845983"><ele>654.0</ele><time>2026-04-30T11:10:55.763Z</time></trkpt><trkpt lat="40.32078" lon="8.7845217"><ele>654.0</ele><time>2026-04-30T11:10:56.775Z</time></trkpt><trkpt lat="40.3205467" lon="8.784445"><ele>653.5</ele><time>2026-04-30T11:10:57.761Z</time></trkpt><trkpt lat="40.3203133" lon="8.7843683"><ele>653.0</ele><time>2026-04-30T11:10:58.764Z</time></trkpt><trkpt lat="40.3200817" lon="8.7842933"><ele>653.0</ele><time>2026-04-30T11:10:59.762Z</time></trkpt><trkpt lat="40.319835" lon="8.7842117"><ele>653.0</ele><time>2026-04-30T11:11:00.762Z</time></trkpt><trkpt lat="40.3195833" lon="8.7841183"><ele>654.0</ele><time>2026-04-30T11:11:01.762Z</time></trkpt><trkpt lat="40.31934" lon="8.784035"><ele>655.0</ele><time>2026-04-30T11:11:02.785Z</time></trkpt><trkpt lat="40.3191083" lon="8.7839567"><ele>656.0</ele><time>2026-04-30T11:11:03.761Z</time></trkpt><trkpt lat="40.3188767" lon="8.783885"><ele>657.0</ele><time>2026-04-30T11:11:04.762Z</time></trkpt><trkpt lat="40.3186567" lon="8.78381"><ele>657.0</ele><time>2026-04-30T11:11:05.767Z</time></trkpt><trkpt lat="40.3184217" lon="8.7837467"><ele>657.0</ele><time>2026-04-30T11:11:06.763Z</time></trkpt><trkpt lat="40.31819" lon="8.7836783"><ele>657.5</ele><time>2026-04-30T11:11:07.763Z</time></trkpt><trkpt lat="40.3179583" lon="8.7836267"><ele>658.0</ele><time>2026-04-30T11:11:08.806Z</time></trkpt><trkpt lat="40.3177283" lon="8.7835683"><ele>656.5</ele><time>2026-04-30T11:11:09.762Z</time></trkpt><trkpt lat="40.3174967" lon="8.7834967"><ele>655.0</ele><time>2026-04-30T11:11:10.762Z</time></trkpt><trkpt lat="40.3172667" lon="8.7834267"><ele>656.5</ele><time>2026-04-30T11:11:11.765Z</time></trkpt><trkpt lat="40.31704" lon="8.783375"><ele>658.0</ele><time>2026-04-30T11:11:12.764Z</time></trkpt><trkpt lat="40.3168067" lon="8.783315"><ele>658.0</ele><time>2026-04-30T11:11:13.763Z</time></trkpt><trkpt lat="40.31657" lon="8.7832483"><ele>658.0</ele><time>2026-04-30T11:11:14.804Z</time></trkpt><trkpt lat="40.3163333" lon="8.7831883"><ele>658.0</ele><time>2026-04-30T11:11:15.762Z</time></trkpt><trkpt lat="40.3161033" lon="8.783115"><ele>658.0</ele><time>2026-04-30T11:11:16.762Z</time></trkpt><trkpt lat="40.315875" lon="8.7830433"><ele>658.0</ele><time>2026-04-30T11:11:17.764Z</time></trkpt><trkpt lat="40.3156467" lon="8.7829767"><ele>658.0</ele><time>2026-04-30T11:11:18.763Z</time></trkpt><trkpt lat="40.3154167" lon="8.7829183"><ele>658.5</ele><time>2026-04-30T11:11:19.762Z</time></trkpt><trkpt lat="40.3151917" lon="8.7828583"><ele>659.0</ele><time>2026-04-30T11:11:20.805Z</time></trkpt><trkpt lat="40.3149617" lon="8.7827967"><ele>659.0</ele><time>2026-04-30T11:11:21.764Z</time></trkpt><trkpt lat="40.31474" lon="8.7827383"><ele>659.0</ele><time>2026-04-30T11:11:22.764Z</time></trkpt><trkpt lat="40.3144967" lon="8.782675"><ele>659.5</ele><time>2026-04-30T11:11:23.766Z</time></trkpt><trkpt lat="40.314275" lon="8.7826083"><ele>660.0</ele><time>2026-04-30T11:11:24.762Z</time></trkpt><trkpt lat="40.3140367" lon="8.7825467"><ele>661.0</ele><time>2026-04-30T11:11:25.763Z</time></trkpt><trkpt lat="40.3138" lon="8.7824883"><ele>662.0</ele><time>2026-04-30T11:11:26.827Z</time></trkpt><trkpt lat="40.31358" lon="8.7824217"><ele>662.0</ele><time>2026-04-30T11:11:27.763Z</time></trkpt><trkpt lat="40.3133517" lon="8.782355"><ele>662.0</ele><time>2026-04-30T11:11:28.762Z</time></trkpt><trkpt lat="40.3131217" lon="8.7822883"><ele>662.5</ele><time>2026-04-30T11:11:29.763Z</time></trkpt><trkpt lat="40.3128983" lon="8.7822267"><ele>663.0</ele><time>2026-04-30T11:11:30.765Z</time></trkpt><trkpt lat="40.31267" lon="8.7821633"><ele>663.0</ele><time>2026-04-30T11:11:31.759Z</time></trkpt><trkpt lat="40.31243" lon="8.7820983"><ele>663.0</ele><time>2026-04-30T11:11:32.79Z</time></trkpt><trkpt lat="40.31219" lon="8.782025"><ele>664.0</ele><time>2026-04-30T11:11:33.759Z</time></trkpt><trkpt lat="40.3119683" lon="8.7819717"><ele>665.0</ele><time>2026-04-30T11:11:34.762Z</time></trkpt><trkpt lat="40.3117433" lon="8.7819033"><ele>664.0</ele><time>2026-04-30T11:11:35.761Z</time></trkpt><trkpt lat="40.3115183" lon="8.7818317"><ele>663.0</ele><time>2026-04-30T11:11:36.762Z</time></trkpt><trkpt lat="40.31128" lon="8.7817667"><ele>663.0</ele><time>2026-04-30T11:11:37.764Z</time></trkpt><trkpt lat="40.3110533" lon="8.7816983"><ele>663.0</ele><time>2026-04-30T11:11:38.805Z</time></trkpt><trkpt lat="40.310825" lon="8.78164"><ele>663.0</ele><time>2026-04-30T11:11:39.76Z</time></trkpt><trkpt lat="40.3105833" lon="8.7815667"><ele>663.0</ele><time>2026-04-30T11:11:40.763Z</time></trkpt><trkpt lat="40.310345" lon="8.7814983"><ele>663.0</ele><time>2026-04-30T11:11:41.76Z</time></trkpt><trkpt lat="40.3101083" lon="8.7814317"><ele>663.0</ele><time>2026-04-30T11:11:42.759Z</time></trkpt><trkpt lat="40.3098733" lon="8.7813667"><ele>663.0</ele><time>2026-04-30T11:11:43.763Z</time></trkpt><trkpt lat="40.30964" lon="8.781305"><ele>663.0</ele><time>2026-04-30T11:11:44.807Z</time></trkpt><trkpt lat="40.309415" lon="8.7812483"><ele>663.0</ele><time>2026-04-30T11:11:45.765Z</time></trkpt><trkpt lat="40.3091883" lon="8.7811883"><ele>663.0</ele><time>2026-04-30T11:11:46.761Z</time></trkpt><trkpt lat="40.3089517" lon="8.7811233"><ele>663.5</ele><time>2026-04-30T11:11:47.762Z</time></trkpt><trkpt lat="40.3087083" lon="8.7810617"><ele>664.0</ele><time>2026-04-30T11:11:48.765Z</time></trkpt><trkpt lat="40.30848" lon="8.780995"><ele>663.5</ele><time>2026-04-30T11:11:49.762Z</time></trkpt><trkpt lat="40.3082483" lon="8.7809267"><ele>663.0</ele><time>2026-04-30T11:11:50.801Z</time></trkpt><trkpt lat="40.3080167" lon="8.7808617"><ele>663.0</ele><time>2026-04-30T11:11:51.758Z</time></trkpt><trkpt lat="40.3077917" lon="8.7807967"><ele>663.0</ele><time>2026-04-30T11:11:52.759Z</time></trkpt><trkpt lat="40.3075567" lon="8.7807317"><ele>663.0</ele><time>2026-04-30T11:11:53.763Z</time></trkpt><trkpt lat="40.3073233" lon="8.7806683"><ele>663.0</ele><time>2026-04-30T11:11:54.761Z</time></trkpt><trkpt lat="40.3070883" lon="8.7806083"><ele>663.0</ele><time>2026-04-30T11:11:55.76Z</time></trkpt><trkpt lat="40.3068483" lon="8.7805483"><ele>663.0</ele><time>2026-04-30T11:11:56.829Z</time></trkpt><trkpt lat="40.30662" lon="8.7804717"><ele>662.5</ele><time>2026-04-30T11:11:57.76Z</time></trkpt><trkpt lat="40.3063917" lon="8.7804033"><ele>662.0</ele><time>2026-04-30T11:11:58.763Z</time></trkpt><trkpt lat="40.3061583" lon="8.7803517"><ele>662.0</ele><time>2026-04-30T11:11:59.763Z</time></trkpt><trkpt lat="40.30593" lon="8.7802933"><ele>662.0</ele><time>2026-04-30T11:12:00.765Z</time></trkpt><trkpt lat="40.3057017" lon="8.780225"><ele>661.5</ele><time>2026-04-30T11:12:01.763Z</time></trkpt><trkpt lat="40.30546" lon="8.7801583"><ele>661.0</ele><time>2026-04-30T11:12:02.815Z</time></trkpt><trkpt lat="40.3052317" lon="8.7800933"><ele>661.0</ele><time>2026-04-30T11:12:03.762Z</time></trkpt><trkpt lat="40.305005" lon="8.7800283"><ele>661.0</ele><time>2026-04-30T11:12:04.762Z</time></trkpt><trkpt lat="40.3047717" lon="8.7799667"><ele>661.0</ele><time>2026-04-30T11:12:05.758Z</time></trkpt><trkpt lat="40.3045367" lon="8.7799133"><ele>661.0</ele><time>2026-04-30T11:12:06.764Z</time></trkpt><trkpt lat="40.304305" lon="8.7798433"><ele>661.0</ele><time>2026-04-30T11:12:07.763Z</time></trkpt><trkpt lat="40.3040733" lon="8.7797717"><ele>661.0</ele><time>2026-04-30T11:12:08.804Z</time></trkpt><trkpt lat="40.303835" lon="8.7797"><ele>661.5</ele><time>2026-04-30T11:12:09.759Z</time></trkpt><trkpt lat="40.3035933" lon="8.77964"><ele>662.0</ele><time>2026-04-30T11:12:10.756Z</time></trkpt><trkpt lat="40.3033583" lon="8.7795783"><ele>662.0</ele><time>2026-04-30T11:12:11.762Z</time></trkpt><trkpt lat="40.3031317" lon="8.779515"><ele>662.0</ele><time>2026-04-30T11:12:12.764Z</time></trkpt><trkpt lat="40.30291" lon="8.7794483"><ele>662.3333333333333</ele><time>2026-04-30T11:12:13.76Z</time></trkpt><trkpt lat="40.3026983" lon="8.7793833"><ele>662.6666666666666</ele><time>2026-04-30T11:12:14.808Z</time></trkpt><trkpt lat="40.3024767" lon="8.7793233"><ele>663.0</ele><time>2026-04-30T11:12:15.765Z</time></trkpt><trkpt lat="40.30228" lon="8.77927"><ele>662.6666666666666</ele><time>2026-04-30T11:12:16.764Z</time></trkpt><trkpt lat="40.3020817" lon="8.7792267"><ele>662.3333333333333</ele><time>2026-04-30T11:12:17.764Z</time></trkpt><trkpt lat="40.3018833" lon="8.7791733"><ele>662.0</ele><time>2026-04-30T11:12:18.764Z</time></trkpt><trkpt lat="40.3016817" lon="8.77912"><ele>662.0</ele><time>2026-04-30T11:12:19.762Z</time></trkpt><trkpt lat="40.3014883" lon="8.779065"><ele>662.0</ele><time>2026-04-30T11:12:20.805Z</time></trkpt><trkpt lat="40.3012933" lon="8.7790017"><ele>662.0</ele><time>2026-04-30T11:12:21.762Z</time></trkpt><trkpt lat="40.3011" lon="8.77895"><ele>661.6666666666666</ele><time>2026-04-30T11:12:22.765Z</time></trkpt><trkpt lat="40.300905" lon="8.7789067"><ele>661.3333333333334</ele><time>2026-04-30T11:12:23.759Z</time></trkpt><trkpt lat="40.300715" lon="8.7788517"><ele>661.0</ele><time>2026-04-30T11:12:24.76Z</time></trkpt><trkpt lat="40.3005217" lon="8.7788017"><ele>661.0</ele><time>2026-04-30T11:12:25.762Z</time></trkpt><trkpt lat="40.3003283" lon="8.7787417"><ele>661.0</ele><time>2026-04-30T11:12:26.829Z</time></trkpt><trkpt lat="40.3001383" lon="8.7786883"><ele>661.0</ele><time>2026-04-30T11:12:27.761Z</time></trkpt><trkpt lat="40.2999467" lon="8.7786333"><ele>661.0</ele><time>2026-04-30T11:12:28.762Z</time></trkpt><trkpt lat="40.2997517" lon="8.77858"><ele>661.0</ele><time>2026-04-30T11:12:29.763Z</time></trkpt><trkpt lat="40.299385" lon="8.778485"><ele>661.0</ele><time>2026-04-30T11:12:31.76Z</time></trkpt><trkpt lat="40.2992067" lon="8.7784383"><ele>661.0</ele><time>2026-04-30T11:12:32.817Z</time></trkpt><trkpt lat="40.2990317" lon="8.778385"><ele>661.0</ele><time>2026-04-30T11:12:33.758Z</time></trkpt><trkpt lat="40.2988583" lon="8.7783317"><ele>661.0</ele><time>2026-04-30T11:12:34.762Z</time></trkpt><trkpt lat="40.2986883" lon="8.7782783"><ele>661.0</ele><time>2026-04-30T11:12:35.764Z</time></trkpt><trkpt lat="40.29851" lon="8.7782217"><ele>661.0</ele><time>2026-04-30T11:12:36.763Z</time></trkpt><trkpt lat="40.2983533" lon="8.778195"><ele>661.0</ele><time>2026-04-30T11:12:37.763Z</time></trkpt><trkpt lat="40.29819" lon="8.7781383"><ele>661.0</ele><time>2026-04-30T11:12:38.811Z</time></trkpt><trkpt lat="40.2980383" lon="8.77808"><ele>661.0</ele><time>2026-04-30T11:12:39.762Z</time></trkpt><trkpt lat="40.2978833" lon="8.77803"><ele>661.0</ele><time>2026-04-30T11:12:40.761Z</time></trkpt><trkpt lat="40.29774" lon="8.777975"><ele>661.0</ele><time>2026-04-30T11:12:41.761Z</time></trkpt><trkpt lat="40.2975867" lon="8.7779217"><ele>661.0</ele><time>2026-04-30T11:12:42.76Z</time></trkpt><trkpt lat="40.2974483" lon="8.777845"><ele>661.0</ele><time>2026-04-30T11:12:43.765Z</time></trkpt><trkpt lat="40.297325" lon="8.7777417"><ele>661.0</ele><time>2026-04-30T11:12:44.802Z</time></trkpt><trkpt lat="40.2972183" lon="8.7776067"><ele>661.0</ele><time>2026-04-30T11:12:45.762Z</time></trkpt><trkpt lat="40.2971133" lon="8.77747"><ele>661.0</ele><time>2026-04-30T11:12:46.763Z</time></trkpt><trkpt lat="40.2970083" lon="8.777355"><ele>659.0</ele><time>2026-04-30T11:12:47.761Z</time></trkpt><trkpt lat="40.296865" lon="8.7772667"><ele>657.0</ele><time>2026-04-30T11:12:48.761Z</time></trkpt><trkpt lat="40.2967083" lon="8.777205"><ele>655.0</ele><time>2026-04-30T11:12:49.763Z</time></trkpt><trkpt lat="40.2965583" lon="8.7771417"><ele>654.0</ele><time>2026-04-30T11:12:50.804Z</time></trkpt><trkpt lat="40.2964" lon="8.7770933"><ele>653.0</ele><time>2026-04-30T11:12:51.762Z</time></trkpt><trkpt lat="40.2962217" lon="8.7770617"><ele>652.0</ele><time>2026-04-30T11:12:52.761Z</time></trkpt><trkpt lat="40.29605" lon="8.77703"><ele>652.0</ele><time>2026-04-30T11:12:53.761Z</time></trkpt><trkpt lat="40.2958733" lon="8.7769983"><ele>652.0</ele><time>2026-04-30T11:12:54.759Z</time></trkpt><trkpt lat="40.29571" lon="8.7769833"><ele>652.0</ele><time>2026-04-30T11:12:55.762Z</time></trkpt><trkpt lat="40.2955567" lon="8.7769817"><ele>651.0</ele><time>2026-04-30T11:12:56.826Z</time></trkpt><trkpt lat="40.2954133" lon="8.776965"><ele>650.0</ele><time>2026-04-30T11:12:57.763Z</time></trkpt><trkpt lat="40.2952867" lon="8.7769467"><ele>649.0</ele><time>2026-04-30T11:12:58.762Z</time></trkpt><trkpt lat="40.2951667" lon="8.776895"><ele>648.0</ele><time>2026-04-30T11:12:59.763Z</time></trkpt><trkpt lat="40.2950483" lon="8.7768033"><ele>648.0</ele><time>2026-04-30T11:13:00.759Z</time></trkpt><trkpt lat="40.2949533" lon="8.7766567"><ele>648.0</ele><time>2026-04-30T11:13:01.763Z</time></trkpt><trkpt lat="40.2948733" lon="8.7764667"><ele>648.0</ele><time>2026-04-30T11:13:02.813Z</time></trkpt><trkpt lat="40.29481" lon="8.7762517"><ele>648.0</ele><time>2026-04-30T11:13:03.759Z</time></trkpt><trkpt lat="40.2947633" lon="8.7760517"><ele>648.0</ele><time>2026-04-30T11:13:04.761Z</time></trkpt><trkpt lat="40.2947033" lon="8.775865"><ele>648.0</ele><time>2026-04-30T11:13:05.759Z</time></trkpt><trkpt lat="40.2946283" lon="8.77571"><ele>648.0</ele><time>2026-04-30T11:13:06.762Z</time></trkpt><trkpt lat="40.2945467" lon="8.7755967"><ele>648.0</ele><time>2026-04-30T11:13:07.764Z</time></trkpt><trkpt lat="40.29442" lon="8.7756017"><ele>648.0</ele><time>2026-04-30T11:13:08.803Z</time></trkpt><trkpt lat="40.29429" lon="8.775685"><ele>648.0</ele><time>2026-04-30T11:13:09.759Z</time></trkpt><trkpt lat="40.2941833" lon="8.7758383"><ele>648.0</ele><time>2026-04-30T11:13:10.762Z</time></trkpt><trkpt lat="40.2940767" lon="8.7760017"><ele>648.0</ele><time>2026-04-30T11:13:11.76Z</time></trkpt><trkpt lat="40.2939667" lon="8.7761817"><ele>648.0</ele><time>2026-04-30T11:13:12.763Z</time></trkpt><trkpt lat="40.2938633" lon="8.7763617"><ele>649.6666666666666</ele><time>2026-04-30T11:13:13.763Z</time></trkpt><trkpt lat="40.293765" lon="8.7765383"><ele>651.3333333333333</ele><time>2026-04-30T11:13:14.803Z</time></trkpt><trkpt lat="40.29367" lon="8.776705"><ele>653.0</ele><time>2026-04-30T11:13:15.762Z</time></trkpt><trkpt lat="40.2935683" lon="8.7768617"><ele>649.0</ele><time>2026-04-30T11:13:16.763Z</time></trkpt><trkpt lat="40.2934583" lon="8.7770083"><ele>645.0</ele><time>2026-04-30T11:13:17.76Z</time></trkpt><trkpt lat="40.2933383" lon="8.7771417"><ele>641.0</ele><time>2026-04-30T11:13:18.762Z</time></trkpt><trkpt lat="40.2932067" lon="8.77725"><ele>641.3333333333333</ele><time>2026-04-30T11:13:19.758Z</time></trkpt><trkpt lat="40.2930617" lon="8.7773483"><ele>641.6666666666666</ele><time>2026-04-30T11:13:20.805Z</time></trkpt><trkpt lat="40.2928833" lon="8.7773917"><ele>642.0</ele><time>2026-04-30T11:13:21.763Z</time></trkpt><trkpt lat="40.2927067" lon="8.777435"><ele>642.0</ele><time>2026-04-30T11:13:22.759Z</time></trkpt><trkpt lat="40.2925033" lon="8.7774567"><ele>642.0</ele><time>2026-04-30T11:13:23.759Z</time></trkpt><trkpt lat="40.2923033" lon="8.7774433"><ele>642.0</ele><time>2026-04-30T11:13:24.763Z</time></trkpt><trkpt lat="40.2921067" lon="8.777395"><ele>641.3333333333334</ele><time>2026-04-30T11:13:25.76Z</time></trkpt><trkpt lat="40.291945" lon="8.77735"><ele>640.6666666666667</ele><time>2026-04-30T11:13:26.786Z</time></trkpt><trkpt lat="40.2917533" lon="8.77729"><ele>640.0</ele><time>2026-04-30T11:13:27.761Z</time></trkpt><trkpt lat="40.291565" lon="8.77721"><ele>640.0</ele><time>2026-04-30T11:13:28.764Z</time></trkpt><trkpt lat="40.2913767" lon="8.777115"><ele>640.0</ele><time>2026-04-30T11:13:29.761Z</time></trkpt><trkpt lat="40.2912033" lon="8.7770317"><ele>640.0</ele><time>2026-04-30T11:13:30.765Z</time></trkpt><trkpt lat="40.2910417" lon="8.7769417"><ele>640.0</ele><time>2026-04-30T11:13:31.764Z</time></trkpt><trkpt lat="40.2908933" lon="8.7768533"><ele>640.0</ele><time>2026-04-30T11:13:32.816Z</time></trkpt><trkpt lat="40.290765" lon="8.7767483"><ele>640.0</ele><time>2026-04-30T11:13:33.759Z</time></trkpt><trkpt lat="40.29071" lon="8.77656"><ele>639.3333333333334</ele><time>2026-04-30T11:13:34.761Z</time></trkpt><trkpt lat="40.290655" lon="8.776355"><ele>638.6666666666666</ele><time>2026-04-30T11:13:35.77Z</time></trkpt><trkpt lat="40.2906083" lon="8.7761333"><ele>638.0</ele><time>2026-04-30T11:13:36.758Z</time></trkpt><trkpt lat="40.2905667" lon="8.77583"><ele>638.0</ele><time>2026-04-30T11:13:37.76Z</time></trkpt><trkpt lat="40.2905517" lon="8.77555"><ele>638.0</ele><time>2026-04-30T11:13:38.802Z</time></trkpt><trkpt lat="40.2904933" lon="8.7753017"><ele>638.0</ele><time>2026-04-30T11:13:39.764Z</time></trkpt><trkpt lat="40.2904033" lon="8.7750717"><ele>637.3333333333333</ele><time>2026-04-30T11:13:40.757Z</time></trkpt><trkpt lat="40.2903" lon="8.7748433"><ele>636.6666666666666</ele><time>2026-04-30T11:13:41.76Z</time></trkpt><trkpt lat="40.2901633" lon="8.7746083"><ele>636.0</ele><time>2026-04-30T11:13:42.765Z</time></trkpt><trkpt lat="40.2900267" lon="8.7743833"><ele>637.3333333333334</ele><time>2026-04-30T11:13:43.762Z</time></trkpt><trkpt lat="40.2898983" lon="8.7741583"><ele>638.6666666666667</ele><time>2026-04-30T11:13:44.804Z</time></trkpt><trkpt lat="40.2897733" lon="8.7739433"><ele>640.0</ele><time>2026-04-30T11:13:45.765Z</time></trkpt><trkpt lat="40.2896433" lon="8.77374"><ele>637.3333333333334</ele><time>2026-04-30T11:13:46.763Z</time></trkpt><trkpt lat="40.2895083" lon="8.7735533"><ele>634.6666666666666</ele><time>2026-04-30T11:13:47.762Z</time></trkpt><trkpt lat="40.2893617" lon="8.7733833"><ele>632.0</ele><time>2026-04-30T11:13:48.763Z</time></trkpt><trkpt lat="40.2892167" lon="8.7732183"><ele>632.0</ele><time>2026-04-30T11:13:49.763Z</time></trkpt><trkpt lat="40.2890617" lon="8.7730783"><ele>632.0</ele><time>2026-04-30T11:13:50.804Z</time></trkpt><trkpt lat="40.2889267" lon="8.7729"><ele>632.0</ele><time>2026-04-30T11:13:51.764Z</time></trkpt><trkpt lat="40.28881" lon="8.7727017"><ele>628.6666666666666</ele><time>2026-04-30T11:13:52.761Z</time></trkpt><trkpt lat="40.2887133" lon="8.7724983"><ele>625.3333333333334</ele><time>2026-04-30T11:13:53.76Z</time></trkpt><trkpt lat="40.2886333" lon="8.7722917"><ele>622.0</ele><time>2026-04-30T11:13:54.761Z</time></trkpt><trkpt lat="40.2885333" lon="8.772105"><ele>622.0</ele><time>2026-04-30T11:13:55.764Z</time></trkpt><trkpt lat="40.28845" lon="8.7719383"><ele>622.0</ele><time>2026-04-30T11:13:56.83Z</time></trkpt><trkpt lat="40.2883467" lon="8.7717967"><ele>622.0</ele><time>2026-04-30T11:13:57.758Z</time></trkpt><trkpt lat="40.2882133" lon="8.7716983"><ele>621.0</ele><time>2026-04-30T11:13:58.763Z</time></trkpt><trkpt lat="40.288045" lon="8.7716517"><ele>620.0</ele><time>2026-04-30T11:13:59.761Z</time></trkpt><trkpt lat="40.2878667" lon="8.7716017"><ele>619.0</ele><time>2026-04-30T11:14:00.76Z</time></trkpt><trkpt lat="40.2876783" lon="8.77155"><ele>619.0</ele><time>2026-04-30T11:14:01.761Z</time></trkpt><trkpt lat="40.2874833" lon="8.7714983"><ele>619.0</ele><time>2026-04-30T11:14:02.815Z</time></trkpt><trkpt lat="40.28729" lon="8.7714217"><ele>619.0</ele><time>2026-04-30T11:14:03.762Z</time></trkpt><trkpt lat="40.2871083" lon="8.7713417"><ele>617.0</ele><time>2026-04-30T11:14:04.763Z</time></trkpt><trkpt lat="40.2869317" lon="8.771265"><ele>615.0</ele><time>2026-04-30T11:14:05.763Z</time></trkpt><trkpt lat="40.2867567" lon="8.7711783"><ele>613.0</ele><time>2026-04-30T11:14:06.762Z</time></trkpt><trkpt lat="40.286595" lon="8.7710967"><ele>612.25</ele><time>2026-04-30T11:14:07.764Z</time></trkpt><trkpt lat="40.2864317" lon="8.7710033"><ele>611.5</ele><time>2026-04-30T11:14:08.801Z</time></trkpt><trkpt lat="40.2863083" lon="8.7709083"><ele>610.75</ele><time>2026-04-30T11:14:09.76Z</time></trkpt><trkpt lat="40.286205" lon="8.77082"><ele>610.0</ele><time>2026-04-30T11:14:10.758Z</time></trkpt><trkpt lat="40.2861167" lon="8.770745"><ele>610.0</ele><time>2026-04-30T11:14:11.763Z</time></trkpt><trkpt lat="40.28603" lon="8.770675"><ele>610.0</ele><time>2026-04-30T11:14:12.757Z</time></trkpt><trkpt lat="40.2859567" lon="8.770595"><ele>610.0</ele><time>2026-04-30T11:14:13.763Z</time></trkpt><trkpt lat="40.2858733" lon="8.7705317"><ele>610.0</ele><time>2026-04-30T11:14:14.805Z</time></trkpt><trkpt lat="40.2857917" lon="8.7704483"><ele>610.0</ele><time>2026-04-30T11:14:15.762Z</time></trkpt><trkpt lat="40.2857217" lon="8.7703367"><ele>611.25</ele><time>2026-04-30T11:14:16.759Z</time></trkpt><trkpt lat="40.2856583" lon="8.7701867"><ele>612.5</ele><time>2026-04-30T11:14:17.764Z</time></trkpt><trkpt lat="40.2855917" lon="8.7700183"><ele>613.75</ele><time>2026-04-30T11:14:18.761Z</time></trkpt><trkpt lat="40.285495" lon="8.769835"><ele>615.0</ele><time>2026-04-30T11:14:19.763Z</time></trkpt><trkpt lat="40.2853917" lon="8.76964"><ele>612.0</ele><time>2026-04-30T11:14:20.8Z</time></trkpt><trkpt lat="40.2852883" lon="8.7694333"><ele>609.0</ele><time>2026-04-30T11:14:21.761Z</time></trkpt><trkpt lat="40.2852033" lon="8.769235"><ele>606.0</ele><time>2026-04-30T11:14:22.764Z</time></trkpt><trkpt lat="40.2851217" lon="8.76904"><ele>606.0</ele><time>2026-04-30T11:14:23.763Z</time></trkpt><trkpt lat="40.285005" lon="8.768835"><ele>606.0</ele><time>2026-04-30T11:14:24.761Z</time></trkpt><trkpt lat="40.2848667" lon="8.7686583"><ele>606.0</ele><time>2026-04-30T11:14:25.762Z</time></trkpt><trkpt lat="40.2847433" lon="8.7685267"><ele>605.0</ele><time>2026-04-30T11:14:26.826Z</time></trkpt><trkpt lat="40.2845883" lon="8.76839"><ele>604.0</ele><time>2026-04-30T11:14:27.762Z</time></trkpt><trkpt lat="40.2844167" lon="8.7682833"><ele>603.0</ele><time>2026-04-30T11:14:28.762Z</time></trkpt><trkpt lat="40.2842333" lon="8.7681933"><ele>603.0</ele><time>2026-04-30T11:14:29.762Z</time></trkpt><trkpt lat="40.2840333" lon="8.76811"><ele>603.0</ele><time>2026-04-30T11:14:30.76Z</time></trkpt><trkpt lat="40.2838383" lon="8.7680317"><ele>603.0</ele><time>2026-04-30T11:14:31.763Z</time></trkpt><trkpt lat="40.28364" lon="8.7679517"><ele>600.3333333333334</ele><time>2026-04-30T11:14:32.817Z</time></trkpt><trkpt lat="40.28343" lon="8.76788"><ele>597.6666666666667</ele><time>2026-04-30T11:14:33.766Z</time></trkpt><trkpt lat="40.2832317" lon="8.7677833"><ele>595.0</ele><time>2026-04-30T11:14:34.762Z</time></trkpt><trkpt lat="40.28303" lon="8.7677017"><ele>594.6666666666667</ele><time>2026-04-30T11:14:35.761Z</time></trkpt><trkpt lat="40.2828317" lon="8.7676133"><ele>594.3333333333334</ele><time>2026-04-30T11:14:36.763Z</time></trkpt><trkpt lat="40.2826333" lon="8.7675383"><ele>594.0</ele><time>2026-04-30T11:14:37.761Z</time></trkpt><trkpt lat="40.2824283" lon="8.7674733"><ele>592.0</ele><time>2026-04-30T11:14:38.801Z</time></trkpt><trkpt lat="40.2822267" lon="8.7674"><ele>590.0</ele><time>2026-04-30T11:14:39.765Z</time></trkpt><trkpt lat="40.2820283" lon="8.767325"><ele>588.0</ele><time>2026-04-30T11:14:40.757Z</time></trkpt><trkpt lat="40.281835" lon="8.7672467"><ele>588.0</ele><time>2026-04-30T11:14:41.766Z</time></trkpt><trkpt lat="40.2816367" lon="8.7671667"><ele>588.0</ele><time>2026-04-30T11:14:42.766Z</time></trkpt><trkpt lat="40.28144" lon="8.7670867"><ele>588.0</ele><time>2026-04-30T11:14:43.762Z</time></trkpt><trkpt lat="40.281235" lon="8.7670117"><ele>588.3333333333334</ele><time>2026-04-30T11:14:44.803Z</time></trkpt><trkpt lat="40.28102" lon="8.7669367"><ele>588.6666666666667</ele><time>2026-04-30T11:14:45.758Z</time></trkpt><trkpt lat="40.2808267" lon="8.766885"><ele>589.0</ele><time>2026-04-30T11:14:46.76Z</time></trkpt><trkpt lat="40.2806117" lon="8.7668517"><ele>586.0</ele><time>2026-04-30T11:14:47.765Z</time></trkpt><trkpt lat="40.2804033" lon="8.766825"><ele>583.0</ele><time>2026-04-30T11:14:48.761Z</time></trkpt><trkpt lat="40.2801967" lon="8.766805"><ele>580.0</ele><time>2026-04-30T11:14:49.762Z</time></trkpt><trkpt lat="40.280005" lon="8.7667883"><ele>580.0</ele><time>2026-04-30T11:14:50.805Z</time></trkpt><trkpt lat="40.2798183" lon="8.7667817"><ele>580.0</ele><time>2026-04-30T11:14:51.764Z</time></trkpt><trkpt lat="40.27965" lon="8.76676"><ele>580.0</ele><time>2026-04-30T11:14:52.764Z</time></trkpt><trkpt lat="40.2794833" lon="8.7667417"><ele>579.25</ele><time>2026-04-30T11:14:53.761Z</time></trkpt><trkpt lat="40.27933" lon="8.7667367"><ele>578.5</ele><time>2026-04-30T11:14:54.76Z</time></trkpt><trkpt lat="40.2791983" lon="8.7667267"><ele>577.75</ele><time>2026-04-30T11:14:55.768Z</time></trkpt><trkpt lat="40.27906" lon="8.7667067"><ele>577.0</ele><time>2026-04-30T11:14:56.822Z</time></trkpt><trkpt lat="40.2789317" lon="8.76669"><ele>577.0</ele><time>2026-04-30T11:14:57.756Z</time></trkpt><trkpt lat="40.2788183" lon="8.7666983"><ele>577.0</ele><time>2026-04-30T11:14:58.759Z</time></trkpt><trkpt lat="40.278715" lon="8.7667317"><ele>577.0</ele><time>2026-04-30T11:14:59.76Z</time></trkpt><trkpt lat="40.2785967" lon="8.7667517"><ele>577.0</ele><time>2026-04-30T11:15:00.761Z</time></trkpt><trkpt lat="40.2784717" lon="8.766755"><ele>577.0</ele><time>2026-04-30T11:15:01.757Z</time></trkpt><trkpt lat="40.27834" lon="8.7667767"><ele>577.0</ele><time>2026-04-30T11:15:02.815Z</time></trkpt><trkpt lat="40.2781983" lon="8.7667967"><ele>577.0</ele><time>2026-04-30T11:15:03.763Z</time></trkpt><trkpt lat="40.2780517" lon="8.7668167"><ele>577.0</ele><time>2026-04-30T11:15:04.758Z</time></trkpt><trkpt lat="40.2779083" lon="8.7668367"><ele>575.3333333333334</ele><time>2026-04-30T11:15:05.756Z</time></trkpt><trkpt lat="40.2777533" lon="8.7668533"><ele>573.6666666666666</ele><time>2026-04-30T11:15:06.761Z</time></trkpt><trkpt lat="40.2775983" lon="8.7668617"><ele>572.0</ele><time>2026-04-30T11:15:07.757Z</time></trkpt><trkpt lat="40.2774483" lon="8.7668683"><ele>572.0</ele><time>2026-04-30T11:15:08.803Z</time></trkpt><trkpt lat="40.2773033" lon="8.7668817"><ele>572.0</ele><time>2026-04-30T11:15:09.758Z</time></trkpt><trkpt lat="40.277155" lon="8.7668833"><ele>572.0</ele><time>2026-04-30T11:15:10.761Z</time></trkpt><trkpt lat="40.2770233" lon="8.7668617"><ele>572.0</ele><time>2026-04-30T11:15:11.758Z</time></trkpt><trkpt lat="40.276895" lon="8.766835"><ele>573.0</ele><time>2026-04-30T11:15:12.761Z</time></trkpt><trkpt lat="40.2767783" lon="8.7668217"><ele>574.0</ele><time>2026-04-30T11:15:13.764Z</time></trkpt><trkpt lat="40.2766533" lon="8.766785"><ele>575.0</ele><time>2026-04-30T11:15:14.801Z</time></trkpt><trkpt lat="40.276525" lon="8.766745"><ele>576.0</ele><time>2026-04-30T11:15:15.76Z</time></trkpt><trkpt lat="40.2763867" lon="8.7666883"><ele>576.0</ele><time>2026-04-30T11:15:16.762Z</time></trkpt><trkpt lat="40.2762483" lon="8.7666183"><ele>576.0</ele><time>2026-04-30T11:15:17.756Z</time></trkpt><trkpt lat="40.2760817" lon="8.76657"><ele>576.0</ele><time>2026-04-30T11:15:18.759Z</time></trkpt><trkpt lat="40.275895" lon="8.7665067"><ele>576.0</ele><time>2026-04-30T11:15:19.763Z</time></trkpt><trkpt lat="40.2756917" lon="8.76642"><ele>576.0</ele><time>2026-04-30T11:15:20.803Z</time></trkpt><trkpt lat="40.275485" lon="8.7663183"><ele>576.0</ele><time>2026-04-30T11:15:21.758Z</time></trkpt><trkpt lat="40.2752583" lon="8.7662"><ele>574.5</ele><time>2026-04-30T11:15:22.762Z</time></trkpt><trkpt lat="40.2750417" lon="8.76611"><ele>573.0</ele><time>2026-04-30T11:15:23.764Z</time></trkpt><trkpt lat="40.2748267" lon="8.7660133"><ele>574.6666666666666</ele><time>2026-04-30T11:15:24.761Z</time></trkpt><trkpt lat="40.274625" lon="8.765935"><ele>576.3333333333333</ele><time>2026-04-30T11:15:25.762Z</time></trkpt><trkpt lat="40.2744467" lon="8.7658617"><ele>578.0</ele><time>2026-04-30T11:15:26.826Z</time></trkpt><trkpt lat="40.274275" lon="8.76577"><ele>578.0</ele><time>2026-04-30T11:15:27.761Z</time></trkpt><trkpt lat="40.27413" lon="8.7656833"><ele>578.0</ele><time>2026-04-30T11:15:28.763Z</time></trkpt><trkpt lat="40.2739983" lon="8.765545"><ele>578.0</ele><time>2026-04-30T11:15:29.764Z</time></trkpt><trkpt lat="40.2738667" lon="8.7653933"><ele>577.6666666666666</ele><time>2026-04-30T11:15:30.762Z</time></trkpt><trkpt lat="40.2737433" lon="8.7652333"><ele>577.3333333333334</ele><time>2026-04-30T11:15:31.763Z</time></trkpt><trkpt lat="40.2736" lon="8.7650783"><ele>577.0</ele><time>2026-04-30T11:15:32.817Z</time></trkpt><trkpt lat="40.2734517" lon="8.7649233"><ele>576.6666666666667</ele><time>2026-04-30T11:15:33.758Z</time></trkpt><trkpt lat="40.2733267" lon="8.7647767"><ele>576.3333333333334</ele><time>2026-04-30T11:15:34.756Z</time></trkpt><trkpt lat="40.2732017" lon="8.7646217"><ele>576.0</ele><time>2026-04-30T11:15:35.768Z</time></trkpt><trkpt lat="40.273065" lon="8.7644633"><ele>576.6666666666666</ele><time>2026-04-30T11:15:36.76Z</time></trkpt><trkpt lat="40.272955" lon="8.7643183"><ele>577.3333333333333</ele><time>2026-04-30T11:15:37.761Z</time></trkpt><trkpt lat="40.2728067" lon="8.7642083"><ele>578.0</ele><time>2026-04-30T11:15:38.8Z</time></trkpt><trkpt lat="40.27265" lon="8.764135"><ele>578.0</ele><time>2026-04-30T11:15:39.758Z</time></trkpt><trkpt lat="40.2724767" lon="8.7640883"><ele>578.0</ele><time>2026-04-30T11:15:40.762Z</time></trkpt><trkpt lat="40.2722967" lon="8.7640583"><ele>578.0</ele><time>2026-04-30T11:15:41.76Z</time></trkpt><trkpt lat="40.2721217" lon="8.7640383"><ele>577.0</ele><time>2026-04-30T11:15:42.761Z</time></trkpt><trkpt lat="40.2719517" lon="8.7640067"><ele>576.0</ele><time>2026-04-30T11:15:43.764Z</time></trkpt><trkpt lat="40.2717917" lon="8.7639683"><ele>575.0</ele><time>2026-04-30T11:15:44.806Z</time></trkpt><trkpt lat="40.2716367" lon="8.76393"><ele>575.0</ele><time>2026-04-30T11:15:45.756Z</time></trkpt><trkpt lat="40.2714917" lon="8.7638917"><ele>575.0</ele><time>2026-04-30T11:15:46.757Z</time></trkpt><trkpt lat="40.271355" lon="8.763855"><ele>575.0</ele><time>2026-04-30T11:15:47.763Z</time></trkpt><trkpt lat="40.2712267" lon="8.7638167"><ele>575.0</ele><time>2026-04-30T11:15:48.758Z</time></trkpt><trkpt lat="40.2711067" lon="8.7637817"><ele>574.8333333333333</ele><time>2026-04-30T11:15:49.758Z</time></trkpt><trkpt lat="40.270995" lon="8.7637483"><ele>574.6666666666666</ele><time>2026-04-30T11:15:50.804Z</time></trkpt><trkpt lat="40.2709067" lon="8.7637133"><ele>574.5</ele><time>2026-04-30T11:15:51.758Z</time></trkpt><trkpt lat="40.27083" lon="8.7636467"><ele>574.3333333333334</ele><time>2026-04-30T11:15:52.757Z</time></trkpt><trkpt lat="40.2707717" lon="8.7635917"><ele>574.1666666666667</ele><time>2026-04-30T11:15:53.762Z</time></trkpt><trkpt lat="40.2707083" lon="8.76356"><ele>574.0</ele><time>2026-04-30T11:15:54.761Z</time></trkpt><trkpt lat="40.2706433" lon="8.7635483"><ele>574.6666666666667</ele><time>2026-04-30T11:15:55.761Z</time></trkpt><trkpt lat="40.270585" lon="8.7636117"><ele>575.3333333333334</ele><time>2026-04-30T11:15:56.826Z</time></trkpt><trkpt lat="40.2705383" lon="8.7636967"><ele>576.0</ele><time>2026-04-30T11:15:57.764Z</time></trkpt><trkpt lat="40.2704883" lon="8.7637983"><ele>576.6666666666666</ele><time>2026-04-30T11:15:58.762Z</time></trkpt><trkpt lat="40.270425" lon="8.7638933"><ele>577.3333333333333</ele><time>2026-04-30T11:15:59.759Z</time></trkpt><trkpt lat="40.270365" lon="8.7640067"><ele>578.0</ele><time>2026-04-30T11:16:00.762Z</time></trkpt><trkpt lat="40.2702517" lon="8.7640767"><ele>578.0</ele><time>2026-04-30T11:16:01.757Z</time></trkpt><trkpt lat="40.2701567" lon="8.76416"><ele>578.0</ele><time>2026-04-30T11:16:02.789Z</time></trkpt><trkpt lat="40.2700783" lon="8.7642717"><ele>578.0</ele><time>2026-04-30T11:16:03.762Z</time></trkpt><trkpt lat="40.2699933" lon="8.764405"><ele>578.0</ele><time>2026-04-30T11:16:04.762Z</time></trkpt><trkpt lat="40.2699067" lon="8.76455"><ele>577.5</ele><time>2026-04-30T11:16:05.762Z</time></trkpt><trkpt lat="40.26984" lon="8.7647"><ele>577.0</ele><time>2026-04-30T11:16:06.764Z</time></trkpt><trkpt lat="40.2698033" lon="8.76486"><ele>576.5</ele><time>2026-04-30T11:16:07.761Z</time></trkpt><trkpt lat="40.2698" lon="8.76502"><ele>576.0</ele><time>2026-04-30T11:16:08.804Z</time></trkpt><trkpt lat="40.2698033" lon="8.76519"><ele>576.0</ele><time>2026-04-30T11:16:09.77Z</time></trkpt><trkpt lat="40.2698117" lon="8.7653617"><ele>576.0</ele><time>2026-04-30T11:16:10.761Z</time></trkpt><trkpt lat="40.269815" lon="8.7655567"><ele>576.0</ele><time>2026-04-30T11:16:11.758Z</time></trkpt><trkpt lat="40.2698283" lon="8.7657567"><ele>576.0</ele><time>2026-04-30T11:16:12.761Z</time></trkpt><trkpt lat="40.2698833" lon="8.765965"><ele>576.0</ele><time>2026-04-30T11:16:13.764Z</time></trkpt><trkpt lat="40.2698983" lon="8.7661617"><ele>576.0</ele><time>2026-04-30T11:16:14.802Z</time></trkpt><trkpt lat="40.2699167" lon="8.7663583"><ele>576.0</ele><time>2026-04-30T11:16:15.762Z</time></trkpt><trkpt lat="40.26994" lon="8.7665617"><ele>576.0</ele><time>2026-04-30T11:16:16.763Z</time></trkpt><trkpt lat="40.269965" lon="8.76674"><ele>576.0</ele><time>2026-04-30T11:16:17.759Z</time></trkpt><trkpt lat="40.2699817" lon="8.766955"><ele>576.0</ele><time>2026-04-30T11:16:18.762Z</time></trkpt><trkpt lat="40.2699883" lon="8.7671633"><ele>576.0</ele><time>2026-04-30T11:16:19.765Z</time></trkpt><trkpt lat="40.2699883" lon="8.7673617"><ele>576.0</ele><time>2026-04-30T11:16:20.812Z</time></trkpt><trkpt lat="40.2699767" lon="8.76755"><ele>576.0</ele><time>2026-04-30T11:16:21.762Z</time></trkpt><trkpt lat="40.2699733" lon="8.7677533"><ele>575.75</ele><time>2026-04-30T11:16:22.761Z</time></trkpt><trkpt lat="40.2699633" lon="8.7679617"><ele>575.5</ele><time>2026-04-30T11:16:23.757Z</time></trkpt><trkpt lat="40.269945" lon="8.7681483"><ele>575.25</ele><time>2026-04-30T11:16:24.763Z</time></trkpt><trkpt lat="40.2699067" lon="8.7683333"><ele>575.0</ele><time>2026-04-30T11:16:25.763Z</time></trkpt><trkpt lat="40.2698617" lon="8.76851"><ele>575.0</ele><time>2026-04-30T11:16:26.828Z</time></trkpt><trkpt lat="40.2698217" lon="8.768685"><ele>575.0</ele><time>2026-04-30T11:16:27.763Z</time></trkpt><trkpt lat="40.2697633" lon="8.7688717"><ele>575.0</ele><time>2026-04-30T11:16:28.763Z</time></trkpt><trkpt lat="40.2697117" lon="8.7690533"><ele>575.0</ele><time>2026-04-30T11:16:29.762Z</time></trkpt><trkpt lat="40.26966" lon="8.769235"><ele>575.0</ele><time>2026-04-30T11:16:30.762Z</time></trkpt><trkpt lat="40.2696033" lon="8.7694217"><ele>575.0</ele><time>2026-04-30T11:16:31.763Z</time></trkpt><trkpt lat="40.2695317" lon="8.76961"><ele>575.0</ele><time>2026-04-30T11:16:32.817Z</time></trkpt><trkpt lat="40.2694867" lon="8.7697933"><ele>575.0</ele><time>2026-04-30T11:16:33.762Z</time></trkpt><trkpt lat="40.2694417" lon="8.7699817"><ele>575.0</ele><time>2026-04-30T11:16:34.764Z</time></trkpt><trkpt lat="40.2693933" lon="8.770155"><ele>575.0</ele><time>2026-04-30T11:16:35.764Z</time></trkpt><trkpt lat="40.269285" lon="8.7705017"><ele>574.75</ele><time>2026-04-30T11:16:37.763Z</time></trkpt><trkpt lat="40.2692483" lon="8.7706767"><ele>574.5</ele><time>2026-04-30T11:16:38.803Z</time></trkpt><trkpt lat="40.2692117" lon="8.7708383"><ele>574.25</ele><time>2026-04-30T11:16:39.76Z</time></trkpt><trkpt lat="40.2691733" lon="8.7710283"><ele>574.0</ele><time>2026-04-30T11:16:40.762Z</time></trkpt><trkpt lat="40.2691117" lon="8.7711983"><ele>574.0</ele><time>2026-04-30T11:16:41.763Z</time></trkpt><trkpt lat="40.2690583" lon="8.7713617"><ele>574.0</ele><time>2026-04-30T11:16:42.763Z</time></trkpt><trkpt lat="40.2690033" lon="8.7715217"><ele>574.0</ele><time>2026-04-30T11:16:43.763Z</time></trkpt><trkpt lat="40.2689633" lon="8.7716783"><ele>574.0</ele><time>2026-04-30T11:16:44.804Z</time></trkpt><trkpt lat="40.2689217" lon="8.7718483"><ele>573.6666666666667</ele><time>2026-04-30T11:16:45.759Z</time></trkpt><trkpt lat="40.2688883" lon="8.771995"><ele>573.3333333333334</ele><time>2026-04-30T11:16:46.763Z</time></trkpt><trkpt lat="40.2688067" lon="8.7723067"><ele>573.0</ele><time>2026-04-30T11:16:48.761Z</time></trkpt><trkpt lat="40.2687417" lon="8.772465"><ele>573.0</ele><time>2026-04-30T11:16:49.764Z</time></trkpt><trkpt lat="40.2686867" lon="8.7726367"><ele>573.0</ele><time>2026-04-30T11:16:50.804Z</time></trkpt><trkpt lat="40.2686467" lon="8.7727933"><ele>573.0</ele><time>2026-04-30T11:16:51.76Z</time></trkpt><trkpt lat="40.2686133" lon="8.772955"><ele>573.0</ele><time>2026-04-30T11:16:52.759Z</time></trkpt><trkpt lat="40.26857" lon="8.7731033"><ele>573.0</ele><time>2026-04-30T11:16:53.76Z</time></trkpt><trkpt lat="40.26851" lon="8.7732433"><ele>573.0</ele><time>2026-04-30T11:16:54.763Z</time></trkpt><trkpt lat="40.2684583" lon="8.7734017"><ele>573.0</ele><time>2026-04-30T11:16:55.763Z</time></trkpt><trkpt lat="40.2683917" lon="8.773555"><ele>573.0</ele><time>2026-04-30T11:16:56.825Z</time></trkpt><trkpt lat="40.2683467" lon="8.7737133"><ele>573.0</ele><time>2026-04-30T11:16:57.763Z</time></trkpt><trkpt lat="40.2683083" lon="8.7738833"><ele>573.0</ele><time>2026-04-30T11:16:58.762Z</time></trkpt><trkpt lat="40.2682667" lon="8.7740367"><ele>573.0</ele><time>2026-04-30T11:16:59.761Z</time></trkpt><trkpt lat="40.2682333" lon="8.7741917"><ele>573.0</ele><time>2026-04-30T11:17:00.762Z</time></trkpt><trkpt lat="40.2682117" lon="8.7743317"><ele>573.0</ele><time>2026-04-30T11:17:01.766Z</time></trkpt><trkpt lat="40.26818" lon="8.774485"><ele>573.0</ele><time>2026-04-30T11:17:02.828Z</time></trkpt><trkpt lat="40.2681517" lon="8.7746367"><ele>573.0</ele><time>2026-04-30T11:17:03.761Z</time></trkpt><trkpt lat="40.2681133" lon="8.7747883"><ele>573.0</ele><time>2026-04-30T11:17:04.761Z</time></trkpt><trkpt lat="40.2680783" lon="8.7749383"><ele>573.0</ele><time>2026-04-30T11:17:05.761Z</time></trkpt><trkpt lat="40.26802" lon="8.7750783"><ele>573.0</ele><time>2026-04-30T11:17:06.763Z</time></trkpt><trkpt lat="40.267975" lon="8.775215"><ele>573.0</ele><time>2026-04-30T11:17:07.76Z</time></trkpt><trkpt lat="40.26794" lon="8.7753467"><ele>573.0</ele><time>2026-04-30T11:17:08.802Z</time></trkpt><trkpt lat="40.2679017" lon="8.7754967"><ele>573.25</ele><time>2026-04-30T11:17:09.761Z</time></trkpt><trkpt lat="40.267865" lon="8.7756367"><ele>573.5</ele><time>2026-04-30T11:17:10.76Z</time></trkpt><trkpt lat="40.2678333" lon="8.7757767"><ele>573.75</ele><time>2026-04-30T11:17:11.765Z</time></trkpt><trkpt lat="40.2678" lon="8.7759183"><ele>574.0</ele><time>2026-04-30T11:17:12.764Z</time></trkpt><trkpt lat="40.26776" lon="8.7760567"><ele>573.6</ele><time>2026-04-30T11:17:13.763Z</time></trkpt><trkpt lat="40.2677233" lon="8.7761833"><ele>573.2</ele><time>2026-04-30T11:17:14.801Z</time></trkpt><trkpt lat="40.267685" lon="8.7763283"><ele>572.8000000000001</ele><time>2026-04-30T11:17:15.76Z</time></trkpt><trkpt lat="40.2676367" lon="8.7764217"><ele>572.4</ele><time>2026-04-30T11:17:16.766Z</time></trkpt><trkpt lat="40.267575" lon="8.776515"><ele>572.0</ele><time>2026-04-30T11:17:17.759Z</time></trkpt><trkpt lat="40.26751" lon="8.7766083"><ele>572.0</ele><time>2026-04-30T11:17:18.759Z</time></trkpt><trkpt lat="40.2674417" lon="8.7767017"><ele>572.0</ele><time>2026-04-30T11:17:19.762Z</time></trkpt><trkpt lat="40.2673717" lon="8.7767967"><ele>572.0</ele><time>2026-04-30T11:17:20.806Z</time></trkpt><trkpt lat="40.2672933" lon="8.7768733"><ele>572.0</ele><time>2026-04-30T11:17:21.762Z</time></trkpt><trkpt lat="40.26721" lon="8.7769433"><ele>572.0</ele><time>2026-04-30T11:17:22.76Z</time></trkpt><trkpt lat="40.2671317" lon="8.7769633"><ele>571.2</ele><time>2026-04-30T11:17:23.759Z</time></trkpt><trkpt lat="40.2670533" lon="8.77703"><ele>570.4000000000001</ele><time>2026-04-30T11:17:24.764Z</time></trkpt><trkpt lat="40.266975" lon="8.7770867"><ele>569.5999999999999</ele><time>2026-04-30T11:17:25.764Z</time></trkpt><trkpt lat="40.26689" lon="8.7771483"><ele>568.8</ele><time>2026-04-30T11:17:26.826Z</time></trkpt><trkpt lat="40.2668133" lon="8.7772083"><ele>568.0</ele><time>2026-04-30T11:17:27.761Z</time></trkpt><trkpt lat="40.2667433" lon="8.7772667"><ele>568.0</ele><time>2026-04-30T11:17:28.764Z</time></trkpt><trkpt lat="40.26667" lon="8.777325"><ele>568.0</ele><time>2026-04-30T11:17:29.762Z</time></trkpt><trkpt lat="40.2665933" lon="8.7773883"><ele>568.0</ele><time>2026-04-30T11:17:30.763Z</time></trkpt><trkpt lat="40.2665167" lon="8.7774517"><ele>568.0</ele><time>2026-04-30T11:17:31.76Z</time></trkpt><trkpt lat="40.2664367" lon="8.7775133"><ele>568.0</ele><time>2026-04-30T11:17:32.811Z</time></trkpt><trkpt lat="40.2663617" lon="8.777575"><ele>568.0</ele><time>2026-04-30T11:17:33.764Z</time></trkpt><trkpt lat="40.266285" lon="8.777635"><ele>567.5</ele><time>2026-04-30T11:17:34.762Z</time></trkpt><trkpt lat="40.26621" lon="8.7776967"><ele>567.0</ele><time>2026-04-30T11:17:35.774Z</time></trkpt><trkpt lat="40.2661383" lon="8.7777567"><ele>566.5</ele><time>2026-04-30T11:17:36.763Z</time></trkpt><trkpt lat="40.2660683" lon="8.7778133"><ele>566.0</ele><time>2026-04-30T11:17:37.771Z</time></trkpt><trkpt lat="40.2660033" lon="8.7778683"><ele>565.5</ele><time>2026-04-30T11:17:38.804Z</time></trkpt><trkpt lat="40.2659367" lon="8.7779283"><ele>565.0</ele><time>2026-04-30T11:17:39.764Z</time></trkpt><trkpt lat="40.2658733" lon="8.7779867"><ele>565.0</ele><time>2026-04-30T11:17:40.763Z</time></trkpt><trkpt lat="40.2658133" lon="8.77804"><ele>565.0</ele><time>2026-04-30T11:17:41.765Z</time></trkpt><trkpt lat="40.2657567" lon="8.7780917"><ele>565.0</ele><time>2026-04-30T11:17:42.764Z</time></trkpt><trkpt lat="40.2657033" lon="8.7781383"><ele>565.0</ele><time>2026-04-30T11:17:43.763Z</time></trkpt><trkpt lat="40.26565" lon="8.778185"><ele>565.0</ele><time>2026-04-30T11:17:44.804Z</time></trkpt><trkpt lat="40.2655717" lon="8.7782717"><ele>565.0</ele><time>2026-04-30T11:17:46.762Z</time></trkpt><trkpt lat="40.26552" lon="8.778385"><ele>564.8</ele><time>2026-04-30T11:17:48.769Z</time></trkpt><trkpt lat="40.2654833" lon="8.778505"><ele>564.6</ele><time>2026-04-30T11:17:50.804Z</time></trkpt><trkpt lat="40.2654533" lon="8.77864"><ele>564.4</ele><time>2026-04-30T11:17:52.761Z</time></trkpt><trkpt lat="40.265425" lon="8.7787767"><ele>564.2</ele><time>2026-04-30T11:17:54.762Z</time></trkpt><trkpt lat="40.2654133" lon="8.778915"><ele>564.0</ele><time>2026-04-30T11:17:56.814Z</time></trkpt><trkpt lat="40.2654133" lon="8.7790433"><ele>563.8333333333334</ele><time>2026-04-30T11:17:58.761Z</time></trkpt><trkpt lat="40.2654233" lon="8.7791333"><ele>563.6666666666666</ele><time>2026-04-30T11:18:00.761Z</time></trkpt><trkpt lat="40.265535" lon="8.77915"><ele>563.5</ele><time>2026-04-30T11:20:01.759Z</time></trkpt><trkpt lat="40.2654783" lon="8.77919"><ele>563.3333333333333</ele><time>2026-04-30T11:24:23.777Z</time></trkpt><trkpt lat="40.265495" lon="8.779105"><ele>563.1666666666666</ele><time>2026-04-30T11:24:30.773Z</time></trkpt><trkpt lat="40.2654833" lon="8.77895"><ele>563.0</ele><time>2026-04-30T11:24:32.824Z</time></trkpt><trkpt lat="40.2654817" lon="8.7788117"><ele>563.0</ele><time>2026-04-30T11:24:34.789Z</time></trkpt><trkpt lat="40.2654817" lon="8.7787217"><ele>563.0</ele><time>2026-04-30T11:24:36.776Z</time></trkpt><trkpt lat="40.2656" lon="8.7786717"><ele>563.0</ele><time>2026-04-30T11:24:54.772Z</time></trkpt><trkpt lat="40.2656933" lon="8.7787183"><ele>563.0</ele><time>2026-04-30T11:25:13.774Z</time></trkpt><trkpt lat="40.2657367" lon="8.7785867"><ele>563.0</ele><time>2026-04-30T11:25:15.775Z</time></trkpt><trkpt lat="40.2657733" lon="8.7784333"><ele>563.4</ele><time>2026-04-30T11:25:17.775Z</time></trkpt><trkpt lat="40.26581" lon="8.7783"><ele>563.8</ele><time>2026-04-30T11:25:19.775Z</time></trkpt><trkpt lat="40.2658" lon="8.7781867"><ele>564.2</ele><time>2026-04-30T11:25:21.776Z</time></trkpt><trkpt lat="40.2657583" lon="8.778035"><ele>564.6</ele><time>2026-04-30T11:25:23.762Z</time></trkpt><trkpt lat="40.2657233" lon="8.7779383"><ele>565.0</ele><time>2026-04-30T11:25:24.775Z</time></trkpt><trkpt lat="40.2656817" lon="8.7778283"><ele>565.0</ele><time>2026-04-30T11:25:25.778Z</time></trkpt><trkpt lat="40.2656433" lon="8.7777283"><ele>565.0</ele><time>2026-04-30T11:25:26.838Z</time></trkpt><trkpt lat="40.2655883" lon="8.77763"><ele>565.0</ele><time>2026-04-30T11:25:27.776Z</time></trkpt><trkpt lat="40.2655183" lon="8.7775267"><ele>565.0</ele><time>2026-04-30T11:25:28.776Z</time></trkpt><trkpt lat="40.265435" lon="8.7774233"><ele>565.0</ele><time>2026-04-30T11:25:29.771Z</time></trkpt><trkpt lat="40.265355" lon="8.7773183"><ele>565.75</ele><time>2026-04-30T11:25:30.766Z</time></trkpt><trkpt lat="40.265275" lon="8.7772183"><ele>566.5</ele><time>2026-04-30T11:25:31.779Z</time></trkpt><trkpt lat="40.2651683" lon="8.7770883"><ele>567.25</ele><time>2026-04-30T11:25:32.815Z</time></trkpt><trkpt lat="40.2650933" lon="8.7769933"><ele>568.0</ele><time>2026-04-30T11:25:33.776Z</time></trkpt><trkpt lat="40.2650183" lon="8.7769"><ele>568.6666666666667</ele><time>2026-04-30T11:25:34.777Z</time></trkpt><trkpt lat="40.264945" lon="8.7768067"><ele>569.3333333333334</ele><time>2026-04-30T11:25:35.764Z</time></trkpt><trkpt lat="40.264885" lon="8.7767283"><ele>570.0</ele><time>2026-04-30T11:25:36.771Z</time></trkpt><trkpt lat="40.26484" lon="8.77664"><ele>570.6666666666666</ele><time>2026-04-30T11:25:37.777Z</time></trkpt><trkpt lat="40.26481" lon="8.7765517"><ele>571.3333333333333</ele><time>2026-04-30T11:25:38.816Z</time></trkpt><trkpt lat="40.2647983" lon="8.7764683"><ele>572.0</ele><time>2026-04-30T11:25:39.771Z</time></trkpt><trkpt lat="40.264835" lon="8.7763367"><ele>572.0</ele><time>2026-04-30T11:25:41.765Z</time></trkpt><trkpt lat="40.2649483" lon="8.7762183"><ele>572.0</ele><time>2026-04-30T11:25:43.775Z</time></trkpt><trkpt lat="40.2650317" lon="8.7761517"><ele>572.0</ele><time>2026-04-30T11:25:44.822Z</time></trkpt><trkpt lat="40.2651283" lon="8.77608"><ele>572.0</ele><time>2026-04-30T11:25:45.773Z</time></trkpt><trkpt lat="40.26523" lon="8.7760017"><ele>572.5</ele><time>2026-04-30T11:25:46.772Z</time></trkpt><trkpt lat="40.2653267" lon="8.77592"><ele>573.0</ele><time>2026-04-30T11:25:47.773Z</time></trkpt><trkpt lat="40.2654267" lon="8.7758383"><ele>573.5</ele><time>2026-04-30T11:25:48.772Z</time></trkpt><trkpt lat="40.2655333" lon="8.7757467"><ele>574.0</ele><time>2026-04-30T11:25:49.763Z</time></trkpt><trkpt lat="40.2656483" lon="8.7756533"><ele>574.0</ele><time>2026-04-30T11:25:50.816Z</time></trkpt><trkpt lat="40.2657583" lon="8.7755683"><ele>574.0</ele><time>2026-04-30T11:25:51.775Z</time></trkpt><trkpt lat="40.265865" lon="8.7754833"><ele>574.0</ele><time>2026-04-30T11:25:52.772Z</time></trkpt><trkpt lat="40.265965" lon="8.7754"><ele>574.0</ele><time>2026-04-30T11:25:53.779Z</time></trkpt><trkpt lat="40.2660583" lon="8.775315"><ele>574.0</ele><time>2026-04-30T11:25:54.773Z</time></trkpt><trkpt lat="40.2661467" lon="8.7752367"><ele>574.0</ele><time>2026-04-30T11:25:55.776Z</time></trkpt><trkpt lat="40.2662267" lon="8.7751633"><ele>574.0</ele><time>2026-04-30T11:25:56.802Z</time></trkpt><trkpt lat="40.266305" lon="8.77509"><ele>574.0</ele><time>2026-04-30T11:25:57.769Z</time></trkpt><trkpt lat="40.26637" lon="8.7750167"><ele>574.0</ele><time>2026-04-30T11:25:58.778Z</time></trkpt><trkpt lat="40.26642" lon="8.774935"><ele>574.25</ele><time>2026-04-30T11:25:59.755Z</time></trkpt><trkpt lat="40.2664433" lon="8.7748517"><ele>574.5</ele><time>2026-04-30T11:26:00.768Z</time></trkpt><trkpt lat="40.266405" lon="8.7746617"><ele>574.75</ele><time>2026-04-30T11:26:02.825Z</time></trkpt><trkpt lat="40.266325" lon="8.77455"><ele>575.0</ele><time>2026-04-30T11:26:03.776Z</time></trkpt><trkpt lat="40.2662217" lon="8.774425"><ele>574.5</ele><time>2026-04-30T11:26:04.775Z</time></trkpt><trkpt lat="40.26613" lon="8.7743133"><ele>574.0</ele><time>2026-04-30T11:26:05.773Z</time></trkpt><trkpt lat="40.266045" lon="8.7742067"><ele>573.5</ele><time>2026-04-30T11:26:06.769Z</time></trkpt><trkpt lat="40.26597" lon="8.774105"><ele>573.0</ele><time>2026-04-30T11:26:07.774Z</time></trkpt><trkpt lat="40.265905" lon="8.774005"><ele>573.0</ele><time>2026-04-30T11:26:08.819Z</time></trkpt><trkpt lat="40.2658417" lon="8.7738983"><ele>573.0</ele><time>2026-04-30T11:26:09.774Z</time></trkpt><trkpt lat="40.265775" lon="8.7737867"><ele>573.0</ele><time>2026-04-30T11:26:10.776Z</time></trkpt><trkpt lat="40.2657133" lon="8.77368"><ele>573.0</ele><time>2026-04-30T11:26:11.763Z</time></trkpt><trkpt lat="40.2656483" lon="8.7735667"><ele>573.0</ele><time>2026-04-30T11:26:12.773Z</time></trkpt><trkpt lat="40.2655867" lon="8.77345"><ele>573.5</ele><time>2026-04-30T11:26:13.776Z</time></trkpt><trkpt lat="40.2655217" lon="8.7733333"><ele>574.0</ele><time>2026-04-30T11:26:14.823Z</time></trkpt><trkpt lat="40.26545" lon="8.7732167"><ele>574.5</ele><time>2026-04-30T11:26:15.774Z</time></trkpt><trkpt lat="40.2653767" lon="8.7730983"><ele>575.0</ele><time>2026-04-30T11:26:16.771Z</time></trkpt><trkpt lat="40.2653017" lon="8.77298"><ele>575.0</ele><time>2026-04-30T11:26:17.775Z</time></trkpt><trkpt lat="40.2652267" lon="8.77286"><ele>575.0</ele><time>2026-04-30T11:26:18.776Z</time></trkpt><trkpt lat="40.2651583" lon="8.7727433"><ele>575.0</ele><time>2026-04-30T11:26:19.773Z</time></trkpt><trkpt lat="40.2650883" lon="8.772635"><ele>575.0</ele><time>2026-04-30T11:26:20.821Z</time></trkpt><trkpt lat="40.2650217" lon="8.7725333"><ele>575.0</ele><time>2026-04-30T11:26:21.775Z</time></trkpt><trkpt lat="40.264955" lon="8.7724333"><ele>574.8</ele><time>2026-04-30T11:26:22.773Z</time></trkpt><trkpt lat="40.2648817" lon="8.772335"><ele>574.6</ele><time>2026-04-30T11:26:23.775Z</time></trkpt><trkpt lat="40.2648183" lon="8.77223"><ele>574.4</ele><time>2026-04-30T11:26:24.773Z</time></trkpt><trkpt lat="40.2647617" lon="8.7721233"><ele>574.2</ele><time>2026-04-30T11:26:25.776Z</time></trkpt><trkpt lat="40.2647033" lon="8.77202"><ele>574.0</ele><time>2026-04-30T11:26:26.838Z</time></trkpt><trkpt lat="40.2646467" lon="8.771915"><ele>574.2</ele><time>2026-04-30T11:26:27.772Z</time></trkpt><trkpt lat="40.2645867" lon="8.771815"><ele>574.4</ele><time>2026-04-30T11:26:28.771Z</time></trkpt><trkpt lat="40.2645283" lon="8.7717233"><ele>574.6</ele><time>2026-04-30T11:26:29.777Z</time></trkpt><trkpt lat="40.2644683" lon="8.77163"><ele>574.8</ele><time>2026-04-30T11:26:30.774Z</time></trkpt><trkpt lat="40.2644117" lon="8.7715283"><ele>575.0</ele><time>2026-04-30T11:26:31.773Z</time></trkpt><trkpt lat="40.26436" lon="8.7714167"><ele>575.0</ele><time>2026-04-30T11:26:32.83Z</time></trkpt><trkpt lat="40.2643133" lon="8.771305"><ele>575.0</ele><time>2026-04-30T11:26:33.774Z</time></trkpt><trkpt lat="40.2642667" lon="8.7711933"><ele>575.0</ele><time>2026-04-30T11:26:34.775Z</time></trkpt><trkpt lat="40.2642267" lon="8.7710867"><ele>575.0</ele><time>2026-04-30T11:26:35.772Z</time></trkpt><trkpt lat="40.2641917" lon="8.7709867"><ele>575.0</ele><time>2026-04-30T11:26:36.775Z</time></trkpt><trkpt lat="40.26416" lon="8.7708967"><ele>575.0</ele><time>2026-04-30T11:26:37.776Z</time></trkpt><trkpt lat="40.26412" lon="8.7708067"><ele>575.0</ele><time>2026-04-30T11:26:38.823Z</time></trkpt><trkpt lat="40.26409" lon="8.7707133"><ele>575.0</ele><time>2026-04-30T11:26:39.775Z</time></trkpt><trkpt lat="40.26406" lon="8.770615"><ele>575.0</ele><time>2026-04-30T11:26:40.776Z</time></trkpt><trkpt lat="40.2640333" lon="8.7705133"><ele>575.0</ele><time>2026-04-30T11:26:41.758Z</time></trkpt><trkpt lat="40.2640067" lon="8.7704083"><ele>575.0</ele><time>2026-04-30T11:26:42.776Z</time></trkpt><trkpt lat="40.26398" lon="8.7703"><ele>575.0</ele><time>2026-04-30T11:26:43.775Z</time></trkpt><trkpt lat="40.263955" lon="8.770185"><ele>574.6</ele><time>2026-04-30T11:26:44.821Z</time></trkpt><trkpt lat="40.2639283" lon="8.77007"><ele>574.2</ele><time>2026-04-30T11:26:45.776Z</time></trkpt><trkpt lat="40.2639" lon="8.7699517"><ele>573.8</ele><time>2026-04-30T11:26:46.774Z</time></trkpt><trkpt lat="40.263875" lon="8.7698333"><ele>573.4</ele><time>2026-04-30T11:26:47.775Z</time></trkpt><trkpt lat="40.2638517" lon="8.7697117"><ele>573.0</ele><time>2026-04-30T11:26:48.774Z</time></trkpt><trkpt lat="40.263835" lon="8.7695883"><ele>573.0</ele><time>2026-04-30T11:26:49.774Z</time></trkpt><trkpt lat="40.2638267" lon="8.7694633"><ele>573.0</ele><time>2026-04-30T11:26:50.819Z</time></trkpt><trkpt lat="40.2638217" lon="8.7693333"><ele>573.0</ele><time>2026-04-30T11:26:51.774Z</time></trkpt><trkpt lat="40.263815" lon="8.7692067"><ele>573.0</ele><time>2026-04-30T11:26:52.771Z</time></trkpt><trkpt lat="40.2638083" lon="8.7690783"><ele>573.0</ele><time>2026-04-30T11:26:53.775Z</time></trkpt><trkpt lat="40.263805" lon="8.7689483"><ele>573.0</ele><time>2026-04-30T11:26:54.775Z</time></trkpt><trkpt lat="40.2638033" lon="8.76882"><ele>573.0</ele><time>2026-04-30T11:26:55.776Z</time></trkpt><trkpt lat="40.263805" lon="8.7686917"><ele>573.0</ele><time>2026-04-30T11:26:56.838Z</time></trkpt><trkpt lat="40.2638083" lon="8.768565"><ele>573.0</ele><time>2026-04-30T11:26:57.773Z</time></trkpt><trkpt lat="40.2638017" lon="8.7684317"><ele>573.0</ele><time>2026-04-30T11:26:58.777Z</time></trkpt><trkpt lat="40.263795" lon="8.7683017"><ele>572.8</ele><time>2026-04-30T11:26:59.775Z</time></trkpt><trkpt lat="40.2637933" lon="8.7681717"><ele>572.5999999999999</ele><time>2026-04-30T11:27:00.777Z</time></trkpt><trkpt lat="40.2637883" lon="8.76804"><ele>572.4000000000001</ele><time>2026-04-30T11:27:01.775Z</time></trkpt><trkpt lat="40.2637917" lon="8.7679067"><ele>572.2</ele><time>2026-04-30T11:27:02.829Z</time></trkpt><trkpt lat="40.2637933" lon="8.7677717"><ele>572.0</ele><time>2026-04-30T11:27:03.774Z</time></trkpt><trkpt lat="40.2637983" lon="8.7676367"><ele>572.0</ele><time>2026-04-30T11:27:04.776Z</time></trkpt><trkpt lat="40.2638" lon="8.7675033"><ele>572.0</ele><time>2026-04-30T11:27:05.774Z</time></trkpt><trkpt lat="40.2638017" lon="8.7673667"><ele>572.0</ele><time>2026-04-30T11:27:06.774Z</time></trkpt><trkpt lat="40.2638" lon="8.76723"><ele>572.0</ele><time>2026-04-30T11:27:07.775Z</time></trkpt><trkpt lat="40.2637983" lon="8.7670917"><ele>572.0</ele><time>2026-04-30T11:27:08.821Z</time></trkpt><trkpt lat="40.2637967" lon="8.7669517"><ele>572.0</ele><time>2026-04-30T11:27:09.775Z</time></trkpt><trkpt lat="40.263795" lon="8.7668133"><ele>572.0</ele><time>2026-04-30T11:27:10.771Z</time></trkpt><trkpt lat="40.263795" lon="8.766675"><ele>572.0</ele><time>2026-04-30T11:27:11.774Z</time></trkpt><trkpt lat="40.263795" lon="8.7665383"><ele>572.0</ele><time>2026-04-30T11:27:12.774Z</time></trkpt><trkpt lat="40.2637967" lon="8.7664033"><ele>572.0</ele><time>2026-04-30T11:27:13.772Z</time></trkpt><trkpt lat="40.2637967" lon="8.766265"><ele>572.0</ele><time>2026-04-30T11:27:14.822Z</time></trkpt><trkpt lat="40.2637933" lon="8.7661267"><ele>572.0</ele><time>2026-04-30T11:27:15.773Z</time></trkpt><trkpt lat="40.26379" lon="8.7659833"><ele>572.0</ele><time>2026-04-30T11:27:16.774Z</time></trkpt><trkpt lat="40.2637883" lon="8.7658433"><ele>572.0</ele><time>2026-04-30T11:27:17.777Z</time></trkpt><trkpt lat="40.263785" lon="8.7656983"><ele>572.0</ele><time>2026-04-30T11:27:18.776Z</time></trkpt><trkpt lat="40.2637817" lon="8.765555"><ele>571.2</ele><time>2026-04-30T11:27:19.773Z</time></trkpt><trkpt lat="40.2637717" lon="8.7654117"><ele>570.4000000000001</ele><time>2026-04-30T11:27:20.824Z</time></trkpt><trkpt lat="40.26376" lon="8.7652683"><ele>569.5999999999999</ele><time>2026-04-30T11:27:21.774Z</time></trkpt><trkpt lat="40.2637383" lon="8.7651283"><ele>568.8</ele><time>2026-04-30T11:27:22.773Z</time></trkpt><trkpt lat="40.2637067" lon="8.765"><ele>568.0</ele><time>2026-04-30T11:27:23.771Z</time></trkpt><trkpt lat="40.2636683" lon="8.7648767"><ele>567.8333333333334</ele><time>2026-04-30T11:27:24.774Z</time></trkpt><trkpt lat="40.2636267" lon="8.7647667"><ele>567.6666666666667</ele><time>2026-04-30T11:27:25.765Z</time></trkpt><trkpt lat="40.2635783" lon="8.7646683"><ele>567.5</ele><time>2026-04-30T11:27:26.837Z</time></trkpt><trkpt lat="40.26353" lon="8.7645733"><ele>567.3333333333334</ele><time>2026-04-30T11:27:27.772Z</time></trkpt><trkpt lat="40.2634833" lon="8.7644883"><ele>567.1666666666666</ele><time>2026-04-30T11:27:28.774Z</time></trkpt><trkpt lat="40.2634383" lon="8.7644083"><ele>567.0</ele><time>2026-04-30T11:27:29.774Z</time></trkpt><trkpt lat="40.2633933" lon="8.7643367"><ele>566.8000000000001</ele><time>2026-04-30T11:27:30.774Z</time></trkpt><trkpt lat="40.2633517" lon="8.76427"><ele>566.6</ele><time>2026-04-30T11:27:31.774Z</time></trkpt><trkpt lat="40.2632833" lon="8.7641467"><ele>566.4000000000001</ele><time>2026-04-30T11:27:33.775Z</time></trkpt><trkpt lat="40.2632233" lon="8.764035"><ele>566.2</ele><time>2026-04-30T11:27:35.762Z</time></trkpt><trkpt lat="40.2631683" lon="8.763935"><ele>566.0</ele><time>2026-04-30T11:27:37.759Z</time></trkpt><trkpt lat="40.2631317" lon="8.7638433"><ele>566.0</ele><time>2026-04-30T11:27:39.761Z</time></trkpt><trkpt lat="40.2630933" lon="8.7637633"><ele>566.0</ele><time>2026-04-30T11:27:41.765Z</time></trkpt><trkpt lat="40.2630567" lon="8.7636867"><ele>566.0</ele><time>2026-04-30T11:27:43.765Z</time></trkpt><trkpt lat="40.263025" lon="8.763605"><ele>566.0</ele><time>2026-04-30T11:27:45.766Z</time></trkpt><trkpt lat="40.2630317" lon="8.7635167"><ele>566.0</ele><time>2026-04-30T11:27:48.761Z</time></trkpt><trkpt lat="40.2630683" lon="8.76344"><ele>566.0</ele><time>2026-04-30T11:27:52.758Z</time></trkpt><trkpt lat="40.2631417" lon="8.7634867"><ele>566.0</ele><time>2026-04-30T11:29:56.844Z</time></trkpt><trkpt lat="40.2631033" lon="8.7633983"><ele>566.0</ele><time>2026-04-30T11:30:31.779Z</time></trkpt><trkpt lat="40.2630783" lon="8.7634983"><ele>566.0</ele><time>2026-04-30T11:30:54.781Z</time></trkpt><trkpt lat="40.2631183" lon="8.7636483"><ele>566.0</ele><time>2026-04-30T11:31:06.792Z</time></trkpt><trkpt lat="40.2632067" lon="8.7636283"><ele>566.0</ele><time>2026-04-30T11:36:27.789Z</time></trkpt><trkpt lat="40.2633" lon="8.7636917"><ele>566.0</ele><time>2026-04-30T11:38:15.779Z</time></trkpt><trkpt lat="40.26333" lon="8.763795"><ele>566.0</ele><time>2026-04-30T11:40:16.769Z</time></trkpt></trkseg><trkseg><trkpt lat="40.2632533" lon="8.7633867"><ele>566.0</ele><time>2026-04-30T12:58:08.159Z</time></trkpt><trkpt lat="40.2631917" lon="8.7634483"><ele>566.0</ele><time>2026-04-30T12:58:14.75Z</time></trkpt><trkpt lat="40.2632767" lon="8.763485"><ele>566.0</ele><time>2026-04-30T12:58:24.749Z</time></trkpt><trkpt lat="40.263225" lon="8.7636267"><ele>566.0</ele><time>2026-04-30T12:58:29.751Z</time></trkpt><trkpt lat="40.2631467" lon="8.7636417"><ele>566.0</ele><time>2026-04-30T12:58:32.753Z</time></trkpt><trkpt lat="40.26308" lon="8.7636567"><ele>566.0</ele><time>2026-04-30T12:58:37.753Z</time></trkpt><trkpt lat="40.2630217" lon="8.76362"><ele>565.3333333333333</ele><time>2026-04-30T12:58:47.753Z</time></trkpt><trkpt lat="40.2629883" lon="8.7636933"><ele>564.6666666666666</ele><time>2026-04-30T12:58:55.754Z</time></trkpt><trkpt lat="40.262955" lon="8.763765"><ele>564.0</ele><time>2026-04-30T12:59:08.755Z</time></trkpt><trkpt lat="40.262885" lon="8.763795"><ele>563.3333333333334</ele><time>2026-04-30T12:59:26.751Z</time></trkpt><trkpt lat="40.2628817" lon="8.7638783"><ele>562.6666666666667</ele><time>2026-04-30T12:59:44.759Z</time></trkpt><trkpt lat="40.2629333" lon="8.7637617"><ele>562.0</ele><time>2026-04-30T12:59:49.751Z</time></trkpt><trkpt lat="40.2629083" lon="8.7638617"><ele>562.0</ele><time>2026-04-30T12:59:50.757Z</time></trkpt><trkpt lat="40.2629417" lon="8.76375"><ele>562.0</ele><time>2026-04-30T12:59:56.747Z</time></trkpt><trkpt lat="40.2629783" lon="8.7636367"><ele>562.0</ele><time>2026-04-30T13:00:02.752Z</time></trkpt><trkpt lat="40.2630033" lon="8.76355"><ele>562.0</ele><time>2026-04-30T13:00:06.749Z</time></trkpt><trkpt lat="40.2630533" lon="8.7634983"><ele>562.0</ele><time>2026-04-30T13:00:08.76Z</time></trkpt><trkpt lat="40.2631133" lon="8.7634183"><ele>562.0</ele><time>2026-04-30T13:00:10.754Z</time></trkpt><trkpt lat="40.263175" lon="8.7633017"><ele>561.8333333333334</ele><time>2026-04-30T13:00:12.753Z</time></trkpt><trkpt lat="40.263265" lon="8.7632483"><ele>561.6666666666667</ele><time>2026-04-30T13:00:14.758Z</time></trkpt><trkpt lat="40.263195" lon="8.7632467"><ele>561.5</ele><time>2026-04-30T13:00:25.752Z</time></trkpt><trkpt lat="40.2631183" lon="8.7632833"><ele>561.3333333333334</ele><time>2026-04-30T13:00:27.754Z</time></trkpt><trkpt lat="40.263075" lon="8.7633533"><ele>561.1666666666666</ele><time>2026-04-30T13:00:29.755Z</time></trkpt><trkpt lat="40.263035" lon="8.76343"><ele>561.0</ele><time>2026-04-30T13:00:31.753Z</time></trkpt><trkpt lat="40.26298" lon="8.763495"><ele>561.0</ele><time>2026-04-30T13:00:34.752Z</time></trkpt><trkpt lat="40.263" lon="8.76358"><ele>561.0</ele><time>2026-04-30T13:00:41.749Z</time></trkpt><trkpt lat="40.262945" lon="8.763495"><ele>561.0</ele><time>2026-04-30T13:00:55.755Z</time></trkpt><trkpt lat="40.2629017" lon="8.7634167"><ele>561.0</ele><time>2026-04-30T13:00:57.754Z</time></trkpt><trkpt lat="40.2628583" lon="8.76334"><ele>561.0</ele><time>2026-04-30T13:00:59.755Z</time></trkpt><trkpt lat="40.2628133" lon="8.7632683"><ele>561.0</ele><time>2026-04-30T13:01:01.751Z</time></trkpt><trkpt lat="40.26276" lon="8.7631883"><ele>561.0</ele><time>2026-04-30T13:01:03.754Z</time></trkpt><trkpt lat="40.2627033" lon="8.7630867"><ele>561.0</ele><time>2026-04-30T13:01:05.751Z</time></trkpt><trkpt lat="40.26262" lon="8.7629483"><ele>561.0</ele><time>2026-04-30T13:01:07.756Z</time></trkpt><trkpt lat="40.2625633" lon="8.7628483"><ele>561.0</ele><time>2026-04-30T13:01:08.756Z</time></trkpt><trkpt lat="40.2625117" lon="8.7627517"><ele>561.0</ele><time>2026-04-30T13:01:09.753Z</time></trkpt><trkpt lat="40.2624617" lon="8.7626517"><ele>561.2</ele><time>2026-04-30T13:01:10.754Z</time></trkpt><trkpt lat="40.26241" lon="8.762555"><ele>561.4000000000001</ele><time>2026-04-30T13:01:11.755Z</time></trkpt><trkpt lat="40.262355" lon="8.7624567"><ele>561.6</ele><time>2026-04-30T13:01:12.75Z</time></trkpt><trkpt lat="40.2622983" lon="8.7623617"><ele>561.8000000000001</ele><time>2026-04-30T13:01:13.754Z</time></trkpt><trkpt lat="40.2622433" lon="8.76226"><ele>562.0</ele><time>2026-04-30T13:01:14.763Z</time></trkpt><trkpt lat="40.2621933" lon="8.7621467"><ele>561.8000000000001</ele><time>2026-04-30T13:01:15.75Z</time></trkpt><trkpt lat="40.26213" lon="8.762035"><ele>561.6</ele><time>2026-04-30T13:01:16.751Z</time></trkpt><trkpt lat="40.2620633" lon="8.7619267"><ele>561.4000000000001</ele><time>2026-04-30T13:01:17.754Z</time></trkpt><trkpt lat="40.2620017" lon="8.7618167"><ele>561.2</ele><time>2026-04-30T13:01:18.757Z</time></trkpt><trkpt lat="40.2619383" lon="8.761705"><ele>561.0</ele><time>2026-04-30T13:01:19.753Z</time></trkpt><trkpt lat="40.2618767" lon="8.76159"><ele>561.0</ele><time>2026-04-30T13:01:20.766Z</time></trkpt><trkpt lat="40.2618167" lon="8.7614733"><ele>561.0</ele><time>2026-04-30T13:01:21.754Z</time></trkpt><trkpt lat="40.2617567" lon="8.7613533"><ele>561.0</ele><time>2026-04-30T13:01:22.755Z</time></trkpt><trkpt lat="40.2616933" lon="8.7612333"><ele>561.0</ele><time>2026-04-30T13:01:23.756Z</time></trkpt><trkpt lat="40.26163" lon="8.76111"><ele>561.0</ele><time>2026-04-30T13:01:24.755Z</time></trkpt><trkpt lat="40.2615667" lon="8.7609917"><ele>561.0</ele><time>2026-04-30T13:01:25.755Z</time></trkpt><trkpt lat="40.2615117" lon="8.7608733"><ele>561.0</ele><time>2026-04-30T13:01:26.751Z</time></trkpt><trkpt lat="40.261455" lon="8.7607517"><ele>561.0</ele><time>2026-04-30T13:01:27.752Z</time></trkpt><trkpt lat="40.2613983" lon="8.7606267"><ele>561.0</ele><time>2026-04-30T13:01:28.751Z</time></trkpt><trkpt lat="40.2613367" lon="8.7605017"><ele>561.0</ele><time>2026-04-30T13:01:29.754Z</time></trkpt><trkpt lat="40.2612783" lon="8.76038"><ele>561.0</ele><time>2026-04-30T13:01:30.755Z</time></trkpt><trkpt lat="40.2612183" lon="8.7602617"><ele>561.0</ele><time>2026-04-30T13:01:31.755Z</time></trkpt><trkpt lat="40.2611617" lon="8.7601467"><ele>561.0</ele><time>2026-04-30T13:01:32.751Z</time></trkpt><trkpt lat="40.2611067" lon="8.7600367"><ele>561.0</ele><time>2026-04-30T13:01:33.754Z</time></trkpt><trkpt lat="40.2610467" lon="8.7599267"><ele>561.0</ele><time>2026-04-30T13:01:34.75Z</time></trkpt><trkpt lat="40.2609833" lon="8.7598133"><ele>561.0</ele><time>2026-04-30T13:01:35.75Z</time></trkpt><trkpt lat="40.2609167" lon="8.759695"><ele>561.0</ele><time>2026-04-30T13:01:36.755Z</time></trkpt><trkpt lat="40.2608467" lon="8.7595733"><ele>561.0</ele><time>2026-04-30T13:01:37.755Z</time></trkpt><trkpt lat="40.2607767" lon="8.7594517"><ele>561.0</ele><time>2026-04-30T13:01:38.757Z</time></trkpt><trkpt lat="40.2607083" lon="8.759325"><ele>561.25</ele><time>2026-04-30T13:01:39.752Z</time></trkpt><trkpt lat="40.26064" lon="8.7591967"><ele>561.5</ele><time>2026-04-30T13:01:40.755Z</time></trkpt><trkpt lat="40.2605667" lon="8.759065"><ele>561.75</ele><time>2026-04-30T13:01:41.751Z</time></trkpt><trkpt lat="40.2604867" lon="8.7589333"><ele>562.0</ele><time>2026-04-30T13:01:42.749Z</time></trkpt><trkpt lat="40.2604117" lon="8.7587983"><ele>562.0</ele><time>2026-04-30T13:01:43.76Z</time></trkpt><trkpt lat="40.2603383" lon="8.7586667"><ele>562.0</ele><time>2026-04-30T13:01:44.759Z</time></trkpt><trkpt lat="40.260265" lon="8.7585333"><ele>562.0</ele><time>2026-04-30T13:01:45.758Z</time></trkpt><trkpt lat="40.26019" lon="8.7583933"><ele>562.0</ele><time>2026-04-30T13:01:46.753Z</time></trkpt><trkpt lat="40.260115" lon="8.7582533"><ele>562.0</ele><time>2026-04-30T13:01:47.752Z</time></trkpt><trkpt lat="40.26004" lon="8.7581183"><ele>562.0</ele><time>2026-04-30T13:01:48.753Z</time></trkpt><trkpt lat="40.2599683" lon="8.7579817"><ele>562.0</ele><time>2026-04-30T13:01:49.754Z</time></trkpt><trkpt lat="40.2598967" lon="8.757845"><ele>562.0</ele><time>2026-04-30T13:01:50.754Z</time></trkpt><trkpt lat="40.2598233" lon="8.75771"><ele>562.0</ele><time>2026-04-30T13:01:51.752Z</time></trkpt><trkpt lat="40.25975" lon="8.7575717"><ele>562.0</ele><time>2026-04-30T13:01:52.757Z</time></trkpt><trkpt lat="40.2596817" lon="8.7574317"><ele>562.0</ele><time>2026-04-30T13:01:53.757Z</time></trkpt><trkpt lat="40.2596133" lon="8.75729"><ele>562.0</ele><time>2026-04-30T13:01:54.753Z</time></trkpt><trkpt lat="40.2595467" lon="8.7571467"><ele>562.0</ele><time>2026-04-30T13:01:55.753Z</time></trkpt><trkpt lat="40.2594817" lon="8.7570067"><ele>562.0</ele><time>2026-04-30T13:01:56.751Z</time></trkpt><trkpt lat="40.2594133" lon="8.7568683"><ele>562.0</ele><time>2026-04-30T13:01:57.75Z</time></trkpt><trkpt lat="40.2593433" lon="8.7567317"><ele>562.0</ele><time>2026-04-30T13:01:58.752Z</time></trkpt><trkpt lat="40.2592783" lon="8.7565967"><ele>561.75</ele><time>2026-04-30T13:01:59.755Z</time></trkpt><trkpt lat="40.2592117" lon="8.756455"><ele>561.5</ele><time>2026-04-30T13:02:00.754Z</time></trkpt><trkpt lat="40.2591433" lon="8.7563117"><ele>561.25</ele><time>2026-04-30T13:02:01.75Z</time></trkpt><trkpt lat="40.25908" lon="8.75617"><ele>561.0</ele><time>2026-04-30T13:02:02.754Z</time></trkpt><trkpt lat="40.2590217" lon="8.75603"><ele>561.4</ele><time>2026-04-30T13:02:03.749Z</time></trkpt><trkpt lat="40.258975" lon="8.7558917"><ele>561.8</ele><time>2026-04-30T13:02:04.75Z</time></trkpt><trkpt lat="40.2589383" lon="8.7557533"><ele>562.1999999999999</ele><time>2026-04-30T13:02:05.749Z</time></trkpt><trkpt lat="40.2589183" lon="8.755625"><ele>562.6</ele><time>2026-04-30T13:02:06.752Z</time></trkpt><trkpt lat="40.2589117" lon="8.7555033"><ele>563.0</ele><time>2026-04-30T13:02:07.751Z</time></trkpt><trkpt lat="40.2589267" lon="8.75539"><ele>563.0</ele><time>2026-04-30T13:02:08.76Z</time></trkpt><trkpt lat="40.2589633" lon="8.755275"><ele>563.0</ele><time>2026-04-30T13:02:09.754Z</time></trkpt><trkpt lat="40.259015" lon="8.75516"><ele>563.0</ele><time>2026-04-30T13:02:10.755Z</time></trkpt><trkpt lat="40.2590667" lon="8.7550317"><ele>563.0</ele><time>2026-04-30T13:02:11.751Z</time></trkpt><trkpt lat="40.2591167" lon="8.7548967"><ele>563.0</ele><time>2026-04-30T13:02:12.755Z</time></trkpt><trkpt lat="40.2591483" lon="8.7547567"><ele>563.8</ele><time>2026-04-30T13:02:13.755Z</time></trkpt><trkpt lat="40.2591567" lon="8.754615"><ele>564.5999999999999</ele><time>2026-04-30T13:02:14.765Z</time></trkpt><trkpt lat="40.2591417" lon="8.7544767"><ele>565.4000000000001</ele><time>2026-04-30T13:02:15.753Z</time></trkpt><trkpt lat="40.259105" lon="8.754345"><ele>566.2</ele><time>2026-04-30T13:02:16.758Z</time></trkpt><trkpt lat="40.2590517" lon="8.754225"><ele>567.0</ele><time>2026-04-30T13:02:17.751Z</time></trkpt><trkpt lat="40.25897" lon="8.7541267"><ele>567.25</ele><time>2026-04-30T13:02:18.754Z</time></trkpt><trkpt lat="40.2588733" lon="8.7540433"><ele>567.5</ele><time>2026-04-30T13:02:19.753Z</time></trkpt><trkpt lat="40.2587517" lon="8.753965"><ele>567.75</ele><time>2026-04-30T13:02:20.762Z</time></trkpt><trkpt lat="40.2586283" lon="8.7538933"><ele>568.0</ele><time>2026-04-30T13:02:21.753Z</time></trkpt><trkpt lat="40.2584967" lon="8.753825"><ele>568.0</ele><time>2026-04-30T13:02:22.753Z</time></trkpt><trkpt lat="40.2583583" lon="8.753755"><ele>568.0</ele><time>2026-04-30T13:02:23.754Z</time></trkpt><trkpt lat="40.25822" lon="8.75368"><ele>568.0</ele><time>2026-04-30T13:02:24.756Z</time></trkpt><trkpt lat="40.2580867" lon="8.7535983"><ele>568.0</ele><time>2026-04-30T13:02:25.757Z</time></trkpt><trkpt lat="40.2579633" lon="8.7535083"><ele>568.25</ele><time>2026-04-30T13:02:26.754Z</time></trkpt><trkpt lat="40.2578367" lon="8.7534117"><ele>568.5</ele><time>2026-04-30T13:02:27.753Z</time></trkpt><trkpt lat="40.2577133" lon="8.7533083"><ele>568.75</ele><time>2026-04-30T13:02:28.753Z</time></trkpt><trkpt lat="40.2575867" lon="8.7532017"><ele>569.0</ele><time>2026-04-30T13:02:29.753Z</time></trkpt><trkpt lat="40.2574667" lon="8.75309"><ele>569.0</ele><time>2026-04-30T13:02:30.754Z</time></trkpt><trkpt lat="40.25735" lon="8.7529683"><ele>569.0</ele><time>2026-04-30T13:02:31.756Z</time></trkpt><trkpt lat="40.2572317" lon="8.752845"><ele>569.0</ele><time>2026-04-30T13:02:32.757Z</time></trkpt><trkpt lat="40.2571233" lon="8.7527167"><ele>569.0</ele><time>2026-04-30T13:02:33.752Z</time></trkpt><trkpt lat="40.257015" lon="8.7525817"><ele>568.75</ele><time>2026-04-30T13:02:34.751Z</time></trkpt><trkpt lat="40.2569083" lon="8.75244"><ele>568.5</ele><time>2026-04-30T13:02:35.748Z</time></trkpt><trkpt lat="40.2568117" lon="8.752295"><ele>568.25</ele><time>2026-04-30T13:02:36.75Z</time></trkpt><trkpt lat="40.2567217" lon="8.752155"><ele>568.0</ele><time>2026-04-30T13:02:37.753Z</time></trkpt><trkpt lat="40.25664" lon="8.7520217"><ele>568.0</ele><time>2026-04-30T13:02:38.764Z</time></trkpt><trkpt lat="40.25656" lon="8.7518967"><ele>568.0</ele><time>2026-04-30T13:02:39.751Z</time></trkpt><trkpt lat="40.2564783" lon="8.7517767"><ele>568.0</ele><time>2026-04-30T13:02:40.752Z</time></trkpt><trkpt lat="40.2564" lon="8.75165"><ele>568.0</ele><time>2026-04-30T13:02:41.755Z</time></trkpt><trkpt lat="40.2563167" lon="8.7515167"><ele>568.5</ele><time>2026-04-30T13:02:42.755Z</time></trkpt><trkpt lat="40.2562333" lon="8.7513767"><ele>569.0</ele><time>2026-04-30T13:02:43.757Z</time></trkpt><trkpt lat="40.2561533" lon="8.7512267"><ele>569.5</ele><time>2026-04-30T13:02:44.767Z</time></trkpt><trkpt lat="40.25608" lon="8.7510567"><ele>570.0</ele><time>2026-04-30T13:02:45.753Z</time></trkpt><trkpt lat="40.2560067" lon="8.750875"><ele>570.0</ele><time>2026-04-30T13:02:46.753Z</time></trkpt><trkpt lat="40.2559217" lon="8.7506883"><ele>570.0</ele><time>2026-04-30T13:02:47.751Z</time></trkpt><trkpt lat="40.2558267" lon="8.750505"><ele>570.0</ele><time>2026-04-30T13:02:48.75Z</time></trkpt><trkpt lat="40.2557217" lon="8.75032"><ele>569.0</ele><time>2026-04-30T13:02:49.751Z</time></trkpt><trkpt lat="40.2556117" lon="8.7501267"><ele>568.0</ele><time>2026-04-30T13:02:50.767Z</time></trkpt><trkpt lat="40.2554983" lon="8.7499317"><ele>567.0</ele><time>2026-04-30T13:02:51.755Z</time></trkpt><trkpt lat="40.255385" lon="8.7497333"><ele>567.0</ele><time>2026-04-30T13:02:52.751Z</time></trkpt><trkpt lat="40.2552683" lon="8.7495317"><ele>567.0</ele><time>2026-04-30T13:02:53.753Z</time></trkpt><trkpt lat="40.2551533" lon="8.74933"><ele>567.0</ele><time>2026-04-30T13:02:54.752Z</time></trkpt><trkpt lat="40.25504" lon="8.749125"><ele>568.0</ele><time>2026-04-30T13:02:55.753Z</time></trkpt><trkpt lat="40.2549317" lon="8.7489167"><ele>569.0</ele><time>2026-04-30T13:02:56.75Z</time></trkpt><trkpt lat="40.2548267" lon="8.7486983"><ele>570.0</ele><time>2026-04-30T13:02:57.75Z</time></trkpt><trkpt lat="40.2547267" lon="8.7484733"><ele>570.0</ele><time>2026-04-30T13:02:58.752Z</time></trkpt><trkpt lat="40.2546333" lon="8.748245"><ele>570.0</ele><time>2026-04-30T13:02:59.751Z</time></trkpt><trkpt lat="40.254545" lon="8.7480167"><ele>570.0</ele><time>2026-04-30T13:03:00.753Z</time></trkpt><trkpt lat="40.2544617" lon="8.7477817"><ele>570.6666666666666</ele><time>2026-04-30T13:03:01.752Z</time></trkpt><trkpt lat="40.2543783" lon="8.7475467"><ele>571.3333333333333</ele><time>2026-04-30T13:03:02.753Z</time></trkpt><trkpt lat="40.2542967" lon="8.74731"><ele>572.0</ele><time>2026-04-30T13:03:03.749Z</time></trkpt><trkpt lat="40.2542167" lon="8.7470717"><ele>572.6666666666666</ele><time>2026-04-30T13:03:04.751Z</time></trkpt><trkpt lat="40.2541417" lon="8.7468317"><ele>573.3333333333334</ele><time>2026-04-30T13:03:05.754Z</time></trkpt><trkpt lat="40.2540717" lon="8.7465817"><ele>574.0</ele><time>2026-04-30T13:03:06.752Z</time></trkpt><trkpt lat="40.254005" lon="8.7463317"><ele>573.0</ele><time>2026-04-30T13:03:07.754Z</time></trkpt><trkpt lat="40.253945" lon="8.7460817"><ele>572.0</ele><time>2026-04-30T13:03:08.766Z</time></trkpt><trkpt lat="40.253895" lon="8.745815"><ele>571.0</ele><time>2026-04-30T13:03:09.755Z</time></trkpt><trkpt lat="40.2538517" lon="8.7455517"><ele>571.0</ele><time>2026-04-30T13:03:10.753Z</time></trkpt><trkpt lat="40.2538083" lon="8.745275"><ele>571.0</ele><time>2026-04-30T13:03:11.754Z</time></trkpt><trkpt lat="40.253755" lon="8.7450183"><ele>571.0</ele><time>2026-04-30T13:03:12.748Z</time></trkpt><trkpt lat="40.2536917" lon="8.74476"><ele>570.6666666666667</ele><time>2026-04-30T13:03:13.755Z</time></trkpt><trkpt lat="40.25366" lon="8.7444883"><ele>570.3333333333334</ele><time>2026-04-30T13:03:14.765Z</time></trkpt><trkpt lat="40.2536267" lon="8.74421"><ele>570.0</ele><time>2026-04-30T13:03:15.752Z</time></trkpt><trkpt lat="40.2535917" lon="8.743945"><ele>570.6666666666666</ele><time>2026-04-30T13:03:16.752Z</time></trkpt><trkpt lat="40.2535533" lon="8.7436817"><ele>571.3333333333333</ele><time>2026-04-30T13:03:17.749Z</time></trkpt><trkpt lat="40.253515" lon="8.74342"><ele>572.0</ele><time>2026-04-30T13:03:18.754Z</time></trkpt><trkpt lat="40.2534767" lon="8.7431617"><ele>572.3333333333333</ele><time>2026-04-30T13:03:19.751Z</time></trkpt><trkpt lat="40.2534333" lon="8.742895"><ele>572.6666666666666</ele><time>2026-04-30T13:03:20.761Z</time></trkpt><trkpt lat="40.25339" lon="8.7426217"><ele>573.0</ele><time>2026-04-30T13:03:21.75Z</time></trkpt><trkpt lat="40.25336" lon="8.7423683"><ele>573.6666666666666</ele><time>2026-04-30T13:03:22.756Z</time></trkpt><trkpt lat="40.2533267" lon="8.7421133"><ele>574.3333333333333</ele><time>2026-04-30T13:03:23.748Z</time></trkpt><trkpt lat="40.2532967" lon="8.7418633"><ele>575.0</ele><time>2026-04-30T13:03:24.751Z</time></trkpt><trkpt lat="40.2532617" lon="8.7416083"><ele>575.6666666666666</ele><time>2026-04-30T13:03:25.751Z</time></trkpt><trkpt lat="40.253215" lon="8.7413533"><ele>576.3333333333334</ele><time>2026-04-30T13:03:26.754Z</time></trkpt><trkpt lat="40.2531633" lon="8.7411"><ele>577.0</ele><time>2026-04-30T13:03:27.754Z</time></trkpt><trkpt lat="40.2531017" lon="8.74084"><ele>575.3333333333334</ele><time>2026-04-30T13:03:28.755Z</time></trkpt><trkpt lat="40.253035" lon="8.7405867"><ele>573.6666666666666</ele><time>2026-04-30T13:03:29.755Z</time></trkpt><trkpt lat="40.25299" lon="8.740295"><ele>572.0</ele><time>2026-04-30T13:03:30.757Z</time></trkpt><trkpt lat="40.2529267" lon="8.7400467"><ele>572.0</ele><time>2026-04-30T13:03:31.753Z</time></trkpt><trkpt lat="40.2528667" lon="8.7397917"><ele>572.0</ele><time>2026-04-30T13:03:32.754Z</time></trkpt><trkpt lat="40.2528033" lon="8.7395433"><ele>572.0</ele><time>2026-04-30T13:03:33.752Z</time></trkpt><trkpt lat="40.25273" lon="8.7392983"><ele>572.3333333333333</ele><time>2026-04-30T13:03:34.75Z</time></trkpt><trkpt lat="40.2526617" lon="8.7390517"><ele>572.6666666666666</ele><time>2026-04-30T13:03:35.75Z</time></trkpt><trkpt lat="40.2525933" lon="8.7387967"><ele>573.0</ele><time>2026-04-30T13:03:36.757Z</time></trkpt><trkpt lat="40.2525267" lon="8.738555"><ele>573.6666666666666</ele><time>2026-04-30T13:03:37.755Z</time></trkpt><trkpt lat="40.25247" lon="8.7383017"><ele>574.3333333333333</ele><time>2026-04-30T13:03:38.761Z</time></trkpt><trkpt lat="40.2524183" lon="8.7380533"><ele>575.0</ele><time>2026-04-30T13:03:39.753Z</time></trkpt><trkpt lat="40.2523383" lon="8.7378083"><ele>575.0</ele><time>2026-04-30T13:03:40.755Z</time></trkpt><trkpt lat="40.25227" lon="8.7375567"><ele>575.0</ele><time>2026-04-30T13:03:41.751Z</time></trkpt><trkpt lat="40.2521933" lon="8.737305"><ele>575.0</ele><time>2026-04-30T13:03:42.749Z</time></trkpt><trkpt lat="40.2521117" lon="8.7370567"><ele>574.3333333333333</ele><time>2026-04-30T13:03:43.752Z</time></trkpt><trkpt lat="40.2520317" lon="8.7368133"><ele>573.6666666666666</ele><time>2026-04-30T13:03:44.764Z</time></trkpt><trkpt lat="40.25195" lon="8.7365783"><ele>573.0</ele><time>2026-04-30T13:03:45.753Z</time></trkpt><trkpt lat="40.2518883" lon="8.736325"><ele>573.0</ele><time>2026-04-30T13:03:46.751Z</time></trkpt><trkpt lat="40.251815" lon="8.7360817"><ele>573.0</ele><time>2026-04-30T13:03:47.753Z</time></trkpt><trkpt lat="40.25175" lon="8.7358333"><ele>573.0</ele><time>2026-04-30T13:03:48.751Z</time></trkpt><trkpt lat="40.2516767" lon="8.7355833"><ele>573.0</ele><time>2026-04-30T13:03:49.755Z</time></trkpt><trkpt lat="40.2515983" lon="8.73535"><ele>573.0</ele><time>2026-04-30T13:03:50.764Z</time></trkpt><trkpt lat="40.2515383" lon="8.735085"><ele>573.0</ele><time>2026-04-30T13:03:51.753Z</time></trkpt><trkpt lat="40.2514683" lon="8.7348333"><ele>572.3333333333334</ele><time>2026-04-30T13:03:52.755Z</time></trkpt><trkpt lat="40.2513883" lon="8.7345883"><ele>571.6666666666667</ele><time>2026-04-30T13:03:53.751Z</time></trkpt><trkpt lat="40.251325" lon="8.7343417"><ele>571.0</ele><time>2026-04-30T13:03:54.757Z</time></trkpt><trkpt lat="40.251255" lon="8.7340817"><ele>571.0</ele><time>2026-04-30T13:03:55.749Z</time></trkpt><trkpt lat="40.251185" lon="8.733825"><ele>571.0</ele><time>2026-04-30T13:03:56.752Z</time></trkpt><trkpt lat="40.2511083" lon="8.733575"><ele>571.0</ele><time>2026-04-30T13:03:57.754Z</time></trkpt><trkpt lat="40.2510333" lon="8.733325"><ele>572.3333333333334</ele><time>2026-04-30T13:03:58.749Z</time></trkpt><trkpt lat="40.25095" lon="8.7330733"><ele>573.6666666666666</ele><time>2026-04-30T13:03:59.753Z</time></trkpt><trkpt lat="40.250875" lon="8.7328283"><ele>575.0</ele><time>2026-04-30T13:04:00.748Z</time></trkpt><trkpt lat="40.2508017" lon="8.7325917"><ele>576.0</ele><time>2026-04-30T13:04:01.754Z</time></trkpt><trkpt lat="40.250725" lon="8.7323583"><ele>577.0</ele><time>2026-04-30T13:04:02.754Z</time></trkpt><trkpt lat="40.2506367" lon="8.7321267"><ele>578.0</ele><time>2026-04-30T13:04:03.75Z</time></trkpt><trkpt lat="40.2505467" lon="8.7318983"><ele>578.0</ele><time>2026-04-30T13:04:04.755Z</time></trkpt><trkpt lat="40.250455" lon="8.73168"><ele>578.0</ele><time>2026-04-30T13:04:05.75Z</time></trkpt><trkpt lat="40.25036" lon="8.7314717"><ele>578.0</ele><time>2026-04-30T13:04:06.751Z</time></trkpt><trkpt lat="40.2502483" lon="8.7312617"><ele>579.3333333333333</ele><time>2026-04-30T13:04:07.754Z</time></trkpt><trkpt lat="40.250125" lon="8.7310567"><ele>580.6666666666666</ele><time>2026-04-30T13:04:08.763Z</time></trkpt><trkpt lat="40.2500017" lon="8.7308333"><ele>582.0</ele><time>2026-04-30T13:04:09.75Z</time></trkpt><trkpt lat="40.2498833" lon="8.7306167"><ele>582.0</ele><time>2026-04-30T13:04:10.751Z</time></trkpt><trkpt lat="40.2497867" lon="8.7304017"><ele>582.0</ele><time>2026-04-30T13:04:11.752Z</time></trkpt><trkpt lat="40.2496733" lon="8.7301833"><ele>582.0</ele><time>2026-04-30T13:04:12.755Z</time></trkpt><trkpt lat="40.2495567" lon="8.7299783"><ele>583.0</ele><time>2026-04-30T13:04:13.75Z</time></trkpt><trkpt lat="40.24944" lon="8.7297533"><ele>584.0</ele><time>2026-04-30T13:04:14.765Z</time></trkpt><trkpt lat="40.2493267" lon="8.7295283"><ele>585.0</ele><time>2026-04-30T13:04:15.755Z</time></trkpt><trkpt lat="40.2491967" lon="8.72931"><ele>586.3333333333334</ele><time>2026-04-30T13:04:16.755Z</time></trkpt><trkpt lat="40.24908" lon="8.7291017"><ele>587.6666666666667</ele><time>2026-04-30T13:04:17.751Z</time></trkpt><trkpt lat="40.248965" lon="8.7288933"><ele>589.0</ele><time>2026-04-30T13:04:18.757Z</time></trkpt><trkpt lat="40.2488667" lon="8.728685"><ele>590.6666666666667</ele><time>2026-04-30T13:04:19.749Z</time></trkpt><trkpt lat="40.2487483" lon="8.7284767"><ele>592.3333333333334</ele><time>2026-04-30T13:04:20.762Z</time></trkpt><trkpt lat="40.2486317" lon="8.7282633"><ele>594.0</ele><time>2026-04-30T13:04:21.753Z</time></trkpt><trkpt lat="40.24852" lon="8.72805"><ele>594.0</ele><time>2026-04-30T13:04:22.754Z</time></trkpt><trkpt lat="40.2484167" lon="8.7278417"><ele>594.0</ele><time>2026-04-30T13:04:23.752Z</time></trkpt><trkpt lat="40.2483167" lon="8.727625"><ele>594.0</ele><time>2026-04-30T13:04:24.755Z</time></trkpt><trkpt lat="40.2482133" lon="8.72741"><ele>595.6666666666666</ele><time>2026-04-30T13:04:25.75Z</time></trkpt><trkpt lat="40.248105" lon="8.727205"><ele>597.3333333333333</ele><time>2026-04-30T13:04:26.749Z</time></trkpt><trkpt lat="40.24798" lon="8.7270167"><ele>599.0</ele><time>2026-04-30T13:04:27.755Z</time></trkpt><trkpt lat="40.24784" lon="8.7268367"><ele>599.0</ele><time>2026-04-30T13:04:28.75Z</time></trkpt><trkpt lat="40.2477117" lon="8.7266417"><ele>599.0</ele><time>2026-04-30T13:04:29.753Z</time></trkpt><trkpt lat="40.24758" lon="8.7264583"><ele>599.0</ele><time>2026-04-30T13:04:30.757Z</time></trkpt><trkpt lat="40.2474383" lon="8.726275"><ele>600.0</ele><time>2026-04-30T13:04:31.75Z</time></trkpt><trkpt lat="40.2472833" lon="8.7260967"><ele>601.0</ele><time>2026-04-30T13:04:32.75Z</time></trkpt><trkpt lat="40.2471333" lon="8.7259267"><ele>602.0</ele><time>2026-04-30T13:04:33.754Z</time></trkpt><trkpt lat="40.2469933" lon="8.72575"><ele>603.0</ele><time>2026-04-30T13:04:34.753Z</time></trkpt><trkpt lat="40.2468517" lon="8.72558"><ele>604.0</ele><time>2026-04-30T13:04:35.748Z</time></trkpt><trkpt lat="40.2467033" lon="8.725405"><ele>605.0</ele><time>2026-04-30T13:04:36.754Z</time></trkpt><trkpt lat="40.2465433" lon="8.7252383"><ele>606.0</ele><time>2026-04-30T13:04:37.755Z</time></trkpt><trkpt lat="40.2463733" lon="8.7250917"><ele>607.0</ele><time>2026-04-30T13:04:38.763Z</time></trkpt><trkpt lat="40.2461983" lon="8.72494"><ele>608.0</ele><time>2026-04-30T13:04:39.749Z</time></trkpt><trkpt lat="40.2460233" lon="8.724805"><ele>608.0</ele><time>2026-04-30T13:04:40.748Z</time></trkpt><trkpt lat="40.24585" lon="8.7246483"><ele>608.0</ele><time>2026-04-30T13:04:41.753Z</time></trkpt><trkpt lat="40.24568" lon="8.7244933"><ele>608.0</ele><time>2026-04-30T13:04:42.751Z</time></trkpt><trkpt lat="40.2455167" lon="8.7243367"><ele>610.0</ele><time>2026-04-30T13:04:43.755Z</time></trkpt><trkpt lat="40.2453517" lon="8.7241833"><ele>612.0</ele><time>2026-04-30T13:04:44.762Z</time></trkpt><trkpt lat="40.24518" lon="8.72403"><ele>614.0</ele><time>2026-04-30T13:04:45.752Z</time></trkpt><trkpt lat="40.2450067" lon="8.7238717"><ele>614.0</ele><time>2026-04-30T13:04:46.751Z</time></trkpt><trkpt lat="40.244845" lon="8.7237233"><ele>614.0</ele><time>2026-04-30T13:04:47.749Z</time></trkpt><trkpt lat="40.2446883" lon="8.7235617"><ele>614.0</ele><time>2026-04-30T13:04:48.756Z</time></trkpt><trkpt lat="40.2445217" lon="8.7233883"><ele>616.0</ele><time>2026-04-30T13:04:49.749Z</time></trkpt><trkpt lat="40.244375" lon="8.723245"><ele>618.0</ele><time>2026-04-30T13:04:50.764Z</time></trkpt><trkpt lat="40.2442067" lon="8.72308"><ele>620.0</ele><time>2026-04-30T13:04:51.75Z</time></trkpt><trkpt lat="40.2440367" lon="8.722925"><ele>620.6666666666666</ele><time>2026-04-30T13:04:52.749Z</time></trkpt><trkpt lat="40.24386" lon="8.7227783"><ele>621.3333333333334</ele><time>2026-04-30T13:04:53.748Z</time></trkpt><trkpt lat="40.2436817" lon="8.722635"><ele>622.0</ele><time>2026-04-30T13:04:54.749Z</time></trkpt><trkpt lat="40.2434783" lon="8.7224733"><ele>622.0</ele><time>2026-04-30T13:04:55.753Z</time></trkpt><trkpt lat="40.243285" lon="8.7223233"><ele>622.0</ele><time>2026-04-30T13:04:56.813Z</time></trkpt><trkpt lat="40.2431" lon="8.7221717"><ele>622.0</ele><time>2026-04-30T13:04:57.748Z</time></trkpt><trkpt lat="40.2429417" lon="8.7220267"><ele>622.3333333333334</ele><time>2026-04-30T13:04:58.748Z</time></trkpt><trkpt lat="40.2427867" lon="8.7218617"><ele>622.6666666666666</ele><time>2026-04-30T13:04:59.752Z</time></trkpt><trkpt lat="40.2426067" lon="8.7216767"><ele>623.0</ele><time>2026-04-30T13:05:00.75Z</time></trkpt><trkpt lat="40.24244" lon="8.7214867"><ele>623.0</ele><time>2026-04-30T13:05:01.75Z</time></trkpt><trkpt lat="40.24231" lon="8.7212717"><ele>623.0</ele><time>2026-04-30T13:05:02.752Z</time></trkpt><trkpt lat="40.2421717" lon="8.7210633"><ele>623.0</ele><time>2026-04-30T13:05:03.751Z</time></trkpt><trkpt lat="40.24205" lon="8.720835"><ele>625.0</ele><time>2026-04-30T13:05:04.752Z</time></trkpt><trkpt lat="40.241925" lon="8.7205783"><ele>627.0</ele><time>2026-04-30T13:05:05.749Z</time></trkpt><trkpt lat="40.241805" lon="8.720345"><ele>629.0</ele><time>2026-04-30T13:05:06.753Z</time></trkpt><trkpt lat="40.2416833" lon="8.7201067"><ele>629.6666666666666</ele><time>2026-04-30T13:05:07.752Z</time></trkpt><trkpt lat="40.2415783" lon="8.7198967"><ele>630.3333333333334</ele><time>2026-04-30T13:05:08.762Z</time></trkpt><trkpt lat="40.241445" lon="8.719665"><ele>631.0</ele><time>2026-04-30T13:05:09.751Z</time></trkpt><trkpt lat="40.241305" lon="8.719435"><ele>631.6666666666667</ele><time>2026-04-30T13:05:10.751Z</time></trkpt><trkpt lat="40.2411783" lon="8.7192017"><ele>632.3333333333334</ele><time>2026-04-30T13:05:11.755Z</time></trkpt><trkpt lat="40.2410567" lon="8.7189817"><ele>633.0</ele><time>2026-04-30T13:05:12.752Z</time></trkpt><trkpt lat="40.2409333" lon="8.7187433"><ele>634.0</ele><time>2026-04-30T13:05:13.755Z</time></trkpt><trkpt lat="40.2408083" lon="8.7184967"><ele>635.0</ele><time>2026-04-30T13:05:14.765Z</time></trkpt><trkpt lat="40.2406717" lon="8.7182533"><ele>636.3333333333333</ele><time>2026-04-30T13:05:15.75Z</time></trkpt><trkpt lat="40.2405383" lon="8.7180133"><ele>637.6666666666666</ele><time>2026-04-30T13:05:16.752Z</time></trkpt><trkpt lat="40.2404017" lon="8.7177917"><ele>639.0</ele><time>2026-04-30T13:05:17.749Z</time></trkpt><trkpt lat="40.2402617" lon="8.7175767"><ele>639.0</ele><time>2026-04-30T13:05:18.749Z</time></trkpt><trkpt lat="40.2401067" lon="8.717385"><ele>639.0</ele><time>2026-04-30T13:05:19.751Z</time></trkpt><trkpt lat="40.2399267" lon="8.7171917"><ele>639.0</ele><time>2026-04-30T13:05:20.762Z</time></trkpt><trkpt lat="40.23975" lon="8.717"><ele>641.0</ele><time>2026-04-30T13:05:21.749Z</time></trkpt><trkpt lat="40.2395817" lon="8.7168317"><ele>643.0</ele><time>2026-04-30T13:05:22.752Z</time></trkpt><trkpt lat="40.2394017" lon="8.71667"><ele>645.0</ele><time>2026-04-30T13:05:23.754Z</time></trkpt><trkpt lat="40.2392283" lon="8.7164967"><ele>645.0</ele><time>2026-04-30T13:05:24.755Z</time></trkpt><trkpt lat="40.23905" lon="8.71631"><ele>645.0</ele><time>2026-04-30T13:05:25.755Z</time></trkpt><trkpt lat="40.238895" lon="8.7161167"><ele>645.0</ele><time>2026-04-30T13:05:26.754Z</time></trkpt><trkpt lat="40.23872" lon="8.71595"><ele>643.5</ele><time>2026-04-30T13:05:27.753Z</time></trkpt><trkpt lat="40.2385267" lon="8.7157967"><ele>642.0</ele><time>2026-04-30T13:05:28.751Z</time></trkpt><trkpt lat="40.2383383" lon="8.715635"><ele>642.0</ele><time>2026-04-30T13:05:29.746Z</time></trkpt><trkpt lat="40.2381667" lon="8.7154767"><ele>642.0</ele><time>2026-04-30T13:05:30.748Z</time></trkpt><trkpt lat="40.237995" lon="8.7153183"><ele>642.0</ele><time>2026-04-30T13:05:31.749Z</time></trkpt><trkpt lat="40.2378333" lon="8.7151633"><ele>641.3333333333334</ele><time>2026-04-30T13:05:32.753Z</time></trkpt><trkpt lat="40.23766" lon="8.7150217"><ele>640.6666666666667</ele><time>2026-04-30T13:05:33.754Z</time></trkpt><trkpt lat="40.2374867" lon="8.7148833"><ele>640.0</ele><time>2026-04-30T13:05:34.751Z</time></trkpt><trkpt lat="40.237325" lon="8.71472"><ele>640.6666666666667</ele><time>2026-04-30T13:05:35.75Z</time></trkpt><trkpt lat="40.2371617" lon="8.71456"><ele>641.3333333333334</ele><time>2026-04-30T13:05:36.757Z</time></trkpt><trkpt lat="40.23699" lon="8.714395"><ele>642.0</ele><time>2026-04-30T13:05:37.748Z</time></trkpt><trkpt lat="40.236825" lon="8.7142417"><ele>642.0</ele><time>2026-04-30T13:05:38.759Z</time></trkpt><trkpt lat="40.23666" lon="8.7140867"><ele>642.0</ele><time>2026-04-30T13:05:39.747Z</time></trkpt><trkpt lat="40.2365067" lon="8.7139383"><ele>642.0</ele><time>2026-04-30T13:05:40.75Z</time></trkpt><trkpt lat="40.2363483" lon="8.71377"><ele>642.0</ele><time>2026-04-30T13:05:41.753Z</time></trkpt><trkpt lat="40.2361983" lon="8.7135783"><ele>642.0</ele><time>2026-04-30T13:05:42.756Z</time></trkpt><trkpt lat="40.236035" lon="8.7134133"><ele>642.0</ele><time>2026-04-30T13:05:43.75Z</time></trkpt><trkpt lat="40.23587" lon="8.71325"><ele>642.0</ele><time>2026-04-30T13:05:44.765Z</time></trkpt><trkpt lat="40.2357133" lon="8.71312"><ele>642.0</ele><time>2026-04-30T13:05:45.753Z</time></trkpt><trkpt lat="40.2355417" lon="8.7130233"><ele>642.0</ele><time>2026-04-30T13:05:46.75Z</time></trkpt><trkpt lat="40.235365" lon="8.7129183"><ele>641.6666666666666</ele><time>2026-04-30T13:05:47.746Z</time></trkpt><trkpt lat="40.2351817" lon="8.712835"><ele>641.3333333333333</ele><time>2026-04-30T13:05:48.751Z</time></trkpt><trkpt lat="40.2349967" lon="8.712745"><ele>641.0</ele><time>2026-04-30T13:05:49.755Z</time></trkpt><trkpt lat="40.2348133" lon="8.71266"><ele>640.3333333333333</ele><time>2026-04-30T13:05:50.765Z</time></trkpt><trkpt lat="40.2346283" lon="8.712565"><ele>639.6666666666666</ele><time>2026-04-30T13:05:51.75Z</time></trkpt><trkpt lat="40.2344367" lon="8.7124683"><ele>639.0</ele><time>2026-04-30T13:05:52.754Z</time></trkpt><trkpt lat="40.2342467" lon="8.71237"><ele>639.0</ele><time>2026-04-30T13:05:53.752Z</time></trkpt><trkpt lat="40.2340533" lon="8.7122767"><ele>639.0</ele><time>2026-04-30T13:05:54.754Z</time></trkpt><trkpt lat="40.2338667" lon="8.7121767"><ele>639.0</ele><time>2026-04-30T13:05:55.747Z</time></trkpt><trkpt lat="40.2336783" lon="8.7120667"><ele>638.6666666666666</ele><time>2026-04-30T13:05:56.75Z</time></trkpt><trkpt lat="40.2334933" lon="8.7119517"><ele>638.3333333333333</ele><time>2026-04-30T13:05:57.75Z</time></trkpt><trkpt lat="40.2333117" lon="8.7118167"><ele>638.0</ele><time>2026-04-30T13:05:58.753Z</time></trkpt><trkpt lat="40.23314" lon="8.7116567"><ele>639.0</ele><time>2026-04-30T13:05:59.75Z</time></trkpt><trkpt lat="40.232975" lon="8.71149"><ele>640.0</ele><time>2026-04-30T13:06:00.754Z</time></trkpt><trkpt lat="40.23281" lon="8.7113167"><ele>641.0</ele><time>2026-04-30T13:06:01.752Z</time></trkpt><trkpt lat="40.2326383" lon="8.7111467"><ele>640.6666666666666</ele><time>2026-04-30T13:06:02.75Z</time></trkpt><trkpt lat="40.2324533" lon="8.7109833"><ele>640.3333333333334</ele><time>2026-04-30T13:06:03.75Z</time></trkpt><trkpt lat="40.2322817" lon="8.71081"><ele>640.0</ele><time>2026-04-30T13:06:04.751Z</time></trkpt><trkpt lat="40.23211" lon="8.7106383"><ele>640.0</ele><time>2026-04-30T13:06:05.75Z</time></trkpt><trkpt lat="40.2319467" lon="8.7104717"><ele>640.0</ele><time>2026-04-30T13:06:06.75Z</time></trkpt><trkpt lat="40.2317617" lon="8.710315"><ele>640.0</ele><time>2026-04-30T13:06:07.755Z</time></trkpt><trkpt lat="40.2315767" lon="8.7101633"><ele>641.0</ele><time>2026-04-30T13:06:08.762Z</time></trkpt><trkpt lat="40.2314083" lon="8.7099917"><ele>642.0</ele><time>2026-04-30T13:06:09.752Z</time></trkpt><trkpt lat="40.2312417" lon="8.7098383"><ele>643.0</ele><time>2026-04-30T13:06:10.751Z</time></trkpt><trkpt lat="40.2310617" lon="8.7096767"><ele>643.0</ele><time>2026-04-30T13:06:11.751Z</time></trkpt><trkpt lat="40.2308933" lon="8.7095183"><ele>643.0</ele><time>2026-04-30T13:06:12.75Z</time></trkpt><trkpt lat="40.2307183" lon="8.709375"><ele>643.0</ele><time>2026-04-30T13:06:13.754Z</time></trkpt><trkpt lat="40.230505" lon="8.70925"><ele>641.6666666666667</ele><time>2026-04-30T13:06:14.76Z</time></trkpt><trkpt lat="40.2302983" lon="8.7091517"><ele>640.3333333333334</ele><time>2026-04-30T13:06:15.755Z</time></trkpt><trkpt lat="40.2300833" lon="8.7090633"><ele>639.0</ele><time>2026-04-30T13:06:16.752Z</time></trkpt><trkpt lat="40.2298767" lon="8.7089667"><ele>637.6666666666666</ele><time>2026-04-30T13:06:17.748Z</time></trkpt><trkpt lat="40.2296633" lon="8.70885"><ele>636.3333333333333</ele><time>2026-04-30T13:06:18.752Z</time></trkpt><trkpt lat="40.2294617" lon="8.7087483"><ele>635.0</ele><time>2026-04-30T13:06:19.752Z</time></trkpt><trkpt lat="40.2292633" lon="8.7086417"><ele>636.0</ele><time>2026-04-30T13:06:20.773Z</time></trkpt><trkpt lat="40.2290617" lon="8.70853"><ele>637.0</ele><time>2026-04-30T13:06:21.752Z</time></trkpt><trkpt lat="40.22885" lon="8.7084317"><ele>638.0</ele><time>2026-04-30T13:06:22.757Z</time></trkpt><trkpt lat="40.2286433" lon="8.7083233"><ele>638.0</ele><time>2026-04-30T13:06:23.753Z</time></trkpt><trkpt lat="40.228445" lon="8.7082217"><ele>638.0</ele><time>2026-04-30T13:06:24.751Z</time></trkpt><trkpt lat="40.2282533" lon="8.7081083"><ele>638.0</ele><time>2026-04-30T13:06:25.755Z</time></trkpt><trkpt lat="40.2280433" lon="8.7080017"><ele>638.3333333333333</ele><time>2026-04-30T13:06:26.748Z</time></trkpt><trkpt lat="40.2278483" lon="8.7079033"><ele>638.6666666666666</ele><time>2026-04-30T13:06:27.749Z</time></trkpt><trkpt lat="40.2276417" lon="8.707795"><ele>639.0</ele><time>2026-04-30T13:06:28.748Z</time></trkpt><trkpt lat="40.22744" lon="8.7076967"><ele>638.6666666666666</ele><time>2026-04-30T13:06:29.752Z</time></trkpt><trkpt lat="40.2272367" lon="8.7075833"><ele>638.3333333333333</ele><time>2026-04-30T13:06:30.753Z</time></trkpt><trkpt lat="40.2270267" lon="8.70747"><ele>638.0</ele><time>2026-04-30T13:06:31.754Z</time></trkpt><trkpt lat="40.2268267" lon="8.70737"><ele>638.0</ele><time>2026-04-30T13:06:32.754Z</time></trkpt><trkpt lat="40.2266433" lon="8.7072667"><ele>638.0</ele><time>2026-04-30T13:06:33.752Z</time></trkpt><trkpt lat="40.2264983" lon="8.707145"><ele>638.0</ele><time>2026-04-30T13:06:34.749Z</time></trkpt><trkpt lat="40.226345" lon="8.7070717"><ele>639.3333333333333</ele><time>2026-04-30T13:06:35.749Z</time></trkpt><trkpt lat="40.2261667" lon="8.707025"><ele>640.6666666666666</ele><time>2026-04-30T13:06:36.749Z</time></trkpt><trkpt lat="40.2259833" lon="8.7070133"><ele>642.0</ele><time>2026-04-30T13:06:37.753Z</time></trkpt><trkpt lat="40.2258167" lon="8.7070217"><ele>642.0</ele><time>2026-04-30T13:06:38.767Z</time></trkpt><trkpt lat="40.2256967" lon="8.7071033"><ele>642.0</ele><time>2026-04-30T13:06:39.748Z</time></trkpt><trkpt lat="40.2256017" lon="8.7072283"><ele>642.0</ele><time>2026-04-30T13:06:40.75Z</time></trkpt><trkpt lat="40.2254883" lon="8.707415"><ele>643.3333333333334</ele><time>2026-04-30T13:06:41.752Z</time></trkpt><trkpt lat="40.2254233" lon="8.7076017"><ele>644.6666666666667</ele><time>2026-04-30T13:06:42.752Z</time></trkpt><trkpt lat="40.2253233" lon="8.707765"><ele>646.0</ele><time>2026-04-30T13:06:43.748Z</time></trkpt><trkpt lat="40.225205" lon="8.7079283"><ele>646.0</ele><time>2026-04-30T13:06:44.767Z</time></trkpt><trkpt lat="40.2250817" lon="8.7080767"><ele>646.0</ele><time>2026-04-30T13:06:45.749Z</time></trkpt><trkpt lat="40.224955" lon="8.70822"><ele>646.0</ele><time>2026-04-30T13:06:46.749Z</time></trkpt><trkpt lat="40.2248267" lon="8.7083333"><ele>646.3333333333334</ele><time>2026-04-30T13:06:47.752Z</time></trkpt><trkpt lat="40.224685" lon="8.7084133"><ele>646.6666666666666</ele><time>2026-04-30T13:06:48.752Z</time></trkpt><trkpt lat="40.2245417" lon="8.7084817"><ele>647.0</ele><time>2026-04-30T13:06:49.753Z</time></trkpt><trkpt lat="40.2244017" lon="8.7085283"><ele>647.0</ele><time>2026-04-30T13:06:50.767Z</time></trkpt><trkpt lat="40.2242617" lon="8.7085533"><ele>647.0</ele><time>2026-04-30T13:06:51.752Z</time></trkpt><trkpt lat="40.224125" lon="8.708555"><ele>647.0</ele><time>2026-04-30T13:06:52.751Z</time></trkpt><trkpt lat="40.2240067" lon="8.70849"><ele>647.0</ele><time>2026-04-30T13:06:53.75Z</time></trkpt><trkpt lat="40.2239033" lon="8.708355"><ele>645.6666666666666</ele><time>2026-04-30T13:06:54.755Z</time></trkpt><trkpt lat="40.2238133" lon="8.708185"><ele>644.3333333333334</ele><time>2026-04-30T13:06:55.75Z</time></trkpt><trkpt lat="40.223725" lon="8.7079967"><ele>643.0</ele><time>2026-04-30T13:06:56.748Z</time></trkpt><trkpt lat="40.2236417" lon="8.70779"><ele>643.3333333333334</ele><time>2026-04-30T13:06:57.755Z</time></trkpt><trkpt lat="40.22356" lon="8.7075633"><ele>643.6666666666666</ele><time>2026-04-30T13:06:58.749Z</time></trkpt><trkpt lat="40.2234783" lon="8.70733"><ele>644.0</ele><time>2026-04-30T13:06:59.752Z</time></trkpt><trkpt lat="40.2233883" lon="8.7070933"><ele>644.3333333333333</ele><time>2026-04-30T13:07:00.751Z</time></trkpt><trkpt lat="40.223295" lon="8.7068467"><ele>644.6666666666666</ele><time>2026-04-30T13:07:01.754Z</time></trkpt><trkpt lat="40.2232017" lon="8.706585"><ele>645.0</ele><time>2026-04-30T13:07:02.752Z</time></trkpt><trkpt lat="40.2231067" lon="8.7063217"><ele>645.0</ele><time>2026-04-30T13:07:03.749Z</time></trkpt><trkpt lat="40.2230067" lon="8.7060633"><ele>645.0</ele><time>2026-04-30T13:07:04.752Z</time></trkpt><trkpt lat="40.2229133" lon="8.7057983"><ele>645.0</ele><time>2026-04-30T13:07:05.754Z</time></trkpt><trkpt lat="40.2228183" lon="8.7055417"><ele>645.0</ele><time>2026-04-30T13:07:06.75Z</time></trkpt><trkpt lat="40.2227233" lon="8.7052817"><ele>645.0</ele><time>2026-04-30T13:07:07.749Z</time></trkpt><trkpt lat="40.2226267" lon="8.7050217"><ele>645.0</ele><time>2026-04-30T13:07:08.771Z</time></trkpt><trkpt lat="40.2225283" lon="8.7047583"><ele>645.6666666666666</ele><time>2026-04-30T13:07:09.751Z</time></trkpt><trkpt lat="40.2224217" lon="8.7045033"><ele>646.3333333333333</ele><time>2026-04-30T13:07:10.751Z</time></trkpt><trkpt lat="40.222305" lon="8.7042483"><ele>647.0</ele><time>2026-04-30T13:07:11.75Z</time></trkpt><trkpt lat="40.222175" lon="8.7040133"><ele>647.0</ele><time>2026-04-30T13:07:12.752Z</time></trkpt><trkpt lat="40.222035" lon="8.703785"><ele>647.0</ele><time>2026-04-30T13:07:13.75Z</time></trkpt><trkpt lat="40.221895" lon="8.7035617"><ele>647.0</ele><time>2026-04-30T13:07:14.766Z</time></trkpt><trkpt lat="40.22175" lon="8.70334"><ele>648.0</ele><time>2026-04-30T13:07:15.753Z</time></trkpt><trkpt lat="40.221605" lon="8.7031183"><ele>649.0</ele><time>2026-04-30T13:07:16.75Z</time></trkpt><trkpt lat="40.2214617" lon="8.7029"><ele>650.0</ele><time>2026-04-30T13:07:17.753Z</time></trkpt><trkpt lat="40.2213183" lon="8.702685"><ele>652.3333333333333</ele><time>2026-04-30T13:07:18.748Z</time></trkpt><trkpt lat="40.221175" lon="8.7024717"><ele>654.6666666666666</ele><time>2026-04-30T13:07:19.751Z</time></trkpt><trkpt lat="40.2210317" lon="8.70226"><ele>657.0</ele><time>2026-04-30T13:07:20.765Z</time></trkpt><trkpt lat="40.22089" lon="8.702055"><ele>656.6666666666666</ele><time>2026-04-30T13:07:21.748Z</time></trkpt><trkpt lat="40.2207533" lon="8.70185"><ele>656.3333333333333</ele><time>2026-04-30T13:07:22.751Z</time></trkpt><trkpt lat="40.2206233" lon="8.701655"><ele>656.0</ele><time>2026-04-30T13:07:23.748Z</time></trkpt><trkpt lat="40.2205" lon="8.7014683"><ele>656.0</ele><time>2026-04-30T13:07:24.75Z</time></trkpt><trkpt lat="40.2203817" lon="8.701285"><ele>656.0</ele><time>2026-04-30T13:07:25.747Z</time></trkpt><trkpt lat="40.2202683" lon="8.70111"><ele>656.0</ele><time>2026-04-30T13:07:26.808Z</time></trkpt><trkpt lat="40.220155" lon="8.7009533"><ele>660.0</ele><time>2026-04-30T13:07:27.753Z</time></trkpt><trkpt lat="40.2200383" lon="8.7008133"><ele>664.0</ele><time>2026-04-30T13:07:28.753Z</time></trkpt><trkpt lat="40.2199217" lon="8.7006917"><ele>668.0</ele><time>2026-04-30T13:07:29.753Z</time></trkpt><trkpt lat="40.219795" lon="8.700605"><ele>668.0</ele><time>2026-04-30T13:07:30.75Z</time></trkpt><trkpt lat="40.2196517" lon="8.700505"><ele>668.0</ele><time>2026-04-30T13:07:31.752Z</time></trkpt><trkpt lat="40.2194983" lon="8.7004567"><ele>668.0</ele><time>2026-04-30T13:07:32.753Z</time></trkpt><trkpt lat="40.2193367" lon="8.70043"><ele>668.0</ele><time>2026-04-30T13:07:33.753Z</time></trkpt><trkpt lat="40.2191617" lon="8.700405"><ele>668.0</ele><time>2026-04-30T13:07:34.753Z</time></trkpt><trkpt lat="40.2189583" lon="8.7004067"><ele>668.0</ele><time>2026-04-30T13:07:35.749Z</time></trkpt><trkpt lat="40.21875" lon="8.700405"><ele>670.6666666666666</ele><time>2026-04-30T13:07:36.75Z</time></trkpt><trkpt lat="40.2185733" lon="8.7003983"><ele>673.3333333333334</ele><time>2026-04-30T13:07:37.748Z</time></trkpt><trkpt lat="40.2183917" lon="8.7004117"><ele>676.0</ele><time>2026-04-30T13:07:38.766Z</time></trkpt><trkpt lat="40.2182017" lon="8.700445"><ele>678.6666666666667</ele><time>2026-04-30T13:07:39.754Z</time></trkpt><trkpt lat="40.2179983" lon="8.7004967"><ele>681.3333333333334</ele><time>2026-04-30T13:07:40.748Z</time></trkpt><trkpt lat="40.2178083" lon="8.7005567"><ele>684.0</ele><time>2026-04-30T13:07:41.753Z</time></trkpt><trkpt lat="40.2176183" lon="8.7006383"><ele>684.0</ele><time>2026-04-30T13:07:42.753Z</time></trkpt><trkpt lat="40.21742" lon="8.7007467"><ele>684.0</ele><time>2026-04-30T13:07:43.755Z</time></trkpt><trkpt lat="40.2172217" lon="8.7008717"><ele>684.0</ele><time>2026-04-30T13:07:44.766Z</time></trkpt><trkpt lat="40.21702" lon="8.7009783"><ele>681.5</ele><time>2026-04-30T13:07:45.75Z</time></trkpt><trkpt lat="40.2168167" lon="8.70111"><ele>679.0</ele><time>2026-04-30T13:07:46.749Z</time></trkpt><trkpt lat="40.21661" lon="8.7012433"><ele>680.6666666666667</ele><time>2026-04-30T13:07:47.747Z</time></trkpt><trkpt lat="40.2164117" lon="8.701325"><ele>682.3333333333334</ele><time>2026-04-30T13:07:48.747Z</time></trkpt><trkpt lat="40.2162117" lon="8.7013817"><ele>684.0</ele><time>2026-04-30T13:07:49.751Z</time></trkpt><trkpt lat="40.2160167" lon="8.7014283"><ele>684.0</ele><time>2026-04-30T13:07:50.767Z</time></trkpt><trkpt lat="40.21582" lon="8.70148"><ele>684.0</ele><time>2026-04-30T13:07:51.748Z</time></trkpt><trkpt lat="40.21563" lon="8.70152"><ele>684.0</ele><time>2026-04-30T13:07:52.751Z</time></trkpt><trkpt lat="40.2154483" lon="8.701545"><ele>686.0</ele><time>2026-04-30T13:07:53.751Z</time></trkpt><trkpt lat="40.2152717" lon="8.7015617"><ele>688.0</ele><time>2026-04-30T13:07:54.752Z</time></trkpt><trkpt lat="40.215125" lon="8.7014933"><ele>690.0</ele><time>2026-04-30T13:07:55.75Z</time></trkpt><trkpt lat="40.214955" lon="8.7014083"><ele>690.6666666666666</ele><time>2026-04-30T13:07:56.751Z</time></trkpt><trkpt lat="40.2147967" lon="8.7013283"><ele>691.3333333333333</ele><time>2026-04-30T13:07:57.75Z</time></trkpt><trkpt lat="40.2146433" lon="8.7012133"><ele>692.0</ele><time>2026-04-30T13:07:58.751Z</time></trkpt><trkpt lat="40.21449" lon="8.7010817"><ele>693.6666666666666</ele><time>2026-04-30T13:07:59.76Z</time></trkpt><trkpt lat="40.2143417" lon="8.70094"><ele>695.3333333333334</ele><time>2026-04-30T13:08:00.75Z</time></trkpt><trkpt lat="40.2141983" lon="8.70078"><ele>697.0</ele><time>2026-04-30T13:08:01.752Z</time></trkpt><trkpt lat="40.2140483" lon="8.7006133"><ele>697.3333333333334</ele><time>2026-04-30T13:08:02.749Z</time></trkpt><trkpt lat="40.213905" lon="8.7004417"><ele>697.6666666666666</ele><time>2026-04-30T13:08:03.753Z</time></trkpt><trkpt lat="40.2137617" lon="8.7002717"><ele>698.0</ele><time>2026-04-30T13:08:04.749Z</time></trkpt><trkpt lat="40.2136367" lon="8.7000917"><ele>699.3333333333333</ele><time>2026-04-30T13:08:05.75Z</time></trkpt><trkpt lat="40.2134883" lon="8.6999067"><ele>700.6666666666666</ele><time>2026-04-30T13:08:06.759Z</time></trkpt><trkpt lat="40.2133483" lon="8.6997383"><ele>702.0</ele><time>2026-04-30T13:08:07.754Z</time></trkpt><trkpt lat="40.2131883" lon="8.6995617"><ele>702.3333333333334</ele><time>2026-04-30T13:08:08.771Z</time></trkpt><trkpt lat="40.2130117" lon="8.6994217"><ele>702.6666666666667</ele><time>2026-04-30T13:08:09.748Z</time></trkpt><trkpt lat="40.212845" lon="8.6992933"><ele>703.0</ele><time>2026-04-30T13:08:10.747Z</time></trkpt><trkpt lat="40.2126767" lon="8.699165"><ele>703.6666666666667</ele><time>2026-04-30T13:08:11.751Z</time></trkpt><trkpt lat="40.2125" lon="8.69904"><ele>704.3333333333334</ele><time>2026-04-30T13:08:12.747Z</time></trkpt><trkpt lat="40.2123267" lon="8.6989167"><ele>705.0</ele><time>2026-04-30T13:08:13.75Z</time></trkpt><trkpt lat="40.21215" lon="8.698795"><ele>705.0</ele><time>2026-04-30T13:08:14.767Z</time></trkpt><trkpt lat="40.2119717" lon="8.6986783"><ele>705.0</ele><time>2026-04-30T13:08:15.748Z</time></trkpt><trkpt lat="40.2117833" lon="8.6985717"><ele>705.0</ele><time>2026-04-30T13:08:16.749Z</time></trkpt><trkpt lat="40.2115933" lon="8.69846"><ele>706.3333333333334</ele><time>2026-04-30T13:08:17.758Z</time></trkpt><trkpt lat="40.2113967" lon="8.698345"><ele>707.6666666666667</ele><time>2026-04-30T13:08:18.753Z</time></trkpt><trkpt lat="40.2112" lon="8.6982267"><ele>709.0</ele><time>2026-04-30T13:08:19.75Z</time></trkpt><trkpt lat="40.2110017" lon="8.6981083"><ele>709.0</ele><time>2026-04-30T13:08:20.771Z</time></trkpt><trkpt lat="40.2108" lon="8.6980033"><ele>709.0</ele><time>2026-04-30T13:08:21.769Z</time></trkpt><trkpt lat="40.2105983" lon="8.69789"><ele>709.0</ele><time>2026-04-30T13:08:22.754Z</time></trkpt><trkpt lat="40.2104067" lon="8.6977667"><ele>709.6666666666667</ele><time>2026-04-30T13:08:23.747Z</time></trkpt><trkpt lat="40.2102133" lon="8.697635"><ele>710.3333333333334</ele><time>2026-04-30T13:08:24.753Z</time></trkpt><trkpt lat="40.2100267" lon="8.6975333"><ele>711.0</ele><time>2026-04-30T13:08:25.748Z</time></trkpt><trkpt lat="40.2098417" lon="8.6974017"><ele>710.6666666666666</ele><time>2026-04-30T13:08:26.75Z</time></trkpt><trkpt lat="40.209655" lon="8.697245"><ele>710.3333333333333</ele><time>2026-04-30T13:08:27.747Z</time></trkpt><trkpt lat="40.2094733" lon="8.6970717"><ele>710.0</ele><time>2026-04-30T13:08:28.752Z</time></trkpt><trkpt lat="40.209285" lon="8.6969083"><ele>710.0</ele><time>2026-04-30T13:08:29.752Z</time></trkpt><trkpt lat="40.2091" lon="8.6967417"><ele>710.0</ele><time>2026-04-30T13:08:30.754Z</time></trkpt><trkpt lat="40.208925" lon="8.69658"><ele>710.0</ele><time>2026-04-30T13:08:31.75Z</time></trkpt><trkpt lat="40.20875" lon="8.69644"><ele>710.0</ele><time>2026-04-30T13:08:32.749Z</time></trkpt><trkpt lat="40.2085767" lon="8.6962783"><ele>710.0</ele><time>2026-04-30T13:08:33.75Z</time></trkpt><trkpt lat="40.2084" lon="8.6961167"><ele>710.0</ele><time>2026-04-30T13:08:34.75Z</time></trkpt><trkpt lat="40.2082267" lon="8.6959567"><ele>708.3333333333333</ele><time>2026-04-30T13:08:35.747Z</time></trkpt><trkpt lat="40.2080533" lon="8.6958"><ele>706.6666666666666</ele><time>2026-04-30T13:08:36.754Z</time></trkpt><trkpt lat="40.20788" lon="8.6956383"><ele>705.0</ele><time>2026-04-30T13:08:37.75Z</time></trkpt><trkpt lat="40.2077167" lon="8.6954667"><ele>705.0</ele><time>2026-04-30T13:08:38.766Z</time></trkpt><trkpt lat="40.2075667" lon="8.6952867"><ele>705.0</ele><time>2026-04-30T13:08:39.749Z</time></trkpt><trkpt lat="40.2074233" lon="8.6950817"><ele>705.0</ele><time>2026-04-30T13:08:40.753Z</time></trkpt><trkpt lat="40.207285" lon="8.6948733"><ele>705.0</ele><time>2026-04-30T13:08:41.746Z</time></trkpt><trkpt lat="40.207145" lon="8.694665"><ele>705.0</ele><time>2026-04-30T13:08:42.753Z</time></trkpt><trkpt lat="40.2070117" lon="8.6944583"><ele>705.0</ele><time>2026-04-30T13:08:43.751Z</time></trkpt><trkpt lat="40.2068883" lon="8.694255"><ele>706.3333333333334</ele><time>2026-04-30T13:08:44.768Z</time></trkpt><trkpt lat="40.2067733" lon="8.6940583"><ele>707.6666666666667</ele><time>2026-04-30T13:08:45.747Z</time></trkpt><trkpt lat="40.2066667" lon="8.693875"><ele>709.0</ele><time>2026-04-30T13:08:46.752Z</time></trkpt><trkpt lat="40.2065783" lon="8.6936767"><ele>710.3333333333334</ele><time>2026-04-30T13:08:47.752Z</time></trkpt><trkpt lat="40.2065117" lon="8.6934933"><ele>711.6666666666666</ele><time>2026-04-30T13:08:48.748Z</time></trkpt><trkpt lat="40.2064817" lon="8.6933067"><ele>713.0</ele><time>2026-04-30T13:08:49.75Z</time></trkpt><trkpt lat="40.206435" lon="8.6931133"><ele>710.6666666666666</ele><time>2026-04-30T13:08:50.769Z</time></trkpt><trkpt lat="40.2063783" lon="8.692905"><ele>708.3333333333334</ele><time>2026-04-30T13:08:51.75Z</time></trkpt><trkpt lat="40.2063017" lon="8.692685"><ele>706.0</ele><time>2026-04-30T13:08:52.751Z</time></trkpt><trkpt lat="40.2061883" lon="8.6924817"><ele>706.0</ele><time>2026-04-30T13:08:53.75Z</time></trkpt><trkpt lat="40.20605" lon="8.6922717"><ele>706.0</ele><time>2026-04-30T13:08:54.757Z</time></trkpt><trkpt lat="40.205925" lon="8.6920683"><ele>706.0</ele><time>2026-04-30T13:08:55.748Z</time></trkpt><trkpt lat="40.205785" lon="8.6918533"><ele>705.0</ele><time>2026-04-30T13:08:56.754Z</time></trkpt><trkpt lat="40.2056217" lon="8.6916533"><ele>704.0</ele><time>2026-04-30T13:08:57.754Z</time></trkpt><trkpt lat="40.2054617" lon="8.691445"><ele>703.0</ele><time>2026-04-30T13:08:58.749Z</time></trkpt><trkpt lat="40.2052967" lon="8.6912417"><ele>706.0</ele><time>2026-04-30T13:08:59.749Z</time></trkpt><trkpt lat="40.20514" lon="8.69102"><ele>709.0</ele><time>2026-04-30T13:09:00.752Z</time></trkpt><trkpt lat="40.2049683" lon="8.6908167"><ele>707.0</ele><time>2026-04-30T13:09:01.749Z</time></trkpt><trkpt lat="40.2048017" lon="8.6905983"><ele>705.0</ele><time>2026-04-30T13:09:02.75Z</time></trkpt><trkpt lat="40.2046317" lon="8.6904017"><ele>706.5</ele><time>2026-04-30T13:09:03.751Z</time></trkpt><trkpt lat="40.2044667" lon="8.6901867"><ele>708.0</ele><time>2026-04-30T13:09:04.751Z</time></trkpt><trkpt lat="40.2043" lon="8.690005"><ele>708.0</ele><time>2026-04-30T13:09:05.752Z</time></trkpt><trkpt lat="40.2041383" lon="8.6898033"><ele>708.0</ele><time>2026-04-30T13:09:06.752Z</time></trkpt><trkpt lat="40.2039783" lon="8.6895983"><ele>708.0</ele><time>2026-04-30T13:09:07.75Z</time></trkpt><trkpt lat="40.2038183" lon="8.6893917"><ele>708.3333333333334</ele><time>2026-04-30T13:09:08.768Z</time></trkpt><trkpt lat="40.2036583" lon="8.6891883"><ele>708.6666666666667</ele><time>2026-04-30T13:09:09.751Z</time></trkpt><trkpt lat="40.2034983" lon="8.6889833"><ele>709.0</ele><time>2026-04-30T13:09:10.749Z</time></trkpt><trkpt lat="40.2033367" lon="8.6887867"><ele>709.0</ele><time>2026-04-30T13:09:11.749Z</time></trkpt><trkpt lat="40.20318" lon="8.688595"><ele>709.0</ele><time>2026-04-30T13:09:12.755Z</time></trkpt><trkpt lat="40.2030283" lon="8.6884133"><ele>709.0</ele><time>2026-04-30T13:09:13.752Z</time></trkpt><trkpt lat="40.2028833" lon="8.688235"><ele>709.3333333333334</ele><time>2026-04-30T13:09:14.77Z</time></trkpt><trkpt lat="40.2027417" lon="8.6880717"><ele>709.6666666666666</ele><time>2026-04-30T13:09:15.749Z</time></trkpt><trkpt lat="40.202605" lon="8.6879133"><ele>710.0</ele><time>2026-04-30T13:09:16.753Z</time></trkpt><trkpt lat="40.2024717" lon="8.6877617"><ele>710.6666666666666</ele><time>2026-04-30T13:09:17.751Z</time></trkpt><trkpt lat="40.2023433" lon="8.6876067"><ele>711.3333333333334</ele><time>2026-04-30T13:09:18.752Z</time></trkpt><trkpt lat="40.2022217" lon="8.6874417"><ele>712.0</ele><time>2026-04-30T13:09:19.749Z</time></trkpt><trkpt lat="40.2021117" lon="8.6872667"><ele>712.0</ele><time>2026-04-30T13:09:20.764Z</time></trkpt><trkpt lat="40.2019867" lon="8.68709"><ele>712.0</ele><time>2026-04-30T13:09:21.749Z</time></trkpt><trkpt lat="40.20187" lon="8.6869433"><ele>712.0</ele><time>2026-04-30T13:09:22.753Z</time></trkpt><trkpt lat="40.2017633" lon="8.6867583"><ele>711.3333333333334</ele><time>2026-04-30T13:09:23.751Z</time></trkpt><trkpt lat="40.2016667" lon="8.6864883"><ele>710.6666666666666</ele><time>2026-04-30T13:09:24.753Z</time></trkpt><trkpt lat="40.201565" lon="8.6862733"><ele>710.0</ele><time>2026-04-30T13:09:25.751Z</time></trkpt><trkpt lat="40.2014583" lon="8.6860467"><ele>709.0</ele><time>2026-04-30T13:09:26.753Z</time></trkpt><trkpt lat="40.2013633" lon="8.6858317"><ele>708.0</ele><time>2026-04-30T13:09:27.75Z</time></trkpt><trkpt lat="40.2012533" lon="8.6856133"><ele>707.0</ele><time>2026-04-30T13:09:28.752Z</time></trkpt><trkpt lat="40.2011383" lon="8.6854"><ele>708.6666666666666</ele><time>2026-04-30T13:09:29.75Z</time></trkpt><trkpt lat="40.201015" lon="8.6852117"><ele>710.3333333333334</ele><time>2026-04-30T13:09:30.748Z</time></trkpt><trkpt lat="40.2008883" lon="8.6850133"><ele>712.0</ele><time>2026-04-30T13:09:31.748Z</time></trkpt><trkpt lat="40.20075" lon="8.6848183"><ele>711.0</ele><time>2026-04-30T13:09:32.753Z</time></trkpt><trkpt lat="40.200605" lon="8.68465"><ele>710.0</ele><time>2026-04-30T13:09:33.753Z</time></trkpt><trkpt lat="40.200455" lon="8.684465"><ele>709.0</ele><time>2026-04-30T13:09:34.748Z</time></trkpt><trkpt lat="40.2002917" lon="8.68428"><ele>709.6666666666667</ele><time>2026-04-30T13:09:35.749Z</time></trkpt><trkpt lat="40.200125" lon="8.684135"><ele>710.3333333333334</ele><time>2026-04-30T13:09:36.751Z</time></trkpt><trkpt lat="40.1999483" lon="8.684"><ele>711.0</ele><time>2026-04-30T13:09:37.747Z</time></trkpt><trkpt lat="40.1997733" lon="8.6838517"><ele>711.0</ele><time>2026-04-30T13:09:38.77Z</time></trkpt><trkpt lat="40.1995783" lon="8.6837067"><ele>711.0</ele><time>2026-04-30T13:09:39.747Z</time></trkpt><trkpt lat="40.1993933" lon="8.6835583"><ele>711.0</ele><time>2026-04-30T13:09:40.749Z</time></trkpt><trkpt lat="40.199205" lon="8.6834117"><ele>710.3333333333334</ele><time>2026-04-30T13:09:41.749Z</time></trkpt><trkpt lat="40.199025" lon="8.68328"><ele>709.6666666666667</ele><time>2026-04-30T13:09:42.753Z</time></trkpt><trkpt lat="40.1988483" lon="8.6831433"><ele>709.0</ele><time>2026-04-30T13:09:43.751Z</time></trkpt><trkpt lat="40.1986833" lon="8.6830083"><ele>709.0</ele><time>2026-04-30T13:09:44.77Z</time></trkpt><trkpt lat="40.198535" lon="8.6828583"><ele>709.0</ele><time>2026-04-30T13:09:45.75Z</time></trkpt><trkpt lat="40.1983917" lon="8.68272"><ele>709.0</ele><time>2026-04-30T13:09:46.751Z</time></trkpt><trkpt lat="40.1982367" lon="8.682555"><ele>708.6666666666667</ele><time>2026-04-30T13:09:47.753Z</time></trkpt><trkpt lat="40.1980783" lon="8.68237"><ele>708.3333333333334</ele><time>2026-04-30T13:09:48.753Z</time></trkpt><trkpt lat="40.1979317" lon="8.6821633"><ele>708.0</ele><time>2026-04-30T13:09:49.748Z</time></trkpt><trkpt lat="40.1977833" lon="8.6819683"><ele>709.3333333333334</ele><time>2026-04-30T13:09:50.769Z</time></trkpt><trkpt lat="40.1976567" lon="8.681765"><ele>710.6666666666667</ele><time>2026-04-30T13:09:51.751Z</time></trkpt><trkpt lat="40.1975417" lon="8.681545"><ele>712.0</ele><time>2026-04-30T13:09:52.751Z</time></trkpt><trkpt lat="40.1974233" lon="8.6813267"><ele>711.0</ele><time>2026-04-30T13:09:53.749Z</time></trkpt><trkpt lat="40.1972933" lon="8.68111"><ele>710.0</ele><time>2026-04-30T13:09:54.751Z</time></trkpt><trkpt lat="40.19716" lon="8.68089"><ele>709.0</ele><time>2026-04-30T13:09:55.753Z</time></trkpt><trkpt lat="40.1970533" lon="8.6806533"><ele>709.0</ele><time>2026-04-30T13:09:56.813Z</time></trkpt><trkpt lat="40.1969367" lon="8.6804367"><ele>709.0</ele><time>2026-04-30T13:09:57.755Z</time></trkpt><trkpt lat="40.1968233" lon="8.6802033"><ele>709.0</ele><time>2026-04-30T13:09:58.748Z</time></trkpt><trkpt lat="40.1967167" lon="8.6799767"><ele>709.3333333333334</ele><time>2026-04-30T13:09:59.747Z</time></trkpt><trkpt lat="40.1966183" lon="8.6797433"><ele>709.6666666666666</ele><time>2026-04-30T13:10:00.752Z</time></trkpt><trkpt lat="40.1965183" lon="8.6794917"><ele>710.0</ele><time>2026-04-30T13:10:01.749Z</time></trkpt><trkpt lat="40.1964167" lon="8.679235"><ele>707.3333333333333</ele><time>2026-04-30T13:10:02.752Z</time></trkpt><trkpt lat="40.1963217" lon="8.6789817"><ele>704.6666666666666</ele><time>2026-04-30T13:10:03.748Z</time></trkpt><trkpt lat="40.19622" lon="8.6787333"><ele>702.0</ele><time>2026-04-30T13:10:04.753Z</time></trkpt><trkpt lat="40.1961017" lon="8.6784883"><ele>702.0</ele><time>2026-04-30T13:10:05.757Z</time></trkpt><trkpt lat="40.195975" lon="8.67822"><ele>702.0</ele><time>2026-04-30T13:10:06.751Z</time></trkpt><trkpt lat="40.1958433" lon="8.6779683"><ele>702.0</ele><time>2026-04-30T13:10:07.756Z</time></trkpt><trkpt lat="40.19569" lon="8.6777383"><ele>702.0</ele><time>2026-04-30T13:10:08.767Z</time></trkpt><trkpt lat="40.1955317" lon="8.677515"><ele>699.0</ele><time>2026-04-30T13:10:09.755Z</time></trkpt><trkpt lat="40.1953717" lon="8.6772933"><ele>696.0</ele><time>2026-04-30T13:10:10.752Z</time></trkpt><trkpt lat="40.1952083" lon="8.6770683"><ele>696.0</ele><time>2026-04-30T13:10:11.747Z</time></trkpt><trkpt lat="40.1950467" lon="8.6768417"><ele>696.0</ele><time>2026-04-30T13:10:12.753Z</time></trkpt><trkpt lat="40.194885" lon="8.67662"><ele>694.0</ele><time>2026-04-30T13:10:13.757Z</time></trkpt><trkpt lat="40.19472" lon="8.6764033"><ele>692.0</ele><time>2026-04-30T13:10:14.769Z</time></trkpt><trkpt lat="40.19456" lon="8.67619"><ele>692.3333333333333</ele><time>2026-04-30T13:10:15.748Z</time></trkpt><trkpt lat="40.1943983" lon="8.6759883"><ele>692.6666666666666</ele><time>2026-04-30T13:10:16.752Z</time></trkpt><trkpt lat="40.1942417" lon="8.6757933"><ele>693.0</ele><time>2026-04-30T13:10:17.75Z</time></trkpt><trkpt lat="40.1940767" lon="8.6756067"><ele>692.5</ele><time>2026-04-30T13:10:18.757Z</time></trkpt><trkpt lat="40.19387" lon="8.6754233"><ele>692.0</ele><time>2026-04-30T13:10:19.754Z</time></trkpt><trkpt lat="40.1936433" lon="8.6752583"><ele>692.0</ele><time>2026-04-30T13:10:20.766Z</time></trkpt><trkpt lat="40.19342" lon="8.6751117"><ele>692.0</ele><time>2026-04-30T13:10:21.747Z</time></trkpt><trkpt lat="40.19322" lon="8.6749667"><ele>691.6666666666666</ele><time>2026-04-30T13:10:22.751Z</time></trkpt><trkpt lat="40.1930117" lon="8.674835"><ele>691.3333333333334</ele><time>2026-04-30T13:10:23.752Z</time></trkpt><trkpt lat="40.19282" lon="8.6747"><ele>691.0</ele><time>2026-04-30T13:10:24.75Z</time></trkpt><trkpt lat="40.1926233" lon="8.674555"><ele>691.0</ele><time>2026-04-30T13:10:25.752Z</time></trkpt><trkpt lat="40.1924233" lon="8.6744017"><ele>691.0</ele><time>2026-04-30T13:10:26.749Z</time></trkpt><trkpt lat="40.1922417" lon="8.67425"><ele>691.0</ele><time>2026-04-30T13:10:27.75Z</time></trkpt><trkpt lat="40.1920483" lon="8.674105"><ele>691.0</ele><time>2026-04-30T13:10:28.752Z</time></trkpt><trkpt lat="40.1918667" lon="8.6739567"><ele>691.0</ele><time>2026-04-30T13:10:29.75Z</time></trkpt><trkpt lat="40.1916867" lon="8.6738133"><ele>691.0</ele><time>2026-04-30T13:10:30.75Z</time></trkpt><trkpt lat="40.1915033" lon="8.6736717"><ele>692.0</ele><time>2026-04-30T13:10:31.752Z</time></trkpt><trkpt lat="40.1913283" lon="8.6735417"><ele>693.0</ele><time>2026-04-30T13:10:32.769Z</time></trkpt><trkpt lat="40.1911483" lon="8.6733917"><ele>694.0</ele><time>2026-04-30T13:10:33.749Z</time></trkpt><trkpt lat="40.1909567" lon="8.6732733"><ele>694.0</ele><time>2026-04-30T13:10:34.752Z</time></trkpt><trkpt lat="40.1907617" lon="8.67313"><ele>694.0</ele><time>2026-04-30T13:10:35.749Z</time></trkpt><trkpt lat="40.190585" lon="8.672985"><ele>694.0</ele><time>2026-04-30T13:10:36.748Z</time></trkpt><trkpt lat="40.190405" lon="8.6728333"><ele>694.3333333333334</ele><time>2026-04-30T13:10:37.75Z</time></trkpt><trkpt lat="40.1902167" lon="8.6727067"><ele>694.6666666666666</ele><time>2026-04-30T13:10:38.765Z</time></trkpt><trkpt lat="40.190025" lon="8.672555"><ele>695.0</ele><time>2026-04-30T13:10:39.749Z</time></trkpt><trkpt lat="40.18984" lon="8.672405"><ele>693.0</ele><time>2026-04-30T13:10:40.75Z</time></trkpt><trkpt lat="40.1896733" lon="8.672265"><ele>691.0</ele><time>2026-04-30T13:10:41.747Z</time></trkpt><trkpt lat="40.1894983" lon="8.6721483"><ele>689.0</ele><time>2026-04-30T13:10:42.752Z</time></trkpt><trkpt lat="40.1893367" lon="8.6720283"><ele>689.6666666666666</ele><time>2026-04-30T13:10:43.764Z</time></trkpt><trkpt lat="40.18915" lon="8.6718917"><ele>690.3333333333334</ele><time>2026-04-30T13:10:44.771Z</time></trkpt><trkpt lat="40.188965" lon="8.6717567"><ele>691.0</ele><time>2026-04-30T13:10:45.748Z</time></trkpt><trkpt lat="40.18879" lon="8.6716317"><ele>691.0</ele><time>2026-04-30T13:10:46.754Z</time></trkpt><trkpt lat="40.1886183" lon="8.6714933"><ele>691.0</ele><time>2026-04-30T13:10:47.75Z</time></trkpt><trkpt lat="40.1884433" lon="8.6713417"><ele>691.0</ele><time>2026-04-30T13:10:48.753Z</time></trkpt><trkpt lat="40.1882833" lon="8.6712133"><ele>690.6666666666667</ele><time>2026-04-30T13:10:49.747Z</time></trkpt><trkpt lat="40.1881017" lon="8.671055"><ele>690.3333333333334</ele><time>2026-04-30T13:10:50.768Z</time></trkpt><trkpt lat="40.1879233" lon="8.6709233"><ele>690.0</ele><time>2026-04-30T13:10:51.75Z</time></trkpt><trkpt lat="40.18775" lon="8.6707783"><ele>690.0</ele><time>2026-04-30T13:10:52.752Z</time></trkpt><trkpt lat="40.187585" lon="8.6706333"><ele>690.0</ele><time>2026-04-30T13:10:53.748Z</time></trkpt><trkpt lat="40.1874067" lon="8.6704983"><ele>690.0</ele><time>2026-04-30T13:10:54.75Z</time></trkpt><trkpt lat="40.1872383" lon="8.6703567"><ele>689.6666666666666</ele><time>2026-04-30T13:10:55.747Z</time></trkpt><trkpt lat="40.18703" lon="8.6702383"><ele>689.3333333333333</ele><time>2026-04-30T13:10:56.749Z</time></trkpt><trkpt lat="40.1868433" lon="8.67012"><ele>689.0</ele><time>2026-04-30T13:10:57.749Z</time></trkpt><trkpt lat="40.186655" lon="8.6699983"><ele>688.3333333333333</ele><time>2026-04-30T13:10:58.748Z</time></trkpt><trkpt lat="40.1864783" lon="8.6699"><ele>687.6666666666666</ele><time>2026-04-30T13:10:59.751Z</time></trkpt><trkpt lat="40.1862683" lon="8.6698017"><ele>687.0</ele><time>2026-04-30T13:11:00.75Z</time></trkpt><trkpt lat="40.1860717" lon="8.6697067"><ele>687.0</ele><time>2026-04-30T13:11:01.748Z</time></trkpt><trkpt lat="40.1858717" lon="8.6696117"><ele>687.0</ele><time>2026-04-30T13:11:02.753Z</time></trkpt><trkpt lat="40.1856633" lon="8.6695283"><ele>687.0</ele><time>2026-04-30T13:11:03.747Z</time></trkpt><trkpt lat="40.185455" lon="8.669455"><ele>687.6666666666666</ele><time>2026-04-30T13:11:04.748Z</time></trkpt><trkpt lat="40.1852733" lon="8.6693583"><ele>688.3333333333333</ele><time>2026-04-30T13:11:05.748Z</time></trkpt><trkpt lat="40.1850767" lon="8.6692817"><ele>689.0</ele><time>2026-04-30T13:11:06.753Z</time></trkpt><trkpt lat="40.184885" lon="8.669195"><ele>688.3333333333333</ele><time>2026-04-30T13:11:07.75Z</time></trkpt><trkpt lat="40.1846867" lon="8.6691117"><ele>687.6666666666666</ele><time>2026-04-30T13:11:08.766Z</time></trkpt><trkpt lat="40.184495" lon="8.6690583"><ele>687.0</ele><time>2026-04-30T13:11:09.749Z</time></trkpt><trkpt lat="40.1843" lon="8.6689867"><ele>687.0</ele><time>2026-04-30T13:11:10.752Z</time></trkpt><trkpt lat="40.1840983" lon="8.66892"><ele>687.0</ele><time>2026-04-30T13:11:11.751Z</time></trkpt><trkpt lat="40.1838867" lon="8.668825"><ele>687.0</ele><time>2026-04-30T13:11:12.751Z</time></trkpt><trkpt lat="40.18367" lon="8.6687417"><ele>687.3333333333334</ele><time>2026-04-30T13:11:13.75Z</time></trkpt><trkpt lat="40.1834683" lon="8.66868"><ele>687.6666666666667</ele><time>2026-04-30T13:11:14.767Z</time></trkpt><trkpt lat="40.1832617" lon="8.6686167"><ele>688.0</ele><time>2026-04-30T13:11:15.751Z</time></trkpt><trkpt lat="40.183055" lon="8.6685267"><ele>688.0</ele><time>2026-04-30T13:11:16.751Z</time></trkpt><trkpt lat="40.18284" lon="8.6684367"><ele>688.0</ele><time>2026-04-30T13:11:17.749Z</time></trkpt><trkpt lat="40.1826333" lon="8.6683467"><ele>688.0</ele><time>2026-04-30T13:11:18.747Z</time></trkpt><trkpt lat="40.1824317" lon="8.668255"><ele>686.3333333333334</ele><time>2026-04-30T13:11:19.749Z</time></trkpt><trkpt lat="40.182255" lon="8.668155"><ele>684.6666666666666</ele><time>2026-04-30T13:11:20.768Z</time></trkpt><trkpt lat="40.1820433" lon="8.66806"><ele>683.0</ele><time>2026-04-30T13:11:21.748Z</time></trkpt><trkpt lat="40.1818433" lon="8.6679583"><ele>683.0</ele><time>2026-04-30T13:11:22.75Z</time></trkpt><trkpt lat="40.1816583" lon="8.6678217"><ele>683.0</ele><time>2026-04-30T13:11:23.748Z</time></trkpt><trkpt lat="40.1814617" lon="8.6676967"><ele>683.0</ele><time>2026-04-30T13:11:24.748Z</time></trkpt><trkpt lat="40.1812667" lon="8.667555"><ele>683.0</ele><time>2026-04-30T13:11:25.746Z</time></trkpt><trkpt lat="40.18109" lon="8.6674033"><ele>683.0</ele><time>2026-04-30T13:11:26.765Z</time></trkpt><trkpt lat="40.180915" lon="8.6672483"><ele>683.0</ele><time>2026-04-30T13:11:27.748Z</time></trkpt><trkpt lat="40.1807383" lon="8.6670833"><ele>683.6666666666666</ele><time>2026-04-30T13:11:28.752Z</time></trkpt><trkpt lat="40.1805633" lon="8.6669117"><ele>684.3333333333334</ele><time>2026-04-30T13:11:29.749Z</time></trkpt><trkpt lat="40.180385" lon="8.6667533"><ele>685.0</ele><time>2026-04-30T13:11:30.751Z</time></trkpt><trkpt lat="40.1802167" lon="8.66659"><ele>685.0</ele><time>2026-04-30T13:11:31.749Z</time></trkpt><trkpt lat="40.1800483" lon="8.66643"><ele>685.0</ele><time>2026-04-30T13:11:32.765Z</time></trkpt><trkpt lat="40.17988" lon="8.666275"><ele>685.0</ele><time>2026-04-30T13:11:33.761Z</time></trkpt><trkpt lat="40.179715" lon="8.6661283"><ele>686.3333333333334</ele><time>2026-04-30T13:11:34.749Z</time></trkpt><trkpt lat="40.17956" lon="8.6659883"><ele>687.6666666666666</ele><time>2026-04-30T13:11:35.749Z</time></trkpt><trkpt lat="40.1794083" lon="8.6658533"><ele>689.0</ele><time>2026-04-30T13:11:36.749Z</time></trkpt><trkpt lat="40.17926" lon="8.6657267"><ele>689.0</ele><time>2026-04-30T13:11:37.759Z</time></trkpt><trkpt lat="40.1791333" lon="8.6655883"><ele>689.0</ele><time>2026-04-30T13:11:38.768Z</time></trkpt><trkpt lat="40.1790117" lon="8.6654517"><ele>689.0</ele><time>2026-04-30T13:11:39.75Z</time></trkpt><trkpt lat="40.1788867" lon="8.665315"><ele>689.3333333333333</ele><time>2026-04-30T13:11:40.751Z</time></trkpt><trkpt lat="40.1787733" lon="8.6651733"><ele>689.6666666666666</ele><time>2026-04-30T13:11:41.753Z</time></trkpt><trkpt lat="40.178665" lon="8.665025"><ele>690.0</ele><time>2026-04-30T13:11:42.754Z</time></trkpt><trkpt lat="40.1785567" lon="8.6648683"><ele>690.0</ele><time>2026-04-30T13:11:43.753Z</time></trkpt><trkpt lat="40.1784567" lon="8.6647083"><ele>690.0</ele><time>2026-04-30T13:11:44.77Z</time></trkpt><trkpt lat="40.1783583" lon="8.664555"><ele>690.0</ele><time>2026-04-30T13:11:45.75Z</time></trkpt><trkpt lat="40.1782567" lon="8.66441"><ele>691.0</ele><time>2026-04-30T13:11:46.747Z</time></trkpt><trkpt lat="40.1781567" lon="8.664275"><ele>692.0</ele><time>2026-04-30T13:11:47.752Z</time></trkpt><trkpt lat="40.17806" lon="8.664145"><ele>693.0</ele><time>2026-04-30T13:11:48.752Z</time></trkpt><trkpt lat="40.1779583" lon="8.6640483"><ele>694.0</ele><time>2026-04-30T13:11:49.756Z</time></trkpt><trkpt lat="40.177855" lon="8.6639867"><ele>694.0</ele><time>2026-04-30T13:11:50.768Z</time></trkpt><trkpt lat="40.1777583" lon="8.6638933"><ele>694.0</ele><time>2026-04-30T13:11:51.746Z</time></trkpt><trkpt lat="40.1776683" lon="8.6638217"><ele>694.0</ele><time>2026-04-30T13:11:52.746Z</time></trkpt><trkpt lat="40.17757" lon="8.663765"><ele>694.0</ele><time>2026-04-30T13:11:53.747Z</time></trkpt><trkpt lat="40.1774667" lon="8.6636867"><ele>694.0</ele><time>2026-04-30T13:11:54.748Z</time></trkpt><trkpt lat="40.1773533" lon="8.663665"><ele>694.0</ele><time>2026-04-30T13:11:55.754Z</time></trkpt><trkpt lat="40.1772333" lon="8.6636883"><ele>694.0</ele><time>2026-04-30T13:11:56.769Z</time></trkpt><trkpt lat="40.177115" lon="8.6636933"><ele>694.0</ele><time>2026-04-30T13:11:57.747Z</time></trkpt><trkpt lat="40.1769833" lon="8.6637617"><ele>693.5</ele><time>2026-04-30T13:11:58.747Z</time></trkpt><trkpt lat="40.17686" lon="8.6638083"><ele>693.0</ele><time>2026-04-30T13:11:59.749Z</time></trkpt><trkpt lat="40.17673" lon="8.6638517"><ele>692.5</ele><time>2026-04-30T13:12:00.749Z</time></trkpt><trkpt lat="40.1766017" lon="8.6638917"><ele>692.0</ele><time>2026-04-30T13:12:01.753Z</time></trkpt><trkpt lat="40.17647" lon="8.6639633"><ele>691.75</ele><time>2026-04-30T13:12:02.767Z</time></trkpt><trkpt lat="40.1763383" lon="8.6640117"><ele>691.5</ele><time>2026-04-30T13:12:03.751Z</time></trkpt><trkpt lat="40.1762217" lon="8.66404"><ele>691.25</ele><time>2026-04-30T13:12:04.75Z</time></trkpt><trkpt lat="40.176105" lon="8.664055"><ele>691.0</ele><time>2026-04-30T13:12:05.749Z</time></trkpt><trkpt lat="40.1759783" lon="8.6640517"><ele>691.0</ele><time>2026-04-30T13:12:06.754Z</time></trkpt><trkpt lat="40.1758483" lon="8.6640383"><ele>691.0</ele><time>2026-04-30T13:12:07.752Z</time></trkpt><trkpt lat="40.175725" lon="8.6640183"><ele>691.0</ele><time>2026-04-30T13:12:08.769Z</time></trkpt><trkpt lat="40.175605" lon="8.663985"><ele>691.0</ele><time>2026-04-30T13:12:09.75Z</time></trkpt><trkpt lat="40.1754783" lon="8.6639567"><ele>691.25</ele><time>2026-04-30T13:12:10.746Z</time></trkpt><trkpt lat="40.1753567" lon="8.6639283"><ele>691.5</ele><time>2026-04-30T13:12:11.746Z</time></trkpt><trkpt lat="40.1752283" lon="8.663895"><ele>691.75</ele><time>2026-04-30T13:12:12.753Z</time></trkpt><trkpt lat="40.1750967" lon="8.6638533"><ele>692.0</ele><time>2026-04-30T13:12:13.747Z</time></trkpt><trkpt lat="40.1749717" lon="8.6638083"><ele>692.25</ele><time>2026-04-30T13:12:14.77Z</time></trkpt><trkpt lat="40.1748417" lon="8.6637467"><ele>692.5</ele><time>2026-04-30T13:12:15.746Z</time></trkpt><trkpt lat="40.17471" lon="8.6636717"><ele>692.75</ele><time>2026-04-30T13:12:16.751Z</time></trkpt><trkpt lat="40.1745783" lon="8.6635783"><ele>693.0</ele><time>2026-04-30T13:12:17.751Z</time></trkpt><trkpt lat="40.1744433" lon="8.6634817"><ele>693.3333333333334</ele><time>2026-04-30T13:12:18.749Z</time></trkpt><trkpt lat="40.174305" lon="8.6633817"><ele>693.6666666666667</ele><time>2026-04-30T13:12:19.748Z</time></trkpt><trkpt lat="40.1741617" lon="8.6632767"><ele>694.0</ele><time>2026-04-30T13:12:20.767Z</time></trkpt><trkpt lat="40.1740133" lon="8.66317"><ele>696.6666666666667</ele><time>2026-04-30T13:12:21.749Z</time></trkpt><trkpt lat="40.1738617" lon="8.663065"><ele>699.3333333333334</ele><time>2026-04-30T13:12:22.747Z</time></trkpt><trkpt lat="40.1737067" lon="8.6629617"><ele>702.0</ele><time>2026-04-30T13:12:23.753Z</time></trkpt><trkpt lat="40.17355" lon="8.6628533"><ele>701.3333333333334</ele><time>2026-04-30T13:12:24.752Z</time></trkpt><trkpt lat="40.1733917" lon="8.6627467"><ele>700.6666666666667</ele><time>2026-04-30T13:12:25.752Z</time></trkpt><trkpt lat="40.1732333" lon="8.662645"><ele>700.0</ele><time>2026-04-30T13:12:26.814Z</time></trkpt><trkpt lat="40.1730733" lon="8.662535"><ele>702.6666666666667</ele><time>2026-04-30T13:12:27.752Z</time></trkpt><trkpt lat="40.1729083" lon="8.6624183"><ele>705.3333333333334</ele><time>2026-04-30T13:12:28.748Z</time></trkpt><trkpt lat="40.1727383" lon="8.662305"><ele>708.0</ele><time>2026-04-30T13:12:29.749Z</time></trkpt><trkpt lat="40.1725683" lon="8.66219"><ele>708.0</ele><time>2026-04-30T13:12:30.752Z</time></trkpt><trkpt lat="40.1724017" lon="8.6620783"><ele>708.0</ele><time>2026-04-30T13:12:31.746Z</time></trkpt><trkpt lat="40.172225" lon="8.661965"><ele>708.0</ele><time>2026-04-30T13:12:32.753Z</time></trkpt><trkpt lat="40.1720517" lon="8.66185"><ele>709.6666666666666</ele><time>2026-04-30T13:12:33.753Z</time></trkpt><trkpt lat="40.1718783" lon="8.661735"><ele>711.3333333333333</ele><time>2026-04-30T13:12:34.751Z</time></trkpt><trkpt lat="40.1717067" lon="8.66162"><ele>713.0</ele><time>2026-04-30T13:12:35.746Z</time></trkpt><trkpt lat="40.1715283" lon="8.66151"><ele>715.6666666666666</ele><time>2026-04-30T13:12:36.749Z</time></trkpt><trkpt lat="40.1713317" lon="8.6613983"><ele>718.3333333333334</ele><time>2026-04-30T13:12:37.753Z</time></trkpt><trkpt lat="40.1711483" lon="8.661285"><ele>721.0</ele><time>2026-04-30T13:12:38.768Z</time></trkpt><trkpt lat="40.1709783" lon="8.6611917"><ele>719.6666666666667</ele><time>2026-04-30T13:12:39.751Z</time></trkpt><trkpt lat="40.170815" lon="8.6610733"><ele>718.3333333333334</ele><time>2026-04-30T13:12:40.752Z</time></trkpt><trkpt lat="40.1706417" lon="8.6609633"><ele>717.0</ele><time>2026-04-30T13:12:41.751Z</time></trkpt><trkpt lat="40.1704583" lon="8.6608417"><ele>719.6666666666666</ele><time>2026-04-30T13:12:42.752Z</time></trkpt><trkpt lat="40.1702917" lon="8.660745"><ele>722.3333333333333</ele><time>2026-04-30T13:12:43.751Z</time></trkpt><trkpt lat="40.1701133" lon="8.6606267"><ele>725.0</ele><time>2026-04-30T13:12:44.773Z</time></trkpt><trkpt lat="40.1699433" lon="8.660515"><ele>725.6666666666666</ele><time>2026-04-30T13:12:45.752Z</time></trkpt><trkpt lat="40.16977" lon="8.660415"><ele>726.3333333333334</ele><time>2026-04-30T13:12:46.754Z</time></trkpt><trkpt lat="40.1695883" lon="8.660305"><ele>727.0</ele><time>2026-04-30T13:12:47.75Z</time></trkpt><trkpt lat="40.16941" lon="8.6602267"><ele>727.0</ele><time>2026-04-30T13:12:48.748Z</time></trkpt><trkpt lat="40.1692267" lon="8.6601283"><ele>727.0</ele><time>2026-04-30T13:12:49.754Z</time></trkpt><trkpt lat="40.1690367" lon="8.6600717"><ele>727.0</ele><time>2026-04-30T13:12:50.768Z</time></trkpt><trkpt lat="40.1688267" lon="8.6599917"><ele>726.3333333333334</ele><time>2026-04-30T13:12:51.753Z</time></trkpt><trkpt lat="40.1686417" lon="8.6599267"><ele>725.6666666666666</ele><time>2026-04-30T13:12:52.75Z</time></trkpt><trkpt lat="40.1684233" lon="8.65983"><ele>725.0</ele><time>2026-04-30T13:12:53.75Z</time></trkpt><trkpt lat="40.1682383" lon="8.6597567"><ele>722.3333333333333</ele><time>2026-04-30T13:12:54.753Z</time></trkpt><trkpt lat="40.1680433" lon="8.6597033"><ele>719.6666666666666</ele><time>2026-04-30T13:12:55.752Z</time></trkpt><trkpt lat="40.16784" lon="8.6596533"><ele>717.0</ele><time>2026-04-30T13:12:56.764Z</time></trkpt><trkpt lat="40.1676383" lon="8.6595883"><ele>717.0</ele><time>2026-04-30T13:12:57.751Z</time></trkpt><trkpt lat="40.1674333" lon="8.65952"><ele>717.0</ele><time>2026-04-30T13:12:58.747Z</time></trkpt><trkpt lat="40.1672333" lon="8.6594483"><ele>717.0</ele><time>2026-04-30T13:12:59.751Z</time></trkpt><trkpt lat="40.167035" lon="8.6593967"><ele>719.3333333333334</ele><time>2026-04-30T13:13:00.751Z</time></trkpt><trkpt lat="40.1668317" lon="8.6593383"><ele>721.6666666666667</ele><time>2026-04-30T13:13:01.752Z</time></trkpt><trkpt lat="40.1666383" lon="8.659295"><ele>724.0</ele><time>2026-04-30T13:13:02.776Z</time></trkpt><trkpt lat="40.166425" lon="8.659265"><ele>724.0</ele><time>2026-04-30T13:13:03.747Z</time></trkpt><trkpt lat="40.1662283" lon="8.6592233"><ele>724.0</ele><time>2026-04-30T13:13:04.749Z</time></trkpt><trkpt lat="40.16604" lon="8.6591833"><ele>724.0</ele><time>2026-04-30T13:13:05.753Z</time></trkpt><trkpt lat="40.1658617" lon="8.6591383"><ele>720.6666666666667</ele><time>2026-04-30T13:13:06.746Z</time></trkpt><trkpt lat="40.1656867" lon="8.6590917"><ele>717.3333333333334</ele><time>2026-04-30T13:13:07.747Z</time></trkpt><trkpt lat="40.1655167" lon="8.65902"><ele>714.0</ele><time>2026-04-30T13:13:08.766Z</time></trkpt><trkpt lat="40.16535" lon="8.6589417"><ele>714.0</ele><time>2026-04-30T13:13:09.754Z</time></trkpt><trkpt lat="40.1652083" lon="8.6588317"><ele>714.0</ele><time>2026-04-30T13:13:10.749Z</time></trkpt><trkpt lat="40.1650817" lon="8.658695"><ele>714.0</ele><time>2026-04-30T13:13:11.747Z</time></trkpt><trkpt lat="40.16494" lon="8.6585933"><ele>718.0</ele><time>2026-04-30T13:13:12.75Z</time></trkpt><trkpt lat="40.164795" lon="8.6585017"><ele>722.0</ele><time>2026-04-30T13:13:13.749Z</time></trkpt><trkpt lat="40.1646867" lon="8.65828"><ele>726.0</ele><time>2026-04-30T13:13:14.769Z</time></trkpt><trkpt lat="40.16456" lon="8.6581083"><ele>730.0</ele><time>2026-04-30T13:13:15.749Z</time></trkpt><trkpt lat="40.1644717" lon="8.6577783"><ele>734.0</ele><time>2026-04-30T13:13:16.75Z</time></trkpt><trkpt lat="40.1643633" lon="8.6574933"><ele>734.0</ele><time>2026-04-30T13:13:17.75Z</time></trkpt><trkpt lat="40.1642417" lon="8.6572833"><ele>734.0</ele><time>2026-04-30T13:13:18.753Z</time></trkpt><trkpt lat="40.1641183" lon="8.6570933"><ele>734.0</ele><time>2026-04-30T13:13:19.75Z</time></trkpt><trkpt lat="40.164015" lon="8.6569067"><ele>736.0</ele><time>2026-04-30T13:13:20.766Z</time></trkpt><trkpt lat="40.1639" lon="8.65675"><ele>738.0</ele><time>2026-04-30T13:13:21.747Z</time></trkpt><trkpt lat="40.1637533" lon="8.6566267"><ele>740.0</ele><time>2026-04-30T13:13:22.752Z</time></trkpt><trkpt lat="40.163575" lon="8.6565783"><ele>740.0</ele><time>2026-04-30T13:13:23.75Z</time></trkpt><trkpt lat="40.1634033" lon="8.6565033"><ele>740.0</ele><time>2026-04-30T13:13:24.749Z</time></trkpt><trkpt lat="40.1632283" lon="8.65644"><ele>740.0</ele><time>2026-04-30T13:13:25.751Z</time></trkpt><trkpt lat="40.1630467" lon="8.6564"><ele>741.0</ele><time>2026-04-30T13:13:26.751Z</time></trkpt><trkpt lat="40.1628583" lon="8.65634"><ele>742.0</ele><time>2026-04-30T13:13:27.752Z</time></trkpt><trkpt lat="40.16271" lon="8.6563117"><ele>743.0</ele><time>2026-04-30T13:13:28.749Z</time></trkpt><trkpt lat="40.1625617" lon="8.656295"><ele>743.0</ele><time>2026-04-30T13:13:29.746Z</time></trkpt><trkpt lat="40.1624083" lon="8.6562917"><ele>743.0</ele><time>2026-04-30T13:13:30.753Z</time></trkpt><trkpt lat="40.1622667" lon="8.6563033"><ele>743.0</ele><time>2026-04-30T13:13:31.747Z</time></trkpt><trkpt lat="40.1621417" lon="8.6563417"><ele>743.0</ele><time>2026-04-30T13:13:32.751Z</time></trkpt><trkpt lat="40.1620483" lon="8.6564233"><ele>743.6666666666666</ele><time>2026-04-30T13:13:33.751Z</time></trkpt><trkpt lat="40.1619667" lon="8.656505"><ele>744.3333333333333</ele><time>2026-04-30T13:13:34.75Z</time></trkpt><trkpt lat="40.1619083" lon="8.6565917"><ele>745.0</ele><time>2026-04-30T13:13:35.75Z</time></trkpt><trkpt lat="40.1618583" lon="8.65667"><ele>745.6666666666666</ele><time>2026-04-30T13:13:36.753Z</time></trkpt><trkpt lat="40.1618167" lon="8.6567617"><ele>746.3333333333334</ele><time>2026-04-30T13:13:37.752Z</time></trkpt><trkpt lat="40.161785" lon="8.6568483"><ele>747.0</ele><time>2026-04-30T13:13:39.754Z</time></trkpt><trkpt lat="40.1617767" lon="8.6569467"><ele>746.6</ele><time>2026-04-30T13:13:41.749Z</time></trkpt><trkpt lat="40.161785" lon="8.6570317"><ele>746.2</ele><time>2026-04-30T13:13:42.749Z</time></trkpt><trkpt lat="40.1618083" lon="8.65713"><ele>745.8</ele><time>2026-04-30T13:13:43.751Z</time></trkpt><trkpt lat="40.1618483" lon="8.6572417"><ele>745.4</ele><time>2026-04-30T13:13:44.767Z</time></trkpt><trkpt lat="40.1619183" lon="8.6573583"><ele>745.0</ele><time>2026-04-30T13:13:45.748Z</time></trkpt><trkpt lat="40.1620133" lon="8.657455"><ele>745.0</ele><time>2026-04-30T13:13:46.752Z</time></trkpt><trkpt lat="40.1622317" lon="8.65761"><ele>745.0</ele><time>2026-04-30T13:13:48.75Z</time></trkpt><trkpt lat="40.1623483" lon="8.6576783"><ele>745.0</ele><time>2026-04-30T13:13:49.748Z</time></trkpt><trkpt lat="40.1624717" lon="8.6577533"><ele>745.5</ele><time>2026-04-30T13:13:50.77Z</time></trkpt><trkpt lat="40.1625933" lon="8.6578317"><ele>746.0</ele><time>2026-04-30T13:13:51.752Z</time></trkpt><trkpt lat="40.1627133" lon="8.657925"><ele>746.5</ele><time>2026-04-30T13:13:52.75Z</time></trkpt><trkpt lat="40.1628233" lon="8.658025"><ele>747.0</ele><time>2026-04-30T13:13:53.75Z</time></trkpt><trkpt lat="40.162925" lon="8.658135"><ele>747.0</ele><time>2026-04-30T13:13:54.748Z</time></trkpt><trkpt lat="40.1630183" lon="8.65826"><ele>747.0</ele><time>2026-04-30T13:13:55.748Z</time></trkpt><trkpt lat="40.1631017" lon="8.658395"><ele>747.0</ele><time>2026-04-30T13:13:56.77Z</time></trkpt><trkpt lat="40.1631733" lon="8.6585517"><ele>747.0</ele><time>2026-04-30T13:13:57.749Z</time></trkpt><trkpt lat="40.1632483" lon="8.658715"><ele>743.3333333333334</ele><time>2026-04-30T13:13:58.753Z</time></trkpt><trkpt lat="40.16331" lon="8.6589"><ele>739.6666666666667</ele><time>2026-04-30T13:13:59.751Z</time></trkpt><trkpt lat="40.163355" lon="8.6590967"><ele>736.0</ele><time>2026-04-30T13:14:00.749Z</time></trkpt><trkpt lat="40.16339" lon="8.65929"><ele>735.0</ele><time>2026-04-30T13:14:01.75Z</time></trkpt><trkpt lat="40.1634183" lon="8.65946"><ele>734.0</ele><time>2026-04-30T13:14:02.772Z</time></trkpt><trkpt lat="40.16343" lon="8.659625"><ele>733.0</ele><time>2026-04-30T13:14:03.749Z</time></trkpt><trkpt lat="40.1634217" lon="8.6597883"><ele>732.0</ele><time>2026-04-30T13:14:04.751Z</time></trkpt><trkpt lat="40.16339" lon="8.6599517"><ele>732.0</ele><time>2026-04-30T13:14:05.749Z</time></trkpt><trkpt lat="40.1633317" lon="8.6601183"><ele>732.0</ele><time>2026-04-30T13:14:06.747Z</time></trkpt><trkpt lat="40.1632683" lon="8.6602767"><ele>732.0</ele><time>2026-04-30T13:14:07.752Z</time></trkpt><trkpt lat="40.1631983" lon="8.660435"><ele>732.0</ele><time>2026-04-30T13:14:08.764Z</time></trkpt><trkpt lat="40.1631267" lon="8.6605867"><ele>733.0</ele><time>2026-04-30T13:14:09.748Z</time></trkpt><trkpt lat="40.1630433" lon="8.6607383"><ele>734.0</ele><time>2026-04-30T13:14:10.748Z</time></trkpt><trkpt lat="40.1629483" lon="8.6608883"><ele>735.0</ele><time>2026-04-30T13:14:11.749Z</time></trkpt><trkpt lat="40.1628517" lon="8.661025"><ele>736.0</ele><time>2026-04-30T13:14:12.756Z</time></trkpt><trkpt lat="40.1627483" lon="8.6611517"><ele>731.75</ele><time>2026-04-30T13:14:13.748Z</time></trkpt><trkpt lat="40.1626533" lon="8.6612733"><ele>727.5</ele><time>2026-04-30T13:14:14.77Z</time></trkpt><trkpt lat="40.1625567" lon="8.6613817"><ele>723.25</ele><time>2026-04-30T13:14:15.754Z</time></trkpt><trkpt lat="40.1624567" lon="8.6614683"><ele>719.0</ele><time>2026-04-30T13:14:16.749Z</time></trkpt><trkpt lat="40.162345" lon="8.6615333"><ele>719.0</ele><time>2026-04-30T13:14:17.749Z</time></trkpt><trkpt lat="40.1622433" lon="8.6615633"><ele>719.0</ele><time>2026-04-30T13:14:18.751Z</time></trkpt><trkpt lat="40.1621483" lon="8.661555"><ele>719.0</ele><time>2026-04-30T13:14:19.754Z</time></trkpt><trkpt lat="40.1620467" lon="8.66152"><ele>719.0</ele><time>2026-04-30T13:14:20.773Z</time></trkpt><trkpt lat="40.161925" lon="8.6614833"><ele>719.0</ele><time>2026-04-30T13:14:21.745Z</time></trkpt><trkpt lat="40.1617683" lon="8.66131"><ele>719.0</ele><time>2026-04-30T13:14:22.751Z</time></trkpt><trkpt lat="40.1616317" lon="8.6611433"><ele>719.0</ele><time>2026-04-30T13:14:23.748Z</time></trkpt><trkpt lat="40.1615017" lon="8.66089"><ele>719.0</ele><time>2026-04-30T13:14:24.755Z</time></trkpt><trkpt lat="40.161355" lon="8.6606717"><ele>718.5</ele><time>2026-04-30T13:14:25.749Z</time></trkpt><trkpt lat="40.16119" lon="8.6604417"><ele>718.0</ele><time>2026-04-30T13:14:26.751Z</time></trkpt><trkpt lat="40.1610267" lon="8.6602317"><ele>717.0</ele><time>2026-04-30T13:14:27.75Z</time></trkpt><trkpt lat="40.16084" lon="8.6600817"><ele>716.0</ele><time>2026-04-30T13:14:28.751Z</time></trkpt><trkpt lat="40.1606483" lon="8.6599683"><ele>715.0</ele><time>2026-04-30T13:14:29.751Z</time></trkpt><trkpt lat="40.160455" lon="8.6599417"><ele>715.0</ele><time>2026-04-30T13:14:30.75Z</time></trkpt><trkpt lat="40.1602633" lon="8.6599733"><ele>715.0</ele><time>2026-04-30T13:14:31.751Z</time></trkpt><trkpt lat="40.160065" lon="8.6600283"><ele>715.0</ele><time>2026-04-30T13:14:32.769Z</time></trkpt><trkpt lat="40.15987" lon="8.6601017"><ele>716.3333333333334</ele><time>2026-04-30T13:14:33.754Z</time></trkpt><trkpt lat="40.1596817" lon="8.6601883"><ele>717.6666666666666</ele><time>2026-04-30T13:14:34.751Z</time></trkpt><trkpt lat="40.1595083" lon="8.6602983"><ele>719.0</ele><time>2026-04-30T13:14:35.751Z</time></trkpt><trkpt lat="40.1593433" lon="8.6604"><ele>715.6666666666666</ele><time>2026-04-30T13:14:36.749Z</time></trkpt><trkpt lat="40.1591867" lon="8.660485"><ele>712.3333333333334</ele><time>2026-04-30T13:14:37.753Z</time></trkpt><trkpt lat="40.159035" lon="8.6605683"><ele>709.0</ele><time>2026-04-30T13:14:38.769Z</time></trkpt><trkpt lat="40.1588883" lon="8.660635"><ele>707.5</ele><time>2026-04-30T13:14:39.754Z</time></trkpt><trkpt lat="40.1587533" lon="8.6606783"><ele>706.0</ele><time>2026-04-30T13:14:40.751Z</time></trkpt><trkpt lat="40.1586233" lon="8.6607017"><ele>704.5</ele><time>2026-04-30T13:14:41.749Z</time></trkpt><trkpt lat="40.1584967" lon="8.6606017"><ele>703.0</ele><time>2026-04-30T13:14:42.749Z</time></trkpt><trkpt lat="40.15837" lon="8.6604833"><ele>703.0</ele><time>2026-04-30T13:14:43.748Z</time></trkpt><trkpt lat="40.15824" lon="8.6603483"><ele>703.0</ele><time>2026-04-30T13:14:44.765Z</time></trkpt><trkpt lat="40.1581083" lon="8.6602167"><ele>703.0</ele><time>2026-04-30T13:14:45.755Z</time></trkpt><trkpt lat="40.1579783" lon="8.6600817"><ele>699.6666666666667</ele><time>2026-04-30T13:14:46.751Z</time></trkpt><trkpt lat="40.1578617" lon="8.6599333"><ele>696.3333333333334</ele><time>2026-04-30T13:14:47.749Z</time></trkpt><trkpt lat="40.1577617" lon="8.6597817"><ele>693.0</ele><time>2026-04-30T13:14:48.75Z</time></trkpt><trkpt lat="40.1576733" lon="8.6596233"><ele>693.0</ele><time>2026-04-30T13:14:49.747Z</time></trkpt><trkpt lat="40.1576017" lon="8.6594517"><ele>693.0</ele><time>2026-04-30T13:14:50.767Z</time></trkpt><trkpt lat="40.1575317" lon="8.659285"><ele>693.0</ele><time>2026-04-30T13:14:51.75Z</time></trkpt><trkpt lat="40.1574783" lon="8.6590883"><ele>692.0</ele><time>2026-04-30T13:14:52.75Z</time></trkpt><trkpt lat="40.1575283" lon="8.65883"><ele>691.0</ele><time>2026-04-30T13:14:53.752Z</time></trkpt><trkpt lat="40.1575767" lon="8.6585783"><ele>690.0</ele><time>2026-04-30T13:14:54.749Z</time></trkpt><trkpt lat="40.15762" lon="8.6583333"><ele>690.0</ele><time>2026-04-30T13:14:55.747Z</time></trkpt><trkpt lat="40.1576617" lon="8.65808"><ele>690.0</ele><time>2026-04-30T13:14:56.809Z</time></trkpt><trkpt lat="40.157705" lon="8.6578167"><ele>690.0</ele><time>2026-04-30T13:14:57.747Z</time></trkpt><trkpt lat="40.157775" lon="8.6575233"><ele>688.3333333333334</ele><time>2026-04-30T13:14:58.749Z</time></trkpt><trkpt lat="40.1578367" lon="8.6572367"><ele>686.6666666666667</ele><time>2026-04-30T13:14:59.749Z</time></trkpt><trkpt lat="40.1578817" lon="8.6569667"><ele>685.0</ele><time>2026-04-30T13:15:00.751Z</time></trkpt><trkpt lat="40.1579267" lon="8.656705"><ele>684.6666666666667</ele><time>2026-04-30T13:15:01.752Z</time></trkpt><trkpt lat="40.1579683" lon="8.656455"><ele>684.3333333333334</ele><time>2026-04-30T13:15:02.748Z</time></trkpt><trkpt lat="40.158005" lon="8.6562133"><ele>684.0</ele><time>2026-04-30T13:15:03.752Z</time></trkpt><trkpt lat="40.1580433" lon="8.65598"><ele>686.6666666666666</ele><time>2026-04-30T13:15:04.754Z</time></trkpt><trkpt lat="40.1580833" lon="8.6557633"><ele>689.3333333333333</ele><time>2026-04-30T13:15:05.749Z</time></trkpt><trkpt lat="40.158115" lon="8.6555617"><ele>692.0</ele><time>2026-04-30T13:15:06.753Z</time></trkpt><trkpt lat="40.1581417" lon="8.6553717"><ele>695.75</ele><time>2026-04-30T13:15:07.747Z</time></trkpt><trkpt lat="40.158155" lon="8.6551967"><ele>699.5</ele><time>2026-04-30T13:15:08.77Z</time></trkpt><trkpt lat="40.1581517" lon="8.655025"><ele>703.25</ele><time>2026-04-30T13:15:09.746Z</time></trkpt><trkpt lat="40.15815" lon="8.65486"><ele>707.0</ele><time>2026-04-30T13:15:10.758Z</time></trkpt><trkpt lat="40.158135" lon="8.6547267"><ele>707.0</ele><time>2026-04-30T13:15:11.751Z</time></trkpt><trkpt lat="40.1581217" lon="8.6546033"><ele>707.0</ele><time>2026-04-30T13:15:12.75Z</time></trkpt><trkpt lat="40.1580517" lon="8.6544917"><ele>707.0</ele><time>2026-04-30T13:15:14.768Z</time></trkpt><trkpt lat="40.1579417" lon="8.6544933"><ele>707.0</ele><time>2026-04-30T13:15:16.752Z</time></trkpt><trkpt lat="40.15788" lon="8.654465"><ele>707.0</ele><time>2026-04-30T13:15:17.751Z</time></trkpt><trkpt lat="40.1576633" lon="8.6546233"><ele>707.0</ele><time>2026-04-30T13:15:18.749Z</time></trkpt><trkpt lat="40.1575117" lon="8.6547367"><ele>707.0</ele><time>2026-04-30T13:15:19.753Z</time></trkpt><trkpt lat="40.1572317" lon="8.655015"><ele>703.5</ele><time>2026-04-30T13:15:20.767Z</time></trkpt><trkpt lat="40.1570717" lon="8.6551567"><ele>700.0</ele><time>2026-04-30T13:15:21.751Z</time></trkpt><trkpt lat="40.1568517" lon="8.655455"><ele>700.0</ele><time>2026-04-30T13:15:22.751Z</time></trkpt><trkpt lat="40.156665" lon="8.6556767"><ele>700.0</ele><time>2026-04-30T13:15:23.746Z</time></trkpt><trkpt lat="40.156465" lon="8.6559333"><ele>696.0</ele><time>2026-04-30T13:15:24.755Z</time></trkpt><trkpt lat="40.15626" lon="8.6562183"><ele>692.0</ele><time>2026-04-30T13:15:25.75Z</time></trkpt><trkpt lat="40.15606" lon="8.6565"><ele>692.0</ele><time>2026-04-30T13:15:26.809Z</time></trkpt><trkpt lat="40.1558283" lon="8.6568133"><ele>692.0</ele><time>2026-04-30T13:15:27.748Z</time></trkpt><trkpt lat="40.1555483" lon="8.657205"><ele>688.0</ele><time>2026-04-30T13:15:28.756Z</time></trkpt><trkpt lat="40.155335" lon="8.6575117"><ele>684.0</ele><time>2026-04-30T13:15:29.752Z</time></trkpt><trkpt lat="40.15516" lon="8.6577383"><ele>680.0</ele><time>2026-04-30T13:15:30.752Z</time></trkpt><trkpt lat="40.1549933" lon="8.65796"><ele>676.0</ele><time>2026-04-30T13:15:31.75Z</time></trkpt><trkpt lat="40.15482" lon="8.6581717"><ele>676.0</ele><time>2026-04-30T13:15:32.759Z</time></trkpt><trkpt lat="40.1546617" lon="8.6583733"><ele>676.0</ele><time>2026-04-30T13:15:33.753Z</time></trkpt><trkpt lat="40.1545183" lon="8.6585733"><ele>676.0</ele><time>2026-04-30T13:15:34.754Z</time></trkpt><trkpt lat="40.1543817" lon="8.658755"><ele>674.6666666666667</ele><time>2026-04-30T13:15:35.748Z</time></trkpt><trkpt lat="40.15426" lon="8.658935"><ele>673.3333333333334</ele><time>2026-04-30T13:15:36.75Z</time></trkpt><trkpt lat="40.1541417" lon="8.6591233"><ele>672.0</ele><time>2026-04-30T13:15:37.75Z</time></trkpt><trkpt lat="40.1540383" lon="8.6593133"><ele>668.0</ele><time>2026-04-30T13:15:38.77Z</time></trkpt><trkpt lat="40.1539517" lon="8.659495"><ele>664.0</ele><time>2026-04-30T13:15:39.749Z</time></trkpt><trkpt lat="40.1538817" lon="8.6596883"><ele>660.0</ele><time>2026-04-30T13:15:40.752Z</time></trkpt><trkpt lat="40.1538183" lon="8.65988"><ele>660.0</ele><time>2026-04-30T13:15:41.749Z</time></trkpt><trkpt lat="40.1537583" lon="8.660065"><ele>660.0</ele><time>2026-04-30T13:15:42.749Z</time></trkpt><trkpt lat="40.1536983" lon="8.6602483"><ele>660.0</ele><time>2026-04-30T13:15:43.752Z</time></trkpt><trkpt lat="40.153645" lon="8.66042"><ele>660.0</ele><time>2026-04-30T13:15:44.768Z</time></trkpt><trkpt lat="40.1535833" lon="8.6605733"><ele>657.8</ele><time>2026-04-30T13:15:45.747Z</time></trkpt><trkpt lat="40.153495" lon="8.6607133"><ele>655.6</ele><time>2026-04-30T13:15:46.751Z</time></trkpt><trkpt lat="40.1533817" lon="8.660805"><ele>653.4000000000001</ele><time>2026-04-30T13:15:47.751Z</time></trkpt><trkpt lat="40.153315" lon="8.66085"><ele>651.2</ele><time>2026-04-30T13:15:48.749Z</time></trkpt><trkpt lat="40.1532383" lon="8.6608817"><ele>649.0</ele><time>2026-04-30T13:15:49.754Z</time></trkpt><trkpt lat="40.1531533" lon="8.6608883"><ele>647.25</ele><time>2026-04-30T13:15:50.765Z</time></trkpt><trkpt lat="40.15305" lon="8.6608367"><ele>645.5</ele><time>2026-04-30T13:15:51.753Z</time></trkpt><trkpt lat="40.1529067" lon="8.6607383"><ele>643.75</ele><time>2026-04-30T13:15:52.747Z</time></trkpt><trkpt lat="40.15277" lon="8.66061"><ele>642.0</ele><time>2026-04-30T13:15:53.748Z</time></trkpt><trkpt lat="40.1526017" lon="8.6604517"><ele>642.0</ele><time>2026-04-30T13:15:54.75Z</time></trkpt><trkpt lat="40.1524483" lon="8.66036"><ele>642.0</ele><time>2026-04-30T13:15:55.753Z</time></trkpt><trkpt lat="40.1522817" lon="8.6603433"><ele>642.0</ele><time>2026-04-30T13:15:56.755Z</time></trkpt><trkpt lat="40.1521183" lon="8.6603433"><ele>641.6666666666666</ele><time>2026-04-30T13:15:57.752Z</time></trkpt><trkpt lat="40.15195" lon="8.66035"><ele>641.3333333333333</ele><time>2026-04-30T13:15:58.751Z</time></trkpt><trkpt lat="40.15178" lon="8.66038"><ele>641.0</ele><time>2026-04-30T13:15:59.752Z</time></trkpt><trkpt lat="40.1516183" lon="8.6604333"><ele>642.6666666666666</ele><time>2026-04-30T13:16:00.751Z</time></trkpt><trkpt lat="40.15146" lon="8.6605033"><ele>644.3333333333334</ele><time>2026-04-30T13:16:01.75Z</time></trkpt><trkpt lat="40.1513" lon="8.6605933"><ele>646.0</ele><time>2026-04-30T13:16:02.747Z</time></trkpt><trkpt lat="40.151145" lon="8.6606717"><ele>646.0</ele><time>2026-04-30T13:16:03.748Z</time></trkpt><trkpt lat="40.1509883" lon="8.6607633"><ele>646.0</ele><time>2026-04-30T13:16:04.747Z</time></trkpt><trkpt lat="40.150825" lon="8.6608767"><ele>646.0</ele><time>2026-04-30T13:16:05.749Z</time></trkpt><trkpt lat="40.150685" lon="8.6609767"><ele>644.0</ele><time>2026-04-30T13:16:06.752Z</time></trkpt><trkpt lat="40.1505467" lon="8.661075"><ele>642.0</ele><time>2026-04-30T13:16:07.747Z</time></trkpt><trkpt lat="40.1504117" lon="8.661165"><ele>640.0</ele><time>2026-04-30T13:16:08.769Z</time></trkpt><trkpt lat="40.1502783" lon="8.6612633"><ele>636.0</ele><time>2026-04-30T13:16:09.751Z</time></trkpt><trkpt lat="40.1501467" lon="8.6613533"><ele>632.0</ele><time>2026-04-30T13:16:10.75Z</time></trkpt><trkpt lat="40.1499967" lon="8.6614217"><ele>628.0</ele><time>2026-04-30T13:16:11.75Z</time></trkpt><trkpt lat="40.1498417" lon="8.6614417"><ele>624.3333333333334</ele><time>2026-04-30T13:16:12.75Z</time></trkpt><trkpt lat="40.1496833" lon="8.66146"><ele>620.6666666666666</ele><time>2026-04-30T13:16:13.753Z</time></trkpt><trkpt lat="40.1495233" lon="8.6614567"><ele>617.0</ele><time>2026-04-30T13:16:14.772Z</time></trkpt><trkpt lat="40.1493683" lon="8.66143"><ele>617.0</ele><time>2026-04-30T13:16:15.752Z</time></trkpt><trkpt lat="40.149215" lon="8.6613883"><ele>617.0</ele><time>2026-04-30T13:16:16.752Z</time></trkpt><trkpt lat="40.1490717" lon="8.6613183"><ele>617.0</ele><time>2026-04-30T13:16:17.752Z</time></trkpt><trkpt lat="40.148955" lon="8.6611633"><ele>615.3333333333333</ele><time>2026-04-30T13:16:18.754Z</time></trkpt><trkpt lat="40.1488333" lon="8.6610433"><ele>613.6666666666666</ele><time>2026-04-30T13:16:19.751Z</time></trkpt><trkpt lat="40.1487217" lon="8.660915"><ele>612.0</ele><time>2026-04-30T13:16:20.767Z</time></trkpt><trkpt lat="40.1486217" lon="8.6607667"><ele>612.0</ele><time>2026-04-30T13:16:21.748Z</time></trkpt><trkpt lat="40.1485283" lon="8.6606133"><ele>612.0</ele><time>2026-04-30T13:16:22.752Z</time></trkpt><trkpt lat="40.1484483" lon="8.6604583"><ele>612.0</ele><time>2026-04-30T13:16:23.753Z</time></trkpt><trkpt lat="40.148385" lon="8.660295"><ele>612.0</ele><time>2026-04-30T13:16:24.753Z</time></trkpt><trkpt lat="40.1483333" lon="8.660125"><ele>613.0</ele><time>2026-04-30T13:16:25.748Z</time></trkpt><trkpt lat="40.1482917" lon="8.6599517"><ele>614.0</ele><time>2026-04-30T13:16:26.804Z</time></trkpt><trkpt lat="40.1482533" lon="8.6597833"><ele>615.0</ele><time>2026-04-30T13:16:27.75Z</time></trkpt><trkpt lat="40.1482383" lon="8.6595983"><ele>616.0</ele><time>2026-04-30T13:16:28.749Z</time></trkpt><trkpt lat="40.1482217" lon="8.65941"><ele>613.25</ele><time>2026-04-30T13:16:29.748Z</time></trkpt><trkpt lat="40.1481917" lon="8.6592317"><ele>610.5</ele><time>2026-04-30T13:16:30.752Z</time></trkpt><trkpt lat="40.1481433" lon="8.6590517"><ele>607.75</ele><time>2026-04-30T13:16:31.75Z</time></trkpt><trkpt lat="40.1480767" lon="8.65886"><ele>605.0</ele><time>2026-04-30T13:16:32.755Z</time></trkpt><trkpt lat="40.148" lon="8.6587167"><ele>604.4</ele><time>2026-04-30T13:16:33.753Z</time></trkpt><trkpt lat="40.1479367" lon="8.6585883"><ele>603.8</ele><time>2026-04-30T13:16:34.753Z</time></trkpt><trkpt lat="40.1478617" lon="8.6584783"><ele>603.2</ele><time>2026-04-30T13:16:35.754Z</time></trkpt><trkpt lat="40.1477833" lon="8.6583817"><ele>602.6</ele><time>2026-04-30T13:16:36.749Z</time></trkpt><trkpt lat="40.14773" lon="8.6582567"><ele>602.0</ele><time>2026-04-30T13:16:37.752Z</time></trkpt><trkpt lat="40.147695" lon="8.658105"><ele>602.0</ele><time>2026-04-30T13:16:38.767Z</time></trkpt><trkpt lat="40.1476717" lon="8.6579383"><ele>602.0</ele><time>2026-04-30T13:16:39.75Z</time></trkpt><trkpt lat="40.1476533" lon="8.6577567"><ele>602.0</ele><time>2026-04-30T13:16:40.747Z</time></trkpt><trkpt lat="40.1476433" lon="8.6575667"><ele>602.0</ele><time>2026-04-30T13:16:41.749Z</time></trkpt><trkpt lat="40.1476517" lon="8.6573367"><ele>600.6666666666666</ele><time>2026-04-30T13:16:42.751Z</time></trkpt><trkpt lat="40.14765" lon="8.6570917"><ele>599.3333333333334</ele><time>2026-04-30T13:16:43.748Z</time></trkpt><trkpt lat="40.1476467" lon="8.6568517"><ele>598.0</ele><time>2026-04-30T13:16:44.766Z</time></trkpt><trkpt lat="40.1476267" lon="8.6566117"><ele>597.6666666666667</ele><time>2026-04-30T13:16:45.747Z</time></trkpt><trkpt lat="40.1475983" lon="8.6563717"><ele>597.3333333333334</ele><time>2026-04-30T13:16:46.752Z</time></trkpt><trkpt lat="40.1475583" lon="8.6561417"><ele>597.0</ele><time>2026-04-30T13:16:47.75Z</time></trkpt><trkpt lat="40.14752" lon="8.65592"><ele>598.0</ele><time>2026-04-30T13:16:48.75Z</time></trkpt><trkpt lat="40.1474867" lon="8.6557083"><ele>599.0</ele><time>2026-04-30T13:16:49.749Z</time></trkpt><trkpt lat="40.14746" lon="8.6555117"><ele>600.0</ele><time>2026-04-30T13:16:50.769Z</time></trkpt><trkpt lat="40.14743" lon="8.65533"><ele>600.2</ele><time>2026-04-30T13:16:51.75Z</time></trkpt><trkpt lat="40.1473983" lon="8.6551717"><ele>600.4</ele><time>2026-04-30T13:16:52.751Z</time></trkpt><trkpt lat="40.1473533" lon="8.6550583"><ele>600.6</ele><time>2026-04-30T13:16:53.751Z</time></trkpt><trkpt lat="40.1473" lon="8.6549683"><ele>600.8</ele><time>2026-04-30T13:16:54.752Z</time></trkpt><trkpt lat="40.1472417" lon="8.654895"><ele>601.0</ele><time>2026-04-30T13:16:55.749Z</time></trkpt><trkpt lat="40.14718" lon="8.654825"><ele>604.2</ele><time>2026-04-30T13:16:56.802Z</time></trkpt><trkpt lat="40.14712" lon="8.6547633"><ele>607.4000000000001</ele><time>2026-04-30T13:16:57.756Z</time></trkpt><trkpt lat="40.147055" lon="8.6547467"><ele>610.6</ele><time>2026-04-30T13:16:58.751Z</time></trkpt><trkpt lat="40.1469783" lon="8.654785"><ele>613.8000000000001</ele><time>2026-04-30T13:16:59.752Z</time></trkpt><trkpt lat="40.1468767" lon="8.6549567"><ele>617.0</ele><time>2026-04-30T13:17:00.748Z</time></trkpt><trkpt lat="40.1468083" lon="8.6550683"><ele>617.0</ele><time>2026-04-30T13:17:01.748Z</time></trkpt><trkpt lat="40.1467167" lon="8.6552767"><ele>617.0</ele><time>2026-04-30T13:17:02.767Z</time></trkpt><trkpt lat="40.1466167" lon="8.6556833"><ele>615.6666666666666</ele><time>2026-04-30T13:17:04.747Z</time></trkpt><trkpt lat="40.1465783" lon="8.6559033"><ele>614.3333333333334</ele><time>2026-04-30T13:17:05.749Z</time></trkpt><trkpt lat="40.1465333" lon="8.6561467"><ele>613.0</ele><time>2026-04-30T13:17:06.752Z</time></trkpt><trkpt lat="40.1465" lon="8.6564033"><ele>613.0</ele><time>2026-04-30T13:17:07.745Z</time></trkpt><trkpt lat="40.1464683" lon="8.656665"><ele>613.0</ele><time>2026-04-30T13:17:08.768Z</time></trkpt><trkpt lat="40.146425" lon="8.65691"><ele>613.0</ele><time>2026-04-30T13:17:09.752Z</time></trkpt><trkpt lat="40.1463817" lon="8.6571317"><ele>606.6666666666667</ele><time>2026-04-30T13:17:10.747Z</time></trkpt><trkpt lat="40.146345" lon="8.6573733"><ele>600.3333333333334</ele><time>2026-04-30T13:17:11.756Z</time></trkpt><trkpt lat="40.146265" lon="8.6575667"><ele>594.0</ele><time>2026-04-30T13:17:12.751Z</time></trkpt><trkpt lat="40.14616" lon="8.657745"><ele>588.3333333333334</ele><time>2026-04-30T13:17:13.747Z</time></trkpt><trkpt lat="40.1460483" lon="8.65792"><ele>582.6666666666667</ele><time>2026-04-30T13:17:14.77Z</time></trkpt><trkpt lat="40.145925" lon="8.6580667"><ele>577.0</ele><time>2026-04-30T13:17:15.749Z</time></trkpt><trkpt lat="40.1457883" lon="8.6582"><ele>579.0</ele><time>2026-04-30T13:17:16.752Z</time></trkpt><trkpt lat="40.1456467" lon="8.658335"><ele>581.0</ele><time>2026-04-30T13:17:17.748Z</time></trkpt><trkpt lat="40.1455017" lon="8.6584733"><ele>583.0</ele><time>2026-04-30T13:17:18.751Z</time></trkpt><trkpt lat="40.145365" lon="8.6586267"><ele>578.6666666666667</ele><time>2026-04-30T13:17:19.747Z</time></trkpt><trkpt lat="40.1452317" lon="8.658795"><ele>574.3333333333334</ele><time>2026-04-30T13:17:20.77Z</time></trkpt><trkpt lat="40.1451083" lon="8.6589767"><ele>570.0</ele><time>2026-04-30T13:17:21.748Z</time></trkpt><trkpt lat="40.145005" lon="8.65917"><ele>570.0</ele><time>2026-04-30T13:17:22.751Z</time></trkpt><trkpt lat="40.1449067" lon="8.6593533"><ele>570.0</ele><time>2026-04-30T13:17:23.755Z</time></trkpt><trkpt lat="40.144815" lon="8.6595283"><ele>570.0</ele><time>2026-04-30T13:17:24.751Z</time></trkpt><trkpt lat="40.144725" lon="8.6596967"><ele>568.25</ele><time>2026-04-30T13:17:25.751Z</time></trkpt><trkpt lat="40.1446383" lon="8.6598517"><ele>566.5</ele><time>2026-04-30T13:17:26.806Z</time></trkpt><trkpt lat="40.1445483" lon="8.65999"><ele>564.75</ele><time>2026-04-30T13:17:27.754Z</time></trkpt><trkpt lat="40.144455" lon="8.6601183"><ele>563.0</ele><time>2026-04-30T13:17:28.752Z</time></trkpt><trkpt lat="40.144365" lon="8.6602433"><ele>560.25</ele><time>2026-04-30T13:17:29.75Z</time></trkpt><trkpt lat="40.14427" lon="8.6603417"><ele>557.5</ele><time>2026-04-30T13:17:30.749Z</time></trkpt><trkpt lat="40.144165" lon="8.66041"><ele>554.75</ele><time>2026-04-30T13:17:31.749Z</time></trkpt><trkpt lat="40.1440633" lon="8.660475"><ele>552.0</ele><time>2026-04-30T13:17:32.753Z</time></trkpt><trkpt lat="40.143955" lon="8.66052"><ele>549.0</ele><time>2026-04-30T13:17:33.75Z</time></trkpt><trkpt lat="40.1438383" lon="8.66054"><ele>546.0</ele><time>2026-04-30T13:17:34.748Z</time></trkpt><trkpt lat="40.1437" lon="8.6605083"><ele>543.0</ele><time>2026-04-30T13:17:35.749Z</time></trkpt><trkpt lat="40.143555" lon="8.6604833"><ele>540.0</ele><time>2026-04-30T13:17:36.749Z</time></trkpt><trkpt lat="40.1434" lon="8.6604"><ele>540.0</ele><time>2026-04-30T13:17:37.759Z</time></trkpt><trkpt lat="40.1432517" lon="8.6602867"><ele>540.0</ele><time>2026-04-30T13:17:38.771Z</time></trkpt><trkpt lat="40.1431167" lon="8.6601567"><ele>540.0</ele><time>2026-04-30T13:17:39.752Z</time></trkpt><trkpt lat="40.142975" lon="8.66003"><ele>541.0</ele><time>2026-04-30T13:17:40.754Z</time></trkpt><trkpt lat="40.14284" lon="8.6598933"><ele>542.0</ele><time>2026-04-30T13:17:41.752Z</time></trkpt><trkpt lat="40.1427217" lon="8.6597833"><ele>543.0</ele><time>2026-04-30T13:17:42.748Z</time></trkpt><trkpt lat="40.1425983" lon="8.6596933"><ele>543.0</ele><time>2026-04-30T13:17:43.756Z</time></trkpt><trkpt lat="40.1424733" lon="8.6596133"><ele>543.0</ele><time>2026-04-30T13:17:44.768Z</time></trkpt><trkpt lat="40.142345" lon="8.6595367"><ele>543.0</ele><time>2026-04-30T13:17:45.747Z</time></trkpt><trkpt lat="40.1422333" lon="8.6594883"><ele>543.0</ele><time>2026-04-30T13:17:46.748Z</time></trkpt><trkpt lat="40.1421233" lon="8.6594383"><ele>544.4</ele><time>2026-04-30T13:17:47.749Z</time></trkpt><trkpt lat="40.1420167" lon="8.6594033"><ele>545.8</ele><time>2026-04-30T13:17:48.747Z</time></trkpt><trkpt lat="40.1419267" lon="8.6593667"><ele>547.2</ele><time>2026-04-30T13:17:49.753Z</time></trkpt><trkpt lat="40.1418467" lon="8.6593267"><ele>548.6</ele><time>2026-04-30T13:17:50.769Z</time></trkpt><trkpt lat="40.1417717" lon="8.6592817"><ele>550.0</ele><time>2026-04-30T13:17:51.752Z</time></trkpt><trkpt lat="40.1417033" lon="8.659185"><ele>550.0</ele><time>2026-04-30T13:17:52.753Z</time></trkpt><trkpt lat="40.1416533" lon="8.6591317"><ele>550.0</ele><time>2026-04-30T13:17:53.752Z</time></trkpt><trkpt lat="40.14161" lon="8.6590667"><ele>550.0</ele><time>2026-04-30T13:17:54.747Z</time></trkpt><trkpt lat="40.1415833" lon="8.6589633"><ele>550.0</ele><time>2026-04-30T13:17:55.75Z</time></trkpt><trkpt lat="40.1415583" lon="8.6588783"><ele>550.0</ele><time>2026-04-30T13:17:56.749Z</time></trkpt><trkpt lat="40.14154" lon="8.6587833"><ele>550.0</ele><time>2026-04-30T13:17:57.75Z</time></trkpt><trkpt lat="40.1415317" lon="8.658685"><ele>550.0</ele><time>2026-04-30T13:17:58.749Z</time></trkpt><trkpt lat="40.14153" lon="8.6585717"><ele>549.6</ele><time>2026-04-30T13:17:59.752Z</time></trkpt><trkpt lat="40.1415433" lon="8.6584583"><ele>549.2</ele><time>2026-04-30T13:18:00.751Z</time></trkpt><trkpt lat="40.1415667" lon="8.6583367"><ele>548.8</ele><time>2026-04-30T13:18:01.755Z</time></trkpt><trkpt lat="40.1415983" lon="8.6582017"><ele>548.4</ele><time>2026-04-30T13:18:02.751Z</time></trkpt><trkpt lat="40.1416317" lon="8.65807"><ele>548.0</ele><time>2026-04-30T13:18:03.749Z</time></trkpt><trkpt lat="40.14166" lon="8.657935"><ele>548.1999999999999</ele><time>2026-04-30T13:18:04.75Z</time></trkpt><trkpt lat="40.141685" lon="8.6578067"><ele>548.4</ele><time>2026-04-30T13:18:05.747Z</time></trkpt><trkpt lat="40.141715" lon="8.6576817"><ele>548.5999999999999</ele><time>2026-04-30T13:18:06.746Z</time></trkpt><trkpt lat="40.14174" lon="8.6575617"><ele>548.8</ele><time>2026-04-30T13:18:07.749Z</time></trkpt><trkpt lat="40.14177" lon="8.6574383"><ele>549.0</ele><time>2026-04-30T13:18:08.769Z</time></trkpt><trkpt lat="40.1417867" lon="8.6573233"><ele>549.0</ele><time>2026-04-30T13:18:09.749Z</time></trkpt><trkpt lat="40.1418167" lon="8.657215"><ele>549.0</ele><time>2026-04-30T13:18:10.753Z</time></trkpt><trkpt lat="40.1418483" lon="8.6571"><ele>549.0</ele><time>2026-04-30T13:18:11.748Z</time></trkpt><trkpt lat="40.14189" lon="8.6569933"><ele>549.0</ele><time>2026-04-30T13:18:12.752Z</time></trkpt><trkpt lat="40.141935" lon="8.6568783"><ele>549.0</ele><time>2026-04-30T13:18:13.753Z</time></trkpt><trkpt lat="40.1419933" lon="8.656775"><ele>547.6</ele><time>2026-04-30T13:18:14.772Z</time></trkpt><trkpt lat="40.14204" lon="8.6566683"><ele>546.2</ele><time>2026-04-30T13:18:15.751Z</time></trkpt><trkpt lat="40.14209" lon="8.6565667"><ele>544.8000000000001</ele><time>2026-04-30T13:18:16.75Z</time></trkpt><trkpt lat="40.14216" lon="8.65647"><ele>543.4</ele><time>2026-04-30T13:18:17.751Z</time></trkpt><trkpt lat="40.1422267" lon="8.6563867"><ele>542.0</ele><time>2026-04-30T13:18:18.752Z</time></trkpt><trkpt lat="40.1423117" lon="8.6563083"><ele>541.0</ele><time>2026-04-30T13:18:19.751Z</time></trkpt><trkpt lat="40.142395" lon="8.65622"><ele>540.0</ele><time>2026-04-30T13:18:20.767Z</time></trkpt><trkpt lat="40.14248" lon="8.6561217"><ele>539.0</ele><time>2026-04-30T13:18:21.75Z</time></trkpt><trkpt lat="40.142565" lon="8.6560117"><ele>538.0</ele><time>2026-04-30T13:18:22.765Z</time></trkpt><trkpt lat="40.1426367" lon="8.6558917"><ele>535.5</ele><time>2026-04-30T13:18:23.748Z</time></trkpt><trkpt lat="40.14271" lon="8.6557583"><ele>533.0</ele><time>2026-04-30T13:18:24.755Z</time></trkpt><trkpt lat="40.1427867" lon="8.65563"><ele>530.5</ele><time>2026-04-30T13:18:25.75Z</time></trkpt><trkpt lat="40.1428517" lon="8.6554917"><ele>528.0</ele><time>2026-04-30T13:18:26.761Z</time></trkpt><trkpt lat="40.1429083" lon="8.655345"><ele>526.5</ele><time>2026-04-30T13:18:27.749Z</time></trkpt><trkpt lat="40.14296" lon="8.6552"><ele>525.0</ele><time>2026-04-30T13:18:28.752Z</time></trkpt><trkpt lat="40.1430017" lon="8.65505"><ele>523.5</ele><time>2026-04-30T13:18:29.751Z</time></trkpt><trkpt lat="40.1430417" lon="8.6548967"><ele>522.0</ele><time>2026-04-30T13:18:30.749Z</time></trkpt><trkpt lat="40.14309" lon="8.654735"><ele>522.0</ele><time>2026-04-30T13:18:31.75Z</time></trkpt><trkpt lat="40.1431217" lon="8.654565"><ele>522.0</ele><time>2026-04-30T13:18:32.767Z</time></trkpt><trkpt lat="40.1431533" lon="8.6543933"><ele>522.0</ele><time>2026-04-30T13:18:33.749Z</time></trkpt><trkpt lat="40.1432117" lon="8.6542233"><ele>522.0</ele><time>2026-04-30T13:18:34.747Z</time></trkpt><trkpt lat="40.143255" lon="8.65406"><ele>526.0</ele><time>2026-04-30T13:18:35.75Z</time></trkpt><trkpt lat="40.1432733" lon="8.6538883"><ele>530.0</ele><time>2026-04-30T13:18:36.746Z</time></trkpt><trkpt lat="40.1432917" lon="8.6537133"><ele>534.0</ele><time>2026-04-30T13:18:37.749Z</time></trkpt><trkpt lat="40.14331" lon="8.6535367"><ele>538.0</ele><time>2026-04-30T13:18:38.767Z</time></trkpt><trkpt lat="40.1433267" lon="8.6533567"><ele>538.0</ele><time>2026-04-30T13:18:39.749Z</time></trkpt><trkpt lat="40.143345" lon="8.6531783"><ele>538.0</ele><time>2026-04-30T13:18:40.752Z</time></trkpt><trkpt lat="40.1433683" lon="8.6529983"><ele>538.0</ele><time>2026-04-30T13:18:41.751Z</time></trkpt><trkpt lat="40.1434" lon="8.652815"><ele>538.0</ele><time>2026-04-30T13:18:42.748Z</time></trkpt><trkpt lat="40.14345" lon="8.6526367"><ele>536.75</ele><time>2026-04-30T13:18:43.749Z</time></trkpt><trkpt lat="40.1434933" lon="8.6524617"><ele>535.5</ele><time>2026-04-30T13:18:44.767Z</time></trkpt><trkpt lat="40.14354" lon="8.652295"><ele>534.25</ele><time>2026-04-30T13:18:45.752Z</time></trkpt><trkpt lat="40.14359" lon="8.6521267"><ele>533.0</ele><time>2026-04-30T13:18:46.752Z</time></trkpt><trkpt lat="40.14364" lon="8.6519683"><ele>531.5</ele><time>2026-04-30T13:18:47.752Z</time></trkpt><trkpt lat="40.1436867" lon="8.6518117"><ele>530.0</ele><time>2026-04-30T13:18:48.752Z</time></trkpt><trkpt lat="40.1437533" lon="8.6516583"><ele>528.5</ele><time>2026-04-30T13:18:49.751Z</time></trkpt><trkpt lat="40.14383" lon="8.6515167"><ele>527.0</ele><time>2026-04-30T13:18:50.77Z</time></trkpt><trkpt lat="40.1439" lon="8.65135"><ele>527.0</ele><time>2026-04-30T13:18:51.752Z</time></trkpt><trkpt lat="40.14398" lon="8.6512083"><ele>527.0</ele><time>2026-04-30T13:18:52.752Z</time></trkpt><trkpt lat="40.1440667" lon="8.6510867"><ele>527.0</ele><time>2026-04-30T13:18:53.752Z</time></trkpt><trkpt lat="40.1441367" lon="8.6509717"><ele>527.0</ele><time>2026-04-30T13:18:54.751Z</time></trkpt><trkpt lat="40.1441983" lon="8.65087"><ele>528.1666666666666</ele><time>2026-04-30T13:18:55.751Z</time></trkpt><trkpt lat="40.144245" lon="8.6507783"><ele>529.3333333333333</ele><time>2026-04-30T13:18:56.749Z</time></trkpt><trkpt lat="40.144295" lon="8.6506967"><ele>530.5</ele><time>2026-04-30T13:18:57.749Z</time></trkpt><trkpt lat="40.1443383" lon="8.650615"><ele>531.6666666666666</ele><time>2026-04-30T13:18:58.754Z</time></trkpt><trkpt lat="40.1443783" lon="8.6505333"><ele>532.8333333333334</ele><time>2026-04-30T13:18:59.752Z</time></trkpt><trkpt lat="40.14439" lon="8.650395"><ele>534.0</ele><time>2026-04-30T13:19:01.751Z</time></trkpt><trkpt lat="40.1442983" lon="8.65032"><ele>534.0</ele><time>2026-04-30T13:19:03.745Z</time></trkpt><trkpt lat="40.14422" lon="8.6503317"><ele>534.0</ele><time>2026-04-30T13:19:04.748Z</time></trkpt><trkpt lat="40.1440117" lon="8.6502633"><ele>534.0</ele><time>2026-04-30T13:19:05.749Z</time></trkpt><trkpt lat="40.143885" lon="8.6502367"><ele>534.0</ele><time>2026-04-30T13:19:06.748Z</time></trkpt><trkpt lat="40.14375" lon="8.6502233"><ele>537.0</ele><time>2026-04-30T13:19:07.749Z</time></trkpt><trkpt lat="40.1435983" lon="8.6501867"><ele>540.0</ele><time>2026-04-30T13:19:08.776Z</time></trkpt><trkpt lat="40.1434517" lon="8.65015"><ele>543.0</ele><time>2026-04-30T13:19:09.75Z</time></trkpt><trkpt lat="40.1433017" lon="8.6501417"><ele>539.3333333333334</ele><time>2026-04-30T13:19:10.749Z</time></trkpt><trkpt lat="40.1431383" lon="8.65011"><ele>535.6666666666667</ele><time>2026-04-30T13:19:11.75Z</time></trkpt><trkpt lat="40.1429767" lon="8.6501017"><ele>532.0</ele><time>2026-04-30T13:19:12.749Z</time></trkpt><trkpt lat="40.1428267" lon="8.6501067"><ele>532.0</ele><time>2026-04-30T13:19:13.75Z</time></trkpt><trkpt lat="40.14267" lon="8.65011"><ele>532.0</ele><time>2026-04-30T13:19:14.775Z</time></trkpt><trkpt lat="40.14251" lon="8.65012"><ele>532.0</ele><time>2026-04-30T13:19:15.753Z</time></trkpt><trkpt lat="40.1423433" lon="8.65015"><ele>532.0</ele><time>2026-04-30T13:19:16.745Z</time></trkpt><trkpt lat="40.1422033" lon="8.6501667"><ele>532.0</ele><time>2026-04-30T13:19:17.748Z</time></trkpt><trkpt lat="40.14206" lon="8.650185"><ele>532.0</ele><time>2026-04-30T13:19:18.751Z</time></trkpt><trkpt lat="40.141925" lon="8.6502117"><ele>532.0</ele><time>2026-04-30T13:19:19.75Z</time></trkpt><trkpt lat="40.1417967" lon="8.650265"><ele>528.5</ele><time>2026-04-30T13:19:20.771Z</time></trkpt><trkpt lat="40.141685" lon="8.650325"><ele>525.0</ele><time>2026-04-30T13:19:21.751Z</time></trkpt><trkpt lat="40.1415717" lon="8.6503983"><ele>521.5</ele><time>2026-04-30T13:19:22.749Z</time></trkpt><trkpt lat="40.1414867" lon="8.6505067"><ele>518.0</ele><time>2026-04-30T13:19:23.749Z</time></trkpt><trkpt lat="40.1414133" lon="8.6506033"><ele>517.1666666666666</ele><time>2026-04-30T13:19:24.751Z</time></trkpt><trkpt lat="40.14134" lon="8.650685"><ele>516.3333333333333</ele><time>2026-04-30T13:19:25.754Z</time></trkpt><trkpt lat="40.14127" lon="8.6507567"><ele>515.5</ele><time>2026-04-30T13:19:26.804Z</time></trkpt><trkpt lat="40.1411983" lon="8.6508117"><ele>514.6666666666666</ele><time>2026-04-30T13:19:27.748Z</time></trkpt><trkpt lat="40.14113" lon="8.6508567"><ele>513.8333333333334</ele><time>2026-04-30T13:19:28.751Z</time></trkpt><trkpt lat="40.14105" lon="8.6508867"><ele>513.0</ele><time>2026-04-30T13:19:29.748Z</time></trkpt><trkpt lat="40.14097" lon="8.6509083"><ele>513.0</ele><time>2026-04-30T13:19:30.751Z</time></trkpt><trkpt lat="40.1408867" lon="8.6509117"><ele>513.0</ele><time>2026-04-30T13:19:31.757Z</time></trkpt><trkpt lat="40.1408067" lon="8.6509083"><ele>513.0</ele><time>2026-04-30T13:19:32.751Z</time></trkpt><trkpt lat="40.1407283" lon="8.6508867"><ele>513.0</ele><time>2026-04-30T13:19:33.749Z</time></trkpt><trkpt lat="40.1406583" lon="8.6508517"><ele>513.0</ele><time>2026-04-30T13:19:34.752Z</time></trkpt><trkpt lat="40.14059" lon="8.6508267"><ele>513.0</ele><time>2026-04-30T13:19:35.75Z</time></trkpt><trkpt lat="40.14052" lon="8.65079"><ele>510.2</ele><time>2026-04-30T13:19:36.753Z</time></trkpt><trkpt lat="40.1404483" lon="8.65074"><ele>507.4</ele><time>2026-04-30T13:19:37.754Z</time></trkpt><trkpt lat="40.1403717" lon="8.6506917"><ele>504.59999999999997</ele><time>2026-04-30T13:19:38.773Z</time></trkpt><trkpt lat="40.1402817" lon="8.650635"><ele>501.79999999999995</ele><time>2026-04-30T13:19:39.746Z</time></trkpt><trkpt lat="40.1401867" lon="8.65052"><ele>499.0</ele><time>2026-04-30T13:19:40.751Z</time></trkpt><trkpt lat="40.140085" lon="8.6504283"><ele>499.0</ele><time>2026-04-30T13:19:41.746Z</time></trkpt><trkpt lat="40.1399767" lon="8.6503267"><ele>499.0</ele><time>2026-04-30T13:19:42.748Z</time></trkpt><trkpt lat="40.13988" lon="8.6502133"><ele>499.0</ele><time>2026-04-30T13:19:43.75Z</time></trkpt><trkpt lat="40.13979" lon="8.6501067"><ele>499.0</ele><time>2026-04-30T13:19:44.773Z</time></trkpt><trkpt lat="40.1397117" lon="8.649995"><ele>498.5</ele><time>2026-04-30T13:19:45.75Z</time></trkpt><trkpt lat="40.139645" lon="8.6498867"><ele>498.0</ele><time>2026-04-30T13:19:46.747Z</time></trkpt><trkpt lat="40.1395883" lon="8.649765"><ele>497.5</ele><time>2026-04-30T13:19:47.748Z</time></trkpt><trkpt lat="40.1395533" lon="8.6496033"><ele>497.0</ele><time>2026-04-30T13:19:48.753Z</time></trkpt><trkpt lat="40.13955" lon="8.6494417"><ele>497.0</ele><time>2026-04-30T13:19:49.747Z</time></trkpt><trkpt lat="40.13954" lon="8.649325"><ele>497.00000000000006</ele><time>2026-04-30T13:19:50.783Z</time></trkpt><trkpt lat="40.1395783" lon="8.6491617"><ele>497.00000000000006</ele><time>2026-04-30T13:19:51.75Z</time></trkpt><trkpt lat="40.1396083" lon="8.6490183"><ele>497.0</ele><time>2026-04-30T13:19:52.748Z</time></trkpt><trkpt lat="40.1396067" lon="8.648885"><ele>497.0</ele><time>2026-04-30T13:19:53.751Z</time></trkpt><trkpt lat="40.1395967" lon="8.6487633"><ele>497.0</ele><time>2026-04-30T13:19:54.749Z</time></trkpt><trkpt lat="40.1395617" lon="8.6486467"><ele>497.00000000000006</ele><time>2026-04-30T13:19:55.75Z</time></trkpt><trkpt lat="40.1395133" lon="8.6485317"><ele>497.00000000000006</ele><time>2026-04-30T13:19:56.805Z</time></trkpt><trkpt lat="40.13947" lon="8.648405"><ele>497.0</ele><time>2026-04-30T13:19:57.746Z</time></trkpt><trkpt lat="40.1394283" lon="8.6482833"><ele>497.0</ele><time>2026-04-30T13:19:58.751Z</time></trkpt><trkpt lat="40.1393867" lon="8.64818"><ele>500.40000000000003</ele><time>2026-04-30T13:19:59.749Z</time></trkpt><trkpt lat="40.1393" lon="8.6481067"><ele>503.80000000000007</ele><time>2026-04-30T13:20:00.747Z</time></trkpt><trkpt lat="40.13922" lon="8.6480183"><ele>507.2</ele><time>2026-04-30T13:20:01.748Z</time></trkpt><trkpt lat="40.1391117" lon="8.6479833"><ele>510.6</ele><time>2026-04-30T13:20:02.746Z</time></trkpt><trkpt lat="40.139015" lon="8.6479633"><ele>514.0</ele><time>2026-04-30T13:20:03.746Z</time></trkpt><trkpt lat="40.13892" lon="8.6479367"><ele>515.8</ele><time>2026-04-30T13:20:04.746Z</time></trkpt><trkpt lat="40.1388533" lon="8.6479"><ele>517.5999999999999</ele><time>2026-04-30T13:20:05.747Z</time></trkpt><trkpt lat="40.1387917" lon="8.6478733"><ele>519.4</ele><time>2026-04-30T13:20:06.752Z</time></trkpt><trkpt lat="40.1386383" lon="8.6479317"><ele>521.1999999999999</ele><time>2026-04-30T13:20:08.775Z</time></trkpt><trkpt lat="40.1385317" lon="8.6480633"><ele>523.0</ele><time>2026-04-30T13:20:09.753Z</time></trkpt><trkpt lat="40.1384433" lon="8.6482183"><ele>523.0</ele><time>2026-04-30T13:20:10.756Z</time></trkpt><trkpt lat="40.1383817" lon="8.6483933"><ele>523.0</ele><time>2026-04-30T13:20:11.748Z</time></trkpt><trkpt lat="40.1381917" lon="8.64896"><ele>519.0</ele><time>2026-04-30T13:20:12.748Z</time></trkpt><trkpt lat="40.1380733" lon="8.6494617"><ele>515.0</ele><time>2026-04-30T13:20:13.752Z</time></trkpt><trkpt lat="40.1379383" lon="8.6498733"><ele>515.0</ele><time>2026-04-30T13:20:14.774Z</time></trkpt><trkpt lat="40.13785" lon="8.650125"><ele>515.0</ele><time>2026-04-30T13:20:15.749Z</time></trkpt><trkpt lat="40.1377683" lon="8.6503617"><ele>515.0</ele><time>2026-04-30T13:20:16.751Z</time></trkpt><trkpt lat="40.1376567" lon="8.6506683"><ele>508.5</ele><time>2026-04-30T13:20:17.758Z</time></trkpt><trkpt lat="40.13755" lon="8.6509483"><ele>502.0</ele><time>2026-04-30T13:20:18.752Z</time></trkpt><trkpt lat="40.13746" lon="8.6512017"><ele>504.33333333333337</ele><time>2026-04-30T13:20:19.75Z</time></trkpt><trkpt lat="40.1373667" lon="8.651415"><ele>506.66666666666663</ele><time>2026-04-30T13:20:20.772Z</time></trkpt><trkpt lat="40.1372633" lon="8.6515883"><ele>509.0</ele><time>2026-04-30T13:20:21.752Z</time></trkpt><trkpt lat="40.137155" lon="8.6517167"><ele>509.0</ele><time>2026-04-30T13:20:22.748Z</time></trkpt><trkpt lat="40.137035" lon="8.6518417"><ele>509.0</ele><time>2026-04-30T13:20:23.752Z</time></trkpt><trkpt lat="40.1369133" lon="8.6519583"><ele>509.0</ele><time>2026-04-30T13:20:24.749Z</time></trkpt><trkpt lat="40.13679" lon="8.6520817"><ele>505.66666666666663</ele><time>2026-04-30T13:20:25.748Z</time></trkpt><trkpt lat="40.13666" lon="8.652185"><ele>502.33333333333337</ele><time>2026-04-30T13:20:26.749Z</time></trkpt><trkpt lat="40.13652" lon="8.6522917"><ele>499.0</ele><time>2026-04-30T13:20:27.75Z</time></trkpt><trkpt lat="40.136385" lon="8.6524017"><ele>499.0</ele><time>2026-04-30T13:20:28.751Z</time></trkpt><trkpt lat="40.136245" lon="8.6525167"><ele>499.0</ele><time>2026-04-30T13:20:29.751Z</time></trkpt><trkpt lat="40.1361067" lon="8.6526367"><ele>499.0</ele><time>2026-04-30T13:20:30.755Z</time></trkpt><trkpt lat="40.13596" lon="8.65274"><ele>493.0</ele><time>2026-04-30T13:20:31.749Z</time></trkpt><trkpt lat="40.1358183" lon="8.652845"><ele>487.0</ele><time>2026-04-30T13:20:32.752Z</time></trkpt><trkpt lat="40.1356733" lon="8.652935"><ele>481.0</ele><time>2026-04-30T13:20:33.752Z</time></trkpt><trkpt lat="40.13553" lon="8.6530267"><ele>481.0</ele><time>2026-04-30T13:20:34.749Z</time></trkpt><trkpt lat="40.1353767" lon="8.6530967"><ele>481.0</ele><time>2026-04-30T13:20:35.752Z</time></trkpt><trkpt lat="40.1352317" lon="8.6531667"><ele>481.0</ele><time>2026-04-30T13:20:36.751Z</time></trkpt><trkpt lat="40.1350767" lon="8.6532183"><ele>481.0</ele><time>2026-04-30T13:20:37.748Z</time></trkpt><trkpt lat="40.134905" lon="8.6532683"><ele>481.0</ele><time>2026-04-30T13:20:38.771Z</time></trkpt><trkpt lat="40.1347333" lon="8.6533017"><ele>481.0</ele><time>2026-04-30T13:20:39.749Z</time></trkpt><trkpt lat="40.134555" lon="8.6533283"><ele>483.0</ele><time>2026-04-30T13:20:40.751Z</time></trkpt><trkpt lat="40.134385" lon="8.6533483"><ele>485.0</ele><time>2026-04-30T13:20:41.751Z</time></trkpt><trkpt lat="40.1342167" lon="8.653355"><ele>487.0</ele><time>2026-04-30T13:20:42.75Z</time></trkpt><trkpt lat="40.134055" lon="8.65335"><ele>487.0</ele><time>2026-04-30T13:20:43.749Z</time></trkpt><trkpt lat="40.1339" lon="8.6533383"><ele>487.0</ele><time>2026-04-30T13:20:44.777Z</time></trkpt><trkpt lat="40.1337433" lon="8.6533117"><ele>487.0</ele><time>2026-04-30T13:20:45.746Z</time></trkpt><trkpt lat="40.1335883" lon="8.6532733"><ele>487.0</ele><time>2026-04-30T13:20:46.747Z</time></trkpt><trkpt lat="40.13343" lon="8.6532383"><ele>487.0</ele><time>2026-04-30T13:20:47.75Z</time></trkpt><trkpt lat="40.13327" lon="8.6531717"><ele>487.0</ele><time>2026-04-30T13:20:48.748Z</time></trkpt><trkpt lat="40.1331267" lon="8.65309"><ele>486.25</ele><time>2026-04-30T13:20:49.749Z</time></trkpt><trkpt lat="40.1329933" lon="8.6529783"><ele>485.5</ele><time>2026-04-30T13:20:50.772Z</time></trkpt><trkpt lat="40.132865" lon="8.65286"><ele>484.75</ele><time>2026-04-30T13:20:51.751Z</time></trkpt><trkpt lat="40.13275" lon="8.6527783"><ele>484.0</ele><time>2026-04-30T13:20:52.754Z</time></trkpt><trkpt lat="40.1326367" lon="8.65271"><ele>484.0</ele><time>2026-04-30T13:20:53.747Z</time></trkpt><trkpt lat="40.1325367" lon="8.65264"><ele>484.0</ele><time>2026-04-30T13:20:54.752Z</time></trkpt><trkpt lat="40.1324383" lon="8.65256"><ele>484.0</ele><time>2026-04-30T13:20:55.75Z</time></trkpt><trkpt lat="40.132365" lon="8.6524533"><ele>484.0</ele><time>2026-04-30T13:20:56.803Z</time></trkpt><trkpt lat="40.1322817" lon="8.6523417"><ele>482.0</ele><time>2026-04-30T13:20:57.746Z</time></trkpt><trkpt lat="40.1322267" lon="8.6521883"><ele>480.0</ele><time>2026-04-30T13:20:58.75Z</time></trkpt><trkpt lat="40.1321933" lon="8.6520033"><ele>478.0</ele><time>2026-04-30T13:20:59.747Z</time></trkpt><trkpt lat="40.1321533" lon="8.6518317"><ele>476.0</ele><time>2026-04-30T13:21:00.748Z</time></trkpt><trkpt lat="40.1321183" lon="8.6516433"><ele>476.0</ele><time>2026-04-30T13:21:01.75Z</time></trkpt><trkpt lat="40.1321083" lon="8.651425"><ele>476.0</ele><time>2026-04-30T13:21:02.752Z</time></trkpt><trkpt lat="40.1321467" lon="8.6511833"><ele>476.0</ele><time>2026-04-30T13:21:03.757Z</time></trkpt><trkpt lat="40.1321883" lon="8.6509633"><ele>471.5</ele><time>2026-04-30T13:21:04.752Z</time></trkpt><trkpt lat="40.132275" lon="8.6506883"><ele>467.0</ele><time>2026-04-30T13:21:05.752Z</time></trkpt><trkpt lat="40.132355" lon="8.6503967"><ele>476.5</ele><time>2026-04-30T13:21:06.75Z</time></trkpt><trkpt lat="40.1323967" lon="8.650115"><ele>486.0</ele><time>2026-04-30T13:21:07.751Z</time></trkpt><trkpt lat="40.1323967" lon="8.6497383"><ele>486.0</ele><time>2026-04-30T13:21:08.775Z</time></trkpt><trkpt lat="40.1323967" lon="8.6494667"><ele>486.0</ele><time>2026-04-30T13:21:09.746Z</time></trkpt><trkpt lat="40.1324" lon="8.649185"><ele>486.0</ele><time>2026-04-30T13:21:10.748Z</time></trkpt><trkpt lat="40.1324083" lon="8.6489133"><ele>485.0</ele><time>2026-04-30T13:21:11.751Z</time></trkpt><trkpt lat="40.1324283" lon="8.648655"><ele>484.0</ele><time>2026-04-30T13:21:12.749Z</time></trkpt><trkpt lat="40.1324483" lon="8.6484"><ele>483.0</ele><time>2026-04-30T13:21:13.75Z</time></trkpt><trkpt lat="40.132465" lon="8.6481483"><ele>482.33333333333337</ele><time>2026-04-30T13:21:14.775Z</time></trkpt><trkpt lat="40.1324633" lon="8.6479117"><ele>481.6666666666667</ele><time>2026-04-30T13:21:15.745Z</time></trkpt><trkpt lat="40.132445" lon="8.6476917"><ele>481.0</ele><time>2026-04-30T13:21:16.751Z</time></trkpt><trkpt lat="40.1324183" lon="8.64748"><ele>478.25</ele><time>2026-04-30T13:21:17.752Z</time></trkpt><trkpt lat="40.1323833" lon="8.6472833"><ele>475.5</ele><time>2026-04-30T13:21:18.747Z</time></trkpt><trkpt lat="40.1323383" lon="8.6470967"><ele>472.75</ele><time>2026-04-30T13:21:19.747Z</time></trkpt><trkpt lat="40.1322867" lon="8.64692"><ele>470.0</ele><time>2026-04-30T13:21:20.779Z</time></trkpt><trkpt lat="40.1322267" lon="8.64674"><ele>470.0</ele><time>2026-04-30T13:21:21.746Z</time></trkpt><trkpt lat="40.132155" lon="8.646535"><ele>470.0</ele><time>2026-04-30T13:21:22.747Z</time></trkpt><trkpt lat="40.1320633" lon="8.6463533"><ele>470.0</ele><time>2026-04-30T13:21:23.751Z</time></trkpt><trkpt lat="40.1319933" lon="8.6461917"><ele>475.0</ele><time>2026-04-30T13:21:24.755Z</time></trkpt><trkpt lat="40.1319217" lon="8.6460117"><ele>480.0</ele><time>2026-04-30T13:21:25.759Z</time></trkpt><trkpt lat="40.131825" lon="8.6458733"><ele>485.0</ele><time>2026-04-30T13:21:26.804Z</time></trkpt><trkpt lat="40.1317383" lon="8.64572"><ele>490.0</ele><time>2026-04-30T13:21:27.749Z</time></trkpt><trkpt lat="40.1316567" lon="8.6455583"><ele>490.0</ele><time>2026-04-30T13:21:28.748Z</time></trkpt><trkpt lat="40.13158" lon="8.6453967"><ele>490.0</ele><time>2026-04-30T13:21:29.748Z</time></trkpt><trkpt lat="40.1315167" lon="8.645235"><ele>490.0</ele><time>2026-04-30T13:21:30.75Z</time></trkpt><trkpt lat="40.1314683" lon="8.6450617"><ele>490.0</ele><time>2026-04-30T13:21:31.752Z</time></trkpt><trkpt lat="40.1314367" lon="8.64488"><ele>480.33333333333337</ele><time>2026-04-30T13:21:32.75Z</time></trkpt><trkpt lat="40.13142" lon="8.6446833"><ele>470.66666666666663</ele><time>2026-04-30T13:21:33.753Z</time></trkpt><trkpt lat="40.1314083" lon="8.6444817"><ele>461.0</ele><time>2026-04-30T13:21:34.749Z</time></trkpt><trkpt lat="40.1314033" lon="8.644285"><ele>461.0</ele><time>2026-04-30T13:21:35.748Z</time></trkpt><trkpt lat="40.1314167" lon="8.644085"><ele>461.0</ele><time>2026-04-30T13:21:36.75Z</time></trkpt><trkpt lat="40.1314567" lon="8.6438883"><ele>461.0</ele><time>2026-04-30T13:21:37.747Z</time></trkpt><trkpt lat="40.1315033" lon="8.6437117"><ele>463.0</ele><time>2026-04-30T13:21:38.772Z</time></trkpt><trkpt lat="40.1315683" lon="8.6435333"><ele>465.0</ele><time>2026-04-30T13:21:39.746Z</time></trkpt><trkpt lat="40.1316217" lon="8.6433733"><ele>467.0</ele><time>2026-04-30T13:21:40.753Z</time></trkpt><trkpt lat="40.1316767" lon="8.6432183"><ele>469.0</ele><time>2026-04-30T13:21:41.755Z</time></trkpt><trkpt lat="40.13172" lon="8.6430533"><ele>469.0</ele><time>2026-04-30T13:21:42.754Z</time></trkpt><trkpt lat="40.1317467" lon="8.6428767"><ele>469.0</ele><time>2026-04-30T13:21:43.748Z</time></trkpt><trkpt lat="40.1317667" lon="8.642695"><ele>469.0</ele><time>2026-04-30T13:21:44.77Z</time></trkpt><trkpt lat="40.1317767" lon="8.6425133"><ele>469.0</ele><time>2026-04-30T13:21:45.753Z</time></trkpt><trkpt lat="40.13178" lon="8.6423383"><ele>468.6</ele><time>2026-04-30T13:21:46.745Z</time></trkpt><trkpt lat="40.1317817" lon="8.6421767"><ele>468.2</ele><time>2026-04-30T13:21:47.748Z</time></trkpt><trkpt lat="40.1317767" lon="8.642035"><ele>467.80000000000007</ele><time>2026-04-30T13:21:48.756Z</time></trkpt><trkpt lat="40.131775" lon="8.641915"><ele>467.40000000000003</ele><time>2026-04-30T13:21:49.746Z</time></trkpt><trkpt lat="40.13173" lon="8.6418167"><ele>467.0</ele><time>2026-04-30T13:21:50.776Z</time></trkpt><trkpt lat="40.1316583" lon="8.6417133"><ele>466.99999999999994</ele><time>2026-04-30T13:21:52.752Z</time></trkpt><trkpt lat="40.131575" lon="8.6416567"><ele>467.0</ele><time>2026-04-30T13:21:54.751Z</time></trkpt><trkpt lat="40.13155" lon="8.6415783"><ele>467.0</ele><time>2026-04-30T13:21:56.748Z</time></trkpt><trkpt lat="40.1315783" lon="8.6414883"><ele>467.0</ele><time>2026-04-30T13:21:58.75Z</time></trkpt><trkpt lat="40.1316033" lon="8.641385"><ele>466.99999999999994</ele><time>2026-04-30T13:22:00.749Z</time></trkpt><trkpt lat="40.1316317" lon="8.6412867"><ele>467.0</ele><time>2026-04-30T13:22:02.802Z</time></trkpt><trkpt lat="40.13165" lon="8.6412"><ele>468.66666666666663</ele><time>2026-04-30T13:22:04.746Z</time></trkpt><trkpt lat="40.1316967" lon="8.6411317"><ele>470.3333333333333</ele><time>2026-04-30T13:22:07.748Z</time></trkpt><trkpt lat="40.1317367" lon="8.641035"><ele>472.0</ele><time>2026-04-30T13:22:22.75Z</time></trkpt><trkpt lat="40.13177" lon="8.64089"><ele>473.66666666666663</ele><time>2026-04-30T13:22:24.749Z</time></trkpt><trkpt lat="40.1318017" lon="8.6408"><ele>475.3333333333333</ele><time>2026-04-30T13:22:25.749Z</time></trkpt><trkpt lat="40.1318383" lon="8.6406967"><ele>477.0</ele><time>2026-04-30T13:22:26.801Z</time></trkpt><trkpt lat="40.13188" lon="8.6405733"><ele>477.0</ele><time>2026-04-30T13:22:27.743Z</time></trkpt><trkpt lat="40.1319217" lon="8.6404367"><ele>477.0</ele><time>2026-04-30T13:22:28.75Z</time></trkpt><trkpt lat="40.1319633" lon="8.6403033"><ele>477.0</ele><time>2026-04-30T13:22:29.747Z</time></trkpt><trkpt lat="40.131995" lon="8.6401583"><ele>477.0</ele><time>2026-04-30T13:22:30.752Z</time></trkpt><trkpt lat="40.1320333" lon="8.6400083"><ele>479.0</ele><time>2026-04-30T13:22:31.747Z</time></trkpt><trkpt lat="40.132065" lon="8.6398567"><ele>481.0</ele><time>2026-04-30T13:22:32.75Z</time></trkpt><trkpt lat="40.1321033" lon="8.639695"><ele>483.0</ele><time>2026-04-30T13:22:33.749Z</time></trkpt><trkpt lat="40.1321417" lon="8.639525"><ele>485.0</ele><time>2026-04-30T13:22:34.748Z</time></trkpt><trkpt lat="40.13218" lon="8.6393533"><ele>484.25</ele><time>2026-04-30T13:22:35.749Z</time></trkpt><trkpt lat="40.1322217" lon="8.6391817"><ele>483.5</ele><time>2026-04-30T13:22:36.75Z</time></trkpt><trkpt lat="40.13227" lon="8.6390117"><ele>482.75</ele><time>2026-04-30T13:22:37.75Z</time></trkpt><trkpt lat="40.1323333" lon="8.6388517"><ele>482.0</ele><time>2026-04-30T13:22:38.768Z</time></trkpt><trkpt lat="40.1324" lon="8.638695"><ele>485.25</ele><time>2026-04-30T13:22:39.752Z</time></trkpt><trkpt lat="40.1324767" lon="8.6385383"><ele>488.5</ele><time>2026-04-30T13:22:40.751Z</time></trkpt><trkpt lat="40.1325533" lon="8.6383767"><ele>491.75</ele><time>2026-04-30T13:22:41.747Z</time></trkpt><trkpt lat="40.1326283" lon="8.6382183"><ele>495.0</ele><time>2026-04-30T13:22:42.748Z</time></trkpt><trkpt lat="40.1327067" lon="8.638065"><ele>495.0</ele><time>2026-04-30T13:22:43.751Z</time></trkpt><trkpt lat="40.1327833" lon="8.6379233"><ele>495.0</ele><time>2026-04-30T13:22:44.771Z</time></trkpt><trkpt lat="40.1328617" lon="8.63779"><ele>495.0</ele><time>2026-04-30T13:22:45.751Z</time></trkpt><trkpt lat="40.132945" lon="8.6376617"><ele>495.0</ele><time>2026-04-30T13:22:46.746Z</time></trkpt><trkpt lat="40.133025" lon="8.63753"><ele>496.0</ele><time>2026-04-30T13:22:47.746Z</time></trkpt><trkpt lat="40.1331" lon="8.6373917"><ele>497.0</ele><time>2026-04-30T13:22:48.748Z</time></trkpt><trkpt lat="40.1331583" lon="8.6372517"><ele>498.0</ele><time>2026-04-30T13:22:49.751Z</time></trkpt><trkpt lat="40.1332167" lon="8.6371017"><ele>499.0</ele><time>2026-04-30T13:22:50.771Z</time></trkpt><trkpt lat="40.13327" lon="8.63694"><ele>499.0</ele><time>2026-04-30T13:22:51.748Z</time></trkpt><trkpt lat="40.133325" lon="8.636785"><ele>499.0</ele><time>2026-04-30T13:22:52.75Z</time></trkpt><trkpt lat="40.133385" lon="8.636635"><ele>499.0</ele><time>2026-04-30T13:22:53.749Z</time></trkpt><trkpt lat="40.1334583" lon="8.636495"><ele>499.0</ele><time>2026-04-30T13:22:54.753Z</time></trkpt><trkpt lat="40.133535" lon="8.6363567"><ele>499.0</ele><time>2026-04-30T13:22:55.747Z</time></trkpt><trkpt lat="40.13362" lon="8.6362233"><ele>499.0</ele><time>2026-04-30T13:22:56.767Z</time></trkpt><trkpt lat="40.1337083" lon="8.63609"><ele>499.0</ele><time>2026-04-30T13:22:57.75Z</time></trkpt><trkpt lat="40.1337967" lon="8.635955"><ele>499.0</ele><time>2026-04-30T13:22:58.743Z</time></trkpt><trkpt lat="40.1338833" lon="8.6358183"><ele>500.75</ele><time>2026-04-30T13:22:59.748Z</time></trkpt><trkpt lat="40.1339767" lon="8.6356933"><ele>502.5</ele><time>2026-04-30T13:23:00.746Z</time></trkpt><trkpt lat="40.1340833" lon="8.635585"><ele>504.25</ele><time>2026-04-30T13:23:01.745Z</time></trkpt><trkpt lat="40.1342" lon="8.6354933"><ele>506.0</ele><time>2026-04-30T13:23:02.765Z</time></trkpt><trkpt lat="40.1343233" lon="8.63541"><ele>506.0</ele><time>2026-04-30T13:23:03.748Z</time></trkpt><trkpt lat="40.13445" lon="8.635335"><ele>506.0</ele><time>2026-04-30T13:23:04.748Z</time></trkpt><trkpt lat="40.1345733" lon="8.6352567"><ele>506.0</ele><time>2026-04-30T13:23:05.747Z</time></trkpt><trkpt lat="40.134695" lon="8.6351633"><ele>506.0</ele><time>2026-04-30T13:23:06.749Z</time></trkpt><trkpt lat="40.1348117" lon="8.6350567"><ele>508.5</ele><time>2026-04-30T13:23:07.75Z</time></trkpt><trkpt lat="40.134925" lon="8.6349433"><ele>511.0</ele><time>2026-04-30T13:23:08.773Z</time></trkpt><trkpt lat="40.135035" lon="8.6348167"><ele>513.5</ele><time>2026-04-30T13:23:09.747Z</time></trkpt><trkpt lat="40.13514" lon="8.6346783"><ele>516.0</ele><time>2026-04-30T13:23:10.75Z</time></trkpt><trkpt lat="40.1352333" lon="8.6345383"><ele>520.0</ele><time>2026-04-30T13:23:11.751Z</time></trkpt><trkpt lat="40.1353183" lon="8.634395"><ele>524.0</ele><time>2026-04-30T13:23:12.751Z</time></trkpt><trkpt lat="40.1353967" lon="8.6342533"><ele>528.0</ele><time>2026-04-30T13:23:13.75Z</time></trkpt><trkpt lat="40.1354567" lon="8.634095"><ele>532.0</ele><time>2026-04-30T13:23:14.77Z</time></trkpt><trkpt lat="40.1355017" lon="8.63392"><ele>532.0</ele><time>2026-04-30T13:23:15.745Z</time></trkpt><trkpt lat="40.13554" lon="8.6337417"><ele>532.0</ele><time>2026-04-30T13:23:16.747Z</time></trkpt><trkpt lat="40.1355767" lon="8.6335617"><ele>532.0</ele><time>2026-04-30T13:23:17.752Z</time></trkpt><trkpt lat="40.1356117" lon="8.63338"><ele>532.0</ele><time>2026-04-30T13:23:18.747Z</time></trkpt><trkpt lat="40.1356433" lon="8.633195"><ele>536.3333333333334</ele><time>2026-04-30T13:23:19.751Z</time></trkpt><trkpt lat="40.1356783" lon="8.633005"><ele>540.6666666666666</ele><time>2026-04-30T13:23:20.768Z</time></trkpt><trkpt lat="40.1357167" lon="8.6328083"><ele>545.0</ele><time>2026-04-30T13:23:21.746Z</time></trkpt><trkpt lat="40.1357617" lon="8.632615"><ele>545.0</ele><time>2026-04-30T13:23:22.748Z</time></trkpt><trkpt lat="40.1358083" lon="8.6324217"><ele>545.0</ele><time>2026-04-30T13:23:23.746Z</time></trkpt><trkpt lat="40.1358533" lon="8.6322333"><ele>545.0</ele><time>2026-04-30T13:23:24.746Z</time></trkpt><trkpt lat="40.1358933" lon="8.6320533"><ele>545.0</ele><time>2026-04-30T13:23:25.748Z</time></trkpt><trkpt lat="40.1359317" lon="8.6318817"><ele>546.5</ele><time>2026-04-30T13:23:26.746Z</time></trkpt><trkpt lat="40.13596" lon="8.6317133"><ele>548.0</ele><time>2026-04-30T13:23:27.752Z</time></trkpt><trkpt lat="40.1359733" lon="8.6315383"><ele>549.5</ele><time>2026-04-30T13:23:28.749Z</time></trkpt><trkpt lat="40.1359767" lon="8.631365"><ele>551.0</ele><time>2026-04-30T13:23:29.748Z</time></trkpt><trkpt lat="40.135965" lon="8.6311933"><ele>550.25</ele><time>2026-04-30T13:23:30.745Z</time></trkpt><trkpt lat="40.1359333" lon="8.6310183"><ele>549.5</ele><time>2026-04-30T13:23:31.749Z</time></trkpt><trkpt lat="40.13588" lon="8.63085"><ele>548.75</ele><time>2026-04-30T13:23:32.75Z</time></trkpt><trkpt lat="40.1358117" lon="8.6306867"><ele>548.0</ele><time>2026-04-30T13:23:33.745Z</time></trkpt><trkpt lat="40.13572" lon="8.63053"><ele>554.25</ele><time>2026-04-30T13:23:34.751Z</time></trkpt><trkpt lat="40.1356233" lon="8.6303883"><ele>560.5</ele><time>2026-04-30T13:23:35.746Z</time></trkpt><trkpt lat="40.1355467" lon="8.630245"><ele>566.75</ele><time>2026-04-30T13:23:36.745Z</time></trkpt><trkpt lat="40.13549" lon="8.6300933"><ele>573.0</ele><time>2026-04-30T13:23:37.748Z</time></trkpt><trkpt lat="40.13546" lon="8.62993"><ele>573.0</ele><time>2026-04-30T13:23:38.773Z</time></trkpt><trkpt lat="40.135445" lon="8.6297667"><ele>573.0</ele><time>2026-04-30T13:23:39.745Z</time></trkpt><trkpt lat="40.1354417" lon="8.6296033"><ele>573.0</ele><time>2026-04-30T13:23:40.749Z</time></trkpt><trkpt lat="40.1354433" lon="8.6294433"><ele>573.0</ele><time>2026-04-30T13:23:41.751Z</time></trkpt><trkpt lat="40.1354417" lon="8.6292917"><ele>573.0</ele><time>2026-04-30T13:23:42.752Z</time></trkpt><trkpt lat="40.1354233" lon="8.629145"><ele>573.0</ele><time>2026-04-30T13:23:43.746Z</time></trkpt><trkpt lat="40.1353883" lon="8.6290033"><ele>573.0</ele><time>2026-04-30T13:23:44.77Z</time></trkpt><trkpt lat="40.13534" lon="8.6288633"><ele>573.0</ele><time>2026-04-30T13:23:45.748Z</time></trkpt><trkpt lat="40.13528" lon="8.6287267"><ele>573.0</ele><time>2026-04-30T13:23:46.75Z</time></trkpt><trkpt lat="40.1352167" lon="8.6285883"><ele>573.0</ele><time>2026-04-30T13:23:47.747Z</time></trkpt><trkpt lat="40.1351567" lon="8.6284617"><ele>573.0</ele><time>2026-04-30T13:23:48.746Z</time></trkpt><trkpt lat="40.1351" lon="8.628345"><ele>573.0</ele><time>2026-04-30T13:23:49.745Z</time></trkpt><trkpt lat="40.13506" lon="8.628235"><ele>573.0</ele><time>2026-04-30T13:23:50.774Z</time></trkpt><trkpt lat="40.135035" lon="8.6281317"><ele>573.0</ele><time>2026-04-30T13:23:51.747Z</time></trkpt><trkpt lat="40.1350317" lon="8.628045"><ele>573.0</ele><time>2026-04-30T13:23:52.749Z</time></trkpt><trkpt lat="40.1350717" lon="8.6278933"><ele>573.0</ele><time>2026-04-30T13:23:54.751Z</time></trkpt><trkpt lat="40.1351217" lon="8.6278233"><ele>573.0</ele><time>2026-04-30T13:23:55.747Z</time></trkpt><trkpt lat="40.13519" lon="8.6277583"><ele>573.0</ele><time>2026-04-30T13:23:56.768Z</time></trkpt><trkpt lat="40.1352683" lon="8.62771"><ele>573.0</ele><time>2026-04-30T13:23:57.751Z</time></trkpt><trkpt lat="40.1353617" lon="8.6276733"><ele>575.0</ele><time>2026-04-30T13:23:58.751Z</time></trkpt><trkpt lat="40.13547" lon="8.62768"><ele>577.0</ele><time>2026-04-30T13:23:59.752Z</time></trkpt><trkpt lat="40.1355767" lon="8.627685"><ele>579.0</ele><time>2026-04-30T13:24:00.751Z</time></trkpt><trkpt lat="40.13569" lon="8.6276983"><ele>581.0</ele><time>2026-04-30T13:24:01.751Z</time></trkpt><trkpt lat="40.13586" lon="8.6277883"><ele>578.3333333333333</ele><time>2026-04-30T13:24:02.769Z</time></trkpt><trkpt lat="40.13602" lon="8.6278783"><ele>575.6666666666666</ele><time>2026-04-30T13:24:03.744Z</time></trkpt><trkpt lat="40.1361833" lon="8.62797"><ele>573.0</ele><time>2026-04-30T13:24:04.746Z</time></trkpt><trkpt lat="40.136355" lon="8.62808"><ele>573.0</ele><time>2026-04-30T13:24:05.749Z</time></trkpt><trkpt lat="40.1365217" lon="8.628175"><ele>573.0</ele><time>2026-04-30T13:24:06.763Z</time></trkpt><trkpt lat="40.136685" lon="8.628275"><ele>573.0</ele><time>2026-04-30T13:24:07.748Z</time></trkpt><trkpt lat="40.1368417" lon="8.6283633"><ele>571.6666666666666</ele><time>2026-04-30T13:24:08.771Z</time></trkpt><trkpt lat="40.1369917" lon="8.6284483"><ele>570.3333333333333</ele><time>2026-04-30T13:24:09.749Z</time></trkpt><trkpt lat="40.1371367" lon="8.62854"><ele>569.0</ele><time>2026-04-30T13:24:10.749Z</time></trkpt><trkpt lat="40.137275" lon="8.6286467"><ele>575.0</ele><time>2026-04-30T13:24:11.747Z</time></trkpt><trkpt lat="40.137405" lon="8.6287683"><ele>581.0</ele><time>2026-04-30T13:24:12.75Z</time></trkpt><trkpt lat="40.13753" lon="8.6288967"><ele>587.0</ele><time>2026-04-30T13:24:13.748Z</time></trkpt><trkpt lat="40.13765" lon="8.6290383"><ele>587.0</ele><time>2026-04-30T13:24:14.773Z</time></trkpt><trkpt lat="40.1377633" lon="8.6291933"><ele>587.0</ele><time>2026-04-30T13:24:15.751Z</time></trkpt><trkpt lat="40.1378733" lon="8.6293517"><ele>587.0</ele><time>2026-04-30T13:24:16.748Z</time></trkpt><trkpt lat="40.137975" lon="8.6295117"><ele>585.0</ele><time>2026-04-30T13:24:17.751Z</time></trkpt><trkpt lat="40.1380683" lon="8.6296667"><ele>583.0</ele><time>2026-04-30T13:24:18.752Z</time></trkpt><trkpt lat="40.1381583" lon="8.6297833"><ele>581.0</ele><time>2026-04-30T13:24:19.745Z</time></trkpt><trkpt lat="40.13825" lon="8.6298633"><ele>579.0</ele><time>2026-04-30T13:24:20.774Z</time></trkpt><trkpt lat="40.1383333" lon="8.6299333"><ele>582.6</ele><time>2026-04-30T13:24:21.745Z</time></trkpt><trkpt lat="40.1384133" lon="8.62998"><ele>586.2</ele><time>2026-04-30T13:24:22.747Z</time></trkpt><trkpt lat="40.1384833" lon="8.6300117"><ele>589.8000000000001</ele><time>2026-04-30T13:24:23.752Z</time></trkpt><trkpt lat="40.138575" lon="8.62997"><ele>593.4</ele><time>2026-04-30T13:24:25.75Z</time></trkpt><trkpt lat="40.1386233" lon="8.6298733"><ele>597.0</ele><time>2026-04-30T13:24:27.748Z</time></trkpt><trkpt lat="40.1386467" lon="8.6297333"><ele>597.0</ele><time>2026-04-30T13:24:29.753Z</time></trkpt><trkpt lat="40.1386567" lon="8.6295883"><ele>597.0</ele><time>2026-04-30T13:24:31.751Z</time></trkpt><trkpt lat="40.1386333" lon="8.629485"><ele>597.0</ele><time>2026-04-30T13:24:32.763Z</time></trkpt><trkpt lat="40.1385333" lon="8.629235"><ele>597.0</ele><time>2026-04-30T13:24:33.746Z</time></trkpt><trkpt lat="40.1384317" lon="8.6290067"><ele>596.6666666666666</ele><time>2026-04-30T13:24:34.746Z</time></trkpt><trkpt lat="40.1383283" lon="8.628775"><ele>596.3333333333333</ele><time>2026-04-30T13:24:35.746Z</time></trkpt><trkpt lat="40.1382367" lon="8.628555"><ele>596.0</ele><time>2026-04-30T13:24:36.747Z</time></trkpt><trkpt lat="40.138165" lon="8.6283733"><ele>596.0</ele><time>2026-04-30T13:24:37.748Z</time></trkpt><trkpt lat="40.13811" lon="8.6281883"><ele>596.0</ele><time>2026-04-30T13:24:38.772Z</time></trkpt><trkpt lat="40.13804" lon="8.628025"><ele>596.0</ele><time>2026-04-30T13:24:39.749Z</time></trkpt><trkpt lat="40.1379617" lon="8.6278783"><ele>596.0</ele><time>2026-04-30T13:24:40.75Z</time></trkpt><trkpt lat="40.1378683" lon="8.6277317"><ele>601.3333333333333</ele><time>2026-04-30T13:24:41.747Z</time></trkpt><trkpt lat="40.1377733" lon="8.6275867"><ele>606.6666666666666</ele><time>2026-04-30T13:24:42.747Z</time></trkpt><trkpt lat="40.1376733" lon="8.6274333"><ele>612.0</ele><time>2026-04-30T13:24:43.751Z</time></trkpt><trkpt lat="40.1375633" lon="8.6272683"><ele>612.0</ele><time>2026-04-30T13:24:44.772Z</time></trkpt><trkpt lat="40.1374567" lon="8.6271017"><ele>612.0</ele><time>2026-04-30T13:24:45.746Z</time></trkpt><trkpt lat="40.13734" lon="8.6269333"><ele>612.0</ele><time>2026-04-30T13:24:46.746Z</time></trkpt><trkpt lat="40.13724" lon="8.6267633"><ele>611.3333333333334</ele><time>2026-04-30T13:24:47.746Z</time></trkpt><trkpt lat="40.13711" lon="8.6265683"><ele>610.6666666666667</ele><time>2026-04-30T13:24:48.75Z</time></trkpt><trkpt lat="40.13701" lon="8.62638"><ele>610.0</ele><time>2026-04-30T13:24:49.745Z</time></trkpt><trkpt lat="40.13689" lon="8.6261883"><ele>615.3333333333334</ele><time>2026-04-30T13:24:50.77Z</time></trkpt><trkpt lat="40.1367867" lon="8.6259967"><ele>620.6666666666666</ele><time>2026-04-30T13:24:51.753Z</time></trkpt><trkpt lat="40.1366817" lon="8.6258033"><ele>626.0</ele><time>2026-04-30T13:24:52.75Z</time></trkpt><trkpt lat="40.13658" lon="8.6256133"><ele>624.3333333333333</ele><time>2026-04-30T13:24:53.744Z</time></trkpt><trkpt lat="40.1365" lon="8.625395"><ele>622.6666666666666</ele><time>2026-04-30T13:24:54.75Z</time></trkpt><trkpt lat="40.1364217" lon="8.6251717"><ele>621.0</ele><time>2026-04-30T13:24:55.747Z</time></trkpt><trkpt lat="40.1363133" lon="8.6249317"><ele>621.0</ele><time>2026-04-30T13:24:56.802Z</time></trkpt><trkpt lat="40.1362317" lon="8.6247333"><ele>621.0</ele><time>2026-04-30T13:24:57.75Z</time></trkpt><trkpt lat="40.1361567" lon="8.624575"><ele>621.0</ele><time>2026-04-30T13:24:58.753Z</time></trkpt><trkpt lat="40.1360733" lon="8.6244117"><ele>624.25</ele><time>2026-04-30T13:24:59.747Z</time></trkpt><trkpt lat="40.13598" lon="8.6242433"><ele>627.5</ele><time>2026-04-30T13:25:00.746Z</time></trkpt><trkpt lat="40.1358933" lon="8.6241083"><ele>630.75</ele><time>2026-04-30T13:25:01.749Z</time></trkpt><trkpt lat="40.13581" lon="8.623965"><ele>634.0</ele><time>2026-04-30T13:25:02.748Z</time></trkpt><trkpt lat="40.1357517" lon="8.6238383"><ele>633.0</ele><time>2026-04-30T13:25:03.744Z</time></trkpt><trkpt lat="40.1356933" lon="8.6237467"><ele>632.0</ele><time>2026-04-30T13:25:04.75Z</time></trkpt><trkpt lat="40.13569" lon="8.6235483"><ele>631.0</ele><time>2026-04-30T13:25:05.748Z</time></trkpt><trkpt lat="40.13569" lon="8.62336"><ele>630.0</ele><time>2026-04-30T13:25:06.749Z</time></trkpt><trkpt lat="40.13573" lon="8.6231783"><ele>632.5</ele><time>2026-04-30T13:25:07.749Z</time></trkpt><trkpt lat="40.1357733" lon="8.62302"><ele>635.0</ele><time>2026-04-30T13:25:08.771Z</time></trkpt><trkpt lat="40.1358417" lon="8.6228733"><ele>637.5</ele><time>2026-04-30T13:25:09.749Z</time></trkpt><trkpt lat="40.1359067" lon="8.62273"><ele>640.0</ele><time>2026-04-30T13:25:10.752Z</time></trkpt><trkpt lat="40.1359483" lon="8.6225717"><ele>641.75</ele><time>2026-04-30T13:25:11.756Z</time></trkpt><trkpt lat="40.135975" lon="8.622405"><ele>643.5</ele><time>2026-04-30T13:25:12.754Z</time></trkpt><trkpt lat="40.1360083" lon="8.6222383"><ele>645.25</ele><time>2026-04-30T13:25:13.747Z</time></trkpt><trkpt lat="40.1360367" lon="8.6220567"><ele>647.0</ele><time>2026-04-30T13:25:14.776Z</time></trkpt><trkpt lat="40.1360467" lon="8.621875"><ele>650.0</ele><time>2026-04-30T13:25:15.747Z</time></trkpt><trkpt lat="40.1360883" lon="8.6217033"><ele>653.0</ele><time>2026-04-30T13:25:16.749Z</time></trkpt><trkpt lat="40.136115" lon="8.6215283"><ele>656.0</ele><time>2026-04-30T13:25:17.746Z</time></trkpt><trkpt lat="40.1361417" lon="8.6213717"><ele>659.0</ele><time>2026-04-30T13:25:18.75Z</time></trkpt><trkpt lat="40.13616" lon="8.6212083"><ele>660.3333333333333</ele><time>2026-04-30T13:25:19.75Z</time></trkpt><trkpt lat="40.136165" lon="8.621105"><ele>661.6666666666666</ele><time>2026-04-30T13:25:20.772Z</time></trkpt><trkpt lat="40.1361517" lon="8.621015"><ele>663.0</ele><time>2026-04-30T13:25:21.748Z</time></trkpt><trkpt lat="40.1361217" lon="8.6209317"><ele>664.3333333333334</ele><time>2026-04-30T13:25:22.751Z</time></trkpt><trkpt lat="40.1360583" lon="8.6208833"><ele>665.6666666666667</ele><time>2026-04-30T13:25:23.749Z</time></trkpt><trkpt lat="40.1359933" lon="8.6208283"><ele>667.0</ele><time>2026-04-30T13:25:24.753Z</time></trkpt><trkpt lat="40.1358983" lon="8.6208233"><ele>667.0</ele><time>2026-04-30T13:25:25.763Z</time></trkpt><trkpt lat="40.135805" lon="8.6208217"><ele>667.0</ele><time>2026-04-30T13:25:26.764Z</time></trkpt><trkpt lat="40.135675" lon="8.6209617"><ele>667.0</ele><time>2026-04-30T13:25:27.752Z</time></trkpt><trkpt lat="40.135545" lon="8.621055"><ele>667.0</ele><time>2026-04-30T13:25:28.751Z</time></trkpt><trkpt lat="40.1354183" lon="8.6211467"><ele>668.0</ele><time>2026-04-30T13:25:29.753Z</time></trkpt><trkpt lat="40.1353" lon="8.6212083"><ele>669.0</ele><time>2026-04-30T13:25:30.754Z</time></trkpt><trkpt lat="40.135185" lon="8.62129"><ele>670.0</ele><time>2026-04-30T13:25:31.751Z</time></trkpt><trkpt lat="40.13508" lon="8.621375"><ele>671.0</ele><time>2026-04-30T13:25:32.772Z</time></trkpt><trkpt lat="40.1349767" lon="8.6214683"><ele>670.1999999999999</ele><time>2026-04-30T13:25:33.75Z</time></trkpt><trkpt lat="40.1348817" lon="8.6215517"><ele>669.4</ele><time>2026-04-30T13:25:34.755Z</time></trkpt><trkpt lat="40.134805" lon="8.621665"><ele>668.6</ele><time>2026-04-30T13:25:35.747Z</time></trkpt><trkpt lat="40.1347167" lon="8.621735"><ele>667.8</ele><time>2026-04-30T13:25:36.758Z</time></trkpt><trkpt lat="40.1346633" lon="8.6217833"><ele>667.0</ele><time>2026-04-30T13:25:37.749Z</time></trkpt><trkpt lat="40.1345833" lon="8.62185"><ele>667.0</ele><time>2026-04-30T13:25:39.752Z</time></trkpt><trkpt lat="40.13449" lon="8.6218183"><ele>667.0</ele><time>2026-04-30T13:25:42.748Z</time></trkpt><trkpt lat="40.134395" lon="8.6217317"><ele>667.0</ele><time>2026-04-30T13:25:44.773Z</time></trkpt><trkpt lat="40.1343533" lon="8.6216583"><ele>667.0</ele><time>2026-04-30T13:25:45.749Z</time></trkpt><trkpt lat="40.13431" lon="8.62156"><ele>667.0</ele><time>2026-04-30T13:25:46.748Z</time></trkpt><trkpt lat="40.134265" lon="8.62143"><ele>667.0</ele><time>2026-04-30T13:25:47.746Z</time></trkpt><trkpt lat="40.1342117" lon="8.62129"><ele>667.0</ele><time>2026-04-30T13:25:48.751Z</time></trkpt><trkpt lat="40.13415" lon="8.6211467"><ele>667.0</ele><time>2026-04-30T13:25:49.748Z</time></trkpt><trkpt lat="40.1340833" lon="8.6209917"><ele>667.0</ele><time>2026-04-30T13:25:50.772Z</time></trkpt><trkpt lat="40.13401" lon="8.6208033"><ele>672.0</ele><time>2026-04-30T13:25:51.748Z</time></trkpt><trkpt lat="40.133935" lon="8.6206317"><ele>677.0</ele><time>2026-04-30T13:25:52.75Z</time></trkpt><trkpt lat="40.1338517" lon="8.620475"><ele>682.0</ele><time>2026-04-30T13:25:53.75Z</time></trkpt><trkpt lat="40.1337783" lon="8.6203317"><ele>687.0</ele><time>2026-04-30T13:25:54.747Z</time></trkpt><trkpt lat="40.1337117" lon="8.6202267"><ele>689.1666666666666</ele><time>2026-04-30T13:25:55.751Z</time></trkpt><trkpt lat="40.1336383" lon="8.6201517"><ele>691.3333333333334</ele><time>2026-04-30T13:25:56.75Z</time></trkpt><trkpt lat="40.1335683" lon="8.6200917"><ele>693.5</ele><time>2026-04-30T13:25:57.748Z</time></trkpt><trkpt lat="40.1334883" lon="8.6200767"><ele>695.6666666666667</ele><time>2026-04-30T13:25:58.75Z</time></trkpt><trkpt lat="40.1334017" lon="8.6200817"><ele>697.8333333333334</ele><time>2026-04-30T13:25:59.749Z</time></trkpt><trkpt lat="40.133315" lon="8.6200917"><ele>700.0</ele><time>2026-04-30T13:26:00.751Z</time></trkpt><trkpt lat="40.1332267" lon="8.620125"><ele>702.1666666666667</ele><time>2026-04-30T13:26:01.747Z</time></trkpt><trkpt lat="40.1331567" lon="8.6201717"><ele>704.3333333333334</ele><time>2026-04-30T13:26:02.748Z</time></trkpt><trkpt lat="40.133085" lon="8.620215"><ele>706.5</ele><time>2026-04-30T13:26:03.751Z</time></trkpt><trkpt lat="40.1330167" lon="8.62027"><ele>708.6666666666666</ele><time>2026-04-30T13:26:04.752Z</time></trkpt><trkpt lat="40.13295" lon="8.6203583"><ele>710.8333333333333</ele><time>2026-04-30T13:26:05.751Z</time></trkpt><trkpt lat="40.132865" lon="8.6204617"><ele>713.0</ele><time>2026-04-30T13:26:06.747Z</time></trkpt><trkpt lat="40.1328017" lon="8.62061"><ele>713.0</ele><time>2026-04-30T13:26:07.752Z</time></trkpt><trkpt lat="40.13276" lon="8.62076"><ele>713.0</ele><time>2026-04-30T13:26:08.773Z</time></trkpt><trkpt lat="40.1327" lon="8.620905"><ele>713.0</ele><time>2026-04-30T13:26:09.747Z</time></trkpt><trkpt lat="40.13266" lon="8.6210083"><ele>713.0</ele><time>2026-04-30T13:26:10.753Z</time></trkpt><trkpt lat="40.1326183" lon="8.6211117"><ele>713.0</ele><time>2026-04-30T13:26:11.75Z</time></trkpt><trkpt lat="40.1325633" lon="8.6211617"><ele>713.0</ele><time>2026-04-30T13:26:13.752Z</time></trkpt><trkpt lat="40.1324917" lon="8.6212283"><ele>713.0</ele><time>2026-04-30T13:26:15.749Z</time></trkpt><trkpt lat="40.13246" lon="8.621155"><ele>713.0</ele><time>2026-04-30T13:26:17.752Z</time></trkpt><trkpt lat="40.132485" lon="8.6210033"><ele>713.0</ele><time>2026-04-30T13:26:18.749Z</time></trkpt><trkpt lat="40.13248" lon="8.6208817"><ele>713.0</ele><time>2026-04-30T13:26:19.746Z</time></trkpt><trkpt lat="40.1324633" lon="8.62075"><ele>713.0</ele><time>2026-04-30T13:26:20.773Z</time></trkpt><trkpt lat="40.1324383" lon="8.6206167"><ele>713.0</ele><time>2026-04-30T13:26:21.747Z</time></trkpt><trkpt lat="40.1324067" lon="8.620475"><ele>713.0</ele><time>2026-04-30T13:26:22.746Z</time></trkpt><trkpt lat="40.1323767" lon="8.62032"><ele>713.0</ele><time>2026-04-30T13:26:23.749Z</time></trkpt><trkpt lat="40.1323583" lon="8.6201683"><ele>714.5</ele><time>2026-04-30T13:26:24.748Z</time></trkpt><trkpt lat="40.1323633" lon="8.62002"><ele>716.0</ele><time>2026-04-30T13:26:25.752Z</time></trkpt><trkpt lat="40.13238" lon="8.6198633"><ele>717.5</ele><time>2026-04-30T13:26:26.765Z</time></trkpt><trkpt lat="40.1324033" lon="8.6197"><ele>719.0</ele><time>2026-04-30T13:26:27.748Z</time></trkpt><trkpt lat="40.132435" lon="8.6195283"><ele>722.25</ele><time>2026-04-30T13:26:28.749Z</time></trkpt><trkpt lat="40.1324617" lon="8.619355"><ele>725.5</ele><time>2026-04-30T13:26:29.751Z</time></trkpt><trkpt lat="40.1324817" lon="8.6191667"><ele>728.75</ele><time>2026-04-30T13:26:30.753Z</time></trkpt><trkpt lat="40.1325033" lon="8.618985"><ele>732.0</ele><time>2026-04-30T13:26:31.75Z</time></trkpt><trkpt lat="40.1325233" lon="8.6188233"><ele>732.0</ele><time>2026-04-30T13:26:32.765Z</time></trkpt><trkpt lat="40.1325433" lon="8.6186767"><ele>732.0</ele><time>2026-04-30T13:26:33.746Z</time></trkpt><trkpt lat="40.13257" lon="8.6185467"><ele>732.0</ele><time>2026-04-30T13:26:34.746Z</time></trkpt><trkpt lat="40.1326133" lon="8.61843"><ele>732.0</ele><time>2026-04-30T13:26:35.746Z</time></trkpt><trkpt lat="40.1326733" lon="8.618335"><ele>732.0</ele><time>2026-04-30T13:26:36.747Z</time></trkpt><trkpt lat="40.1327517" lon="8.6182583"><ele>734.0</ele><time>2026-04-30T13:26:37.754Z</time></trkpt><trkpt lat="40.1328383" lon="8.6182033"><ele>736.0</ele><time>2026-04-30T13:26:38.77Z</time></trkpt><trkpt lat="40.132935" lon="8.6181733"><ele>738.0</ele><time>2026-04-30T13:26:39.748Z</time></trkpt><trkpt lat="40.1330417" lon="8.6181683"><ele>740.0</ele><time>2026-04-30T13:26:40.75Z</time></trkpt><trkpt lat="40.13318" lon="8.6181967"><ele>742.0</ele><time>2026-04-30T13:26:41.751Z</time></trkpt><trkpt lat="40.1333267" lon="8.6182617"><ele>742.0</ele><time>2026-04-30T13:26:42.75Z</time></trkpt><trkpt lat="40.1334783" lon="8.6183333"><ele>742.0</ele><time>2026-04-30T13:26:43.747Z</time></trkpt><trkpt lat="40.1336183" lon="8.6184133"><ele>742.0</ele><time>2026-04-30T13:26:44.769Z</time></trkpt><trkpt lat="40.1337583" lon="8.6185417"><ele>742.0</ele><time>2026-04-30T13:26:45.746Z</time></trkpt><trkpt lat="40.1338833" lon="8.6186467"><ele>742.0</ele><time>2026-04-30T13:26:46.746Z</time></trkpt><trkpt lat="40.1339983" lon="8.6187083"><ele>742.0</ele><time>2026-04-30T13:26:47.745Z</time></trkpt><trkpt lat="40.1341083" lon="8.6187583"><ele>742.0</ele><time>2026-04-30T13:26:48.747Z</time></trkpt><trkpt lat="40.1342133" lon="8.618785"><ele>743.6</ele><time>2026-04-30T13:26:49.745Z</time></trkpt><trkpt lat="40.1343133" lon="8.6187817"><ele>745.2</ele><time>2026-04-30T13:26:50.775Z</time></trkpt><trkpt lat="40.1344083" lon="8.6187817"><ele>746.8</ele><time>2026-04-30T13:26:51.747Z</time></trkpt><trkpt lat="40.13451" lon="8.6187433"><ele>748.4</ele><time>2026-04-30T13:26:52.75Z</time></trkpt><trkpt lat="40.1346117" lon="8.6186617"><ele>750.0</ele><time>2026-04-30T13:26:53.749Z</time></trkpt><trkpt lat="40.1347333" lon="8.6185883"><ele>750.0</ele><time>2026-04-30T13:26:54.749Z</time></trkpt><trkpt lat="40.1348183" lon="8.6184933"><ele>750.0</ele><time>2026-04-30T13:26:55.748Z</time></trkpt><trkpt lat="40.1348733" lon="8.6184233"><ele>750.0</ele><time>2026-04-30T13:26:56.748Z</time></trkpt><trkpt lat="40.1349117" lon="8.6183483"><ele>750.0</ele><time>2026-04-30T13:26:57.75Z</time></trkpt><trkpt lat="40.134945" lon="8.618205"><ele>750.0</ele><time>2026-04-30T13:26:59.745Z</time></trkpt><trkpt lat="40.13489" lon="8.6180983"><ele>750.0</ele><time>2026-04-30T13:27:01.747Z</time></trkpt><trkpt lat="40.1348333" lon="8.6180383"><ele>750.0</ele><time>2026-04-30T13:27:02.765Z</time></trkpt><trkpt lat="40.134705" lon="8.6180167"><ele>750.0</ele><time>2026-04-30T13:27:04.75Z</time></trkpt><trkpt lat="40.13464" lon="8.6180167"><ele>750.0</ele><time>2026-04-30T13:27:05.746Z</time></trkpt><trkpt lat="40.1345233" lon="8.6180883"><ele>750.0</ele><time>2026-04-30T13:27:06.751Z</time></trkpt><trkpt lat="40.1344183" lon="8.6181283"><ele>750.0</ele><time>2026-04-30T13:27:07.749Z</time></trkpt><trkpt lat="40.1343217" lon="8.6181417"><ele>750.0</ele><time>2026-04-30T13:27:08.77Z</time></trkpt><trkpt lat="40.13422" lon="8.6181283"><ele>750.0</ele><time>2026-04-30T13:27:09.767Z</time></trkpt><trkpt lat="40.13413" lon="8.6181083"><ele>750.0</ele><time>2026-04-30T13:27:10.75Z</time></trkpt><trkpt lat="40.13404" lon="8.6180583"><ele>750.0</ele><time>2026-04-30T13:27:11.745Z</time></trkpt><trkpt lat="40.133955" lon="8.6179883"><ele>748.0</ele><time>2026-04-30T13:27:12.752Z</time></trkpt><trkpt lat="40.1338567" lon="8.6179117"><ele>746.0</ele><time>2026-04-30T13:27:13.748Z</time></trkpt><trkpt lat="40.1337533" lon="8.6178167"><ele>744.0</ele><time>2026-04-30T13:27:14.77Z</time></trkpt><trkpt lat="40.1336517" lon="8.61771"><ele>742.0</ele><time>2026-04-30T13:27:15.746Z</time></trkpt><trkpt lat="40.133545" lon="8.6175983"><ele>748.75</ele><time>2026-04-30T13:27:16.75Z</time></trkpt><trkpt lat="40.1334367" lon="8.617485"><ele>755.5</ele><time>2026-04-30T13:27:17.749Z</time></trkpt><trkpt lat="40.1333067" lon="8.6173683"><ele>762.25</ele><time>2026-04-30T13:27:18.748Z</time></trkpt><trkpt lat="40.1331833" lon="8.6172633"><ele>769.0</ele><time>2026-04-30T13:27:19.749Z</time></trkpt><trkpt lat="40.133085" lon="8.6171983"><ele>770.0</ele><time>2026-04-30T13:27:20.769Z</time></trkpt><trkpt lat="40.1329783" lon="8.617155"><ele>771.0</ele><time>2026-04-30T13:27:21.747Z</time></trkpt><trkpt lat="40.1328867" lon="8.6171217"><ele>772.0</ele><time>2026-04-30T13:27:22.75Z</time></trkpt><trkpt lat="40.1327967" lon="8.6170967"><ele>773.0</ele><time>2026-04-30T13:27:23.75Z</time></trkpt><trkpt lat="40.1327017" lon="8.6171133"><ele>774.0</ele><time>2026-04-30T13:27:24.751Z</time></trkpt><trkpt lat="40.1326" lon="8.6171433"><ele>774.0</ele><time>2026-04-30T13:27:25.747Z</time></trkpt><trkpt lat="40.13251" lon="8.6172167"><ele>774.0</ele><time>2026-04-30T13:27:26.802Z</time></trkpt><trkpt lat="40.1324083" lon="8.6172717"><ele>774.0</ele><time>2026-04-30T13:27:27.746Z</time></trkpt><trkpt lat="40.1322917" lon="8.6172817"><ele>774.0</ele><time>2026-04-30T13:27:28.747Z</time></trkpt><trkpt lat="40.1321733" lon="8.617285"><ele>778.2</ele><time>2026-04-30T13:27:29.751Z</time></trkpt><trkpt lat="40.1320633" lon="8.6173233"><ele>782.4000000000001</ele><time>2026-04-30T13:27:30.75Z</time></trkpt><trkpt lat="40.13195" lon="8.617355"><ele>786.6</ele><time>2026-04-30T13:27:31.75Z</time></trkpt><trkpt lat="40.131865" lon="8.6173883"><ele>790.8</ele><time>2026-04-30T13:27:32.75Z</time></trkpt><trkpt lat="40.1317733" lon="8.6174517"><ele>795.0</ele><time>2026-04-30T13:27:33.748Z</time></trkpt><trkpt lat="40.131695" lon="8.617535"><ele>795.0</ele><time>2026-04-30T13:27:34.746Z</time></trkpt><trkpt lat="40.1316133" lon="8.6176467"><ele>795.0</ele><time>2026-04-30T13:27:35.75Z</time></trkpt><trkpt lat="40.1315217" lon="8.6177683"><ele>795.0</ele><time>2026-04-30T13:27:36.749Z</time></trkpt><trkpt lat="40.1314333" lon="8.6179117"><ele>795.0</ele><time>2026-04-30T13:27:37.746Z</time></trkpt><trkpt lat="40.1313917" lon="8.6181967"><ele>799.3333333333333</ele><time>2026-04-30T13:27:38.774Z</time></trkpt><trkpt lat="40.1313417" lon="8.618405"><ele>803.6666666666666</ele><time>2026-04-30T13:27:39.746Z</time></trkpt><trkpt lat="40.131295" lon="8.61864"><ele>808.0</ele><time>2026-04-30T13:27:40.747Z</time></trkpt><trkpt lat="40.1312483" lon="8.61889"><ele>808.0</ele><time>2026-04-30T13:27:41.746Z</time></trkpt><trkpt lat="40.1311983" lon="8.619105"><ele>808.0</ele><time>2026-04-30T13:27:42.749Z</time></trkpt><trkpt lat="40.1311433" lon="8.61932"><ele>808.0</ele><time>2026-04-30T13:27:43.75Z</time></trkpt><trkpt lat="40.1310717" lon="8.619525"><ele>800.6666666666666</ele><time>2026-04-30T13:27:44.775Z</time></trkpt><trkpt lat="40.1309917" lon="8.6197283"><ele>793.3333333333333</ele><time>2026-04-30T13:27:45.75Z</time></trkpt><trkpt lat="40.1309133" lon="8.6199217"><ele>786.0</ele><time>2026-04-30T13:27:46.747Z</time></trkpt><trkpt lat="40.130835" lon="8.6200967"><ele>786.0</ele><time>2026-04-30T13:27:47.749Z</time></trkpt><trkpt lat="40.1307617" lon="8.620255"><ele>786.0</ele><time>2026-04-30T13:27:48.749Z</time></trkpt><trkpt lat="40.1306783" lon="8.62039"><ele>786.0</ele><time>2026-04-30T13:27:49.747Z</time></trkpt><trkpt lat="40.1305833" lon="8.6205"><ele>786.0</ele><time>2026-04-30T13:27:50.772Z</time></trkpt><trkpt lat="40.1304867" lon="8.6206083"><ele>787.75</ele><time>2026-04-30T13:27:51.749Z</time></trkpt><trkpt lat="40.13038" lon="8.6207083"><ele>789.5</ele><time>2026-04-30T13:27:52.747Z</time></trkpt><trkpt lat="40.1302633" lon="8.6208083"><ele>791.25</ele><time>2026-04-30T13:27:53.747Z</time></trkpt><trkpt lat="40.1301383" lon="8.6209"><ele>793.0</ele><time>2026-04-30T13:27:54.751Z</time></trkpt><trkpt lat="40.13001" lon="8.6209967"><ele>792.0</ele><time>2026-04-30T13:27:55.746Z</time></trkpt><trkpt lat="40.12987" lon="8.6210917"><ele>791.0</ele><time>2026-04-30T13:27:56.799Z</time></trkpt><trkpt lat="40.129725" lon="8.6211833"><ele>790.0</ele><time>2026-04-30T13:27:57.744Z</time></trkpt><trkpt lat="40.1295833" lon="8.621275"><ele>790.0</ele><time>2026-04-30T13:27:58.75Z</time></trkpt><trkpt lat="40.12945" lon="8.6213633"><ele>790.0</ele><time>2026-04-30T13:27:59.746Z</time></trkpt><trkpt lat="40.1293283" lon="8.6214417"><ele>790.0</ele><time>2026-04-30T13:28:00.746Z</time></trkpt><trkpt lat="40.12922" lon="8.6215017"><ele>790.0</ele><time>2026-04-30T13:28:01.75Z</time></trkpt><trkpt lat="40.1291167" lon="8.6215383"><ele>790.1666666666666</ele><time>2026-04-30T13:28:02.748Z</time></trkpt><trkpt lat="40.129015" lon="8.6215483"><ele>790.3333333333333</ele><time>2026-04-30T13:28:03.751Z</time></trkpt><trkpt lat="40.1289217" lon="8.6215533"><ele>790.5</ele><time>2026-04-30T13:28:04.746Z</time></trkpt><trkpt lat="40.12886" lon="8.6215033"><ele>790.6666666666667</ele><time>2026-04-30T13:28:05.745Z</time></trkpt><trkpt lat="40.128805" lon="8.6214533"><ele>790.8333333333334</ele><time>2026-04-30T13:28:06.748Z</time></trkpt><trkpt lat="40.1287667" lon="8.6213167"><ele>791.0</ele><time>2026-04-30T13:28:08.773Z</time></trkpt><trkpt lat="40.1288133" lon="8.6211617"><ele>791.25</ele><time>2026-04-30T13:28:10.749Z</time></trkpt><trkpt lat="40.1288733" lon="8.6210617"><ele>791.5</ele><time>2026-04-30T13:28:11.75Z</time></trkpt><trkpt lat="40.1289467" lon="8.620955"><ele>791.75</ele><time>2026-04-30T13:28:12.749Z</time></trkpt><trkpt lat="40.12903" lon="8.620845"><ele>792.0</ele><time>2026-04-30T13:28:13.752Z</time></trkpt><trkpt lat="40.129135" lon="8.6206967"><ele>796.0</ele><time>2026-04-30T13:28:14.771Z</time></trkpt><trkpt lat="40.1292317" lon="8.62056"><ele>800.0</ele><time>2026-04-30T13:28:15.748Z</time></trkpt><trkpt lat="40.1293367" lon="8.6204083"><ele>804.0</ele><time>2026-04-30T13:28:16.744Z</time></trkpt><trkpt lat="40.129435" lon="8.6202517"><ele>804.6666666666667</ele><time>2026-04-30T13:28:17.748Z</time></trkpt><trkpt lat="40.1295267" lon="8.6200933"><ele>805.3333333333334</ele><time>2026-04-30T13:28:18.75Z</time></trkpt><trkpt lat="40.1296183" lon="8.619925"><ele>806.0</ele><time>2026-04-30T13:28:19.748Z</time></trkpt><trkpt lat="40.1297117" lon="8.61976"><ele>806.0</ele><time>2026-04-30T13:28:20.774Z</time></trkpt><trkpt lat="40.1298017" lon="8.6195817"><ele>806.0</ele><time>2026-04-30T13:28:21.747Z</time></trkpt><trkpt lat="40.1298867" lon="8.6193983"><ele>806.0</ele><time>2026-04-30T13:28:22.748Z</time></trkpt><trkpt lat="40.1299583" lon="8.6192017"><ele>810.6666666666667</ele><time>2026-04-30T13:28:23.745Z</time></trkpt><trkpt lat="40.13002" lon="8.619005"><ele>815.3333333333333</ele><time>2026-04-30T13:28:24.749Z</time></trkpt><trkpt lat="40.1300683" lon="8.6187933"><ele>820.0</ele><time>2026-04-30T13:28:25.748Z</time></trkpt><trkpt lat="40.130115" lon="8.618575"><ele>821.6666666666666</ele><time>2026-04-30T13:28:26.75Z</time></trkpt><trkpt lat="40.1301683" lon="8.6183567"><ele>823.3333333333333</ele><time>2026-04-30T13:28:27.752Z</time></trkpt><trkpt lat="40.13023" lon="8.6181433"><ele>825.0</ele><time>2026-04-30T13:28:28.746Z</time></trkpt><trkpt lat="40.130295" lon="8.6179333"><ele>826.0</ele><time>2026-04-30T13:28:29.744Z</time></trkpt><trkpt lat="40.1303633" lon="8.6177333"><ele>827.0</ele><time>2026-04-30T13:28:30.745Z</time></trkpt><trkpt lat="40.1304417" lon="8.6175417"><ele>828.0</ele><time>2026-04-30T13:28:31.748Z</time></trkpt><trkpt lat="40.1305167" lon="8.6173633"><ele>828.0</ele><time>2026-04-30T13:28:32.745Z</time></trkpt><trkpt lat="40.1305817" lon="8.6172"><ele>828.0</ele><time>2026-04-30T13:28:33.748Z</time></trkpt><trkpt lat="40.13065" lon="8.6170483"><ele>828.0</ele><time>2026-04-30T13:28:34.748Z</time></trkpt><trkpt lat="40.1307133" lon="8.6169133"><ele>828.0</ele><time>2026-04-30T13:28:35.743Z</time></trkpt><trkpt lat="40.1307717" lon="8.6167867"><ele>831.5</ele><time>2026-04-30T13:28:36.744Z</time></trkpt><trkpt lat="40.1308317" lon="8.6166517"><ele>835.0</ele><time>2026-04-30T13:28:37.744Z</time></trkpt><trkpt lat="40.13089" lon="8.616515"><ele>838.5</ele><time>2026-04-30T13:28:38.769Z</time></trkpt><trkpt lat="40.1309367" lon="8.616375"><ele>842.0</ele><time>2026-04-30T13:28:39.748Z</time></trkpt><trkpt lat="40.1309783" lon="8.6162467"><ele>843.6</ele><time>2026-04-30T13:28:40.746Z</time></trkpt><trkpt lat="40.1310217" lon="8.6161117"><ele>845.2</ele><time>2026-04-30T13:28:41.748Z</time></trkpt><trkpt lat="40.131045" lon="8.6159733"><ele>846.8</ele><time>2026-04-30T13:28:42.747Z</time></trkpt><trkpt lat="40.1310633" lon="8.6158333"><ele>848.4</ele><time>2026-04-30T13:28:43.747Z</time></trkpt><trkpt lat="40.1310767" lon="8.6156917"><ele>850.0</ele><time>2026-04-30T13:28:44.768Z</time></trkpt><trkpt lat="40.1310783" lon="8.6155433"><ele>850.0</ele><time>2026-04-30T13:28:45.744Z</time></trkpt><trkpt lat="40.1310583" lon="8.61539"><ele>850.0</ele><time>2026-04-30T13:28:46.747Z</time></trkpt><trkpt lat="40.1310267" lon="8.615235"><ele>850.0</ele><time>2026-04-30T13:28:47.745Z</time></trkpt><trkpt lat="40.13099" lon="8.6150783"><ele>850.0</ele><time>2026-04-30T13:28:48.746Z</time></trkpt><trkpt lat="40.13094" lon="8.6149283"><ele>851.75</ele><time>2026-04-30T13:28:49.745Z</time></trkpt><trkpt lat="40.1308767" lon="8.6147817"><ele>853.5</ele><time>2026-04-30T13:28:50.769Z</time></trkpt><trkpt lat="40.1308133" lon="8.6146433"><ele>855.25</ele><time>2026-04-30T13:28:51.746Z</time></trkpt><trkpt lat="40.13072" lon="8.6145183"><ele>857.0</ele><time>2026-04-30T13:28:52.749Z</time></trkpt><trkpt lat="40.1306133" lon="8.614405"><ele>864.3333333333334</ele><time>2026-04-30T13:28:53.748Z</time></trkpt><trkpt lat="40.1304833" lon="8.6142983"><ele>871.6666666666667</ele><time>2026-04-30T13:28:54.746Z</time></trkpt><trkpt lat="40.1303567" lon="8.6141883"><ele>879.0</ele><time>2026-04-30T13:28:55.747Z</time></trkpt><trkpt lat="40.1302017" lon="8.61411"><ele>879.0</ele><time>2026-04-30T13:28:56.802Z</time></trkpt><trkpt lat="40.1300417" lon="8.6140517"><ele>879.0</ele><time>2026-04-30T13:28:57.744Z</time></trkpt><trkpt lat="40.1298783" lon="8.6140017"><ele>879.0</ele><time>2026-04-30T13:28:58.745Z</time></trkpt><trkpt lat="40.1297117" lon="8.613955"><ele>878.3333333333333</ele><time>2026-04-30T13:28:59.748Z</time></trkpt><trkpt lat="40.12954" lon="8.61392"><ele>877.6666666666666</ele><time>2026-04-30T13:29:00.744Z</time></trkpt><trkpt lat="40.1293733" lon="8.6138883"><ele>877.0</ele><time>2026-04-30T13:29:01.746Z</time></trkpt><trkpt lat="40.1292183" lon="8.6138567"><ele>877.0</ele><time>2026-04-30T13:29:02.744Z</time></trkpt><trkpt lat="40.129065" lon="8.6138183"><ele>877.0</ele><time>2026-04-30T13:29:03.744Z</time></trkpt><trkpt lat="40.128915" lon="8.6137683"><ele>877.0</ele><time>2026-04-30T13:29:04.746Z</time></trkpt><trkpt lat="40.1287783" lon="8.61368"><ele>881.0</ele><time>2026-04-30T13:29:05.75Z</time></trkpt><trkpt lat="40.1286517" lon="8.61358"><ele>885.0</ele><time>2026-04-30T13:29:06.744Z</time></trkpt><trkpt lat="40.1285267" lon="8.6134767"><ele>889.0</ele><time>2026-04-30T13:29:07.748Z</time></trkpt><trkpt lat="40.1283967" lon="8.613385"><ele>893.0</ele><time>2026-04-30T13:29:08.77Z</time></trkpt><trkpt lat="40.1282683" lon="8.613285"><ele>890.75</ele><time>2026-04-30T13:29:09.743Z</time></trkpt><trkpt lat="40.1281333" lon="8.6131867"><ele>888.5</ele><time>2026-04-30T13:29:10.748Z</time></trkpt><trkpt lat="40.1280067" lon="8.6130933"><ele>886.25</ele><time>2026-04-30T13:29:11.749Z</time></trkpt><trkpt lat="40.1278883" lon="8.6129967"><ele>884.0</ele><time>2026-04-30T13:29:12.745Z</time></trkpt><trkpt lat="40.127785" lon="8.612895"><ele>888.0</ele><time>2026-04-30T13:29:13.744Z</time></trkpt><trkpt lat="40.1276917" lon="8.6127783"><ele>892.0</ele><time>2026-04-30T13:29:14.772Z</time></trkpt><trkpt lat="40.1276117" lon="8.612645"><ele>896.0</ele><time>2026-04-30T13:29:15.751Z</time></trkpt><trkpt lat="40.12754" lon="8.61251"><ele>900.0</ele><time>2026-04-30T13:29:16.747Z</time></trkpt><trkpt lat="40.1274733" lon="8.6123717"><ele>900.0</ele><time>2026-04-30T13:29:17.747Z</time></trkpt><trkpt lat="40.1274083" lon="8.6122317"><ele>900.0</ele><time>2026-04-30T13:29:18.748Z</time></trkpt><trkpt lat="40.1273467" lon="8.6120917"><ele>900.0</ele><time>2026-04-30T13:29:19.747Z</time></trkpt><trkpt lat="40.12729" lon="8.6119433"><ele>900.0</ele><time>2026-04-30T13:29:20.77Z</time></trkpt><trkpt lat="40.127245" lon="8.6117833"><ele>900.5</ele><time>2026-04-30T13:29:21.744Z</time></trkpt><trkpt lat="40.127205" lon="8.6116067"><ele>901.0</ele><time>2026-04-30T13:29:22.751Z</time></trkpt><trkpt lat="40.1271733" lon="8.6114217"><ele>901.5</ele><time>2026-04-30T13:29:23.748Z</time></trkpt><trkpt lat="40.1271467" lon="8.6112383"><ele>902.0</ele><time>2026-04-30T13:29:24.747Z</time></trkpt><trkpt lat="40.12713" lon="8.6110433"><ele>902.0</ele><time>2026-04-30T13:29:25.747Z</time></trkpt><trkpt lat="40.1271117" lon="8.61085"><ele>902.0</ele><time>2026-04-30T13:29:26.805Z</time></trkpt><trkpt lat="40.12709" lon="8.6106467"><ele>902.0</ele><time>2026-04-30T13:29:27.747Z</time></trkpt><trkpt lat="40.1270667" lon="8.6104383"><ele>902.0</ele><time>2026-04-30T13:29:28.75Z</time></trkpt><trkpt lat="40.1270417" lon="8.6102283"><ele>902.0</ele><time>2026-04-30T13:29:29.749Z</time></trkpt><trkpt lat="40.1270133" lon="8.61002"><ele>902.0</ele><time>2026-04-30T13:29:30.746Z</time></trkpt><trkpt lat="40.126985" lon="8.60981"><ele>902.0</ele><time>2026-04-30T13:29:31.748Z</time></trkpt><trkpt lat="40.1269517" lon="8.60959"><ele>902.0</ele><time>2026-04-30T13:29:32.765Z</time></trkpt><trkpt lat="40.1269167" lon="8.6093717"><ele>902.0</ele><time>2026-04-30T13:29:33.748Z</time></trkpt><trkpt lat="40.1268817" lon="8.6091533"><ele>901.3333333333334</ele><time>2026-04-30T13:29:34.75Z</time></trkpt><trkpt lat="40.1268467" lon="8.60893"><ele>900.6666666666667</ele><time>2026-04-30T13:29:35.748Z</time></trkpt><trkpt lat="40.12681" lon="8.6087067"><ele>900.0</ele><time>2026-04-30T13:29:36.743Z</time></trkpt><trkpt lat="40.126775" lon="8.6084817"><ele>899.0</ele><time>2026-04-30T13:29:37.748Z</time></trkpt><trkpt lat="40.126735" lon="8.6082317"><ele>898.0</ele><time>2026-04-30T13:29:38.772Z</time></trkpt><trkpt lat="40.1267117" lon="8.6080033"><ele>897.0</ele><time>2026-04-30T13:29:39.746Z</time></trkpt><trkpt lat="40.126675" lon="8.6077633"><ele>896.3333333333333</ele><time>2026-04-30T13:29:40.749Z</time></trkpt><trkpt lat="40.1266417" lon="8.607535"><ele>895.6666666666666</ele><time>2026-04-30T13:29:41.75Z</time></trkpt><trkpt lat="40.1266133" lon="8.6073"><ele>895.0</ele><time>2026-04-30T13:29:42.751Z</time></trkpt><trkpt lat="40.12658" lon="8.6070717"><ele>892.0</ele><time>2026-04-30T13:29:43.748Z</time></trkpt><trkpt lat="40.1265283" lon="8.6068267"><ele>889.0</ele><time>2026-04-30T13:29:44.771Z</time></trkpt><trkpt lat="40.1264917" lon="8.6066117"><ele>886.0</ele><time>2026-04-30T13:29:45.744Z</time></trkpt><trkpt lat="40.1264433" lon="8.6064017"><ele>886.0</ele><time>2026-04-30T13:29:46.747Z</time></trkpt><trkpt lat="40.1263983" lon="8.6061717"><ele>886.0</ele><time>2026-04-30T13:29:47.745Z</time></trkpt><trkpt lat="40.1263567" lon="8.605925"><ele>886.0</ele><time>2026-04-30T13:29:48.75Z</time></trkpt><trkpt lat="40.1263167" lon="8.6057067"><ele>886.6666666666666</ele><time>2026-04-30T13:29:49.744Z</time></trkpt><trkpt lat="40.1262717" lon="8.6054817"><ele>887.3333333333333</ele><time>2026-04-30T13:29:50.774Z</time></trkpt><trkpt lat="40.1262383" lon="8.605245"><ele>888.0</ele><time>2026-04-30T13:29:51.744Z</time></trkpt><trkpt lat="40.1262083" lon="8.6050317"><ele>888.0</ele><time>2026-04-30T13:29:52.748Z</time></trkpt><trkpt lat="40.1261867" lon="8.6048067"><ele>888.0</ele><time>2026-04-30T13:29:53.745Z</time></trkpt><trkpt lat="40.1261567" lon="8.6045917"><ele>888.0</ele><time>2026-04-30T13:29:54.744Z</time></trkpt><trkpt lat="40.1261317" lon="8.604365"><ele>888.0</ele><time>2026-04-30T13:29:55.745Z</time></trkpt><trkpt lat="40.1261083" lon="8.6041683"><ele>888.0</ele><time>2026-04-30T13:29:56.803Z</time></trkpt><trkpt lat="40.1260833" lon="8.603965"><ele>888.0</ele><time>2026-04-30T13:29:57.749Z</time></trkpt><trkpt lat="40.1260567" lon="8.6037567"><ele>887.6666666666667</ele><time>2026-04-30T13:29:58.749Z</time></trkpt><trkpt lat="40.1260167" lon="8.6035367"><ele>887.3333333333334</ele><time>2026-04-30T13:29:59.745Z</time></trkpt><trkpt lat="40.1259817" lon="8.6033283"><ele>887.0</ele><time>2026-04-30T13:30:00.745Z</time></trkpt><trkpt lat="40.12596" lon="8.603115"><ele>887.0</ele><time>2026-04-30T13:30:01.747Z</time></trkpt><trkpt lat="40.1259383" lon="8.6029"><ele>887.0</ele><time>2026-04-30T13:30:02.749Z</time></trkpt><trkpt lat="40.1259267" lon="8.6026867"><ele>887.0</ele><time>2026-04-30T13:30:03.746Z</time></trkpt><trkpt lat="40.1259333" lon="8.6024667"><ele>886.3333333333334</ele><time>2026-04-30T13:30:04.748Z</time></trkpt><trkpt lat="40.1259317" lon="8.6022533"><ele>885.6666666666667</ele><time>2026-04-30T13:30:05.748Z</time></trkpt><trkpt lat="40.12593" lon="8.602045"><ele>885.0</ele><time>2026-04-30T13:30:06.75Z</time></trkpt><trkpt lat="40.1259217" lon="8.6018317"><ele>884.75</ele><time>2026-04-30T13:30:07.745Z</time></trkpt><trkpt lat="40.125905" lon="8.6016433"><ele>884.5</ele><time>2026-04-30T13:30:08.778Z</time></trkpt><trkpt lat="40.1258833" lon="8.601445"><ele>884.25</ele><time>2026-04-30T13:30:09.743Z</time></trkpt><trkpt lat="40.1258617" lon="8.601255"><ele>884.0</ele><time>2026-04-30T13:30:10.746Z</time></trkpt><trkpt lat="40.1258283" lon="8.6010633"><ele>883.0</ele><time>2026-04-30T13:30:11.745Z</time></trkpt><trkpt lat="40.1257967" lon="8.60087"><ele>882.0</ele><time>2026-04-30T13:30:12.748Z</time></trkpt><trkpt lat="40.1257583" lon="8.60068"><ele>881.0</ele><time>2026-04-30T13:30:13.749Z</time></trkpt><trkpt lat="40.1257183" lon="8.60049"><ele>878.6666666666667</ele><time>2026-04-30T13:30:14.779Z</time></trkpt><trkpt lat="40.12567" lon="8.60029"><ele>876.3333333333333</ele><time>2026-04-30T13:30:15.749Z</time></trkpt><trkpt lat="40.1256233" lon="8.600085"><ele>874.0</ele><time>2026-04-30T13:30:16.745Z</time></trkpt><trkpt lat="40.1255883" lon="8.599905"><ele>874.0</ele><time>2026-04-30T13:30:17.746Z</time></trkpt><trkpt lat="40.125555" lon="8.5997067"><ele>874.0</ele><time>2026-04-30T13:30:18.745Z</time></trkpt><trkpt lat="40.1255183" lon="8.5995117"><ele>874.0</ele><time>2026-04-30T13:30:19.746Z</time></trkpt><trkpt lat="40.1254783" lon="8.599325"><ele>873.75</ele><time>2026-04-30T13:30:20.777Z</time></trkpt><trkpt lat="40.1254417" lon="8.5991433"><ele>873.5</ele><time>2026-04-30T13:30:21.747Z</time></trkpt><trkpt lat="40.1254083" lon="8.5989683"><ele>873.25</ele><time>2026-04-30T13:30:22.747Z</time></trkpt><trkpt lat="40.1253733" lon="8.5988017"><ele>873.0</ele><time>2026-04-30T13:30:23.745Z</time></trkpt><trkpt lat="40.1253383" lon="8.5986367"><ele>872.25</ele><time>2026-04-30T13:30:24.749Z</time></trkpt><trkpt lat="40.1253017" lon="8.59847"><ele>871.5</ele><time>2026-04-30T13:30:25.747Z</time></trkpt><trkpt lat="40.1252583" lon="8.5983217"><ele>870.75</ele><time>2026-04-30T13:30:26.754Z</time></trkpt><trkpt lat="40.1252133" lon="8.5981583"><ele>870.0</ele><time>2026-04-30T13:30:27.748Z</time></trkpt><trkpt lat="40.12516" lon="8.5980067"><ele>870.0</ele><time>2026-04-30T13:30:28.749Z</time></trkpt><trkpt lat="40.1251067" lon="8.59785"><ele>870.0</ele><time>2026-04-30T13:30:29.747Z</time></trkpt><trkpt lat="40.1250567" lon="8.5977033"><ele>870.0</ele><time>2026-04-30T13:30:30.745Z</time></trkpt><trkpt lat="40.1250083" lon="8.5975633"><ele>870.0</ele><time>2026-04-30T13:30:31.749Z</time></trkpt><trkpt lat="40.1249583" lon="8.59742"><ele>869.4</ele><time>2026-04-30T13:30:32.745Z</time></trkpt><trkpt lat="40.1249117" lon="8.5972933"><ele>868.8</ele><time>2026-04-30T13:30:33.747Z</time></trkpt><trkpt lat="40.1248733" lon="8.59717"><ele>868.2</ele><time>2026-04-30T13:30:34.744Z</time></trkpt><trkpt lat="40.12482" lon="8.59704"><ele>867.6</ele><time>2026-04-30T13:30:35.748Z</time></trkpt><trkpt lat="40.124775" lon="8.596915"><ele>867.0</ele><time>2026-04-30T13:30:36.745Z</time></trkpt><trkpt lat="40.124725" lon="8.5968017"><ele>867.0</ele><time>2026-04-30T13:30:37.745Z</time></trkpt><trkpt lat="40.12468" lon="8.59669"><ele>867.0</ele><time>2026-04-30T13:30:38.775Z</time></trkpt><trkpt lat="40.1246383" lon="8.5965883"><ele>867.0</ele><time>2026-04-30T13:30:39.749Z</time></trkpt><trkpt lat="40.1245883" lon="8.5964933"><ele>867.0</ele><time>2026-04-30T13:30:40.746Z</time></trkpt><trkpt lat="40.1245383" lon="8.5963933"><ele>867.0</ele><time>2026-04-30T13:30:41.744Z</time></trkpt><trkpt lat="40.124495" lon="8.5962967"><ele>867.0</ele><time>2026-04-30T13:30:42.751Z</time></trkpt><trkpt lat="40.1244517" lon="8.5962017"><ele>867.0</ele><time>2026-04-30T13:30:43.748Z</time></trkpt><trkpt lat="40.1244083" lon="8.5961033"><ele>867.0</ele><time>2026-04-30T13:30:44.779Z</time></trkpt><trkpt lat="40.1243667" lon="8.5960033"><ele>867.0</ele><time>2026-04-30T13:30:45.745Z</time></trkpt><trkpt lat="40.1243183" lon="8.5959067"><ele>867.0</ele><time>2026-04-30T13:30:46.75Z</time></trkpt><trkpt lat="40.1242717" lon="8.595815"><ele>867.0</ele><time>2026-04-30T13:30:47.748Z</time></trkpt><trkpt lat="40.1242283" lon="8.5957283"><ele>866.3333333333334</ele><time>2026-04-30T13:30:48.748Z</time></trkpt><trkpt lat="40.1241833" lon="8.59565"><ele>865.6666666666667</ele><time>2026-04-30T13:30:49.748Z</time></trkpt><trkpt lat="40.12414" lon="8.5955733"><ele>865.0</ele><time>2026-04-30T13:30:50.775Z</time></trkpt><trkpt lat="40.12409" lon="8.5954983"><ele>864.3333333333334</ele><time>2026-04-30T13:30:51.743Z</time></trkpt><trkpt lat="40.1240317" lon="8.595425"><ele>863.6666666666667</ele><time>2026-04-30T13:30:52.745Z</time></trkpt><trkpt lat="40.123975" lon="8.5953483"><ele>863.0</ele><time>2026-04-30T13:30:53.748Z</time></trkpt><trkpt lat="40.1239167" lon="8.5952667"><ele>861.5000000000001</ele><time>2026-04-30T13:30:54.748Z</time></trkpt><trkpt lat="40.1238633" lon="8.5951783"><ele>860.0</ele><time>2026-04-30T13:30:55.752Z</time></trkpt><trkpt lat="40.1238233" lon="8.5950833"><ele>858.5</ele><time>2026-04-30T13:30:56.756Z</time></trkpt><trkpt lat="40.1237917" lon="8.5949867"><ele>857.0</ele><time>2026-04-30T13:30:57.743Z</time></trkpt><trkpt lat="40.1237683" lon="8.5948883"><ele>855.5000000000001</ele><time>2026-04-30T13:30:58.749Z</time></trkpt><trkpt lat="40.1237483" lon="8.5947883"><ele>854.0</ele><time>2026-04-30T13:30:59.745Z</time></trkpt><trkpt lat="40.123735" lon="8.5946867"><ele>854.0000000000001</ele><time>2026-04-30T13:31:00.755Z</time></trkpt><trkpt lat="40.123735" lon="8.5945833"><ele>854.0</ele><time>2026-04-30T13:31:01.747Z</time></trkpt><trkpt lat="40.1237633" lon="8.5944867"><ele>854.0</ele><time>2026-04-30T13:31:02.765Z</time></trkpt><trkpt lat="40.1238133" lon="8.5944067"><ele>854.0</ele><time>2026-04-30T13:31:03.747Z</time></trkpt><trkpt lat="40.1238783" lon="8.594345"><ele>854.0000000000001</ele><time>2026-04-30T13:31:04.744Z</time></trkpt><trkpt lat="40.1239567" lon="8.594305"><ele>854.0</ele><time>2026-04-30T13:31:05.746Z</time></trkpt><trkpt lat="40.1240567" lon="8.5942767"><ele>848.75</ele><time>2026-04-30T13:31:06.748Z</time></trkpt><trkpt lat="40.1241483" lon="8.5942683"><ele>843.5</ele><time>2026-04-30T13:31:07.747Z</time></trkpt><trkpt lat="40.12427" lon="8.5942983"><ele>838.25</ele><time>2026-04-30T13:31:08.779Z</time></trkpt><trkpt lat="40.1243933" lon="8.5943267"><ele>833.0</ele><time>2026-04-30T13:31:09.745Z</time></trkpt><trkpt lat="40.1245117" lon="8.594345"><ele>833.0</ele><time>2026-04-30T13:31:10.743Z</time></trkpt><trkpt lat="40.1246317" lon="8.5943617"><ele>833.0</ele><time>2026-04-30T13:31:11.745Z</time></trkpt><trkpt lat="40.1247533" lon="8.5943833"><ele>833.0</ele><time>2026-04-30T13:31:12.748Z</time></trkpt><trkpt lat="40.1248833" lon="8.5944117"><ele>833.0</ele><time>2026-04-30T13:31:13.748Z</time></trkpt><trkpt lat="40.1250167" lon="8.5944433"><ele>834.0</ele><time>2026-04-30T13:31:14.777Z</time></trkpt><trkpt lat="40.1251517" lon="8.5944717"><ele>835.0</ele><time>2026-04-30T13:31:15.746Z</time></trkpt><trkpt lat="40.1253067" lon="8.594525"><ele>836.0</ele><time>2026-04-30T13:31:16.746Z</time></trkpt><trkpt lat="40.1254583" lon="8.59453"><ele>837.0</ele><time>2026-04-30T13:31:17.75Z</time></trkpt><trkpt lat="40.1256133" lon="8.5945417"><ele>834.6666666666667</ele><time>2026-04-30T13:31:18.749Z</time></trkpt><trkpt lat="40.1257767" lon="8.5945617"><ele>832.3333333333334</ele><time>2026-04-30T13:31:19.745Z</time></trkpt><trkpt lat="40.1259283" lon="8.594585"><ele>830.0</ele><time>2026-04-30T13:31:20.782Z</time></trkpt><trkpt lat="40.1260833" lon="8.5946233"><ele>830.0</ele><time>2026-04-30T13:31:21.748Z</time></trkpt><trkpt lat="40.1262383" lon="8.59465"><ele>830.0</ele><time>2026-04-30T13:31:22.747Z</time></trkpt><trkpt lat="40.126405" lon="8.5946767"><ele>830.0</ele><time>2026-04-30T13:31:23.754Z</time></trkpt><trkpt lat="40.1265683" lon="8.5947"><ele>828.3333333333334</ele><time>2026-04-30T13:31:24.748Z</time></trkpt><trkpt lat="40.1267217" lon="8.5947283"><ele>826.6666666666667</ele><time>2026-04-30T13:31:25.753Z</time></trkpt><trkpt lat="40.1268917" lon="8.5947517"><ele>825.0</ele><time>2026-04-30T13:31:26.745Z</time></trkpt><trkpt lat="40.127055" lon="8.5947567"><ele>825.0</ele><time>2026-04-30T13:31:27.744Z</time></trkpt><trkpt lat="40.127215" lon="8.59477"><ele>825.0</ele><time>2026-04-30T13:31:28.753Z</time></trkpt><trkpt lat="40.12737" lon="8.594785"><ele>825.0</ele><time>2026-04-30T13:31:29.748Z</time></trkpt><trkpt lat="40.1275283" lon="8.5948"><ele>824.25</ele><time>2026-04-30T13:31:30.746Z</time></trkpt><trkpt lat="40.1276817" lon="8.594825"><ele>823.5</ele><time>2026-04-30T13:31:31.745Z</time></trkpt><trkpt lat="40.1278317" lon="8.59482"><ele>822.75</ele><time>2026-04-30T13:31:32.748Z</time></trkpt><trkpt lat="40.1279717" lon="8.5948283"><ele>822.0</ele><time>2026-04-30T13:31:33.748Z</time></trkpt><trkpt lat="40.1281033" lon="8.59484"><ele>822.0</ele><time>2026-04-30T13:31:34.749Z</time></trkpt><trkpt lat="40.1282233" lon="8.5948367"><ele>822.0</ele><time>2026-04-30T13:31:35.743Z</time></trkpt><trkpt lat="40.12832" lon="8.5948567"><ele>822.0</ele><time>2026-04-30T13:31:36.75Z</time></trkpt><trkpt lat="40.1284233" lon="8.5948633"><ele>822.0</ele><time>2026-04-30T13:31:37.751Z</time></trkpt><trkpt lat="40.1285367" lon="8.5948383"><ele>822.0</ele><time>2026-04-30T13:31:38.774Z</time></trkpt><trkpt lat="40.128645" lon="8.5948367"><ele>822.3333333333334</ele><time>2026-04-30T13:31:39.749Z</time></trkpt><trkpt lat="40.1287417" lon="8.5948383"><ele>822.6666666666667</ele><time>2026-04-30T13:31:40.748Z</time></trkpt><trkpt lat="40.1288317" lon="8.59484"><ele>823.0</ele><time>2026-04-30T13:31:41.75Z</time></trkpt><trkpt lat="40.12892" lon="8.5948383"><ele>823.3333333333334</ele><time>2026-04-30T13:31:42.751Z</time></trkpt><trkpt lat="40.129" lon="8.5948283"><ele>823.6666666666667</ele><time>2026-04-30T13:31:43.745Z</time></trkpt><trkpt lat="40.129075" lon="8.5948133"><ele>824.0</ele><time>2026-04-30T13:31:44.776Z</time></trkpt><trkpt lat="40.1291383" lon="8.594795"><ele>825.0</ele><time>2026-04-30T13:31:45.748Z</time></trkpt><trkpt lat="40.1292433" lon="8.5947383"><ele>826.0</ele><time>2026-04-30T13:31:47.746Z</time></trkpt><trkpt lat="40.1293383" lon="8.59468"><ele>827.0</ele><time>2026-04-30T13:31:49.746Z</time></trkpt><trkpt lat="40.12943" lon="8.5946233"><ele>828.0</ele><time>2026-04-30T13:31:51.747Z</time></trkpt><trkpt lat="40.1295" lon="8.5945533"><ele>829.0</ele><time>2026-04-30T13:31:53.746Z</time></trkpt><trkpt lat="40.129575" lon="8.5944433"><ele>825.8000000000001</ele><time>2026-04-30T13:31:55.747Z</time></trkpt><trkpt lat="40.12961" lon="8.5943517"><ele>822.6</ele><time>2026-04-30T13:31:56.803Z</time></trkpt><trkpt lat="40.1296433" lon="8.5942533"><ele>819.4</ele><time>2026-04-30T13:31:57.747Z</time></trkpt><trkpt lat="40.12966" lon="8.5941217"><ele>816.2</ele><time>2026-04-30T13:31:58.744Z</time></trkpt><trkpt lat="40.1296617" lon="8.5939633"><ele>813.0</ele><time>2026-04-30T13:31:59.748Z</time></trkpt><trkpt lat="40.1296633" lon="8.5938083"><ele>810.5999999999999</ele><time>2026-04-30T13:32:00.75Z</time></trkpt><trkpt lat="40.129665" lon="8.5936617"><ele>808.1999999999999</ele><time>2026-04-30T13:32:01.748Z</time></trkpt><trkpt lat="40.129665" lon="8.5935183"><ele>805.8</ele><time>2026-04-30T13:32:02.75Z</time></trkpt><trkpt lat="40.129665" lon="8.5933717"><ele>803.4</ele><time>2026-04-30T13:32:03.75Z</time></trkpt><trkpt lat="40.129665" lon="8.5932267"><ele>801.0</ele><time>2026-04-30T13:32:04.749Z</time></trkpt><trkpt lat="40.1296617" lon="8.5930883"><ele>801.0</ele><time>2026-04-30T13:32:05.749Z</time></trkpt><trkpt lat="40.1296583" lon="8.5929383"><ele>801.0</ele><time>2026-04-30T13:32:06.746Z</time></trkpt><trkpt lat="40.129665" lon="8.59278"><ele>801.0</ele><time>2026-04-30T13:32:07.745Z</time></trkpt><trkpt lat="40.129675" lon="8.5926267"><ele>801.0</ele><time>2026-04-30T13:32:08.779Z</time></trkpt><trkpt lat="40.1296817" lon="8.5924767"><ele>799.6666666666666</ele><time>2026-04-30T13:32:09.747Z</time></trkpt><trkpt lat="40.1296917" lon="8.5923367"><ele>798.3333333333333</ele><time>2026-04-30T13:32:10.753Z</time></trkpt><trkpt lat="40.1296967" lon="8.5922083"><ele>797.0</ele><time>2026-04-30T13:32:11.749Z</time></trkpt><trkpt lat="40.1297033" lon="8.5920917"><ele>795.6666666666666</ele><time>2026-04-30T13:32:12.748Z</time></trkpt><trkpt lat="40.1297017" lon="8.59199"><ele>794.3333333333333</ele><time>2026-04-30T13:32:13.751Z</time></trkpt><trkpt lat="40.1296983" lon="8.5919017"><ele>793.0</ele><time>2026-04-30T13:32:14.777Z</time></trkpt><trkpt lat="40.129685" lon="8.5918183"><ele>792.3333333333333</ele><time>2026-04-30T13:32:15.744Z</time></trkpt><trkpt lat="40.12964" lon="8.5916633"><ele>791.6666666666666</ele><time>2026-04-30T13:32:17.748Z</time></trkpt><trkpt lat="40.129605" lon="8.59159"><ele>791.0</ele><time>2026-04-30T13:32:18.759Z</time></trkpt><trkpt lat="40.1295633" lon="8.5915183"><ele>790.3333333333333</ele><time>2026-04-30T13:32:19.744Z</time></trkpt><trkpt lat="40.1295183" lon="8.5914533"><ele>789.6666666666666</ele><time>2026-04-30T13:32:20.778Z</time></trkpt><trkpt lat="40.12947" lon="8.5913867"><ele>789.0</ele><time>2026-04-30T13:32:21.75Z</time></trkpt><trkpt lat="40.1294167" lon="8.5913233"><ele>789.0</ele><time>2026-04-30T13:32:22.748Z</time></trkpt><trkpt lat="40.1293467" lon="8.59128"><ele>789.0</ele><time>2026-04-30T13:32:23.748Z</time></trkpt><trkpt lat="40.1292283" lon="8.591295"><ele>789.0</ele><time>2026-04-30T13:32:24.745Z</time></trkpt><trkpt lat="40.1291117" lon="8.5913117"><ele>789.0</ele><time>2026-04-30T13:32:25.744Z</time></trkpt><trkpt lat="40.129" lon="8.591295"><ele>789.0</ele><time>2026-04-30T13:32:26.799Z</time></trkpt><trkpt lat="40.1288917" lon="8.5912533"><ele>788.0</ele><time>2026-04-30T13:32:27.752Z</time></trkpt><trkpt lat="40.1287717" lon="8.5912183"><ele>787.0</ele><time>2026-04-30T13:32:28.748Z</time></trkpt><trkpt lat="40.1286517" lon="8.59119"><ele>786.0</ele><time>2026-04-30T13:32:29.746Z</time></trkpt><trkpt lat="40.1285367" lon="8.5911817"><ele>785.0</ele><time>2026-04-30T13:32:30.745Z</time></trkpt><trkpt lat="40.1284033" lon="8.5912133"><ele>785.0</ele><time>2026-04-30T13:32:31.749Z</time></trkpt><trkpt lat="40.1282933" lon="8.5912317"><ele>785.0</ele><time>2026-04-30T13:32:32.749Z</time></trkpt><trkpt lat="40.12817" lon="8.591265"><ele>785.0</ele><time>2026-04-30T13:32:33.746Z</time></trkpt><trkpt lat="40.1280567" lon="8.5913"><ele>785.0</ele><time>2026-04-30T13:32:34.753Z</time></trkpt><trkpt lat="40.127955" lon="8.5913317"><ele>783.8</ele><time>2026-04-30T13:32:35.744Z</time></trkpt><trkpt lat="40.1278483" lon="8.591395"><ele>782.6</ele><time>2026-04-30T13:32:36.748Z</time></trkpt><trkpt lat="40.1277533" lon="8.5914633"><ele>781.4000000000001</ele><time>2026-04-30T13:32:37.747Z</time></trkpt><trkpt lat="40.127665" lon="8.59154"><ele>780.2</ele><time>2026-04-30T13:32:38.778Z</time></trkpt><trkpt lat="40.1275717" lon="8.5916017"><ele>779.0</ele><time>2026-04-30T13:32:39.747Z</time></trkpt><trkpt lat="40.12748" lon="8.5916733"><ele>778.6</ele><time>2026-04-30T13:32:40.748Z</time></trkpt><trkpt lat="40.12739" lon="8.5917517"><ele>778.2</ele><time>2026-04-30T13:32:41.748Z</time></trkpt><trkpt lat="40.1272917" lon="8.591815"><ele>777.8000000000001</ele><time>2026-04-30T13:32:42.75Z</time></trkpt><trkpt lat="40.1271933" lon="8.59189"><ele>777.4000000000001</ele><time>2026-04-30T13:32:43.749Z</time></trkpt><trkpt lat="40.1270933" lon="8.591935"><ele>777.0</ele><time>2026-04-30T13:32:44.778Z</time></trkpt><trkpt lat="40.12699" lon="8.591975"><ele>778.2</ele><time>2026-04-30T13:32:45.748Z</time></trkpt><trkpt lat="40.1268867" lon="8.5920317"><ele>779.4000000000001</ele><time>2026-04-30T13:32:46.746Z</time></trkpt><trkpt lat="40.1267867" lon="8.5920517"><ele>780.5999999999999</ele><time>2026-04-30T13:32:47.749Z</time></trkpt><trkpt lat="40.126685" lon="8.5920583"><ele>781.8</ele><time>2026-04-30T13:32:48.75Z</time></trkpt><trkpt lat="40.1265817" lon="8.5920433"><ele>783.0</ele><time>2026-04-30T13:32:49.75Z</time></trkpt><trkpt lat="40.1264667" lon="8.5920117"><ele>781.0</ele><time>2026-04-30T13:32:50.778Z</time></trkpt><trkpt lat="40.12635" lon="8.59196"><ele>779.0</ele><time>2026-04-30T13:32:51.746Z</time></trkpt><trkpt lat="40.1262333" lon="8.5918983"><ele>777.0</ele><time>2026-04-30T13:32:52.747Z</time></trkpt><trkpt lat="40.1261167" lon="8.59183"><ele>775.0</ele><time>2026-04-30T13:32:53.748Z</time></trkpt><trkpt lat="40.1259967" lon="8.5917583"><ele>775.0</ele><time>2026-04-30T13:32:54.744Z</time></trkpt><trkpt lat="40.12588" lon="8.5916883"><ele>775.0</ele><time>2026-04-30T13:32:55.745Z</time></trkpt><trkpt lat="40.1257583" lon="8.591615"><ele>775.0</ele><time>2026-04-30T13:32:56.745Z</time></trkpt><trkpt lat="40.1256367" lon="8.5915417"><ele>775.0</ele><time>2026-04-30T13:32:57.747Z</time></trkpt><trkpt lat="40.125505" lon="8.5914567"><ele>777.6666666666666</ele><time>2026-04-30T13:32:58.746Z</time></trkpt><trkpt lat="40.1253667" lon="8.5913517"><ele>780.3333333333333</ele><time>2026-04-30T13:32:59.747Z</time></trkpt><trkpt lat="40.125235" lon="8.59125"><ele>783.0</ele><time>2026-04-30T13:33:00.75Z</time></trkpt><trkpt lat="40.1251033" lon="8.5911483"><ele>779.6666666666667</ele><time>2026-04-30T13:33:01.749Z</time></trkpt><trkpt lat="40.1249717" lon="8.5910317"><ele>776.3333333333334</ele><time>2026-04-30T13:33:02.748Z</time></trkpt><trkpt lat="40.1248417" lon="8.59091"><ele>773.0</ele><time>2026-04-30T13:33:03.752Z</time></trkpt><trkpt lat="40.1247167" lon="8.5908"><ele>773.0</ele><time>2026-04-30T13:33:04.75Z</time></trkpt><trkpt lat="40.1245917" lon="8.590675"><ele>773.0</ele><time>2026-04-30T13:33:05.747Z</time></trkpt><trkpt lat="40.1244617" lon="8.59056"><ele>773.0</ele><time>2026-04-30T13:33:06.75Z</time></trkpt><trkpt lat="40.1243233" lon="8.5904567"><ele>773.0</ele><time>2026-04-30T13:33:07.749Z</time></trkpt><trkpt lat="40.1242033" lon="8.59036"><ele>773.0</ele><time>2026-04-30T13:33:08.778Z</time></trkpt><trkpt lat="40.1240783" lon="8.59025"><ele>773.0</ele><time>2026-04-30T13:33:09.748Z</time></trkpt><trkpt lat="40.12394" lon="8.5901517"><ele>773.0</ele><time>2026-04-30T13:33:10.748Z</time></trkpt><trkpt lat="40.1238083" lon="8.5900567"><ele>773.0</ele><time>2026-04-30T13:33:11.745Z</time></trkpt><trkpt lat="40.1236867" lon="8.5899633"><ele>773.0</ele><time>2026-04-30T13:33:12.746Z</time></trkpt><trkpt lat="40.1236183" lon="8.5899283"><ele>773.0</ele><time>2026-04-30T13:33:13.748Z</time></trkpt><trkpt lat="40.12351" lon="8.5897833"><ele>773.0</ele><time>2026-04-30T13:33:14.775Z</time></trkpt><trkpt lat="40.123415" lon="8.5896783"><ele>773.0</ele><time>2026-04-30T13:33:15.747Z</time></trkpt><trkpt lat="40.1233267" lon="8.5895617"><ele>773.0</ele><time>2026-04-30T13:33:16.748Z</time></trkpt><trkpt lat="40.12324" lon="8.5894367"><ele>773.0</ele><time>2026-04-30T13:33:17.75Z</time></trkpt><trkpt lat="40.1231517" lon="8.5892983"><ele>773.0</ele><time>2026-04-30T13:33:18.747Z</time></trkpt><trkpt lat="40.1230483" lon="8.5891867"><ele>773.75</ele><time>2026-04-30T13:33:19.744Z</time></trkpt><trkpt lat="40.1229617" lon="8.5890467"><ele>774.5</ele><time>2026-04-30T13:33:20.775Z</time></trkpt><trkpt lat="40.1228833" lon="8.588905"><ele>775.25</ele><time>2026-04-30T13:33:21.747Z</time></trkpt><trkpt lat="40.12279" lon="8.5887633"><ele>776.0</ele><time>2026-04-30T13:33:22.747Z</time></trkpt><trkpt lat="40.122715" lon="8.5886033"><ele>773.5</ele><time>2026-04-30T13:33:23.746Z</time></trkpt><trkpt lat="40.1226367" lon="8.5884633"><ele>771.0</ele><time>2026-04-30T13:33:24.747Z</time></trkpt><trkpt lat="40.1225667" lon="8.5883133"><ele>768.5</ele><time>2026-04-30T13:33:25.746Z</time></trkpt><trkpt lat="40.1225317" lon="8.5881633"><ele>766.0</ele><time>2026-04-30T13:33:26.798Z</time></trkpt><trkpt lat="40.1224983" lon="8.588005"><ele>766.0</ele><time>2026-04-30T13:33:27.749Z</time></trkpt><trkpt lat="40.12247" lon="8.5878617"><ele>766.0</ele><time>2026-04-30T13:33:28.747Z</time></trkpt><trkpt lat="40.12244" lon="8.587715"><ele>766.0</ele><time>2026-04-30T13:33:29.745Z</time></trkpt><trkpt lat="40.122415" lon="8.5875683"><ele>766.0</ele><time>2026-04-30T13:33:30.746Z</time></trkpt><trkpt lat="40.1223983" lon="8.5874283"><ele>767.5999999999999</ele><time>2026-04-30T13:33:31.746Z</time></trkpt><trkpt lat="40.1223917" lon="8.5872867"><ele>769.2</ele><time>2026-04-30T13:33:32.747Z</time></trkpt><trkpt lat="40.1223933" lon="8.587145"><ele>770.8</ele><time>2026-04-30T13:33:33.746Z</time></trkpt><trkpt lat="40.1223983" lon="8.5869983"><ele>772.4000000000001</ele><time>2026-04-30T13:33:34.744Z</time></trkpt><trkpt lat="40.12241" lon="8.5868483"><ele>774.0</ele><time>2026-04-30T13:33:35.748Z</time></trkpt><trkpt lat="40.12243" lon="8.586695"><ele>767.0</ele><time>2026-04-30T13:33:36.751Z</time></trkpt><trkpt lat="40.122465" lon="8.5865367"><ele>760.0</ele><time>2026-04-30T13:33:37.748Z</time></trkpt><trkpt lat="40.1225067" lon="8.5863633"><ele>753.0</ele><time>2026-04-30T13:33:38.772Z</time></trkpt><trkpt lat="40.1225733" lon="8.5862033"><ele>746.0</ele><time>2026-04-30T13:33:39.747Z</time></trkpt><trkpt lat="40.1226317" lon="8.5860617"><ele>743.25</ele><time>2026-04-30T13:33:40.746Z</time></trkpt><trkpt lat="40.1226833" lon="8.5859"><ele>740.5</ele><time>2026-04-30T13:33:41.751Z</time></trkpt><trkpt lat="40.1226733" lon="8.5857283"><ele>737.75</ele><time>2026-04-30T13:33:42.743Z</time></trkpt><trkpt lat="40.12268" lon="8.5855767"><ele>735.0</ele><time>2026-04-30T13:33:43.75Z</time></trkpt><trkpt lat="40.1226817" lon="8.58543"><ele>732.75</ele><time>2026-04-30T13:33:44.778Z</time></trkpt><trkpt lat="40.1226817" lon="8.5852783"><ele>730.5</ele><time>2026-04-30T13:33:45.748Z</time></trkpt><trkpt lat="40.1226817" lon="8.5851267"><ele>728.25</ele><time>2026-04-30T13:33:46.745Z</time></trkpt><trkpt lat="40.1226817" lon="8.584975"><ele>726.0</ele><time>2026-04-30T13:33:47.748Z</time></trkpt><trkpt lat="40.12269" lon="8.5848233"><ele>726.0</ele><time>2026-04-30T13:33:48.747Z</time></trkpt><trkpt lat="40.122695" lon="8.5846767"><ele>726.0</ele><time>2026-04-30T13:33:49.748Z</time></trkpt><trkpt lat="40.1227067" lon="8.5845383"><ele>726.0</ele><time>2026-04-30T13:33:50.778Z</time></trkpt><trkpt lat="40.122705" lon="8.5843983"><ele>726.0</ele><time>2026-04-30T13:33:51.745Z</time></trkpt><trkpt lat="40.1227067" lon="8.584265"><ele>726.0</ele><time>2026-04-30T13:33:52.751Z</time></trkpt><trkpt lat="40.122715" lon="8.5841367"><ele>723.8</ele><time>2026-04-30T13:33:53.747Z</time></trkpt><trkpt lat="40.1227183" lon="8.5840167"><ele>721.5999999999999</ele><time>2026-04-30T13:33:54.748Z</time></trkpt><trkpt lat="40.1227167" lon="8.5839083"><ele>719.4</ele><time>2026-04-30T13:33:55.746Z</time></trkpt><trkpt lat="40.1227067" lon="8.5838133"><ele>717.2</ele><time>2026-04-30T13:33:56.799Z</time></trkpt><trkpt lat="40.12269" lon="8.5836583"><ele>715.0</ele><time>2026-04-30T13:33:58.747Z</time></trkpt><trkpt lat="40.1226867" lon="8.5835183"><ele>712.8</ele><time>2026-04-30T13:34:00.745Z</time></trkpt><trkpt lat="40.1227483" lon="8.58343"><ele>710.6</ele><time>2026-04-30T13:34:02.747Z</time></trkpt><trkpt lat="40.1228417" lon="8.5833967"><ele>708.4000000000001</ele><time>2026-04-30T13:34:04.745Z</time></trkpt><trkpt lat="40.12293" lon="8.583385"><ele>706.2</ele><time>2026-04-30T13:34:06.746Z</time></trkpt><trkpt lat="40.12303" lon="8.5833733"><ele>704.0</ele><time>2026-04-30T13:34:08.777Z</time></trkpt><trkpt lat="40.1230983" lon="8.583325"><ele>704.0</ele><time>2026-04-30T13:34:10.753Z</time></trkpt><trkpt lat="40.12313" lon="8.58324"><ele>704.0</ele><time>2026-04-30T13:34:12.746Z</time></trkpt><trkpt lat="40.123145" lon="8.58311"><ele>704.0</ele><time>2026-04-30T13:34:14.774Z</time></trkpt><trkpt lat="40.12315" lon="8.5830133"><ele>704.0</ele><time>2026-04-30T13:34:15.748Z</time></trkpt><trkpt lat="40.1231783" lon="8.5829267"><ele>704.0</ele><time>2026-04-30T13:34:16.745Z</time></trkpt><trkpt lat="40.1232" lon="8.5828083"><ele>704.0</ele><time>2026-04-30T13:34:17.743Z</time></trkpt><trkpt lat="40.1232183" lon="8.5826883"><ele>699.5</ele><time>2026-04-30T13:34:18.746Z</time></trkpt><trkpt lat="40.1232467" lon="8.5825717"><ele>695.0</ele><time>2026-04-30T13:34:19.748Z</time></trkpt><trkpt lat="40.1232733" lon="8.58243"><ele>690.5</ele><time>2026-04-30T13:34:20.775Z</time></trkpt><trkpt lat="40.123335" lon="8.5822733"><ele>686.0</ele><time>2026-04-30T13:34:21.748Z</time></trkpt><trkpt lat="40.123415" lon="8.58216"><ele>686.0</ele><time>2026-04-30T13:34:22.766Z</time></trkpt><trkpt lat="40.1235367" lon="8.5820667"><ele>686.0</ele><time>2026-04-30T13:34:23.749Z</time></trkpt><trkpt lat="40.1236233" lon="8.5819717"><ele>686.0</ele><time>2026-04-30T13:34:24.762Z</time></trkpt><trkpt lat="40.1237183" lon="8.5818817"><ele>686.0</ele><time>2026-04-30T13:34:25.749Z</time></trkpt><trkpt lat="40.1238283" lon="8.5817717"><ele>686.0</ele><time>2026-04-30T13:34:26.803Z</time></trkpt><trkpt lat="40.1239083" lon="8.5816783"><ele>686.0</ele><time>2026-04-30T13:34:27.746Z</time></trkpt><trkpt lat="40.1240033" lon="8.5815783"><ele>686.0</ele><time>2026-04-30T13:34:28.746Z</time></trkpt><trkpt lat="40.124085" lon="8.58151"><ele>686.0</ele><time>2026-04-30T13:34:29.749Z</time></trkpt><trkpt lat="40.124145" lon="8.581405"><ele>686.0</ele><time>2026-04-30T13:34:30.746Z</time></trkpt><trkpt lat="40.124195" lon="8.5812933"><ele>684.25</ele><time>2026-04-30T13:34:31.745Z</time></trkpt><trkpt lat="40.1242317" lon="8.581175"><ele>682.5</ele><time>2026-04-30T13:34:32.803Z</time></trkpt><trkpt lat="40.1242717" lon="8.5810367"><ele>680.75</ele><time>2026-04-30T13:34:33.763Z</time></trkpt><trkpt lat="40.1242883" lon="8.580865"><ele>679.0</ele><time>2026-04-30T13:34:34.754Z</time></trkpt><trkpt lat="40.12432" lon="8.58071"><ele>679.0</ele><time>2026-04-30T13:34:35.745Z</time></trkpt><trkpt lat="40.12435" lon="8.58058"><ele>679.0</ele><time>2026-04-30T13:34:36.76Z</time></trkpt><trkpt lat="40.1243717" lon="8.5804467"><ele>679.0</ele><time>2026-04-30T13:34:37.752Z</time></trkpt><trkpt lat="40.1243817" lon="8.5802717"><ele>679.0</ele><time>2026-04-30T13:34:38.778Z</time></trkpt><trkpt lat="40.124395" lon="8.5801317"><ele>678.25</ele><time>2026-04-30T13:34:39.749Z</time></trkpt><trkpt lat="40.1244083" lon="8.5799783"><ele>677.5</ele><time>2026-04-30T13:34:40.744Z</time></trkpt><trkpt lat="40.1244217" lon="8.5798367"><ele>676.75</ele><time>2026-04-30T13:34:41.745Z</time></trkpt><trkpt lat="40.12443" lon="8.5796933"><ele>676.0</ele><time>2026-04-30T13:34:42.75Z</time></trkpt><trkpt lat="40.1244133" lon="8.5795467"><ele>676.0</ele><time>2026-04-30T13:34:43.745Z</time></trkpt><trkpt lat="40.12441" lon="8.579425"><ele>676.0</ele><time>2026-04-30T13:34:44.773Z</time></trkpt><trkpt lat="40.1243817" lon="8.5792617"><ele>676.0</ele><time>2026-04-30T13:34:45.747Z</time></trkpt><trkpt lat="40.1243633" lon="8.5791233"><ele>676.0</ele><time>2026-04-30T13:34:46.747Z</time></trkpt><trkpt lat="40.1243533" lon="8.57897"><ele>676.0</ele><time>2026-04-30T13:34:47.764Z</time></trkpt><trkpt lat="40.12434" lon="8.57882"><ele>675.0</ele><time>2026-04-30T13:34:48.748Z</time></trkpt><trkpt lat="40.1243333" lon="8.57868"><ele>674.0</ele><time>2026-04-30T13:34:49.746Z</time></trkpt><trkpt lat="40.1243183" lon="8.5785283"><ele>673.0</ele><time>2026-04-30T13:34:50.783Z</time></trkpt><trkpt lat="40.1243133" lon="8.5783833"><ele>672.0</ele><time>2026-04-30T13:34:51.75Z</time></trkpt><trkpt lat="40.1243217" lon="8.57824"><ele>671.0</ele><time>2026-04-30T13:34:52.744Z</time></trkpt><trkpt lat="40.124325" lon="8.57809"><ele>671.0</ele><time>2026-04-30T13:34:53.748Z</time></trkpt><trkpt lat="40.1243617" lon="8.5779333"><ele>671.0</ele><time>2026-04-30T13:34:54.751Z</time></trkpt><trkpt lat="40.12439" lon="8.5777567"><ele>671.0</ele><time>2026-04-30T13:34:55.745Z</time></trkpt><trkpt lat="40.124415" lon="8.577595"><ele>671.0</ele><time>2026-04-30T13:34:56.803Z</time></trkpt><trkpt lat="40.12444" lon="8.5774517"><ele>669.0</ele><time>2026-04-30T13:34:57.748Z</time></trkpt><trkpt lat="40.12447" lon="8.577295"><ele>667.0</ele><time>2026-04-30T13:34:58.749Z</time></trkpt><trkpt lat="40.1244783" lon="8.57714"><ele>665.0</ele><time>2026-04-30T13:34:59.747Z</time></trkpt><trkpt lat="40.1245233" lon="8.5769467"><ele>663.0</ele><time>2026-04-30T13:35:00.748Z</time></trkpt><trkpt lat="40.1245717" lon="8.5767283"><ele>660.8</ele><time>2026-04-30T13:35:01.747Z</time></trkpt><trkpt lat="40.1246183" lon="8.576565"><ele>658.5999999999999</ele><time>2026-04-30T13:35:02.747Z</time></trkpt><trkpt lat="40.12466" lon="8.5764367"><ele>656.4000000000001</ele><time>2026-04-30T13:35:03.75Z</time></trkpt><trkpt lat="40.1246833" lon="8.5763317"><ele>654.2</ele><time>2026-04-30T13:35:04.749Z</time></trkpt><trkpt lat="40.12474" lon="8.5762433"><ele>652.0</ele><time>2026-04-30T13:35:05.749Z</time></trkpt><trkpt lat="40.1247933" lon="8.57616"><ele>651.0</ele><time>2026-04-30T13:35:06.749Z</time></trkpt><trkpt lat="40.1248567" lon="8.5761033"><ele>650.0</ele><time>2026-04-30T13:35:07.749Z</time></trkpt><trkpt lat="40.12492" lon="8.576055"><ele>649.0</ele><time>2026-04-30T13:35:08.774Z</time></trkpt><trkpt lat="40.1249767" lon="8.5760017"><ele>648.0</ele><time>2026-04-30T13:35:09.746Z</time></trkpt><trkpt lat="40.125085" lon="8.5759383"><ele>647.0</ele><time>2026-04-30T13:35:11.747Z</time></trkpt><trkpt lat="40.1251783" lon="8.57592"><ele>646.0</ele><time>2026-04-30T13:35:13.748Z</time></trkpt><trkpt lat="40.1250867" lon="8.57594"><ele>646.0</ele><time>2026-04-30T13:35:23.748Z</time></trkpt><trkpt lat="40.1249817" lon="8.5759983"><ele>646.0</ele><time>2026-04-30T13:35:25.746Z</time></trkpt><trkpt lat="40.124925" lon="8.576035"><ele>646.0</ele><time>2026-04-30T13:35:26.765Z</time></trkpt><trkpt lat="40.1248617" lon="8.5760833"><ele>646.0</ele><time>2026-04-30T13:35:27.746Z</time></trkpt><trkpt lat="40.12479" lon="8.5761533"><ele>646.0</ele><time>2026-04-30T13:35:28.75Z</time></trkpt><trkpt lat="40.1247167" lon="8.5762433"><ele>646.0</ele><time>2026-04-30T13:35:29.747Z</time></trkpt><trkpt lat="40.1246467" lon="8.57635"><ele>647.1999999999999</ele><time>2026-04-30T13:35:30.75Z</time></trkpt><trkpt lat="40.12458" lon="8.5764717"><ele>648.4</ele><time>2026-04-30T13:35:31.748Z</time></trkpt><trkpt lat="40.1245183" lon="8.576595"><ele>649.6</ele><time>2026-04-30T13:35:32.766Z</time></trkpt><trkpt lat="40.1244667" lon="8.576715"><ele>650.8</ele><time>2026-04-30T13:35:33.744Z</time></trkpt><trkpt lat="40.1244217" lon="8.57684"><ele>652.0</ele><time>2026-04-30T13:35:34.748Z</time></trkpt><trkpt lat="40.124385" lon="8.5769567"><ele>653.8333333333334</ele><time>2026-04-30T13:35:35.743Z</time></trkpt><trkpt lat="40.1243533" lon="8.577065"><ele>655.6666666666667</ele><time>2026-04-30T13:35:36.745Z</time></trkpt><trkpt lat="40.124325" lon="8.577165"><ele>657.5</ele><time>2026-04-30T13:35:37.746Z</time></trkpt><trkpt lat="40.1243" lon="8.577255"><ele>659.3333333333334</ele><time>2026-04-30T13:35:38.778Z</time></trkpt><trkpt lat="40.1242783" lon="8.5773383"><ele>661.1666666666666</ele><time>2026-04-30T13:35:39.749Z</time></trkpt><trkpt lat="40.124265" lon="8.5774617"><ele>663.0</ele><time>2026-04-30T13:35:41.751Z</time></trkpt><trkpt lat="40.12426" lon="8.5775883"><ele>663.0</ele><time>2026-04-30T13:36:06.747Z</time></trkpt><trkpt lat="40.1242317" lon="8.577675"><ele>663.0</ele><time>2026-04-30T13:36:08.784Z</time></trkpt><trkpt lat="40.124175" lon="8.5778"><ele>663.0</ele><time>2026-04-30T13:36:10.755Z</time></trkpt><trkpt lat="40.1240967" lon="8.5779317"><ele>663.0</ele><time>2026-04-30T13:36:12.748Z</time></trkpt><trkpt lat="40.1240583" lon="8.578"><ele>663.0</ele><time>2026-04-30T13:36:13.744Z</time></trkpt><trkpt lat="40.12401" lon="8.57806"><ele>663.0</ele><time>2026-04-30T13:36:14.779Z</time></trkpt><trkpt lat="40.1239133" lon="8.5781433"><ele>661.8</ele><time>2026-04-30T13:36:16.749Z</time></trkpt><trkpt lat="40.1238183" lon="8.5782333"><ele>660.5999999999999</ele><time>2026-04-30T13:36:18.747Z</time></trkpt><trkpt lat="40.123755" lon="8.5783533"><ele>659.4000000000001</ele><time>2026-04-30T13:36:20.775Z</time></trkpt><trkpt lat="40.1237167" lon="8.5784767"><ele>658.2</ele><time>2026-04-30T13:36:22.747Z</time></trkpt><trkpt lat="40.12367" lon="8.5786"><ele>657.0</ele><time>2026-04-30T13:36:24.747Z</time></trkpt><trkpt lat="40.1236133" lon="8.5787067"><ele>657.0</ele><time>2026-04-30T13:36:26.765Z</time></trkpt><trkpt lat="40.1235567" lon="8.5788183"><ele>657.0</ele><time>2026-04-30T13:36:28.749Z</time></trkpt><trkpt lat="40.1235067" lon="8.5789133"><ele>657.0</ele><time>2026-04-30T13:36:30.76Z</time></trkpt><trkpt lat="40.123455" lon="8.578985"><ele>657.0</ele><time>2026-04-30T13:36:32.766Z</time></trkpt><trkpt lat="40.1233883" lon="8.57901"><ele>657.0</ele><time>2026-04-30T13:36:34.744Z</time></trkpt><trkpt lat="40.1233167" lon="8.578995"><ele>657.0</ele><time>2026-04-30T13:36:36.754Z</time></trkpt><trkpt lat="40.1232567" lon="8.5789567"><ele>658.75</ele><time>2026-04-30T13:36:38.778Z</time></trkpt><trkpt lat="40.1231833" lon="8.5788567"><ele>660.5</ele><time>2026-04-30T13:36:41.751Z</time></trkpt><trkpt lat="40.12315" lon="8.578735"><ele>662.25</ele><time>2026-04-30T13:36:43.75Z</time></trkpt><trkpt lat="40.1231317" lon="8.5785767"><ele>664.0</ele><time>2026-04-30T13:36:45.751Z</time></trkpt><trkpt lat="40.1230933" lon="8.5784033"><ele>664.0</ele><time>2026-04-30T13:36:47.75Z</time></trkpt><trkpt lat="40.1230417" lon="8.5783067"><ele>664.0</ele><time>2026-04-30T13:36:48.752Z</time></trkpt><trkpt lat="40.12299" lon="8.57822"><ele>664.0</ele><time>2026-04-30T13:36:49.744Z</time></trkpt><trkpt lat="40.1229383" lon="8.5781333"><ele>664.0</ele><time>2026-04-30T13:36:50.777Z</time></trkpt><trkpt lat="40.12288" lon="8.5780467"><ele>664.0</ele><time>2026-04-30T13:36:51.747Z</time></trkpt><trkpt lat="40.1228217" lon="8.5779767"><ele>664.0</ele><time>2026-04-30T13:36:52.747Z</time></trkpt><trkpt lat="40.1227567" lon="8.5779167"><ele>663.2</ele><time>2026-04-30T13:36:53.747Z</time></trkpt><trkpt lat="40.1226867" lon="8.5778433"><ele>662.4000000000001</ele><time>2026-04-30T13:36:54.752Z</time></trkpt><trkpt lat="40.1226317" lon="8.5777667"><ele>661.6</ele><time>2026-04-30T13:36:55.745Z</time></trkpt><trkpt lat="40.1225867" lon="8.5777033"><ele>660.8</ele><time>2026-04-30T13:36:56.766Z</time></trkpt><trkpt lat="40.1225083" lon="8.5775833"><ele>660.0</ele><time>2026-04-30T13:36:58.75Z</time></trkpt><trkpt lat="40.1224467" lon="8.57746"><ele>667.25</ele><time>2026-04-30T13:37:00.745Z</time></trkpt><trkpt lat="40.122395" lon="8.5773333"><ele>674.5</ele><time>2026-04-30T13:37:02.766Z</time></trkpt><trkpt lat="40.12235" lon="8.5771983"><ele>681.75</ele><time>2026-04-30T13:37:04.747Z</time></trkpt><trkpt lat="40.1223183" lon="8.5770583"><ele>689.0</ele><time>2026-04-30T13:37:06.746Z</time></trkpt><trkpt lat="40.12229" lon="8.5768967"><ele>689.0</ele><time>2026-04-30T13:37:08.777Z</time></trkpt><trkpt lat="40.1222717" lon="8.5767517"><ele>689.0</ele><time>2026-04-30T13:37:10.747Z</time></trkpt><trkpt lat="40.12223" lon="8.5766283"><ele>689.0</ele><time>2026-04-30T13:37:12.748Z</time></trkpt><trkpt lat="40.1221933" lon="8.576545"><ele>689.0</ele><time>2026-04-30T13:37:14.774Z</time></trkpt><trkpt lat="40.1221383" lon="8.576475"><ele>689.0</ele><time>2026-04-30T13:37:17.744Z</time></trkpt><trkpt lat="40.1220667" lon="8.5764183"><ele>689.0</ele><time>2026-04-30T13:37:20.775Z</time></trkpt><trkpt lat="40.1219717" lon="8.5763133"><ele>689.0</ele><time>2026-04-30T13:38:10.747Z</time></trkpt><trkpt lat="40.121985" lon="8.5762233"><ele>689.0</ele><time>2026-04-30T13:38:42.749Z</time></trkpt><trkpt lat="40.1220383" lon="8.5761017"><ele>689.0</ele><time>2026-04-30T13:38:45.747Z</time></trkpt><trkpt lat="40.122065" lon="8.5759983"><ele>689.0</ele><time>2026-04-30T13:38:47.746Z</time></trkpt><trkpt lat="40.12203" lon="8.5758883"><ele>689.0</ele><time>2026-04-30T13:38:49.746Z</time></trkpt><trkpt lat="40.1219733" lon="8.5757683"><ele>688.1666666666666</ele><time>2026-04-30T13:38:51.748Z</time></trkpt><trkpt lat="40.1219383" lon="8.5756467"><ele>687.3333333333333</ele><time>2026-04-30T13:38:53.742Z</time></trkpt><trkpt lat="40.1219083" lon="8.5755233"><ele>686.5</ele><time>2026-04-30T13:38:55.752Z</time></trkpt><trkpt lat="40.1218883" lon="8.575375"><ele>685.6666666666666</ele><time>2026-04-30T13:38:57.753Z</time></trkpt><trkpt lat="40.121865" lon="8.5752883"><ele>684.8333333333334</ele><time>2026-04-30T13:38:58.746Z</time></trkpt><trkpt lat="40.1218417" lon="8.5752117"><ele>684.0</ele><time>2026-04-30T13:38:59.747Z</time></trkpt><trkpt lat="40.12179" lon="8.5750683"><ele>683.6</ele><time>2026-04-30T13:39:01.744Z</time></trkpt><trkpt lat="40.1217567" lon="8.5749867"><ele>683.2</ele><time>2026-04-30T13:39:02.763Z</time></trkpt><trkpt lat="40.12172" lon="8.5749133"><ele>682.8000000000001</ele><time>2026-04-30T13:39:03.743Z</time></trkpt><trkpt lat="40.1216483" lon="8.57481"><ele>682.4000000000001</ele><time>2026-04-30T13:39:05.748Z</time></trkpt><trkpt lat="40.1215417" lon="8.5747417"><ele>682.0</ele><time>2026-04-30T13:39:07.748Z</time></trkpt><trkpt lat="40.12143" lon="8.5746983"><ele>686.0</ele><time>2026-04-30T13:39:09.747Z</time></trkpt><trkpt lat="40.121315" lon="8.5746617"><ele>690.0</ele><time>2026-04-30T13:39:11.743Z</time></trkpt><trkpt lat="40.1211917" lon="8.574635"><ele>694.0</ele><time>2026-04-30T13:39:13.742Z</time></trkpt><trkpt lat="40.1210667" lon="8.5745967"><ele>698.0</ele><time>2026-04-30T13:39:15.744Z</time></trkpt><trkpt lat="40.1210083" lon="8.574565"><ele>702.0</ele><time>2026-04-30T13:39:16.745Z</time></trkpt><trkpt lat="40.12095" lon="8.5745267"><ele>703.0</ele><time>2026-04-30T13:39:17.746Z</time></trkpt><trkpt lat="40.1208467" lon="8.5744267"><ele>704.0</ele><time>2026-04-30T13:39:19.745Z</time></trkpt><trkpt lat="40.1208033" lon="8.57436"><ele>705.0</ele><time>2026-04-30T13:39:20.774Z</time></trkpt><trkpt lat="40.12076" lon="8.5742917"><ele>706.0</ele><time>2026-04-30T13:39:21.747Z</time></trkpt><trkpt lat="40.1207033" lon="8.5742167"><ele>707.0</ele><time>2026-04-30T13:39:22.745Z</time></trkpt><trkpt lat="40.12065" lon="8.5741417"><ele>708.0</ele><time>2026-04-30T13:39:23.748Z</time></trkpt><trkpt lat="40.120575" lon="8.5740183"><ele>708.0</ele><time>2026-04-30T13:39:25.747Z</time></trkpt><trkpt lat="40.1204867" lon="8.5739083"><ele>708.0</ele><time>2026-04-30T13:39:27.745Z</time></trkpt><trkpt lat="40.1204333" lon="8.5738483"><ele>708.0</ele><time>2026-04-30T13:39:28.747Z</time></trkpt><trkpt lat="40.1203733" lon="8.5737917"><ele>708.0</ele><time>2026-04-30T13:39:29.746Z</time></trkpt><trkpt lat="40.120305" lon="8.5737217"><ele>708.0</ele><time>2026-04-30T13:39:30.745Z</time></trkpt><trkpt lat="40.120235" lon="8.573645"><ele>708.0</ele><time>2026-04-30T13:39:31.744Z</time></trkpt><trkpt lat="40.1201667" lon="8.5735633"><ele>705.8333333333334</ele><time>2026-04-30T13:39:32.767Z</time></trkpt><trkpt lat="40.1201183" lon="8.57348"><ele>703.6666666666666</ele><time>2026-04-30T13:39:33.747Z</time></trkpt><trkpt lat="40.1200683" lon="8.573405"><ele>701.5</ele><time>2026-04-30T13:39:34.747Z</time></trkpt><trkpt lat="40.12002" lon="8.5733283"><ele>699.3333333333333</ele><time>2026-04-30T13:39:35.746Z</time></trkpt><trkpt lat="40.11997" lon="8.5732717"><ele>697.1666666666666</ele><time>2026-04-30T13:39:36.747Z</time></trkpt><trkpt lat="40.119905" lon="8.57321"><ele>695.0</ele><time>2026-04-30T13:39:38.774Z</time></trkpt><trkpt lat="40.1198983" lon="8.573115"><ele>697.4</ele><time>2026-04-30T13:39:43.745Z</time></trkpt><trkpt lat="40.11984" lon="8.5730667"><ele>699.8</ele><time>2026-04-30T13:39:45.746Z</time></trkpt><trkpt lat="40.1197633" lon="8.5730117"><ele>702.2</ele><time>2026-04-30T13:39:47.748Z</time></trkpt><trkpt lat="40.1196517" lon="8.5729333"><ele>704.6</ele><time>2026-04-30T13:39:49.747Z</time></trkpt><trkpt lat="40.1195833" lon="8.572885"><ele>707.0</ele><time>2026-04-30T13:39:50.776Z</time></trkpt><trkpt lat="40.119505" lon="8.572825"><ele>707.0</ele><time>2026-04-30T13:39:51.745Z</time></trkpt><trkpt lat="40.11942" lon="8.5727667"><ele>707.0</ele><time>2026-04-30T13:39:52.749Z</time></trkpt><trkpt lat="40.1193233" lon="8.5727033"><ele>707.0</ele><time>2026-04-30T13:39:53.748Z</time></trkpt><trkpt lat="40.1192367" lon="8.57265"><ele>707.0</ele><time>2026-04-30T13:39:54.75Z</time></trkpt><trkpt lat="40.1191517" lon="8.5725967"><ele>707.0</ele><time>2026-04-30T13:39:55.745Z</time></trkpt><trkpt lat="40.11907" lon="8.5725317"><ele>710.6666666666666</ele><time>2026-04-30T13:39:56.807Z</time></trkpt><trkpt lat="40.1190033" lon="8.572475"><ele>714.3333333333333</ele><time>2026-04-30T13:39:57.747Z</time></trkpt><trkpt lat="40.1189367" lon="8.57243"><ele>718.0</ele><time>2026-04-30T13:39:58.746Z</time></trkpt><trkpt lat="40.1188183" lon="8.572355"><ele>721.6666666666666</ele><time>2026-04-30T13:40:00.746Z</time></trkpt><trkpt lat="40.1187467" lon="8.5723267"><ele>725.3333333333334</ele><time>2026-04-30T13:40:01.753Z</time></trkpt><trkpt lat="40.1186633" lon="8.5722933"><ele>729.0</ele><time>2026-04-30T13:40:02.746Z</time></trkpt><trkpt lat="40.1185833" lon="8.57226"><ele>729.0</ele><time>2026-04-30T13:40:03.745Z</time></trkpt><trkpt lat="40.1185033" lon="8.5722267"><ele>729.0</ele><time>2026-04-30T13:40:04.746Z</time></trkpt><trkpt lat="40.1184083" lon="8.5721983"><ele>729.0</ele><time>2026-04-30T13:40:05.747Z</time></trkpt><trkpt lat="40.1183133" lon="8.57217"><ele>729.0</ele><time>2026-04-30T13:40:06.746Z</time></trkpt><trkpt lat="40.1182167" lon="8.57213"><ele>729.0</ele><time>2026-04-30T13:40:07.746Z</time></trkpt><trkpt lat="40.1181333" lon="8.5720933"><ele>729.6666666666666</ele><time>2026-04-30T13:40:08.775Z</time></trkpt><trkpt lat="40.1180567" lon="8.5720633"><ele>730.3333333333334</ele><time>2026-04-30T13:40:09.749Z</time></trkpt><trkpt lat="40.1179867" lon="8.5720217"><ele>731.0</ele><time>2026-04-30T13:40:10.747Z</time></trkpt><trkpt lat="40.1179167" lon="8.5719817"><ele>731.6666666666667</ele><time>2026-04-30T13:40:11.746Z</time></trkpt><trkpt lat="40.1178533" lon="8.5719267"><ele>732.3333333333334</ele><time>2026-04-30T13:40:12.748Z</time></trkpt><trkpt lat="40.1178" lon="8.57186"><ele>733.0</ele><time>2026-04-30T13:40:13.748Z</time></trkpt><trkpt lat="40.117745" lon="8.5717967"><ele>730.6666666666667</ele><time>2026-04-30T13:40:14.776Z</time></trkpt><trkpt lat="40.117695" lon="8.571735"><ele>728.3333333333334</ele><time>2026-04-30T13:40:15.741Z</time></trkpt><trkpt lat="40.1176433" lon="8.5716417"><ele>726.0</ele><time>2026-04-30T13:40:16.746Z</time></trkpt><trkpt lat="40.1176083" lon="8.5715617"><ele>723.6666666666666</ele><time>2026-04-30T13:40:17.749Z</time></trkpt><trkpt lat="40.1175733" lon="8.571455"><ele>721.3333333333333</ele><time>2026-04-30T13:40:19.745Z</time></trkpt><trkpt lat="40.1175317" lon="8.5713383"><ele>719.0</ele><time>2026-04-30T13:40:38.775Z</time></trkpt><trkpt lat="40.11758" lon="8.571445"><ele>719.0</ele><time>2026-04-30T13:40:41.748Z</time></trkpt><trkpt lat="40.1176367" lon="8.5715883"><ele>719.0</ele><time>2026-04-30T13:40:43.745Z</time></trkpt><trkpt lat="40.1176633" lon="8.5716683"><ele>719.0</ele><time>2026-04-30T13:40:44.776Z</time></trkpt><trkpt lat="40.1177133" lon="8.5718367"><ele>719.0</ele><time>2026-04-30T13:40:46.745Z</time></trkpt><trkpt lat="40.11771" lon="8.5719333"><ele>719.0</ele><time>2026-04-30T13:40:47.745Z</time></trkpt><trkpt lat="40.1176733" lon="8.5720267"><ele>722.5</ele><time>2026-04-30T13:40:48.745Z</time></trkpt><trkpt lat="40.1176267" lon="8.5721167"><ele>726.0</ele><time>2026-04-30T13:40:49.745Z</time></trkpt><trkpt lat="40.1175817" lon="8.5722367"><ele>729.5</ele><time>2026-04-30T13:40:50.771Z</time></trkpt><trkpt lat="40.11751" lon="8.57237"><ele>733.0</ele><time>2026-04-30T13:40:51.744Z</time></trkpt><trkpt lat="40.1174283" lon="8.5725233"><ele>734.6666666666667</ele><time>2026-04-30T13:40:52.747Z</time></trkpt><trkpt lat="40.1173433" lon="8.5727033"><ele>736.3333333333334</ele><time>2026-04-30T13:40:53.745Z</time></trkpt><trkpt lat="40.11726" lon="8.5728967"><ele>738.0</ele><time>2026-04-30T13:40:54.746Z</time></trkpt><trkpt lat="40.11717" lon="8.57308"><ele>738.0</ele><time>2026-04-30T13:40:55.748Z</time></trkpt><trkpt lat="40.1170817" lon="8.5732667"><ele>738.0</ele><time>2026-04-30T13:40:56.755Z</time></trkpt><trkpt lat="40.1169917" lon="8.5734383"><ele>738.0</ele><time>2026-04-30T13:40:57.745Z</time></trkpt><trkpt lat="40.11689" lon="8.5736117"><ele>739.0</ele><time>2026-04-30T13:40:58.745Z</time></trkpt><trkpt lat="40.1167783" lon="8.5737783"><ele>740.0</ele><time>2026-04-30T13:40:59.747Z</time></trkpt><trkpt lat="40.1166683" lon="8.5739483"><ele>741.0</ele><time>2026-04-30T13:41:00.743Z</time></trkpt><trkpt lat="40.11655" lon="8.5741133"><ele>741.0</ele><time>2026-04-30T13:41:01.743Z</time></trkpt><trkpt lat="40.1164167" lon="8.5742817"><ele>741.0</ele><time>2026-04-30T13:41:02.749Z</time></trkpt><trkpt lat="40.11629" lon="8.5744517"><ele>741.0</ele><time>2026-04-30T13:41:03.75Z</time></trkpt><trkpt lat="40.11616" lon="8.5746133"><ele>745.6666666666666</ele><time>2026-04-30T13:41:04.744Z</time></trkpt><trkpt lat="40.11603" lon="8.5747633"><ele>750.3333333333333</ele><time>2026-04-30T13:41:05.748Z</time></trkpt><trkpt lat="40.115905" lon="8.5749033"><ele>755.0</ele><time>2026-04-30T13:41:06.746Z</time></trkpt><trkpt lat="40.1157767" lon="8.5750467"><ele>752.6666666666666</ele><time>2026-04-30T13:41:07.743Z</time></trkpt><trkpt lat="40.1156517" lon="8.5751867"><ele>750.3333333333334</ele><time>2026-04-30T13:41:08.772Z</time></trkpt><trkpt lat="40.1155317" lon="8.5753267"><ele>748.0</ele><time>2026-04-30T13:41:09.744Z</time></trkpt><trkpt lat="40.1154133" lon="8.5754683"><ele>748.0</ele><time>2026-04-30T13:41:10.745Z</time></trkpt><trkpt lat="40.11531" lon="8.5756283"><ele>748.0</ele><time>2026-04-30T13:41:11.741Z</time></trkpt><trkpt lat="40.11521" lon="8.5757817"><ele>748.0</ele><time>2026-04-30T13:41:12.745Z</time></trkpt><trkpt lat="40.1151033" lon="8.5759333"><ele>748.0</ele><time>2026-04-30T13:41:13.748Z</time></trkpt><trkpt lat="40.1149983" lon="8.5760867"><ele>748.0</ele><time>2026-04-30T13:41:14.773Z</time></trkpt><trkpt lat="40.114895" lon="8.5762467"><ele>748.0</ele><time>2026-04-30T13:41:15.747Z</time></trkpt><trkpt lat="40.1147967" lon="8.5764017"><ele>746.6666666666667</ele><time>2026-04-30T13:41:16.745Z</time></trkpt><trkpt lat="40.1146983" lon="8.5765567"><ele>745.3333333333334</ele><time>2026-04-30T13:41:17.746Z</time></trkpt><trkpt lat="40.114605" lon="8.5767083"><ele>744.0</ele><time>2026-04-30T13:41:18.745Z</time></trkpt><trkpt lat="40.1145133" lon="8.5768767"><ele>746.0</ele><time>2026-04-30T13:41:19.748Z</time></trkpt><trkpt lat="40.1144433" lon="8.5770617"><ele>748.0</ele><time>2026-04-30T13:41:20.773Z</time></trkpt><trkpt lat="40.1143767" lon="8.577225"><ele>750.0</ele><time>2026-04-30T13:41:21.749Z</time></trkpt><trkpt lat="40.1143017" lon="8.5774133"><ele>750.0</ele><time>2026-04-30T13:41:22.745Z</time></trkpt><trkpt lat="40.114225" lon="8.5775433"><ele>750.0</ele><time>2026-04-30T13:41:23.745Z</time></trkpt><trkpt lat="40.1141933" lon="8.5777167"><ele>750.0</ele><time>2026-04-30T13:41:24.747Z</time></trkpt><trkpt lat="40.11416" lon="8.5778983"><ele>750.0</ele><time>2026-04-30T13:41:25.746Z</time></trkpt><trkpt lat="40.1141417" lon="8.578075"><ele>750.75</ele><time>2026-04-30T13:41:26.807Z</time></trkpt><trkpt lat="40.1141367" lon="8.5782533"><ele>751.5</ele><time>2026-04-30T13:41:27.745Z</time></trkpt><trkpt lat="40.11412" lon="8.5784217"><ele>752.25</ele><time>2026-04-30T13:41:28.748Z</time></trkpt><trkpt lat="40.11412" lon="8.57861"><ele>753.0</ele><time>2026-04-30T13:41:29.747Z</time></trkpt><trkpt lat="40.11412" lon="8.5788183"><ele>753.0</ele><time>2026-04-30T13:41:30.747Z</time></trkpt><trkpt lat="40.1141117" lon="8.5790217"><ele>753.0</ele><time>2026-04-30T13:41:31.746Z</time></trkpt><trkpt lat="40.1140983" lon="8.57922"><ele>753.0</ele><time>2026-04-30T13:41:32.748Z</time></trkpt><trkpt lat="40.1140917" lon="8.579415"><ele>753.0</ele><time>2026-04-30T13:41:33.749Z</time></trkpt><trkpt lat="40.11408" lon="8.5796133"><ele>753.0</ele><time>2026-04-30T13:41:34.747Z</time></trkpt><trkpt lat="40.1140617" lon="8.5798133"><ele>753.0</ele><time>2026-04-30T13:41:35.748Z</time></trkpt><trkpt lat="40.1140517" lon="8.5800033"><ele>751.6666666666666</ele><time>2026-04-30T13:41:36.746Z</time></trkpt><trkpt lat="40.114025" lon="8.580195"><ele>750.3333333333333</ele><time>2026-04-30T13:41:37.746Z</time></trkpt><trkpt lat="40.1140033" lon="8.580385"><ele>749.0</ele><time>2026-04-30T13:41:38.771Z</time></trkpt><trkpt lat="40.11397" lon="8.5805817"><ele>749.0</ele><time>2026-04-30T13:41:39.747Z</time></trkpt><trkpt lat="40.1139383" lon="8.5807733"><ele>749.0</ele><time>2026-04-30T13:41:40.747Z</time></trkpt><trkpt lat="40.113895" lon="8.5809667"><ele>749.0</ele><time>2026-04-30T13:41:41.744Z</time></trkpt><trkpt lat="40.113845" lon="8.581155"><ele>749.6666666666666</ele><time>2026-04-30T13:41:42.747Z</time></trkpt><trkpt lat="40.1137817" lon="8.5813467"><ele>750.3333333333334</ele><time>2026-04-30T13:41:43.747Z</time></trkpt><trkpt lat="40.113715" lon="8.58153"><ele>751.0</ele><time>2026-04-30T13:41:44.781Z</time></trkpt><trkpt lat="40.1136367" lon="8.5817083"><ele>751.0</ele><time>2026-04-30T13:41:45.747Z</time></trkpt><trkpt lat="40.11355" lon="8.5818867"><ele>751.0</ele><time>2026-04-30T13:41:46.742Z</time></trkpt><trkpt lat="40.1134583" lon="8.582065"><ele>751.0</ele><time>2026-04-30T13:41:47.746Z</time></trkpt><trkpt lat="40.1133667" lon="8.5822367"><ele>750.25</ele><time>2026-04-30T13:41:48.746Z</time></trkpt><trkpt lat="40.113285" lon="8.5824083"><ele>749.5</ele><time>2026-04-30T13:41:49.743Z</time></trkpt><trkpt lat="40.1132" lon="8.5825717"><ele>748.75</ele><time>2026-04-30T13:41:50.774Z</time></trkpt><trkpt lat="40.113135" lon="8.5827333"><ele>748.0</ele><time>2026-04-30T13:41:51.742Z</time></trkpt><trkpt lat="40.1130783" lon="8.582885"><ele>748.0</ele><time>2026-04-30T13:41:52.742Z</time></trkpt><trkpt lat="40.1130367" lon="8.583035"><ele>748.0</ele><time>2026-04-30T13:41:53.745Z</time></trkpt><trkpt lat="40.1129983" lon="8.5831817"><ele>748.0</ele><time>2026-04-30T13:41:54.749Z</time></trkpt><trkpt lat="40.1129683" lon="8.5833333"><ele>748.0</ele><time>2026-04-30T13:41:55.744Z</time></trkpt><trkpt lat="40.1129467" lon="8.58348"><ele>748.0</ele><time>2026-04-30T13:41:56.818Z</time></trkpt><trkpt lat="40.1129233" lon="8.5836233"><ele>748.0</ele><time>2026-04-30T13:41:57.747Z</time></trkpt><trkpt lat="40.1128967" lon="8.583775"><ele>748.0</ele><time>2026-04-30T13:41:58.747Z</time></trkpt><trkpt lat="40.1128633" lon="8.58394"><ele>748.0</ele><time>2026-04-30T13:41:59.747Z</time></trkpt><trkpt lat="40.1128267" lon="8.584095"><ele>749.0</ele><time>2026-04-30T13:42:00.744Z</time></trkpt><trkpt lat="40.112795" lon="8.5842417"><ele>750.0</ele><time>2026-04-30T13:42:01.744Z</time></trkpt><trkpt lat="40.1127517" lon="8.5843917"><ele>751.0</ele><time>2026-04-30T13:42:02.763Z</time></trkpt><trkpt lat="40.1127083" lon="8.5845383"><ele>752.0</ele><time>2026-04-30T13:42:03.741Z</time></trkpt><trkpt lat="40.112665" lon="8.58469"><ele>752.4000000000001</ele><time>2026-04-30T13:42:04.745Z</time></trkpt><trkpt lat="40.112625" lon="8.58482"><ele>752.8000000000001</ele><time>2026-04-30T13:42:05.745Z</time></trkpt><trkpt lat="40.11258" lon="8.58494"><ele>753.2</ele><time>2026-04-30T13:42:06.743Z</time></trkpt><trkpt lat="40.1125217" lon="8.5850317"><ele>753.6</ele><time>2026-04-30T13:42:07.747Z</time></trkpt><trkpt lat="40.1124567" lon="8.5851083"><ele>754.0</ele><time>2026-04-30T13:42:08.775Z</time></trkpt><trkpt lat="40.1123833" lon="8.585185"><ele>754.0</ele><time>2026-04-30T13:42:09.745Z</time></trkpt><trkpt lat="40.1123017" lon="8.58526"><ele>754.0</ele><time>2026-04-30T13:42:10.742Z</time></trkpt><trkpt lat="40.1122117" lon="8.5853267"><ele>754.0</ele><time>2026-04-30T13:42:11.743Z</time></trkpt><trkpt lat="40.11212" lon="8.5853967"><ele>754.0</ele><time>2026-04-30T13:42:12.747Z</time></trkpt><trkpt lat="40.1120117" lon="8.5854533"><ele>754.0</ele><time>2026-04-30T13:42:13.747Z</time></trkpt><trkpt lat="40.1118933" lon="8.5855033"><ele>754.25</ele><time>2026-04-30T13:42:14.774Z</time></trkpt><trkpt lat="40.11176" lon="8.5855383"><ele>754.5</ele><time>2026-04-30T13:42:15.745Z</time></trkpt><trkpt lat="40.1116267" lon="8.58558"><ele>754.75</ele><time>2026-04-30T13:42:16.746Z</time></trkpt><trkpt lat="40.1115033" lon="8.58562"><ele>755.0</ele><time>2026-04-30T13:42:17.746Z</time></trkpt><trkpt lat="40.1113733" lon="8.5856483"><ele>755.0</ele><time>2026-04-30T13:42:18.746Z</time></trkpt><trkpt lat="40.1112433" lon="8.5856783"><ele>755.0</ele><time>2026-04-30T13:42:19.748Z</time></trkpt><trkpt lat="40.1111067" lon="8.5857083"><ele>755.0</ele><time>2026-04-30T13:42:20.776Z</time></trkpt><trkpt lat="40.1109767" lon="8.58577"><ele>755.0</ele><time>2026-04-30T13:42:21.745Z</time></trkpt><trkpt lat="40.1108417" lon="8.5858417"><ele>754.25</ele><time>2026-04-30T13:42:22.748Z</time></trkpt><trkpt lat="40.11072" lon="8.5859217"><ele>753.5</ele><time>2026-04-30T13:42:23.747Z</time></trkpt><trkpt lat="40.1105883" lon="8.58602"><ele>752.75</ele><time>2026-04-30T13:42:24.746Z</time></trkpt><trkpt lat="40.1104567" lon="8.5861267"><ele>752.0</ele><time>2026-04-30T13:42:25.748Z</time></trkpt><trkpt lat="40.1103267" lon="8.58622"><ele>752.0</ele><time>2026-04-30T13:42:26.808Z</time></trkpt><trkpt lat="40.1101983" lon="8.5863217"><ele>752.0</ele><time>2026-04-30T13:42:27.74Z</time></trkpt><trkpt lat="40.1100667" lon="8.5864283"><ele>752.0</ele><time>2026-04-30T13:42:28.742Z</time></trkpt><trkpt lat="40.1099367" lon="8.5865367"><ele>749.3333333333333</ele><time>2026-04-30T13:42:29.741Z</time></trkpt><trkpt lat="40.1098083" lon="8.586645"><ele>746.6666666666666</ele><time>2026-04-30T13:42:30.741Z</time></trkpt><trkpt lat="40.1096833" lon="8.58676"><ele>744.0</ele><time>2026-04-30T13:42:31.745Z</time></trkpt><trkpt lat="40.1095533" lon="8.5868833"><ele>744.0</ele><time>2026-04-30T13:42:32.743Z</time></trkpt><trkpt lat="40.10942" lon="8.5869933"><ele>744.0</ele><time>2026-04-30T13:42:33.749Z</time></trkpt><trkpt lat="40.1092883" lon="8.5871067"><ele>744.0</ele><time>2026-04-30T13:42:34.746Z</time></trkpt><trkpt lat="40.1091683" lon="8.5872367"><ele>742.0</ele><time>2026-04-30T13:42:35.746Z</time></trkpt><trkpt lat="40.1090567" lon="8.5873617"><ele>740.0</ele><time>2026-04-30T13:42:36.746Z</time></trkpt><trkpt lat="40.1089483" lon="8.5874917"><ele>738.0</ele><time>2026-04-30T13:42:37.746Z</time></trkpt><trkpt lat="40.108835" lon="8.5876233"><ele>736.0</ele><time>2026-04-30T13:42:38.774Z</time></trkpt><trkpt lat="40.1087217" lon="8.58776"><ele>736.0</ele><time>2026-04-30T13:42:39.749Z</time></trkpt><trkpt lat="40.108605" lon="8.5879"><ele>736.0</ele><time>2026-04-30T13:42:40.743Z</time></trkpt><trkpt lat="40.1084817" lon="8.5880383"><ele>736.0</ele><time>2026-04-30T13:42:41.742Z</time></trkpt><trkpt lat="40.1083667" lon="8.5881917"><ele>736.0</ele><time>2026-04-30T13:42:42.746Z</time></trkpt><trkpt lat="40.1082467" lon="8.5883417"><ele>736.0</ele><time>2026-04-30T13:42:43.742Z</time></trkpt><trkpt lat="40.1081267" lon="8.5885083"><ele>736.0</ele><time>2026-04-30T13:42:44.775Z</time></trkpt><trkpt lat="40.108005" lon="8.5886683"><ele>733.0</ele><time>2026-04-30T13:42:45.748Z</time></trkpt><trkpt lat="40.1078783" lon="8.5888317"><ele>730.0</ele><time>2026-04-30T13:42:46.746Z</time></trkpt><trkpt lat="40.1077617" lon="8.588985"><ele>727.0</ele><time>2026-04-30T13:42:47.744Z</time></trkpt><trkpt lat="40.1076383" lon="8.5891233"><ele>727.0</ele><time>2026-04-30T13:42:48.746Z</time></trkpt><trkpt lat="40.107525" lon="8.5892633"><ele>727.0</ele><time>2026-04-30T13:42:49.745Z</time></trkpt><trkpt lat="40.107415" lon="8.5894133"><ele>727.0</ele><time>2026-04-30T13:42:50.77Z</time></trkpt><trkpt lat="40.1073083" lon="8.5895633"><ele>724.5</ele><time>2026-04-30T13:42:51.745Z</time></trkpt><trkpt lat="40.1072083" lon="8.5897117"><ele>722.0</ele><time>2026-04-30T13:42:52.744Z</time></trkpt><trkpt lat="40.10712" lon="8.5898667"><ele>719.5</ele><time>2026-04-30T13:42:53.748Z</time></trkpt><trkpt lat="40.1070433" lon="8.5900217"><ele>717.0</ele><time>2026-04-30T13:42:54.744Z</time></trkpt><trkpt lat="40.1069767" lon="8.5901833"><ele>717.0</ele><time>2026-04-30T13:42:55.745Z</time></trkpt><trkpt lat="40.106915" lon="8.59034"><ele>717.0</ele><time>2026-04-30T13:42:56.744Z</time></trkpt><trkpt lat="40.1068617" lon="8.5905017"><ele>717.0</ele><time>2026-04-30T13:42:57.75Z</time></trkpt><trkpt lat="40.1068183" lon="8.5906583"><ele>717.0</ele><time>2026-04-30T13:42:58.749Z</time></trkpt><trkpt lat="40.1067783" lon="8.59082"><ele>715.25</ele><time>2026-04-30T13:42:59.749Z</time></trkpt><trkpt lat="40.1067483" lon="8.590995"><ele>713.5</ele><time>2026-04-30T13:43:00.745Z</time></trkpt><trkpt lat="40.1067117" lon="8.591165"><ele>711.75</ele><time>2026-04-30T13:43:01.746Z</time></trkpt><trkpt lat="40.10669" lon="8.5913517"><ele>710.0</ele><time>2026-04-30T13:43:02.745Z</time></trkpt><trkpt lat="40.1066767" lon="8.5915417"><ele>708.6666666666666</ele><time>2026-04-30T13:43:03.743Z</time></trkpt><trkpt lat="40.106675" lon="8.5917383"><ele>707.3333333333334</ele><time>2026-04-30T13:43:04.744Z</time></trkpt><trkpt lat="40.1066883" lon="8.5919367"><ele>706.0</ele><time>2026-04-30T13:43:05.741Z</time></trkpt><trkpt lat="40.1067017" lon="8.5921417"><ele>704.25</ele><time>2026-04-30T13:43:06.748Z</time></trkpt><trkpt lat="40.1067167" lon="8.5923417"><ele>702.5</ele><time>2026-04-30T13:43:07.748Z</time></trkpt><trkpt lat="40.1067283" lon="8.592535"><ele>700.75</ele><time>2026-04-30T13:43:08.775Z</time></trkpt><trkpt lat="40.106745" lon="8.592725"><ele>699.0</ele><time>2026-04-30T13:43:09.744Z</time></trkpt><trkpt lat="40.1067683" lon="8.5929283"><ele>697.3333333333334</ele><time>2026-04-30T13:43:10.742Z</time></trkpt><trkpt lat="40.106785" lon="8.59312"><ele>695.6666666666667</ele><time>2026-04-30T13:43:11.745Z</time></trkpt><trkpt lat="40.1068167" lon="8.59333"><ele>694.0</ele><time>2026-04-30T13:43:12.747Z</time></trkpt><trkpt lat="40.1068433" lon="8.59353"><ele>692.0</ele><time>2026-04-30T13:43:13.749Z</time></trkpt><trkpt lat="40.106875" lon="8.59373"><ele>690.0</ele><time>2026-04-30T13:43:14.777Z</time></trkpt><trkpt lat="40.1069" lon="8.59392"><ele>688.0</ele><time>2026-04-30T13:43:15.744Z</time></trkpt><trkpt lat="40.10693" lon="8.5941167"><ele>688.0</ele><time>2026-04-30T13:43:16.746Z</time></trkpt><trkpt lat="40.1069617" lon="8.5943217"><ele>688.0</ele><time>2026-04-30T13:43:17.745Z</time></trkpt><trkpt lat="40.1069933" lon="8.5945267"><ele>688.0</ele><time>2026-04-30T13:43:18.748Z</time></trkpt><trkpt lat="40.1070283" lon="8.594735"><ele>685.3333333333334</ele><time>2026-04-30T13:43:19.746Z</time></trkpt><trkpt lat="40.10706" lon="8.5949417"><ele>682.6666666666666</ele><time>2026-04-30T13:43:20.775Z</time></trkpt><trkpt lat="40.1070883" lon="8.5951367"><ele>680.0</ele><time>2026-04-30T13:43:21.743Z</time></trkpt><trkpt lat="40.107115" lon="8.5953267"><ele>679.25</ele><time>2026-04-30T13:43:22.745Z</time></trkpt><trkpt lat="40.107145" lon="8.595505"><ele>678.5</ele><time>2026-04-30T13:43:23.744Z</time></trkpt><trkpt lat="40.10718" lon="8.59568"><ele>677.75</ele><time>2026-04-30T13:43:24.745Z</time></trkpt><trkpt lat="40.107205" lon="8.5958583"><ele>677.0</ele><time>2026-04-30T13:43:25.747Z</time></trkpt><trkpt lat="40.1072233" lon="8.5960517"><ele>677.0</ele><time>2026-04-30T13:43:26.759Z</time></trkpt><trkpt lat="40.1072233" lon="8.596255"><ele>677.0</ele><time>2026-04-30T13:43:27.745Z</time></trkpt><trkpt lat="40.1072167" lon="8.5964583"><ele>677.0</ele><time>2026-04-30T13:43:28.748Z</time></trkpt><trkpt lat="40.1072083" lon="8.5966583"><ele>677.0</ele><time>2026-04-30T13:43:29.747Z</time></trkpt><trkpt lat="40.1071983" lon="8.5968567"><ele>677.0</ele><time>2026-04-30T13:43:30.741Z</time></trkpt><trkpt lat="40.107185" lon="8.59704"><ele>677.0</ele><time>2026-04-30T13:43:31.745Z</time></trkpt><trkpt lat="40.107165" lon="8.5972"><ele>677.0</ele><time>2026-04-30T13:43:32.765Z</time></trkpt><trkpt lat="40.107125" lon="8.5972933"><ele>675.6</ele><time>2026-04-30T13:43:33.741Z</time></trkpt><trkpt lat="40.1071067" lon="8.597405"><ele>674.2</ele><time>2026-04-30T13:43:34.746Z</time></trkpt><trkpt lat="40.1071633" lon="8.5976017"><ele>672.8</ele><time>2026-04-30T13:43:36.744Z</time></trkpt><trkpt lat="40.1071983" lon="8.5977017"><ele>671.4</ele><time>2026-04-30T13:43:37.745Z</time></trkpt><trkpt lat="40.107245" lon="8.5977983"><ele>670.0</ele><time>2026-04-30T13:43:38.775Z</time></trkpt><trkpt lat="40.107255" lon="8.5979517"><ele>669.75</ele><time>2026-04-30T13:43:39.748Z</time></trkpt><trkpt lat="40.1073033" lon="8.5981067"><ele>669.5</ele><time>2026-04-30T13:43:40.749Z</time></trkpt><trkpt lat="40.10738" lon="8.59824"><ele>669.25</ele><time>2026-04-30T13:43:41.741Z</time></trkpt><trkpt lat="40.1074533" lon="8.5983933"><ele>669.0</ele><time>2026-04-30T13:43:42.742Z</time></trkpt><trkpt lat="40.1075383" lon="8.5985417"><ele>658.6666666666666</ele><time>2026-04-30T13:43:43.745Z</time></trkpt><trkpt lat="40.10763" lon="8.598685"><ele>648.3333333333333</ele><time>2026-04-30T13:43:44.776Z</time></trkpt><trkpt lat="40.1077183" lon="8.59881"><ele>638.0</ele><time>2026-04-30T13:43:45.743Z</time></trkpt><trkpt lat="40.107895" lon="8.5989067"><ele>638.0</ele><time>2026-04-30T13:43:46.742Z</time></trkpt><trkpt lat="40.108" lon="8.59905"><ele>638.0</ele><time>2026-04-30T13:43:47.743Z</time></trkpt><trkpt lat="40.1081033" lon="8.5991933"><ele>638.0</ele><time>2026-04-30T13:43:48.748Z</time></trkpt><trkpt lat="40.1082067" lon="8.5993267"><ele>638.0</ele><time>2026-04-30T13:43:49.748Z</time></trkpt><trkpt lat="40.1083" lon="8.599455"><ele>642.4</ele><time>2026-04-30T13:43:50.772Z</time></trkpt><trkpt lat="40.1083817" lon="8.5995733"><ele>646.8</ele><time>2026-04-30T13:43:51.746Z</time></trkpt><trkpt lat="40.108465" lon="8.5996667"><ele>651.2</ele><time>2026-04-30T13:43:52.747Z</time></trkpt><trkpt lat="40.1085433" lon="8.5997767"><ele>655.6</ele><time>2026-04-30T13:43:53.753Z</time></trkpt><trkpt lat="40.1086183" lon="8.599865"><ele>660.0</ele><time>2026-04-30T13:43:54.743Z</time></trkpt><trkpt lat="40.1086217" lon="8.6000333"><ele>660.0</ele><time>2026-04-30T13:43:55.741Z</time></trkpt><trkpt lat="40.1086267" lon="8.6002017"><ele>660.0</ele><time>2026-04-30T13:43:56.745Z</time></trkpt><trkpt lat="40.10861" lon="8.600395"><ele>660.0</ele><time>2026-04-30T13:43:57.741Z</time></trkpt><trkpt lat="40.1085183" lon="8.60051"><ele>660.0</ele><time>2026-04-30T13:43:58.751Z</time></trkpt><trkpt lat="40.10842" lon="8.6006717"><ele>662.6666666666666</ele><time>2026-04-30T13:43:59.747Z</time></trkpt><trkpt lat="40.1083367" lon="8.6008417"><ele>665.3333333333333</ele><time>2026-04-30T13:44:00.744Z</time></trkpt><trkpt lat="40.108245" lon="8.6010067"><ele>668.0</ele><time>2026-04-30T13:44:01.743Z</time></trkpt><trkpt lat="40.1081467" lon="8.601185"><ele>656.0</ele><time>2026-04-30T13:44:02.744Z</time></trkpt><trkpt lat="40.1080617" lon="8.6013633"><ele>644.0</ele><time>2026-04-30T13:44:03.746Z</time></trkpt><trkpt lat="40.107995" lon="8.6015383"><ele>632.0</ele><time>2026-04-30T13:44:04.748Z</time></trkpt><trkpt lat="40.107945" lon="8.601725"><ele>632.0</ele><time>2026-04-30T13:44:05.744Z</time></trkpt><trkpt lat="40.1079" lon="8.6019017"><ele>632.0</ele><time>2026-04-30T13:44:06.748Z</time></trkpt><trkpt lat="40.1078617" lon="8.6020783"><ele>632.0</ele><time>2026-04-30T13:44:07.745Z</time></trkpt><trkpt lat="40.1078233" lon="8.6022317"><ele>632.0</ele><time>2026-04-30T13:44:08.774Z</time></trkpt><trkpt lat="40.1077917" lon="8.602365"><ele>632.2</ele><time>2026-04-30T13:44:09.741Z</time></trkpt><trkpt lat="40.1077617" lon="8.602485"><ele>632.4000000000001</ele><time>2026-04-30T13:44:10.744Z</time></trkpt><trkpt lat="40.1077367" lon="8.6025983"><ele>632.5999999999999</ele><time>2026-04-30T13:44:11.747Z</time></trkpt><trkpt lat="40.1077467" lon="8.6027167"><ele>632.8</ele><time>2026-04-30T13:44:12.743Z</time></trkpt><trkpt lat="40.10778" lon="8.6028217"><ele>633.0</ele><time>2026-04-30T13:44:13.744Z</time></trkpt><trkpt lat="40.107845" lon="8.6029267"><ele>629.0</ele><time>2026-04-30T13:44:14.78Z</time></trkpt><trkpt lat="40.1079433" lon="8.6030517"><ele>625.0</ele><time>2026-04-30T13:44:15.743Z</time></trkpt><trkpt lat="40.1080333" lon="8.60317"><ele>621.0</ele><time>2026-04-30T13:44:16.747Z</time></trkpt><trkpt lat="40.1081317" lon="8.603285"><ele>617.0</ele><time>2026-04-30T13:44:17.744Z</time></trkpt><trkpt lat="40.10822" lon="8.60339"><ele>620.25</ele><time>2026-04-30T13:44:18.747Z</time></trkpt><trkpt lat="40.108305" lon="8.6035083"><ele>623.5</ele><time>2026-04-30T13:44:19.741Z</time></trkpt><trkpt lat="40.1083833" lon="8.6036333"><ele>626.75</ele><time>2026-04-30T13:44:20.774Z</time></trkpt><trkpt lat="40.108445" lon="8.60377"><ele>630.0</ele><time>2026-04-30T13:44:21.743Z</time></trkpt><trkpt lat="40.1084967" lon="8.6039133"><ele>630.0</ele><time>2026-04-30T13:44:22.743Z</time></trkpt><trkpt lat="40.10854" lon="8.60406"><ele>630.0</ele><time>2026-04-30T13:44:23.744Z</time></trkpt><trkpt lat="40.1085767" lon="8.6042117"><ele>630.0</ele><time>2026-04-30T13:44:24.746Z</time></trkpt><trkpt lat="40.1086267" lon="8.60437"><ele>630.0</ele><time>2026-04-30T13:44:25.744Z</time></trkpt><trkpt lat="40.1086483" lon="8.6045217"><ele>627.0</ele><time>2026-04-30T13:44:26.806Z</time></trkpt><trkpt lat="40.1086483" lon="8.60467"><ele>624.0</ele><time>2026-04-30T13:44:27.744Z</time></trkpt><trkpt lat="40.1086717" lon="8.6048183"><ele>621.0</ele><time>2026-04-30T13:44:28.747Z</time></trkpt><trkpt lat="40.1087033" lon="8.604965"><ele>618.0</ele><time>2026-04-30T13:44:29.741Z</time></trkpt><trkpt lat="40.1087233" lon="8.6051067"><ele>618.0</ele><time>2026-04-30T13:44:30.746Z</time></trkpt><trkpt lat="40.1087483" lon="8.6052433"><ele>618.0</ele><time>2026-04-30T13:44:31.745Z</time></trkpt><trkpt lat="40.1088" lon="8.6053967"><ele>618.0</ele><time>2026-04-30T13:44:32.744Z</time></trkpt><trkpt lat="40.108855" lon="8.60555"><ele>618.0</ele><time>2026-04-30T13:44:33.745Z</time></trkpt><trkpt lat="40.1089283" lon="8.6056617"><ele>616.1999999999999</ele><time>2026-04-30T13:44:34.746Z</time></trkpt><trkpt lat="40.1089717" lon="8.6058033"><ele>614.4</ele><time>2026-04-30T13:44:35.742Z</time></trkpt><trkpt lat="40.1090167" lon="8.6059383"><ele>612.5999999999999</ele><time>2026-04-30T13:44:36.744Z</time></trkpt><trkpt lat="40.109065" lon="8.6060683"><ele>610.8</ele><time>2026-04-30T13:44:37.746Z</time></trkpt><trkpt lat="40.1091117" lon="8.6061733"><ele>609.0</ele><time>2026-04-30T13:44:38.772Z</time></trkpt><trkpt lat="40.1091583" lon="8.6062633"><ele>609.0</ele><time>2026-04-30T13:44:39.744Z</time></trkpt><trkpt lat="40.1092017" lon="8.6063267"><ele>609.0</ele><time>2026-04-30T13:44:40.747Z</time></trkpt><trkpt lat="40.1092517" lon="8.6063917"><ele>609.0</ele><time>2026-04-30T13:44:41.744Z</time></trkpt><trkpt lat="40.1093033" lon="8.6064433"><ele>609.0</ele><time>2026-04-30T13:44:42.746Z</time></trkpt><trkpt lat="40.10936" lon="8.6064883"><ele>609.0</ele><time>2026-04-30T13:44:43.74Z</time></trkpt><trkpt lat="40.10942" lon="8.6065167"><ele>609.0</ele><time>2026-04-30T13:44:44.773Z</time></trkpt><trkpt lat="40.1095017" lon="8.6065367"><ele>609.0</ele><time>2026-04-30T13:44:45.742Z</time></trkpt><trkpt lat="40.1096067" lon="8.6065383"><ele>609.0</ele><time>2026-04-30T13:44:46.746Z</time></trkpt><trkpt lat="40.1097033" lon="8.60656"><ele>609.0</ele><time>2026-04-30T13:44:47.742Z</time></trkpt><trkpt lat="40.1098217" lon="8.6065867"><ele>609.0</ele><time>2026-04-30T13:44:48.744Z</time></trkpt><trkpt lat="40.10994" lon="8.606605"><ele>609.0</ele><time>2026-04-30T13:44:49.744Z</time></trkpt><trkpt lat="40.110065" lon="8.6066183"><ele>610.5</ele><time>2026-04-30T13:44:50.775Z</time></trkpt><trkpt lat="40.1101883" lon="8.6066133"><ele>612.0</ele><time>2026-04-30T13:44:51.747Z</time></trkpt><trkpt lat="40.1103133" lon="8.606625"><ele>613.5</ele><time>2026-04-30T13:44:52.744Z</time></trkpt><trkpt lat="40.1104517" lon="8.6066667"><ele>615.0</ele><time>2026-04-30T13:44:53.745Z</time></trkpt><trkpt lat="40.1105883" lon="8.6067333"><ele>615.0</ele><time>2026-04-30T13:44:54.748Z</time></trkpt><trkpt lat="40.1107283" lon="8.6068017"><ele>615.0</ele><time>2026-04-30T13:44:55.745Z</time></trkpt><trkpt lat="40.11087" lon="8.60688"><ele>615.0</ele><time>2026-04-30T13:44:56.804Z</time></trkpt><trkpt lat="40.1110117" lon="8.6069517"><ele>617.5</ele><time>2026-04-30T13:44:57.746Z</time></trkpt><trkpt lat="40.1111517" lon="8.60702"><ele>620.0</ele><time>2026-04-30T13:44:58.744Z</time></trkpt><trkpt lat="40.1112783" lon="8.6070717"><ele>622.5</ele><time>2026-04-30T13:44:59.748Z</time></trkpt><trkpt lat="40.1113917" lon="8.6071267"><ele>625.0</ele><time>2026-04-30T13:45:00.746Z</time></trkpt><trkpt lat="40.1115167" lon="8.607175"><ele>629.5</ele><time>2026-04-30T13:45:01.741Z</time></trkpt><trkpt lat="40.1116367" lon="8.6072033"><ele>634.0</ele><time>2026-04-30T13:45:02.748Z</time></trkpt><trkpt lat="40.1117567" lon="8.6072617"><ele>638.5</ele><time>2026-04-30T13:45:03.743Z</time></trkpt><trkpt lat="40.111875" lon="8.6073283"><ele>643.0</ele><time>2026-04-30T13:45:04.745Z</time></trkpt><trkpt lat="40.111965" lon="8.6073983"><ele>643.0</ele><time>2026-04-30T13:45:05.746Z</time></trkpt><trkpt lat="40.112" lon="8.6075033"><ele>643.0</ele><time>2026-04-30T13:45:06.745Z</time></trkpt><trkpt lat="40.11199" lon="8.6076167"><ele>643.0</ele><time>2026-04-30T13:45:07.743Z</time></trkpt><trkpt lat="40.1119467" lon="8.6077533"><ele>643.0</ele><time>2026-04-30T13:45:08.77Z</time></trkpt><trkpt lat="40.1118733" lon="8.6078917"><ele>643.0</ele><time>2026-04-30T13:45:09.741Z</time></trkpt><trkpt lat="40.11179" lon="8.607915"><ele>641.25</ele><time>2026-04-30T13:45:10.744Z</time></trkpt><trkpt lat="40.1116383" lon="8.6078417"><ele>639.5</ele><time>2026-04-30T13:45:11.745Z</time></trkpt><trkpt lat="40.1114933" lon="8.6078317"><ele>637.75</ele><time>2026-04-30T13:45:12.746Z</time></trkpt><trkpt lat="40.1113517" lon="8.607815"><ele>636.0</ele><time>2026-04-30T13:45:13.742Z</time></trkpt><trkpt lat="40.111235" lon="8.6078617"><ele>636.0</ele><time>2026-04-30T13:45:14.774Z</time></trkpt><trkpt lat="40.1111317" lon="8.607915"><ele>636.0</ele><time>2026-04-30T13:45:15.743Z</time></trkpt><trkpt lat="40.1110383" lon="8.6079717"><ele>636.0</ele><time>2026-04-30T13:45:16.747Z</time></trkpt><trkpt lat="40.1109433" lon="8.60803"><ele>636.0</ele><time>2026-04-30T13:45:17.741Z</time></trkpt><trkpt lat="40.1108483" lon="8.6080967"><ele>636.0</ele><time>2026-04-30T13:45:18.747Z</time></trkpt><trkpt lat="40.1107667" lon="8.6081717"><ele>631.6666666666666</ele><time>2026-04-30T13:45:19.746Z</time></trkpt><trkpt lat="40.1107" lon="8.6082483"><ele>627.3333333333334</ele><time>2026-04-30T13:45:20.772Z</time></trkpt><trkpt lat="40.1106383" lon="8.6083333"><ele>623.0</ele><time>2026-04-30T13:45:21.741Z</time></trkpt><trkpt lat="40.1105833" lon="8.6084217"><ele>618.6666666666667</ele><time>2026-04-30T13:45:22.745Z</time></trkpt><trkpt lat="40.1105383" lon="8.6085117"><ele>614.3333333333334</ele><time>2026-04-30T13:45:23.742Z</time></trkpt><trkpt lat="40.110485" lon="8.6085833"><ele>610.0</ele><time>2026-04-30T13:45:24.748Z</time></trkpt><trkpt lat="40.110445" lon="8.608665"><ele>609.8571428571429</ele><time>2026-04-30T13:45:25.742Z</time></trkpt><trkpt lat="40.1104083" lon="8.608745"><ele>609.7142857142857</ele><time>2026-04-30T13:45:26.747Z</time></trkpt><trkpt lat="40.11038" lon="8.6088283"><ele>609.5714285714286</ele><time>2026-04-30T13:45:27.742Z</time></trkpt><trkpt lat="40.1103517" lon="8.6089117"><ele>609.4285714285714</ele><time>2026-04-30T13:45:28.742Z</time></trkpt><trkpt lat="40.1103317" lon="8.609"><ele>609.2857142857142</ele><time>2026-04-30T13:45:29.743Z</time></trkpt><trkpt lat="40.1103183" lon="8.6090917"><ele>609.1428571428571</ele><time>2026-04-30T13:45:30.746Z</time></trkpt><trkpt lat="40.1103067" lon="8.6091867"><ele>609.0</ele><time>2026-04-30T13:45:31.745Z</time></trkpt><trkpt lat="40.110295" lon="8.6092817"><ele>609.0</ele><time>2026-04-30T13:45:32.743Z</time></trkpt><trkpt lat="40.110285" lon="8.609375"><ele>609.0</ele><time>2026-04-30T13:45:33.745Z</time></trkpt><trkpt lat="40.110275" lon="8.60947"><ele>609.0</ele><time>2026-04-30T13:45:34.747Z</time></trkpt><trkpt lat="40.1102633" lon="8.609565"><ele>609.0</ele><time>2026-04-30T13:45:35.747Z</time></trkpt><trkpt lat="40.1102533" lon="8.60966"><ele>609.0</ele><time>2026-04-30T13:45:36.747Z</time></trkpt><trkpt lat="40.1102467" lon="8.6097617"><ele>609.0</ele><time>2026-04-30T13:45:37.743Z</time></trkpt><trkpt lat="40.1102417" lon="8.6098717"><ele>608.2</ele><time>2026-04-30T13:45:38.77Z</time></trkpt><trkpt lat="40.11024" lon="8.6099883"><ele>607.4</ele><time>2026-04-30T13:45:39.742Z</time></trkpt><trkpt lat="40.11024" lon="8.6101133"><ele>606.6</ele><time>2026-04-30T13:45:40.748Z</time></trkpt><trkpt lat="40.1102383" lon="8.6102483"><ele>605.8</ele><time>2026-04-30T13:45:41.746Z</time></trkpt><trkpt lat="40.110235" lon="8.6103883"><ele>605.0</ele><time>2026-04-30T13:45:42.746Z</time></trkpt><trkpt lat="40.11023" lon="8.6105333"><ele>603.8</ele><time>2026-04-30T13:45:43.748Z</time></trkpt><trkpt lat="40.1102317" lon="8.6106767"><ele>602.6</ele><time>2026-04-30T13:45:44.766Z</time></trkpt><trkpt lat="40.1102333" lon="8.6108183"><ele>601.4</ele><time>2026-04-30T13:45:45.744Z</time></trkpt><trkpt lat="40.1102467" lon="8.6109667"><ele>600.2</ele><time>2026-04-30T13:45:46.751Z</time></trkpt><trkpt lat="40.11027" lon="8.611115"><ele>599.0</ele><time>2026-04-30T13:45:47.747Z</time></trkpt><trkpt lat="40.1103033" lon="8.6112617"><ele>596.75</ele><time>2026-04-30T13:45:48.747Z</time></trkpt><trkpt lat="40.11035" lon="8.61141"><ele>594.5</ele><time>2026-04-30T13:45:49.745Z</time></trkpt><trkpt lat="40.1104083" lon="8.6115533"><ele>592.25</ele><time>2026-04-30T13:45:50.773Z</time></trkpt><trkpt lat="40.11048" lon="8.6116883"><ele>590.0</ele><time>2026-04-30T13:45:51.749Z</time></trkpt><trkpt lat="40.110555" lon="8.6118233"><ele>590.0</ele><time>2026-04-30T13:45:52.743Z</time></trkpt><trkpt lat="40.11063" lon="8.6119617"><ele>590.0</ele><time>2026-04-30T13:45:53.748Z</time></trkpt><trkpt lat="40.11069" lon="8.6121117"><ele>590.0</ele><time>2026-04-30T13:45:54.751Z</time></trkpt><trkpt lat="40.11073" lon="8.6122733"><ele>590.0</ele><time>2026-04-30T13:45:55.744Z</time></trkpt><trkpt lat="40.11075" lon="8.61245"><ele>588.75</ele><time>2026-04-30T13:45:56.801Z</time></trkpt><trkpt lat="40.1107617" lon="8.61262"><ele>587.5</ele><time>2026-04-30T13:45:57.743Z</time></trkpt><trkpt lat="40.1107817" lon="8.6127833"><ele>586.25</ele><time>2026-04-30T13:45:58.746Z</time></trkpt><trkpt lat="40.1108133" lon="8.6129433"><ele>585.0</ele><time>2026-04-30T13:45:59.744Z</time></trkpt><trkpt lat="40.1108583" lon="8.6130833"><ele>585.0</ele><time>2026-04-30T13:46:00.747Z</time></trkpt><trkpt lat="40.110925" lon="8.6132283"><ele>585.0</ele><time>2026-04-30T13:46:01.743Z</time></trkpt><trkpt lat="40.1110033" lon="8.6133833"><ele>585.0</ele><time>2026-04-30T13:46:02.752Z</time></trkpt><trkpt lat="40.1110917" lon="8.61351"><ele>585.0</ele><time>2026-04-30T13:46:03.746Z</time></trkpt><trkpt lat="40.111185" lon="8.6136183"><ele>580.75</ele><time>2026-04-30T13:46:04.746Z</time></trkpt><trkpt lat="40.1112783" lon="8.6137233"><ele>576.5</ele><time>2026-04-30T13:46:05.751Z</time></trkpt><trkpt lat="40.1113983" lon="8.6137733"><ele>572.25</ele><time>2026-04-30T13:46:06.752Z</time></trkpt><trkpt lat="40.1115017" lon="8.6137933"><ele>568.0</ele><time>2026-04-30T13:46:07.75Z</time></trkpt><trkpt lat="40.1116067" lon="8.6138233"><ele>568.0</ele><time>2026-04-30T13:46:08.77Z</time></trkpt><trkpt lat="40.1117367" lon="8.61379"><ele>568.0</ele><time>2026-04-30T13:46:09.743Z</time></trkpt><trkpt lat="40.1118717" lon="8.6137083"><ele>568.0</ele><time>2026-04-30T13:46:10.745Z</time></trkpt><trkpt lat="40.1120133" lon="8.6136117"><ele>568.0</ele><time>2026-04-30T13:46:11.748Z</time></trkpt><trkpt lat="40.1121667" lon="8.6134883"><ele>571.25</ele><time>2026-04-30T13:46:12.747Z</time></trkpt><trkpt lat="40.1122983" lon="8.61342"><ele>574.5</ele><time>2026-04-30T13:46:13.747Z</time></trkpt><trkpt lat="40.1124217" lon="8.6133683"><ele>577.75</ele><time>2026-04-30T13:46:14.769Z</time></trkpt><trkpt lat="40.112535" lon="8.61333"><ele>581.0</ele><time>2026-04-30T13:46:15.743Z</time></trkpt><trkpt lat="40.1126467" lon="8.6133117"><ele>581.0</ele><time>2026-04-30T13:46:16.747Z</time></trkpt><trkpt lat="40.1127567" lon="8.613305"><ele>581.0</ele><time>2026-04-30T13:46:17.741Z</time></trkpt><trkpt lat="40.1128583" lon="8.6133183"><ele>581.0</ele><time>2026-04-30T13:46:18.75Z</time></trkpt><trkpt lat="40.1129533" lon="8.6133533"><ele>581.0</ele><time>2026-04-30T13:46:19.749Z</time></trkpt><trkpt lat="40.1130283" lon="8.613415"><ele>581.0</ele><time>2026-04-30T13:46:20.768Z</time></trkpt><trkpt lat="40.1130917" lon="8.6134717"><ele>581.0</ele><time>2026-04-30T13:46:21.747Z</time></trkpt><trkpt lat="40.1131633" lon="8.613525"><ele>581.0</ele><time>2026-04-30T13:46:22.744Z</time></trkpt><trkpt lat="40.1132083" lon="8.6135917"><ele>581.0</ele><time>2026-04-30T13:46:23.742Z</time></trkpt><trkpt lat="40.11311" lon="8.6137133"><ele>581.0</ele><time>2026-04-30T13:46:25.741Z</time></trkpt><trkpt lat="40.113055" lon="8.6137967"><ele>581.0</ele><time>2026-04-30T13:46:26.804Z</time></trkpt><trkpt lat="40.1129567" lon="8.6138833"><ele>581.0</ele><time>2026-04-30T13:46:27.742Z</time></trkpt><trkpt lat="40.1128183" lon="8.613975"><ele>581.0</ele><time>2026-04-30T13:46:28.739Z</time></trkpt><trkpt lat="40.1126367" lon="8.61409"><ele>581.0</ele><time>2026-04-30T13:46:29.741Z</time></trkpt><trkpt lat="40.1124367" lon="8.6143483"><ele>578.0</ele><time>2026-04-30T13:46:30.746Z</time></trkpt><trkpt lat="40.1122617" lon="8.6145217"><ele>575.0</ele><time>2026-04-30T13:46:31.744Z</time></trkpt><trkpt lat="40.1120917" lon="8.6147217"><ele>572.0</ele><time>2026-04-30T13:46:32.746Z</time></trkpt><trkpt lat="40.1118283" lon="8.614995"><ele>572.0</ele><time>2026-04-30T13:46:33.746Z</time></trkpt><trkpt lat="40.1116567" lon="8.6151883"><ele>572.0</ele><time>2026-04-30T13:46:34.749Z</time></trkpt><trkpt lat="40.1114983" lon="8.615385"><ele>572.0</ele><time>2026-04-30T13:46:35.744Z</time></trkpt><trkpt lat="40.111345" lon="8.6155767"><ele>573.0</ele><time>2026-04-30T13:46:36.749Z</time></trkpt><trkpt lat="40.1111883" lon="8.6157817"><ele>574.0</ele><time>2026-04-30T13:46:37.743Z</time></trkpt><trkpt lat="40.1110667" lon="8.6159617"><ele>575.0</ele><time>2026-04-30T13:46:38.766Z</time></trkpt><trkpt lat="40.1109683" lon="8.61616"><ele>575.0</ele><time>2026-04-30T13:46:39.745Z</time></trkpt><trkpt lat="40.1108967" lon="8.6163517"><ele>575.0</ele><time>2026-04-30T13:46:40.743Z</time></trkpt><trkpt lat="40.1108317" lon="8.6165467"><ele>575.0</ele><time>2026-04-30T13:46:41.741Z</time></trkpt><trkpt lat="40.110775" lon="8.61673"><ele>574.5</ele><time>2026-04-30T13:46:42.746Z</time></trkpt><trkpt lat="40.1107233" lon="8.6169033"><ele>574.0</ele><time>2026-04-30T13:46:43.745Z</time></trkpt><trkpt lat="40.1106783" lon="8.6170617"><ele>573.5</ele><time>2026-04-30T13:46:44.768Z</time></trkpt><trkpt lat="40.1106433" lon="8.6172167"><ele>573.0</ele><time>2026-04-30T13:46:45.746Z</time></trkpt><trkpt lat="40.1106233" lon="8.6173733"><ele>573.0</ele><time>2026-04-30T13:46:46.753Z</time></trkpt><trkpt lat="40.1106267" lon="8.6175367"><ele>573.0</ele><time>2026-04-30T13:46:47.743Z</time></trkpt><trkpt lat="40.1106567" lon="8.6177167"><ele>573.0</ele><time>2026-04-30T13:46:48.746Z</time></trkpt><trkpt lat="40.11072" lon="8.6178983"><ele>573.0</ele><time>2026-04-30T13:46:49.746Z</time></trkpt><trkpt lat="40.1108067" lon="8.61807"><ele>572.3333333333334</ele><time>2026-04-30T13:46:50.766Z</time></trkpt><trkpt lat="40.1108933" lon="8.6182467"><ele>571.6666666666667</ele><time>2026-04-30T13:46:51.745Z</time></trkpt><trkpt lat="40.1109583" lon="8.6184383"><ele>571.0</ele><time>2026-04-30T13:46:52.748Z</time></trkpt><trkpt lat="40.1110283" lon="8.6186"><ele>570.0</ele><time>2026-04-30T13:46:53.746Z</time></trkpt><trkpt lat="40.1111" lon="8.618755"><ele>569.0</ele><time>2026-04-30T13:46:54.744Z</time></trkpt><trkpt lat="40.111185" lon="8.618895"><ele>568.0</ele><time>2026-04-30T13:46:55.746Z</time></trkpt><trkpt lat="40.1112467" lon="8.619015"><ele>567.0</ele><time>2026-04-30T13:46:56.809Z</time></trkpt><trkpt lat="40.11126" lon="8.61922"><ele>567.0</ele><time>2026-04-30T13:46:57.745Z</time></trkpt><trkpt lat="40.1112783" lon="8.6193833"><ele>567.0</ele><time>2026-04-30T13:46:58.746Z</time></trkpt><trkpt lat="40.111265" lon="8.6195133"><ele>567.0</ele><time>2026-04-30T13:46:59.747Z</time></trkpt><trkpt lat="40.1112317" lon="8.6196483"><ele>567.0</ele><time>2026-04-30T13:47:00.749Z</time></trkpt><trkpt lat="40.11117" lon="8.6198017"><ele>568.25</ele><time>2026-04-30T13:47:01.747Z</time></trkpt><trkpt lat="40.1110867" lon="8.6199133"><ele>569.5</ele><time>2026-04-30T13:47:02.814Z</time></trkpt><trkpt lat="40.1109433" lon="8.6199683"><ele>570.75</ele><time>2026-04-30T13:47:03.744Z</time></trkpt><trkpt lat="40.1107983" lon="8.6200417"><ele>572.0</ele><time>2026-04-30T13:47:04.743Z</time></trkpt><trkpt lat="40.1106417" lon="8.620115"><ele>570.0</ele><time>2026-04-30T13:47:05.743Z</time></trkpt><trkpt lat="40.1104933" lon="8.6202"><ele>568.0</ele><time>2026-04-30T13:47:06.745Z</time></trkpt><trkpt lat="40.110365" lon="8.6202867"><ele>566.0</ele><time>2026-04-30T13:47:07.742Z</time></trkpt><trkpt lat="40.110215" lon="8.6203583"><ele>566.0</ele><time>2026-04-30T13:47:08.767Z</time></trkpt><trkpt lat="40.1100683" lon="8.6204283"><ele>566.0</ele><time>2026-04-30T13:47:09.741Z</time></trkpt><trkpt lat="40.109915" lon="8.6204917"><ele>566.0</ele><time>2026-04-30T13:47:10.743Z</time></trkpt><trkpt lat="40.10969" lon="8.6205583"><ele>561.3333333333333</ele><time>2026-04-30T13:47:11.746Z</time></trkpt><trkpt lat="40.109515" lon="8.6205883"><ele>556.6666666666666</ele><time>2026-04-30T13:47:12.749Z</time></trkpt><trkpt lat="40.1093817" lon="8.6206617"><ele>552.0</ele><time>2026-04-30T13:47:13.746Z</time></trkpt><trkpt lat="40.109245" lon="8.620735"><ele>552.0</ele><time>2026-04-30T13:47:14.77Z</time></trkpt><trkpt lat="40.109125" lon="8.6208333"><ele>552.0</ele><time>2026-04-30T13:47:15.744Z</time></trkpt><trkpt lat="40.1090133" lon="8.6209583"><ele>552.0</ele><time>2026-04-30T13:47:16.743Z</time></trkpt><trkpt lat="40.1088983" lon="8.6210467"><ele>552.0</ele><time>2026-04-30T13:47:17.745Z</time></trkpt><trkpt lat="40.108785" lon="8.6211317"><ele>549.5</ele><time>2026-04-30T13:47:18.746Z</time></trkpt><trkpt lat="40.1086683" lon="8.6212267"><ele>547.0</ele><time>2026-04-30T13:47:19.745Z</time></trkpt><trkpt lat="40.108555" lon="8.6213333"><ele>544.5</ele><time>2026-04-30T13:47:20.77Z</time></trkpt><trkpt lat="40.108435" lon="8.6214733"><ele>542.0</ele><time>2026-04-30T13:47:21.745Z</time></trkpt><trkpt lat="40.1083217" lon="8.6215983"><ele>539.75</ele><time>2026-04-30T13:47:22.745Z</time></trkpt><trkpt lat="40.10821" lon="8.6217267"><ele>537.5</ele><time>2026-04-30T13:47:23.746Z</time></trkpt><trkpt lat="40.1081017" lon="8.6218583"><ele>535.25</ele><time>2026-04-30T13:47:24.746Z</time></trkpt><trkpt lat="40.1079917" lon="8.6219817"><ele>533.0</ele><time>2026-04-30T13:47:25.745Z</time></trkpt><trkpt lat="40.1078817" lon="8.6221083"><ele>533.0</ele><time>2026-04-30T13:47:26.804Z</time></trkpt><trkpt lat="40.10778" lon="8.6222267"><ele>533.0</ele><time>2026-04-30T13:47:27.749Z</time></trkpt><trkpt lat="40.1076817" lon="8.6223433"><ele>533.0</ele><time>2026-04-30T13:47:28.746Z</time></trkpt><trkpt lat="40.1075917" lon="8.6224483"><ele>533.0</ele><time>2026-04-30T13:47:29.741Z</time></trkpt><trkpt lat="40.1074983" lon="8.6225367"><ele>533.0</ele><time>2026-04-30T13:47:30.749Z</time></trkpt><trkpt lat="40.1074133" lon="8.6226183"><ele>533.0</ele><time>2026-04-30T13:47:31.745Z</time></trkpt><trkpt lat="40.1073433" lon="8.6226933"><ele>533.0</ele><time>2026-04-30T13:47:32.743Z</time></trkpt><trkpt lat="40.107235" lon="8.622715"><ele>533.0</ele><time>2026-04-30T13:47:33.746Z</time></trkpt><trkpt lat="40.1071183" lon="8.6226583"><ele>533.0</ele><time>2026-04-30T13:47:34.743Z</time></trkpt><trkpt lat="40.107025" lon="8.62259"><ele>530.0</ele><time>2026-04-30T13:47:35.742Z</time></trkpt><trkpt lat="40.1069117" lon="8.6224533"><ele>527.0</ele><time>2026-04-30T13:47:36.747Z</time></trkpt><trkpt lat="40.1068" lon="8.6223083"><ele>524.0</ele><time>2026-04-30T13:47:37.747Z</time></trkpt><trkpt lat="40.1066667" lon="8.6221317"><ele>523.3333333333333</ele><time>2026-04-30T13:47:38.768Z</time></trkpt><trkpt lat="40.1065533" lon="8.6219567"><ele>522.6666666666666</ele><time>2026-04-30T13:47:39.743Z</time></trkpt><trkpt lat="40.1064483" lon="8.6218017"><ele>522.0</ele><time>2026-04-30T13:47:40.755Z</time></trkpt><trkpt lat="40.1063367" lon="8.6216867"><ele>522.0</ele><time>2026-04-30T13:47:41.744Z</time></trkpt><trkpt lat="40.10623" lon="8.62159"><ele>522.0</ele><time>2026-04-30T13:47:42.745Z</time></trkpt><trkpt lat="40.106135" lon="8.621545"><ele>522.0</ele><time>2026-04-30T13:47:43.743Z</time></trkpt><trkpt lat="40.1060383" lon="8.6215283"><ele>522.0</ele><time>2026-04-30T13:47:44.766Z</time></trkpt><trkpt lat="40.105945" lon="8.6215633"><ele>522.0</ele><time>2026-04-30T13:47:45.744Z</time></trkpt><trkpt lat="40.1058617" lon="8.6216067"><ele>522.0</ele><time>2026-04-30T13:47:46.747Z</time></trkpt><trkpt lat="40.1057733" lon="8.621705"><ele>522.0</ele><time>2026-04-30T13:47:47.745Z</time></trkpt><trkpt lat="40.105675" lon="8.6217633"><ele>522.0</ele><time>2026-04-30T13:47:48.74Z</time></trkpt><trkpt lat="40.1055833" lon="8.621865"><ele>522.0</ele><time>2026-04-30T13:47:49.746Z</time></trkpt><trkpt lat="40.1054783" lon="8.62195"><ele>518.5</ele><time>2026-04-30T13:47:50.769Z</time></trkpt><trkpt lat="40.10537" lon="8.6220133"><ele>515.0</ele><time>2026-04-30T13:47:51.743Z</time></trkpt><trkpt lat="40.105265" lon="8.6220683"><ele>511.5</ele><time>2026-04-30T13:47:52.744Z</time></trkpt><trkpt lat="40.1051633" lon="8.6220767"><ele>508.0</ele><time>2026-04-30T13:47:53.743Z</time></trkpt><trkpt lat="40.105045" lon="8.6220567"><ele>508.0</ele><time>2026-04-30T13:47:54.746Z</time></trkpt><trkpt lat="40.1049467" lon="8.6220267"><ele>507.99999999999994</ele><time>2026-04-30T13:47:55.743Z</time></trkpt><trkpt lat="40.10484" lon="8.6219633"><ele>507.99999999999994</ele><time>2026-04-30T13:47:56.768Z</time></trkpt><trkpt lat="40.1047483" lon="8.6218883"><ele>508.0</ele><time>2026-04-30T13:47:57.747Z</time></trkpt><trkpt lat="40.1046517" lon="8.6218617"><ele>508.0</ele><time>2026-04-30T13:47:58.748Z</time></trkpt><trkpt lat="40.1045567" lon="8.621865"><ele>508.0</ele><time>2026-04-30T13:47:59.745Z</time></trkpt><trkpt lat="40.1044567" lon="8.6218667"><ele>508.0</ele><time>2026-04-30T13:48:00.746Z</time></trkpt><trkpt lat="40.104345" lon="8.62189"><ele>508.0</ele><time>2026-04-30T13:48:01.741Z</time></trkpt><trkpt lat="40.10423" lon="8.6219383"><ele>508.0</ele><time>2026-04-30T13:48:02.765Z</time></trkpt><trkpt lat="40.1041083" lon="8.6219917"><ele>504.25</ele><time>2026-04-30T13:48:03.742Z</time></trkpt><trkpt lat="40.1039817" lon="8.6220633"><ele>500.5</ele><time>2026-04-30T13:48:04.746Z</time></trkpt><trkpt lat="40.1038633" lon="8.6221133"><ele>496.75</ele><time>2026-04-30T13:48:05.744Z</time></trkpt><trkpt lat="40.1037383" lon="8.6221883"><ele>493.0</ele><time>2026-04-30T13:48:06.744Z</time></trkpt><trkpt lat="40.1036233" lon="8.622225"><ele>493.0</ele><time>2026-04-30T13:48:07.747Z</time></trkpt><trkpt lat="40.103505" lon="8.62223"><ele>493.0</ele><time>2026-04-30T13:48:08.767Z</time></trkpt><trkpt lat="40.103385" lon="8.622215"><ele>493.0</ele><time>2026-04-30T13:48:09.746Z</time></trkpt><trkpt lat="40.103255" lon="8.6221683"><ele>493.0</ele><time>2026-04-30T13:48:10.745Z</time></trkpt><trkpt lat="40.1031133" lon="8.62211"><ele>491.0</ele><time>2026-04-30T13:48:11.741Z</time></trkpt><trkpt lat="40.102965" lon="8.62204"><ele>489.0</ele><time>2026-04-30T13:48:12.745Z</time></trkpt><trkpt lat="40.1028167" lon="8.62197"><ele>487.0</ele><time>2026-04-30T13:48:13.744Z</time></trkpt><trkpt lat="40.102665" lon="8.6219"><ele>487.0</ele><time>2026-04-30T13:48:14.768Z</time></trkpt><trkpt lat="40.1025083" lon="8.6218283"><ele>487.0</ele><time>2026-04-30T13:48:15.744Z</time></trkpt><trkpt lat="40.1023533" lon="8.621755"><ele>487.0</ele><time>2026-04-30T13:48:16.744Z</time></trkpt><trkpt lat="40.1022" lon="8.6216783"><ele>483.6666666666667</ele><time>2026-04-30T13:48:17.747Z</time></trkpt><trkpt lat="40.10205" lon="8.6215983"><ele>480.33333333333337</ele><time>2026-04-30T13:48:18.745Z</time></trkpt><trkpt lat="40.1018983" lon="8.6215217"><ele>477.0</ele><time>2026-04-30T13:48:19.745Z</time></trkpt><trkpt lat="40.1017383" lon="8.6214367"><ele>473.0</ele><time>2026-04-30T13:48:20.768Z</time></trkpt><trkpt lat="40.101575" lon="8.6213533"><ele>469.0</ele><time>2026-04-30T13:48:21.741Z</time></trkpt><trkpt lat="40.101415" lon="8.6212783"><ele>465.0</ele><time>2026-04-30T13:48:22.747Z</time></trkpt><trkpt lat="40.1012717" lon="8.6212017"><ele>463.75</ele><time>2026-04-30T13:48:23.74Z</time></trkpt><trkpt lat="40.1011383" lon="8.621125"><ele>462.5</ele><time>2026-04-30T13:48:24.742Z</time></trkpt><trkpt lat="40.10101" lon="8.62106"><ele>461.25</ele><time>2026-04-30T13:48:25.74Z</time></trkpt><trkpt lat="40.100855" lon="8.6210233"><ele>460.0</ele><time>2026-04-30T13:48:26.745Z</time></trkpt><trkpt lat="40.1007" lon="8.6209883"><ele>456.0</ele><time>2026-04-30T13:48:27.748Z</time></trkpt><trkpt lat="40.1005483" lon="8.62098"><ele>452.0</ele><time>2026-04-30T13:48:28.743Z</time></trkpt><trkpt lat="40.1003867" lon="8.620985"><ele>448.0</ele><time>2026-04-30T13:48:29.746Z</time></trkpt><trkpt lat="40.100245" lon="8.6210017"><ele>448.0</ele><time>2026-04-30T13:48:30.742Z</time></trkpt><trkpt lat="40.1000833" lon="8.6210033"><ele>448.0</ele><time>2026-04-30T13:48:31.743Z</time></trkpt><trkpt lat="40.099945" lon="8.6210017"><ele>448.0</ele><time>2026-04-30T13:48:32.742Z</time></trkpt><trkpt lat="40.0997933" lon="8.6210083"><ele>445.5</ele><time>2026-04-30T13:48:33.744Z</time></trkpt><trkpt lat="40.0996533" lon="8.6210217"><ele>443.0</ele><time>2026-04-30T13:48:34.746Z</time></trkpt><trkpt lat="40.0995217" lon="8.6210317"><ele>440.5</ele><time>2026-04-30T13:48:35.741Z</time></trkpt><trkpt lat="40.099395" lon="8.6210383"><ele>438.0</ele><time>2026-04-30T13:48:36.744Z</time></trkpt><trkpt lat="40.0992633" lon="8.621035"><ele>438.0</ele><time>2026-04-30T13:48:37.744Z</time></trkpt><trkpt lat="40.0991483" lon="8.6210533"><ele>437.99999999999994</ele><time>2026-04-30T13:48:38.766Z</time></trkpt><trkpt lat="40.09904" lon="8.62107"><ele>437.99999999999994</ele><time>2026-04-30T13:48:39.745Z</time></trkpt><trkpt lat="40.098945" lon="8.6211167"><ele>438.0</ele><time>2026-04-30T13:48:40.747Z</time></trkpt><trkpt lat="40.0988583" lon="8.6212067"><ele>438.0</ele><time>2026-04-30T13:48:41.747Z</time></trkpt><trkpt lat="40.0987633" lon="8.621315"><ele>435.75</ele><time>2026-04-30T13:48:42.747Z</time></trkpt><trkpt lat="40.09869" lon="8.6214517"><ele>433.5</ele><time>2026-04-30T13:48:43.743Z</time></trkpt><trkpt lat="40.098615" lon="8.62162"><ele>431.25</ele><time>2026-04-30T13:48:44.768Z</time></trkpt><trkpt lat="40.0985517" lon="8.6217833"><ele>429.0</ele><time>2026-04-30T13:48:45.745Z</time></trkpt><trkpt lat="40.0984833" lon="8.6219633"><ele>428.66666666666663</ele><time>2026-04-30T13:48:46.747Z</time></trkpt><trkpt lat="40.0984433" lon="8.6221633"><ele>428.3333333333333</ele><time>2026-04-30T13:48:47.746Z</time></trkpt><trkpt lat="40.09842" lon="8.6223617"><ele>428.0</ele><time>2026-04-30T13:48:48.747Z</time></trkpt><trkpt lat="40.0984083" lon="8.6225583"><ele>428.0</ele><time>2026-04-30T13:48:49.745Z</time></trkpt><trkpt lat="40.098385" lon="8.622745"><ele>428.0</ele><time>2026-04-30T13:48:50.766Z</time></trkpt><trkpt lat="40.0983683" lon="8.6229267"><ele>428.0</ele><time>2026-04-30T13:48:51.746Z</time></trkpt><trkpt lat="40.0983567" lon="8.6231217"><ele>428.0</ele><time>2026-04-30T13:48:52.745Z</time></trkpt><trkpt lat="40.09835" lon="8.623335"><ele>426.5</ele><time>2026-04-30T13:48:53.75Z</time></trkpt><trkpt lat="40.0983467" lon="8.62353"><ele>425.0</ele><time>2026-04-30T13:48:54.745Z</time></trkpt><trkpt lat="40.0983383" lon="8.6237083"><ele>423.5</ele><time>2026-04-30T13:48:55.746Z</time></trkpt><trkpt lat="40.098345" lon="8.623895"><ele>422.0</ele><time>2026-04-30T13:48:56.771Z</time></trkpt><trkpt lat="40.0983317" lon="8.6240733"><ele>420.5</ele><time>2026-04-30T13:48:57.742Z</time></trkpt><trkpt lat="40.098335" lon="8.6242617"><ele>419.0</ele><time>2026-04-30T13:48:58.744Z</time></trkpt><trkpt lat="40.0983383" lon="8.6244483"><ele>417.5</ele><time>2026-04-30T13:48:59.746Z</time></trkpt><trkpt lat="40.0983467" lon="8.6246283"><ele>416.0</ele><time>2026-04-30T13:49:00.746Z</time></trkpt><trkpt lat="40.09835" lon="8.6248117"><ele>413.75</ele><time>2026-04-30T13:49:01.745Z</time></trkpt><trkpt lat="40.09834" lon="8.6249933"><ele>411.5</ele><time>2026-04-30T13:49:02.766Z</time></trkpt><trkpt lat="40.098325" lon="8.6251633"><ele>409.25</ele><time>2026-04-30T13:49:03.743Z</time></trkpt><trkpt lat="40.0983233" lon="8.6253283"><ele>407.0</ele><time>2026-04-30T13:49:04.748Z</time></trkpt><trkpt lat="40.09831" lon="8.62549"><ele>406.0</ele><time>2026-04-30T13:49:05.747Z</time></trkpt><trkpt lat="40.0982833" lon="8.6256483"><ele>405.0</ele><time>2026-04-30T13:49:06.745Z</time></trkpt><trkpt lat="40.0982467" lon="8.6257933"><ele>404.0</ele><time>2026-04-30T13:49:07.746Z</time></trkpt><trkpt lat="40.098195" lon="8.62594"><ele>403.0</ele><time>2026-04-30T13:49:08.783Z</time></trkpt><trkpt lat="40.0981267" lon="8.626075"><ele>399.5</ele><time>2026-04-30T13:49:09.746Z</time></trkpt><trkpt lat="40.0980517" lon="8.626195"><ele>396.0</ele><time>2026-04-30T13:49:10.749Z</time></trkpt><trkpt lat="40.098" lon="8.6263183"><ele>392.5</ele><time>2026-04-30T13:49:11.749Z</time></trkpt><trkpt lat="40.09794" lon="8.626465"><ele>389.0</ele><time>2026-04-30T13:49:12.75Z</time></trkpt><trkpt lat="40.097875" lon="8.62661"><ele>389.0</ele><time>2026-04-30T13:49:13.745Z</time></trkpt><trkpt lat="40.0978017" lon="8.62674"><ele>389.0</ele><time>2026-04-30T13:49:14.777Z</time></trkpt><trkpt lat="40.0977283" lon="8.626875"><ele>389.0</ele><time>2026-04-30T13:49:15.747Z</time></trkpt><trkpt lat="40.0976383" lon="8.6269817"><ele>389.0</ele><time>2026-04-30T13:49:16.743Z</time></trkpt><trkpt lat="40.09756" lon="8.6270817"><ele>388.5</ele><time>2026-04-30T13:49:17.751Z</time></trkpt><trkpt lat="40.097465" lon="8.627195"><ele>388.0</ele><time>2026-04-30T13:49:18.755Z</time></trkpt><trkpt lat="40.09737" lon="8.627285"><ele>387.5</ele><time>2026-04-30T13:49:19.745Z</time></trkpt><trkpt lat="40.0972717" lon="8.6273767"><ele>387.0</ele><time>2026-04-30T13:49:20.77Z</time></trkpt><trkpt lat="40.097195" lon="8.62746"><ele>385.5</ele><time>2026-04-30T13:49:21.745Z</time></trkpt><trkpt lat="40.0971233" lon="8.6275233"><ele>384.0</ele><time>2026-04-30T13:49:22.745Z</time></trkpt><trkpt lat="40.0970567" lon="8.627575"><ele>382.5</ele><time>2026-04-30T13:49:23.75Z</time></trkpt><trkpt lat="40.096995" lon="8.62762"><ele>381.0</ele><time>2026-04-30T13:49:24.743Z</time></trkpt><trkpt lat="40.0969117" lon="8.6277"><ele>379.5</ele><time>2026-04-30T13:49:26.773Z</time></trkpt><trkpt lat="40.0969" lon="8.6278183"><ele>378.0</ele><time>2026-04-30T13:49:29.749Z</time></trkpt><trkpt lat="40.0969367" lon="8.6279367"><ele>378.0</ele><time>2026-04-30T13:49:31.743Z</time></trkpt><trkpt lat="40.09698" lon="8.6280917"><ele>378.0</ele><time>2026-04-30T13:49:33.743Z</time></trkpt><trkpt lat="40.09701" lon="8.62818"><ele>378.0</ele><time>2026-04-30T13:49:34.74Z</time></trkpt><trkpt lat="40.0970533" lon="8.6282783"><ele>378.0</ele><time>2026-04-30T13:49:35.745Z</time></trkpt><trkpt lat="40.097095" lon="8.6283633"><ele>378.0</ele><time>2026-04-30T13:49:36.743Z</time></trkpt><trkpt lat="40.0971467" lon="8.628445"><ele>378.0</ele><time>2026-04-30T13:49:37.742Z</time></trkpt><trkpt lat="40.0971917" lon="8.62852"><ele>378.0</ele><time>2026-04-30T13:49:38.774Z</time></trkpt><trkpt lat="40.0972383" lon="8.628585"><ele>378.0</ele><time>2026-04-30T13:49:39.747Z</time></trkpt><trkpt lat="40.0973317" lon="8.6286933"><ele>378.0</ele><time>2026-04-30T13:49:41.749Z</time></trkpt><trkpt lat="40.0973867" lon="8.628735"><ele>378.0</ele><time>2026-04-30T13:49:42.746Z</time></trkpt><trkpt lat="40.0974433" lon="8.6287733"><ele>378.0</ele><time>2026-04-30T13:49:43.75Z</time></trkpt><trkpt lat="40.0975617" lon="8.62882"><ele>378.0</ele><time>2026-04-30T13:49:45.746Z</time></trkpt><trkpt lat="40.0976233" lon="8.628865"><ele>380.0</ele><time>2026-04-30T13:49:46.743Z</time></trkpt><trkpt lat="40.0976867" lon="8.6289167"><ele>382.0</ele><time>2026-04-30T13:49:47.746Z</time></trkpt><trkpt lat="40.0977467" lon="8.62898"><ele>384.0</ele><time>2026-04-30T13:49:48.747Z</time></trkpt><trkpt lat="40.09781" lon="8.6290467"><ele>386.0</ele><time>2026-04-30T13:49:49.743Z</time></trkpt><trkpt lat="40.09788" lon="8.6291183"><ele>388.0</ele><time>2026-04-30T13:49:50.774Z</time></trkpt><trkpt lat="40.0979533" lon="8.62919"><ele>390.0</ele><time>2026-04-30T13:49:51.743Z</time></trkpt><trkpt lat="40.0980283" lon="8.6292617"><ele>390.0</ele><time>2026-04-30T13:49:52.746Z</time></trkpt><trkpt lat="40.0981017" lon="8.6293267"><ele>390.0</ele><time>2026-04-30T13:49:53.745Z</time></trkpt><trkpt lat="40.0981983" lon="8.6293883"><ele>390.0</ele><time>2026-04-30T13:49:54.743Z</time></trkpt><trkpt lat="40.0983017" lon="8.6294417"><ele>390.0</ele><time>2026-04-30T13:49:55.743Z</time></trkpt><trkpt lat="40.0983967" lon="8.629505"><ele>390.0</ele><time>2026-04-30T13:49:56.803Z</time></trkpt><trkpt lat="40.0984817" lon="8.6295367"><ele>388.8333333333333</ele><time>2026-04-30T13:49:57.746Z</time></trkpt><trkpt lat="40.0985583" lon="8.6295617"><ele>387.6666666666667</ele><time>2026-04-30T13:49:58.745Z</time></trkpt><trkpt lat="40.09865" lon="8.6295767"><ele>386.5</ele><time>2026-04-30T13:49:59.745Z</time></trkpt><trkpt lat="40.0987233" lon="8.629605"><ele>385.33333333333337</ele><time>2026-04-30T13:50:00.741Z</time></trkpt><trkpt lat="40.0987983" lon="8.6296267"><ele>384.1666666666667</ele><time>2026-04-30T13:50:01.743Z</time></trkpt><trkpt lat="40.0988683" lon="8.6296467"><ele>383.0</ele><time>2026-04-30T13:50:02.741Z</time></trkpt><trkpt lat="40.0989317" lon="8.6296733"><ele>383.0</ele><time>2026-04-30T13:50:03.74Z</time></trkpt><trkpt lat="40.09905" lon="8.6297167"><ele>383.0</ele><time>2026-04-30T13:50:05.74Z</time></trkpt><trkpt lat="40.0991133" lon="8.6297383"><ele>383.0</ele><time>2026-04-30T13:50:06.744Z</time></trkpt><trkpt lat="40.099175" lon="8.6297583"><ele>383.0</ele><time>2026-04-30T13:50:07.745Z</time></trkpt><trkpt lat="40.0992417" lon="8.6297783"><ele>383.0</ele><time>2026-04-30T13:50:08.772Z</time></trkpt><trkpt lat="40.0993083" lon="8.6298"><ele>383.0</ele><time>2026-04-30T13:50:09.741Z</time></trkpt><trkpt lat="40.0993717" lon="8.6298283"><ele>384.42857142857144</ele><time>2026-04-30T13:50:10.741Z</time></trkpt><trkpt lat="40.0994317" lon="8.629865"><ele>385.85714285714283</ele><time>2026-04-30T13:50:11.742Z</time></trkpt><trkpt lat="40.09949" lon="8.629915"><ele>387.28571428571433</ele><time>2026-04-30T13:50:12.745Z</time></trkpt><trkpt lat="40.099535" lon="8.6299783"><ele>388.7142857142857</ele><time>2026-04-30T13:50:13.744Z</time></trkpt><trkpt lat="40.099575" lon="8.6300483"><ele>390.14285714285717</ele><time>2026-04-30T13:50:14.773Z</time></trkpt><trkpt lat="40.0996083" lon="8.6301267"><ele>391.5714285714286</ele><time>2026-04-30T13:50:15.74Z</time></trkpt><trkpt lat="40.0996317" lon="8.6302083"><ele>393.0</ele><time>2026-04-30T13:50:16.745Z</time></trkpt><trkpt lat="40.0996483" lon="8.6302967"><ele>393.42857142857144</ele><time>2026-04-30T13:50:17.743Z</time></trkpt><trkpt lat="40.0996483" lon="8.630385"><ele>393.8571428571429</ele><time>2026-04-30T13:50:18.748Z</time></trkpt><trkpt lat="40.0996383" lon="8.630475"><ele>394.28571428571433</ele><time>2026-04-30T13:50:19.744Z</time></trkpt><trkpt lat="40.099615" lon="8.6305633"><ele>394.7142857142857</ele><time>2026-04-30T13:50:20.774Z</time></trkpt><trkpt lat="40.099585" lon="8.6306467"><ele>395.1428571428571</ele><time>2026-04-30T13:50:21.75Z</time></trkpt><trkpt lat="40.09956" lon="8.6307433"><ele>395.5714285714286</ele><time>2026-04-30T13:50:22.742Z</time></trkpt><trkpt lat="40.099535" lon="8.63084"><ele>396.0</ele><time>2026-04-30T13:50:23.743Z</time></trkpt><trkpt lat="40.0995133" lon="8.63094"><ele>396.0</ele><time>2026-04-30T13:50:24.743Z</time></trkpt><trkpt lat="40.099495" lon="8.6310367"><ele>396.0</ele><time>2026-04-30T13:50:25.742Z</time></trkpt><trkpt lat="40.0994833" lon="8.631125"><ele>396.0</ele><time>2026-04-30T13:50:26.765Z</time></trkpt><trkpt lat="40.099445" lon="8.6312467"><ele>396.0</ele><time>2026-04-30T13:50:28.746Z</time></trkpt><trkpt lat="40.09938" lon="8.6313283"><ele>396.0</ele><time>2026-04-30T13:50:30.75Z</time></trkpt><trkpt lat="40.0992783" lon="8.6313867"><ele>396.0</ele><time>2026-04-30T13:50:32.772Z</time></trkpt><trkpt lat="40.0991617" lon="8.6314583"><ele>396.1666666666667</ele><time>2026-04-30T13:50:34.743Z</time></trkpt><trkpt lat="40.0991" lon="8.6315083"><ele>396.33333333333337</ele><time>2026-04-30T13:50:35.75Z</time></trkpt><trkpt lat="40.09904" lon="8.6315583"><ele>396.5</ele><time>2026-04-30T13:50:36.748Z</time></trkpt><trkpt lat="40.09898" lon="8.6316067"><ele>396.6666666666667</ele><time>2026-04-30T13:50:37.744Z</time></trkpt><trkpt lat="40.098915" lon="8.6316433"><ele>396.83333333333337</ele><time>2026-04-30T13:50:38.791Z</time></trkpt><trkpt lat="40.098765" lon="8.6316833"><ele>397.0</ele><time>2026-04-30T13:50:40.742Z</time></trkpt><trkpt lat="40.0986867" lon="8.6316933"><ele>397.00000000000006</ele><time>2026-04-30T13:50:41.751Z</time></trkpt><trkpt lat="40.0985717" lon="8.6317283"><ele>397.0</ele><time>2026-04-30T13:50:43.744Z</time></trkpt><trkpt lat="40.0985067" lon="8.6317733"><ele>397.0</ele><time>2026-04-30T13:50:45.748Z</time></trkpt><trkpt lat="40.09848" lon="8.63185"><ele>397.0</ele><time>2026-04-30T13:50:47.745Z</time></trkpt><trkpt lat="40.0984767" lon="8.6319467"><ele>397.00000000000006</ele><time>2026-04-30T13:50:49.747Z</time></trkpt><trkpt lat="40.0984717" lon="8.632075"><ele>397.0</ele><time>2026-04-30T13:50:51.741Z</time></trkpt><trkpt lat="40.0984483" lon="8.6322217"><ele>397.1666666666667</ele><time>2026-04-30T13:50:53.744Z</time></trkpt><trkpt lat="40.0984283" lon="8.6323033"><ele>397.33333333333337</ele><time>2026-04-30T13:50:54.747Z</time></trkpt><trkpt lat="40.098405" lon="8.6323867"><ele>397.5</ele><time>2026-04-30T13:50:55.743Z</time></trkpt><trkpt lat="40.09838" lon="8.6324683"><ele>397.66666666666663</ele><time>2026-04-30T13:50:56.749Z</time></trkpt><trkpt lat="40.0983517" lon="8.6325467"><ele>397.8333333333333</ele><time>2026-04-30T13:50:57.742Z</time></trkpt><trkpt lat="40.0983267" lon="8.632625"><ele>398.0</ele><time>2026-04-30T13:50:58.742Z</time></trkpt><trkpt lat="40.0982933" lon="8.632775"><ele>397.0</ele><time>2026-04-30T13:51:00.745Z</time></trkpt><trkpt lat="40.09829" lon="8.6329333"><ele>396.0</ele><time>2026-04-30T13:51:02.747Z</time></trkpt><trkpt lat="40.0982983" lon="8.6330917"><ele>395.0</ele><time>2026-04-30T13:51:04.745Z</time></trkpt><trkpt lat="40.0982783" lon="8.6332367"><ele>394.0</ele><time>2026-04-30T13:51:06.746Z</time></trkpt><trkpt lat="40.0982283" lon="8.6333567"><ele>393.79999999999995</ele><time>2026-04-30T13:51:08.773Z</time></trkpt><trkpt lat="40.0981333" lon="8.6334433"><ele>393.59999999999997</ele><time>2026-04-30T13:51:10.743Z</time></trkpt><trkpt lat="40.0980233" lon="8.6334733"><ele>393.4</ele><time>2026-04-30T13:51:12.743Z</time></trkpt><trkpt lat="40.097945" lon="8.6335333"><ele>393.2</ele><time>2026-04-30T13:51:14.775Z</time></trkpt><trkpt lat="40.097905" lon="8.63362"><ele>393.0</ele><time>2026-04-30T13:51:16.747Z</time></trkpt><trkpt lat="40.0979" lon="8.633735"><ele>391.79999999999995</ele><time>2026-04-30T13:51:18.745Z</time></trkpt><trkpt lat="40.0979267" lon="8.6338683"><ele>390.6</ele><time>2026-04-30T13:51:20.774Z</time></trkpt><trkpt lat="40.0979233" lon="8.63401"><ele>389.4</ele><time>2026-04-30T13:51:22.742Z</time></trkpt><trkpt lat="40.09791" lon="8.63413"><ele>388.20000000000005</ele><time>2026-04-30T13:51:24.746Z</time></trkpt><trkpt lat="40.0979117" lon="8.634235"><ele>387.0</ele><time>2026-04-30T13:51:26.766Z</time></trkpt><trkpt lat="40.0979167" lon="8.63435"><ele>387.0</ele><time>2026-04-30T13:51:28.745Z</time></trkpt><trkpt lat="40.0978917" lon="8.634455"><ele>387.0</ele><time>2026-04-30T13:51:30.745Z</time></trkpt><trkpt lat="40.0978183" lon="8.6345583"><ele>387.0</ele><time>2026-04-30T13:51:32.766Z</time></trkpt><trkpt lat="40.0977367" lon="8.6346767"><ele>387.0</ele><time>2026-04-30T13:51:34.745Z</time></trkpt><trkpt lat="40.0976767" lon="8.6348"><ele>387.0</ele><time>2026-04-30T13:51:36.741Z</time></trkpt><trkpt lat="40.0976517" lon="8.634925"><ele>385.3333333333333</ele><time>2026-04-30T13:51:38.774Z</time></trkpt><trkpt lat="40.097665" lon="8.63507"><ele>383.6666666666667</ele><time>2026-04-30T13:51:40.744Z</time></trkpt><trkpt lat="40.09768" lon="8.63515"><ele>382.0</ele><time>2026-04-30T13:51:41.743Z</time></trkpt><trkpt lat="40.09769" lon="8.635235"><ele>380.33333333333337</ele><time>2026-04-30T13:51:42.745Z</time></trkpt><trkpt lat="40.0977033" lon="8.6353217"><ele>378.6666666666667</ele><time>2026-04-30T13:51:43.744Z</time></trkpt><trkpt lat="40.0977167" lon="8.635485"><ele>377.0</ele><time>2026-04-30T13:51:45.742Z</time></trkpt><trkpt lat="40.0977033" lon="8.6356267"><ele>374.8</ele><time>2026-04-30T13:51:47.744Z</time></trkpt><trkpt lat="40.0976517" lon="8.63575"><ele>372.6</ele><time>2026-04-30T13:51:49.744Z</time></trkpt><trkpt lat="40.0975917" lon="8.63588"><ele>370.40000000000003</ele><time>2026-04-30T13:51:51.743Z</time></trkpt><trkpt lat="40.097535" lon="8.6360067"><ele>368.20000000000005</ele><time>2026-04-30T13:51:53.748Z</time></trkpt><trkpt lat="40.0975033" lon="8.6360883"><ele>366.0</ele><time>2026-04-30T13:51:54.743Z</time></trkpt><trkpt lat="40.0974733" lon="8.6361733"><ele>365.0</ele><time>2026-04-30T13:51:55.745Z</time></trkpt><trkpt lat="40.0974483" lon="8.636255"><ele>364.0</ele><time>2026-04-30T13:51:56.746Z</time></trkpt><trkpt lat="40.0974183" lon="8.63633"><ele>363.0</ele><time>2026-04-30T13:51:57.742Z</time></trkpt><trkpt lat="40.0973867" lon="8.636405"><ele>362.0</ele><time>2026-04-30T13:51:58.745Z</time></trkpt><trkpt lat="40.097355" lon="8.6364767"><ele>361.0</ele><time>2026-04-30T13:51:59.741Z</time></trkpt><trkpt lat="40.0972967" lon="8.6366033"><ele>360.0</ele><time>2026-04-30T13:52:01.743Z</time></trkpt><trkpt lat="40.0972217" lon="8.6366967"><ele>359.0</ele><time>2026-04-30T13:52:03.741Z</time></trkpt><trkpt lat="40.097115" lon="8.63676"><ele>358.0</ele><time>2026-04-30T13:52:05.74Z</time></trkpt><trkpt lat="40.0970083" lon="8.63682"><ele>357.0</ele><time>2026-04-30T13:52:07.744Z</time></trkpt><trkpt lat="40.09691" lon="8.6369117"><ele>356.0</ele><time>2026-04-30T13:52:09.744Z</time></trkpt><trkpt lat="40.0968583" lon="8.6369667"><ele>355.0</ele><time>2026-04-30T13:52:10.744Z</time></trkpt><trkpt lat="40.0968083" lon="8.6370233"><ele>354.0</ele><time>2026-04-30T13:52:11.744Z</time></trkpt><trkpt lat="40.0967667" lon="8.63709"><ele>353.0</ele><time>2026-04-30T13:52:12.745Z</time></trkpt><trkpt lat="40.09673" lon="8.6371583"><ele>352.0</ele><time>2026-04-30T13:52:13.743Z</time></trkpt><trkpt lat="40.0966967" lon="8.6372317"><ele>351.0</ele><time>2026-04-30T13:52:14.774Z</time></trkpt><trkpt lat="40.096665" lon="8.6373133"><ele>350.0</ele><time>2026-04-30T13:52:15.744Z</time></trkpt><trkpt lat="40.0966333" lon="8.6374"><ele>349.0</ele><time>2026-04-30T13:52:16.769Z</time></trkpt><trkpt lat="40.0966017" lon="8.6374867"><ele>348.0</ele><time>2026-04-30T13:52:17.742Z</time></trkpt><trkpt lat="40.09657" lon="8.6375733"><ele>347.1666666666667</ele><time>2026-04-30T13:52:18.74Z</time></trkpt><trkpt lat="40.0965333" lon="8.6376583"><ele>346.3333333333333</ele><time>2026-04-30T13:52:19.744Z</time></trkpt><trkpt lat="40.09649" lon="8.6377383"><ele>345.5</ele><time>2026-04-30T13:52:20.775Z</time></trkpt><trkpt lat="40.0964383" lon="8.6378117"><ele>344.66666666666663</ele><time>2026-04-30T13:52:21.742Z</time></trkpt><trkpt lat="40.0963817" lon="8.6378817"><ele>343.8333333333333</ele><time>2026-04-30T13:52:22.743Z</time></trkpt><trkpt lat="40.0963167" lon="8.6379433"><ele>343.0</ele><time>2026-04-30T13:52:23.745Z</time></trkpt><trkpt lat="40.0962483" lon="8.6379983"><ele>342.14285714285717</ele><time>2026-04-30T13:52:24.746Z</time></trkpt><trkpt lat="40.096185" lon="8.6380517"><ele>341.2857142857143</ele><time>2026-04-30T13:52:25.744Z</time></trkpt><trkpt lat="40.09612" lon="8.6381017"><ele>340.42857142857144</ele><time>2026-04-30T13:52:26.803Z</time></trkpt><trkpt lat="40.09606" lon="8.6381567"><ele>339.57142857142856</ele><time>2026-04-30T13:52:27.746Z</time></trkpt><trkpt lat="40.0960017" lon="8.6382217"><ele>338.7142857142857</ele><time>2026-04-30T13:52:28.743Z</time></trkpt><trkpt lat="40.09595" lon="8.6382867"><ele>337.8571428571429</ele><time>2026-04-30T13:52:29.744Z</time></trkpt><trkpt lat="40.0959" lon="8.6383567"><ele>337.0</ele><time>2026-04-30T13:52:30.745Z</time></trkpt><trkpt lat="40.09585" lon="8.6384217"><ele>337.00000000000006</ele><time>2026-04-30T13:52:31.741Z</time></trkpt><trkpt lat="40.09579" lon="8.63848"><ele>337.0</ele><time>2026-04-30T13:52:32.743Z</time></trkpt><trkpt lat="40.0957267" lon="8.63853"><ele>337.0</ele><time>2026-04-30T13:52:33.744Z</time></trkpt><trkpt lat="40.0956617" lon="8.6385733"><ele>337.0</ele><time>2026-04-30T13:52:34.746Z</time></trkpt><trkpt lat="40.0955917" lon="8.6386067"><ele>337.0</ele><time>2026-04-30T13:52:35.743Z</time></trkpt><trkpt lat="40.0955267" lon="8.6386367"><ele>337.00000000000006</ele><time>2026-04-30T13:52:36.746Z</time></trkpt><trkpt lat="40.095465" lon="8.6386667"><ele>337.0</ele><time>2026-04-30T13:52:37.747Z</time></trkpt><trkpt lat="40.0953533" lon="8.6386983"><ele>335.8</ele><time>2026-04-30T13:52:39.741Z</time></trkpt><trkpt lat="40.09524" lon="8.63868"><ele>334.6</ele><time>2026-04-30T13:52:41.744Z</time></trkpt><trkpt lat="40.095135" lon="8.6386417"><ele>333.40000000000003</ele><time>2026-04-30T13:52:43.741Z</time></trkpt><trkpt lat="40.0950583" lon="8.63855"><ele>332.20000000000005</ele><time>2026-04-30T13:52:45.744Z</time></trkpt><trkpt lat="40.095015" lon="8.6384433"><ele>331.0</ele><time>2026-04-30T13:52:47.746Z</time></trkpt><trkpt lat="40.0949933" lon="8.63834"><ele>330.66666666666663</ele><time>2026-04-30T13:52:49.744Z</time></trkpt><trkpt lat="40.0949617" lon="8.63822"><ele>330.3333333333333</ele><time>2026-04-30T13:52:51.744Z</time></trkpt><trkpt lat="40.0949383" lon="8.6381417"><ele>330.0</ele><time>2026-04-30T13:52:52.742Z</time></trkpt><trkpt lat="40.094905" lon="8.63805"><ele>329.6666666666667</ele><time>2026-04-30T13:52:53.742Z</time></trkpt><trkpt lat="40.0948633" lon="8.63795"><ele>329.33333333333337</ele><time>2026-04-30T13:52:54.762Z</time></trkpt><trkpt lat="40.0948183" lon="8.6378517"><ele>329.0</ele><time>2026-04-30T13:52:55.743Z</time></trkpt><trkpt lat="40.0947767" lon="8.6377517"><ele>328.2857142857143</ele><time>2026-04-30T13:52:56.803Z</time></trkpt><trkpt lat="40.0947333" lon="8.637665"><ele>327.57142857142856</ele><time>2026-04-30T13:52:57.742Z</time></trkpt><trkpt lat="40.0946883" lon="8.63758"><ele>326.8571428571429</ele><time>2026-04-30T13:52:58.747Z</time></trkpt><trkpt lat="40.0946383" lon="8.6375083"><ele>326.1428571428571</ele><time>2026-04-30T13:52:59.746Z</time></trkpt><trkpt lat="40.094585" lon="8.6374567"><ele>325.42857142857144</ele><time>2026-04-30T13:53:00.744Z</time></trkpt><trkpt lat="40.0945233" lon="8.6374133"><ele>324.7142857142857</ele><time>2026-04-30T13:53:01.745Z</time></trkpt><trkpt lat="40.0944667" lon="8.6373683"><ele>324.0</ele><time>2026-04-30T13:53:02.745Z</time></trkpt><trkpt lat="40.094375" lon="8.6372767"><ele>324.0</ele><time>2026-04-30T13:53:04.744Z</time></trkpt><trkpt lat="40.09429" lon="8.6371467"><ele>324.0</ele><time>2026-04-30T13:53:06.742Z</time></trkpt><trkpt lat="40.0942433" lon="8.6370767"><ele>324.0</ele><time>2026-04-30T13:53:07.742Z</time></trkpt><trkpt lat="40.0942" lon="8.6370117"><ele>324.0</ele><time>2026-04-30T13:53:08.774Z</time></trkpt><trkpt lat="40.09412" lon="8.6369017"><ele>324.0</ele><time>2026-04-30T13:53:10.746Z</time></trkpt><trkpt lat="40.094025" lon="8.6367983"><ele>322.8333333333333</ele><time>2026-04-30T13:53:12.742Z</time></trkpt><trkpt lat="40.0939433" lon="8.63668"><ele>321.6666666666667</ele><time>2026-04-30T13:53:14.773Z</time></trkpt><trkpt lat="40.0938983" lon="8.6365983"><ele>320.5</ele><time>2026-04-30T13:53:15.743Z</time></trkpt><trkpt lat="40.0938533" lon="8.6365117"><ele>319.33333333333337</ele><time>2026-04-30T13:53:16.747Z</time></trkpt><trkpt lat="40.0938117" lon="8.6364283"><ele>318.1666666666667</ele><time>2026-04-30T13:53:17.744Z</time></trkpt><trkpt lat="40.093765" lon="8.6363467"><ele>317.0</ele><time>2026-04-30T13:53:18.751Z</time></trkpt><trkpt lat="40.0937217" lon="8.63627"><ele>317.0</ele><time>2026-04-30T13:53:19.746Z</time></trkpt><trkpt lat="40.0936833" lon="8.6361983"><ele>317.0</ele><time>2026-04-30T13:53:20.775Z</time></trkpt><trkpt lat="40.0936467" lon="8.6361267"><ele>317.0</ele><time>2026-04-30T13:53:21.744Z</time></trkpt><trkpt lat="40.0936133" lon="8.6360567"><ele>317.0</ele><time>2026-04-30T13:53:22.745Z</time></trkpt><trkpt lat="40.0935767" lon="8.6359817"><ele>317.0</ele><time>2026-04-30T13:53:23.745Z</time></trkpt><trkpt lat="40.093535" lon="8.6358983"><ele>317.0</ele><time>2026-04-30T13:53:24.748Z</time></trkpt><trkpt lat="40.0934967" lon="8.6358033"><ele>317.0</ele><time>2026-04-30T13:53:25.745Z</time></trkpt><trkpt lat="40.0934583" lon="8.6357033"><ele>317.33333333333337</ele><time>2026-04-30T13:53:26.753Z</time></trkpt><trkpt lat="40.0934217" lon="8.6356"><ele>317.6666666666667</ele><time>2026-04-30T13:53:27.745Z</time></trkpt><trkpt lat="40.0933883" lon="8.6354967"><ele>318.0</ele><time>2026-04-30T13:53:28.748Z</time></trkpt><trkpt lat="40.0933533" lon="8.6353933"><ele>318.3333333333333</ele><time>2026-04-30T13:53:29.747Z</time></trkpt><trkpt lat="40.0933217" lon="8.6352917"><ele>318.66666666666663</ele><time>2026-04-30T13:53:30.747Z</time></trkpt><trkpt lat="40.0932983" lon="8.6352"><ele>319.0</ele><time>2026-04-30T13:53:31.745Z</time></trkpt><trkpt lat="40.0932833" lon="8.6351017"><ele>319.14285714285717</ele><time>2026-04-30T13:53:32.755Z</time></trkpt><trkpt lat="40.09327" lon="8.6350033"><ele>319.2857142857143</ele><time>2026-04-30T13:53:33.743Z</time></trkpt><trkpt lat="40.09326" lon="8.634905"><ele>319.42857142857144</ele><time>2026-04-30T13:53:34.743Z</time></trkpt><trkpt lat="40.0932417" lon="8.6348117"><ele>319.57142857142856</ele><time>2026-04-30T13:53:35.742Z</time></trkpt><trkpt lat="40.0932267" lon="8.63472"><ele>319.7142857142857</ele><time>2026-04-30T13:53:36.743Z</time></trkpt><trkpt lat="40.09321" lon="8.6346317"><ele>319.85714285714283</ele><time>2026-04-30T13:53:37.749Z</time></trkpt><trkpt lat="40.093185" lon="8.6345433"><ele>320.0</ele><time>2026-04-30T13:53:38.773Z</time></trkpt><trkpt lat="40.093155" lon="8.6344467"><ele>317.85714285714283</ele><time>2026-04-30T13:53:39.747Z</time></trkpt><trkpt lat="40.093125" lon="8.63436"><ele>315.7142857142857</ele><time>2026-04-30T13:53:40.742Z</time></trkpt><trkpt lat="40.0930933" lon="8.63427"><ele>313.57142857142856</ele><time>2026-04-30T13:53:41.747Z</time></trkpt><trkpt lat="40.0930533" lon="8.6341933"><ele>311.42857142857144</ele><time>2026-04-30T13:53:42.747Z</time></trkpt><trkpt lat="40.093" lon="8.6341217"><ele>309.2857142857143</ele><time>2026-04-30T13:53:43.745Z</time></trkpt><trkpt lat="40.0929433" lon="8.6340567"><ele>307.14285714285717</ele><time>2026-04-30T13:53:44.771Z</time></trkpt><trkpt lat="40.09288" lon="8.6339983"><ele>305.0</ele><time>2026-04-30T13:53:45.742Z</time></trkpt><trkpt lat="40.0928167" lon="8.6339433"><ele>305.0</ele><time>2026-04-30T13:53:46.751Z</time></trkpt><trkpt lat="40.092755" lon="8.633895"><ele>305.0</ele><time>2026-04-30T13:53:47.745Z</time></trkpt><trkpt lat="40.0926917" lon="8.6338517"><ele>305.0</ele><time>2026-04-30T13:53:48.744Z</time></trkpt><trkpt lat="40.09263" lon="8.6338067"><ele>305.0</ele><time>2026-04-30T13:53:49.748Z</time></trkpt><trkpt lat="40.0925717" lon="8.6337583"><ele>305.0</ele><time>2026-04-30T13:53:50.78Z</time></trkpt><trkpt lat="40.09251" lon="8.6337183"><ele>305.0</ele><time>2026-04-30T13:53:51.746Z</time></trkpt><trkpt lat="40.0924517" lon="8.6336767"><ele>305.0</ele><time>2026-04-30T13:53:52.743Z</time></trkpt><trkpt lat="40.09234" lon="8.6336083"><ele>303.0</ele><time>2026-04-30T13:53:54.744Z</time></trkpt><trkpt lat="40.0922717" lon="8.6335783"><ele>301.0</ele><time>2026-04-30T13:53:55.743Z</time></trkpt><trkpt lat="40.0922083" lon="8.63355"><ele>299.0</ele><time>2026-04-30T13:53:56.804Z</time></trkpt><trkpt lat="40.092145" lon="8.63352"><ele>297.0</ele><time>2026-04-30T13:53:57.742Z</time></trkpt><trkpt lat="40.0920767" lon="8.6334917"><ele>295.0</ele><time>2026-04-30T13:53:58.747Z</time></trkpt><trkpt lat="40.09201" lon="8.6334633"><ele>293.0</ele><time>2026-04-30T13:53:59.743Z</time></trkpt><trkpt lat="40.09194" lon="8.6334333"><ele>291.0</ele><time>2026-04-30T13:54:00.742Z</time></trkpt><trkpt lat="40.09187" lon="8.6333917"><ele>291.0</ele><time>2026-04-30T13:54:01.744Z</time></trkpt><trkpt lat="40.0917983" lon="8.633345"><ele>291.0</ele><time>2026-04-30T13:54:02.746Z</time></trkpt><trkpt lat="40.0917333" lon="8.633295"><ele>291.0</ele><time>2026-04-30T13:54:03.742Z</time></trkpt><trkpt lat="40.0916717" lon="8.6332467"><ele>291.0</ele><time>2026-04-30T13:54:04.746Z</time></trkpt><trkpt lat="40.0916117" lon="8.6332017"><ele>291.0</ele><time>2026-04-30T13:54:05.742Z</time></trkpt><trkpt lat="40.0915533" lon="8.6331617"><ele>291.0</ele><time>2026-04-30T13:54:06.747Z</time></trkpt><trkpt lat="40.0914533" lon="8.63309"><ele>291.0</ele><time>2026-04-30T13:54:08.779Z</time></trkpt><trkpt lat="40.091345" lon="8.63301"><ele>291.0</ele><time>2026-04-30T13:54:10.741Z</time></trkpt><trkpt lat="40.0912833" lon="8.6329583"><ele>291.0</ele><time>2026-04-30T13:54:11.742Z</time></trkpt><trkpt lat="40.0912233" lon="8.6328983"><ele>291.0</ele><time>2026-04-30T13:54:12.743Z</time></trkpt><trkpt lat="40.0911667" lon="8.63283"><ele>291.0</ele><time>2026-04-30T13:54:13.744Z</time></trkpt><trkpt lat="40.091115" lon="8.6327633"><ele>291.0</ele><time>2026-04-30T13:54:14.776Z</time></trkpt><trkpt lat="40.0910717" lon="8.6327"><ele>291.0</ele><time>2026-04-30T13:54:15.743Z</time></trkpt><trkpt lat="40.0909833" lon="8.6325933"><ele>291.0</ele><time>2026-04-30T13:54:17.747Z</time></trkpt><trkpt lat="40.0908967" lon="8.6325083"><ele>291.0</ele><time>2026-04-30T13:54:19.746Z</time></trkpt><trkpt lat="40.0907983" lon="8.6324617"><ele>291.0</ele><time>2026-04-30T13:54:21.744Z</time></trkpt><trkpt lat="40.0906917" lon="8.63243"><ele>291.0</ele><time>2026-04-30T13:54:23.741Z</time></trkpt><trkpt lat="40.0906067" lon="8.6324167"><ele>289.25</ele><time>2026-04-30T13:54:25.746Z</time></trkpt><trkpt lat="40.0904833" lon="8.6324733"><ele>287.5</ele><time>2026-04-30T13:54:27.742Z</time></trkpt><trkpt lat="40.09039" lon="8.6325667"><ele>285.75</ele><time>2026-04-30T13:54:28.745Z</time></trkpt><trkpt lat="40.090285" lon="8.6326567"><ele>284.0</ele><time>2026-04-30T13:54:29.742Z</time></trkpt><trkpt lat="40.0901967" lon="8.632705"><ele>284.0</ele><time>2026-04-30T13:54:30.746Z</time></trkpt><trkpt lat="40.0901083" lon="8.63275"><ele>284.0</ele><time>2026-04-30T13:54:31.74Z</time></trkpt><trkpt lat="40.0900233" lon="8.6327917"><ele>284.0</ele><time>2026-04-30T13:54:32.785Z</time></trkpt><trkpt lat="40.089945" lon="8.632835"><ele>284.0</ele><time>2026-04-30T13:54:33.744Z</time></trkpt><trkpt lat="40.0898683" lon="8.6328717"><ele>284.0</ele><time>2026-04-30T13:54:34.74Z</time></trkpt><trkpt lat="40.0897933" lon="8.6328867"><ele>284.0</ele><time>2026-04-30T13:54:35.741Z</time></trkpt><trkpt lat="40.0897233" lon="8.6328967"><ele>282.1666666666667</ele><time>2026-04-30T13:54:36.741Z</time></trkpt><trkpt lat="40.08965" lon="8.6329017"><ele>280.33333333333337</ele><time>2026-04-30T13:54:37.743Z</time></trkpt><trkpt lat="40.0895733" lon="8.6329083"><ele>278.5</ele><time>2026-04-30T13:54:38.775Z</time></trkpt><trkpt lat="40.089495" lon="8.632915"><ele>276.6666666666667</ele><time>2026-04-30T13:54:39.743Z</time></trkpt><trkpt lat="40.0894133" lon="8.6329217"><ele>274.8333333333333</ele><time>2026-04-30T13:54:40.745Z</time></trkpt><trkpt lat="40.0893283" lon="8.63293"><ele>273.0</ele><time>2026-04-30T13:54:41.748Z</time></trkpt><trkpt lat="40.089245" lon="8.63294"><ele>273.0</ele><time>2026-04-30T13:54:42.744Z</time></trkpt><trkpt lat="40.0891717" lon="8.63296"><ele>273.0</ele><time>2026-04-30T13:54:43.742Z</time></trkpt><trkpt lat="40.0890967" lon="8.632985"><ele>273.0</ele><time>2026-04-30T13:54:44.773Z</time></trkpt><trkpt lat="40.0890233" lon="8.6330117"><ele>273.0</ele><time>2026-04-30T13:54:45.747Z</time></trkpt><trkpt lat="40.088945" lon="8.6330417"><ele>273.0</ele><time>2026-04-30T13:54:46.739Z</time></trkpt><trkpt lat="40.08887" lon="8.6330667"><ele>273.0</ele><time>2026-04-30T13:54:47.745Z</time></trkpt><trkpt lat="40.0887883" lon="8.6330933"><ele>271.6666666666667</ele><time>2026-04-30T13:54:48.743Z</time></trkpt><trkpt lat="40.0887067" lon="8.6331117"><ele>270.3333333333333</ele><time>2026-04-30T13:54:49.743Z</time></trkpt><trkpt lat="40.08862" lon="8.6331217"><ele>269.0</ele><time>2026-04-30T13:54:50.777Z</time></trkpt><trkpt lat="40.0885317" lon="8.6331183"><ele>267.66666666666663</ele><time>2026-04-30T13:54:51.743Z</time></trkpt><trkpt lat="40.0884433" lon="8.63311"><ele>266.3333333333333</ele><time>2026-04-30T13:54:52.746Z</time></trkpt><trkpt lat="40.088355" lon="8.6331033"><ele>265.0</ele><time>2026-04-30T13:54:53.745Z</time></trkpt><trkpt lat="40.088265" lon="8.6331017"><ele>263.66666666666663</ele><time>2026-04-30T13:54:54.748Z</time></trkpt><trkpt lat="40.0881833" lon="8.6330983"><ele>262.3333333333333</ele><time>2026-04-30T13:54:55.747Z</time></trkpt><trkpt lat="40.0881067" lon="8.6330983"><ele>261.0</ele><time>2026-04-30T13:54:56.803Z</time></trkpt><trkpt lat="40.08804" lon="8.633095"><ele>259.6666666666667</ele><time>2026-04-30T13:54:57.74Z</time></trkpt><trkpt lat="40.0879367" lon="8.6330967"><ele>258.33333333333337</ele><time>2026-04-30T13:54:59.744Z</time></trkpt><trkpt lat="40.0878717" lon="8.6330783"><ele>257.0</ele><time>2026-04-30T13:55:01.742Z</time></trkpt><trkpt lat="40.087815" lon="8.6330167"><ele>257.0</ele><time>2026-04-30T13:55:03.744Z</time></trkpt><trkpt lat="40.0877667" lon="8.6329033"><ele>257.0</ele><time>2026-04-30T13:55:05.742Z</time></trkpt><trkpt lat="40.0877467" lon="8.6328233"><ele>257.0</ele><time>2026-04-30T13:55:06.744Z</time></trkpt><trkpt lat="40.08773" lon="8.63273"><ele>257.0</ele><time>2026-04-30T13:55:07.742Z</time></trkpt><trkpt lat="40.0877117" lon="8.6326167"><ele>257.0</ele><time>2026-04-30T13:55:08.769Z</time></trkpt><trkpt lat="40.087685" lon="8.63246"><ele>257.0</ele><time>2026-04-30T13:55:09.74Z</time></trkpt><trkpt lat="40.08766" lon="8.6323083"><ele>257.5</ele><time>2026-04-30T13:55:10.746Z</time></trkpt><trkpt lat="40.0876283" lon="8.6321417"><ele>258.0</ele><time>2026-04-30T13:55:11.74Z</time></trkpt><trkpt lat="40.087585" lon="8.631935"><ele>258.5</ele><time>2026-04-30T13:55:12.742Z</time></trkpt><trkpt lat="40.0875467" lon="8.6317433"><ele>259.0</ele><time>2026-04-30T13:55:13.739Z</time></trkpt><trkpt lat="40.087495" lon="8.631555"><ele>259.0</ele><time>2026-04-30T13:55:14.773Z</time></trkpt><trkpt lat="40.0874267" lon="8.63137"><ele>259.0</ele><time>2026-04-30T13:55:15.743Z</time></trkpt><trkpt lat="40.087345" lon="8.631185"><ele>259.0</ele><time>2026-04-30T13:55:16.742Z</time></trkpt><trkpt lat="40.0872517" lon="8.63099"><ele>260.0</ele><time>2026-04-30T13:55:17.742Z</time></trkpt><trkpt lat="40.0871583" lon="8.630805"><ele>261.0</ele><time>2026-04-30T13:55:18.741Z</time></trkpt><trkpt lat="40.08707" lon="8.63063"><ele>262.0</ele><time>2026-04-30T13:55:19.744Z</time></trkpt><trkpt lat="40.0869817" lon="8.6304617"><ele>263.0</ele><time>2026-04-30T13:55:20.77Z</time></trkpt><trkpt lat="40.0869017" lon="8.6302833"><ele>264.0</ele><time>2026-04-30T13:55:21.744Z</time></trkpt><trkpt lat="40.086835" lon="8.630115"><ele>265.0</ele><time>2026-04-30T13:55:22.753Z</time></trkpt><trkpt lat="40.08678" lon="8.6299417"><ele>266.0</ele><time>2026-04-30T13:55:23.741Z</time></trkpt><trkpt lat="40.08675" lon="8.6297617"><ele>266.0</ele><time>2026-04-30T13:55:24.742Z</time></trkpt><trkpt lat="40.0867333" lon="8.6295783"><ele>266.0</ele><time>2026-04-30T13:55:25.739Z</time></trkpt><trkpt lat="40.0867967" lon="8.6293967"><ele>266.0</ele><time>2026-04-30T13:55:26.743Z</time></trkpt><trkpt lat="40.08683" lon="8.6291633"><ele>267.6666666666667</ele><time>2026-04-30T13:55:27.742Z</time></trkpt><trkpt lat="40.08689" lon="8.6289533"><ele>269.3333333333333</ele><time>2026-04-30T13:55:28.745Z</time></trkpt><trkpt lat="40.0869233" lon="8.6287333"><ele>271.0</ele><time>2026-04-30T13:55:29.745Z</time></trkpt><trkpt lat="40.0869683" lon="8.6285133"><ele>273.0</ele><time>2026-04-30T13:55:30.745Z</time></trkpt><trkpt lat="40.087005" lon="8.6283083"><ele>275.0</ele><time>2026-04-30T13:55:31.742Z</time></trkpt><trkpt lat="40.0870267" lon="8.6281183"><ele>277.0</ele><time>2026-04-30T13:55:32.745Z</time></trkpt><trkpt lat="40.0870383" lon="8.6279317"><ele>278.0</ele><time>2026-04-30T13:55:33.746Z</time></trkpt><trkpt lat="40.0870483" lon="8.627755"><ele>279.0</ele><time>2026-04-30T13:55:34.742Z</time></trkpt><trkpt lat="40.08702" lon="8.62759"><ele>280.0</ele><time>2026-04-30T13:55:35.741Z</time></trkpt><trkpt lat="40.0869767" lon="8.6274317"><ele>281.0</ele><time>2026-04-30T13:55:36.742Z</time></trkpt><trkpt lat="40.08691" lon="8.6272833"><ele>281.0</ele><time>2026-04-30T13:55:37.742Z</time></trkpt><trkpt lat="40.086825" lon="8.6271467"><ele>281.0</ele><time>2026-04-30T13:55:38.77Z</time></trkpt><trkpt lat="40.0867167" lon="8.62702"><ele>281.0</ele><time>2026-04-30T13:55:39.745Z</time></trkpt><trkpt lat="40.086605" lon="8.6269017"><ele>281.0</ele><time>2026-04-30T13:55:40.745Z</time></trkpt><trkpt lat="40.086475" lon="8.6267817"><ele>280.0</ele><time>2026-04-30T13:55:41.743Z</time></trkpt><trkpt lat="40.08635" lon="8.626655"><ele>279.0</ele><time>2026-04-30T13:55:42.745Z</time></trkpt><trkpt lat="40.0862317" lon="8.6265067"><ele>278.0</ele><time>2026-04-30T13:55:43.743Z</time></trkpt><trkpt lat="40.0861083" lon="8.62635"><ele>278.0</ele><time>2026-04-30T13:55:44.773Z</time></trkpt><trkpt lat="40.0859967" lon="8.6261717"><ele>278.0</ele><time>2026-04-30T13:55:45.747Z</time></trkpt><trkpt lat="40.0858833" lon="8.6259833"><ele>278.0</ele><time>2026-04-30T13:55:46.74Z</time></trkpt><trkpt lat="40.0857667" lon="8.6257883"><ele>277.0</ele><time>2026-04-30T13:55:47.74Z</time></trkpt><trkpt lat="40.08565" lon="8.62559"><ele>276.0</ele><time>2026-04-30T13:55:48.744Z</time></trkpt><trkpt lat="40.0855383" lon="8.625385"><ele>275.0</ele><time>2026-04-30T13:55:49.74Z</time></trkpt><trkpt lat="40.0854217" lon="8.6251817"><ele>275.0</ele><time>2026-04-30T13:55:50.776Z</time></trkpt><trkpt lat="40.0853083" lon="8.6249783"><ele>275.0</ele><time>2026-04-30T13:55:51.742Z</time></trkpt><trkpt lat="40.0851933" lon="8.6247767"><ele>275.0</ele><time>2026-04-30T13:55:52.745Z</time></trkpt><trkpt lat="40.0850817" lon="8.6245717"><ele>276.0</ele><time>2026-04-30T13:55:53.746Z</time></trkpt><trkpt lat="40.0849717" lon="8.6243717"><ele>277.0</ele><time>2026-04-30T13:55:54.744Z</time></trkpt><trkpt lat="40.08487" lon="8.6241783"><ele>278.0</ele><time>2026-04-30T13:55:55.741Z</time></trkpt><trkpt lat="40.0847767" lon="8.6239917"><ele>276.6666666666667</ele><time>2026-04-30T13:55:56.754Z</time></trkpt><trkpt lat="40.0846883" lon="8.6238133"><ele>275.3333333333333</ele><time>2026-04-30T13:55:57.743Z</time></trkpt><trkpt lat="40.0846117" lon="8.6236417"><ele>274.0</ele><time>2026-04-30T13:55:58.744Z</time></trkpt><trkpt lat="40.0845417" lon="8.6234667"><ele>274.0</ele><time>2026-04-30T13:55:59.741Z</time></trkpt><trkpt lat="40.0844767" lon="8.62329"><ele>274.0</ele><time>2026-04-30T13:56:00.743Z</time></trkpt><trkpt lat="40.08444" lon="8.623105"><ele>274.0</ele><time>2026-04-30T13:56:01.74Z</time></trkpt><trkpt lat="40.0844417" lon="8.62289"><ele>274.66666666666663</ele><time>2026-04-30T13:56:02.768Z</time></trkpt><trkpt lat="40.08447" lon="8.622685"><ele>275.3333333333333</ele><time>2026-04-30T13:56:03.739Z</time></trkpt><trkpt lat="40.084495" lon="8.6224867"><ele>276.0</ele><time>2026-04-30T13:56:04.743Z</time></trkpt><trkpt lat="40.0845367" lon="8.6222783"><ele>276.0</ele><time>2026-04-30T13:56:05.74Z</time></trkpt><trkpt lat="40.0845817" lon="8.622065"><ele>276.0</ele><time>2026-04-30T13:56:06.746Z</time></trkpt><trkpt lat="40.0846267" lon="8.6218533"><ele>276.0</ele><time>2026-04-30T13:56:07.741Z</time></trkpt><trkpt lat="40.0846983" lon="8.62163"><ele>276.3333333333333</ele><time>2026-04-30T13:56:08.774Z</time></trkpt><trkpt lat="40.08477" lon="8.621405"><ele>276.66666666666663</ele><time>2026-04-30T13:56:09.742Z</time></trkpt><trkpt lat="40.0848383" lon="8.62118"><ele>277.0</ele><time>2026-04-30T13:56:10.746Z</time></trkpt><trkpt lat="40.0849067" lon="8.620955"><ele>279.0</ele><time>2026-04-30T13:56:11.74Z</time></trkpt><trkpt lat="40.084975" lon="8.6207283"><ele>281.0</ele><time>2026-04-30T13:56:12.746Z</time></trkpt><trkpt lat="40.0850383" lon="8.6205033"><ele>283.0</ele><time>2026-04-30T13:56:13.739Z</time></trkpt><trkpt lat="40.08511" lon="8.62027"><ele>283.66666666666663</ele><time>2026-04-30T13:56:14.773Z</time></trkpt><trkpt lat="40.0851883" lon="8.6200333"><ele>284.3333333333333</ele><time>2026-04-30T13:56:15.741Z</time></trkpt><trkpt lat="40.08526" lon="8.6198"><ele>285.0</ele><time>2026-04-30T13:56:16.752Z</time></trkpt><trkpt lat="40.0853333" lon="8.6195833"><ele>286.0</ele><time>2026-04-30T13:56:17.742Z</time></trkpt><trkpt lat="40.0854017" lon="8.6193667"><ele>287.0</ele><time>2026-04-30T13:56:18.743Z</time></trkpt><trkpt lat="40.08547" lon="8.6191567"><ele>288.0</ele><time>2026-04-30T13:56:19.743Z</time></trkpt><trkpt lat="40.0855183" lon="8.61895"><ele>288.0</ele><time>2026-04-30T13:56:20.777Z</time></trkpt><trkpt lat="40.0855633" lon="8.6187517"><ele>288.0</ele><time>2026-04-30T13:56:21.743Z</time></trkpt><trkpt lat="40.085605" lon="8.61857"><ele>288.0</ele><time>2026-04-30T13:56:22.745Z</time></trkpt><trkpt lat="40.08559" lon="8.6184"><ele>288.0</ele><time>2026-04-30T13:56:23.745Z</time></trkpt><trkpt lat="40.0855533" lon="8.6182483"><ele>289.0</ele><time>2026-04-30T13:56:24.746Z</time></trkpt><trkpt lat="40.0855067" lon="8.61808"><ele>290.0</ele><time>2026-04-30T13:56:25.747Z</time></trkpt><trkpt lat="40.0854383" lon="8.6179417"><ele>291.0</ele><time>2026-04-30T13:56:26.743Z</time></trkpt><trkpt lat="40.0853117" lon="8.6178433"><ele>292.0</ele><time>2026-04-30T13:56:27.745Z</time></trkpt><trkpt lat="40.08521" lon="8.61774"><ele>292.75</ele><time>2026-04-30T13:56:28.746Z</time></trkpt><trkpt lat="40.085115" lon="8.6176567"><ele>293.5</ele><time>2026-04-30T13:56:29.742Z</time></trkpt><trkpt lat="40.0850133" lon="8.6176033"><ele>294.25</ele><time>2026-04-30T13:56:30.746Z</time></trkpt><trkpt lat="40.084905" lon="8.617575"><ele>295.0</ele><time>2026-04-30T13:56:31.745Z</time></trkpt><trkpt lat="40.0847767" lon="8.6175767"><ele>296.0</ele><time>2026-04-30T13:56:32.743Z</time></trkpt><trkpt lat="40.0846417" lon="8.6175917"><ele>297.0</ele><time>2026-04-30T13:56:33.75Z</time></trkpt><trkpt lat="40.0845133" lon="8.61761"><ele>298.0</ele><time>2026-04-30T13:56:34.75Z</time></trkpt><trkpt lat="40.0843833" lon="8.6176283"><ele>299.0</ele><time>2026-04-30T13:56:35.746Z</time></trkpt><trkpt lat="40.08425" lon="8.6176483"><ele>299.0</ele><time>2026-04-30T13:56:36.747Z</time></trkpt><trkpt lat="40.084125" lon="8.61765"><ele>299.0</ele><time>2026-04-30T13:56:37.747Z</time></trkpt><trkpt lat="40.083995" lon="8.6176267"><ele>299.0</ele><time>2026-04-30T13:56:38.771Z</time></trkpt><trkpt lat="40.0838617" lon="8.6175867"><ele>299.0</ele><time>2026-04-30T13:56:39.743Z</time></trkpt><trkpt lat="40.0837233" lon="8.6175367"><ele>299.0</ele><time>2026-04-30T13:56:40.742Z</time></trkpt><trkpt lat="40.0835883" lon="8.617475"><ele>299.0</ele><time>2026-04-30T13:56:41.746Z</time></trkpt><trkpt lat="40.0834533" lon="8.6174117"><ele>299.0</ele><time>2026-04-30T13:56:42.744Z</time></trkpt><trkpt lat="40.0833217" lon="8.6173483"><ele>299.0</ele><time>2026-04-30T13:56:43.742Z</time></trkpt><trkpt lat="40.083195" lon="8.617285"><ele>298.4</ele><time>2026-04-30T13:56:44.773Z</time></trkpt><trkpt lat="40.0830733" lon="8.61723"><ele>297.79999999999995</ele><time>2026-04-30T13:56:45.744Z</time></trkpt><trkpt lat="40.0829617" lon="8.61718"><ele>297.20000000000005</ele><time>2026-04-30T13:56:46.746Z</time></trkpt><trkpt lat="40.0828617" lon="8.6171333"><ele>296.6</ele><time>2026-04-30T13:56:47.743Z</time></trkpt><trkpt lat="40.0827733" lon="8.6170917"><ele>296.0</ele><time>2026-04-30T13:56:48.746Z</time></trkpt><trkpt lat="40.08269" lon="8.6170683"><ele>296.0</ele><time>2026-04-30T13:56:49.742Z</time></trkpt><trkpt lat="40.0826167" lon="8.6170533"><ele>296.0</ele><time>2026-04-30T13:56:50.773Z</time></trkpt><trkpt lat="40.08254" lon="8.6170467"><ele>296.0</ele><time>2026-04-30T13:56:51.741Z</time></trkpt><trkpt lat="40.082465" lon="8.6170467"><ele>296.0</ele><time>2026-04-30T13:56:52.744Z</time></trkpt><trkpt lat="40.0823817" lon="8.6170567"><ele>296.0</ele><time>2026-04-30T13:56:53.743Z</time></trkpt><trkpt lat="40.0822967" lon="8.6170733"><ele>296.0</ele><time>2026-04-30T13:56:54.743Z</time></trkpt><trkpt lat="40.08221" lon="8.6171033"><ele>295.40000000000003</ele><time>2026-04-30T13:56:55.742Z</time></trkpt><trkpt lat="40.08211" lon="8.6171517"><ele>294.8</ele><time>2026-04-30T13:56:56.802Z</time></trkpt><trkpt lat="40.0820083" lon="8.6172033"><ele>294.20000000000005</ele><time>2026-04-30T13:56:57.744Z</time></trkpt><trkpt lat="40.08191" lon="8.6172533"><ele>293.6</ele><time>2026-04-30T13:56:58.743Z</time></trkpt><trkpt lat="40.0818133" lon="8.6173167"><ele>293.0</ele><time>2026-04-30T13:56:59.743Z</time></trkpt><trkpt lat="40.0817167" lon="8.6173883"><ele>293.0</ele><time>2026-04-30T13:57:00.745Z</time></trkpt><trkpt lat="40.0816217" lon="8.61748"><ele>293.0</ele><time>2026-04-30T13:57:01.743Z</time></trkpt><trkpt lat="40.0815067" lon="8.6176217"><ele>293.0</ele><time>2026-04-30T13:57:02.745Z</time></trkpt><trkpt lat="40.0814117" lon="8.6177717"><ele>293.0</ele><time>2026-04-30T13:57:03.743Z</time></trkpt><trkpt lat="40.0813183" lon="8.6179117"><ele>291.0</ele><time>2026-04-30T13:57:04.745Z</time></trkpt><trkpt lat="40.0812283" lon="8.6180383"><ele>289.0</ele><time>2026-04-30T13:57:05.742Z</time></trkpt><trkpt lat="40.0811367" lon="8.6181617"><ele>287.0</ele><time>2026-04-30T13:57:06.746Z</time></trkpt><trkpt lat="40.08104" lon="8.6182867"><ele>285.0</ele><time>2026-04-30T13:57:07.743Z</time></trkpt><trkpt lat="40.080935" lon="8.6184783"><ele>285.0</ele><time>2026-04-30T13:57:08.768Z</time></trkpt><trkpt lat="40.08083" lon="8.6186383"><ele>285.0</ele><time>2026-04-30T13:57:09.741Z</time></trkpt><trkpt lat="40.0807333" lon="8.6187533"><ele>285.0</ele><time>2026-04-30T13:57:10.745Z</time></trkpt><trkpt lat="40.0806217" lon="8.61887"><ele>285.0</ele><time>2026-04-30T13:57:11.741Z</time></trkpt><trkpt lat="40.080505" lon="8.6189483"><ele>282.75</ele><time>2026-04-30T13:57:12.757Z</time></trkpt><trkpt lat="40.08038" lon="8.6190033"><ele>280.5</ele><time>2026-04-30T13:57:13.743Z</time></trkpt><trkpt lat="40.0802533" lon="8.6190417"><ele>278.25</ele><time>2026-04-30T13:57:14.773Z</time></trkpt><trkpt lat="40.08012" lon="8.6190617"><ele>276.0</ele><time>2026-04-30T13:57:15.743Z</time></trkpt><trkpt lat="40.07998" lon="8.619095"><ele>274.3333333333333</ele><time>2026-04-30T13:57:16.745Z</time></trkpt><trkpt lat="40.0798333" lon="8.6190867"><ele>272.66666666666663</ele><time>2026-04-30T13:57:17.742Z</time></trkpt><trkpt lat="40.0796867" lon="8.6190617"><ele>271.0</ele><time>2026-04-30T13:57:18.748Z</time></trkpt><trkpt lat="40.0795333" lon="8.6190267"><ele>271.0</ele><time>2026-04-30T13:57:19.742Z</time></trkpt><trkpt lat="40.0793783" lon="8.6189717"><ele>271.0</ele><time>2026-04-30T13:57:20.771Z</time></trkpt><trkpt lat="40.0792183" lon="8.6189167"><ele>271.0</ele><time>2026-04-30T13:57:21.746Z</time></trkpt><trkpt lat="40.0790683" lon="8.6188867"><ele>269.0</ele><time>2026-04-30T13:57:22.742Z</time></trkpt><trkpt lat="40.0789217" lon="8.61888"><ele>267.0</ele><time>2026-04-30T13:57:23.74Z</time></trkpt><trkpt lat="40.07877" lon="8.618895"><ele>265.0</ele><time>2026-04-30T13:57:24.746Z</time></trkpt><trkpt lat="40.07861" lon="8.6189283"><ele>265.0</ele><time>2026-04-30T13:57:25.745Z</time></trkpt><trkpt lat="40.0784367" lon="8.6189783"><ele>265.0</ele><time>2026-04-30T13:57:26.807Z</time></trkpt><trkpt lat="40.0780783" lon="8.6190967"><ele>263.0</ele><time>2026-04-30T13:57:28.744Z</time></trkpt><trkpt lat="40.0778933" lon="8.6191583"><ele>261.0</ele><time>2026-04-30T13:57:29.745Z</time></trkpt><trkpt lat="40.077705" lon="8.61922"><ele>259.0</ele><time>2026-04-30T13:57:30.742Z</time></trkpt><trkpt lat="40.07752" lon="8.6192833"><ele>257.3333333333333</ele><time>2026-04-30T13:57:31.745Z</time></trkpt><trkpt lat="40.077335" lon="8.619345"><ele>255.66666666666669</ele><time>2026-04-30T13:57:32.744Z</time></trkpt><trkpt lat="40.0771533" lon="8.619405"><ele>254.0</ele><time>2026-04-30T13:57:33.742Z</time></trkpt><trkpt lat="40.076975" lon="8.6194633"><ele>254.0</ele><time>2026-04-30T13:57:34.742Z</time></trkpt><trkpt lat="40.0767983" lon="8.6195133"><ele>254.0</ele><time>2026-04-30T13:57:35.745Z</time></trkpt><trkpt lat="40.07662" lon="8.6195533"><ele>254.0</ele><time>2026-04-30T13:57:36.743Z</time></trkpt><trkpt lat="40.07644" lon="8.6195767"><ele>252.0</ele><time>2026-04-30T13:57:37.741Z</time></trkpt><trkpt lat="40.0762567" lon="8.6195817"><ele>250.0</ele><time>2026-04-30T13:57:38.772Z</time></trkpt><trkpt lat="40.0760783" lon="8.6195667"><ele>248.0</ele><time>2026-04-30T13:57:39.742Z</time></trkpt><trkpt lat="40.0758933" lon="8.6195333"><ele>247.66666666666669</ele><time>2026-04-30T13:57:40.744Z</time></trkpt><trkpt lat="40.0757033" lon="8.6194767"><ele>247.33333333333331</ele><time>2026-04-30T13:57:41.746Z</time></trkpt><trkpt lat="40.0755233" lon="8.6194267"><ele>247.0</ele><time>2026-04-30T13:57:42.745Z</time></trkpt><trkpt lat="40.0753567" lon="8.6193883"><ele>247.0</ele><time>2026-04-30T13:57:43.744Z</time></trkpt><trkpt lat="40.075195" lon="8.6193433"><ele>247.0</ele><time>2026-04-30T13:57:44.773Z</time></trkpt><trkpt lat="40.0750433" lon="8.6192967"><ele>247.0</ele><time>2026-04-30T13:57:45.741Z</time></trkpt><trkpt lat="40.0749033" lon="8.6192633"><ele>246.5</ele><time>2026-04-30T13:57:46.738Z</time></trkpt><trkpt lat="40.074775" lon="8.6192467"><ele>246.0</ele><time>2026-04-30T13:57:47.744Z</time></trkpt><trkpt lat="40.0746567" lon="8.6192433"><ele>245.5</ele><time>2026-04-30T13:57:48.743Z</time></trkpt><trkpt lat="40.0745417" lon="8.619235"><ele>245.0</ele><time>2026-04-30T13:57:49.743Z</time></trkpt><trkpt lat="40.074425" lon="8.6192217"><ele>245.0</ele><time>2026-04-30T13:57:50.775Z</time></trkpt><trkpt lat="40.0743" lon="8.6192033"><ele>245.0</ele><time>2026-04-30T13:57:51.744Z</time></trkpt><trkpt lat="40.0741633" lon="8.619165"><ele>245.0</ele><time>2026-04-30T13:57:52.742Z</time></trkpt><trkpt lat="40.074025" lon="8.619125"><ele>245.0</ele><time>2026-04-30T13:57:53.744Z</time></trkpt><trkpt lat="40.0738883" lon="8.6190833"><ele>244.75</ele><time>2026-04-30T13:57:54.745Z</time></trkpt><trkpt lat="40.073755" lon="8.619045"><ele>244.5</ele><time>2026-04-30T13:57:55.743Z</time></trkpt><trkpt lat="40.0736267" lon="8.6190067"><ele>244.25</ele><time>2026-04-30T13:57:56.799Z</time></trkpt><trkpt lat="40.0735067" lon="8.6189683"><ele>244.0</ele><time>2026-04-30T13:57:57.743Z</time></trkpt><trkpt lat="40.0733917" lon="8.61892"><ele>244.0</ele><time>2026-04-30T13:57:58.743Z</time></trkpt><trkpt lat="40.0732867" lon="8.6188633"><ele>243.99999999999997</ele><time>2026-04-30T13:57:59.74Z</time></trkpt><trkpt lat="40.0731967" lon="8.6188133"><ele>243.99999999999997</ele><time>2026-04-30T13:58:00.74Z</time></trkpt><trkpt lat="40.0731167" lon="8.61877"><ele>244.0</ele><time>2026-04-30T13:58:01.74Z</time></trkpt><trkpt lat="40.07304" lon="8.618735"><ele>244.0</ele><time>2026-04-30T13:58:02.765Z</time></trkpt><trkpt lat="40.0729667" lon="8.6187017"><ele>243.85714285714283</ele><time>2026-04-30T13:58:03.744Z</time></trkpt><trkpt lat="40.0728967" lon="8.6186717"><ele>243.71428571428572</ele><time>2026-04-30T13:58:04.743Z</time></trkpt><trkpt lat="40.0728233" lon="8.6186483"><ele>243.57142857142856</ele><time>2026-04-30T13:58:05.743Z</time></trkpt><trkpt lat="40.0727533" lon="8.618625"><ele>243.42857142857142</ele><time>2026-04-30T13:58:06.744Z</time></trkpt><trkpt lat="40.0726833" lon="8.6186067"><ele>243.28571428571428</ele><time>2026-04-30T13:58:07.745Z</time></trkpt><trkpt lat="40.072615" lon="8.61859"><ele>243.14285714285714</ele><time>2026-04-30T13:58:08.77Z</time></trkpt><trkpt lat="40.07255" lon="8.6185717"><ele>243.0</ele><time>2026-04-30T13:58:09.738Z</time></trkpt><trkpt lat="40.072485" lon="8.61855"><ele>243.5</ele><time>2026-04-30T13:58:10.743Z</time></trkpt><trkpt lat="40.07237" lon="8.61849"><ele>244.0</ele><time>2026-04-30T13:58:12.746Z</time></trkpt><trkpt lat="40.0722733" lon="8.6184317"><ele>244.5</ele><time>2026-04-30T13:58:14.775Z</time></trkpt><trkpt lat="40.0721983" lon="8.6183833"><ele>245.0</ele><time>2026-04-30T13:58:17.745Z</time></trkpt><trkpt lat="40.07206" lon="8.6184433"><ele>245.00000000000003</ele><time>2026-04-30T13:58:36.743Z</time></trkpt><trkpt lat="40.0719783" lon="8.6184333"><ele>245.0</ele><time>2026-04-30T13:59:15.743Z</time></trkpt><trkpt lat="40.0718783" lon="8.618385"><ele>245.0</ele><time>2026-04-30T13:59:17.743Z</time></trkpt><trkpt lat="40.0718183" lon="8.6183583"><ele>245.0</ele><time>2026-04-30T13:59:18.745Z</time></trkpt><trkpt lat="40.0717583" lon="8.6183317"><ele>245.00000000000003</ele><time>2026-04-30T13:59:19.739Z</time></trkpt><trkpt lat="40.0716883" lon="8.6183017"><ele>245.0</ele><time>2026-04-30T13:59:20.773Z</time></trkpt><trkpt lat="40.0716183" lon="8.61827"><ele>244.50000000000003</ele><time>2026-04-30T13:59:21.74Z</time></trkpt><trkpt lat="40.0715483" lon="8.6182317"><ele>244.0</ele><time>2026-04-30T13:59:22.743Z</time></trkpt><trkpt lat="40.0714783" lon="8.6181983"><ele>243.5</ele><time>2026-04-30T13:59:23.738Z</time></trkpt><trkpt lat="40.0714117" lon="8.6181583"><ele>243.0</ele><time>2026-04-30T13:59:24.741Z</time></trkpt><trkpt lat="40.0713367" lon="8.6181167"><ele>242.50000000000003</ele><time>2026-04-30T13:59:25.741Z</time></trkpt><trkpt lat="40.071275" lon="8.6180833"><ele>242.0</ele><time>2026-04-30T13:59:26.8Z</time></trkpt><trkpt lat="40.0711967" lon="8.6180517"><ele>242.00000000000003</ele><time>2026-04-30T13:59:27.74Z</time></trkpt><trkpt lat="40.07111" lon="8.61801"><ele>242.0</ele><time>2026-04-30T13:59:28.741Z</time></trkpt><trkpt lat="40.0710217" lon="8.617965"><ele>242.0</ele><time>2026-04-30T13:59:29.739Z</time></trkpt><trkpt lat="40.0709467" lon="8.6179283"><ele>242.0</ele><time>2026-04-30T13:59:30.74Z</time></trkpt><trkpt lat="40.0708833" lon="8.6179"><ele>242.00000000000003</ele><time>2026-04-30T13:59:31.744Z</time></trkpt><trkpt lat="40.07082" lon="8.6178833"><ele>242.0</ele><time>2026-04-30T13:59:32.802Z</time></trkpt><trkpt lat="40.070715" lon="8.6179067"><ele>242.2</ele><time>2026-04-30T13:59:34.743Z</time></trkpt><trkpt lat="40.0706117" lon="8.6179467"><ele>242.39999999999998</ele><time>2026-04-30T13:59:36.742Z</time></trkpt><trkpt lat="40.0704983" lon="8.61795"><ele>242.60000000000002</ele><time>2026-04-30T13:59:38.743Z</time></trkpt><trkpt lat="40.0703817" lon="8.6179383"><ele>242.8</ele><time>2026-04-30T13:59:40.741Z</time></trkpt><trkpt lat="40.070275" lon="8.61791"><ele>243.0</ele><time>2026-04-30T13:59:42.742Z</time></trkpt><trkpt lat="40.0701967" lon="8.6178317"><ele>243.33333333333334</ele><time>2026-04-30T13:59:44.745Z</time></trkpt><trkpt lat="40.0701417" lon="8.6177133"><ele>243.66666666666669</ele><time>2026-04-30T13:59:46.74Z</time></trkpt><trkpt lat="40.0701217" lon="8.61762"><ele>244.0</ele><time>2026-04-30T13:59:47.738Z</time></trkpt><trkpt lat="40.070095" lon="8.6175217"><ele>244.33333333333334</ele><time>2026-04-30T13:59:48.742Z</time></trkpt><trkpt lat="40.0700717" lon="8.617415"><ele>244.66666666666669</ele><time>2026-04-30T13:59:49.74Z</time></trkpt><trkpt lat="40.07005" lon="8.6173217"><ele>245.0</ele><time>2026-04-30T13:59:50.742Z</time></trkpt><trkpt lat="40.070035" lon="8.6172267"><ele>245.00000000000003</ele><time>2026-04-30T13:59:51.742Z</time></trkpt><trkpt lat="40.0700183" lon="8.6171283"><ele>245.0</ele><time>2026-04-30T13:59:52.74Z</time></trkpt><trkpt lat="40.0699983" lon="8.6170367"><ele>245.0</ele><time>2026-04-30T13:59:53.742Z</time></trkpt><trkpt lat="40.0699733" lon="8.616945"><ele>245.0</ele><time>2026-04-30T13:59:54.739Z</time></trkpt><trkpt lat="40.0699483" lon="8.6168517"><ele>245.00000000000003</ele><time>2026-04-30T13:59:55.744Z</time></trkpt><trkpt lat="40.069925" lon="8.61676"><ele>245.0</ele><time>2026-04-30T13:59:56.801Z</time></trkpt><trkpt lat="40.0699117" lon="8.6166583"><ele>244.28571428571428</ele><time>2026-04-30T13:59:57.738Z</time></trkpt><trkpt lat="40.0698933" lon="8.6165733"><ele>243.57142857142856</ele><time>2026-04-30T13:59:58.743Z</time></trkpt><trkpt lat="40.0698717" lon="8.6164917"><ele>242.85714285714286</ele><time>2026-04-30T13:59:59.741Z</time></trkpt><trkpt lat="40.0698433" lon="8.616415"><ele>242.14285714285714</ele><time>2026-04-30T14:00:00.74Z</time></trkpt><trkpt lat="40.0698083" lon="8.6163317"><ele>241.42857142857142</ele><time>2026-04-30T14:00:01.744Z</time></trkpt><trkpt lat="40.06977" lon="8.61624"><ele>240.71428571428572</ele><time>2026-04-30T14:00:02.743Z</time></trkpt><trkpt lat="40.06973" lon="8.61615"><ele>240.0</ele><time>2026-04-30T14:00:03.738Z</time></trkpt><trkpt lat="40.0696933" lon="8.6160683"><ele>239.28571428571428</ele><time>2026-04-30T14:00:04.741Z</time></trkpt><trkpt lat="40.0696567" lon="8.6159867"><ele>238.57142857142856</ele><time>2026-04-30T14:00:05.741Z</time></trkpt><trkpt lat="40.06962" lon="8.6159133"><ele>237.85714285714283</ele><time>2026-04-30T14:00:06.743Z</time></trkpt><trkpt lat="40.0695767" lon="8.615845"><ele>237.14285714285714</ele><time>2026-04-30T14:00:07.741Z</time></trkpt><trkpt lat="40.0695267" lon="8.6157717"><ele>236.4285714285714</ele><time>2026-04-30T14:00:08.743Z</time></trkpt><trkpt lat="40.0694667" lon="8.6157033"><ele>235.7142857142857</ele><time>2026-04-30T14:00:09.742Z</time></trkpt><trkpt lat="40.0694" lon="8.6156333"><ele>235.0</ele><time>2026-04-30T14:00:10.74Z</time></trkpt><trkpt lat="40.0693283" lon="8.6155683"><ele>234.99999999999997</ele><time>2026-04-30T14:00:11.739Z</time></trkpt><trkpt lat="40.0692567" lon="8.6155083"><ele>235.0</ele><time>2026-04-30T14:00:12.746Z</time></trkpt><trkpt lat="40.0691833" lon="8.6154467"><ele>235.0</ele><time>2026-04-30T14:00:13.738Z</time></trkpt><trkpt lat="40.069115" lon="8.6153783"><ele>235.0</ele><time>2026-04-30T14:00:14.747Z</time></trkpt><trkpt lat="40.06905" lon="8.6153217"><ele>234.99999999999997</ele><time>2026-04-30T14:00:15.741Z</time></trkpt><trkpt lat="40.0689883" lon="8.61527"><ele>235.0</ele><time>2026-04-30T14:00:16.739Z</time></trkpt><trkpt lat="40.068925" lon="8.6152233"><ele>234.14285714285714</ele><time>2026-04-30T14:00:17.741Z</time></trkpt><trkpt lat="40.06886" lon="8.61518"><ele>233.28571428571428</ele><time>2026-04-30T14:00:18.742Z</time></trkpt><trkpt lat="40.0687983" lon="8.6151567"><ele>232.42857142857142</ele><time>2026-04-30T14:00:19.742Z</time></trkpt><trkpt lat="40.0687317" lon="8.615145"><ele>231.57142857142856</ele><time>2026-04-30T14:00:20.744Z</time></trkpt><trkpt lat="40.068665" lon="8.6151367"><ele>230.71428571428572</ele><time>2026-04-30T14:00:21.743Z</time></trkpt><trkpt lat="40.06859" lon="8.6151367"><ele>229.85714285714283</ele><time>2026-04-30T14:00:22.741Z</time></trkpt><trkpt lat="40.0685133" lon="8.6151417"><ele>229.0</ele><time>2026-04-30T14:00:23.754Z</time></trkpt><trkpt lat="40.06844" lon="8.6151417"><ele>229.0</ele><time>2026-04-30T14:00:24.748Z</time></trkpt><trkpt lat="40.0683667" lon="8.6151367"><ele>228.99999999999997</ele><time>2026-04-30T14:00:25.746Z</time></trkpt><trkpt lat="40.0682517" lon="8.6150983"><ele>228.99999999999997</ele><time>2026-04-30T14:00:27.739Z</time></trkpt><trkpt lat="40.0681467" lon="8.6150333"><ele>229.0</ele><time>2026-04-30T14:00:29.743Z</time></trkpt><trkpt lat="40.0680483" lon="8.614915"><ele>229.0</ele><time>2026-04-30T14:00:31.745Z</time></trkpt><trkpt lat="40.0679883" lon="8.6148317"><ele>228.49999999999997</ele><time>2026-04-30T14:00:32.766Z</time></trkpt><trkpt lat="40.0679267" lon="8.614745"><ele>228.0</ele><time>2026-04-30T14:00:33.741Z</time></trkpt><trkpt lat="40.06786" lon="8.614655"><ele>227.5</ele><time>2026-04-30T14:00:34.741Z</time></trkpt><trkpt lat="40.0677983" lon="8.6145633"><ele>227.0</ele><time>2026-04-30T14:00:35.745Z</time></trkpt><trkpt lat="40.067745" lon="8.614475"><ele>226.49999999999997</ele><time>2026-04-30T14:00:36.742Z</time></trkpt><trkpt lat="40.0676917" lon="8.614395"><ele>226.0</ele><time>2026-04-30T14:00:37.739Z</time></trkpt><trkpt lat="40.0676283" lon="8.6143217"><ele>225.49999999999997</ele><time>2026-04-30T14:00:38.741Z</time></trkpt><trkpt lat="40.0675717" lon="8.6142517"><ele>225.0</ele><time>2026-04-30T14:00:39.742Z</time></trkpt><trkpt lat="40.0674967" lon="8.6141883"><ele>224.5</ele><time>2026-04-30T14:00:40.744Z</time></trkpt><trkpt lat="40.0674283" lon="8.6141333"><ele>224.0</ele><time>2026-04-30T14:00:41.744Z</time></trkpt><trkpt lat="40.0673667" lon="8.6140833"><ele>223.49999999999997</ele><time>2026-04-30T14:00:42.743Z</time></trkpt><trkpt lat="40.067305" lon="8.6140283"><ele>223.0</ele><time>2026-04-30T14:00:43.743Z</time></trkpt><trkpt lat="40.0672533" lon="8.613965"><ele>222.0</ele><time>2026-04-30T14:00:44.743Z</time></trkpt><trkpt lat="40.0671833" lon="8.61383"><ele>221.0</ele><time>2026-04-30T14:00:46.741Z</time></trkpt><trkpt lat="40.0671333" lon="8.6137"><ele>220.0</ele><time>2026-04-30T14:00:48.743Z</time></trkpt><trkpt lat="40.0670867" lon="8.61358"><ele>219.0</ele><time>2026-04-30T14:00:50.743Z</time></trkpt><trkpt lat="40.0670533" lon="8.613445"><ele>218.0</ele><time>2026-04-30T14:00:52.754Z</time></trkpt><trkpt lat="40.0670317" lon="8.6132883"><ele>217.4</ele><time>2026-04-30T14:00:54.746Z</time></trkpt><trkpt lat="40.0670317" lon="8.613205"><ele>216.8</ele><time>2026-04-30T14:00:55.741Z</time></trkpt><trkpt lat="40.0670483" lon="8.6130117"><ele>216.2</ele><time>2026-04-30T14:00:57.743Z</time></trkpt><trkpt lat="40.0670533" lon="8.6129267"><ele>215.6</ele><time>2026-04-30T14:00:58.743Z</time></trkpt><trkpt lat="40.067055" lon="8.6128433"><ele>215.0</ele><time>2026-04-30T14:00:59.738Z</time></trkpt><trkpt lat="40.067045" lon="8.6126883"><ele>214.66666666666669</ele><time>2026-04-30T14:01:01.741Z</time></trkpt><trkpt lat="40.067015" lon="8.6125617"><ele>214.33333333333334</ele><time>2026-04-30T14:01:03.743Z</time></trkpt><trkpt lat="40.066985" lon="8.6124733"><ele>214.0</ele><time>2026-04-30T14:01:05.741Z</time></trkpt><trkpt lat="40.06693" lon="8.612425"><ele>213.66666666666669</ele><time>2026-04-30T14:01:07.74Z</time></trkpt><trkpt lat="40.0668683" lon="8.6123667"><ele>213.33333333333334</ele><time>2026-04-30T14:01:09.745Z</time></trkpt><trkpt lat="40.0667767" lon="8.6123767"><ele>213.0</ele><time>2026-04-30T14:01:11.746Z</time></trkpt><trkpt lat="40.066715" lon="8.61243"><ele>213.0</ele><time>2026-04-30T14:01:13.744Z</time></trkpt><trkpt lat="40.0666133" lon="8.6124233"><ele>213.0</ele><time>2026-04-30T14:01:18.741Z</time></trkpt><trkpt lat="40.066545" lon="8.6123583"><ele>213.0</ele><time>2026-04-30T14:01:20.74Z</time></trkpt><trkpt lat="40.0664983" lon="8.6123017"><ele>213.0</ele><time>2026-04-30T14:01:21.744Z</time></trkpt><trkpt lat="40.0664517" lon="8.6122383"><ele>213.0</ele><time>2026-04-30T14:01:22.746Z</time></trkpt><trkpt lat="40.0663883" lon="8.6121767"><ele>213.0</ele><time>2026-04-30T14:01:23.738Z</time></trkpt><trkpt lat="40.0663233" lon="8.6121183"><ele>212.4</ele><time>2026-04-30T14:01:24.742Z</time></trkpt><trkpt lat="40.0662767" lon="8.6120583"><ele>211.8</ele><time>2026-04-30T14:01:25.74Z</time></trkpt><trkpt lat="40.0662017" lon="8.6119383"><ele>211.2</ele><time>2026-04-30T14:01:27.74Z</time></trkpt><trkpt lat="40.0661683" lon="8.6118"><ele>210.6</ele><time>2026-04-30T14:01:29.742Z</time></trkpt><trkpt lat="40.066145" lon="8.6116517"><ele>210.0</ele><time>2026-04-30T14:01:31.746Z</time></trkpt><trkpt lat="40.0661117" lon="8.6115083"><ele>209.5</ele><time>2026-04-30T14:01:33.739Z</time></trkpt><trkpt lat="40.0660883" lon="8.61143"><ele>209.0</ele><time>2026-04-30T14:01:34.746Z</time></trkpt><trkpt lat="40.0660617" lon="8.6113517"><ele>208.5</ele><time>2026-04-30T14:01:35.74Z</time></trkpt><trkpt lat="40.06602" lon="8.6112017"><ele>208.0</ele><time>2026-04-30T14:01:37.739Z</time></trkpt><trkpt lat="40.0659833" lon="8.6110683"><ele>207.5</ele><time>2026-04-30T14:01:39.742Z</time></trkpt><trkpt lat="40.0659483" lon="8.6109617"><ele>207.0</ele><time>2026-04-30T14:01:41.742Z</time></trkpt><trkpt lat="40.0658933" lon="8.61088"><ele>206.2</ele><time>2026-04-30T14:01:43.744Z</time></trkpt><trkpt lat="40.06582" lon="8.6108133"><ele>205.39999999999998</ele><time>2026-04-30T14:01:45.743Z</time></trkpt><trkpt lat="40.06572" lon="8.6107583"><ele>204.60000000000002</ele><time>2026-04-30T14:01:47.741Z</time></trkpt><trkpt lat="40.0656283" lon="8.61073"><ele>203.8</ele><time>2026-04-30T14:01:49.741Z</time></trkpt><trkpt lat="40.0655217" lon="8.6107133"><ele>203.0</ele><time>2026-04-30T14:01:51.74Z</time></trkpt><trkpt lat="40.06541" lon="8.6107017"><ele>202.66666666666669</ele><time>2026-04-30T14:01:53.738Z</time></trkpt><trkpt lat="40.0653467" lon="8.6107183"><ele>202.33333333333334</ele><time>2026-04-30T14:01:54.741Z</time></trkpt><trkpt lat="40.0652083" lon="8.6107233"><ele>202.0</ele><time>2026-04-30T14:01:56.766Z</time></trkpt><trkpt lat="40.0651383" lon="8.6107117"><ele>201.66666666666669</ele><time>2026-04-30T14:01:57.745Z</time></trkpt><trkpt lat="40.0650567" lon="8.6106967"><ele>201.33333333333334</ele><time>2026-04-30T14:01:58.746Z</time></trkpt><trkpt lat="40.06498" lon="8.6106917"><ele>201.0</ele><time>2026-04-30T14:01:59.745Z</time></trkpt><trkpt lat="40.06491" lon="8.6106733"><ele>200.33333333333334</ele><time>2026-04-30T14:02:00.741Z</time></trkpt><trkpt lat="40.0648317" lon="8.610655"><ele>199.66666666666669</ele><time>2026-04-30T14:02:01.741Z</time></trkpt><trkpt lat="40.0647483" lon="8.6106283"><ele>199.0</ele><time>2026-04-30T14:02:02.776Z</time></trkpt><trkpt lat="40.0646717" lon="8.6106067"><ele>198.33333333333334</ele><time>2026-04-30T14:02:03.74Z</time></trkpt><trkpt lat="40.0646017" lon="8.6105867"><ele>197.66666666666669</ele><time>2026-04-30T14:02:04.744Z</time></trkpt><trkpt lat="40.0645383" lon="8.6105667"><ele>197.0</ele><time>2026-04-30T14:02:05.745Z</time></trkpt><trkpt lat="40.06444" lon="8.61053"><ele>197.00000000000003</ele><time>2026-04-30T14:02:07.743Z</time></trkpt><trkpt lat="40.0643883" lon="8.6104717"><ele>197.0</ele><time>2026-04-30T14:02:09.739Z</time></trkpt><trkpt lat="40.0643717" lon="8.610385"><ele>197.0</ele><time>2026-04-30T14:02:11.739Z</time></trkpt><trkpt lat="40.0643633" lon="8.6102917"><ele>197.0</ele><time>2026-04-30T14:02:13.741Z</time></trkpt><trkpt lat="40.06435" lon="8.6101833"><ele>197.00000000000003</ele><time>2026-04-30T14:02:15.741Z</time></trkpt><trkpt lat="40.0643567" lon="8.6100733"><ele>197.0</ele><time>2026-04-30T14:02:17.741Z</time></trkpt><trkpt lat="40.06437" lon="8.6099717"><ele>196.83333333333334</ele><time>2026-04-30T14:02:19.741Z</time></trkpt><trkpt lat="40.06438" lon="8.609875"><ele>196.66666666666669</ele><time>2026-04-30T14:02:21.742Z</time></trkpt><trkpt lat="40.064365" lon="8.6097867"><ele>196.5</ele><time>2026-04-30T14:02:23.742Z</time></trkpt><trkpt lat="40.0643067" lon="8.6096833"><ele>196.33333333333331</ele><time>2026-04-30T14:02:25.741Z</time></trkpt><trkpt lat="40.0642483" lon="8.6095933"><ele>196.16666666666666</ele><time>2026-04-30T14:02:27.738Z</time></trkpt><trkpt lat="40.0641783" lon="8.6094733"><ele>196.0</ele><time>2026-04-30T14:02:29.741Z</time></trkpt><trkpt lat="40.0641417" lon="8.609405"><ele>194.16666666666666</ele><time>2026-04-30T14:02:30.741Z</time></trkpt><trkpt lat="40.0641033" lon="8.6093317"><ele>192.33333333333331</ele><time>2026-04-30T14:02:31.74Z</time></trkpt><trkpt lat="40.0640567" lon="8.60925"><ele>190.5</ele><time>2026-04-30T14:02:32.74Z</time></trkpt><trkpt lat="40.0640067" lon="8.6091667"><ele>188.66666666666666</ele><time>2026-04-30T14:02:33.741Z</time></trkpt><trkpt lat="40.0639567" lon="8.6090867"><ele>186.83333333333331</ele><time>2026-04-30T14:02:34.744Z</time></trkpt><trkpt lat="40.06391" lon="8.6090117"><ele>185.0</ele><time>2026-04-30T14:02:35.739Z</time></trkpt><trkpt lat="40.0638667" lon="8.6089383"><ele>185.0</ele><time>2026-04-30T14:02:36.743Z</time></trkpt><trkpt lat="40.0638183" lon="8.6088633"><ele>185.0</ele><time>2026-04-30T14:02:37.745Z</time></trkpt><trkpt lat="40.0637683" lon="8.6087883"><ele>185.0</ele><time>2026-04-30T14:02:38.739Z</time></trkpt><trkpt lat="40.063715" lon="8.6087133"><ele>185.0</ele><time>2026-04-30T14:02:39.743Z</time></trkpt><trkpt lat="40.06366" lon="8.60864"><ele>185.0</ele><time>2026-04-30T14:02:40.741Z</time></trkpt><trkpt lat="40.06361" lon="8.608565"><ele>185.0</ele><time>2026-04-30T14:02:41.744Z</time></trkpt><trkpt lat="40.0635633" lon="8.6084967"><ele>184.6</ele><time>2026-04-30T14:02:42.741Z</time></trkpt><trkpt lat="40.0635183" lon="8.6084333"><ele>184.2</ele><time>2026-04-30T14:02:43.741Z</time></trkpt><trkpt lat="40.0634733" lon="8.6083733"><ele>183.8</ele><time>2026-04-30T14:02:44.743Z</time></trkpt><trkpt lat="40.063395" lon="8.60828"><ele>183.4</ele><time>2026-04-30T14:02:46.74Z</time></trkpt><trkpt lat="40.06331" lon="8.6081983"><ele>183.0</ele><time>2026-04-30T14:02:48.746Z</time></trkpt><trkpt lat="40.063215" lon="8.60812"><ele>182.0</ele><time>2026-04-30T14:02:50.745Z</time></trkpt><trkpt lat="40.0631217" lon="8.6080367"><ele>181.0</ele><time>2026-04-30T14:02:52.741Z</time></trkpt><trkpt lat="40.0630217" lon="8.6079433"><ele>180.0</ele><time>2026-04-30T14:02:54.742Z</time></trkpt><trkpt lat="40.0629717" lon="8.6078817"><ele>179.0</ele><time>2026-04-30T14:02:55.741Z</time></trkpt><trkpt lat="40.0629267" lon="8.6078167"><ele>178.0</ele><time>2026-04-30T14:02:56.768Z</time></trkpt><trkpt lat="40.06288" lon="8.60775"><ele>177.0</ele><time>2026-04-30T14:02:57.742Z</time></trkpt><trkpt lat="40.0628317" lon="8.6076833"><ele>177.0</ele><time>2026-04-30T14:02:58.744Z</time></trkpt><trkpt lat="40.062785" lon="8.6076167"><ele>177.0</ele><time>2026-04-30T14:02:59.744Z</time></trkpt><trkpt lat="40.0627383" lon="8.6075567"><ele>177.0</ele><time>2026-04-30T14:03:00.743Z</time></trkpt><trkpt lat="40.0626433" lon="8.6074467"><ele>177.0</ele><time>2026-04-30T14:03:02.778Z</time></trkpt><trkpt lat="40.0625533" lon="8.6073383"><ele>177.0</ele><time>2026-04-30T14:03:04.743Z</time></trkpt><trkpt lat="40.0625133" lon="8.6072733"><ele>177.0</ele><time>2026-04-30T14:03:05.74Z</time></trkpt><trkpt lat="40.0624617" lon="8.607135"><ele>175.0</ele><time>2026-04-30T14:03:07.743Z</time></trkpt><trkpt lat="40.062445" lon="8.6069917"><ele>173.0</ele><time>2026-04-30T14:03:09.742Z</time></trkpt><trkpt lat="40.062435" lon="8.6068483"><ele>171.0</ele><time>2026-04-30T14:03:11.742Z</time></trkpt><trkpt lat="40.06241" lon="8.6067133"><ele>169.0</ele><time>2026-04-30T14:03:13.744Z</time></trkpt><trkpt lat="40.062355" lon="8.6065583"><ele>169.0</ele><time>2026-04-30T14:03:15.742Z</time></trkpt><trkpt lat="40.0623183" lon="8.60647"><ele>169.0</ele><time>2026-04-30T14:03:16.743Z</time></trkpt><trkpt lat="40.062275" lon="8.606375"><ele>169.0</ele><time>2026-04-30T14:03:17.743Z</time></trkpt><trkpt lat="40.06223" lon="8.60627"><ele>169.0</ele><time>2026-04-30T14:03:18.739Z</time></trkpt><trkpt lat="40.0621883" lon="8.606165"><ele>169.0</ele><time>2026-04-30T14:03:19.742Z</time></trkpt><trkpt lat="40.0621533" lon="8.6060467"><ele>169.0</ele><time>2026-04-30T14:03:20.738Z</time></trkpt><trkpt lat="40.06212" lon="8.605935"><ele>168.2</ele><time>2026-04-30T14:03:21.741Z</time></trkpt><trkpt lat="40.0620833" lon="8.605825"><ele>167.39999999999998</ele><time>2026-04-30T14:03:22.741Z</time></trkpt><trkpt lat="40.0620417" lon="8.6057"><ele>166.6</ele><time>2026-04-30T14:03:23.741Z</time></trkpt><trkpt lat="40.062005" lon="8.605615"><ele>165.8</ele><time>2026-04-30T14:03:24.743Z</time></trkpt><trkpt lat="40.0619733" lon="8.6055383"><ele>165.0</ele><time>2026-04-30T14:03:25.742Z</time></trkpt><trkpt lat="40.061905" lon="8.605405"><ele>165.0</ele><time>2026-04-30T14:03:27.742Z</time></trkpt><trkpt lat="40.0618233" lon="8.60529"><ele>165.0</ele><time>2026-04-30T14:03:29.742Z</time></trkpt><trkpt lat="40.061775" lon="8.605235"><ele>165.0</ele><time>2026-04-30T14:03:30.743Z</time></trkpt><trkpt lat="40.06172" lon="8.6051867"><ele>165.0</ele><time>2026-04-30T14:03:31.74Z</time></trkpt><trkpt lat="40.06162" lon="8.6051183"><ele>165.0</ele><time>2026-04-30T14:03:33.741Z</time></trkpt><trkpt lat="40.0615233" lon="8.6050767"><ele>163.8</ele><time>2026-04-30T14:03:35.743Z</time></trkpt><trkpt lat="40.06144" lon="8.605005"><ele>162.6</ele><time>2026-04-30T14:03:37.743Z</time></trkpt><trkpt lat="40.0613633" lon="8.6049017"><ele>161.4</ele><time>2026-04-30T14:03:39.745Z</time></trkpt><trkpt lat="40.0612933" lon="8.6047633"><ele>160.2</ele><time>2026-04-30T14:03:41.739Z</time></trkpt><trkpt lat="40.06126" lon="8.6046917"><ele>159.0</ele><time>2026-04-30T14:03:42.745Z</time></trkpt><trkpt lat="40.0611933" lon="8.6045583"><ele>158.57142857142856</ele><time>2026-04-30T14:03:44.742Z</time></trkpt><trkpt lat="40.0611483" lon="8.6044917"><ele>158.14285714285717</ele><time>2026-04-30T14:03:45.745Z</time></trkpt><trkpt lat="40.0611033" lon="8.6044283"><ele>157.71428571428572</ele><time>2026-04-30T14:03:46.743Z</time></trkpt><trkpt lat="40.06106" lon="8.6043667"><ele>157.28571428571428</ele><time>2026-04-30T14:03:47.744Z</time></trkpt><trkpt lat="40.0610117" lon="8.6043117"><ele>156.85714285714283</ele><time>2026-04-30T14:03:48.745Z</time></trkpt><trkpt lat="40.0609617" lon="8.6042517"><ele>156.42857142857144</ele><time>2026-04-30T14:03:49.743Z</time></trkpt><trkpt lat="40.0609133" lon="8.6041983"><ele>156.0</ele><time>2026-04-30T14:03:50.746Z</time></trkpt><trkpt lat="40.0608617" lon="8.6041367"><ele>156.0</ele><time>2026-04-30T14:03:51.746Z</time></trkpt><trkpt lat="40.0608167" lon="8.6040683"><ele>156.0</ele><time>2026-04-30T14:03:52.742Z</time></trkpt><trkpt lat="40.0607667" lon="8.603995"><ele>156.0</ele><time>2026-04-30T14:03:53.742Z</time></trkpt><trkpt lat="40.0607183" lon="8.603925"><ele>156.0</ele><time>2026-04-30T14:03:54.739Z</time></trkpt><trkpt lat="40.0606667" lon="8.6038583"><ele>156.0</ele><time>2026-04-30T14:03:55.742Z</time></trkpt><trkpt lat="40.0606183" lon="8.6037833"><ele>156.0</ele><time>2026-04-30T14:03:56.766Z</time></trkpt><trkpt lat="40.0605733" lon="8.603705"><ele>156.0</ele><time>2026-04-30T14:03:57.743Z</time></trkpt><trkpt lat="40.060535" lon="8.6036283"><ele>155.14285714285714</ele><time>2026-04-30T14:03:58.745Z</time></trkpt><trkpt lat="40.0604983" lon="8.6035517"><ele>154.28571428571428</ele><time>2026-04-30T14:03:59.742Z</time></trkpt><trkpt lat="40.0604617" lon="8.6034767"><ele>153.42857142857142</ele><time>2026-04-30T14:04:00.743Z</time></trkpt><trkpt lat="40.0604267" lon="8.603405"><ele>152.57142857142856</ele><time>2026-04-30T14:04:01.741Z</time></trkpt><trkpt lat="40.0603933" lon="8.6033283"><ele>151.71428571428572</ele><time>2026-04-30T14:04:02.766Z</time></trkpt><trkpt lat="40.060365" lon="8.6032483"><ele>150.85714285714283</ele><time>2026-04-30T14:04:03.744Z</time></trkpt><trkpt lat="40.0603433" lon="8.6031683"><ele>150.0</ele><time>2026-04-30T14:04:04.743Z</time></trkpt><trkpt lat="40.06031" lon="8.6030133"><ele>150.0</ele><time>2026-04-30T14:04:06.763Z</time></trkpt><trkpt lat="40.060315" lon="8.602865"><ele>150.0</ele><time>2026-04-30T14:04:08.741Z</time></trkpt><trkpt lat="40.06035" lon="8.60273"><ele>150.0</ele><time>2026-04-30T14:04:10.743Z</time></trkpt><trkpt lat="40.060405" lon="8.60258"><ele>150.0</ele><time>2026-04-30T14:04:12.744Z</time></trkpt><trkpt lat="40.0604367" lon="8.60249"><ele>150.0</ele><time>2026-04-30T14:04:13.745Z</time></trkpt><trkpt lat="40.0604667" lon="8.602395"><ele>149.2</ele><time>2026-04-30T14:04:14.743Z</time></trkpt><trkpt lat="40.0604933" lon="8.602285"><ele>148.4</ele><time>2026-04-30T14:04:15.746Z</time></trkpt><trkpt lat="40.0605217" lon="8.6021683"><ele>147.6</ele><time>2026-04-30T14:04:16.747Z</time></trkpt><trkpt lat="40.06055" lon="8.602055"><ele>146.8</ele><time>2026-04-30T14:04:17.746Z</time></trkpt><trkpt lat="40.060585" lon="8.6019367"><ele>146.0</ele><time>2026-04-30T14:04:18.742Z</time></trkpt><trkpt lat="40.06061" lon="8.6018167"><ele>145.5</ele><time>2026-04-30T14:04:19.74Z</time></trkpt><trkpt lat="40.0606317" lon="8.6016983"><ele>145.0</ele><time>2026-04-30T14:04:20.739Z</time></trkpt><trkpt lat="40.060635" lon="8.601585"><ele>144.5</ele><time>2026-04-30T14:04:21.745Z</time></trkpt><trkpt lat="40.0606517" lon="8.601485"><ele>144.0</ele><time>2026-04-30T14:04:22.742Z</time></trkpt><trkpt lat="40.06067" lon="8.6013867"><ele>143.5</ele><time>2026-04-30T14:04:23.742Z</time></trkpt><trkpt lat="40.060695" lon="8.6013033"><ele>143.0</ele><time>2026-04-30T14:04:24.746Z</time></trkpt><trkpt lat="40.0607433" lon="8.6012083"><ele>142.83333333333331</ele><time>2026-04-30T14:04:26.743Z</time></trkpt><trkpt lat="40.060785" lon="8.60111"><ele>142.66666666666666</ele><time>2026-04-30T14:04:29.746Z</time></trkpt><trkpt lat="40.06082" lon="8.6010233"><ele>142.5</ele><time>2026-04-30T14:04:32.767Z</time></trkpt><trkpt lat="40.0608333" lon="8.6009417"><ele>142.33333333333334</ele><time>2026-04-30T14:04:34.741Z</time></trkpt><trkpt lat="40.060795" lon="8.60082"><ele>142.16666666666669</ele><time>2026-04-30T14:04:36.74Z</time></trkpt><trkpt lat="40.0607433" lon="8.6006733"><ele>142.0</ele><time>2026-04-30T14:04:38.739Z</time></trkpt><trkpt lat="40.0607067" lon="8.6005933"><ele>142.0</ele><time>2026-04-30T14:04:39.74Z</time></trkpt><trkpt lat="40.0606667" lon="8.6005083"><ele>142.0</ele><time>2026-04-30T14:04:40.741Z</time></trkpt><trkpt lat="40.0606267" lon="8.6004217"><ele>142.0</ele><time>2026-04-30T14:04:41.742Z</time></trkpt><trkpt lat="40.0605867" lon="8.6003383"><ele>142.0</ele><time>2026-04-30T14:04:42.739Z</time></trkpt><trkpt lat="40.060545" lon="8.6002617"><ele>142.0</ele><time>2026-04-30T14:04:43.743Z</time></trkpt><trkpt lat="40.0605033" lon="8.6001933"><ele>142.0</ele><time>2026-04-30T14:04:44.741Z</time></trkpt><trkpt lat="40.060405" lon="8.6001017"><ele>141.79999999999998</ele><time>2026-04-30T14:04:46.741Z</time></trkpt><trkpt lat="40.060295" lon="8.6000683"><ele>141.6</ele><time>2026-04-30T14:04:48.738Z</time></trkpt><trkpt lat="40.06023" lon="8.60007"><ele>141.39999999999998</ele><time>2026-04-30T14:04:49.738Z</time></trkpt><trkpt lat="40.060145" lon="8.600075"><ele>141.2</ele><time>2026-04-30T14:04:50.741Z</time></trkpt><trkpt lat="40.060045" lon="8.600075"><ele>141.0</ele><time>2026-04-30T14:04:51.742Z</time></trkpt><trkpt lat="40.0599283" lon="8.6001067"><ele>140.25</ele><time>2026-04-30T14:04:52.739Z</time></trkpt><trkpt lat="40.0598017" lon="8.6001067"><ele>139.5</ele><time>2026-04-30T14:04:53.741Z</time></trkpt><trkpt lat="40.0596583" lon="8.6001017"><ele>138.75</ele><time>2026-04-30T14:04:54.745Z</time></trkpt><trkpt lat="40.05952" lon="8.6000867"><ele>138.0</ele><time>2026-04-30T14:04:55.74Z</time></trkpt><trkpt lat="40.059375" lon="8.6000767"><ele>138.0</ele><time>2026-04-30T14:04:56.803Z</time></trkpt><trkpt lat="40.059235" lon="8.6000667"><ele>138.0</ele><time>2026-04-30T14:04:57.742Z</time></trkpt><trkpt lat="40.0590883" lon="8.6000583"><ele>138.0</ele><time>2026-04-30T14:04:58.746Z</time></trkpt><trkpt lat="40.0589517" lon="8.600055"><ele>138.0</ele><time>2026-04-30T14:04:59.742Z</time></trkpt><trkpt lat="40.0588333" lon="8.6000317"><ele>136.8</ele><time>2026-04-30T14:05:00.738Z</time></trkpt><trkpt lat="40.058725" lon="8.6000083"><ele>135.60000000000002</ele><time>2026-04-30T14:05:01.744Z</time></trkpt><trkpt lat="40.0586317" lon="8.5999833"><ele>134.39999999999998</ele><time>2026-04-30T14:05:02.745Z</time></trkpt><trkpt lat="40.0585517" lon="8.5999667"><ele>133.2</ele><time>2026-04-30T14:05:03.74Z</time></trkpt><trkpt lat="40.0584783" lon="8.5999533"><ele>132.0</ele><time>2026-04-30T14:05:04.74Z</time></trkpt><trkpt lat="40.05838" lon="8.5999017"><ele>132.0</ele><time>2026-04-30T14:05:06.738Z</time></trkpt><trkpt lat="40.0583133" lon="8.5998567"><ele>132.0</ele><time>2026-04-30T14:05:08.746Z</time></trkpt><trkpt lat="40.0583633" lon="8.5999383"><ele>132.0</ele><time>2026-04-30T14:05:13.741Z</time></trkpt><trkpt lat="40.058465" lon="8.5999683"><ele>132.0</ele><time>2026-04-30T14:05:15.742Z</time></trkpt><trkpt lat="40.05854" lon="8.5999883"><ele>132.0</ele><time>2026-04-30T14:05:16.741Z</time></trkpt><trkpt lat="40.0586267" lon="8.60001"><ele>132.0</ele><time>2026-04-30T14:05:17.743Z</time></trkpt><trkpt lat="40.0587283" lon="8.6000333"><ele>132.0</ele><time>2026-04-30T14:05:18.744Z</time></trkpt><trkpt lat="40.0588567" lon="8.600055"><ele>132.0</ele><time>2026-04-30T14:05:19.743Z</time></trkpt><trkpt lat="40.0590033" lon="8.6000517"><ele>132.0</ele><time>2026-04-30T14:05:20.743Z</time></trkpt><trkpt lat="40.05913" lon="8.6000567"><ele>132.0</ele><time>2026-04-30T14:05:21.74Z</time></trkpt><trkpt lat="40.05923" lon="8.6000733"><ele>133.0</ele><time>2026-04-30T14:05:22.739Z</time></trkpt><trkpt lat="40.05932" lon="8.6000867"><ele>134.0</ele><time>2026-04-30T14:05:23.741Z</time></trkpt><trkpt lat="40.059405" lon="8.6000967"><ele>135.0</ele><time>2026-04-30T14:05:24.747Z</time></trkpt><trkpt lat="40.0594867" lon="8.6001067"><ele>136.0</ele><time>2026-04-30T14:05:25.748Z</time></trkpt><trkpt lat="40.0595617" lon="8.6001233"><ele>137.0</ele><time>2026-04-30T14:05:26.802Z</time></trkpt><trkpt lat="40.059635" lon="8.6001283"><ele>138.0</ele><time>2026-04-30T14:05:27.739Z</time></trkpt><trkpt lat="40.05971" lon="8.6001383"><ele>138.0</ele><time>2026-04-30T14:05:28.741Z</time></trkpt><trkpt lat="40.0597817" lon="8.6001467"><ele>138.0</ele><time>2026-04-30T14:05:29.742Z</time></trkpt><trkpt lat="40.0598567" lon="8.6001617"><ele>138.0</ele><time>2026-04-30T14:05:30.74Z</time></trkpt><trkpt lat="40.05993" lon="8.6001767"><ele>138.0</ele><time>2026-04-30T14:05:31.742Z</time></trkpt><trkpt lat="40.060005" lon="8.6001867"><ele>138.0</ele><time>2026-04-30T14:05:32.747Z</time></trkpt><trkpt lat="40.0600817" lon="8.6001933"><ele>138.0</ele><time>2026-04-30T14:05:33.744Z</time></trkpt><trkpt lat="40.0601617" lon="8.6001933"><ele>138.5</ele><time>2026-04-30T14:05:34.738Z</time></trkpt><trkpt lat="40.0602367" lon="8.600185"><ele>139.0</ele><time>2026-04-30T14:05:35.743Z</time></trkpt><trkpt lat="40.0603117" lon="8.6001733"><ele>139.5</ele><time>2026-04-30T14:05:36.741Z</time></trkpt><trkpt lat="40.06038" lon="8.60016"><ele>140.0</ele><time>2026-04-30T14:05:37.74Z</time></trkpt><trkpt lat="40.0604433" lon="8.600145"><ele>140.5</ele><time>2026-04-30T14:05:38.744Z</time></trkpt><trkpt lat="40.0605383" lon="8.6001067"><ele>141.0</ele><time>2026-04-30T14:05:40.744Z</time></trkpt><trkpt lat="40.0605867" lon="8.6000433"><ele>141.0</ele><time>2026-04-30T14:05:42.744Z</time></trkpt><trkpt lat="40.0605817" lon="8.5999417"><ele>141.0</ele><time>2026-04-30T14:05:57.743Z</time></trkpt><trkpt lat="40.0605333" lon="8.5998483"><ele>141.0</ele><time>2026-04-30T14:06:00.742Z</time></trkpt><trkpt lat="40.0604817" lon="8.5997683"><ele>141.0</ele><time>2026-04-30T14:06:02.741Z</time></trkpt><trkpt lat="40.0604183" lon="8.5996717"><ele>141.0</ele><time>2026-04-30T14:06:04.739Z</time></trkpt><trkpt lat="40.0603517" lon="8.59957"><ele>141.0</ele><time>2026-04-30T14:06:06.743Z</time></trkpt><trkpt lat="40.0603" lon="8.59947"><ele>140.83333333333334</ele><time>2026-04-30T14:06:08.74Z</time></trkpt><trkpt lat="40.0602483" lon="8.599365"><ele>140.66666666666666</ele><time>2026-04-30T14:06:10.737Z</time></trkpt><trkpt lat="40.0602133" lon="8.5992617"><ele>140.5</ele><time>2026-04-30T14:06:12.743Z</time></trkpt><trkpt lat="40.06021" lon="8.5991617"><ele>140.33333333333331</ele><time>2026-04-30T14:06:14.743Z</time></trkpt><trkpt lat="40.0601967" lon="8.5990367"><ele>140.16666666666666</ele><time>2026-04-30T14:06:17.742Z</time></trkpt><trkpt lat="40.0601467" lon="8.5989383"><ele>140.0</ele><time>2026-04-30T14:06:19.741Z</time></trkpt><trkpt lat="40.0600717" lon="8.5988183"><ele>140.0</ele><time>2026-04-30T14:06:21.74Z</time></trkpt><trkpt lat="40.0600133" lon="8.5986983"><ele>140.0</ele><time>2026-04-30T14:06:23.74Z</time></trkpt><trkpt lat="40.059975" lon="8.5985683"><ele>140.0</ele><time>2026-04-30T14:06:25.74Z</time></trkpt><trkpt lat="40.0599483" lon="8.598405"><ele>140.0</ele><time>2026-04-30T14:06:27.74Z</time></trkpt><trkpt lat="40.0599367" lon="8.5983183"><ele>140.0</ele><time>2026-04-30T14:06:28.742Z</time></trkpt><trkpt lat="40.0599067" lon="8.598165"><ele>139.57142857142858</ele><time>2026-04-30T14:06:30.74Z</time></trkpt><trkpt lat="40.059885" lon="8.598085"><ele>139.14285714285714</ele><time>2026-04-30T14:06:31.743Z</time></trkpt><trkpt lat="40.059855" lon="8.598005"><ele>138.71428571428572</ele><time>2026-04-30T14:06:32.74Z</time></trkpt><trkpt lat="40.0598283" lon="8.5979217"><ele>138.28571428571428</ele><time>2026-04-30T14:06:33.741Z</time></trkpt><trkpt lat="40.0598" lon="8.5978367"><ele>137.85714285714286</ele><time>2026-04-30T14:06:34.742Z</time></trkpt><trkpt lat="40.0597733" lon="8.5977533"><ele>137.42857142857144</ele><time>2026-04-30T14:06:35.744Z</time></trkpt><trkpt lat="40.0597483" lon="8.59767"><ele>137.0</ele><time>2026-04-30T14:06:36.743Z</time></trkpt><trkpt lat="40.0597183" lon="8.5975883"><ele>136.75</ele><time>2026-04-30T14:06:37.738Z</time></trkpt><trkpt lat="40.0596917" lon="8.5974967"><ele>136.5</ele><time>2026-04-30T14:06:38.742Z</time></trkpt><trkpt lat="40.0596667" lon="8.5974183"><ele>136.25</ele><time>2026-04-30T14:06:39.741Z</time></trkpt><trkpt lat="40.0596417" lon="8.597335"><ele>136.0</ele><time>2026-04-30T14:06:40.743Z</time></trkpt><trkpt lat="40.0605333" lon="8.5998483"><ele>136.8</ele><time>2026-04-30T14:06:00.742Z</time></trkpt><trkpt lat="40.0604817" lon="8.5997683"><ele>137.6</ele><time>2026-04-30T14:06:02.741Z</time></trkpt><trkpt lat="40.0604183" lon="8.5996717"><ele>138.4</ele><time>2026-04-30T14:06:04.739Z</time></trkpt><trkpt lat="40.0603517" lon="8.59957"><ele>139.2</ele><time>2026-04-30T14:06:06.743Z</time></trkpt><trkpt lat="40.0603" lon="8.59947"><ele>140.0</ele><time>2026-04-30T14:06:08.74Z</time></trkpt><trkpt lat="40.0602483" lon="8.599365"><ele>140.0</ele><time>2026-04-30T14:06:10.737Z</time></trkpt><trkpt lat="40.0602133" lon="8.5992617"><ele>140.0</ele><time>2026-04-30T14:06:12.743Z</time></trkpt><trkpt lat="40.06021" lon="8.5991617"><ele>140.0</ele><time>2026-04-30T14:06:14.743Z</time></trkpt><trkpt lat="40.0601967" lon="8.5990367"><ele>140.0</ele><time>2026-04-30T14:06:17.742Z</time></trkpt><trkpt lat="40.0601467" lon="8.5989383"><ele>140.0</ele><time>2026-04-30T14:06:19.741Z</time></trkpt><trkpt lat="40.0600717" lon="8.5988183"><ele>140.0</ele><time>2026-04-30T14:06:21.74Z</time></trkpt><trkpt lat="40.0600133" lon="8.5986983"><ele>140.0</ele><time>2026-04-30T14:06:23.74Z</time></trkpt><trkpt lat="40.059975" lon="8.5985683"><ele>140.0</ele><time>2026-04-30T14:06:25.74Z</time></trkpt><trkpt lat="40.0599483" lon="8.598405"><ele>140.0</ele><time>2026-04-30T14:06:27.74Z</time></trkpt><trkpt lat="40.0599367" lon="8.5983183"><ele>140.0</ele><time>2026-04-30T14:06:28.742Z</time></trkpt><trkpt lat="40.0599067" lon="8.598165"><ele>139.57142857142858</ele><time>2026-04-30T14:06:30.74Z</time></trkpt><trkpt lat="40.059885" lon="8.598085"><ele>139.14285714285714</ele><time>2026-04-30T14:06:31.743Z</time></trkpt><trkpt lat="40.059855" lon="8.598005"><ele>138.71428571428572</ele><time>2026-04-30T14:06:32.74Z</time></trkpt><trkpt lat="40.0598283" lon="8.5979217"><ele>138.28571428571428</ele><time>2026-04-30T14:06:33.741Z</time></trkpt><trkpt lat="40.0598" lon="8.5978367"><ele>137.85714285714286</ele><time>2026-04-30T14:06:34.742Z</time></trkpt><trkpt lat="40.0597733" lon="8.5977533"><ele>137.42857142857144</ele><time>2026-04-30T14:06:35.744Z</time></trkpt><trkpt lat="40.0597483" lon="8.59767"><ele>137.0</ele><time>2026-04-30T14:06:36.743Z</time></trkpt><trkpt lat="40.0597183" lon="8.5975883"><ele>137.00000000000003</ele><time>2026-04-30T14:06:37.738Z</time></trkpt><trkpt lat="40.0596917" lon="8.5974967"><ele>137.0</ele><time>2026-04-30T14:06:38.742Z</time></trkpt><trkpt lat="40.0596667" lon="8.5974183"><ele>137.0</ele><time>2026-04-30T14:06:39.741Z</time></trkpt><trkpt lat="40.0596417" lon="8.597335"><ele>137.0</ele><time>2026-04-30T14:06:40.743Z</time></trkpt><trkpt lat="40.0596133" lon="8.5972517"><ele>137.0</ele><time>2026-04-30T14:06:41.738Z</time></trkpt><trkpt lat="40.059585" lon="8.5971717"><ele>137.00000000000003</ele><time>2026-04-30T14:06:42.739Z</time></trkpt><trkpt lat="40.05956" lon="8.5970933"><ele>137.0</ele><time>2026-04-30T14:06:43.742Z</time></trkpt><trkpt lat="40.0595217" lon="8.59695"><ele>137.0</ele><time>2026-04-30T14:06:45.737Z</time></trkpt><trkpt lat="40.0595" lon="8.5968133"><ele>137.0</ele><time>2026-04-30T14:06:47.741Z</time></trkpt><trkpt lat="40.0594783" lon="8.596685"><ele>137.0</ele><time>2026-04-30T14:06:49.745Z</time></trkpt><trkpt lat="40.05944" lon="8.5965633"><ele>137.0</ele><time>2026-04-30T14:06:51.741Z</time></trkpt><trkpt lat="40.0594117" lon="8.5964567"><ele>137.0</ele><time>2026-04-30T14:06:53.741Z</time></trkpt><trkpt lat="40.0593867" lon="8.5963767"><ele>137.0</ele><time>2026-04-30T14:06:55.741Z</time></trkpt><trkpt lat="40.05935" lon="8.5962583"><ele>137.0</ele><time>2026-04-30T14:06:58.752Z</time></trkpt><trkpt lat="40.0593233" lon="8.59618"><ele>137.0</ele><time>2026-04-30T14:07:00.741Z</time></trkpt><trkpt lat="40.059295" lon="8.5960967"><ele>137.0</ele><time>2026-04-30T14:07:03.742Z</time></trkpt><trkpt lat="40.059275" lon="8.596015"><ele>137.0</ele><time>2026-04-30T14:07:07.743Z</time></trkpt><trkpt lat="40.059235" lon="8.59595"><ele>137.0</ele><time>2026-04-30T14:07:11.742Z</time></trkpt><trkpt lat="40.0591567" lon="8.5958633"><ele>136.4</ele><time>2026-04-30T14:07:21.741Z</time></trkpt><trkpt lat="40.059085" lon="8.5957283"><ele>135.79999999999998</ele><time>2026-04-30T14:07:28.742Z</time></trkpt><trkpt lat="40.0590267" lon="8.59566"><ele>135.2</ele><time>2026-04-30T14:07:32.739Z</time></trkpt><trkpt lat="40.0589783" lon="8.5955983"><ele>134.6</ele><time>2026-04-30T14:07:35.744Z</time></trkpt><trkpt lat="40.0589183" lon="8.59551"><ele>134.0</ele><time>2026-04-30T14:07:39.74Z</time></trkpt><trkpt lat="40.0588583" lon="8.5954183"><ele>134.0</ele><time>2026-04-30T14:07:42.741Z</time></trkpt><trkpt lat="40.0588117" lon="8.59533"><ele>134.0</ele><time>2026-04-30T14:07:45.742Z</time></trkpt><trkpt lat="40.0587683" lon="8.59525"><ele>134.0</ele><time>2026-04-30T14:07:50.743Z</time></trkpt><trkpt lat="40.0587433" lon="8.595155"><ele>134.0</ele><time>2026-04-30T14:07:54.74Z</time></trkpt><trkpt lat="40.058735" lon="8.5950533"><ele>134.0</ele><time>2026-04-30T14:07:58.742Z</time></trkpt><trkpt lat="40.058705" lon="8.5948833"><ele>134.0</ele><time>2026-04-30T14:08:13.741Z</time></trkpt><trkpt lat="40.0586917" lon="8.5947767"><ele>134.0</ele><time>2026-04-30T14:08:19.738Z</time></trkpt><trkpt lat="40.05869" lon="8.5946667"><ele>134.0</ele><time>2026-04-30T14:08:23.74Z</time></trkpt><trkpt lat="40.05867" lon="8.5945867"><ele>134.0</ele><time>2026-04-30T14:08:33.74Z</time></trkpt><trkpt lat="40.0586283" lon="8.5944417"><ele>134.0</ele><time>2026-04-30T14:08:54.744Z</time></trkpt><trkpt lat="40.058635" lon="8.5943383"><ele>134.0</ele><time>2026-04-30T14:09:00.743Z</time></trkpt><trkpt lat="40.05866" lon="8.5942317"><ele>134.0</ele><time>2026-04-30T14:09:04.746Z</time></trkpt><trkpt lat="40.0586833" lon="8.594135"><ele>134.16666666666666</ele><time>2026-04-30T14:09:08.74Z</time></trkpt><trkpt lat="40.058705" lon="8.5940333"><ele>134.33333333333331</ele><time>2026-04-30T14:09:12.742Z</time></trkpt><trkpt lat="40.0587183" lon="8.593925"><ele>134.5</ele><time>2026-04-30T14:09:15.743Z</time></trkpt><trkpt lat="40.0587317" lon="8.59383"><ele>134.66666666666666</ele><time>2026-04-30T14:09:19.745Z</time></trkpt><trkpt lat="40.058735" lon="8.5937383"><ele>134.83333333333334</ele><time>2026-04-30T14:09:23.744Z</time></trkpt><trkpt lat="40.0587133" lon="8.5936433"><ele>135.0</ele><time>2026-04-30T14:09:26.805Z</time></trkpt><trkpt lat="40.0586867" lon="8.5935583"><ele>135.16666666666666</ele><time>2026-04-30T14:09:29.744Z</time></trkpt><trkpt lat="40.058665" lon="8.5934767"><ele>135.33333333333334</ele><time>2026-04-30T14:09:32.742Z</time></trkpt><trkpt lat="40.0586" lon="8.5933617"><ele>135.5</ele><time>2026-04-30T14:10:02.738Z</time></trkpt><trkpt lat="40.0586017" lon="8.5932717"><ele>135.66666666666669</ele><time>2026-04-30T14:10:04.74Z</time></trkpt><trkpt lat="40.05861" lon="8.5931633"><ele>135.83333333333334</ele><time>2026-04-30T14:10:06.742Z</time></trkpt><trkpt lat="40.05861" lon="8.5930483"><ele>136.0</ele><time>2026-04-30T14:10:08.744Z</time></trkpt><trkpt lat="40.0585767" lon="8.592945"><ele>136.0</ele><time>2026-04-30T14:10:10.743Z</time></trkpt><trkpt lat="40.0585517" lon="8.59285"><ele>136.0</ele><time>2026-04-30T14:10:12.742Z</time></trkpt><trkpt lat="40.0585233" lon="8.5927683"><ele>136.0</ele><time>2026-04-30T14:10:14.74Z</time></trkpt><trkpt lat="40.0585" lon="8.592675"><ele>136.0</ele><time>2026-04-30T14:10:16.741Z</time></trkpt><trkpt lat="40.0584783" lon="8.5925667"><ele>136.0</ele><time>2026-04-30T14:10:18.741Z</time></trkpt><trkpt lat="40.0584417" lon="8.5924633"><ele>136.0</ele><time>2026-04-30T14:10:20.742Z</time></trkpt><trkpt lat="40.0583967" lon="8.5923683"><ele>136.2</ele><time>2026-04-30T14:10:22.74Z</time></trkpt><trkpt lat="40.0583617" lon="8.5922867"><ele>136.39999999999998</ele><time>2026-04-30T14:10:24.745Z</time></trkpt><trkpt lat="40.0583517" lon="8.5921767"><ele>136.6</ele><time>2026-04-30T14:10:26.807Z</time></trkpt><trkpt lat="40.0583333" lon="8.5920517"><ele>136.79999999999998</ele><time>2026-04-30T14:10:28.739Z</time></trkpt><trkpt lat="40.0583083" lon="8.59193"><ele>137.0</ele><time>2026-04-30T14:10:30.741Z</time></trkpt><trkpt lat="40.0582867" lon="8.5917983"><ele>138.0</ele><time>2026-04-30T14:10:32.769Z</time></trkpt><trkpt lat="40.0582633" lon="8.59166"><ele>139.0</ele><time>2026-04-30T14:10:34.74Z</time></trkpt><trkpt lat="40.05824" lon="8.5915633"><ele>140.0</ele><time>2026-04-30T14:10:36.741Z</time></trkpt><trkpt lat="40.0582233" lon="8.59146"><ele>141.0</ele><time>2026-04-30T14:10:40.741Z</time></trkpt><trkpt lat="40.0582017" lon="8.591365"><ele>142.0</ele><time>2026-04-30T14:10:43.741Z</time></trkpt><trkpt lat="40.0581783" lon="8.5912683"><ele>143.0</ele><time>2026-04-30T14:10:45.74Z</time></trkpt><trkpt lat="40.05815" lon="8.5911717"><ele>143.0</ele><time>2026-04-30T14:10:47.738Z</time></trkpt><trkpt lat="40.0581283" lon="8.5910683"><ele>143.0</ele><time>2026-04-30T14:10:49.741Z</time></trkpt><trkpt lat="40.0581167" lon="8.5909667"><ele>143.0</ele><time>2026-04-30T14:10:51.738Z</time></trkpt><trkpt lat="40.05811" lon="8.5908667"><ele>143.0</ele><time>2026-04-30T14:10:53.74Z</time></trkpt><trkpt lat="40.05811" lon="8.5907567"><ele>143.0</ele><time>2026-04-30T14:10:55.748Z</time></trkpt><trkpt lat="40.058115" lon="8.5906467"><ele>143.0</ele><time>2026-04-30T14:10:57.742Z</time></trkpt><trkpt lat="40.0581033" lon="8.5905183"><ele>143.0</ele><time>2026-04-30T14:10:59.744Z</time></trkpt><trkpt lat="40.0580783" lon="8.59038"><ele>143.0</ele><time>2026-04-30T14:11:01.745Z</time></trkpt><trkpt lat="40.0580483" lon="8.59023"><ele>143.0</ele><time>2026-04-30T14:11:03.742Z</time></trkpt><trkpt lat="40.0580383" lon="8.5901483"><ele>143.0</ele><time>2026-04-30T14:11:04.744Z</time></trkpt><trkpt lat="40.0580233" lon="8.59006"><ele>143.0</ele><time>2026-04-30T14:11:05.742Z</time></trkpt><trkpt lat="40.0580083" lon="8.5899783"><ele>143.0</ele><time>2026-04-30T14:11:06.744Z</time></trkpt><trkpt lat="40.0579917" lon="8.589825"><ele>142.0</ele><time>2026-04-30T14:11:08.743Z</time></trkpt><trkpt lat="40.0579833" lon="8.589675"><ele>141.0</ele><time>2026-04-30T14:11:10.744Z</time></trkpt><trkpt lat="40.0579783" lon="8.5895483"><ele>140.0</ele><time>2026-04-30T14:11:12.745Z</time></trkpt><trkpt lat="40.057945" lon="8.5894417"><ele>139.0</ele><time>2026-04-30T14:11:14.74Z</time></trkpt><trkpt lat="40.0579183" lon="8.58934"><ele>138.0</ele><time>2026-04-30T14:11:16.742Z</time></trkpt><trkpt lat="40.0578267" lon="8.58927"><ele>137.0</ele><time>2026-04-30T14:14:40.74Z</time></trkpt><trkpt lat="40.057735" lon="8.5893"><ele>136.0</ele><time>2026-04-30T14:15:10.743Z</time></trkpt><trkpt lat="40.0576283" lon="8.589325"><ele>135.0</ele><time>2026-04-30T14:15:25.743Z</time></trkpt><trkpt lat="40.0575333" lon="8.5893367"><ele>134.0</ele><time>2026-04-30T14:17:13.743Z</time></trkpt><trkpt lat="40.0574967" lon="8.5892567"><ele>133.0</ele><time>2026-04-30T14:19:01.745Z</time></trkpt><trkpt lat="40.0575" lon="8.58914"><ele>133.0</ele><time>2026-04-30T14:19:04.746Z</time></trkpt><trkpt lat="40.0575033" lon="8.5890467"><ele>133.0</ele><time>2026-04-30T14:19:06.749Z</time></trkpt><trkpt lat="40.0575083" lon="8.5889483"><ele>133.0</ele><time>2026-04-30T14:19:08.767Z</time></trkpt><trkpt lat="40.0575283" lon="8.58884"><ele>133.0</ele><time>2026-04-30T14:19:11.743Z</time></trkpt><trkpt lat="40.057625" lon="8.588775"><ele>133.0</ele><time>2026-04-30T14:19:33.744Z</time></trkpt><trkpt lat="40.0576233" lon="8.58869"><ele>133.0</ele><time>2026-04-30T14:19:35.741Z</time></trkpt><trkpt lat="40.0576133" lon="8.5885517"><ele>132.20000000000002</ele><time>2026-04-30T14:19:37.741Z</time></trkpt><trkpt lat="40.0576067" lon="8.5884117"><ele>131.4</ele><time>2026-04-30T14:19:39.742Z</time></trkpt><trkpt lat="40.0576" lon="8.588265"><ele>130.60000000000002</ele><time>2026-04-30T14:19:41.745Z</time></trkpt><trkpt lat="40.057595" lon="8.5881017"><ele>129.8</ele><time>2026-04-30T14:19:43.743Z</time></trkpt><trkpt lat="40.0575933" lon="8.5880167"><ele>129.0</ele><time>2026-04-30T14:19:44.768Z</time></trkpt><trkpt lat="40.0575983" lon="8.5879333"><ele>128.4</ele><time>2026-04-30T14:19:45.74Z</time></trkpt><trkpt lat="40.0576333" lon="8.5877917"><ele>127.80000000000001</ele><time>2026-04-30T14:19:47.749Z</time></trkpt><trkpt lat="40.057655" lon="8.5876433"><ele>127.19999999999999</ele><time>2026-04-30T14:19:49.741Z</time></trkpt><trkpt lat="40.0576733" lon="8.58751"><ele>126.6</ele><time>2026-04-30T14:19:51.744Z</time></trkpt><trkpt lat="40.0576583" lon="8.5873633"><ele>126.0</ele><time>2026-04-30T14:19:53.742Z</time></trkpt><trkpt lat="40.0576467" lon="8.587275"><ele>126.0</ele><time>2026-04-30T14:19:54.745Z</time></trkpt><trkpt lat="40.057625" lon="8.5871683"><ele>126.0</ele><time>2026-04-30T14:19:55.745Z</time></trkpt><trkpt lat="40.057615" lon="8.5870617"><ele>126.0</ele><time>2026-04-30T14:19:56.805Z</time></trkpt><trkpt lat="40.0575967" lon="8.58696"><ele>126.0</ele><time>2026-04-30T14:19:57.741Z</time></trkpt><trkpt lat="40.0575717" lon="8.5868717"><ele>126.0</ele><time>2026-04-30T14:19:58.742Z</time></trkpt><trkpt lat="40.0575417" lon="8.5867933"><ele>126.0</ele><time>2026-04-30T14:19:59.743Z</time></trkpt><trkpt lat="40.0575033" lon="8.5867167"><ele>125.0</ele><time>2026-04-30T14:20:00.741Z</time></trkpt><trkpt lat="40.057455" lon="8.5866383"><ele>124.0</ele><time>2026-04-30T14:20:01.743Z</time></trkpt><trkpt lat="40.0573917" lon="8.5865667"><ele>123.0</ele><time>2026-04-30T14:20:02.773Z</time></trkpt><trkpt lat="40.0573083" lon="8.5864933"><ele>122.0</ele><time>2026-04-30T14:20:03.743Z</time></trkpt><trkpt lat="40.0572067" lon="8.5864333"><ele>121.0</ele><time>2026-04-30T14:20:04.742Z</time></trkpt><trkpt lat="40.0570967" lon="8.5863917"><ele>121.0</ele><time>2026-04-30T14:20:05.742Z</time></trkpt><trkpt lat="40.0569883" lon="8.5863517"><ele>121.0</ele><time>2026-04-30T14:20:06.743Z</time></trkpt><trkpt lat="40.056885" lon="8.5863167"><ele>121.0</ele><time>2026-04-30T14:20:07.74Z</time></trkpt><trkpt lat="40.0567883" lon="8.5862783"><ele>121.0</ele><time>2026-04-30T14:20:08.769Z</time></trkpt><trkpt lat="40.0567" lon="8.5862317"><ele>121.0</ele><time>2026-04-30T14:20:09.743Z</time></trkpt><trkpt lat="40.0566183" lon="8.58617"><ele>121.0</ele><time>2026-04-30T14:20:10.743Z</time></trkpt><trkpt lat="40.0565383" lon="8.5860933"><ele>121.0</ele><time>2026-04-30T14:20:11.745Z</time></trkpt><trkpt lat="40.0564583" lon="8.586"><ele>121.0</ele><time>2026-04-30T14:20:12.741Z</time></trkpt><trkpt lat="40.0563833" lon="8.5858867"><ele>121.0</ele><time>2026-04-30T14:20:13.742Z</time></trkpt><trkpt lat="40.0563117" lon="8.5857467"><ele>121.0</ele><time>2026-04-30T14:20:14.768Z</time></trkpt><trkpt lat="40.0562517" lon="8.5855967"><ele>121.0</ele><time>2026-04-30T14:20:15.74Z</time></trkpt><trkpt lat="40.0561867" lon="8.5854633"><ele>121.0</ele><time>2026-04-30T14:20:16.74Z</time></trkpt><trkpt lat="40.0561267" lon="8.585335"><ele>121.0</ele><time>2026-04-30T14:20:17.745Z</time></trkpt><trkpt lat="40.0560667" lon="8.585215"><ele>120.19999999999999</ele><time>2026-04-30T14:20:18.744Z</time></trkpt><trkpt lat="40.056005" lon="8.585105"><ele>119.39999999999999</ele><time>2026-04-30T14:20:19.74Z</time></trkpt><trkpt lat="40.0559383" lon="8.5850067"><ele>118.6</ele><time>2026-04-30T14:20:20.766Z</time></trkpt><trkpt lat="40.0558733" lon="8.5849167"><ele>117.8</ele><time>2026-04-30T14:20:21.742Z</time></trkpt><trkpt lat="40.0558183" lon="8.5848233"><ele>117.0</ele><time>2026-04-30T14:20:22.741Z</time></trkpt><trkpt lat="40.055775" lon="8.5847233"><ele>117.0</ele><time>2026-04-30T14:20:23.743Z</time></trkpt><trkpt lat="40.0557367" lon="8.5846117"><ele>116.99999999999999</ele><time>2026-04-30T14:20:24.746Z</time></trkpt><trkpt lat="40.0556983" lon="8.5844867"><ele>116.99999999999999</ele><time>2026-04-30T14:20:25.744Z</time></trkpt><trkpt lat="40.0556617" lon="8.5843667"><ele>117.0</ele><time>2026-04-30T14:20:26.743Z</time></trkpt><trkpt lat="40.0556217" lon="8.5842467"><ele>117.0</ele><time>2026-04-30T14:20:27.743Z</time></trkpt><trkpt lat="40.0555767" lon="8.5841383"><ele>116.33333333333333</ele><time>2026-04-30T14:20:28.741Z</time></trkpt><trkpt lat="40.0555317" lon="8.58404"><ele>115.66666666666666</ele><time>2026-04-30T14:20:29.738Z</time></trkpt><trkpt lat="40.0554833" lon="8.58395"><ele>115.0</ele><time>2026-04-30T14:20:30.741Z</time></trkpt><trkpt lat="40.0554367" lon="8.5838633"><ele>114.33333333333333</ele><time>2026-04-30T14:20:31.743Z</time></trkpt><trkpt lat="40.055395" lon="8.58378"><ele>113.66666666666666</ele><time>2026-04-30T14:20:32.743Z</time></trkpt><trkpt lat="40.0553583" lon="8.5837"><ele>113.0</ele><time>2026-04-30T14:20:33.741Z</time></trkpt><trkpt lat="40.055325" lon="8.5836233"><ele>112.33333333333333</ele><time>2026-04-30T14:20:34.743Z</time></trkpt><trkpt lat="40.05527" lon="8.5834883"><ele>111.66666666666666</ele><time>2026-04-30T14:20:36.749Z</time></trkpt><trkpt lat="40.0552333" lon="8.583375"><ele>111.0</ele><time>2026-04-30T14:20:38.767Z</time></trkpt><trkpt lat="40.055205" lon="8.583285"><ele>110.33333333333334</ele><time>2026-04-30T14:20:40.745Z</time></trkpt><trkpt lat="40.0551983" lon="8.5831817"><ele>109.66666666666667</ele><time>2026-04-30T14:20:43.742Z</time></trkpt><trkpt lat="40.0552" lon="8.58308"><ele>109.0</ele><time>2026-04-30T14:20:45.741Z</time></trkpt><trkpt lat="40.0551917" lon="8.5829583"><ele>108.2</ele><time>2026-04-30T14:20:47.743Z</time></trkpt><trkpt lat="40.0551783" lon="8.5828367"><ele>107.4</ele><time>2026-04-30T14:20:49.744Z</time></trkpt><trkpt lat="40.0551683" lon="8.5827267"><ele>106.6</ele><time>2026-04-30T14:20:51.745Z</time></trkpt><trkpt lat="40.0551517" lon="8.5826083"><ele>105.8</ele><time>2026-04-30T14:20:53.74Z</time></trkpt><trkpt lat="40.0551333" lon="8.5824883"><ele>105.0</ele><time>2026-04-30T14:20:55.742Z</time></trkpt><trkpt lat="40.0550983" lon="8.5823383"><ele>105.0</ele><time>2026-04-30T14:20:57.741Z</time></trkpt><trkpt lat="40.0550783" lon="8.5822383"><ele>105.0</ele><time>2026-04-30T14:20:58.739Z</time></trkpt><trkpt lat="40.0550517" lon="8.5821267"><ele>105.0</ele><time>2026-04-30T14:20:59.744Z</time></trkpt><trkpt lat="40.0550167" lon="8.5820033"><ele>105.0</ele><time>2026-04-30T14:21:00.743Z</time></trkpt><trkpt lat="40.0549767" lon="8.5818667"><ele>105.0</ele><time>2026-04-30T14:21:01.739Z</time></trkpt><trkpt lat="40.05494" lon="8.5817317"><ele>103.5</ele><time>2026-04-30T14:21:02.8Z</time></trkpt><trkpt lat="40.0549083" lon="8.58159"><ele>102.0</ele><time>2026-04-30T14:21:03.741Z</time></trkpt><trkpt lat="40.0548733" lon="8.5814417"><ele>100.5</ele><time>2026-04-30T14:21:04.744Z</time></trkpt><trkpt lat="40.0548383" lon="8.5812867"><ele>99.0</ele><time>2026-04-30T14:21:05.744Z</time></trkpt><trkpt lat="40.054795" lon="8.5811283"><ele>97.25</ele><time>2026-04-30T14:21:06.74Z</time></trkpt><trkpt lat="40.0547383" lon="8.5809617"><ele>95.5</ele><time>2026-04-30T14:21:07.744Z</time></trkpt><trkpt lat="40.054685" lon="8.5808067"><ele>93.75</ele><time>2026-04-30T14:21:08.766Z</time></trkpt><trkpt lat="40.054635" lon="8.5806583"><ele>92.0</ele><time>2026-04-30T14:21:09.74Z</time></trkpt><trkpt lat="40.0545833" lon="8.5805067"><ele>91.0</ele><time>2026-04-30T14:21:10.741Z</time></trkpt><trkpt lat="40.05453" lon="8.5803433"><ele>90.0</ele><time>2026-04-30T14:21:11.741Z</time></trkpt><trkpt lat="40.0544833" lon="8.5801783"><ele>89.0</ele><time>2026-04-30T14:21:12.742Z</time></trkpt><trkpt lat="40.05444" lon="8.5800233"><ele>88.0</ele><time>2026-04-30T14:21:13.74Z</time></trkpt><trkpt lat="40.0544017" lon="8.5798717"><ele>88.0</ele><time>2026-04-30T14:21:14.764Z</time></trkpt><trkpt lat="40.0543683" lon="8.5797117"><ele>88.0</ele><time>2026-04-30T14:21:15.74Z</time></trkpt><trkpt lat="40.0543317" lon="8.5795483"><ele>88.0</ele><time>2026-04-30T14:21:16.742Z</time></trkpt><trkpt lat="40.0542933" lon="8.5793983"><ele>88.0</ele><time>2026-04-30T14:21:17.745Z</time></trkpt><trkpt lat="40.05426" lon="8.5792533"><ele>87.4</ele><time>2026-04-30T14:21:18.747Z</time></trkpt><trkpt lat="40.05423" lon="8.57911"><ele>86.80000000000001</ele><time>2026-04-30T14:21:19.748Z</time></trkpt><trkpt lat="40.0542033" lon="8.5789667"><ele>86.2</ele><time>2026-04-30T14:21:20.767Z</time></trkpt><trkpt lat="40.0541833" lon="8.5788233"><ele>85.6</ele><time>2026-04-30T14:21:21.741Z</time></trkpt><trkpt lat="40.0541633" lon="8.57869"><ele>85.0</ele><time>2026-04-30T14:21:22.741Z</time></trkpt><trkpt lat="40.0541483" lon="8.57856"><ele>84.5</ele><time>2026-04-30T14:21:23.743Z</time></trkpt><trkpt lat="40.0541417" lon="8.5784367"><ele>84.0</ele><time>2026-04-30T14:21:24.745Z</time></trkpt><trkpt lat="40.054135" lon="8.5783167"><ele>83.5</ele><time>2026-04-30T14:21:25.744Z</time></trkpt><trkpt lat="40.0541333" lon="8.5782033"><ele>83.0</ele><time>2026-04-30T14:21:26.809Z</time></trkpt><trkpt lat="40.05413" lon="8.578095"><ele>82.5</ele><time>2026-04-30T14:21:27.743Z</time></trkpt><trkpt lat="40.0541233" lon="8.5779933"><ele>82.0</ele><time>2026-04-30T14:21:28.739Z</time></trkpt><trkpt lat="40.0541133" lon="8.5778967"><ele>81.33333333333333</ele><time>2026-04-30T14:21:29.743Z</time></trkpt><trkpt lat="40.0541033" lon="8.57781"><ele>80.66666666666666</ele><time>2026-04-30T14:21:30.743Z</time></trkpt><trkpt lat="40.0540933" lon="8.5777283"><ele>80.0</ele><time>2026-04-30T14:21:31.74Z</time></trkpt><trkpt lat="40.0540833" lon="8.5775767"><ele>79.33333333333333</ele><time>2026-04-30T14:21:33.744Z</time></trkpt><trkpt lat="40.054095" lon="8.5774483"><ele>78.66666666666667</ele><time>2026-04-30T14:21:35.742Z</time></trkpt><trkpt lat="40.05413" lon="8.5773733"><ele>78.0</ele><time>2026-04-30T14:21:37.742Z</time></trkpt><trkpt lat="40.05419" lon="8.57732"><ele>78.0</ele><time>2026-04-30T14:21:45.776Z</time></trkpt><trkpt lat="40.0541983" lon="8.5772017"><ele>78.0</ele><time>2026-04-30T14:21:47.74Z</time></trkpt><trkpt lat="40.0542117" lon="8.5771183"><ele>78.0</ele><time>2026-04-30T14:21:48.74Z</time></trkpt><trkpt lat="40.0542233" lon="8.5770367"><ele>78.0</ele><time>2026-04-30T14:21:49.742Z</time></trkpt><trkpt lat="40.0542433" lon="8.5769"><ele>78.0</ele><time>2026-04-30T14:21:51.741Z</time></trkpt><trkpt lat="40.0543" lon="8.5767867"><ele>78.0</ele><time>2026-04-30T14:21:53.742Z</time></trkpt><trkpt lat="40.0544033" lon="8.576695"><ele>77.83333333333333</ele><time>2026-04-30T14:21:55.742Z</time></trkpt><trkpt lat="40.0544667" lon="8.5766633"><ele>77.66666666666667</ele><time>2026-04-30T14:21:56.806Z</time></trkpt><trkpt lat="40.054535" lon="8.5766483"><ele>77.5</ele><time>2026-04-30T14:21:57.74Z</time></trkpt><trkpt lat="40.0546183" lon="8.576645"><ele>77.33333333333334</ele><time>2026-04-30T14:21:58.743Z</time></trkpt><trkpt lat="40.0547133" lon="8.5766483"><ele>77.16666666666667</ele><time>2026-04-30T14:21:59.737Z</time></trkpt><trkpt lat="40.0548217" lon="8.576655"><ele>77.0</ele><time>2026-04-30T14:22:00.738Z</time></trkpt><trkpt lat="40.0549483" lon="8.57667"><ele>75.0</ele><time>2026-04-30T14:22:01.739Z</time></trkpt><trkpt lat="40.0550867" lon="8.576695"><ele>73.0</ele><time>2026-04-30T14:22:02.771Z</time></trkpt><trkpt lat="40.0552383" lon="8.5767233"><ele>71.0</ele><time>2026-04-30T14:22:03.741Z</time></trkpt><trkpt lat="40.05538" lon="8.5767367"><ele>69.0</ele><time>2026-04-30T14:22:04.739Z</time></trkpt><trkpt lat="40.0555017" lon="8.5767217"><ele>69.0</ele><time>2026-04-30T14:22:05.739Z</time></trkpt><trkpt lat="40.0556233" lon="8.5766817"><ele>69.0</ele><time>2026-04-30T14:22:06.751Z</time></trkpt><trkpt lat="40.0557383" lon="8.5766317"><ele>69.0</ele><time>2026-04-30T14:22:07.74Z</time></trkpt><trkpt lat="40.0558483" lon="8.57657"><ele>69.0</ele><time>2026-04-30T14:22:08.761Z</time></trkpt><trkpt lat="40.055955" lon="8.5765017"><ele>68.0</ele><time>2026-04-30T14:22:09.742Z</time></trkpt><trkpt lat="40.0560533" lon="8.576425"><ele>67.0</ele><time>2026-04-30T14:22:10.74Z</time></trkpt><trkpt lat="40.0561417" lon="8.5763433"><ele>66.0</ele><time>2026-04-30T14:22:11.739Z</time></trkpt><trkpt lat="40.05622" lon="8.576255"><ele>65.0</ele><time>2026-04-30T14:22:12.741Z</time></trkpt><trkpt lat="40.056285" lon="8.5761583"><ele>64.0</ele><time>2026-04-30T14:22:13.738Z</time></trkpt><trkpt lat="40.0563333" lon="8.57606"><ele>63.800000000000004</ele><time>2026-04-30T14:22:14.764Z</time></trkpt><trkpt lat="40.05636" lon="8.57595"><ele>63.60000000000001</ele><time>2026-04-30T14:22:15.739Z</time></trkpt><trkpt lat="40.056365" lon="8.575825"><ele>63.4</ele><time>2026-04-30T14:22:16.739Z</time></trkpt><trkpt lat="40.05636" lon="8.57569"><ele>63.2</ele><time>2026-04-30T14:22:17.74Z</time></trkpt><trkpt lat="40.056355" lon="8.5755517"><ele>63.0</ele><time>2026-04-30T14:22:18.74Z</time></trkpt><trkpt lat="40.0563517" lon="8.5754117"><ele>63.0</ele><time>2026-04-30T14:22:19.74Z</time></trkpt><trkpt lat="40.0563483" lon="8.57528"><ele>63.0</ele><time>2026-04-30T14:22:20.763Z</time></trkpt><trkpt lat="40.05634" lon="8.5751517"><ele>63.0</ele><time>2026-04-30T14:22:21.74Z</time></trkpt><trkpt lat="40.056325" lon="8.575035"><ele>63.0</ele><time>2026-04-30T14:22:22.74Z</time></trkpt><trkpt lat="40.0563" lon="8.5749233"><ele>63.0</ele><time>2026-04-30T14:22:23.737Z</time></trkpt><trkpt lat="40.056265" lon="8.574815"><ele>63.0</ele><time>2026-04-30T14:22:24.743Z</time></trkpt><trkpt lat="40.0562167" lon="8.574725"><ele>63.0</ele><time>2026-04-30T14:22:25.743Z</time></trkpt><trkpt lat="40.0561733" lon="8.5746183"><ele>63.0</ele><time>2026-04-30T14:22:26.815Z</time></trkpt><trkpt lat="40.056115" lon="8.574515"><ele>63.0</ele><time>2026-04-30T14:22:27.741Z</time></trkpt><trkpt lat="40.055975" lon="8.5744817"><ele>63.0</ele><time>2026-04-30T14:22:28.749Z</time></trkpt><trkpt lat="40.05586" lon="8.5744333"><ele>61.75</ele><time>2026-04-30T14:22:29.741Z</time></trkpt><trkpt lat="40.0557467" lon="8.5743817"><ele>60.5</ele><time>2026-04-30T14:22:30.741Z</time></trkpt><trkpt lat="40.055615" lon="8.5743583"><ele>59.25</ele><time>2026-04-30T14:22:31.743Z</time></trkpt><trkpt lat="40.0555133" lon="8.5742917"><ele>58.0</ele><time>2026-04-30T14:22:32.743Z</time></trkpt><trkpt lat="40.0554117" lon="8.5742133"><ele>58.0</ele><time>2026-04-30T14:22:33.739Z</time></trkpt><trkpt lat="40.05531" lon="8.5741133"><ele>58.0</ele><time>2026-04-30T14:22:34.741Z</time></trkpt><trkpt lat="40.0552117" lon="8.5740017"><ele>58.0</ele><time>2026-04-30T14:22:35.741Z</time></trkpt><trkpt lat="40.055115" lon="8.5738917"><ele>58.0</ele><time>2026-04-30T14:22:36.743Z</time></trkpt><trkpt lat="40.0549967" lon="8.5737883"><ele>58.666666666666664</ele><time>2026-04-30T14:22:37.746Z</time></trkpt><trkpt lat="40.05488" lon="8.5736767"><ele>59.33333333333333</ele><time>2026-04-30T14:22:38.762Z</time></trkpt><trkpt lat="40.05475" lon="8.573555"><ele>60.0</ele><time>2026-04-30T14:22:39.743Z</time></trkpt><trkpt lat="40.05462" lon="8.57344"><ele>60.0</ele><time>2026-04-30T14:22:40.744Z</time></trkpt><trkpt lat="40.0544983" lon="8.5733233"><ele>60.0</ele><time>2026-04-30T14:22:41.74Z</time></trkpt><trkpt lat="40.0543767" lon="8.5732367"><ele>60.0</ele><time>2026-04-30T14:22:42.744Z</time></trkpt><trkpt lat="40.054225" lon="8.57315"><ele>58.66666666666667</ele><time>2026-04-30T14:22:43.743Z</time></trkpt><trkpt lat="40.0540367" lon="8.5731017"><ele>57.333333333333336</ele><time>2026-04-30T14:22:44.766Z</time></trkpt><trkpt lat="40.0538733" lon="8.5730267"><ele>56.0</ele><time>2026-04-30T14:22:45.737Z</time></trkpt><trkpt lat="40.05373" lon="8.57296"><ele>56.0</ele><time>2026-04-30T14:22:46.743Z</time></trkpt><trkpt lat="40.05359" lon="8.5729383"><ele>56.0</ele><time>2026-04-30T14:22:47.739Z</time></trkpt><trkpt lat="40.0534433" lon="8.5729217"><ele>56.0</ele><time>2026-04-30T14:22:48.739Z</time></trkpt><trkpt lat="40.053295" lon="8.57292"><ele>56.0</ele><time>2026-04-30T14:22:49.742Z</time></trkpt><trkpt lat="40.0531433" lon="8.572935"><ele>57.0</ele><time>2026-04-30T14:22:50.774Z</time></trkpt><trkpt lat="40.05299" lon="8.5729583"><ele>58.0</ele><time>2026-04-30T14:22:51.742Z</time></trkpt><trkpt lat="40.0528417" lon="8.5729817"><ele>59.0</ele><time>2026-04-30T14:22:52.742Z</time></trkpt><trkpt lat="40.052695" lon="8.573"><ele>59.0</ele><time>2026-04-30T14:22:53.738Z</time></trkpt><trkpt lat="40.052555" lon="8.573015"><ele>59.0</ele><time>2026-04-30T14:22:54.738Z</time></trkpt><trkpt lat="40.0524117" lon="8.57303"><ele>59.0</ele><time>2026-04-30T14:22:55.739Z</time></trkpt><trkpt lat="40.0522717" lon="8.5730317"><ele>59.0</ele><time>2026-04-30T14:22:56.804Z</time></trkpt><trkpt lat="40.05214" lon="8.5730317"><ele>57.75</ele><time>2026-04-30T14:22:57.743Z</time></trkpt><trkpt lat="40.051995" lon="8.573025"><ele>56.5</ele><time>2026-04-30T14:22:58.742Z</time></trkpt><trkpt lat="40.051855" lon="8.5729983"><ele>55.25</ele><time>2026-04-30T14:22:59.74Z</time></trkpt><trkpt lat="40.0517317" lon="8.57295"><ele>54.0</ele><time>2026-04-30T14:23:00.742Z</time></trkpt><trkpt lat="40.0515783" lon="8.57293"><ele>53.5</ele><time>2026-04-30T14:23:01.742Z</time></trkpt><trkpt lat="40.051445" lon="8.5728733"><ele>53.0</ele><time>2026-04-30T14:23:02.771Z</time></trkpt><trkpt lat="40.0513233" lon="8.5728183"><ele>52.5</ele><time>2026-04-30T14:23:03.744Z</time></trkpt><trkpt lat="40.0512117" lon="8.5727517"><ele>52.0</ele><time>2026-04-30T14:23:04.746Z</time></trkpt><trkpt lat="40.05111" lon="8.5727033"><ele>52.0</ele><time>2026-04-30T14:23:05.741Z</time></trkpt><trkpt lat="40.0510117" lon="8.5726683"><ele>52.0</ele><time>2026-04-30T14:23:06.743Z</time></trkpt><trkpt lat="40.0509083" lon="8.5726367"><ele>52.0</ele><time>2026-04-30T14:23:07.745Z</time></trkpt><trkpt lat="40.0508" lon="8.5726033"><ele>52.0</ele><time>2026-04-30T14:23:08.772Z</time></trkpt><trkpt lat="40.0506983" lon="8.572555"><ele>52.0</ele><time>2026-04-30T14:23:09.743Z</time></trkpt><trkpt lat="40.0506067" lon="8.5724883"><ele>51.400000000000006</ele><time>2026-04-30T14:23:10.742Z</time></trkpt><trkpt lat="40.05052" lon="8.572415"><ele>50.800000000000004</ele><time>2026-04-30T14:23:11.741Z</time></trkpt><trkpt lat="40.050445" lon="8.57233"><ele>50.2</ele><time>2026-04-30T14:23:12.743Z</time></trkpt><trkpt lat="40.050395" lon="8.5722233"><ele>49.6</ele><time>2026-04-30T14:23:13.74Z</time></trkpt><trkpt lat="40.05034" lon="8.5721083"><ele>49.0</ele><time>2026-04-30T14:23:14.767Z</time></trkpt><trkpt lat="40.0502767" lon="8.571985"><ele>49.0</ele><time>2026-04-30T14:23:15.74Z</time></trkpt><trkpt lat="40.0502117" lon="8.5718617"><ele>49.0</ele><time>2026-04-30T14:23:16.741Z</time></trkpt><trkpt lat="40.0501583" lon="8.5717083"><ele>49.0</ele><time>2026-04-30T14:23:17.74Z</time></trkpt><trkpt lat="40.050085" lon="8.571565"><ele>49.0</ele><time>2026-04-30T14:23:18.741Z</time></trkpt><trkpt lat="40.0500083" lon="8.5714217"><ele>47.666666666666664</ele><time>2026-04-30T14:23:19.742Z</time></trkpt><trkpt lat="40.049915" lon="8.5712683"><ele>46.33333333333333</ele><time>2026-04-30T14:23:20.767Z</time></trkpt><trkpt lat="40.0498167" lon="8.5710983"><ele>45.0</ele><time>2026-04-30T14:23:21.742Z</time></trkpt><trkpt lat="40.04973" lon="8.5709283"><ele>45.0</ele><time>2026-04-30T14:23:22.743Z</time></trkpt><trkpt lat="40.0496333" lon="8.5707667"><ele>45.0</ele><time>2026-04-30T14:23:23.741Z</time></trkpt><trkpt lat="40.0495517" lon="8.5706117"><ele>45.0</ele><time>2026-04-30T14:23:24.742Z</time></trkpt><trkpt lat="40.04947" lon="8.5704567"><ele>45.0</ele><time>2026-04-30T14:23:25.742Z</time></trkpt><trkpt lat="40.0493967" lon="8.5703033"><ele>45.25</ele><time>2026-04-30T14:23:26.807Z</time></trkpt><trkpt lat="40.0493283" lon="8.5701567"><ele>45.5</ele><time>2026-04-30T14:23:27.743Z</time></trkpt><trkpt lat="40.04926" lon="8.5700283"><ele>45.75</ele><time>2026-04-30T14:23:28.74Z</time></trkpt><trkpt lat="40.0491817" lon="8.5699183"><ele>46.0</ele><time>2026-04-30T14:23:29.741Z</time></trkpt><trkpt lat="40.04909" lon="8.5698233"><ele>45.0</ele><time>2026-04-30T14:23:30.741Z</time></trkpt><trkpt lat="40.0489883" lon="8.5697467"><ele>44.0</ele><time>2026-04-30T14:23:31.739Z</time></trkpt><trkpt lat="40.0488817" lon="8.5697017"><ele>43.0</ele><time>2026-04-30T14:23:32.738Z</time></trkpt><trkpt lat="40.04878" lon="8.5696783"><ele>42.0</ele><time>2026-04-30T14:23:33.739Z</time></trkpt><trkpt lat="40.048695" lon="8.569665"><ele>41.0</ele><time>2026-04-30T14:23:34.74Z</time></trkpt><trkpt lat="40.048615" lon="8.5696583"><ele>41.0</ele><time>2026-04-30T14:23:35.739Z</time></trkpt><trkpt lat="40.04854" lon="8.5696517"><ele>41.0</ele><time>2026-04-30T14:23:36.737Z</time></trkpt><trkpt lat="40.0484683" lon="8.569645"><ele>41.0</ele><time>2026-04-30T14:23:37.74Z</time></trkpt><trkpt lat="40.04836" lon="8.56963"><ele>41.0</ele><time>2026-04-30T14:23:39.74Z</time></trkpt><trkpt lat="40.0482883" lon="8.5696267"><ele>41.0</ele><time>2026-04-30T14:23:42.74Z</time></trkpt><trkpt lat="40.04835" lon="8.5696883"><ele>41.0</ele><time>2026-04-30T14:23:50.769Z</time></trkpt><trkpt lat="40.04845" lon="8.569725"><ele>41.0</ele><time>2026-04-30T14:23:52.74Z</time></trkpt><trkpt lat="40.0485267" lon="8.5697417"><ele>41.0</ele><time>2026-04-30T14:23:53.74Z</time></trkpt><trkpt lat="40.04859" lon="8.56975"><ele>41.0</ele><time>2026-04-30T14:23:54.739Z</time></trkpt><trkpt lat="40.0486833" lon="8.56973"><ele>41.0</ele><time>2026-04-30T14:23:56.808Z</time></trkpt><trkpt lat="40.0487333" lon="8.569645"><ele>41.0</ele><time>2026-04-30T14:23:58.741Z</time></trkpt><trkpt lat="40.0487483" lon="8.5695017"><ele>41.0</ele><time>2026-04-30T14:24:00.736Z</time></trkpt><trkpt lat="40.0487533" lon="8.5694117"><ele>41.33333333333333</ele><time>2026-04-30T14:24:01.735Z</time></trkpt><trkpt lat="40.0487483" lon="8.5693083"><ele>41.666666666666664</ele><time>2026-04-30T14:24:02.767Z</time></trkpt><trkpt lat="40.0487433" lon="8.5691983"><ele>42.0</ele><time>2026-04-30T14:24:03.738Z</time></trkpt><trkpt lat="40.048735" lon="8.5690817"><ele>42.333333333333336</ele><time>2026-04-30T14:24:04.738Z</time></trkpt><trkpt lat="40.0487233" lon="8.568965"><ele>42.66666666666667</ele><time>2026-04-30T14:24:05.741Z</time></trkpt><trkpt lat="40.0487067" lon="8.5688467"><ele>43.0</ele><time>2026-04-30T14:24:06.739Z</time></trkpt><trkpt lat="40.0486917" lon="8.5687333"><ele>43.16666666666667</ele><time>2026-04-30T14:24:07.739Z</time></trkpt><trkpt lat="40.0486783" lon="8.5686183"><ele>43.333333333333336</ele><time>2026-04-30T14:24:08.765Z</time></trkpt><trkpt lat="40.048665" lon="8.568505"><ele>43.5</ele><time>2026-04-30T14:24:09.74Z</time></trkpt><trkpt lat="40.0486567" lon="8.5683933"><ele>43.666666666666664</ele><time>2026-04-30T14:24:10.738Z</time></trkpt><trkpt lat="40.0486483" lon="8.5682867"><ele>43.83333333333333</ele><time>2026-04-30T14:24:11.74Z</time></trkpt><trkpt lat="40.048635" lon="8.56818"><ele>44.0</ele><time>2026-04-30T14:24:12.739Z</time></trkpt><trkpt lat="40.0486167" lon="8.568075"><ele>44.0</ele><time>2026-04-30T14:24:13.737Z</time></trkpt><trkpt lat="40.0485883" lon="8.5679733"><ele>44.0</ele><time>2026-04-30T14:24:14.766Z</time></trkpt><trkpt lat="40.0485567" lon="8.56788"><ele>44.0</ele><time>2026-04-30T14:24:15.744Z</time></trkpt><trkpt lat="40.0485233" lon="8.5677967"><ele>44.0</ele><time>2026-04-30T14:24:16.738Z</time></trkpt><trkpt lat="40.048485" lon="8.567715"><ele>44.0</ele><time>2026-04-30T14:24:17.738Z</time></trkpt><trkpt lat="40.0484383" lon="8.5676367"><ele>44.0</ele><time>2026-04-30T14:24:18.736Z</time></trkpt><trkpt lat="40.048385" lon="8.5675583"><ele>44.2</ele><time>2026-04-30T14:24:19.738Z</time></trkpt><trkpt lat="40.04832" lon="8.5674783"><ele>44.400000000000006</ele><time>2026-04-30T14:24:20.769Z</time></trkpt><trkpt lat="40.0482517" lon="8.567395"><ele>44.6</ele><time>2026-04-30T14:24:21.74Z</time></trkpt><trkpt lat="40.04818" lon="8.5673083"><ele>44.8</ele><time>2026-04-30T14:24:22.737Z</time></trkpt><trkpt lat="40.0480833" lon="8.5672383"><ele>45.0</ele><time>2026-04-30T14:24:23.737Z</time></trkpt><trkpt lat="40.0479817" lon="8.567145"><ele>45.0</ele><time>2026-04-30T14:24:24.74Z</time></trkpt><trkpt lat="40.04785" lon="8.5670433"><ele>45.0</ele><time>2026-04-30T14:24:25.74Z</time></trkpt><trkpt lat="40.0477517" lon="8.566935"><ele>45.0</ele><time>2026-04-30T14:24:26.804Z</time></trkpt><trkpt lat="40.0476517" lon="8.5668317"><ele>45.0</ele><time>2026-04-30T14:24:27.736Z</time></trkpt><trkpt lat="40.0475667" lon="8.5667233"><ele>44.6</ele><time>2026-04-30T14:24:28.737Z</time></trkpt><trkpt lat="40.0475133" lon="8.5666133"><ele>44.2</ele><time>2026-04-30T14:24:29.74Z</time></trkpt><trkpt lat="40.0474583" lon="8.56651"><ele>43.8</ele><time>2026-04-30T14:24:30.739Z</time></trkpt><trkpt lat="40.0474017" lon="8.566415"><ele>43.4</ele><time>2026-04-30T14:24:31.739Z</time></trkpt><trkpt lat="40.0473433" lon="8.5663233"><ele>43.0</ele><time>2026-04-30T14:24:32.804Z</time></trkpt><trkpt lat="40.047295" lon="8.56624"><ele>43.833333333333336</ele><time>2026-04-30T14:24:33.737Z</time></trkpt><trkpt lat="40.0472267" lon="8.5661483"><ele>44.66666666666667</ele><time>2026-04-30T14:24:34.738Z</time></trkpt><trkpt lat="40.047175" lon="8.5660767"><ele>45.5</ele><time>2026-04-30T14:24:35.739Z</time></trkpt><trkpt lat="40.0471183" lon="8.5660083"><ele>46.333333333333336</ele><time>2026-04-30T14:24:36.74Z</time></trkpt><trkpt lat="40.0470583" lon="8.5659317"><ele>47.166666666666664</ele><time>2026-04-30T14:24:37.737Z</time></trkpt><trkpt lat="40.047005" lon="8.56585"><ele>48.0</ele><time>2026-04-30T14:24:38.767Z</time></trkpt><trkpt lat="40.0469583" lon="8.5657633"><ele>48.0</ele><time>2026-04-30T14:24:39.738Z</time></trkpt><trkpt lat="40.0469183" lon="8.565675"><ele>48.0</ele><time>2026-04-30T14:24:40.737Z</time></trkpt><trkpt lat="40.046875" lon="8.5655867"><ele>48.0</ele><time>2026-04-30T14:24:41.742Z</time></trkpt><trkpt lat="40.0468317" lon="8.565495"><ele>48.0</ele><time>2026-04-30T14:24:42.739Z</time></trkpt><trkpt lat="40.0467833" lon="8.565405"><ele>48.0</ele><time>2026-04-30T14:24:43.739Z</time></trkpt><trkpt lat="40.0467317" lon="8.565315"><ele>48.0</ele><time>2026-04-30T14:24:44.77Z</time></trkpt><trkpt lat="40.0466767" lon="8.565225"><ele>47.2</ele><time>2026-04-30T14:24:45.735Z</time></trkpt><trkpt lat="40.04662" lon="8.5651317"><ele>46.4</ele><time>2026-04-30T14:24:46.737Z</time></trkpt><trkpt lat="40.0465667" lon="8.5650317"><ele>45.6</ele><time>2026-04-30T14:24:47.737Z</time></trkpt><trkpt lat="40.0465017" lon="8.564925"><ele>44.800000000000004</ele><time>2026-04-30T14:24:48.737Z</time></trkpt><trkpt lat="40.0464483" lon="8.5648333"><ele>44.0</ele><time>2026-04-30T14:24:49.738Z</time></trkpt><trkpt lat="40.0463817" lon="8.5647517"><ele>44.0</ele><time>2026-04-30T14:24:50.768Z</time></trkpt><trkpt lat="40.0463267" lon="8.56466"><ele>44.0</ele><time>2026-04-30T14:24:51.737Z</time></trkpt><trkpt lat="40.0462733" lon="8.5645767"><ele>44.0</ele><time>2026-04-30T14:24:52.737Z</time></trkpt><trkpt lat="40.046215" lon="8.5644883"><ele>44.0</ele><time>2026-04-30T14:24:53.738Z</time></trkpt><trkpt lat="40.0461533" lon="8.564405"><ele>44.0</ele><time>2026-04-30T14:24:54.738Z</time></trkpt><trkpt lat="40.04609" lon="8.56433"><ele>44.0</ele><time>2026-04-30T14:24:55.739Z</time></trkpt><trkpt lat="40.0460317" lon="8.5642483"><ele>44.666666666666664</ele><time>2026-04-30T14:24:56.806Z</time></trkpt><trkpt lat="40.045975" lon="8.564165"><ele>45.33333333333333</ele><time>2026-04-30T14:24:57.742Z</time></trkpt><trkpt lat="40.0459283" lon="8.5640833"><ele>46.0</ele><time>2026-04-30T14:24:58.738Z</time></trkpt><trkpt lat="40.0458883" lon="8.56399"><ele>46.666666666666664</ele><time>2026-04-30T14:24:59.736Z</time></trkpt><trkpt lat="40.045855" lon="8.56389"><ele>47.333333333333336</ele><time>2026-04-30T14:25:00.739Z</time></trkpt><trkpt lat="40.04583" lon="8.5637783"><ele>48.0</ele><time>2026-04-30T14:25:01.74Z</time></trkpt><trkpt lat="40.0458083" lon="8.5636433"><ele>47.0</ele><time>2026-04-30T14:25:02.767Z</time></trkpt><trkpt lat="40.04579" lon="8.563495"><ele>46.0</ele><time>2026-04-30T14:25:03.738Z</time></trkpt><trkpt lat="40.04576" lon="8.5633517"><ele>45.0</ele><time>2026-04-30T14:25:04.74Z</time></trkpt><trkpt lat="40.0457383" lon="8.5632083"><ele>44.0</ele><time>2026-04-30T14:25:05.738Z</time></trkpt><trkpt lat="40.0457117" lon="8.5630683"><ele>44.0</ele><time>2026-04-30T14:25:06.74Z</time></trkpt><trkpt lat="40.0457" lon="8.5629333"><ele>44.0</ele><time>2026-04-30T14:25:07.737Z</time></trkpt><trkpt lat="40.04568" lon="8.5628117"><ele>44.0</ele><time>2026-04-30T14:25:08.767Z</time></trkpt><trkpt lat="40.04566" lon="8.5626983"><ele>44.0</ele><time>2026-04-30T14:25:09.737Z</time></trkpt><trkpt lat="40.045645" lon="8.5625983"><ele>44.0</ele><time>2026-04-30T14:25:10.737Z</time></trkpt><trkpt lat="40.045635" lon="8.5625033"><ele>44.0</ele><time>2026-04-30T14:25:11.736Z</time></trkpt><trkpt lat="40.0456333" lon="8.5624183"><ele>44.166666666666664</ele><time>2026-04-30T14:25:12.739Z</time></trkpt><trkpt lat="40.0456233" lon="8.56233"><ele>44.33333333333333</ele><time>2026-04-30T14:25:13.738Z</time></trkpt><trkpt lat="40.0456317" lon="8.5622133"><ele>44.5</ele><time>2026-04-30T14:25:15.74Z</time></trkpt><trkpt lat="40.0457133" lon="8.56212"><ele>44.666666666666664</ele><time>2026-04-30T14:26:48.738Z</time></trkpt><trkpt lat="40.0457333" lon="8.56202"><ele>44.833333333333336</ele><time>2026-04-30T14:26:52.738Z</time></trkpt><trkpt lat="40.0456733" lon="8.5619367"><ele>45.0</ele><time>2026-04-30T14:28:45.734Z</time></trkpt><trkpt lat="40.04565" lon="8.5618267"><ele>46.2</ele><time>2026-04-30T14:28:48.736Z</time></trkpt><trkpt lat="40.0456383" lon="8.5617033"><ele>47.4</ele><time>2026-04-30T14:28:50.772Z</time></trkpt><trkpt lat="40.04562" lon="8.5615633"><ele>48.599999999999994</ele><time>2026-04-30T14:28:52.736Z</time></trkpt><trkpt lat="40.0455967" lon="8.561425"><ele>49.8</ele><time>2026-04-30T14:28:54.739Z</time></trkpt><trkpt lat="40.0455683" lon="8.5612917"><ele>51.0</ele><time>2026-04-30T14:28:56.791Z</time></trkpt><trkpt lat="40.0455567" lon="8.5611417"><ele>52.599999999999994</ele><time>2026-04-30T14:28:58.735Z</time></trkpt><trkpt lat="40.0455617" lon="8.5609867"><ele>54.2</ele><time>2026-04-30T14:29:00.736Z</time></trkpt><trkpt lat="40.045585" lon="8.5608533"><ele>55.800000000000004</ele><time>2026-04-30T14:29:02.793Z</time></trkpt><trkpt lat="40.0456317" lon="8.56074"><ele>57.400000000000006</ele><time>2026-04-30T14:29:04.737Z</time></trkpt><trkpt lat="40.0456933" lon="8.5606533"><ele>59.0</ele><time>2026-04-30T14:29:06.736Z</time></trkpt><trkpt lat="40.0457817" lon="8.5605967"><ele>59.833333333333336</ele><time>2026-04-30T14:29:08.772Z</time></trkpt><trkpt lat="40.045885" lon="8.5605667"><ele>60.66666666666667</ele><time>2026-04-30T14:29:10.736Z</time></trkpt><trkpt lat="40.0459883" lon="8.560565"><ele>61.5</ele><time>2026-04-30T14:29:12.74Z</time></trkpt><trkpt lat="40.04607" lon="8.56057"><ele>62.33333333333333</ele><time>2026-04-30T14:29:14.773Z</time></trkpt><trkpt lat="40.0461433" lon="8.5605667"><ele>63.166666666666664</ele><time>2026-04-30T14:29:16.737Z</time></trkpt><trkpt lat="40.046215" lon="8.5605467"><ele>64.0</ele><time>2026-04-30T14:29:18.736Z</time></trkpt><trkpt lat="40.0462817" lon="8.5605"><ele>64.0</ele><time>2026-04-30T14:29:20.774Z</time></trkpt><trkpt lat="40.0463383" lon="8.5604417"><ele>64.0</ele><time>2026-04-30T14:29:22.739Z</time></trkpt><trkpt lat="40.0463933" lon="8.5603717"><ele>64.0</ele><time>2026-04-30T14:29:24.737Z</time></trkpt><trkpt lat="40.0464583" lon="8.560265"><ele>64.0</ele><time>2026-04-30T14:29:26.767Z</time></trkpt><trkpt lat="40.0465283" lon="8.5601383"><ele>64.0</ele><time>2026-04-30T14:29:28.739Z</time></trkpt><trkpt lat="40.046595" lon="8.5600333"><ele>66.60000000000001</ele><time>2026-04-30T14:29:30.736Z</time></trkpt><trkpt lat="40.0466717" lon="8.5599667"><ele>69.2</ele><time>2026-04-30T14:29:32.791Z</time></trkpt><trkpt lat="40.0467433" lon="8.559925"><ele>71.80000000000001</ele><time>2026-04-30T14:29:34.738Z</time></trkpt><trkpt lat="40.04681" lon="8.559855"><ele>74.4</ele><time>2026-04-30T14:29:36.739Z</time></trkpt><trkpt lat="40.0468733" lon="8.5597567"><ele>77.0</ele><time>2026-04-30T14:29:38.772Z</time></trkpt><trkpt lat="40.046945" lon="8.5596483"><ele>77.0</ele><time>2026-04-30T14:29:40.738Z</time></trkpt><trkpt lat="40.0470283" lon="8.5595383"><ele>77.0</ele><time>2026-04-30T14:29:42.738Z</time></trkpt><trkpt lat="40.04712" lon="8.55943"><ele>77.0</ele><time>2026-04-30T14:29:44.774Z</time></trkpt><trkpt lat="40.0472217" lon="8.5593567"><ele>77.0</ele><time>2026-04-30T14:29:46.738Z</time></trkpt><trkpt lat="40.0473433" lon="8.55933"><ele>79.16666666666667</ele><time>2026-04-30T14:29:48.738Z</time></trkpt><trkpt lat="40.0474083" lon="8.5593267"><ele>81.33333333333334</ele><time>2026-04-30T14:29:49.736Z</time></trkpt><trkpt lat="40.0474733" lon="8.559315"><ele>83.5</ele><time>2026-04-30T14:29:50.771Z</time></trkpt><trkpt lat="40.04754" lon="8.5593"><ele>85.66666666666667</ele><time>2026-04-30T14:29:51.736Z</time></trkpt><trkpt lat="40.0476583" lon="8.5592717"><ele>87.83333333333333</ele><time>2026-04-30T14:29:53.741Z</time></trkpt><trkpt lat="40.0477783" lon="8.5592517"><ele>90.0</ele><time>2026-04-30T14:29:55.738Z</time></trkpt><trkpt lat="40.047895" lon="8.559205"><ele>91.2</ele><time>2026-04-30T14:29:57.737Z</time></trkpt><trkpt lat="40.048" lon="8.5591617"><ele>92.4</ele><time>2026-04-30T14:29:59.74Z</time></trkpt><trkpt lat="40.0481" lon="8.55915"><ele>93.6</ele><time>2026-04-30T14:30:01.741Z</time></trkpt><trkpt lat="40.0481817" lon="8.55916"><ele>94.8</ele><time>2026-04-30T14:30:03.733Z</time></trkpt><trkpt lat="40.048235" lon="8.5592383"><ele>96.0</ele><time>2026-04-30T14:30:06.74Z</time></trkpt><trkpt lat="40.0482283" lon="8.5593567"><ele>96.0</ele><time>2026-04-30T14:30:09.742Z</time></trkpt><trkpt lat="40.0481867" lon="8.5594967"><ele>96.0</ele><time>2026-04-30T14:30:11.74Z</time></trkpt><trkpt lat="40.0481817" lon="8.559625"><ele>96.0</ele><time>2026-04-30T14:30:13.737Z</time></trkpt><trkpt lat="40.0482283" lon="8.55973"><ele>96.0</ele><time>2026-04-30T14:30:15.734Z</time></trkpt><trkpt lat="40.048295" lon="8.5598367"><ele>96.0</ele><time>2026-04-30T14:30:17.745Z</time></trkpt><trkpt lat="40.048375" lon="8.5599083"><ele>98.6</ele><time>2026-04-30T14:30:19.738Z</time></trkpt><trkpt lat="40.0484733" lon="8.5599533"><ele>101.19999999999999</ele><time>2026-04-30T14:30:21.736Z</time></trkpt><trkpt lat="40.04858" lon="8.5599867"><ele>103.80000000000001</ele><time>2026-04-30T14:30:23.736Z</time></trkpt><trkpt lat="40.04868" lon="8.56005"><ele>106.4</ele><time>2026-04-30T14:30:25.737Z</time></trkpt><trkpt lat="40.0487683" lon="8.560155"><ele>109.0</ele><time>2026-04-30T14:30:27.737Z</time></trkpt><trkpt lat="40.04886" lon="8.5602483"><ele>109.0</ele><time>2026-04-30T14:30:29.739Z</time></trkpt><trkpt lat="40.0489633" lon="8.5603217"><ele>109.0</ele><time>2026-04-30T14:30:31.741Z</time></trkpt><trkpt lat="40.049075" lon="8.560385"><ele>109.0</ele><time>2026-04-30T14:30:33.735Z</time></trkpt><trkpt lat="40.0491783" lon="8.5603833"><ele>109.0</ele><time>2026-04-30T14:30:35.738Z</time></trkpt><trkpt lat="40.04925" lon="8.5603167"><ele>109.0</ele><time>2026-04-30T14:30:37.738Z</time></trkpt><trkpt lat="40.0492867" lon="8.56021"><ele>112.50000000000001</ele><time>2026-04-30T14:30:39.739Z</time></trkpt><trkpt lat="40.0492917" lon="8.56012"><ele>116.0</ele><time>2026-04-30T14:30:41.739Z</time></trkpt><trkpt lat="40.0493083" lon="8.5599717"><ele>119.5</ele><time>2026-04-30T14:32:36.738Z</time></trkpt><trkpt lat="40.0493433" lon="8.5598733"><ele>123.0</ele><time>2026-04-30T14:32:39.742Z</time></trkpt><trkpt lat="40.049385" lon="8.5597783"><ele>126.50000000000001</ele><time>2026-04-30T14:32:41.736Z</time></trkpt><trkpt lat="40.0494483" lon="8.559685"><ele>130.0</ele><time>2026-04-30T14:32:43.737Z</time></trkpt><trkpt lat="40.049525" lon="8.55958"><ele>129.75</ele><time>2026-04-30T14:32:45.734Z</time></trkpt><trkpt lat="40.0496083" lon="8.559465"><ele>129.5</ele><time>2026-04-30T14:32:47.739Z</time></trkpt><trkpt lat="40.0496967" lon="8.55935"><ele>129.25</ele><time>2026-04-30T14:32:49.741Z</time></trkpt><trkpt lat="40.04978" lon="8.5592367"><ele>129.0</ele><time>2026-04-30T14:32:51.736Z</time></trkpt><trkpt lat="40.0498633" lon="8.5591167"><ele>129.0</ele><time>2026-04-30T14:32:53.74Z</time></trkpt><trkpt lat="40.049905" lon="8.559055"><ele>129.0</ele><time>2026-04-30T14:32:54.739Z</time></trkpt><trkpt lat="40.0499733" lon="8.558935"><ele>129.0</ele><time>2026-04-30T14:32:56.738Z</time></trkpt><trkpt lat="40.0500217" lon="8.5588"><ele>129.0</ele><time>2026-04-30T14:32:58.738Z</time></trkpt><trkpt lat="40.0500317" lon="8.55865"><ele>129.0</ele><time>2026-04-30T14:33:00.741Z</time></trkpt><trkpt lat="40.050015" lon="8.558515"><ele>130.0</ele><time>2026-04-30T14:33:02.737Z</time></trkpt><trkpt lat="40.0499883" lon="8.5584017"><ele>131.0</ele><time>2026-04-30T14:33:04.737Z</time></trkpt><trkpt lat="40.049965" lon="8.5583117"><ele>132.0</ele><time>2026-04-30T14:33:06.738Z</time></trkpt><trkpt lat="40.0499467" lon="8.5582217"><ele>133.0</ele><time>2026-04-30T14:33:08.77Z</time></trkpt><trkpt lat="40.049915" lon="8.558125"><ele>134.0</ele><time>2026-04-30T14:33:10.737Z</time></trkpt><trkpt lat="40.0498833" lon="8.55801"><ele>135.0</ele><time>2026-04-30T14:33:12.742Z</time></trkpt><trkpt lat="40.0498533" lon="8.5579217"><ele>137.33333333333334</ele><time>2026-04-30T14:33:14.775Z</time></trkpt><trkpt lat="40.04982" lon="8.557805"><ele>139.66666666666666</ele><time>2026-04-30T14:33:23.734Z</time></trkpt><trkpt lat="40.0498167" lon="8.5576817"><ele>142.0</ele><time>2026-04-30T14:33:26.74Z</time></trkpt><trkpt lat="40.0498183" lon="8.557585"><ele>144.33333333333331</ele><time>2026-04-30T14:33:28.74Z</time></trkpt><trkpt lat="40.049835" lon="8.5574767"><ele>146.66666666666666</ele><time>2026-04-30T14:33:30.738Z</time></trkpt><trkpt lat="40.0498767" lon="8.5573617"><ele>149.0</ele><time>2026-04-30T14:33:32.791Z</time></trkpt><trkpt lat="40.0499167" lon="8.5572517"><ele>149.0</ele><time>2026-04-30T14:33:34.736Z</time></trkpt><trkpt lat="40.0499433" lon="8.55716"><ele>149.0</ele><time>2026-04-30T14:33:36.736Z</time></trkpt><trkpt lat="40.0499183" lon="8.5570617"><ele>149.0</ele><time>2026-04-30T14:33:39.735Z</time></trkpt><trkpt lat="40.0498117" lon="8.557065"><ele>149.0</ele><time>2026-04-30T14:33:44.778Z</time></trkpt><trkpt lat="40.0497367" lon="8.5570633"><ele>149.0</ele><time>2026-04-30T14:33:46.738Z</time></trkpt><trkpt lat="40.0496317" lon="8.5570483"><ele>149.0</ele><time>2026-04-30T14:33:48.735Z</time></trkpt><trkpt lat="40.049515" lon="8.5570183"><ele>150.0</ele><time>2026-04-30T14:33:50.772Z</time></trkpt><trkpt lat="40.0494" lon="8.5570033"><ele>151.0</ele><time>2026-04-30T14:33:52.734Z</time></trkpt><trkpt lat="40.0493017" lon="8.5569533"><ele>152.0</ele><time>2026-04-30T14:33:54.737Z</time></trkpt><trkpt lat="40.0492167" lon="8.5568817"><ele>153.0</ele><time>2026-04-30T14:33:56.801Z</time></trkpt><trkpt lat="40.049145" lon="8.5567933"><ele>154.0</ele><time>2026-04-30T14:33:58.734Z</time></trkpt><trkpt lat="40.0490567" lon="8.5567033"><ele>154.0</ele><time>2026-04-30T14:34:00.736Z</time></trkpt><trkpt lat="40.0489633" lon="8.556605"><ele>154.0</ele><time>2026-04-30T14:34:02.765Z</time></trkpt><trkpt lat="40.0488717" lon="8.5564983"><ele>154.0</ele><time>2026-04-30T14:34:04.738Z</time></trkpt><trkpt lat="40.0487833" lon="8.556395"><ele>154.0</ele><time>2026-04-30T14:34:06.738Z</time></trkpt><trkpt lat="40.0487083" lon="8.5562667"><ele>156.5</ele><time>2026-04-30T14:34:08.771Z</time></trkpt><trkpt lat="40.048645" lon="8.5561233"><ele>159.0</ele><time>2026-04-30T14:34:10.736Z</time></trkpt><trkpt lat="40.0486183" lon="8.5560483"><ele>161.5</ele><time>2026-04-30T14:34:11.737Z</time></trkpt><trkpt lat="40.0485967" lon="8.55597"><ele>164.0</ele><time>2026-04-30T14:34:12.734Z</time></trkpt><trkpt lat="40.0485833" lon="8.5558867"><ele>166.5</ele><time>2026-04-30T14:34:13.735Z</time></trkpt><trkpt lat="40.0485683" lon="8.5557533"><ele>169.0</ele><time>2026-04-30T14:34:15.735Z</time></trkpt><trkpt lat="40.0485633" lon="8.5556683"><ele>169.0</ele><time>2026-04-30T14:36:31.735Z</time></trkpt><trkpt lat="40.048575" lon="8.5555867"><ele>169.0</ele><time>2026-04-30T14:36:33.735Z</time></trkpt><trkpt lat="40.04862" lon="8.555465"><ele>169.0</ele><time>2026-04-30T14:36:37.736Z</time></trkpt><trkpt lat="40.0486867" lon="8.5553583"><ele>169.0</ele><time>2026-04-30T14:36:40.735Z</time></trkpt><trkpt lat="40.0487517" lon="8.55528"><ele>169.0</ele><time>2026-04-30T14:36:42.738Z</time></trkpt><trkpt lat="40.0488133" lon="8.555215"><ele>169.0</ele><time>2026-04-30T14:36:44.771Z</time></trkpt><trkpt lat="40.04889" lon="8.5551883"><ele>170.0</ele><time>2026-04-30T14:36:46.739Z</time></trkpt><trkpt lat="40.0489767" lon="8.5552117"><ele>171.0</ele><time>2026-04-30T14:36:48.735Z</time></trkpt><trkpt lat="40.0490667" lon="8.5552517"><ele>172.0</ele><time>2026-04-30T14:36:50.77Z</time></trkpt><trkpt lat="40.0491533" lon="8.5552783"><ele>173.0</ele><time>2026-04-30T14:36:52.734Z</time></trkpt><trkpt lat="40.049275" lon="8.5551983"><ele>174.0</ele><time>2026-04-30T14:41:56.77Z</time></trkpt><trkpt lat="40.0493667" lon="8.5552083"><ele>178.6</ele><time>2026-04-30T14:42:30.738Z</time></trkpt><trkpt lat="40.0494433" lon="8.5552333"><ele>183.2</ele><time>2026-04-30T14:42:32.772Z</time></trkpt><trkpt lat="40.0495317" lon="8.555245"><ele>187.79999999999998</ele><time>2026-04-30T14:42:34.734Z</time></trkpt><trkpt lat="40.0496317" lon="8.5552233"><ele>192.39999999999998</ele><time>2026-04-30T14:42:36.735Z</time></trkpt><trkpt lat="40.0497383" lon="8.5551817"><ele>197.0</ele><time>2026-04-30T14:42:38.785Z</time></trkpt><trkpt lat="40.04984" lon="8.5551183"><ele>197.0</ele><time>2026-04-30T14:42:40.735Z</time></trkpt><trkpt lat="40.049925" lon="8.55503"><ele>197.0</ele><time>2026-04-30T14:42:42.739Z</time></trkpt><trkpt lat="40.0499783" lon="8.5549033"><ele>197.0</ele><time>2026-04-30T14:42:44.785Z</time></trkpt><trkpt lat="40.0500083" lon="8.554755"><ele>197.0</ele><time>2026-04-30T14:42:46.734Z</time></trkpt><trkpt lat="40.0500417" lon="8.5546267"><ele>197.0</ele><time>2026-04-30T14:42:48.735Z</time></trkpt><trkpt lat="40.050095" lon="8.5545267"><ele>199.2</ele><time>2026-04-30T14:42:50.781Z</time></trkpt><trkpt lat="40.0501467" lon="8.55444"><ele>201.39999999999998</ele><time>2026-04-30T14:42:52.734Z</time></trkpt><trkpt lat="40.0501767" lon="8.55435"><ele>203.60000000000002</ele><time>2026-04-30T14:42:54.739Z</time></trkpt><trkpt lat="40.0502433" lon="8.5542117"><ele>205.8</ele><time>2026-04-30T14:45:23.737Z</time></trkpt><trkpt lat="40.0502483" lon="8.5541033"><ele>208.0</ele><time>2026-04-30T14:45:27.734Z</time></trkpt><trkpt lat="40.0503033" lon="8.5539983"><ele>208.0</ele><time>2026-04-30T14:46:42.74Z</time></trkpt><trkpt lat="40.0502917" lon="8.5538467"><ele>208.0</ele><time>2026-04-30T14:46:45.735Z</time></trkpt><trkpt lat="40.05029" lon="8.55371"><ele>208.0</ele><time>2026-04-30T14:46:47.733Z</time></trkpt><trkpt lat="40.0502717" lon="8.553585"><ele>208.0</ele><time>2026-04-30T14:46:49.734Z</time></trkpt><trkpt lat="40.0502367" lon="8.55348"><ele>208.0</ele><time>2026-04-30T14:46:51.735Z</time></trkpt><trkpt lat="40.05019" lon="8.553395"><ele>208.33333333333331</ele><time>2026-04-30T14:46:53.73Z</time></trkpt><trkpt lat="40.050145" lon="8.5533067"><ele>208.66666666666666</ele><time>2026-04-30T14:46:55.732Z</time></trkpt><trkpt lat="40.05011" lon="8.5532117"><ele>209.0</ele><time>2026-04-30T14:46:57.733Z</time></trkpt><trkpt lat="40.0500817" lon="8.553115"><ele>209.33333333333331</ele><time>2026-04-30T14:46:59.732Z</time></trkpt><trkpt lat="40.05006" lon="8.552995"><ele>209.66666666666666</ele><time>2026-04-30T14:47:13.732Z</time></trkpt><trkpt lat="40.0500483" lon="8.5529"><ele>210.0</ele><time>2026-04-30T14:47:28.732Z</time></trkpt><trkpt lat="40.050035" lon="8.5528"><ele>210.16666666666666</ele><time>2026-04-30T14:47:30.732Z</time></trkpt><trkpt lat="40.05001" lon="8.552705"><ele>210.33333333333331</ele><time>2026-04-30T14:47:32.787Z</time></trkpt><trkpt lat="40.0499783" lon="8.5526117"><ele>210.5</ele><time>2026-04-30T14:47:34.732Z</time></trkpt><trkpt lat="40.0499383" lon="8.5525067"><ele>210.66666666666666</ele><time>2026-04-30T14:47:37.735Z</time></trkpt><trkpt lat="40.0499083" lon="8.5524183"><ele>210.83333333333331</ele><time>2026-04-30T14:47:40.733Z</time></trkpt><trkpt lat="40.0498783" lon="8.5522983"><ele>211.0</ele><time>2026-04-30T14:47:43.734Z</time></trkpt><trkpt lat="40.0498633" lon="8.5521917"><ele>209.16666666666666</ele><time>2026-04-30T14:47:46.732Z</time></trkpt><trkpt lat="40.049895" lon="8.5520833"><ele>207.33333333333331</ele><time>2026-04-30T14:48:15.732Z</time></trkpt><trkpt lat="40.0498167" lon="8.5520433"><ele>205.5</ele><time>2026-04-30T14:52:37.732Z</time></trkpt><trkpt lat="40.0498083" lon="8.552125"><ele>203.66666666666669</ele><time>2026-04-30T14:52:43.733Z</time></trkpt><trkpt lat="40.0498183" lon="8.5522267"><ele>201.83333333333334</ele><time>2026-04-30T14:52:47.731Z</time></trkpt><trkpt lat="40.0498333" lon="8.5523233"><ele>200.0</ele><time>2026-04-30T14:52:49.732Z</time></trkpt><trkpt lat="40.0498483" lon="8.5524367"><ele>200.0</ele><time>2026-04-30T14:52:51.734Z</time></trkpt><trkpt lat="40.049865" lon="8.55256"><ele>200.0</ele><time>2026-04-30T14:52:53.734Z</time></trkpt><trkpt lat="40.0498867" lon="8.552675"><ele>200.0</ele><time>2026-04-30T14:52:55.732Z</time></trkpt><trkpt lat="40.04992" lon="8.5528"><ele>200.0</ele><time>2026-04-30T14:52:57.733Z</time></trkpt><trkpt lat="40.04997" lon="8.5529383"><ele>200.0</ele><time>2026-04-30T14:52:59.732Z</time></trkpt><trkpt lat="40.0499983" lon="8.5530133"><ele>201.66666666666669</ele><time>2026-04-30T14:53:00.735Z</time></trkpt><trkpt lat="40.05004" lon="8.553145"><ele>203.33333333333334</ele><time>2026-04-30T14:53:02.785Z</time></trkpt><trkpt lat="40.0500767" lon="8.5532517"><ele>205.0</ele><time>2026-04-30T14:53:04.737Z</time></trkpt><trkpt lat="40.0501217" lon="8.55331"><ele>206.66666666666669</ele><time>2026-04-30T14:53:06.731Z</time></trkpt><trkpt lat="40.0501867" lon="8.5533233"><ele>208.33333333333334</ele><time>2026-04-30T14:53:08.785Z</time></trkpt><trkpt lat="40.0502517" lon="8.5533267"><ele>210.0</ele><time>2026-04-30T14:53:10.732Z</time></trkpt><trkpt lat="40.0503" lon="8.5532467"><ele>210.0</ele><time>2026-04-30T14:53:56.786Z</time></trkpt><trkpt lat="40.0503533" lon="8.55316"><ele>210.0</ele><time>2026-04-30T14:53:58.73Z</time></trkpt><trkpt lat="40.0503917" lon="8.5530917"><ele>210.0</ele><time>2026-04-30T14:53:59.736Z</time></trkpt><trkpt lat="40.05046" lon="8.55296"><ele>210.0</ele><time>2026-04-30T14:54:01.732Z</time></trkpt><trkpt lat="40.050495" lon="8.55285"><ele>210.0</ele><time>2026-04-30T14:54:03.733Z</time></trkpt><trkpt lat="40.0504867" lon="8.5529383"><ele>210.0</ele><time>2026-04-30T14:54:21.734Z</time></trkpt><trkpt lat="40.05055" lon="8.5528633"><ele>210.2</ele><time>2026-04-30T14:54:25.732Z</time></trkpt><trkpt lat="40.050545" lon="8.5527617"><ele>210.4</ele><time>2026-04-30T14:54:27.734Z</time></trkpt><trkpt lat="40.0505267" lon="8.5525917"><ele>210.60000000000002</ele><time>2026-04-30T14:54:29.729Z</time></trkpt><trkpt lat="40.0505233" lon="8.5524983"><ele>210.8</ele><time>2026-04-30T14:54:30.732Z</time></trkpt><trkpt lat="40.0505317" lon="8.5523933"><ele>211.0</ele><time>2026-04-30T14:54:31.733Z</time></trkpt><trkpt lat="40.05055" lon="8.5522783"><ele>211.0</ele><time>2026-04-30T14:54:32.787Z</time></trkpt><trkpt lat="40.0505733" lon="8.552145"><ele>211.0</ele><time>2026-04-30T14:54:33.737Z</time></trkpt><trkpt lat="40.0505767" lon="8.5519717"><ele>211.0</ele><time>2026-04-30T14:54:34.732Z</time></trkpt><trkpt lat="40.0505983" lon="8.55181"><ele>211.0</ele><time>2026-04-30T14:54:35.732Z</time></trkpt><trkpt lat="40.0506083" lon="8.5516433"><ele>210.60000000000002</ele><time>2026-04-30T14:54:36.734Z</time></trkpt><trkpt lat="40.0506233" lon="8.551485"><ele>210.2</ele><time>2026-04-30T14:54:37.733Z</time></trkpt><trkpt lat="40.0506467" lon="8.55134"><ele>209.8</ele><time>2026-04-30T14:54:38.779Z</time></trkpt><trkpt lat="40.0506767" lon="8.551205"><ele>209.39999999999998</ele><time>2026-04-30T14:54:39.73Z</time></trkpt><trkpt lat="40.0507067" lon="8.5510783"><ele>209.0</ele><time>2026-04-30T14:54:40.731Z</time></trkpt><trkpt lat="40.0507417" lon="8.550955"><ele>208.79999999999998</ele><time>2026-04-30T14:54:41.732Z</time></trkpt><trkpt lat="40.0507783" lon="8.550835"><ele>208.6</ele><time>2026-04-30T14:54:42.731Z</time></trkpt><trkpt lat="40.0508167" lon="8.55072"><ele>208.4</ele><time>2026-04-30T14:54:43.734Z</time></trkpt><trkpt lat="40.050855" lon="8.55061"><ele>208.2</ele><time>2026-04-30T14:54:44.783Z</time></trkpt><trkpt lat="40.0508967" lon="8.550505"><ele>208.0</ele><time>2026-04-30T14:54:45.731Z</time></trkpt><trkpt lat="40.05094" lon="8.5504067"><ele>209.49999999999997</ele><time>2026-04-30T14:54:46.732Z</time></trkpt><trkpt lat="40.0509783" lon="8.5503133"><ele>211.0</ele><time>2026-04-30T14:54:47.731Z</time></trkpt><trkpt lat="40.0510167" lon="8.5502233"><ele>212.5</ele><time>2026-04-30T14:54:48.733Z</time></trkpt><trkpt lat="40.0510533" lon="8.5501417"><ele>214.0</ele><time>2026-04-30T14:54:49.733Z</time></trkpt><trkpt lat="40.0510867" lon="8.55007"><ele>215.49999999999997</ele><time>2026-04-30T14:54:50.781Z</time></trkpt><trkpt lat="40.0511367" lon="8.5499683"><ele>217.0</ele><time>2026-04-30T14:54:52.729Z</time></trkpt><trkpt lat="40.051175" lon="8.5498917"><ele>216.99999999999997</ele><time>2026-04-30T14:54:56.803Z</time></trkpt><trkpt lat="40.05109" lon="8.5498983"><ele>217.0</ele><time>2026-04-30T14:57:06.733Z</time></trkpt><trkpt lat="40.0510817" lon="8.5498167"><ele>217.0</ele><time>2026-04-30T15:02:32.781Z</time></trkpt><trkpt lat="40.0510833" lon="8.5497117"><ele>217.0</ele><time>2026-04-30T15:02:34.732Z</time></trkpt><trkpt lat="40.0510683" lon="8.5495733"><ele>216.99999999999997</ele><time>2026-04-30T15:02:36.732Z</time></trkpt><trkpt lat="40.05106" lon="8.54949"><ele>217.0</ele><time>2026-04-30T15:02:37.732Z</time></trkpt><trkpt lat="40.05105" lon="8.5494017"><ele>216.57142857142858</ele><time>2026-04-30T15:02:38.778Z</time></trkpt><trkpt lat="40.05104" lon="8.5493117"><ele>216.14285714285714</ele><time>2026-04-30T15:02:39.729Z</time></trkpt><trkpt lat="40.0510333" lon="8.5492183"><ele>215.71428571428572</ele><time>2026-04-30T15:02:40.73Z</time></trkpt><trkpt lat="40.0510333" lon="8.5491283"><ele>215.28571428571428</ele><time>2026-04-30T15:02:41.731Z</time></trkpt><trkpt lat="40.05104" lon="8.5490433"><ele>214.85714285714286</ele><time>2026-04-30T15:02:42.734Z</time></trkpt><trkpt lat="40.051055" lon="8.5489617"><ele>214.42857142857144</ele><time>2026-04-30T15:02:43.73Z</time></trkpt><trkpt lat="40.0510783" lon="8.5488783"><ele>214.0</ele><time>2026-04-30T15:02:44.78Z</time></trkpt><trkpt lat="40.0511133" lon="8.5488"><ele>213.99999999999997</ele><time>2026-04-30T15:02:45.731Z</time></trkpt><trkpt lat="40.0511617" lon="8.5487167"><ele>214.0</ele><time>2026-04-30T15:02:46.733Z</time></trkpt><trkpt lat="40.05122" lon="8.5486367"><ele>214.0</ele><time>2026-04-30T15:02:47.731Z</time></trkpt><trkpt lat="40.0512833" lon="8.5485617"><ele>214.0</ele><time>2026-04-30T15:02:48.732Z</time></trkpt><trkpt lat="40.051345" lon="8.5484933"><ele>213.99999999999997</ele><time>2026-04-30T15:02:49.733Z</time></trkpt><trkpt lat="40.0513983" lon="8.5484333"><ele>214.0</ele><time>2026-04-30T15:02:50.776Z</time></trkpt><trkpt lat="40.0514483" lon="8.548375"><ele>213.39999999999998</ele><time>2026-04-30T15:02:51.74Z</time></trkpt><trkpt lat="40.0515067" lon="8.54826"><ele>212.79999999999998</ele><time>2026-04-30T15:02:53.728Z</time></trkpt><trkpt lat="40.051505" lon="8.54814"><ele>212.2</ele><time>2026-04-30T15:02:55.728Z</time></trkpt><trkpt lat="40.0514833" lon="8.5480267"><ele>211.60000000000002</ele><time>2026-04-30T15:02:57.728Z</time></trkpt><trkpt lat="40.0514733" lon="8.5479"><ele>211.0</ele><time>2026-04-30T15:02:59.734Z</time></trkpt><trkpt lat="40.0514683" lon="8.5477417"><ele>209.71428571428572</ele><time>2026-04-30T15:03:01.732Z</time></trkpt><trkpt lat="40.0514583" lon="8.547655"><ele>208.42857142857144</ele><time>2026-04-30T15:03:02.78Z</time></trkpt><trkpt lat="40.0514367" lon="8.547575"><ele>207.14285714285714</ele><time>2026-04-30T15:03:03.729Z</time></trkpt><trkpt lat="40.0514133" lon="8.547495"><ele>205.85714285714286</ele><time>2026-04-30T15:03:04.728Z</time></trkpt><trkpt lat="40.0513917" lon="8.54741"><ele>204.57142857142856</ele><time>2026-04-30T15:03:05.732Z</time></trkpt><trkpt lat="40.0513767" lon="8.5473117"><ele>203.28571428571428</ele><time>2026-04-30T15:03:06.729Z</time></trkpt><trkpt lat="40.0513617" lon="8.5472167"><ele>202.0</ele><time>2026-04-30T15:03:07.734Z</time></trkpt><trkpt lat="40.0513433" lon="8.5471267"><ele>198.99999999999997</ele><time>2026-04-30T15:03:08.776Z</time></trkpt><trkpt lat="40.0513217" lon="8.5470367"><ele>196.0</ele><time>2026-04-30T15:03:09.728Z</time></trkpt><trkpt lat="40.0512983" lon="8.5469517"><ele>193.0</ele><time>2026-04-30T15:03:10.73Z</time></trkpt><trkpt lat="40.0512733" lon="8.54686"><ele>190.0</ele><time>2026-04-30T15:03:11.733Z</time></trkpt><trkpt lat="40.05125" lon="8.5467633"><ele>187.0</ele><time>2026-04-30T15:03:12.732Z</time></trkpt><trkpt lat="40.0512333" lon="8.5466617"><ele>184.0</ele><time>2026-04-30T15:03:13.729Z</time></trkpt><trkpt lat="40.0512183" lon="8.5465567"><ele>184.0</ele><time>2026-04-30T15:03:14.779Z</time></trkpt><trkpt lat="40.0512067" lon="8.5464567"><ele>184.0</ele><time>2026-04-30T15:03:15.731Z</time></trkpt><trkpt lat="40.0512" lon="8.5463583"><ele>184.0</ele><time>2026-04-30T15:03:16.731Z</time></trkpt><trkpt lat="40.0511967" lon="8.5462617"><ele>184.0</ele><time>2026-04-30T15:03:17.735Z</time></trkpt><trkpt lat="40.0511967" lon="8.5461667"><ele>184.0</ele><time>2026-04-30T15:03:18.733Z</time></trkpt><trkpt lat="40.0511917" lon="8.5460683"><ele>184.0</ele><time>2026-04-30T15:03:19.731Z</time></trkpt><trkpt lat="40.0511883" lon="8.5459683"><ele>182.71428571428572</ele><time>2026-04-30T15:03:20.776Z</time></trkpt><trkpt lat="40.0511817" lon="8.545875"><ele>181.42857142857142</ele><time>2026-04-30T15:03:21.731Z</time></trkpt><trkpt lat="40.05117" lon="8.5457817"><ele>180.14285714285714</ele><time>2026-04-30T15:03:22.727Z</time></trkpt><trkpt lat="40.0511583" lon="8.5456867"><ele>178.85714285714286</ele><time>2026-04-30T15:03:23.734Z</time></trkpt><trkpt lat="40.0511567" lon="8.5455933"><ele>177.57142857142856</ele><time>2026-04-30T15:03:24.732Z</time></trkpt><trkpt lat="40.0511667" lon="8.5455017"><ele>176.28571428571428</ele><time>2026-04-30T15:03:25.729Z</time></trkpt><trkpt lat="40.05119" lon="8.545415"><ele>175.0</ele><time>2026-04-30T15:03:26.778Z</time></trkpt><trkpt lat="40.05122" lon="8.54533"><ele>175.0</ele><time>2026-04-30T15:03:27.731Z</time></trkpt><trkpt lat="40.0512583" lon="8.54524"><ele>175.0</ele><time>2026-04-30T15:03:28.73Z</time></trkpt><trkpt lat="40.0513017" lon="8.545145"><ele>175.0</ele><time>2026-04-30T15:03:29.73Z</time></trkpt><trkpt lat="40.0513367" lon="8.54504"><ele>175.0</ele><time>2026-04-30T15:03:30.732Z</time></trkpt><trkpt lat="40.0513667" lon="8.54493"><ele>175.0</ele><time>2026-04-30T15:03:31.731Z</time></trkpt><trkpt lat="40.0513967" lon="8.54482"><ele>175.0</ele><time>2026-04-30T15:03:32.781Z</time></trkpt><trkpt lat="40.0514283" lon="8.5447133"><ele>175.0</ele><time>2026-04-30T15:03:33.728Z</time></trkpt><trkpt lat="40.051465" lon="8.5446067"><ele>175.0</ele><time>2026-04-30T15:03:34.731Z</time></trkpt><trkpt lat="40.0515083" lon="8.5445"><ele>175.0</ele><time>2026-04-30T15:03:35.731Z</time></trkpt><trkpt lat="40.051555" lon="8.5443983"><ele>175.0</ele><time>2026-04-30T15:03:36.73Z</time></trkpt><trkpt lat="40.0516" lon="8.5443017"><ele>175.0</ele><time>2026-04-30T15:03:37.735Z</time></trkpt><trkpt lat="40.0516433" lon="8.5442117"><ele>175.0</ele><time>2026-04-30T15:03:38.774Z</time></trkpt><trkpt lat="40.0516883" lon="8.544125"><ele>172.71428571428572</ele><time>2026-04-30T15:03:39.726Z</time></trkpt><trkpt lat="40.0517267" lon="8.5440383"><ele>170.42857142857144</ele><time>2026-04-30T15:03:40.729Z</time></trkpt><trkpt lat="40.0517583" lon="8.5439517"><ele>168.14285714285714</ele><time>2026-04-30T15:03:41.732Z</time></trkpt><trkpt lat="40.051785" lon="8.543865"><ele>165.85714285714286</ele><time>2026-04-30T15:03:42.731Z</time></trkpt><trkpt lat="40.0518033" lon="8.5437733"><ele>163.57142857142858</ele><time>2026-04-30T15:03:43.73Z</time></trkpt><trkpt lat="40.0518133" lon="8.5436883"><ele>161.28571428571428</ele><time>2026-04-30T15:03:44.779Z</time></trkpt><trkpt lat="40.0518217" lon="8.543605"><ele>159.0</ele><time>2026-04-30T15:03:45.728Z</time></trkpt><trkpt lat="40.0518383" lon="8.5435217"><ele>158.66666666666666</ele><time>2026-04-30T15:03:46.729Z</time></trkpt><trkpt lat="40.051865" lon="8.54344"><ele>158.33333333333334</ele><time>2026-04-30T15:03:47.732Z</time></trkpt><trkpt lat="40.0519" lon="8.543355"><ele>158.0</ele><time>2026-04-30T15:03:48.731Z</time></trkpt><trkpt lat="40.0519433" lon="8.5432683"><ele>157.66666666666669</ele><time>2026-04-30T15:03:49.732Z</time></trkpt><trkpt lat="40.05199" lon="8.54318"><ele>157.33333333333334</ele><time>2026-04-30T15:03:50.781Z</time></trkpt><trkpt lat="40.0520317" lon="8.543085"><ele>157.0</ele><time>2026-04-30T15:03:51.733Z</time></trkpt><trkpt lat="40.052065" lon="8.5429817"><ele>156.6</ele><time>2026-04-30T15:03:52.728Z</time></trkpt><trkpt lat="40.05209" lon="8.5428667"><ele>156.2</ele><time>2026-04-30T15:03:53.734Z</time></trkpt><trkpt lat="40.05211" lon="8.5427433"><ele>155.8</ele><time>2026-04-30T15:03:54.728Z</time></trkpt><trkpt lat="40.052125" lon="8.5426083"><ele>155.4</ele><time>2026-04-30T15:03:55.728Z</time></trkpt><trkpt lat="40.0521317" lon="8.54247"><ele>155.0</ele><time>2026-04-30T15:03:56.778Z</time></trkpt><trkpt lat="40.0521283" lon="8.542325"><ele>155.0</ele><time>2026-04-30T15:03:57.731Z</time></trkpt><trkpt lat="40.0521167" lon="8.5421817"><ele>155.0</ele><time>2026-04-30T15:03:58.729Z</time></trkpt><trkpt lat="40.0521017" lon="8.542045"><ele>155.0</ele><time>2026-04-30T15:03:59.73Z</time></trkpt><trkpt lat="40.052085" lon="8.54192"><ele>155.0</ele><time>2026-04-30T15:04:00.731Z</time></trkpt><trkpt lat="40.0520633" lon="8.5418133"><ele>155.0</ele><time>2026-04-30T15:04:01.736Z</time></trkpt><trkpt lat="40.0520467" lon="8.5417167"><ele>153.66666666666666</ele><time>2026-04-30T15:04:02.778Z</time></trkpt><trkpt lat="40.05204" lon="8.5416217"><ele>152.33333333333331</ele><time>2026-04-30T15:04:03.73Z</time></trkpt><trkpt lat="40.052045" lon="8.5415233"><ele>151.0</ele><time>2026-04-30T15:04:04.729Z</time></trkpt><trkpt lat="40.05206" lon="8.5414217"><ele>149.66666666666666</ele><time>2026-04-30T15:04:05.732Z</time></trkpt><trkpt lat="40.0520867" lon="8.541315"><ele>148.33333333333334</ele><time>2026-04-30T15:04:06.733Z</time></trkpt><trkpt lat="40.0521233" lon="8.5412167"><ele>147.0</ele><time>2026-04-30T15:04:07.727Z</time></trkpt><trkpt lat="40.0521567" lon="8.5411233"><ele>145.33333333333334</ele><time>2026-04-30T15:04:08.779Z</time></trkpt><trkpt lat="40.0521917" lon="8.54104"><ele>143.66666666666666</ele><time>2026-04-30T15:04:09.73Z</time></trkpt><trkpt lat="40.05221" lon="8.5409033"><ele>142.0</ele><time>2026-04-30T15:04:11.729Z</time></trkpt><trkpt lat="40.052195" lon="8.540755"><ele>140.33333333333331</ele><time>2026-04-30T15:04:13.731Z</time></trkpt><trkpt lat="40.0521817" lon="8.5406633"><ele>138.66666666666666</ele><time>2026-04-30T15:04:14.785Z</time></trkpt><trkpt lat="40.05217" lon="8.54056"><ele>137.0</ele><time>2026-04-30T15:04:15.729Z</time></trkpt><trkpt lat="40.0521617" lon="8.540445"><ele>135.75</ele><time>2026-04-30T15:04:16.731Z</time></trkpt><trkpt lat="40.052145" lon="8.540325"><ele>134.5</ele><time>2026-04-30T15:04:17.727Z</time></trkpt><trkpt lat="40.0521117" lon="8.5401667"><ele>133.25</ele><time>2026-04-30T15:04:18.727Z</time></trkpt><trkpt lat="40.05211" lon="8.54001"><ele>132.0</ele><time>2026-04-30T15:04:19.731Z</time></trkpt><trkpt lat="40.0521133" lon="8.539855"><ele>132.0</ele><time>2026-04-30T15:04:20.783Z</time></trkpt><trkpt lat="40.0521167" lon="8.5396983"><ele>132.0</ele><time>2026-04-30T15:04:21.727Z</time></trkpt><trkpt lat="40.0521283" lon="8.5395483"><ele>132.0</ele><time>2026-04-30T15:04:22.73Z</time></trkpt><trkpt lat="40.0521417" lon="8.5394033"><ele>132.0</ele><time>2026-04-30T15:04:23.732Z</time></trkpt><trkpt lat="40.052155" lon="8.5392583"><ele>131.4</ele><time>2026-04-30T15:04:24.73Z</time></trkpt><trkpt lat="40.0521667" lon="8.539115"><ele>130.79999999999998</ele><time>2026-04-30T15:04:25.728Z</time></trkpt><trkpt lat="40.052175" lon="8.538985"><ele>130.2</ele><time>2026-04-30T15:04:26.783Z</time></trkpt><trkpt lat="40.0521683" lon="8.5388617"><ele>129.6</ele><time>2026-04-30T15:04:27.726Z</time></trkpt><trkpt lat="40.0521467" lon="8.53874"><ele>129.0</ele><time>2026-04-30T15:04:28.725Z</time></trkpt><trkpt lat="40.0521083" lon="8.5386283"><ele>129.0</ele><time>2026-04-30T15:04:29.733Z</time></trkpt><trkpt lat="40.0520483" lon="8.538515"><ele>129.0</ele><time>2026-04-30T15:04:30.732Z</time></trkpt><trkpt lat="40.0519817" lon="8.5384017"><ele>129.0</ele><time>2026-04-30T15:04:31.73Z</time></trkpt><trkpt lat="40.051915" lon="8.5382967"><ele>129.0</ele><time>2026-04-30T15:04:32.783Z</time></trkpt><trkpt lat="40.051845" lon="8.5382033"><ele>129.0</ele><time>2026-04-30T15:04:33.729Z</time></trkpt><trkpt lat="40.0517733" lon="8.53812"><ele>129.0</ele><time>2026-04-30T15:04:34.729Z</time></trkpt><trkpt lat="40.0517033" lon="8.5380417"><ele>129.0</ele><time>2026-04-30T15:04:35.728Z</time></trkpt><trkpt lat="40.05163" lon="8.5379617"><ele>129.0</ele><time>2026-04-30T15:04:36.729Z</time></trkpt><trkpt lat="40.05156" lon="8.5378783"><ele>129.0</ele><time>2026-04-30T15:04:37.729Z</time></trkpt><trkpt lat="40.05149" lon="8.5377917"><ele>129.0</ele><time>2026-04-30T15:04:38.783Z</time></trkpt><trkpt lat="40.051415" lon="8.5377"><ele>128.6</ele><time>2026-04-30T15:04:39.732Z</time></trkpt><trkpt lat="40.051335" lon="8.5376117"><ele>128.2</ele><time>2026-04-30T15:04:40.732Z</time></trkpt><trkpt lat="40.0512517" lon="8.5375317"><ele>127.79999999999998</ele><time>2026-04-30T15:04:41.727Z</time></trkpt><trkpt lat="40.0511717" lon="8.537465"><ele>127.39999999999999</ele><time>2026-04-30T15:04:42.731Z</time></trkpt><trkpt lat="40.0510983" lon="8.5374067"><ele>127.0</ele><time>2026-04-30T15:04:43.732Z</time></trkpt><trkpt lat="40.0510317" lon="8.5373533"><ele>127.0</ele><time>2026-04-30T15:04:44.784Z</time></trkpt><trkpt lat="40.0509667" lon="8.5373133"><ele>126.99999999999999</ele><time>2026-04-30T15:04:45.727Z</time></trkpt><trkpt lat="40.0509067" lon="8.53728"><ele>126.99999999999999</ele><time>2026-04-30T15:04:46.73Z</time></trkpt><trkpt lat="40.0508" lon="8.5372133"><ele>127.0</ele><time>2026-04-30T15:04:48.731Z</time></trkpt><trkpt lat="40.0507283" lon="8.5371133"><ele>127.0</ele><time>2026-04-30T15:04:50.78Z</time></trkpt><trkpt lat="40.0506733" lon="8.5369683"><ele>127.39999999999999</ele><time>2026-04-30T15:04:52.728Z</time></trkpt><trkpt lat="40.0506533" lon="8.53687"><ele>127.79999999999998</ele><time>2026-04-30T15:04:53.731Z</time></trkpt><trkpt lat="40.0506383" lon="8.53675"><ele>128.2</ele><time>2026-04-30T15:04:54.732Z</time></trkpt><trkpt lat="40.0506167" lon="8.5366167"><ele>128.6</ele><time>2026-04-30T15:04:55.731Z</time></trkpt><trkpt lat="40.0505833" lon="8.5364867"><ele>129.0</ele><time>2026-04-30T15:04:56.792Z</time></trkpt><trkpt lat="40.0505433" lon="8.5363583"><ele>126.0</ele><time>2026-04-30T15:04:57.734Z</time></trkpt><trkpt lat="40.050505" lon="8.53621"><ele>123.0</ele><time>2026-04-30T15:04:58.73Z</time></trkpt><trkpt lat="40.0504367" lon="8.5360717"><ele>120.0</ele><time>2026-04-30T15:04:59.73Z</time></trkpt><trkpt lat="40.050365" lon="8.5359533"><ele>117.0</ele><time>2026-04-30T15:05:00.73Z</time></trkpt><trkpt lat="40.0502933" lon="8.5358317"><ele>117.0</ele><time>2026-04-30T15:05:01.731Z</time></trkpt><trkpt lat="40.0502233" lon="8.5357183"><ele>117.0</ele><time>2026-04-30T15:05:02.782Z</time></trkpt><trkpt lat="40.0501533" lon="8.5355883"><ele>117.0</ele><time>2026-04-30T15:05:03.732Z</time></trkpt><trkpt lat="40.0500917" lon="8.53545"><ele>117.0</ele><time>2026-04-30T15:05:04.731Z</time></trkpt><trkpt lat="40.0500317" lon="8.5353133"><ele>117.0</ele><time>2026-04-30T15:05:05.732Z</time></trkpt><trkpt lat="40.0499867" lon="8.535175"><ele>117.0</ele><time>2026-04-30T15:05:06.73Z</time></trkpt><trkpt lat="40.049945" lon="8.5350333"><ele>117.0</ele><time>2026-04-30T15:05:07.73Z</time></trkpt><trkpt lat="40.0499067" lon="8.5349033"><ele>117.0</ele><time>2026-04-30T15:05:08.784Z</time></trkpt><trkpt lat="40.049875" lon="8.5347417"><ele>117.5</ele><time>2026-04-30T15:05:09.731Z</time></trkpt><trkpt lat="40.0498383" lon="8.534595"><ele>118.0</ele><time>2026-04-30T15:05:10.732Z</time></trkpt><trkpt lat="40.0498233" lon="8.5344333"><ele>118.5</ele><time>2026-04-30T15:05:11.731Z</time></trkpt><trkpt lat="40.0498133" lon="8.5342683"><ele>119.0</ele><time>2026-04-30T15:05:12.731Z</time></trkpt><trkpt lat="40.0498317" lon="8.534105"><ele>117.75</ele><time>2026-04-30T15:05:13.731Z</time></trkpt><trkpt lat="40.0498367" lon="8.533915"><ele>116.5</ele><time>2026-04-30T15:05:14.784Z</time></trkpt><trkpt lat="40.0498233" lon="8.5337383"><ele>115.25</ele><time>2026-04-30T15:05:15.732Z</time></trkpt><trkpt lat="40.049805" lon="8.5335717"><ele>114.0</ele><time>2026-04-30T15:05:16.73Z</time></trkpt><trkpt lat="40.0497867" lon="8.5334067"><ele>113.4</ele><time>2026-04-30T15:05:17.733Z</time></trkpt><trkpt lat="40.04978" lon="8.5332617"><ele>112.80000000000001</ele><time>2026-04-30T15:05:18.732Z</time></trkpt><trkpt lat="40.0497883" lon="8.53313"><ele>112.19999999999999</ele><time>2026-04-30T15:05:19.729Z</time></trkpt><trkpt lat="40.0497717" lon="8.53301"><ele>111.6</ele><time>2026-04-30T15:05:20.785Z</time></trkpt><trkpt lat="40.0497417" lon="8.5328983"><ele>111.0</ele><time>2026-04-30T15:05:21.73Z</time></trkpt><trkpt lat="40.049705" lon="8.5327933"><ele>110.0</ele><time>2026-04-30T15:05:22.729Z</time></trkpt><trkpt lat="40.0496567" lon="8.5326717"><ele>109.0</ele><time>2026-04-30T15:05:23.732Z</time></trkpt><trkpt lat="40.04962" lon="8.53255"><ele>108.0</ele><time>2026-04-30T15:05:24.731Z</time></trkpt><trkpt lat="40.04958" lon="8.5324317"><ele>107.0</ele><time>2026-04-30T15:05:25.729Z</time></trkpt><trkpt lat="40.0495417" lon="8.5323167"><ele>106.0</ele><time>2026-04-30T15:05:26.784Z</time></trkpt><trkpt lat="40.0495017" lon="8.5322033"><ele>106.0</ele><time>2026-04-30T15:05:27.731Z</time></trkpt><trkpt lat="40.04945" lon="8.5320967"><ele>106.0</ele><time>2026-04-30T15:05:28.733Z</time></trkpt><trkpt lat="40.0493867" lon="8.5320117"><ele>106.0</ele><time>2026-04-30T15:05:29.731Z</time></trkpt><trkpt lat="40.04931" lon="8.531915"><ele>106.0</ele><time>2026-04-30T15:05:30.73Z</time></trkpt><trkpt lat="40.04922" lon="8.5318233"><ele>106.0</ele><time>2026-04-30T15:05:31.727Z</time></trkpt><trkpt lat="40.0491183" lon="8.5317317"><ele>104.5</ele><time>2026-04-30T15:05:32.79Z</time></trkpt><trkpt lat="40.0490317" lon="8.5316167"><ele>103.0</ele><time>2026-04-30T15:05:33.731Z</time></trkpt><trkpt lat="40.048925" lon="8.5315233"><ele>101.5</ele><time>2026-04-30T15:05:34.728Z</time></trkpt><trkpt lat="40.0488083" lon="8.5314417"><ele>100.0</ele><time>2026-04-30T15:05:35.735Z</time></trkpt><trkpt lat="40.0486833" lon="8.53135"><ele>100.0</ele><time>2026-04-30T15:05:36.727Z</time></trkpt><trkpt lat="40.0485617" lon="8.53124"><ele>100.0</ele><time>2026-04-30T15:05:37.732Z</time></trkpt><trkpt lat="40.0484417" lon="8.5311533"><ele>100.0</ele><time>2026-04-30T15:05:38.792Z</time></trkpt><trkpt lat="40.0483167" lon="8.5310667"><ele>100.0</ele><time>2026-04-30T15:05:39.726Z</time></trkpt><trkpt lat="40.048195" lon="8.5309933"><ele>119.0</ele><time>2026-04-30T15:05:40.732Z</time></trkpt><trkpt lat="40.049875" lon="8.5347417"><ele>119.0</ele><time>2026-04-30T15:05:09.731Z</time></trkpt><trkpt lat="40.0498383" lon="8.534595"><ele>119.0</ele><time>2026-04-30T15:05:10.732Z</time></trkpt><trkpt lat="40.0498233" lon="8.5344333"><ele>119.0</ele><time>2026-04-30T15:05:11.731Z</time></trkpt><trkpt lat="40.0498133" lon="8.5342683"><ele>119.0</ele><time>2026-04-30T15:05:12.731Z</time></trkpt><trkpt lat="40.0498317" lon="8.534105"><ele>117.75</ele><time>2026-04-30T15:05:13.731Z</time></trkpt><trkpt lat="40.0498367" lon="8.533915"><ele>116.5</ele><time>2026-04-30T15:05:14.784Z</time></trkpt><trkpt lat="40.0498233" lon="8.5337383"><ele>115.25</ele><time>2026-04-30T15:05:15.732Z</time></trkpt><trkpt lat="40.049805" lon="8.5335717"><ele>114.0</ele><time>2026-04-30T15:05:16.73Z</time></trkpt><trkpt lat="40.0497867" lon="8.5334067"><ele>113.4</ele><time>2026-04-30T15:05:17.733Z</time></trkpt><trkpt lat="40.04978" lon="8.5332617"><ele>112.80000000000001</ele><time>2026-04-30T15:05:18.732Z</time></trkpt><trkpt lat="40.0497883" lon="8.53313"><ele>112.19999999999999</ele><time>2026-04-30T15:05:19.729Z</time></trkpt><trkpt lat="40.0497717" lon="8.53301"><ele>111.6</ele><time>2026-04-30T15:05:20.785Z</time></trkpt><trkpt lat="40.0497417" lon="8.5328983"><ele>111.0</ele><time>2026-04-30T15:05:21.73Z</time></trkpt><trkpt lat="40.049705" lon="8.5327933"><ele>110.0</ele><time>2026-04-30T15:05:22.729Z</time></trkpt><trkpt lat="40.0496567" lon="8.5326717"><ele>109.0</ele><time>2026-04-30T15:05:23.732Z</time></trkpt><trkpt lat="40.04962" lon="8.53255"><ele>108.0</ele><time>2026-04-30T15:05:24.731Z</time></trkpt><trkpt lat="40.04958" lon="8.5324317"><ele>107.0</ele><time>2026-04-30T15:05:25.729Z</time></trkpt><trkpt lat="40.0495417" lon="8.5323167"><ele>106.0</ele><time>2026-04-30T15:05:26.784Z</time></trkpt><trkpt lat="40.0495017" lon="8.5322033"><ele>106.0</ele><time>2026-04-30T15:05:27.731Z</time></trkpt><trkpt lat="40.04945" lon="8.5320967"><ele>106.0</ele><time>2026-04-30T15:05:28.733Z</time></trkpt><trkpt lat="40.0493867" lon="8.5320117"><ele>106.0</ele><time>2026-04-30T15:05:29.731Z</time></trkpt><trkpt lat="40.04931" lon="8.531915"><ele>106.0</ele><time>2026-04-30T15:05:30.73Z</time></trkpt><trkpt lat="40.04922" lon="8.5318233"><ele>106.0</ele><time>2026-04-30T15:05:31.727Z</time></trkpt><trkpt lat="40.0491183" lon="8.5317317"><ele>104.5</ele><time>2026-04-30T15:05:32.79Z</time></trkpt><trkpt lat="40.0490317" lon="8.5316167"><ele>103.0</ele><time>2026-04-30T15:05:33.731Z</time></trkpt><trkpt lat="40.048925" lon="8.5315233"><ele>101.5</ele><time>2026-04-30T15:05:34.728Z</time></trkpt><trkpt lat="40.0488083" lon="8.5314417"><ele>100.0</ele><time>2026-04-30T15:05:35.735Z</time></trkpt><trkpt lat="40.0486833" lon="8.53135"><ele>100.0</ele><time>2026-04-30T15:05:36.727Z</time></trkpt><trkpt lat="40.0485617" lon="8.53124"><ele>100.0</ele><time>2026-04-30T15:05:37.732Z</time></trkpt><trkpt lat="40.0484417" lon="8.5311533"><ele>100.0</ele><time>2026-04-30T15:05:38.792Z</time></trkpt><trkpt lat="40.0483167" lon="8.5310667"><ele>100.0</ele><time>2026-04-30T15:05:39.726Z</time></trkpt><trkpt lat="40.048195" lon="8.5309933"><ele>99.6</ele><time>2026-04-30T15:05:40.732Z</time></trkpt><trkpt lat="40.0480867" lon="8.530915"><ele>99.2</ele><time>2026-04-30T15:05:41.731Z</time></trkpt><trkpt lat="40.0479833" lon="8.5308483"><ele>98.80000000000001</ele><time>2026-04-30T15:05:42.727Z</time></trkpt><trkpt lat="40.04788" lon="8.5307983"><ele>98.4</ele><time>2026-04-30T15:05:43.731Z</time></trkpt><trkpt lat="40.0477967" lon="8.5307333"><ele>98.0</ele><time>2026-04-30T15:05:44.785Z</time></trkpt><trkpt lat="40.0477167" lon="8.5306733"><ele>98.0</ele><time>2026-04-30T15:05:45.728Z</time></trkpt><trkpt lat="40.04765" lon="8.5306183"><ele>98.0</ele><time>2026-04-30T15:05:46.729Z</time></trkpt><trkpt lat="40.0475933" lon="8.530555"><ele>98.0</ele><time>2026-04-30T15:05:47.732Z</time></trkpt><trkpt lat="40.047545" lon="8.5304933"><ele>98.0</ele><time>2026-04-30T15:05:48.729Z</time></trkpt><trkpt lat="40.0474933" lon="8.5304383"><ele>98.0</ele><time>2026-04-30T15:05:49.732Z</time></trkpt><trkpt lat="40.0474367" lon="8.53039"><ele>98.0</ele><time>2026-04-30T15:05:50.785Z</time></trkpt><trkpt lat="40.0473767" lon="8.5303467"><ele>98.0</ele><time>2026-04-30T15:05:51.728Z</time></trkpt><trkpt lat="40.047305" lon="8.530305"><ele>97.60000000000001</ele><time>2026-04-30T15:05:52.73Z</time></trkpt><trkpt lat="40.047225" lon="8.530265"><ele>97.2</ele><time>2026-04-30T15:05:53.732Z</time></trkpt><trkpt lat="40.0471417" lon="8.53022"><ele>96.8</ele><time>2026-04-30T15:05:54.728Z</time></trkpt><trkpt lat="40.047035" lon="8.5301967"><ele>96.4</ele><time>2026-04-30T15:05:55.727Z</time></trkpt><trkpt lat="40.0469033" lon="8.530125"><ele>96.0</ele><time>2026-04-30T15:05:56.784Z</time></trkpt><trkpt lat="40.0467867" lon="8.5300367"><ele>96.0</ele><time>2026-04-30T15:05:57.728Z</time></trkpt><trkpt lat="40.04668" lon="8.5299717"><ele>96.0</ele><time>2026-04-30T15:05:58.731Z</time></trkpt><trkpt lat="40.0465717" lon="8.529885"><ele>96.0</ele><time>2026-04-30T15:05:59.732Z</time></trkpt><trkpt lat="40.04647" lon="8.529825"><ele>96.0</ele><time>2026-04-30T15:06:00.735Z</time></trkpt><trkpt lat="40.0463883" lon="8.52976"><ele>95.33333333333333</ele><time>2026-04-30T15:06:01.726Z</time></trkpt><trkpt lat="40.046305" lon="8.5296883"><ele>94.66666666666667</ele><time>2026-04-30T15:06:02.784Z</time></trkpt><trkpt lat="40.0462267" lon="8.5296117"><ele>94.0</ele><time>2026-04-30T15:06:03.732Z</time></trkpt><trkpt lat="40.0461767" lon="8.5295533"><ele>93.33333333333334</ele><time>2026-04-30T15:06:04.727Z</time></trkpt><trkpt lat="40.0461033" lon="8.5294417"><ele>92.66666666666667</ele><time>2026-04-30T15:06:06.733Z</time></trkpt><trkpt lat="40.0460567" lon="8.529375"><ele>92.0</ele><time>2026-04-30T15:06:08.785Z</time></trkpt><trkpt lat="40.0460217" lon="8.5292883"><ele>92.0</ele><time>2026-04-30T15:06:11.731Z</time></trkpt><trkpt lat="40.0459883" lon="8.5292067"><ele>92.0</ele><time>2026-04-30T15:06:13.724Z</time></trkpt><trkpt lat="40.04595" lon="8.5291267"><ele>92.0</ele><time>2026-04-30T15:06:16.729Z</time></trkpt><trkpt lat="40.045895" lon="8.5289333"><ele>92.0</ele><time>2026-04-30T15:06:27.728Z</time></trkpt><trkpt lat="40.0458733" lon="8.52885"><ele>92.0</ele><time>2026-04-30T15:06:28.729Z</time></trkpt><trkpt lat="40.0458533" lon="8.52874"><ele>91.83333333333334</ele><time>2026-04-30T15:06:29.729Z</time></trkpt><trkpt lat="40.0458317" lon="8.528625"><ele>91.66666666666667</ele><time>2026-04-30T15:06:30.729Z</time></trkpt><trkpt lat="40.0458033" lon="8.5285167"><ele>91.5</ele><time>2026-04-30T15:06:31.729Z</time></trkpt><trkpt lat="40.0457717" lon="8.5284133"><ele>91.33333333333333</ele><time>2026-04-30T15:06:32.778Z</time></trkpt><trkpt lat="40.0457267" lon="8.52832"><ele>91.16666666666666</ele><time>2026-04-30T15:06:33.731Z</time></trkpt><trkpt lat="40.0456733" lon="8.5282233"><ele>91.0</ele><time>2026-04-30T15:06:34.729Z</time></trkpt><trkpt lat="40.0456133" lon="8.5281283"><ele>90.6</ele><time>2026-04-30T15:06:35.73Z</time></trkpt><trkpt lat="40.045545" lon="8.5280267"><ele>90.19999999999999</ele><time>2026-04-30T15:06:36.729Z</time></trkpt><trkpt lat="40.0454783" lon="8.52793"><ele>89.80000000000001</ele><time>2026-04-30T15:06:37.728Z</time></trkpt><trkpt lat="40.0454083" lon="8.5278267"><ele>89.4</ele><time>2026-04-30T15:06:38.784Z</time></trkpt><trkpt lat="40.0453383" lon="8.52771"><ele>89.0</ele><time>2026-04-30T15:06:39.726Z</time></trkpt><trkpt lat="40.04527" lon="8.52758"><ele>89.0</ele><time>2026-04-30T15:06:40.729Z</time></trkpt><trkpt lat="40.0452033" lon="8.5274417"><ele>89.0</ele><time>2026-04-30T15:06:41.73Z</time></trkpt><trkpt lat="40.0451317" lon="8.5272717"><ele>89.0</ele><time>2026-04-30T15:06:42.727Z</time></trkpt><trkpt lat="40.0450483" lon="8.527125"><ele>89.0</ele><time>2026-04-30T15:06:43.729Z</time></trkpt><trkpt lat="40.045" lon="8.52701"><ele>88.4</ele><time>2026-04-30T15:06:44.782Z</time></trkpt><trkpt lat="40.044965" lon="8.5268967"><ele>87.80000000000001</ele><time>2026-04-30T15:06:45.731Z</time></trkpt><trkpt lat="40.0449217" lon="8.526765"><ele>87.19999999999999</ele><time>2026-04-30T15:06:46.729Z</time></trkpt><trkpt lat="40.0448933" lon="8.5266383"><ele>86.6</ele><time>2026-04-30T15:06:47.73Z</time></trkpt><trkpt lat="40.0448683" lon="8.5265117"><ele>86.0</ele><time>2026-04-30T15:06:48.732Z</time></trkpt><trkpt lat="40.0448367" lon="8.5263817"><ele>85.8</ele><time>2026-04-30T15:06:49.729Z</time></trkpt><trkpt lat="40.0448133" lon="8.5262517"><ele>85.6</ele><time>2026-04-30T15:06:50.789Z</time></trkpt><trkpt lat="40.044795" lon="8.5261183"><ele>85.4</ele><time>2026-04-30T15:06:51.739Z</time></trkpt><trkpt lat="40.044775" lon="8.5259933"><ele>85.2</ele><time>2026-04-30T15:06:52.729Z</time></trkpt><trkpt lat="40.04475" lon="8.525875"><ele>85.0</ele><time>2026-04-30T15:06:53.731Z</time></trkpt><trkpt lat="40.044725" lon="8.5257633"><ele>85.0</ele><time>2026-04-30T15:06:54.729Z</time></trkpt><trkpt lat="40.0447067" lon="8.525655"><ele>85.0</ele><time>2026-04-30T15:06:55.73Z</time></trkpt><trkpt lat="40.0446933" lon="8.5255583"><ele>85.0</ele><time>2026-04-30T15:06:56.791Z</time></trkpt><trkpt lat="40.0446767" lon="8.52547"><ele>85.0</ele><time>2026-04-30T15:06:57.733Z</time></trkpt><trkpt lat="40.0446483" lon="8.5253883"><ele>85.0</ele><time>2026-04-30T15:06:58.728Z</time></trkpt><trkpt lat="40.0446017" lon="8.5253033"><ele>85.0</ele><time>2026-04-30T15:06:59.728Z</time></trkpt><trkpt lat="40.0445333" lon="8.52522"><ele>84.75</ele><time>2026-04-30T15:07:00.731Z</time></trkpt><trkpt lat="40.0444583" lon="8.5251217"><ele>84.5</ele><time>2026-04-30T15:07:01.728Z</time></trkpt><trkpt lat="40.044355" lon="8.5250183"><ele>84.25</ele><time>2026-04-30T15:07:02.787Z</time></trkpt><trkpt lat="40.0442467" lon="8.5249133"><ele>84.0</ele><time>2026-04-30T15:07:03.732Z</time></trkpt><trkpt lat="40.0441333" lon="8.5248267"><ele>84.25</ele><time>2026-04-30T15:07:04.729Z</time></trkpt><trkpt lat="40.044015" lon="8.5247267"><ele>84.5</ele><time>2026-04-30T15:07:05.731Z</time></trkpt><trkpt lat="40.0438967" lon="8.5246567"><ele>84.75</ele><time>2026-04-30T15:07:06.733Z</time></trkpt><trkpt lat="40.0437683" lon="8.52459"><ele>85.0</ele><time>2026-04-30T15:07:07.729Z</time></trkpt><trkpt lat="40.043645" lon="8.52455"><ele>85.0</ele><time>2026-04-30T15:07:08.782Z</time></trkpt><trkpt lat="40.0434967" lon="8.5245217"><ele>85.0</ele><time>2026-04-30T15:07:09.726Z</time></trkpt><trkpt lat="40.0433417" lon="8.5245083"><ele>85.0</ele><time>2026-04-30T15:07:10.73Z</time></trkpt><trkpt lat="40.0432" lon="8.5245017"><ele>85.0</ele><time>2026-04-30T15:07:11.729Z</time></trkpt><trkpt lat="40.0430617" lon="8.5244817"><ele>84.5</ele><time>2026-04-30T15:07:12.725Z</time></trkpt><trkpt lat="40.0429383" lon="8.5244483"><ele>84.0</ele><time>2026-04-30T15:07:13.729Z</time></trkpt><trkpt lat="40.0428133" lon="8.5244217"><ele>83.5</ele><time>2026-04-30T15:07:14.782Z</time></trkpt><trkpt lat="40.0427017" lon="8.5243833"><ele>83.0</ele><time>2026-04-30T15:07:15.726Z</time></trkpt><trkpt lat="40.0425783" lon="8.5243517"><ele>81.75</ele><time>2026-04-30T15:07:16.725Z</time></trkpt><trkpt lat="40.04246" lon="8.5243117"><ele>80.5</ele><time>2026-04-30T15:07:17.73Z</time></trkpt><trkpt lat="40.0423367" lon="8.5242583"><ele>79.25</ele><time>2026-04-30T15:07:18.734Z</time></trkpt><trkpt lat="40.0422117" lon="8.524205"><ele>78.0</ele><time>2026-04-30T15:07:19.728Z</time></trkpt><trkpt lat="40.0420783" lon="8.524185"><ele>78.0</ele><time>2026-04-30T15:07:20.783Z</time></trkpt><trkpt lat="40.041965" lon="8.5241317"><ele>78.0</ele><time>2026-04-30T15:07:21.729Z</time></trkpt><trkpt lat="40.0418417" lon="8.5240967"><ele>78.0</ele><time>2026-04-30T15:07:22.728Z</time></trkpt><trkpt lat="40.0417183" lon="8.5240683"><ele>78.0</ele><time>2026-04-30T15:07:23.729Z</time></trkpt><trkpt lat="40.0415983" lon="8.5240467"><ele>77.25</ele><time>2026-04-30T15:07:24.728Z</time></trkpt><trkpt lat="40.04147" lon="8.524035"><ele>76.5</ele><time>2026-04-30T15:07:25.729Z</time></trkpt><trkpt lat="40.0413383" lon="8.5240267"><ele>75.75</ele><time>2026-04-30T15:07:26.794Z</time></trkpt><trkpt lat="40.0412267" lon="8.523995"><ele>75.0</ele><time>2026-04-30T15:07:27.732Z</time></trkpt><trkpt lat="40.0411067" lon="8.523995"><ele>75.0</ele><time>2026-04-30T15:07:28.728Z</time></trkpt><trkpt lat="40.0409633" lon="8.5239933"><ele>75.0</ele><time>2026-04-30T15:07:29.73Z</time></trkpt><trkpt lat="40.040825" lon="8.5240183"><ele>75.0</ele><time>2026-04-30T15:07:30.725Z</time></trkpt><trkpt lat="40.0406783" lon="8.524035"><ele>75.0</ele><time>2026-04-30T15:07:31.728Z</time></trkpt><trkpt lat="40.0405433" lon="8.524045"><ele>74.0</ele><time>2026-04-30T15:07:32.766Z</time></trkpt><trkpt lat="40.0403933" lon="8.5240683"><ele>73.0</ele><time>2026-04-30T15:07:33.731Z</time></trkpt><trkpt lat="40.0402333" lon="8.524095"><ele>72.0</ele><time>2026-04-30T15:07:34.73Z</time></trkpt><trkpt lat="40.0400717" lon="8.5241217"><ele>71.5</ele><time>2026-04-30T15:07:35.732Z</time></trkpt><trkpt lat="40.0399117" lon="8.5241483"><ele>71.0</ele><time>2026-04-30T15:07:36.73Z</time></trkpt><trkpt lat="40.03977" lon="8.5241667"><ele>70.5</ele><time>2026-04-30T15:07:37.732Z</time></trkpt><trkpt lat="40.0396533" lon="8.5241717"><ele>70.0</ele><time>2026-04-30T15:07:38.782Z</time></trkpt><trkpt lat="40.039535" lon="8.5241817"><ele>70.0</ele><time>2026-04-30T15:07:39.728Z</time></trkpt><trkpt lat="40.039395" lon="8.52416"><ele>70.0</ele><time>2026-04-30T15:07:40.725Z</time></trkpt><trkpt lat="40.0392717" lon="8.5241433"><ele>70.0</ele><time>2026-04-30T15:07:41.729Z</time></trkpt><trkpt lat="40.0391467" lon="8.5241233"><ele>70.0</ele><time>2026-04-30T15:07:42.728Z</time></trkpt><trkpt lat="40.0390233" lon="8.5240933"><ele>69.6</ele><time>2026-04-30T15:07:43.727Z</time></trkpt><trkpt lat="40.0389067" lon="8.5240767"><ele>69.2</ele><time>2026-04-30T15:07:44.782Z</time></trkpt><trkpt lat="40.0387917" lon="8.5240433"><ele>68.8</ele><time>2026-04-30T15:07:45.728Z</time></trkpt><trkpt lat="40.0386917" lon="8.5240133"><ele>68.4</ele><time>2026-04-30T15:07:46.73Z</time></trkpt><trkpt lat="40.0386033" lon="8.523985"><ele>68.0</ele><time>2026-04-30T15:07:47.725Z</time></trkpt><trkpt lat="40.0385133" lon="8.5239767"><ele>68.0</ele><time>2026-04-30T15:07:48.726Z</time></trkpt><trkpt lat="40.03844" lon="8.52397"><ele>68.0</ele><time>2026-04-30T15:07:49.728Z</time></trkpt><trkpt lat="40.0383633" lon="8.5239667"><ele>68.0</ele><time>2026-04-30T15:07:50.782Z</time></trkpt><trkpt lat="40.0382883" lon="8.5239617"><ele>68.0</ele><time>2026-04-30T15:07:51.73Z</time></trkpt><trkpt lat="40.0382217" lon="8.5239617"><ele>68.0</ele><time>2026-04-30T15:07:52.728Z</time></trkpt><trkpt lat="40.0381083" lon="8.5239667"><ele>68.0</ele><time>2026-04-30T15:07:54.736Z</time></trkpt><trkpt lat="40.0380167" lon="8.5239683"><ele>67.6</ele><time>2026-04-30T15:07:56.814Z</time></trkpt><trkpt lat="40.037935" lon="8.5239683"><ele>67.19999999999999</ele><time>2026-04-30T15:07:59.73Z</time></trkpt><trkpt lat="40.0378533" lon="8.5239483"><ele>66.8</ele><time>2026-04-30T15:08:06.729Z</time></trkpt><trkpt lat="40.0377217" lon="8.52391"><ele>66.39999999999999</ele><time>2026-04-30T15:08:08.783Z</time></trkpt><trkpt lat="40.03763" lon="8.523875"><ele>66.0</ele><time>2026-04-30T15:08:09.726Z</time></trkpt><trkpt lat="40.0375267" lon="8.5238367"><ele>66.0</ele><time>2026-04-30T15:08:10.729Z</time></trkpt><trkpt lat="40.0374" lon="8.5237833"><ele>66.0</ele><time>2026-04-30T15:08:11.732Z</time></trkpt><trkpt lat="40.03727" lon="8.523725"><ele>66.0</ele><time>2026-04-30T15:08:12.728Z</time></trkpt><trkpt lat="40.0371633" lon="8.5236817"><ele>66.0</ele><time>2026-04-30T15:08:13.73Z</time></trkpt><trkpt lat="40.0370417" lon="8.5236333"><ele>66.6</ele><time>2026-04-30T15:08:14.782Z</time></trkpt><trkpt lat="40.03695" lon="8.5236"><ele>67.19999999999999</ele><time>2026-04-30T15:08:15.73Z</time></trkpt><trkpt lat="40.0368367" lon="8.5235483"><ele>67.80000000000001</ele><time>2026-04-30T15:08:16.728Z</time></trkpt><trkpt lat="40.036735" lon="8.5234633"><ele>68.4</ele><time>2026-04-30T15:08:17.729Z</time></trkpt><trkpt lat="40.0366333" lon="8.5233983"><ele>69.0</ele><time>2026-04-30T15:08:18.729Z</time></trkpt><trkpt lat="40.0365283" lon="8.5233383"><ele>69.0</ele><time>2026-04-30T15:08:19.731Z</time></trkpt><trkpt lat="40.0364267" lon="8.5233033"><ele>69.0</ele><time>2026-04-30T15:08:20.785Z</time></trkpt><trkpt lat="40.0363333" lon="8.5232267"><ele>69.0</ele><time>2026-04-30T15:08:22.736Z</time></trkpt><trkpt lat="40.0362367" lon="8.523185"><ele>69.0</ele><time>2026-04-30T15:08:24.726Z</time></trkpt><trkpt lat="40.036155" lon="8.5231783"><ele>69.0</ele><time>2026-04-30T15:08:26.771Z</time></trkpt><trkpt lat="40.0360483" lon="8.5231917"><ele>69.0</ele><time>2026-04-30T15:08:28.73Z</time></trkpt><trkpt lat="40.0359617" lon="8.5232283"><ele>69.0</ele><time>2026-04-30T15:08:30.729Z</time></trkpt><trkpt lat="40.0358933" lon="8.5232383"><ele>69.0</ele><time>2026-04-30T15:08:32.788Z</time></trkpt><trkpt lat="40.0358733" lon="8.523145"><ele>69.0</ele><time>2026-04-30T15:08:36.73Z</time></trkpt><trkpt lat="40.03594" lon="8.5230367"><ele>69.0</ele><time>2026-04-30T15:08:38.783Z</time></trkpt><trkpt lat="40.0359833" lon="8.5229617"><ele>69.0</ele><time>2026-04-30T15:08:39.732Z</time></trkpt><trkpt lat="40.0360217" lon="8.522885"><ele>68.8</ele><time>2026-04-30T15:08:40.727Z</time></trkpt><trkpt lat="40.0360867" lon="8.5227783"><ele>68.60000000000001</ele><time>2026-04-30T15:08:41.727Z</time></trkpt><trkpt lat="40.0361467" lon="8.52269"><ele>68.4</ele><time>2026-04-30T15:08:42.728Z</time></trkpt><trkpt lat="40.0362417" lon="8.52259"><ele>68.2</ele><time>2026-04-30T15:08:43.728Z</time></trkpt><trkpt lat="40.0363367" lon="8.5225017"><ele>68.0</ele><time>2026-04-30T15:08:44.786Z</time></trkpt><trkpt lat="40.036415" lon="8.52243"><ele>68.0</ele><time>2026-04-30T15:08:45.726Z</time></trkpt><trkpt lat="40.0364933" lon="8.5223567"><ele>68.0</ele><time>2026-04-30T15:08:46.73Z</time></trkpt><trkpt lat="40.0365667" lon="8.5222967"><ele>68.0</ele><time>2026-04-30T15:08:47.726Z</time></trkpt><trkpt lat="40.03664" lon="8.522235"><ele>68.0</ele><time>2026-04-30T15:08:48.729Z</time></trkpt><trkpt lat="40.0367133" lon="8.522175"><ele>68.0</ele><time>2026-04-30T15:08:49.73Z</time></trkpt><trkpt lat="40.03678" lon="8.5221183"><ele>68.0</ele><time>2026-04-30T15:08:50.781Z</time></trkpt><trkpt lat="40.0368417" lon="8.5220633"><ele>68.16666666666667</ele><time>2026-04-30T15:08:51.73Z</time></trkpt><trkpt lat="40.0369" lon="8.52201"><ele>68.33333333333334</ele><time>2026-04-30T15:08:52.728Z</time></trkpt><trkpt lat="40.0369583" lon="8.52196"><ele>68.5</ele><time>2026-04-30T15:08:53.728Z</time></trkpt><trkpt lat="40.0370133" lon="8.5219117"><ele>68.66666666666667</ele><time>2026-04-30T15:08:54.729Z</time></trkpt><trkpt lat="40.0370717" lon="8.5218617"><ele>68.83333333333333</ele><time>2026-04-30T15:08:55.73Z</time></trkpt><trkpt lat="40.037125" lon="8.5218167"><ele>69.0</ele><time>2026-04-30T15:08:56.793Z</time></trkpt><trkpt lat="40.03722" lon="8.521735"><ele>69.0</ele><time>2026-04-30T15:08:58.728Z</time></trkpt><trkpt lat="40.037315" lon="8.5216617"><ele>69.0</ele><time>2026-04-30T15:09:00.729Z</time></trkpt><trkpt lat="40.0374133" lon="8.5215933"><ele>69.0</ele><time>2026-04-30T15:09:02.781Z</time></trkpt><trkpt lat="40.037515" lon="8.5215283"><ele>69.0</ele><time>2026-04-30T15:09:04.73Z</time></trkpt><trkpt lat="40.0376033" lon="8.5214683"><ele>69.0</ele><time>2026-04-30T15:09:06.73Z</time></trkpt><trkpt lat="40.0376883" lon="8.52141"><ele>69.16666666666667</ele><time>2026-04-30T15:09:08.784Z</time></trkpt><trkpt lat="40.0377717" lon="8.5213483"><ele>69.33333333333333</ele><time>2026-04-30T15:09:10.728Z</time></trkpt><trkpt lat="40.0378467" lon="8.52131"><ele>69.5</ele><time>2026-04-30T15:09:12.731Z</time></trkpt><trkpt lat="40.0379217" lon="8.5212833"><ele>69.66666666666666</ele><time>2026-04-30T15:09:14.781Z</time></trkpt><trkpt lat="40.0379783" lon="8.521245"><ele>69.83333333333333</ele><time>2026-04-30T15:09:19.727Z</time></trkpt><trkpt lat="40.0380483" lon="8.52121"><ele>70.0</ele><time>2026-04-30T15:09:23.734Z</time></trkpt><trkpt lat="40.03811" lon="8.521175"><ele>70.0</ele><time>2026-04-30T15:09:26.795Z</time></trkpt><trkpt lat="40.038185" lon="8.5211317"><ele>70.0</ele><time>2026-04-30T15:09:29.733Z</time></trkpt><trkpt lat="40.03825" lon="8.5210883"><ele>70.0</ele><time>2026-04-30T15:09:32.785Z</time></trkpt><trkpt lat="40.0383067" lon="8.521045"><ele>70.0</ele><time>2026-04-30T15:09:35.729Z</time></trkpt><trkpt lat="40.038375" lon="8.521005"><ele>70.0</ele><time>2026-04-30T15:09:39.726Z</time></trkpt><trkpt lat="40.0384367" lon="8.5209467"><ele>70.0</ele><time>2026-04-30T15:09:42.728Z</time></trkpt><trkpt lat="40.038505" lon="8.5208783"><ele>70.16666666666666</ele><time>2026-04-30T15:09:44.785Z</time></trkpt><trkpt lat="40.03858" lon="8.5208117"><ele>70.33333333333333</ele><time>2026-04-30T15:09:46.729Z</time></trkpt><trkpt lat="40.0386333" lon="8.5207667"><ele>70.5</ele><time>2026-04-30T15:09:48.73Z</time></trkpt><trkpt lat="40.0385883" lon="8.5208583"><ele>70.66666666666667</ele><time>2026-04-30T15:11:02.783Z</time></trkpt><trkpt lat="40.0385067" lon="8.5209533"><ele>70.83333333333334</ele><time>2026-04-30T15:11:04.726Z</time></trkpt><trkpt lat="40.0384533" lon="8.5210067"><ele>71.0</ele><time>2026-04-30T15:11:05.73Z</time></trkpt><trkpt lat="40.0383933" lon="8.521065"><ele>71.0</ele><time>2026-04-30T15:11:06.727Z</time></trkpt><trkpt lat="40.0383267" lon="8.5211217"><ele>71.0</ele><time>2026-04-30T15:11:07.731Z</time></trkpt><trkpt lat="40.0382567" lon="8.5211783"><ele>71.0</ele><time>2026-04-30T15:11:08.783Z</time></trkpt><trkpt lat="40.0381817" lon="8.521235"><ele>71.0</ele><time>2026-04-30T15:11:09.724Z</time></trkpt><trkpt lat="40.0381033" lon="8.5212933"><ele>71.0</ele><time>2026-04-30T15:11:10.727Z</time></trkpt><trkpt lat="40.0380233" lon="8.5213483"><ele>71.0</ele><time>2026-04-30T15:11:11.733Z</time></trkpt><trkpt lat="40.037945" lon="8.521405"><ele>71.0</ele><time>2026-04-30T15:11:12.736Z</time></trkpt><trkpt lat="40.0378683" lon="8.5214617"><ele>71.0</ele><time>2026-04-30T15:11:13.733Z</time></trkpt><trkpt lat="40.0377917" lon="8.5215167"><ele>71.0</ele><time>2026-04-30T15:11:14.787Z</time></trkpt><trkpt lat="40.0376433" lon="8.5216317"><ele>71.0</ele><time>2026-04-30T15:11:16.727Z</time></trkpt><trkpt lat="40.0375683" lon="8.5216933"><ele>71.0</ele><time>2026-04-30T15:11:17.73Z</time></trkpt><trkpt lat="40.037495" lon="8.521755"><ele>70.83333333333334</ele><time>2026-04-30T15:11:18.731Z</time></trkpt><trkpt lat="40.03742" lon="8.5218167"><ele>70.66666666666667</ele><time>2026-04-30T15:11:19.73Z</time></trkpt><trkpt lat="40.0373467" lon="8.521875"><ele>70.5</ele><time>2026-04-30T15:11:20.782Z</time></trkpt><trkpt lat="40.03727" lon="8.5219383"><ele>70.33333333333333</ele><time>2026-04-30T15:11:21.725Z</time></trkpt><trkpt lat="40.0371933" lon="8.5220033"><ele>70.16666666666666</ele><time>2026-04-30T15:11:22.726Z</time></trkpt><trkpt lat="40.0371167" lon="8.5220683"><ele>70.0</ele><time>2026-04-30T15:11:23.726Z</time></trkpt><trkpt lat="40.0370433" lon="8.52213"><ele>70.0</ele><time>2026-04-30T15:11:24.727Z</time></trkpt><trkpt lat="40.0369733" lon="8.5221883"><ele>70.0</ele><time>2026-04-30T15:11:25.728Z</time></trkpt><trkpt lat="40.036905" lon="8.5222417"><ele>70.0</ele><time>2026-04-30T15:11:26.793Z</time></trkpt><trkpt lat="40.0368333" lon="8.52229"><ele>70.0</ele><time>2026-04-30T15:11:27.728Z</time></trkpt><trkpt lat="40.03676" lon="8.522335"><ele>70.0</ele><time>2026-04-30T15:11:28.728Z</time></trkpt><trkpt lat="40.036685" lon="8.5223833"><ele>70.0</ele><time>2026-04-30T15:11:29.727Z</time></trkpt><trkpt lat="40.036615" lon="8.5224283"><ele>69.66666666666666</ele><time>2026-04-30T15:11:30.729Z</time></trkpt><trkpt lat="40.036545" lon="8.5224767"><ele>69.33333333333333</ele><time>2026-04-30T15:11:31.726Z</time></trkpt><trkpt lat="40.03648" lon="8.5225283"><ele>69.0</ele><time>2026-04-30T15:11:32.763Z</time></trkpt><trkpt lat="40.0364283" lon="8.5225933"><ele>68.66666666666667</ele><time>2026-04-30T15:11:33.73Z</time></trkpt><trkpt lat="40.0363717" lon="8.5226667"><ele>68.33333333333334</ele><time>2026-04-30T15:11:34.728Z</time></trkpt><trkpt lat="40.0363167" lon="8.5227433"><ele>68.0</ele><time>2026-04-30T15:11:35.731Z</time></trkpt><trkpt lat="40.0362583" lon="8.5228183"><ele>68.0</ele><time>2026-04-30T15:11:36.731Z</time></trkpt><trkpt lat="40.0362017" lon="8.5228917"><ele>68.0</ele><time>2026-04-30T15:11:37.73Z</time></trkpt><trkpt lat="40.036145" lon="8.522965"><ele>68.0</ele><time>2026-04-30T15:11:38.781Z</time></trkpt><trkpt lat="40.0360883" lon="8.523035"><ele>68.0</ele><time>2026-04-30T15:11:39.726Z</time></trkpt><trkpt lat="40.036035" lon="8.5231"><ele>68.0</ele><time>2026-04-30T15:11:40.727Z</time></trkpt><trkpt lat="40.0359867" lon="8.5231567"><ele>68.0</ele><time>2026-04-30T15:11:41.729Z</time></trkpt><trkpt lat="40.0359117" lon="8.5232633"><ele>68.2</ele><time>2026-04-30T15:11:43.733Z</time></trkpt><trkpt lat="40.0358567" lon="8.523365"><ele>68.4</ele><time>2026-04-30T15:11:45.724Z</time></trkpt><trkpt lat="40.0357983" lon="8.5234533"><ele>68.60000000000001</ele><time>2026-04-30T15:11:47.728Z</time></trkpt><trkpt lat="40.0357033" lon="8.5235133"><ele>68.8</ele><time>2026-04-30T15:11:49.73Z</time></trkpt><trkpt lat="40.0355883" lon="8.5235733"><ele>69.0</ele><time>2026-04-30T15:11:51.726Z</time></trkpt><trkpt lat="40.03552" lon="8.523605"><ele>69.0</ele><time>2026-04-30T15:11:52.728Z</time></trkpt><trkpt lat="40.0354517" lon="8.5236367"><ele>69.0</ele><time>2026-04-30T15:11:53.725Z</time></trkpt><trkpt lat="40.03523" lon="8.52371"><ele>69.0</ele><time>2026-04-30T15:11:56.792Z</time></trkpt><trkpt lat="40.0351567" lon="8.5237333"><ele>69.0</ele><time>2026-04-30T15:11:57.726Z</time></trkpt><trkpt lat="40.035085" lon="8.523755"><ele>69.0</ele><time>2026-04-30T15:11:58.728Z</time></trkpt><trkpt lat="40.0350183" lon="8.5237783"><ele>69.0</ele><time>2026-04-30T15:11:59.728Z</time></trkpt><trkpt lat="40.034955" lon="8.5238"><ele>69.0</ele><time>2026-04-30T15:12:00.725Z</time></trkpt><trkpt lat="40.03485" lon="8.5238417"><ele>69.0</ele><time>2026-04-30T15:12:02.781Z</time></trkpt><trkpt lat="40.0347583" lon="8.5238583"><ele>69.0</ele><time>2026-04-30T15:12:04.724Z</time></trkpt><trkpt lat="40.0346733" lon="8.5238283"><ele>69.0</ele><time>2026-04-30T15:12:06.729Z</time></trkpt><trkpt lat="40.0346067" lon="8.5237383"><ele>68.5</ele><time>2026-04-30T15:12:08.782Z</time></trkpt><trkpt lat="40.0345817" lon="8.5236333"><ele>68.0</ele><time>2026-04-30T15:12:09.729Z</time></trkpt><trkpt lat="40.0345583" lon="8.5235283"><ele>67.5</ele><time>2026-04-30T15:12:10.727Z</time></trkpt><trkpt lat="40.034535" lon="8.5234317"><ele>67.0</ele><time>2026-04-30T15:12:11.727Z</time></trkpt><trkpt lat="40.0345267" lon="8.52332"><ele>66.5</ele><time>2026-04-30T15:12:12.725Z</time></trkpt><trkpt lat="40.0345183" lon="8.5232083"><ele>66.0</ele><time>2026-04-30T15:12:13.725Z</time></trkpt><trkpt lat="40.0345283" lon="8.5230733"><ele>66.0</ele><time>2026-04-30T15:12:14.78Z</time></trkpt><trkpt lat="40.0345283" lon="8.5229433"><ele>66.0</ele><time>2026-04-30T15:12:15.732Z</time></trkpt><trkpt lat="40.0345483" lon="8.522805"><ele>66.0</ele><time>2026-04-30T15:12:16.725Z</time></trkpt><trkpt lat="40.03458" lon="8.522665"><ele>66.0</ele><time>2026-04-30T15:12:17.73Z</time></trkpt><trkpt lat="40.03462" lon="8.5225283"><ele>66.0</ele><time>2026-04-30T15:12:18.729Z</time></trkpt><trkpt lat="40.0346717" lon="8.5223767"><ele>66.0</ele><time>2026-04-30T15:12:19.73Z</time></trkpt><trkpt lat="40.0347217" lon="8.5222367"><ele>66.0</ele><time>2026-04-30T15:12:20.78Z</time></trkpt><trkpt lat="40.0347717" lon="8.5221017"><ele>66.0</ele><time>2026-04-30T15:12:21.73Z</time></trkpt><trkpt lat="40.0348283" lon="8.52196"><ele>66.0</ele><time>2026-04-30T15:12:22.728Z</time></trkpt><trkpt lat="40.034895" lon="8.5218167"><ele>65.25</ele><time>2026-04-30T15:12:23.73Z</time></trkpt><trkpt lat="40.0349533" lon="8.5216783"><ele>64.5</ele><time>2026-04-30T15:12:24.724Z</time></trkpt><trkpt lat="40.0350183" lon="8.521535"><ele>63.75</ele><time>2026-04-30T15:12:25.731Z</time></trkpt><trkpt lat="40.0350667" lon="8.5213617"><ele>63.0</ele><time>2026-04-30T15:12:26.793Z</time></trkpt><trkpt lat="40.035135" lon="8.52115"><ele>62.25</ele><time>2026-04-30T15:12:27.734Z</time></trkpt><trkpt lat="40.0351583" lon="8.52098"><ele>61.5</ele><time>2026-04-30T15:12:28.73Z</time></trkpt><trkpt lat="40.0352033" lon="8.520835"><ele>60.75</ele><time>2026-04-30T15:12:29.726Z</time></trkpt><trkpt lat="40.0352817" lon="8.5206933"><ele>60.0</ele><time>2026-04-30T15:12:30.726Z</time></trkpt><trkpt lat="40.03535" lon="8.5205483"><ele>60.0</ele><time>2026-04-30T15:12:31.727Z</time></trkpt><trkpt lat="40.0354117" lon="8.5204067"><ele>60.0</ele><time>2026-04-30T15:12:32.774Z</time></trkpt><trkpt lat="40.0354783" lon="8.5202683"><ele>60.0</ele><time>2026-04-30T15:12:33.726Z</time></trkpt><trkpt lat="40.0355567" lon="8.5201267"><ele>60.0</ele><time>2026-04-30T15:12:34.728Z</time></trkpt><trkpt lat="40.0356383" lon="8.51998"><ele>60.0</ele><time>2026-04-30T15:12:35.729Z</time></trkpt><trkpt lat="40.0357233" lon="8.5198333"><ele>60.0</ele><time>2026-04-30T15:12:36.73Z</time></trkpt><trkpt lat="40.0358067" lon="8.5196867"><ele>60.0</ele><time>2026-04-30T15:12:37.729Z</time></trkpt><trkpt lat="40.0358883" lon="8.5195417"><ele>60.0</ele><time>2026-04-30T15:12:38.782Z</time></trkpt><trkpt lat="40.0359733" lon="8.5193983"><ele>60.0</ele><time>2026-04-30T15:12:39.731Z</time></trkpt><trkpt lat="40.03606" lon="8.519255"><ele>60.0</ele><time>2026-04-30T15:12:40.734Z</time></trkpt><trkpt lat="40.0361467" lon="8.51911"><ele>60.0</ele><time>2026-04-30T15:12:41.726Z</time></trkpt><trkpt lat="40.0362233" lon="8.5189617"><ele>60.0</ele><time>2026-04-30T15:12:42.729Z</time></trkpt><trkpt lat="40.0363" lon="8.518815"><ele>59.25</ele><time>2026-04-30T15:12:43.728Z</time></trkpt><trkpt lat="40.0363817" lon="8.5186717"><ele>58.5</ele><time>2026-04-30T15:12:44.782Z</time></trkpt><trkpt lat="40.0364633" lon="8.5185267"><ele>57.75</ele><time>2026-04-30T15:12:45.73Z</time></trkpt><trkpt lat="40.0365517" lon="8.518385"><ele>57.0</ele><time>2026-04-30T15:12:46.728Z</time></trkpt><trkpt lat="40.0366533" lon="8.5182517"><ele>56.5</ele><time>2026-04-30T15:12:47.729Z</time></trkpt><trkpt lat="40.0367383" lon="8.5181183"><ele>56.0</ele><time>2026-04-30T15:12:48.729Z</time></trkpt><trkpt lat="40.03682" lon="8.5179933"><ele>55.5</ele><time>2026-04-30T15:12:49.728Z</time></trkpt><trkpt lat="40.0368967" lon="8.51787"><ele>55.0</ele><time>2026-04-30T15:12:50.787Z</time></trkpt><trkpt lat="40.0369717" lon="8.51775"><ele>54.5</ele><time>2026-04-30T15:12:51.725Z</time></trkpt><trkpt lat="40.037055" lon="8.5176317"><ele>54.0</ele><time>2026-04-30T15:12:52.727Z</time></trkpt><trkpt lat="40.0371467" lon="8.5175167"><ele>53.5</ele><time>2026-04-30T15:12:53.725Z</time></trkpt><trkpt lat="40.0372433" lon="8.517405"><ele>53.0</ele><time>2026-04-30T15:12:54.728Z</time></trkpt><trkpt lat="40.03735" lon="8.5173"><ele>53.0</ele><time>2026-04-30T15:12:55.729Z</time></trkpt><trkpt lat="40.0374567" lon="8.5172067"><ele>53.0</ele><time>2026-04-30T15:12:56.793Z</time></trkpt><trkpt lat="40.0375567" lon="8.5171117"><ele>53.0</ele><time>2026-04-30T15:12:57.725Z</time></trkpt><trkpt lat="40.0376483" lon="8.51701"><ele>53.0</ele><time>2026-04-30T15:12:58.727Z</time></trkpt><trkpt lat="40.03774" lon="8.5168983"><ele>52.5</ele><time>2026-04-30T15:12:59.73Z</time></trkpt><trkpt lat="40.0378283" lon="8.51677"><ele>52.0</ele><time>2026-04-30T15:13:00.731Z</time></trkpt><trkpt lat="40.0379183" lon="8.5166317"><ele>51.5</ele><time>2026-04-30T15:13:01.729Z</time></trkpt><trkpt lat="40.03801" lon="8.5164983"><ele>51.0</ele><time>2026-04-30T15:13:02.785Z</time></trkpt><trkpt lat="40.0381033" lon="8.5163633"><ele>50.75</ele><time>2026-04-30T15:13:03.732Z</time></trkpt><trkpt lat="40.0381967" lon="8.51623"><ele>50.5</ele><time>2026-04-30T15:13:04.73Z</time></trkpt><trkpt lat="40.038285" lon="8.5160933"><ele>50.25</ele><time>2026-04-30T15:13:05.727Z</time></trkpt><trkpt lat="40.0383683" lon="8.515955"><ele>50.0</ele><time>2026-04-30T15:13:06.73Z</time></trkpt><trkpt lat="40.0384467" lon="8.515825"><ele>50.5</ele><time>2026-04-30T15:13:07.731Z</time></trkpt><trkpt lat="40.0385183" lon="8.5157017"><ele>51.0</ele><time>2026-04-30T15:13:08.779Z</time></trkpt><trkpt lat="40.0385917" lon="8.5155867"><ele>51.5</ele><time>2026-04-30T15:13:09.727Z</time></trkpt><trkpt lat="40.0386633" lon="8.515475"><ele>52.0</ele><time>2026-04-30T15:13:10.734Z</time></trkpt><trkpt lat="40.03873" lon="8.5153617"><ele>52.0</ele><time>2026-04-30T15:13:11.728Z</time></trkpt><trkpt lat="40.0387967" lon="8.51525"><ele>52.0</ele><time>2026-04-30T15:13:12.727Z</time></trkpt><trkpt lat="40.0388617" lon="8.5151417"><ele>52.0</ele><time>2026-04-30T15:13:13.728Z</time></trkpt><trkpt lat="40.03892" lon="8.5150333"><ele>52.0</ele><time>2026-04-30T15:13:14.782Z</time></trkpt><trkpt lat="40.038975" lon="8.514925"><ele>52.0</ele><time>2026-04-30T15:13:15.73Z</time></trkpt><trkpt lat="40.03903" lon="8.5148167"><ele>52.0</ele><time>2026-04-30T15:13:16.724Z</time></trkpt><trkpt lat="40.0390867" lon="8.5147067"><ele>52.0</ele><time>2026-04-30T15:13:17.729Z</time></trkpt><trkpt lat="40.0391433" lon="8.5145967"><ele>52.0</ele><time>2026-04-30T15:13:18.729Z</time></trkpt><trkpt lat="40.039195" lon="8.5144883"><ele>52.0</ele><time>2026-04-30T15:13:19.728Z</time></trkpt><trkpt lat="40.03925" lon="8.5143833"><ele>52.0</ele><time>2026-04-30T15:13:20.786Z</time></trkpt><trkpt lat="40.0393017" lon="8.514275"><ele>51.99999999999999</ele><time>2026-04-30T15:13:21.73Z</time></trkpt><trkpt lat="40.039355" lon="8.514175"><ele>52.0</ele><time>2026-04-30T15:13:22.728Z</time></trkpt><trkpt lat="40.0394017" lon="8.5140817"><ele>52.0</ele><time>2026-04-30T15:13:23.729Z</time></trkpt><trkpt lat="40.0394417" lon="8.5139933"><ele>52.0</ele><time>2026-04-30T15:13:24.728Z</time></trkpt><trkpt lat="40.0394767" lon="8.51391"><ele>51.99999999999999</ele><time>2026-04-30T15:13:25.725Z</time></trkpt><trkpt lat="40.0395067" lon="8.51382"><ele>52.0</ele><time>2026-04-30T15:13:26.798Z</time></trkpt><trkpt lat="40.039535" lon="8.513715"><ele>52.0</ele><time>2026-04-30T15:13:27.732Z</time></trkpt><trkpt lat="40.0395567" lon="8.5136"><ele>52.0</ele><time>2026-04-30T15:13:28.727Z</time></trkpt><trkpt lat="40.0395667" lon="8.5134683"><ele>52.0</ele><time>2026-04-30T15:13:29.73Z</time></trkpt><trkpt lat="40.03956" lon="8.5133333"><ele>52.0</ele><time>2026-04-30T15:13:30.727Z</time></trkpt><trkpt lat="40.0395533" lon="8.5131983"><ele>52.0</ele><time>2026-04-30T15:13:31.727Z</time></trkpt><trkpt lat="40.0395417" lon="8.5130717"><ele>51.99999999999999</ele><time>2026-04-30T15:13:32.777Z</time></trkpt><trkpt lat="40.0395" lon="8.512965"><ele>52.0</ele><time>2026-04-30T15:13:33.724Z</time></trkpt><trkpt lat="40.0394733" lon="8.51286"><ele>52.0</ele><time>2026-04-30T15:13:34.731Z</time></trkpt><trkpt lat="40.0394517" lon="8.5127617"><ele>52.0</ele><time>2026-04-30T15:13:35.733Z</time></trkpt><trkpt lat="40.0394317" lon="8.51268"><ele>51.99999999999999</ele><time>2026-04-30T15:13:36.726Z</time></trkpt><trkpt lat="40.0393983" lon="8.5125783"><ele>52.0</ele><time>2026-04-30T15:13:38.782Z</time></trkpt><trkpt lat="40.0393417" lon="8.5124283"><ele>51.83333333333333</ele><time>2026-04-30T15:13:58.727Z</time></trkpt><trkpt lat="40.0393283" lon="8.5123283"><ele>51.666666666666664</ele><time>2026-04-30T15:13:59.732Z</time></trkpt><trkpt lat="40.03932" lon="8.5122267"><ele>51.5</ele><time>2026-04-30T15:14:00.728Z</time></trkpt><trkpt lat="40.03932" lon="8.512115"><ele>51.33333333333333</ele><time>2026-04-30T15:14:01.727Z</time></trkpt><trkpt lat="40.0393317" lon="8.511995"><ele>51.166666666666664</ele><time>2026-04-30T15:14:02.777Z</time></trkpt><trkpt lat="40.0393583" lon="8.5118483"><ele>51.0</ele><time>2026-04-30T15:14:03.728Z</time></trkpt><trkpt lat="40.0394017" lon="8.5116983"><ele>51.5</ele><time>2026-04-30T15:14:04.724Z</time></trkpt><trkpt lat="40.03943" lon="8.5115417"><ele>52.0</ele><time>2026-04-30T15:14:05.732Z</time></trkpt><trkpt lat="40.0394517" lon="8.51134"><ele>52.5</ele><time>2026-04-30T15:14:06.728Z</time></trkpt><trkpt lat="40.0395" lon="8.5111533"><ele>53.0</ele><time>2026-04-30T15:14:07.727Z</time></trkpt><trkpt lat="40.0395533" lon="8.5109817"><ele>53.0</ele><time>2026-04-30T15:14:08.782Z</time></trkpt><trkpt lat="40.039625" lon="8.51079"><ele>53.0</ele><time>2026-04-30T15:14:09.738Z</time></trkpt><trkpt lat="40.039705" lon="8.5105883"><ele>53.0</ele><time>2026-04-30T15:14:10.726Z</time></trkpt><trkpt lat="40.0397667" lon="8.5103983"><ele>53.0</ele><time>2026-04-30T15:14:11.727Z</time></trkpt><trkpt lat="40.0398267" lon="8.510215"><ele>53.0</ele><time>2026-04-30T15:14:12.73Z</time></trkpt><trkpt lat="40.03987" lon="8.5100383"><ele>53.0</ele><time>2026-04-30T15:14:13.729Z</time></trkpt><trkpt lat="40.0398967" lon="8.5098617"><ele>53.0</ele><time>2026-04-30T15:14:14.783Z</time></trkpt><trkpt lat="40.039875" lon="8.5096967"><ele>52.75</ele><time>2026-04-30T15:14:15.73Z</time></trkpt><trkpt lat="40.0398117" lon="8.5095233"><ele>52.5</ele><time>2026-04-30T15:14:16.728Z</time></trkpt><trkpt lat="40.0397667" lon="8.5093333"><ele>52.25</ele><time>2026-04-30T15:14:17.729Z</time></trkpt><trkpt lat="40.0397233" lon="8.5091617"><ele>52.0</ele><time>2026-04-30T15:14:18.731Z</time></trkpt><trkpt lat="40.0396983" lon="8.5089917"><ele>52.0</ele><time>2026-04-30T15:14:19.725Z</time></trkpt><trkpt lat="40.0397083" lon="8.5088333"><ele>52.0</ele><time>2026-04-30T15:14:20.782Z</time></trkpt><trkpt lat="40.039735" lon="8.508655"><ele>52.0</ele><time>2026-04-30T15:14:21.725Z</time></trkpt><trkpt lat="40.0398033" lon="8.50847"><ele>52.0</ele><time>2026-04-30T15:14:22.725Z</time></trkpt><trkpt lat="40.0398883" lon="8.5082867"><ele>52.33333333333333</ele><time>2026-04-30T15:14:23.731Z</time></trkpt><trkpt lat="40.03997" lon="8.5081"><ele>52.66666666666667</ele><time>2026-04-30T15:14:24.729Z</time></trkpt><trkpt lat="40.040065" lon="8.5079183"><ele>53.0</ele><time>2026-04-30T15:14:25.729Z</time></trkpt><trkpt lat="40.0401333" lon="8.5077233"><ele>53.0</ele><time>2026-04-30T15:14:26.795Z</time></trkpt><trkpt lat="40.0402167" lon="8.5075217"><ele>53.0</ele><time>2026-04-30T15:14:27.727Z</time></trkpt><trkpt lat="40.0402933" lon="8.5073283"><ele>53.0</ele><time>2026-04-30T15:14:28.726Z</time></trkpt><trkpt lat="40.0403633" lon="8.50714"><ele>52.25</ele><time>2026-04-30T15:14:29.725Z</time></trkpt><trkpt lat="40.0404283" lon="8.506965"><ele>51.5</ele><time>2026-04-30T15:14:30.729Z</time></trkpt><trkpt lat="40.0404917" lon="8.506795"><ele>50.75</ele><time>2026-04-30T15:14:31.73Z</time></trkpt><trkpt lat="40.04055" lon="8.5066367"><ele>50.0</ele><time>2026-04-30T15:14:32.794Z</time></trkpt><trkpt lat="40.0406067" lon="8.5064717"><ele>50.0</ele><time>2026-04-30T15:14:33.729Z</time></trkpt><trkpt lat="40.0406617" lon="8.5062933"><ele>50.0</ele><time>2026-04-30T15:14:34.729Z</time></trkpt><trkpt lat="40.0407133" lon="8.5061083"><ele>50.0</ele><time>2026-04-30T15:14:35.729Z</time></trkpt><trkpt lat="40.0407683" lon="8.50592"><ele>49.333333333333336</ele><time>2026-04-30T15:14:36.728Z</time></trkpt><trkpt lat="40.0408133" lon="8.5057233"><ele>48.66666666666667</ele><time>2026-04-30T15:14:37.728Z</time></trkpt><trkpt lat="40.040875" lon="8.50552"><ele>48.0</ele><time>2026-04-30T15:14:38.778Z</time></trkpt><trkpt lat="40.0409233" lon="8.5053217"><ele>47.0</ele><time>2026-04-30T15:14:39.725Z</time></trkpt><trkpt lat="40.040985" lon="8.50511"><ele>46.0</ele><time>2026-04-30T15:14:40.728Z</time></trkpt><trkpt lat="40.0410467" lon="8.5048933"><ele>45.0</ele><time>2026-04-30T15:14:41.725Z</time></trkpt><trkpt lat="40.0411" lon="8.5046667"><ele>43.666666666666664</ele><time>2026-04-30T15:14:42.73Z</time></trkpt><trkpt lat="40.0411517" lon="8.50445"><ele>42.33333333333333</ele><time>2026-04-30T15:14:43.731Z</time></trkpt><trkpt lat="40.0412167" lon="8.504235"><ele>41.0</ele><time>2026-04-30T15:14:44.782Z</time></trkpt><trkpt lat="40.0412783" lon="8.5040233"><ele>41.0</ele><time>2026-04-30T15:14:45.727Z</time></trkpt><trkpt lat="40.0413283" lon="8.5038017"><ele>41.0</ele><time>2026-04-30T15:14:46.728Z</time></trkpt><trkpt lat="40.0413833" lon="8.5035867"><ele>41.0</ele><time>2026-04-30T15:14:47.728Z</time></trkpt><trkpt lat="40.0414367" lon="8.5033633"><ele>40.33333333333333</ele><time>2026-04-30T15:14:48.728Z</time></trkpt><trkpt lat="40.04149" lon="8.5031517"><ele>39.666666666666664</ele><time>2026-04-30T15:14:49.727Z</time></trkpt><trkpt lat="40.041545" lon="8.502945"><ele>39.0</ele><time>2026-04-30T15:14:50.781Z</time></trkpt><trkpt lat="40.0416083" lon="8.5027467"><ele>38.333333333333336</ele><time>2026-04-30T15:14:51.726Z</time></trkpt><trkpt lat="40.041685" lon="8.5025483"><ele>37.66666666666667</ele><time>2026-04-30T15:14:52.729Z</time></trkpt><trkpt lat="40.0417667" lon="8.5023633"><ele>37.0</ele><time>2026-04-30T15:14:53.729Z</time></trkpt><trkpt lat="40.0418567" lon="8.50219"><ele>36.0</ele><time>2026-04-30T15:14:54.727Z</time></trkpt><trkpt lat="40.041935" lon="8.502005"><ele>35.0</ele><time>2026-04-30T15:14:55.726Z</time></trkpt><trkpt lat="40.042015" lon="8.5018117"><ele>34.0</ele><time>2026-04-30T15:14:56.792Z</time></trkpt><trkpt lat="40.0420533" lon="8.5016317"><ele>34.0</ele><time>2026-04-30T15:14:57.729Z</time></trkpt><trkpt lat="40.0420883" lon="8.5014133"><ele>34.0</ele><time>2026-04-30T15:14:58.724Z</time></trkpt><trkpt lat="40.0420883" lon="8.5011883"><ele>34.0</ele><time>2026-04-30T15:14:59.726Z</time></trkpt><trkpt lat="40.0420767" lon="8.50097"><ele>33.333333333333336</ele><time>2026-04-30T15:15:00.729Z</time></trkpt><trkpt lat="40.0420417" lon="8.5007333"><ele>32.666666666666664</ele><time>2026-04-30T15:15:01.729Z</time></trkpt><trkpt lat="40.0420067" lon="8.5004933"><ele>32.0</ele><time>2026-04-30T15:15:02.781Z</time></trkpt><trkpt lat="40.0419883" lon="8.5002467"><ele>32.0</ele><time>2026-04-30T15:15:03.728Z</time></trkpt><trkpt lat="40.04196" lon="8.50001"><ele>32.0</ele><time>2026-04-30T15:15:04.73Z</time></trkpt><trkpt lat="40.0419417" lon="8.4997867"><ele>32.0</ele><time>2026-04-30T15:15:05.728Z</time></trkpt><trkpt lat="40.0419167" lon="8.499575"><ele>31.0</ele><time>2026-04-30T15:15:06.734Z</time></trkpt><trkpt lat="40.0418717" lon="8.4993833"><ele>30.0</ele><time>2026-04-30T15:15:07.726Z</time></trkpt><trkpt lat="40.0417817" lon="8.4991733"><ele>29.0</ele><time>2026-04-30T15:15:08.779Z</time></trkpt><trkpt lat="40.04168" lon="8.4989667"><ele>29.333333333333332</ele><time>2026-04-30T15:15:09.732Z</time></trkpt><trkpt lat="40.0415783" lon="8.498755"><ele>29.666666666666664</ele><time>2026-04-30T15:15:10.73Z</time></trkpt><trkpt lat="40.0414683" lon="8.49855"><ele>30.0</ele><time>2026-04-30T15:15:11.725Z</time></trkpt><trkpt lat="40.0413533" lon="8.4983383"><ele>29.333333333333336</ele><time>2026-04-30T15:15:12.724Z</time></trkpt><trkpt lat="40.0412717" lon="8.4981267"><ele>28.666666666666668</ele><time>2026-04-30T15:15:13.728Z</time></trkpt><trkpt lat="40.0411817" lon="8.4979233"><ele>28.0</ele><time>2026-04-30T15:15:14.78Z</time></trkpt><trkpt lat="40.0410933" lon="8.4977333"><ele>27.333333333333336</ele><time>2026-04-30T15:15:15.729Z</time></trkpt><trkpt lat="40.0410083" lon="8.497545"><ele>26.666666666666664</ele><time>2026-04-30T15:15:16.729Z</time></trkpt><trkpt lat="40.0409067" lon="8.497375"><ele>26.0</ele><time>2026-04-30T15:15:17.725Z</time></trkpt><trkpt lat="40.0408367" lon="8.4971683"><ele>25.666666666666664</ele><time>2026-04-30T15:15:18.73Z</time></trkpt><trkpt lat="40.0408" lon="8.49695"><ele>25.333333333333336</ele><time>2026-04-30T15:15:19.734Z</time></trkpt><trkpt lat="40.04078" lon="8.49672"><ele>25.0</ele><time>2026-04-30T15:15:20.781Z</time></trkpt><trkpt lat="40.0407583" lon="8.4964933"><ele>25.0</ele><time>2026-04-30T15:15:21.729Z</time></trkpt><trkpt lat="40.0407483" lon="8.4962717"><ele>25.0</ele><time>2026-04-30T15:15:22.734Z</time></trkpt><trkpt lat="40.0407417" lon="8.4960633"><ele>25.0</ele><time>2026-04-30T15:15:23.733Z</time></trkpt><trkpt lat="40.0407383" lon="8.4958667"><ele>25.0</ele><time>2026-04-30T15:15:24.725Z</time></trkpt><trkpt lat="40.0407383" lon="8.4956767"><ele>25.0</ele><time>2026-04-30T15:15:25.724Z</time></trkpt><trkpt lat="40.040745" lon="8.4954883"><ele>25.0</ele><time>2026-04-30T15:15:26.785Z</time></trkpt><trkpt lat="40.0407583" lon="8.495315"><ele>25.0</ele><time>2026-04-30T15:15:27.73Z</time></trkpt><trkpt lat="40.0407767" lon="8.4951433"><ele>24.75</ele><time>2026-04-30T15:15:28.729Z</time></trkpt><trkpt lat="40.0407967" lon="8.4949667"><ele>24.5</ele><time>2026-04-30T15:15:29.73Z</time></trkpt><trkpt lat="40.0408" lon="8.4947967"><ele>24.25</ele><time>2026-04-30T15:15:30.73Z</time></trkpt><trkpt lat="40.0407983" lon="8.494635"><ele>24.0</ele><time>2026-04-30T15:15:31.73Z</time></trkpt><trkpt lat="40.0407733" lon="8.4944733"><ele>23.5</ele><time>2026-04-30T15:15:32.783Z</time></trkpt><trkpt lat="40.0407583" lon="8.4943133"><ele>23.0</ele><time>2026-04-30T15:15:33.731Z</time></trkpt><trkpt lat="40.0407167" lon="8.4941633"><ele>22.5</ele><time>2026-04-30T15:15:34.73Z</time></trkpt><trkpt lat="40.0406967" lon="8.494015"><ele>22.0</ele><time>2026-04-30T15:15:35.729Z</time></trkpt><trkpt lat="40.0406867" lon="8.493875"><ele>21.5</ele><time>2026-04-30T15:15:36.725Z</time></trkpt><trkpt lat="40.0406917" lon="8.493745"><ele>21.0</ele><time>2026-04-30T15:15:37.726Z</time></trkpt><trkpt lat="40.0406983" lon="8.4936317"><ele>20.5</ele><time>2026-04-30T15:15:38.781Z</time></trkpt><trkpt lat="40.0407217" lon="8.4935533"><ele>20.0</ele><time>2026-04-30T15:15:39.727Z</time></trkpt><trkpt lat="40.0407417" lon="8.4934217"><ele>19.5</ele><time>2026-04-30T15:15:41.728Z</time></trkpt><trkpt lat="40.0407333" lon="8.49334"><ele>19.0</ele><time>2026-04-30T15:15:43.728Z</time></trkpt><trkpt lat="40.0406917" lon="8.493265"><ele>19.0</ele><time>2026-04-30T15:15:45.728Z</time></trkpt><trkpt lat="40.0406467" lon="8.4931667"><ele>19.0</ele><time>2026-04-30T15:15:47.731Z</time></trkpt><trkpt lat="40.040615" lon="8.4930367"><ele>19.0</ele><time>2026-04-30T15:15:49.731Z</time></trkpt><trkpt lat="40.0406267" lon="8.49289"><ele>19.0</ele><time>2026-04-30T15:15:51.726Z</time></trkpt><trkpt lat="40.0406883" lon="8.4927533"><ele>19.0</ele><time>2026-04-30T15:15:53.727Z</time></trkpt><trkpt lat="40.0407417" lon="8.4926817"><ele>18.833333333333332</ele><time>2026-04-30T15:15:54.729Z</time></trkpt><trkpt lat="40.040795" lon="8.4926017"><ele>18.666666666666664</ele><time>2026-04-30T15:15:55.73Z</time></trkpt><trkpt lat="40.0408533" lon="8.4925133"><ele>18.5</ele><time>2026-04-30T15:15:56.783Z</time></trkpt><trkpt lat="40.040905" lon="8.49242"><ele>18.333333333333332</ele><time>2026-04-30T15:15:57.73Z</time></trkpt><trkpt lat="40.0409633" lon="8.4923283"><ele>18.166666666666668</ele><time>2026-04-30T15:15:58.731Z</time></trkpt><trkpt lat="40.041025" lon="8.492245"><ele>18.0</ele><time>2026-04-30T15:15:59.729Z</time></trkpt><trkpt lat="40.04108" lon="8.4921583"><ele>17.833333333333332</ele><time>2026-04-30T15:16:00.727Z</time></trkpt><trkpt lat="40.04113" lon="8.4920667"><ele>17.666666666666668</ele><time>2026-04-30T15:16:01.724Z</time></trkpt><trkpt lat="40.0411733" lon="8.49198"><ele>17.5</ele><time>2026-04-30T15:16:02.787Z</time></trkpt><trkpt lat="40.04122" lon="8.4918983"><ele>17.333333333333336</ele><time>2026-04-30T15:16:03.726Z</time></trkpt><trkpt lat="40.0412617" lon="8.49182"><ele>17.166666666666668</ele><time>2026-04-30T15:16:04.722Z</time></trkpt><trkpt lat="40.041295" lon="8.4917467"><ele>17.0</ele><time>2026-04-30T15:16:05.729Z</time></trkpt><trkpt lat="40.041325" lon="8.4916117"><ele>17.0</ele><time>2026-04-30T15:16:07.727Z</time></trkpt><trkpt lat="40.0413133" lon="8.4914867"><ele>17.0</ele><time>2026-04-30T15:16:09.727Z</time></trkpt><trkpt lat="40.0412517" lon="8.49138"><ele>17.0</ele><time>2026-04-30T15:16:11.729Z</time></trkpt><trkpt lat="40.0411383" lon="8.4912867"><ele>17.0</ele><time>2026-04-30T15:16:13.724Z</time></trkpt><trkpt lat="40.0410667" lon="8.4912567"><ele>17.0</ele><time>2026-04-30T15:16:14.775Z</time></trkpt><trkpt lat="40.0409817" lon="8.4912217"><ele>17.285714285714285</ele><time>2026-04-30T15:16:15.731Z</time></trkpt><trkpt lat="40.0409" lon="8.49119"><ele>17.57142857142857</ele><time>2026-04-30T15:16:16.725Z</time></trkpt><trkpt lat="40.0408267" lon="8.491155"><ele>17.857142857142854</ele><time>2026-04-30T15:16:17.729Z</time></trkpt><trkpt lat="40.0407633" lon="8.49111"><ele>18.142857142857142</ele><time>2026-04-30T15:16:18.729Z</time></trkpt><trkpt lat="40.0407067" lon="8.4910633"><ele>18.42857142857143</ele><time>2026-04-30T15:16:19.728Z</time></trkpt><trkpt lat="40.0406483" lon="8.4910083"><ele>18.71428571428571</ele><time>2026-04-30T15:16:20.784Z</time></trkpt><trkpt lat="40.0405867" lon="8.490955"><ele>19.0</ele><time>2026-04-30T15:16:21.726Z</time></trkpt><trkpt lat="40.0405217" lon="8.490895"><ele>18.2</ele><time>2026-04-30T15:16:22.727Z</time></trkpt><trkpt lat="40.04045" lon="8.4908283"><ele>17.4</ele><time>2026-04-30T15:16:23.728Z</time></trkpt><trkpt lat="40.040375" lon="8.49076"><ele>16.6</ele><time>2026-04-30T15:16:24.729Z</time></trkpt><trkpt lat="40.0402883" lon="8.4906867"><ele>15.8</ele><time>2026-04-30T15:16:25.725Z</time></trkpt><trkpt lat="40.0401833" lon="8.4905833"><ele>15.0</ele><time>2026-04-30T15:16:26.781Z</time></trkpt><trkpt lat="40.04006" lon="8.4904517"><ele>15.333333333333334</ele><time>2026-04-30T15:16:27.731Z</time></trkpt><trkpt lat="40.0399767" lon="8.490375"><ele>15.666666666666668</ele><time>2026-04-30T15:16:28.727Z</time></trkpt><trkpt lat="40.0399017" lon="8.490345"><ele>16.0</ele><time>2026-04-30T15:16:29.726Z</time></trkpt><trkpt lat="40.03983" lon="8.4903317"><ele>16.333333333333336</ele><time>2026-04-30T15:16:30.726Z</time></trkpt><trkpt lat="40.0397633" lon="8.4903217"><ele>16.666666666666668</ele><time>2026-04-30T15:16:31.726Z</time></trkpt><trkpt lat="40.0397017" lon="8.4902867"><ele>17.0</ele><time>2026-04-30T15:16:32.784Z</time></trkpt><trkpt lat="40.03959" lon="8.490215"><ele>17.0</ele><time>2026-04-30T15:16:34.722Z</time></trkpt><trkpt lat="40.03948" lon="8.4901667"><ele>17.0</ele><time>2026-04-30T15:16:36.724Z</time></trkpt><trkpt lat="40.0393817" lon="8.4901383"><ele>17.0</ele><time>2026-04-30T15:16:38.778Z</time></trkpt><trkpt lat="40.0393033" lon="8.490095"><ele>17.0</ele><time>2026-04-30T15:16:40.729Z</time></trkpt><trkpt lat="40.0392567" lon="8.49001"><ele>17.0</ele><time>2026-04-30T15:16:43.726Z</time></trkpt><trkpt lat="40.0392767" lon="8.4898983"><ele>17.0</ele><time>2026-04-30T15:16:46.725Z</time></trkpt><trkpt lat="40.0393183" lon="8.4897633"><ele>17.0</ele><time>2026-04-30T15:16:48.727Z</time></trkpt><trkpt lat="40.0393483" lon="8.4896783"><ele>17.0</ele><time>2026-04-30T15:16:49.725Z</time></trkpt><trkpt lat="40.039385" lon="8.4895883"><ele>17.0</ele><time>2026-04-30T15:16:50.778Z</time></trkpt><trkpt lat="40.03943" lon="8.489495"><ele>17.0</ele><time>2026-04-30T15:16:51.727Z</time></trkpt><trkpt lat="40.039495" lon="8.48939"><ele>17.0</ele><time>2026-04-30T15:16:52.727Z</time></trkpt><trkpt lat="40.0395683" lon="8.4892817"><ele>16.6</ele><time>2026-04-30T15:16:53.727Z</time></trkpt><trkpt lat="40.03964" lon="8.4891717"><ele>16.2</ele><time>2026-04-30T15:16:54.729Z</time></trkpt><trkpt lat="40.0396967" lon="8.4890717"><ele>15.8</ele><time>2026-04-30T15:16:55.726Z</time></trkpt><trkpt lat="40.0397467" lon="8.48897"><ele>15.4</ele><time>2026-04-30T15:16:56.782Z</time></trkpt><trkpt lat="40.03979" lon="8.48887"><ele>15.0</ele><time>2026-04-30T15:16:57.728Z</time></trkpt><trkpt lat="40.0398267" lon="8.4887683"><ele>14.666666666666666</ele><time>2026-04-30T15:16:58.73Z</time></trkpt><trkpt lat="40.03986" lon="8.4886633"><ele>14.333333333333332</ele><time>2026-04-30T15:16:59.727Z</time></trkpt><trkpt lat="40.0398833" lon="8.4885633"><ele>14.0</ele><time>2026-04-30T15:17:00.726Z</time></trkpt><trkpt lat="40.0398983" lon="8.4884583"><ele>13.666666666666666</ele><time>2026-04-30T15:17:01.728Z</time></trkpt><trkpt lat="40.0398933" lon="8.4883733"><ele>13.333333333333332</ele><time>2026-04-30T15:17:02.783Z</time></trkpt><trkpt lat="40.0398633" lon="8.4882717"><ele>13.0</ele><time>2026-04-30T15:17:03.728Z</time></trkpt><trkpt lat="40.0397983" lon="8.4881733"><ele>13.0</ele><time>2026-04-30T15:17:04.723Z</time></trkpt><trkpt lat="40.0397433" lon="8.48808"><ele>13.0</ele><time>2026-04-30T15:17:05.73Z</time></trkpt><trkpt lat="40.0396983" lon="8.4879767"><ele>13.0</ele><time>2026-04-30T15:17:06.734Z</time></trkpt><trkpt lat="40.0396517" lon="8.4878617"><ele>13.0</ele><time>2026-04-30T15:17:07.73Z</time></trkpt><trkpt lat="40.0396183" lon="8.4877567"><ele>13.0</ele><time>2026-04-30T15:17:08.783Z</time></trkpt><trkpt lat="40.0396" lon="8.48764"><ele>13.0</ele><time>2026-04-30T15:17:09.727Z</time></trkpt><trkpt lat="40.039585" lon="8.4875217"><ele>13.0</ele><time>2026-04-30T15:17:10.726Z</time></trkpt><trkpt lat="40.03957" lon="8.4873917"><ele>13.0</ele><time>2026-04-30T15:17:11.726Z</time></trkpt><trkpt lat="40.0395717" lon="8.4872633"><ele>13.0</ele><time>2026-04-30T15:17:12.727Z</time></trkpt><trkpt lat="40.039585" lon="8.4871283"><ele>13.0</ele><time>2026-04-30T15:17:13.727Z</time></trkpt><trkpt lat="40.0396067" lon="8.4869983"><ele>13.0</ele><time>2026-04-30T15:17:14.782Z</time></trkpt><trkpt lat="40.03963" lon="8.4868667"><ele>13.0</ele><time>2026-04-30T15:17:15.729Z</time></trkpt><trkpt lat="40.0396583" lon="8.48673"><ele>13.0</ele><time>2026-04-30T15:17:16.729Z</time></trkpt><trkpt lat="40.0396933" lon="8.486585"><ele>13.0</ele><time>2026-04-30T15:17:17.728Z</time></trkpt><trkpt lat="40.03972" lon="8.4864367"><ele>13.0</ele><time>2026-04-30T15:17:18.73Z</time></trkpt><trkpt lat="40.0397417" lon="8.4862967"><ele>13.4</ele><time>2026-04-30T15:17:19.725Z</time></trkpt><trkpt lat="40.0397483" lon="8.4861583"><ele>13.8</ele><time>2026-04-30T15:17:20.778Z</time></trkpt><trkpt lat="40.0397433" lon="8.486025"><ele>14.2</ele><time>2026-04-30T15:17:21.729Z</time></trkpt><trkpt lat="40.03972" lon="8.4858967"><ele>14.6</ele><time>2026-04-30T15:17:22.727Z</time></trkpt><trkpt lat="40.03968" lon="8.4857767"><ele>15.0</ele><time>2026-04-30T15:17:23.725Z</time></trkpt><trkpt lat="40.0396317" lon="8.4856683"><ele>15.0</ele><time>2026-04-30T15:17:24.728Z</time></trkpt><trkpt lat="40.039575" lon="8.48557"><ele>15.0</ele><time>2026-04-30T15:17:25.723Z</time></trkpt><trkpt lat="40.0395117" lon="8.4854767"><ele>15.0</ele><time>2026-04-30T15:17:26.792Z</time></trkpt><trkpt lat="40.0394433" lon="8.4853883"><ele>15.0</ele><time>2026-04-30T15:17:27.727Z</time></trkpt><trkpt lat="40.0393733" lon="8.4853117"><ele>15.0</ele><time>2026-04-30T15:17:28.729Z</time></trkpt><trkpt lat="40.0393117" lon="8.48524"><ele>15.285714285714286</ele><time>2026-04-30T15:17:29.725Z</time></trkpt><trkpt lat="40.03926" lon="8.4851633"><ele>15.57142857142857</ele><time>2026-04-30T15:17:30.726Z</time></trkpt><trkpt lat="40.0392133" lon="8.48509"><ele>15.857142857142856</ele><time>2026-04-30T15:17:31.725Z</time></trkpt><trkpt lat="40.0391717" lon="8.485015"><ele>16.142857142857142</ele><time>2026-04-30T15:17:32.771Z</time></trkpt><trkpt lat="40.039135" lon="8.4849383"><ele>16.428571428571427</ele><time>2026-04-30T15:17:33.724Z</time></trkpt><trkpt lat="40.039105" lon="8.4848583"><ele>16.71428571428571</ele><time>2026-04-30T15:17:34.726Z</time></trkpt><trkpt lat="40.0390783" lon="8.48477"><ele>17.0</ele><time>2026-04-30T15:17:35.726Z</time></trkpt><trkpt lat="40.039055" lon="8.4846733"><ele>16.0</ele><time>2026-04-30T15:17:36.728Z</time></trkpt><trkpt lat="40.0390367" lon="8.484565"><ele>15.0</ele><time>2026-04-30T15:17:37.732Z</time></trkpt><trkpt lat="40.0390267" lon="8.4844367"><ele>14.0</ele><time>2026-04-30T15:17:38.782Z</time></trkpt><trkpt lat="40.0390233" lon="8.4842917"><ele>13.0</ele><time>2026-04-30T15:17:39.729Z</time></trkpt><trkpt lat="40.0390317" lon="8.4841383"><ele>12.0</ele><time>2026-04-30T15:17:40.724Z</time></trkpt><trkpt lat="40.03903" lon="8.4839733"><ele>12.0</ele><time>2026-04-30T15:17:41.721Z</time></trkpt><trkpt lat="40.0390333" lon="8.4838083"><ele>12.0</ele><time>2026-04-30T15:17:42.728Z</time></trkpt><trkpt lat="40.0390317" lon="8.4836567"><ele>12.0</ele><time>2026-04-30T15:17:43.726Z</time></trkpt><trkpt lat="40.03903" lon="8.4835083"><ele>12.0</ele><time>2026-04-30T15:17:44.784Z</time></trkpt><trkpt lat="40.03903" lon="8.4833633"><ele>12.0</ele><time>2026-04-30T15:17:45.723Z</time></trkpt><trkpt lat="40.0390333" lon="8.4832183"><ele>12.0</ele><time>2026-04-30T15:17:46.727Z</time></trkpt><trkpt lat="40.03904" lon="8.4830783"><ele>12.0</ele><time>2026-04-30T15:17:47.729Z</time></trkpt><trkpt lat="40.03904" lon="8.482935"><ele>12.0</ele><time>2026-04-30T15:17:48.729Z</time></trkpt><trkpt lat="40.0390383" lon="8.4827933"><ele>12.0</ele><time>2026-04-30T15:17:49.727Z</time></trkpt><trkpt lat="40.03904" lon="8.482655"><ele>12.0</ele><time>2026-04-30T15:17:50.778Z</time></trkpt><trkpt lat="40.0390333" lon="8.4825183"><ele>12.0</ele><time>2026-04-30T15:17:51.727Z</time></trkpt><trkpt lat="40.03903" lon="8.482385"><ele>12.0</ele><time>2026-04-30T15:17:52.726Z</time></trkpt><trkpt lat="40.0390233" lon="8.482255"><ele>12.0</ele><time>2026-04-30T15:17:53.73Z</time></trkpt><trkpt lat="40.0390233" lon="8.4821133"><ele>12.0</ele><time>2026-04-30T15:17:54.724Z</time></trkpt><trkpt lat="40.0390083" lon="8.4819933"><ele>12.333333333333334</ele><time>2026-04-30T15:17:55.724Z</time></trkpt><trkpt lat="40.03899" lon="8.481875"><ele>12.666666666666668</ele><time>2026-04-30T15:17:56.779Z</time></trkpt><trkpt lat="40.0389767" lon="8.48176"><ele>13.0</ele><time>2026-04-30T15:17:57.727Z</time></trkpt><trkpt lat="40.0389567" lon="8.4816467"><ele>13.333333333333334</ele><time>2026-04-30T15:17:58.726Z</time></trkpt><trkpt lat="40.0389367" lon="8.4815467"><ele>13.666666666666668</ele><time>2026-04-30T15:17:59.729Z</time></trkpt><trkpt lat="40.0389133" lon="8.481455"><ele>14.0</ele><time>2026-04-30T15:18:00.729Z</time></trkpt><trkpt lat="40.0388883" lon="8.4813617"><ele>14.000000000000002</ele><time>2026-04-30T15:18:01.728Z</time></trkpt><trkpt lat="40.03886" lon="8.48127"><ele>14.0</ele><time>2026-04-30T15:18:02.78Z</time></trkpt><trkpt lat="40.03883" lon="8.4811767"><ele>14.0</ele><time>2026-04-30T15:18:03.722Z</time></trkpt><trkpt lat="40.0388017" lon="8.4810867"><ele>14.0</ele><time>2026-04-30T15:18:04.728Z</time></trkpt><trkpt lat="40.0387733" lon="8.4809983"><ele>14.000000000000002</ele><time>2026-04-30T15:18:05.728Z</time></trkpt><trkpt lat="40.03875" lon="8.48092"><ele>14.0</ele><time>2026-04-30T15:18:06.726Z</time></trkpt><trkpt lat="40.0387183" lon="8.48079"><ele>14.000000000000002</ele><time>2026-04-30T15:18:08.775Z</time></trkpt><trkpt lat="40.0387067" lon="8.4807083"><ele>14.0</ele><time>2026-04-30T15:18:10.729Z</time></trkpt><trkpt lat="40.038695" lon="8.4808133"><ele>14.0</ele><time>2026-04-30T15:23:37.731Z</time></trkpt><trkpt lat="40.03872" lon="8.4807267"><ele>14.0</ele><time>2026-04-30T15:24:44.77Z</time></trkpt><trkpt lat="40.0387567" lon="8.4806283"><ele>14.000000000000002</ele><time>2026-04-30T15:24:46.725Z</time></trkpt><trkpt lat="40.038815" lon="8.4804933"><ele>14.0</ele><time>2026-04-30T15:24:48.726Z</time></trkpt><trkpt lat="40.0388583" lon="8.480405"><ele>13.75</ele><time>2026-04-30T15:24:49.724Z</time></trkpt><trkpt lat="40.0389033" lon="8.48031"><ele>13.5</ele><time>2026-04-30T15:24:50.777Z</time></trkpt><trkpt lat="40.03895" lon="8.4802033"><ele>13.25</ele><time>2026-04-30T15:24:51.728Z</time></trkpt><trkpt lat="40.0390483" lon="8.4799667"><ele>13.0</ele><time>2026-04-30T15:24:53.724Z</time></trkpt><trkpt lat="40.0390933" lon="8.4798367"><ele>13.2</ele><time>2026-04-30T15:24:54.723Z</time></trkpt><trkpt lat="40.0391367" lon="8.479705"><ele>13.4</ele><time>2026-04-30T15:24:55.728Z</time></trkpt><trkpt lat="40.0391817" lon="8.479575"><ele>13.599999999999998</ele><time>2026-04-30T15:24:56.793Z</time></trkpt><trkpt lat="40.0392233" lon="8.4794517"><ele>13.799999999999999</ele><time>2026-04-30T15:24:57.725Z</time></trkpt><trkpt lat="40.0392583" lon="8.4793317"><ele>14.0</ele><time>2026-04-30T15:24:58.724Z</time></trkpt><trkpt lat="40.0392933" lon="8.4792167"><ele>14.0</ele><time>2026-04-30T15:24:59.725Z</time></trkpt><trkpt lat="40.03933" lon="8.4791033"><ele>13.999999999999998</ele><time>2026-04-30T15:25:00.726Z</time></trkpt><trkpt lat="40.039375" lon="8.4789917"><ele>13.999999999999998</ele><time>2026-04-30T15:25:01.728Z</time></trkpt><trkpt lat="40.03943" lon="8.4788817"><ele>14.0</ele><time>2026-04-30T15:25:02.771Z</time></trkpt><trkpt lat="40.0394933" lon="8.4787733"><ele>14.0</ele><time>2026-04-30T15:25:03.729Z</time></trkpt><trkpt lat="40.0395583" lon="8.4786767"><ele>13.2</ele><time>2026-04-30T15:25:04.725Z</time></trkpt><trkpt lat="40.03964" lon="8.4785883"><ele>12.399999999999999</ele><time>2026-04-30T15:25:05.727Z</time></trkpt><trkpt lat="40.0397167" lon="8.478495"><ele>11.6</ele><time>2026-04-30T15:25:06.727Z</time></trkpt><trkpt lat="40.0397867" lon="8.4783967"><ele>10.8</ele><time>2026-04-30T15:25:07.729Z</time></trkpt><trkpt lat="40.03985" lon="8.4783017"><ele>10.0</ele><time>2026-04-30T15:25:08.767Z</time></trkpt><trkpt lat="40.0399017" lon="8.4782183"><ele>10.0</ele><time>2026-04-30T15:25:09.725Z</time></trkpt><trkpt lat="40.0399633" lon="8.4781433"><ele>10.0</ele><time>2026-04-30T15:25:10.724Z</time></trkpt><trkpt lat="40.0400217" lon="8.4780667"><ele>10.0</ele><time>2026-04-30T15:25:11.729Z</time></trkpt><trkpt lat="40.040075" lon="8.4779967"><ele>10.0</ele><time>2026-04-30T15:25:12.725Z</time></trkpt><trkpt lat="40.0401333" lon="8.4779233"><ele>10.0</ele><time>2026-04-30T15:25:13.723Z</time></trkpt><trkpt lat="40.0401933" lon="8.4778467"><ele>10.0</ele><time>2026-04-30T15:25:14.776Z</time></trkpt><trkpt lat="40.0402483" lon="8.477775"><ele>10.166666666666668</ele><time>2026-04-30T15:25:15.73Z</time></trkpt><trkpt lat="40.0403" lon="8.477705"><ele>10.333333333333334</ele><time>2026-04-30T15:25:16.725Z</time></trkpt><trkpt lat="40.0403517" lon="8.4776267"><ele>10.5</ele><time>2026-04-30T15:25:17.729Z</time></trkpt><trkpt lat="40.0404033" lon="8.4775533"><ele>10.666666666666666</ele><time>2026-04-30T15:25:18.727Z</time></trkpt><trkpt lat="40.0404633" lon="8.4774867"><ele>10.833333333333332</ele><time>2026-04-30T15:25:19.727Z</time></trkpt><trkpt lat="40.0405267" lon="8.4774283"><ele>11.0</ele><time>2026-04-30T15:25:20.776Z</time></trkpt><trkpt lat="40.040595" lon="8.4773717"><ele>11.0</ele><time>2026-04-30T15:25:21.729Z</time></trkpt><trkpt lat="40.0406683" lon="8.4773117"><ele>11.0</ele><time>2026-04-30T15:25:22.724Z</time></trkpt><trkpt lat="40.0407417" lon="8.477255"><ele>11.0</ele><time>2026-04-30T15:25:23.727Z</time></trkpt><trkpt lat="40.04081" lon="8.4771967"><ele>11.0</ele><time>2026-04-30T15:25:24.734Z</time></trkpt><trkpt lat="40.04088" lon="8.4771367"><ele>11.0</ele><time>2026-04-30T15:25:25.726Z</time></trkpt><trkpt lat="40.0409367" lon="8.47707"><ele>11.0</ele><time>2026-04-30T15:25:26.791Z</time></trkpt><trkpt lat="40.0409917" lon="8.4769983"><ele>11.5</ele><time>2026-04-30T15:25:27.724Z</time></trkpt><trkpt lat="40.0410417" lon="8.4769183"><ele>12.0</ele><time>2026-04-30T15:25:28.724Z</time></trkpt><trkpt lat="40.0410933" lon="8.4768467"><ele>12.5</ele><time>2026-04-30T15:25:29.726Z</time></trkpt><trkpt lat="40.0411383" lon="8.4767783"><ele>13.0</ele><time>2026-04-30T15:25:30.727Z</time></trkpt><trkpt lat="40.041185" lon="8.4767117"><ele>13.500000000000002</ele><time>2026-04-30T15:25:31.728Z</time></trkpt><trkpt lat="40.0412233" lon="8.4766417"><ele>14.0</ele><time>2026-04-30T15:25:32.771Z</time></trkpt><trkpt lat="40.041295" lon="8.4765217"><ele>14.0</ele><time>2026-04-30T15:25:34.725Z</time></trkpt><trkpt lat="40.041375" lon="8.4764117"><ele>13.999999999999998</ele><time>2026-04-30T15:25:36.725Z</time></trkpt><trkpt lat="40.041435" lon="8.4762833"><ele>13.999999999999998</ele><time>2026-04-30T15:25:38.777Z</time></trkpt><trkpt lat="40.0414767" lon="8.476155"><ele>14.0</ele><time>2026-04-30T15:25:40.725Z</time></trkpt><trkpt lat="40.0414783" lon="8.4760167"><ele>14.0</ele><time>2026-04-30T15:25:42.724Z</time></trkpt><trkpt lat="40.0414433" lon="8.4759467"><ele>14.166666666666668</ele><time>2026-04-30T15:25:43.726Z</time></trkpt><trkpt lat="40.0413733" lon="8.47583"><ele>14.333333333333334</ele><time>2026-04-30T15:25:45.726Z</time></trkpt><trkpt lat="40.0412567" lon="8.47579"><ele>14.5</ele><time>2026-04-30T15:25:47.725Z</time></trkpt><trkpt lat="40.04119" lon="8.4757683"><ele>14.666666666666668</ele><time>2026-04-30T15:25:48.725Z</time></trkpt><trkpt lat="40.0411267" lon="8.4757433"><ele>14.833333333333334</ele><time>2026-04-30T15:25:49.729Z</time></trkpt><trkpt lat="40.0410683" lon="8.4757067"><ele>15.0</ele><time>2026-04-30T15:25:50.769Z</time></trkpt><trkpt lat="40.0410117" lon="8.4756667"><ele>15.0</ele><time>2026-04-30T15:25:51.727Z</time></trkpt><trkpt lat="40.0409683" lon="8.475605"><ele>15.0</ele><time>2026-04-30T15:25:52.729Z</time></trkpt><trkpt lat="40.0409217" lon="8.4755167"><ele>15.0</ele><time>2026-04-30T15:25:53.727Z</time></trkpt><trkpt lat="40.0408533" lon="8.4752933"><ele>15.0</ele><time>2026-04-30T15:25:56.789Z</time></trkpt><trkpt lat="40.0408417" lon="8.4751417"><ele>15.0</ele><time>2026-04-30T15:25:58.725Z</time></trkpt><trkpt lat="40.0408517" lon="8.475005"><ele>15.75</ele><time>2026-04-30T15:26:00.73Z</time></trkpt><trkpt lat="40.0409533" lon="8.4748483"><ele>16.5</ele><time>2026-04-30T15:26:03.727Z</time></trkpt><trkpt lat="40.0410283" lon="8.474715"><ele>17.25</ele><time>2026-04-30T15:26:05.729Z</time></trkpt><trkpt lat="40.04106" lon="8.474575"><ele>18.0</ele><time>2026-04-30T15:26:07.728Z</time></trkpt><trkpt lat="40.0410417" lon="8.4744217"><ele>18.0</ele><time>2026-04-30T15:26:09.725Z</time></trkpt><trkpt lat="40.0410133" lon="8.4743383"><ele>18.0</ele><time>2026-04-30T15:26:10.725Z</time></trkpt><trkpt lat="40.040975" lon="8.4742367"><ele>18.0</ele><time>2026-04-30T15:26:11.726Z</time></trkpt><trkpt lat="40.0409183" lon="8.4741317"><ele>18.0</ele><time>2026-04-30T15:26:12.721Z</time></trkpt><trkpt lat="40.0408533" lon="8.4740067"><ele>18.0</ele><time>2026-04-30T15:26:13.73Z</time></trkpt><trkpt lat="40.040785" lon="8.4738783"><ele>16.6</ele><time>2026-04-30T15:26:14.774Z</time></trkpt><trkpt lat="40.040725" lon="8.47376"><ele>15.200000000000001</ele><time>2026-04-30T15:26:15.724Z</time></trkpt><trkpt lat="40.0406667" lon="8.473635"><ele>13.8</ele><time>2026-04-30T15:26:16.722Z</time></trkpt><trkpt lat="40.0406083" lon="8.4735283"><ele>12.4</ele><time>2026-04-30T15:26:17.726Z</time></trkpt><trkpt lat="40.0405583" lon="8.4734317"><ele>11.0</ele><time>2026-04-30T15:26:18.725Z</time></trkpt><trkpt lat="40.0405033" lon="8.4733433"><ele>11.0</ele><time>2026-04-30T15:26:19.726Z</time></trkpt><trkpt lat="40.04045" lon="8.473265"><ele>11.0</ele><time>2026-04-30T15:26:20.769Z</time></trkpt><trkpt lat="40.0403967" lon="8.4731767"><ele>11.0</ele><time>2026-04-30T15:26:21.724Z</time></trkpt><trkpt lat="40.0403483" lon="8.4730783"><ele>11.0</ele><time>2026-04-30T15:26:22.726Z</time></trkpt><trkpt lat="40.040305" lon="8.4729733"><ele>11.0</ele><time>2026-04-30T15:26:23.725Z</time></trkpt><trkpt lat="40.0402683" lon="8.4728617"><ele>11.0</ele><time>2026-04-30T15:26:24.725Z</time></trkpt><trkpt lat="40.0402367" lon="8.47275"><ele>11.4</ele><time>2026-04-30T15:26:25.725Z</time></trkpt><trkpt lat="40.0402133" lon="8.4726283"><ele>11.8</ele><time>2026-04-30T15:26:26.789Z</time></trkpt><trkpt lat="40.0401933" lon="8.4725117"><ele>12.200000000000001</ele><time>2026-04-30T15:26:27.723Z</time></trkpt><trkpt lat="40.0401683" lon="8.4723967"><ele>12.600000000000001</ele><time>2026-04-30T15:26:28.724Z</time></trkpt><trkpt lat="40.0401433" lon="8.4722817"><ele>13.0</ele><time>2026-04-30T15:26:29.726Z</time></trkpt><trkpt lat="40.0401217" lon="8.4721667"><ele>13.2</ele><time>2026-04-30T15:26:30.722Z</time></trkpt><trkpt lat="40.0401067" lon="8.4720383"><ele>13.4</ele><time>2026-04-30T15:26:31.726Z</time></trkpt><trkpt lat="40.040085" lon="8.4719067"><ele>13.599999999999998</ele><time>2026-04-30T15:26:32.767Z</time></trkpt><trkpt lat="40.040065" lon="8.4717783"><ele>13.799999999999999</ele><time>2026-04-30T15:26:33.727Z</time></trkpt><trkpt lat="40.0400483" lon="8.47166"><ele>14.0</ele><time>2026-04-30T15:26:34.724Z</time></trkpt><trkpt lat="40.040025" lon="8.4715417"><ele>14.000000000000002</ele><time>2026-04-30T15:26:35.724Z</time></trkpt><trkpt lat="40.0400017" lon="8.471425"><ele>14.0</ele><time>2026-04-30T15:26:36.728Z</time></trkpt><trkpt lat="40.0399767" lon="8.471315"><ele>14.0</ele><time>2026-04-30T15:26:37.727Z</time></trkpt><trkpt lat="40.03995" lon="8.471205"><ele>14.0</ele><time>2026-04-30T15:26:38.77Z</time></trkpt><trkpt lat="40.0399233" lon="8.4710983"><ele>14.000000000000002</ele><time>2026-04-30T15:26:39.726Z</time></trkpt><trkpt lat="40.0398983" lon="8.4709933"><ele>14.0</ele><time>2026-04-30T15:26:40.725Z</time></trkpt><trkpt lat="40.0398733" lon="8.4708867"><ele>13.333333333333334</ele><time>2026-04-30T15:26:41.728Z</time></trkpt><trkpt lat="40.0398517" lon="8.47078"><ele>12.666666666666668</ele><time>2026-04-30T15:26:42.726Z</time></trkpt><trkpt lat="40.03983" lon="8.470685"><ele>12.0</ele><time>2026-04-30T15:26:43.725Z</time></trkpt><trkpt lat="40.0398083" lon="8.4706017"><ele>11.333333333333334</ele><time>2026-04-30T15:26:44.767Z</time></trkpt><trkpt lat="40.0397617" lon="8.4704867"><ele>10.666666666666668</ele><time>2026-04-30T15:26:46.722Z</time></trkpt><trkpt lat="40.0397117" lon="8.470585"><ele>10.0</ele><time>2026-04-30T15:28:28.723Z</time></trkpt><trkpt lat="40.0397067" lon="8.47046"><ele>10.5</ele><time>2026-04-30T15:32:34.723Z</time></trkpt><trkpt lat="40.0397267" lon="8.4703383"><ele>11.0</ele><time>2026-04-30T15:32:36.728Z</time></trkpt><trkpt lat="40.0397367" lon="8.470195"><ele>11.5</ele><time>2026-04-30T15:32:38.77Z</time></trkpt><trkpt lat="40.03978" lon="8.4700717"><ele>12.0</ele><time>2026-04-30T15:32:40.727Z</time></trkpt><trkpt lat="40.039815" lon="8.4700017"><ele>12.499999999999998</ele><time>2026-04-30T15:32:41.734Z</time></trkpt><trkpt lat="40.0398583" lon="8.469925"><ele>13.0</ele><time>2026-04-30T15:32:42.731Z</time></trkpt><trkpt lat="40.0399017" lon="8.46984"><ele>12.999999999999998</ele><time>2026-04-30T15:32:43.726Z</time></trkpt><trkpt lat="40.03994" lon="8.46976"><ele>13.0</ele><time>2026-04-30T15:32:44.77Z</time></trkpt><trkpt lat="40.0399867" lon="8.4696767"><ele>13.0</ele><time>2026-04-30T15:32:45.729Z</time></trkpt><trkpt lat="40.0400283" lon="8.4695967"><ele>13.0</ele><time>2026-04-30T15:32:46.735Z</time></trkpt><trkpt lat="40.04007" lon="8.4695133"><ele>12.999999999999998</ele><time>2026-04-30T15:32:47.727Z</time></trkpt><trkpt lat="40.0401133" lon="8.4694267"><ele>13.0</ele><time>2026-04-30T15:32:48.726Z</time></trkpt><trkpt lat="40.04015" lon="8.4693467"><ele>13.428571428571427</ele><time>2026-04-30T15:32:49.722Z</time></trkpt><trkpt lat="40.0401883" lon="8.4692683"><ele>13.857142857142858</ele><time>2026-04-30T15:32:50.765Z</time></trkpt><trkpt lat="40.04023" lon="8.4691933"><ele>14.285714285714285</ele><time>2026-04-30T15:32:51.724Z</time></trkpt><trkpt lat="40.0402717" lon="8.4691117"><ele>14.714285714285714</ele><time>2026-04-30T15:32:52.721Z</time></trkpt><trkpt lat="40.04031" lon="8.4690383"><ele>15.142857142857142</ele><time>2026-04-30T15:32:53.724Z</time></trkpt><trkpt lat="40.04034" lon="8.4689633"><ele>15.571428571428571</ele><time>2026-04-30T15:32:54.725Z</time></trkpt><trkpt lat="40.0404017" lon="8.4689033"><ele>16.0</ele><time>2026-04-30T15:32:55.722Z</time></trkpt><trkpt lat="40.040475" lon="8.4687883"><ele>15.999999999999998</ele><time>2026-04-30T15:32:57.728Z</time></trkpt><trkpt lat="40.0405217" lon="8.46869"><ele>16.0</ele><time>2026-04-30T15:32:59.726Z</time></trkpt><trkpt lat="40.04056" lon="8.468605"><ele>16.0</ele><time>2026-04-30T15:33:01.726Z</time></trkpt><trkpt lat="40.0405783" lon="8.4684967"><ele>16.0</ele><time>2026-04-30T15:33:04.724Z</time></trkpt><trkpt lat="40.0405283" lon="8.4684217"><ele>15.999999999999998</ele><time>2026-04-30T15:33:07.724Z</time></trkpt><trkpt lat="40.04046" lon="8.4684067"><ele>16.0</ele><time>2026-04-30T15:33:10.725Z</time></trkpt><trkpt lat="40.0403583" lon="8.4683917"><ele>16.0</ele><time>2026-04-30T15:33:26.764Z</time></trkpt><trkpt lat="40.04025" lon="8.4683833"><ele>16.0</ele><time>2026-04-30T15:33:30.726Z</time></trkpt><trkpt lat="40.04018" lon="8.468355"><ele>16.0</ele><time>2026-04-30T15:33:32.768Z</time></trkpt><trkpt lat="40.0401217" lon="8.4683117"><ele>16.0</ele><time>2026-04-30T15:33:34.729Z</time></trkpt><trkpt lat="40.040025" lon="8.4682533"><ele>16.0</ele><time>2026-04-30T15:33:36.727Z</time></trkpt><trkpt lat="40.0399117" lon="8.4682"><ele>16.166666666666664</ele><time>2026-04-30T15:33:38.764Z</time></trkpt><trkpt lat="40.0398483" lon="8.4681683"><ele>16.333333333333332</ele><time>2026-04-30T15:33:39.728Z</time></trkpt><trkpt lat="40.0397833" lon="8.468135"><ele>16.5</ele><time>2026-04-30T15:33:40.729Z</time></trkpt><trkpt lat="40.0396917" lon="8.46809"><ele>16.666666666666668</ele><time>2026-04-30T15:33:41.724Z</time></trkpt><trkpt lat="40.039605" lon="8.4680333"><ele>16.833333333333336</ele><time>2026-04-30T15:33:42.726Z</time></trkpt><trkpt lat="40.0395117" lon="8.4679817"><ele>17.0</ele><time>2026-04-30T15:33:43.722Z</time></trkpt><trkpt lat="40.0394067" lon="8.4678983"><ele>17.0</ele><time>2026-04-30T15:33:44.768Z</time></trkpt><trkpt lat="40.03931" lon="8.4677333"><ele>17.0</ele><time>2026-04-30T15:33:45.725Z</time></trkpt><trkpt lat="40.0392" lon="8.4676383"><ele>17.0</ele><time>2026-04-30T15:33:46.724Z</time></trkpt><trkpt lat="40.0390933" lon="8.4675417"><ele>17.0</ele><time>2026-04-30T15:33:47.729Z</time></trkpt><trkpt lat="40.0389983" lon="8.4674317"><ele>16.5</ele><time>2026-04-30T15:33:48.725Z</time></trkpt><trkpt lat="40.0389017" lon="8.4673433"><ele>16.0</ele><time>2026-04-30T15:33:49.723Z</time></trkpt><trkpt lat="40.0388083" lon="8.4672683"><ele>15.5</ele><time>2026-04-30T15:33:50.769Z</time></trkpt><trkpt lat="40.0387083" lon="8.4671917"><ele>15.0</ele><time>2026-04-30T15:33:51.724Z</time></trkpt><trkpt lat="40.0386167" lon="8.4671117"><ele>15.2</ele><time>2026-04-30T15:33:52.727Z</time></trkpt><trkpt lat="40.03853" lon="8.4670433"><ele>15.4</ele><time>2026-04-30T15:33:53.725Z</time></trkpt><trkpt lat="40.0384483" lon="8.4669833"><ele>15.600000000000001</ele><time>2026-04-30T15:33:54.725Z</time></trkpt><trkpt lat="40.0383617" lon="8.4669217"><ele>15.8</ele><time>2026-04-30T15:33:55.727Z</time></trkpt><trkpt lat="40.0382833" lon="8.4668533"><ele>16.0</ele><time>2026-04-30T15:33:56.79Z</time></trkpt><trkpt lat="40.0381967" lon="8.4668117"><ele>16.0</ele><time>2026-04-30T15:33:57.729Z</time></trkpt><trkpt lat="40.0381" lon="8.466775"><ele>16.0</ele><time>2026-04-30T15:33:58.725Z</time></trkpt><trkpt lat="40.0379967" lon="8.4667333"><ele>16.0</ele><time>2026-04-30T15:33:59.728Z</time></trkpt><trkpt lat="40.0379067" lon="8.4667333"><ele>16.0</ele><time>2026-04-30T15:34:00.73Z</time></trkpt><trkpt lat="40.037825" lon="8.46673"><ele>16.0</ele><time>2026-04-30T15:34:01.722Z</time></trkpt><trkpt lat="40.0377367" lon="8.46673"><ele>16.0</ele><time>2026-04-30T15:34:02.767Z</time></trkpt><trkpt lat="40.03764" lon="8.4667483"><ele>16.0</ele><time>2026-04-30T15:34:03.723Z</time></trkpt><trkpt lat="40.0375383" lon="8.466785"><ele>16.0</ele><time>2026-04-30T15:34:04.726Z</time></trkpt><trkpt lat="40.03743" lon="8.466805"><ele>16.0</ele><time>2026-04-30T15:34:05.725Z</time></trkpt><trkpt lat="40.0373267" lon="8.4668083"><ele>16.0</ele><time>2026-04-30T15:34:06.726Z</time></trkpt><trkpt lat="40.0372117" lon="8.46683"><ele>15.833333333333332</ele><time>2026-04-30T15:34:07.727Z</time></trkpt><trkpt lat="40.03711" lon="8.4668267"><ele>15.666666666666666</ele><time>2026-04-30T15:34:08.766Z</time></trkpt><trkpt lat="40.0370083" lon="8.466825"><ele>15.5</ele><time>2026-04-30T15:34:09.723Z</time></trkpt><trkpt lat="40.0369117" lon="8.466825"><ele>15.333333333333332</ele><time>2026-04-30T15:34:10.722Z</time></trkpt><trkpt lat="40.0368383" lon="8.466815"><ele>15.166666666666666</ele><time>2026-04-30T15:34:11.722Z</time></trkpt><trkpt lat="40.03677" lon="8.4668233"><ele>15.0</ele><time>2026-04-30T15:34:12.726Z</time></trkpt><trkpt lat="40.0367017" lon="8.4668617"><ele>15.0</ele><time>2026-04-30T15:34:13.725Z</time></trkpt><trkpt lat="40.0366367" lon="8.4669017"><ele>15.0</ele><time>2026-04-30T15:34:14.77Z</time></trkpt><trkpt lat="40.036575" lon="8.4669433"><ele>15.0</ele><time>2026-04-30T15:34:15.723Z</time></trkpt><trkpt lat="40.0365183" lon="8.4669833"><ele>15.0</ele><time>2026-04-30T15:34:16.723Z</time></trkpt><trkpt lat="40.0364333" lon="8.4671"><ele>15.0</ele><time>2026-04-30T15:34:18.725Z</time></trkpt><trkpt lat="40.0364083" lon="8.4671833"><ele>15.0</ele><time>2026-04-30T15:34:19.725Z</time></trkpt><trkpt lat="40.0363833" lon="8.467305"><ele>14.25</ele><time>2026-04-30T15:34:20.766Z</time></trkpt><trkpt lat="40.0363533" lon="8.4674167"><ele>13.5</ele><time>2026-04-30T15:34:21.728Z</time></trkpt><trkpt lat="40.036355" lon="8.4675567"><ele>12.75</ele><time>2026-04-30T15:34:22.726Z</time></trkpt><trkpt lat="40.0363667" lon="8.4677267"><ele>12.0</ele><time>2026-04-30T15:34:23.72Z</time></trkpt><trkpt lat="40.0363617" lon="8.467905"><ele>11.0</ele><time>2026-04-30T15:34:24.726Z</time></trkpt><trkpt lat="40.03637" lon="8.4680933"><ele>10.0</ele><time>2026-04-30T15:34:25.725Z</time></trkpt><trkpt lat="40.0363583" lon="8.4682517"><ele>9.0</ele><time>2026-04-30T15:34:26.788Z</time></trkpt><trkpt lat="40.0363533" lon="8.46841"><ele>8.0</ele><time>2026-04-30T15:34:27.725Z</time></trkpt><trkpt lat="40.0363367" lon="8.4685533"><ele>8.0</ele><time>2026-04-30T15:34:28.727Z</time></trkpt><trkpt lat="40.0363017" lon="8.4686867"><ele>8.0</ele><time>2026-04-30T15:34:29.725Z</time></trkpt><trkpt lat="40.0362383" lon="8.4688217"><ele>8.0</ele><time>2026-04-30T15:34:30.727Z</time></trkpt><trkpt lat="40.036175" lon="8.4689183"><ele>8.0</ele><time>2026-04-30T15:34:31.722Z</time></trkpt><trkpt lat="40.0360917" lon="8.4690117"><ele>8.0</ele><time>2026-04-30T15:34:32.772Z</time></trkpt><trkpt lat="40.0359967" lon="8.46908"><ele>7.75</ele><time>2026-04-30T15:34:33.725Z</time></trkpt><trkpt lat="40.0358767" lon="8.46913"><ele>7.5</ele><time>2026-04-30T15:34:34.723Z</time></trkpt><trkpt lat="40.0357433" lon="8.469155"><ele>7.25</ele><time>2026-04-30T15:34:35.724Z</time></trkpt><trkpt lat="40.0356133" lon="8.4691783"><ele>7.0</ele><time>2026-04-30T15:34:36.732Z</time></trkpt><trkpt lat="40.0354733" lon="8.4691933"><ele>7.0</ele><time>2026-04-30T15:34:37.726Z</time></trkpt><trkpt lat="40.03533" lon="8.4692017"><ele>7.0</ele><time>2026-04-30T15:34:38.772Z</time></trkpt><trkpt lat="40.03518" lon="8.4692067"><ele>7.0</ele><time>2026-04-30T15:34:39.723Z</time></trkpt><trkpt lat="40.0350367" lon="8.469215"><ele>7.0</ele><time>2026-04-30T15:34:40.725Z</time></trkpt><trkpt lat="40.0348967" lon="8.4692133"><ele>7.0</ele><time>2026-04-30T15:34:41.725Z</time></trkpt><trkpt lat="40.034765" lon="8.469215"><ele>7.0</ele><time>2026-04-30T15:34:42.723Z</time></trkpt><trkpt lat="40.034645" lon="8.4692117"><ele>7.0</ele><time>2026-04-30T15:34:43.724Z</time></trkpt><trkpt lat="40.0345283" lon="8.4692133"><ele>7.0</ele><time>2026-04-30T15:34:44.765Z</time></trkpt><trkpt lat="40.03443" lon="8.4692233"><ele>7.0</ele><time>2026-04-30T15:34:45.726Z</time></trkpt><trkpt lat="40.0343333" lon="8.469225"><ele>6.999999999999999</ele><time>2026-04-30T15:34:46.725Z</time></trkpt><trkpt lat="40.0342433" lon="8.4692283"><ele>6.999999999999999</ele><time>2026-04-30T15:34:47.726Z</time></trkpt><trkpt lat="40.0341567" lon="8.4692333"><ele>7.0</ele><time>2026-04-30T15:34:48.723Z</time></trkpt><trkpt lat="40.03407" lon="8.4692367"><ele>7.0</ele><time>2026-04-30T15:34:49.723Z</time></trkpt><trkpt lat="40.0339783" lon="8.4692433"><ele>7.0</ele><time>2026-04-30T15:34:50.767Z</time></trkpt><trkpt lat="40.0338767" lon="8.4692533"><ele>7.0</ele><time>2026-04-30T15:34:51.725Z</time></trkpt><trkpt lat="40.0337583" lon="8.46924"><ele>7.0</ele><time>2026-04-30T15:34:52.725Z</time></trkpt><trkpt lat="40.0336333" lon="8.46924"><ele>7.0</ele><time>2026-04-30T15:34:53.725Z</time></trkpt><trkpt lat="40.0334883" lon="8.4692317"><ele>7.0</ele><time>2026-04-30T15:34:54.725Z</time></trkpt><trkpt lat="40.03333" lon="8.4692067"><ele>7.0</ele><time>2026-04-30T15:34:55.727Z</time></trkpt><trkpt lat="40.0331733" lon="8.4692233"><ele>7.0</ele><time>2026-04-30T15:34:56.789Z</time></trkpt><trkpt lat="40.0330283" lon="8.4692683"><ele>6.75</ele><time>2026-04-30T15:34:57.723Z</time></trkpt><trkpt lat="40.0328883" lon="8.4693167"><ele>6.5</ele><time>2026-04-30T15:34:58.721Z</time></trkpt><trkpt lat="40.03275" lon="8.4693817"><ele>6.25</ele><time>2026-04-30T15:34:59.723Z</time></trkpt><trkpt lat="40.0326217" lon="8.4694617"><ele>6.0</ele><time>2026-04-30T15:35:00.724Z</time></trkpt><trkpt lat="40.0325033" lon="8.4696283"><ele>7.333333333333334</ele><time>2026-04-30T15:35:01.728Z</time></trkpt><trkpt lat="40.0324117" lon="8.469795"><ele>8.666666666666668</ele><time>2026-04-30T15:35:02.748Z</time></trkpt><trkpt lat="40.03231" lon="8.469955"><ele>10.0</ele><time>2026-04-30T15:35:03.724Z</time></trkpt><trkpt lat="40.03221" lon="8.4701217"><ele>10.0</ele><time>2026-04-30T15:35:04.725Z</time></trkpt><trkpt lat="40.032105" lon="8.4703117"><ele>10.0</ele><time>2026-04-30T15:35:05.722Z</time></trkpt><trkpt lat="40.032" lon="8.4704867"><ele>10.0</ele><time>2026-04-30T15:35:06.724Z</time></trkpt><trkpt lat="40.031895" lon="8.47065"><ele>10.0</ele><time>2026-04-30T15:35:07.726Z</time></trkpt><trkpt lat="40.0317967" lon="8.4708267"><ele>10.0</ele><time>2026-04-30T15:35:08.774Z</time></trkpt><trkpt lat="40.03169" lon="8.4709983"><ele>10.0</ele><time>2026-04-30T15:35:09.725Z</time></trkpt><trkpt lat="40.0315783" lon="8.4711667"><ele>9.666666666666668</ele><time>2026-04-30T15:35:10.725Z</time></trkpt><trkpt lat="40.0314583" lon="8.471325"><ele>9.333333333333334</ele><time>2026-04-30T15:35:11.723Z</time></trkpt><trkpt lat="40.03134" lon="8.4714767"><ele>9.0</ele><time>2026-04-30T15:35:12.729Z</time></trkpt><trkpt lat="40.031225" lon="8.4716217"><ele>9.0</ele><time>2026-04-30T15:35:13.723Z</time></trkpt><trkpt lat="40.0311117" lon="8.4717567"><ele>9.0</ele><time>2026-04-30T15:35:14.769Z</time></trkpt><trkpt lat="40.030995" lon="8.4718833"><ele>9.0</ele><time>2026-04-30T15:35:15.723Z</time></trkpt><trkpt lat="40.0308867" lon="8.471995"><ele>9.0</ele><time>2026-04-30T15:35:16.725Z</time></trkpt><trkpt lat="40.0307717" lon="8.472095"><ele>8.25</ele><time>2026-04-30T15:35:17.729Z</time></trkpt><trkpt lat="40.0306567" lon="8.4721933"><ele>7.5</ele><time>2026-04-30T15:35:18.725Z</time></trkpt><trkpt lat="40.030535" lon="8.4722867"><ele>6.75</ele><time>2026-04-30T15:35:19.727Z</time></trkpt><trkpt lat="40.0304117" lon="8.4723817"><ele>6.0</ele><time>2026-04-30T15:35:20.771Z</time></trkpt><trkpt lat="40.0302883" lon="8.472485"><ele>6.0</ele><time>2026-04-30T15:35:21.721Z</time></trkpt><trkpt lat="40.03016" lon="8.4725833"><ele>6.0</ele><time>2026-04-30T15:35:22.723Z</time></trkpt><trkpt lat="40.0300183" lon="8.4726833"><ele>6.0</ele><time>2026-04-30T15:35:23.722Z</time></trkpt><trkpt lat="40.0298767" lon="8.4727817"><ele>6.333333333333334</ele><time>2026-04-30T15:35:24.725Z</time></trkpt><trkpt lat="40.0297283" lon="8.47288"><ele>6.666666666666667</ele><time>2026-04-30T15:35:25.724Z</time></trkpt><trkpt lat="40.02958" lon="8.4729833"><ele>7.0</ele><time>2026-04-30T15:35:26.788Z</time></trkpt><trkpt lat="40.0294283" lon="8.4730867"><ele>7.0</ele><time>2026-04-30T15:35:27.72Z</time></trkpt><trkpt lat="40.0292733" lon="8.47319"><ele>7.0</ele><time>2026-04-30T15:35:28.724Z</time></trkpt><trkpt lat="40.029115" lon="8.4732933"><ele>7.0</ele><time>2026-04-30T15:35:29.725Z</time></trkpt><trkpt lat="40.0289533" lon="8.4733983"><ele>7.333333333333334</ele><time>2026-04-30T15:35:30.724Z</time></trkpt><trkpt lat="40.0287883" lon="8.4734983"><ele>7.666666666666666</ele><time>2026-04-30T15:35:31.721Z</time></trkpt><trkpt lat="40.0286233" lon="8.473595"><ele>8.0</ele><time>2026-04-30T15:35:32.765Z</time></trkpt><trkpt lat="40.0284533" lon="8.4736983"><ele>7.333333333333333</ele><time>2026-04-30T15:35:33.727Z</time></trkpt><trkpt lat="40.028285" lon="8.4738033"><ele>6.666666666666666</ele><time>2026-04-30T15:35:34.724Z</time></trkpt><trkpt lat="40.0281167" lon="8.473915"><ele>6.0</ele><time>2026-04-30T15:35:35.725Z</time></trkpt><trkpt lat="40.0279517" lon="8.47403"><ele>6.0</ele><time>2026-04-30T15:35:36.725Z</time></trkpt><trkpt lat="40.02778" lon="8.4741417"><ele>6.0</ele><time>2026-04-30T15:35:37.727Z</time></trkpt><trkpt lat="40.0276083" lon="8.4742567"><ele>6.0</ele><time>2026-04-30T15:35:38.769Z</time></trkpt><trkpt lat="40.0274367" lon="8.4743767"><ele>6.0</ele><time>2026-04-30T15:35:39.724Z</time></trkpt><trkpt lat="40.0272667" lon="8.4744983"><ele>6.0</ele><time>2026-04-30T15:35:40.725Z</time></trkpt><trkpt lat="40.027095" lon="8.47462"><ele>6.0</ele><time>2026-04-30T15:35:41.722Z</time></trkpt><trkpt lat="40.02692" lon="8.4747433"><ele>6.0</ele><time>2026-04-30T15:35:42.721Z</time></trkpt><trkpt lat="40.02675" lon="8.474865"><ele>6.0</ele><time>2026-04-30T15:35:43.725Z</time></trkpt><trkpt lat="40.0265833" lon="8.47497"><ele>6.0</ele><time>2026-04-30T15:35:44.765Z</time></trkpt><trkpt lat="40.0264183" lon="8.4750783"><ele>7.0</ele><time>2026-04-30T15:35:45.725Z</time></trkpt><trkpt lat="40.02626" lon="8.4751933"><ele>8.0</ele><time>2026-04-30T15:35:46.726Z</time></trkpt><trkpt lat="40.026105" lon="8.475315"><ele>9.0</ele><time>2026-04-30T15:35:47.723Z</time></trkpt><trkpt lat="40.0259483" lon="8.4754133"><ele>9.333333333333334</ele><time>2026-04-30T15:35:48.723Z</time></trkpt><trkpt lat="40.0257967" lon="8.475515"><ele>9.666666666666668</ele><time>2026-04-30T15:35:49.725Z</time></trkpt><trkpt lat="40.02565" lon="8.4756417"><ele>10.0</ele><time>2026-04-30T15:35:50.773Z</time></trkpt><trkpt lat="40.02551" lon="8.4757733"><ele>10.0</ele><time>2026-04-30T15:35:51.725Z</time></trkpt><trkpt lat="40.025365" lon="8.475925"><ele>10.0</ele><time>2026-04-30T15:35:52.726Z</time></trkpt><trkpt lat="40.0252217" lon="8.4760783"><ele>10.0</ele><time>2026-04-30T15:35:53.724Z</time></trkpt><trkpt lat="40.0250733" lon="8.4762433"><ele>10.0</ele><time>2026-04-30T15:35:54.725Z</time></trkpt><trkpt lat="40.02493" lon="8.4764117"><ele>10.0</ele><time>2026-04-30T15:35:55.726Z</time></trkpt><trkpt lat="40.02479" lon="8.47658"><ele>10.0</ele><time>2026-04-30T15:35:56.752Z</time></trkpt><trkpt lat="40.0246517" lon="8.4767483"><ele>10.0</ele><time>2026-04-30T15:35:57.72Z</time></trkpt><trkpt lat="40.0245133" lon="8.47692"><ele>10.0</ele><time>2026-04-30T15:35:58.722Z</time></trkpt><trkpt lat="40.024375" lon="8.4770883"><ele>10.0</ele><time>2026-04-30T15:35:59.72Z</time></trkpt><trkpt lat="40.0242283" lon="8.4772417"><ele>9.666666666666668</ele><time>2026-04-30T15:36:00.726Z</time></trkpt><trkpt lat="40.024085" lon="8.4773933"><ele>9.333333333333334</ele><time>2026-04-30T15:36:01.725Z</time></trkpt><trkpt lat="40.02394" lon="8.47753"><ele>9.0</ele><time>2026-04-30T15:36:02.767Z</time></trkpt><trkpt lat="40.023795" lon="8.4776617"><ele>9.0</ele><time>2026-04-30T15:36:03.721Z</time></trkpt><trkpt lat="40.0236483" lon="8.4777867"><ele>9.0</ele><time>2026-04-30T15:36:04.725Z</time></trkpt><trkpt lat="40.0235033" lon="8.4779133"><ele>9.0</ele><time>2026-04-30T15:36:05.719Z</time></trkpt><trkpt lat="40.0233567" lon="8.47804"><ele>9.333333333333334</ele><time>2026-04-30T15:36:06.725Z</time></trkpt><trkpt lat="40.023205" lon="8.4781533"><ele>9.666666666666668</ele><time>2026-04-30T15:36:07.728Z</time></trkpt><trkpt lat="40.0230533" lon="8.4782617"><ele>10.0</ele><time>2026-04-30T15:36:08.765Z</time></trkpt><trkpt lat="40.0229033" lon="8.478365"><ele>10.0</ele><time>2026-04-30T15:36:09.725Z</time></trkpt><trkpt lat="40.0227533" lon="8.4784617"><ele>10.0</ele><time>2026-04-30T15:36:10.721Z</time></trkpt><trkpt lat="40.02262" lon="8.4785633"><ele>10.0</ele><time>2026-04-30T15:36:11.721Z</time></trkpt><trkpt lat="40.02249" lon="8.4786583"><ele>9.75</ele><time>2026-04-30T15:36:12.725Z</time></trkpt><trkpt lat="40.0223633" lon="8.4787433"><ele>9.5</ele><time>2026-04-30T15:36:13.723Z</time></trkpt><trkpt lat="40.0222333" lon="8.4788283"><ele>9.25</ele><time>2026-04-30T15:36:14.765Z</time></trkpt><trkpt lat="40.0221083" lon="8.47891"><ele>9.0</ele><time>2026-04-30T15:36:15.723Z</time></trkpt><trkpt lat="40.022" lon="8.478975"><ele>9.0</ele><time>2026-04-30T15:36:16.723Z</time></trkpt><trkpt lat="40.0219133" lon="8.4789567"><ele>9.0</ele><time>2026-04-30T15:36:17.726Z</time></trkpt><trkpt lat="40.02183" lon="8.478905"><ele>9.0</ele><time>2026-04-30T15:36:19.721Z</time></trkpt><trkpt lat="40.0218467" lon="8.4788"><ele>9.0</ele><time>2026-04-30T15:36:22.723Z</time></trkpt><trkpt lat="40.0219467" lon="8.4787317"><ele>9.0</ele><time>2026-04-30T15:36:38.764Z</time></trkpt><trkpt lat="40.0219133" lon="8.4788083"><ele>9.0</ele><time>2026-04-30T15:36:42.726Z</time></trkpt><trkpt lat="40.0218933" lon="8.4788967"><ele>8.8</ele><time>2026-04-30T15:36:43.726Z</time></trkpt><trkpt lat="40.0218667" lon="8.4790067"><ele>8.600000000000001</ele><time>2026-04-30T15:36:44.765Z</time></trkpt><trkpt lat="40.02183" lon="8.47914"><ele>8.4</ele><time>2026-04-30T15:36:45.72Z</time></trkpt><trkpt lat="40.021795" lon="8.47929"><ele>8.200000000000001</ele><time>2026-04-30T15:36:46.722Z</time></trkpt><trkpt lat="40.02176" lon="8.47945"><ele>8.0</ele><time>2026-04-30T15:36:47.722Z</time></trkpt><trkpt lat="40.0217083" lon="8.4796267"><ele>8.0</ele><time>2026-04-30T15:36:48.725Z</time></trkpt><trkpt lat="40.0216517" lon="8.47983"><ele>8.0</ele><time>2026-04-30T15:36:49.724Z</time></trkpt><trkpt lat="40.0215917" lon="8.4800367"><ele>8.0</ele><time>2026-04-30T15:36:50.764Z</time></trkpt><trkpt lat="40.0215283" lon="8.4802567"><ele>7.666666666666666</ele><time>2026-04-30T15:36:51.724Z</time></trkpt><trkpt lat="40.0214617" lon="8.480485"><ele>7.333333333333334</ele><time>2026-04-30T15:36:52.722Z</time></trkpt><trkpt lat="40.0213917" lon="8.48072"><ele>7.0</ele><time>2026-04-30T15:36:53.727Z</time></trkpt><trkpt lat="40.0213167" lon="8.480955"><ele>7.0</ele><time>2026-04-30T15:36:54.725Z</time></trkpt><trkpt lat="40.0212417" lon="8.4812117"><ele>7.0</ele><time>2026-04-30T15:36:55.721Z</time></trkpt><trkpt lat="40.0211633" lon="8.481475"><ele>7.0</ele><time>2026-04-30T15:36:56.792Z</time></trkpt><trkpt lat="40.0210817" lon="8.48175"><ele>6.5</ele><time>2026-04-30T15:36:57.719Z</time></trkpt><trkpt lat="40.0209983" lon="8.4820233"><ele>6.0</ele><time>2026-04-30T15:36:58.725Z</time></trkpt><trkpt lat="40.0209133" lon="8.4823033"><ele>7.0</ele><time>2026-04-30T15:36:59.727Z</time></trkpt><trkpt lat="40.02083" lon="8.4825817"><ele>8.0</ele><time>2026-04-30T15:37:00.727Z</time></trkpt><trkpt lat="40.020745" lon="8.4828617"><ele>8.5</ele><time>2026-04-30T15:37:01.728Z</time></trkpt><trkpt lat="40.0206617" lon="8.4831383"><ele>9.0</ele><time>2026-04-30T15:37:02.762Z</time></trkpt><trkpt lat="40.0205817" lon="8.4834233"><ele>9.0</ele><time>2026-04-30T15:37:03.726Z</time></trkpt><trkpt lat="40.0205017" lon="8.4837067"><ele>9.0</ele><time>2026-04-30T15:37:04.722Z</time></trkpt><trkpt lat="40.020425" lon="8.4839967"><ele>8.5</ele><time>2026-04-30T15:37:05.725Z</time></trkpt><trkpt lat="40.0203517" lon="8.4842883"><ele>8.0</ele><time>2026-04-30T15:37:06.725Z</time></trkpt><trkpt lat="40.0202833" lon="8.4845783"><ele>7.5</ele><time>2026-04-30T15:37:07.721Z</time></trkpt><trkpt lat="40.0202183" lon="8.48487"><ele>7.0</ele><time>2026-04-30T15:37:08.764Z</time></trkpt><trkpt lat="40.0201533" lon="8.4851617"><ele>7.0</ele><time>2026-04-30T15:37:09.723Z</time></trkpt><trkpt lat="40.0200883" lon="8.4854533"><ele>7.0</ele><time>2026-04-30T15:37:10.723Z</time></trkpt><trkpt lat="40.0200217" lon="8.4857417"><ele>7.333333333333334</ele><time>2026-04-30T15:37:11.722Z</time></trkpt><trkpt lat="40.019955" lon="8.4860183"><ele>7.666666666666666</ele><time>2026-04-30T15:37:12.722Z</time></trkpt><trkpt lat="40.0198917" lon="8.48629"><ele>8.0</ele><time>2026-04-30T15:37:13.725Z</time></trkpt><trkpt lat="40.01983" lon="8.48656"><ele>8.0</ele><time>2026-04-30T15:37:14.763Z</time></trkpt><trkpt lat="40.0197667" lon="8.48683"><ele>8.0</ele><time>2026-04-30T15:37:15.723Z</time></trkpt><trkpt lat="40.0197017" lon="8.4871033"><ele>8.0</ele><time>2026-04-30T15:37:16.724Z</time></trkpt><trkpt lat="40.01964" lon="8.4873817"><ele>8.666666666666666</ele><time>2026-04-30T15:37:17.725Z</time></trkpt><trkpt lat="40.0195783" lon="8.4876617"><ele>9.333333333333334</ele><time>2026-04-30T15:37:18.721Z</time></trkpt><trkpt lat="40.0195167" lon="8.487935"><ele>10.0</ele><time>2026-04-30T15:37:19.724Z</time></trkpt><trkpt lat="40.0194533" lon="8.48821"><ele>10.666666666666668</ele><time>2026-04-30T15:37:20.761Z</time></trkpt><trkpt lat="40.01939" lon="8.4884833"><ele>11.333333333333334</ele><time>2026-04-30T15:37:21.72Z</time></trkpt><trkpt lat="40.019325" lon="8.4887517"><ele>12.0</ele><time>2026-04-30T15:37:22.722Z</time></trkpt><trkpt lat="40.0192583" lon="8.48902"><ele>12.0</ele><time>2026-04-30T15:37:23.719Z</time></trkpt><trkpt lat="40.0191883" lon="8.4892867"><ele>12.0</ele><time>2026-04-30T15:37:24.721Z</time></trkpt><trkpt lat="40.01912" lon="8.4895533"><ele>12.0</ele><time>2026-04-30T15:37:25.722Z</time></trkpt><trkpt lat="40.0190517" lon="8.48982"><ele>12.333333333333332</ele><time>2026-04-30T15:37:26.79Z</time></trkpt><trkpt lat="40.0189833" lon="8.4900867"><ele>12.666666666666666</ele><time>2026-04-30T15:37:27.722Z</time></trkpt><trkpt lat="40.0189167" lon="8.490355"><ele>13.0</ele><time>2026-04-30T15:37:28.724Z</time></trkpt><trkpt lat="40.0188467" lon="8.49062"><ele>13.0</ele><time>2026-04-30T15:37:29.722Z</time></trkpt><trkpt lat="40.0187733" lon="8.4908867"><ele>13.0</ele><time>2026-04-30T15:37:30.724Z</time></trkpt><trkpt lat="40.0187067" lon="8.4911533"><ele>13.0</ele><time>2026-04-30T15:37:31.725Z</time></trkpt><trkpt lat="40.018635" lon="8.4914183"><ele>12.666666666666666</ele><time>2026-04-30T15:37:32.763Z</time></trkpt><trkpt lat="40.01856" lon="8.4916833"><ele>12.333333333333332</ele><time>2026-04-30T15:37:33.723Z</time></trkpt><trkpt lat="40.0184917" lon="8.4919517"><ele>12.0</ele><time>2026-04-30T15:37:34.727Z</time></trkpt><trkpt lat="40.0184333" lon="8.49222"><ele>12.0</ele><time>2026-04-30T15:37:35.719Z</time></trkpt><trkpt lat="40.0183733" lon="8.4924867"><ele>12.0</ele><time>2026-04-30T15:37:36.721Z</time></trkpt><trkpt lat="40.01831" lon="8.4927567"><ele>12.0</ele><time>2026-04-30T15:37:37.725Z</time></trkpt><trkpt lat="40.01824" lon="8.4930233"><ele>12.0</ele><time>2026-04-30T15:37:38.769Z</time></trkpt><trkpt lat="40.0181667" lon="8.49329"><ele>12.0</ele><time>2026-04-30T15:37:39.725Z</time></trkpt><trkpt lat="40.01809" lon="8.4935517"><ele>12.0</ele><time>2026-04-30T15:37:40.721Z</time></trkpt><trkpt lat="40.0180117" lon="8.4938183"><ele>12.0</ele><time>2026-04-30T15:37:41.725Z</time></trkpt><trkpt lat="40.0179317" lon="8.4940833"><ele>12.0</ele><time>2026-04-30T15:37:42.724Z</time></trkpt><trkpt lat="40.017845" lon="8.4943467"><ele>12.0</ele><time>2026-04-30T15:37:43.722Z</time></trkpt><trkpt lat="40.01776" lon="8.49461"><ele>12.666666666666668</ele><time>2026-04-30T15:37:44.764Z</time></trkpt><trkpt lat="40.0176717" lon="8.4948683"><ele>13.333333333333334</ele><time>2026-04-30T15:37:45.72Z</time></trkpt><trkpt lat="40.0175817" lon="8.4951317"><ele>14.0</ele><time>2026-04-30T15:37:46.723Z</time></trkpt><trkpt lat="40.01749" lon="8.4953967"><ele>13.0</ele><time>2026-04-30T15:37:47.724Z</time></trkpt><trkpt lat="40.0173967" lon="8.4956617"><ele>12.0</ele><time>2026-04-30T15:37:48.724Z</time></trkpt><trkpt lat="40.0173067" lon="8.4959283"><ele>11.0</ele><time>2026-04-30T15:37:49.723Z</time></trkpt><trkpt lat="40.017215" lon="8.4961967"><ele>11.5</ele><time>2026-04-30T15:37:50.766Z</time></trkpt><trkpt lat="40.0171217" lon="8.496465"><ele>12.0</ele><time>2026-04-30T15:37:51.722Z</time></trkpt><trkpt lat="40.0170283" lon="8.496735"><ele>12.0</ele><time>2026-04-30T15:37:52.722Z</time></trkpt><trkpt lat="40.0169383" lon="8.4970017"><ele>12.0</ele><time>2026-04-30T15:37:53.725Z</time></trkpt><trkpt lat="40.016845" lon="8.4972717"><ele>12.0</ele><time>2026-04-30T15:37:54.725Z</time></trkpt><trkpt lat="40.0167533" lon="8.4975367"><ele>12.0</ele><time>2026-04-30T15:37:55.724Z</time></trkpt><trkpt lat="40.0166667" lon="8.4978117"><ele>12.0</ele><time>2026-04-30T15:37:56.786Z</time></trkpt><trkpt lat="40.0165767" lon="8.498075"><ele>12.0</ele><time>2026-04-30T15:37:57.72Z</time></trkpt><trkpt lat="40.01649" lon="8.4983417"><ele>12.0</ele><time>2026-04-30T15:37:58.721Z</time></trkpt><trkpt lat="40.0163983" lon="8.4986083"><ele>11.666666666666666</ele><time>2026-04-30T15:37:59.723Z</time></trkpt><trkpt lat="40.016305" lon="8.49888"><ele>11.333333333333332</ele><time>2026-04-30T15:38:00.724Z</time></trkpt><trkpt lat="40.0162083" lon="8.4991383"><ele>11.0</ele><time>2026-04-30T15:38:01.724Z</time></trkpt><trkpt lat="40.0161167" lon="8.4993983"><ele>11.0</ele><time>2026-04-30T15:38:02.769Z</time></trkpt><trkpt lat="40.0160267" lon="8.4996633"><ele>11.0</ele><time>2026-04-30T15:38:03.719Z</time></trkpt><trkpt lat="40.01594" lon="8.4999383"><ele>11.0</ele><time>2026-04-30T15:38:04.722Z</time></trkpt><trkpt lat="40.0158533" lon="8.5001967"><ele>11.0</ele><time>2026-04-30T15:38:05.722Z</time></trkpt><trkpt lat="40.015775" lon="8.5004783"><ele>11.0</ele><time>2026-04-30T15:38:06.722Z</time></trkpt><trkpt lat="40.0157117" lon="8.5007633"><ele>11.5</ele><time>2026-04-30T15:38:07.72Z</time></trkpt><trkpt lat="40.0156383" lon="8.5010483"><ele>12.0</ele><time>2026-04-30T15:38:08.775Z</time></trkpt><trkpt lat="40.01557" lon="8.501335"><ele>13.0</ele><time>2026-04-30T15:38:09.724Z</time></trkpt><trkpt lat="40.015495" lon="8.501625"><ele>14.0</ele><time>2026-04-30T15:38:10.724Z</time></trkpt><trkpt lat="40.01543" lon="8.5019117"><ele>14.0</ele><time>2026-04-30T15:38:11.723Z</time></trkpt><trkpt lat="40.0153483" lon="8.5021833"><ele>14.0</ele><time>2026-04-30T15:38:12.722Z</time></trkpt><trkpt lat="40.01525" lon="8.5024633"><ele>14.0</ele><time>2026-04-30T15:38:13.724Z</time></trkpt><trkpt lat="40.015145" lon="8.5027517"><ele>14.0</ele><time>2026-04-30T15:38:14.765Z</time></trkpt><trkpt lat="40.01505" lon="8.5030367"><ele>15.5</ele><time>2026-04-30T15:38:15.724Z</time></trkpt><trkpt lat="40.0149467" lon="8.50332"><ele>17.0</ele><time>2026-04-30T15:38:16.723Z</time></trkpt><trkpt lat="40.01484" lon="8.5036"><ele>16.0</ele><time>2026-04-30T15:38:17.722Z</time></trkpt><trkpt lat="40.0147367" lon="8.5038783"><ele>15.0</ele><time>2026-04-30T15:38:18.723Z</time></trkpt><trkpt lat="40.0146233" lon="8.504155"><ele>15.0</ele><time>2026-04-30T15:38:19.73Z</time></trkpt><trkpt lat="40.014525" lon="8.5044383"><ele>15.0</ele><time>2026-04-30T15:38:20.764Z</time></trkpt><trkpt lat="40.014425" lon="8.50472"><ele>14.0</ele><time>2026-04-30T15:38:21.721Z</time></trkpt><trkpt lat="40.0143283" lon="8.5049917"><ele>13.0</ele><time>2026-04-30T15:38:22.721Z</time></trkpt><trkpt lat="40.014225" lon="8.5052533"><ele>14.5</ele><time>2026-04-30T15:38:23.719Z</time></trkpt><trkpt lat="40.01413" lon="8.50555"><ele>16.0</ele><time>2026-04-30T15:38:24.725Z</time></trkpt><trkpt lat="40.0140217" lon="8.5058367"><ele>16.0</ele><time>2026-04-30T15:38:25.729Z</time></trkpt><trkpt lat="40.0139133" lon="8.5060983"><ele>16.0</ele><time>2026-04-30T15:38:26.8Z</time></trkpt><trkpt lat="40.0138183" lon="8.5063683"><ele>15.666666666666666</ele><time>2026-04-30T15:38:27.747Z</time></trkpt><trkpt lat="40.013725" lon="8.5066267"><ele>15.333333333333332</ele><time>2026-04-30T15:38:28.725Z</time></trkpt><trkpt lat="40.01363" lon="8.5068867"><ele>15.0</ele><time>2026-04-30T15:38:29.729Z</time></trkpt><trkpt lat="40.0135367" lon="8.5071433"><ele>14.333333333333332</ele><time>2026-04-30T15:38:30.723Z</time></trkpt><trkpt lat="40.01345" lon="8.5074067"><ele>13.666666666666666</ele><time>2026-04-30T15:38:31.722Z</time></trkpt><trkpt lat="40.0133483" lon="8.507655"><ele>13.0</ele><time>2026-04-30T15:38:32.766Z</time></trkpt><trkpt lat="40.013255" lon="8.5079233"><ele>12.0</ele><time>2026-04-30T15:38:33.725Z</time></trkpt><trkpt lat="40.0131733" lon="8.5081933"><ele>11.0</ele><time>2026-04-30T15:38:34.722Z</time></trkpt><trkpt lat="40.013095" lon="8.5084667"><ele>10.0</ele><time>2026-04-30T15:38:35.72Z</time></trkpt><trkpt lat="40.013005" lon="8.508735"><ele>10.0</ele><time>2026-04-30T15:38:36.726Z</time></trkpt><trkpt lat="40.0129033" lon="8.5090117"><ele>10.0</ele><time>2026-04-30T15:38:37.723Z</time></trkpt><trkpt lat="40.012815" lon="8.5092817"><ele>10.0</ele><time>2026-04-30T15:38:38.773Z</time></trkpt><trkpt lat="40.01272" lon="8.5095517"><ele>10.0</ele><time>2026-04-30T15:38:39.718Z</time></trkpt><trkpt lat="40.0126383" lon="8.50982"><ele>10.0</ele><time>2026-04-30T15:38:40.723Z</time></trkpt><trkpt lat="40.0125433" lon="8.5100767"><ele>10.0</ele><time>2026-04-30T15:38:41.727Z</time></trkpt><trkpt lat="40.0124533" lon="8.510305"><ele>10.0</ele><time>2026-04-30T15:38:42.72Z</time></trkpt><trkpt lat="40.0123833" lon="8.5105533"><ele>10.0</ele><time>2026-04-30T15:38:43.723Z</time></trkpt><trkpt lat="40.0123317" lon="8.5108283"><ele>9.666666666666668</ele><time>2026-04-30T15:38:44.769Z</time></trkpt><trkpt lat="40.0122933" lon="8.5111"><ele>9.333333333333334</ele><time>2026-04-30T15:38:45.718Z</time></trkpt><trkpt lat="40.012265" lon="8.5113883"><ele>9.0</ele><time>2026-04-30T15:38:46.724Z</time></trkpt><trkpt lat="40.012245" lon="8.5116867"><ele>10.0</ele><time>2026-04-30T15:38:47.724Z</time></trkpt><trkpt lat="40.0122217" lon="8.51199"><ele>11.0</ele><time>2026-04-30T15:38:48.723Z</time></trkpt><trkpt lat="40.012205" lon="8.5122967"><ele>12.0</ele><time>2026-04-30T15:38:49.724Z</time></trkpt><trkpt lat="40.0121867" lon="8.5126033"><ele>13.0</ele><time>2026-04-30T15:38:50.77Z</time></trkpt><trkpt lat="40.0121617" lon="8.5129117"><ele>13.0</ele><time>2026-04-30T15:38:51.718Z</time></trkpt><trkpt lat="40.0121367" lon="8.5132233"><ele>13.0</ele><time>2026-04-30T15:38:52.725Z</time></trkpt><trkpt lat="40.0121183" lon="8.5135317"><ele>11.0</ele><time>2026-04-30T15:38:53.721Z</time></trkpt><trkpt lat="40.0120983" lon="8.5138417"><ele>9.0</ele><time>2026-04-30T15:38:54.724Z</time></trkpt><trkpt lat="40.0120767" lon="8.5141533"><ele>9.0</ele><time>2026-04-30T15:38:55.722Z</time></trkpt><trkpt lat="40.0120567" lon="8.5144633"><ele>9.0</ele><time>2026-04-30T15:38:56.792Z</time></trkpt><trkpt lat="40.0120333" lon="8.5147767"><ele>9.0</ele><time>2026-04-30T15:38:57.727Z</time></trkpt><trkpt lat="40.01201" lon="8.51509"><ele>9.0</ele><time>2026-04-30T15:38:58.722Z</time></trkpt><trkpt lat="40.0119883" lon="8.5154083"><ele>9.5</ele><time>2026-04-30T15:38:59.724Z</time></trkpt><trkpt lat="40.011965" lon="8.5157417"><ele>10.0</ele><time>2026-04-30T15:39:00.725Z</time></trkpt><trkpt lat="40.0119467" lon="8.51607"><ele>10.0</ele><time>2026-04-30T15:39:01.724Z</time></trkpt><trkpt lat="40.0119567" lon="8.5163883"><ele>10.0</ele><time>2026-04-30T15:39:02.771Z</time></trkpt><trkpt lat="40.0119683" lon="8.516725"><ele>10.0</ele><time>2026-04-30T15:39:03.721Z</time></trkpt><trkpt lat="40.011945" lon="8.517055"><ele>10.0</ele><time>2026-04-30T15:39:04.724Z</time></trkpt><trkpt lat="40.0119433" lon="8.517365"><ele>10.0</ele><time>2026-04-30T15:39:05.721Z</time></trkpt><trkpt lat="40.0119583" lon="8.51768"><ele>10.0</ele><time>2026-04-30T15:39:06.722Z</time></trkpt><trkpt lat="40.0119867" lon="8.5179933"><ele>10.0</ele><time>2026-04-30T15:39:07.733Z</time></trkpt><trkpt lat="40.0120283" lon="8.5183217"><ele>10.0</ele><time>2026-04-30T15:39:08.769Z</time></trkpt><trkpt lat="40.0120733" lon="8.5186517"><ele>9.0</ele><time>2026-04-30T15:39:09.725Z</time></trkpt><trkpt lat="40.0121267" lon="8.518985"><ele>8.0</ele><time>2026-04-30T15:39:10.723Z</time></trkpt><trkpt lat="40.01218" lon="8.519315"><ele>9.0</ele><time>2026-04-30T15:39:11.722Z</time></trkpt><trkpt lat="40.0122333" lon="8.519645"><ele>10.0</ele><time>2026-04-30T15:39:12.725Z</time></trkpt><trkpt lat="40.0122883" lon="8.5199717"><ele>10.0</ele><time>2026-04-30T15:39:13.724Z</time></trkpt><trkpt lat="40.0123483" lon="8.5202933"><ele>10.0</ele><time>2026-04-30T15:39:14.762Z</time></trkpt><trkpt lat="40.0124133" lon="8.5206233"><ele>10.5</ele><time>2026-04-30T15:39:15.722Z</time></trkpt><trkpt lat="40.0124717" lon="8.52096"><ele>11.0</ele><time>2026-04-30T15:39:16.724Z</time></trkpt><trkpt lat="40.0125217" lon="8.521295"><ele>11.0</ele><time>2026-04-30T15:39:17.722Z</time></trkpt><trkpt lat="40.0125717" lon="8.5216233"><ele>11.0</ele><time>2026-04-30T15:39:18.725Z</time></trkpt><trkpt lat="40.01264" lon="8.5220017"><ele>10.0</ele><time>2026-04-30T15:39:19.721Z</time></trkpt><trkpt lat="40.0127067" lon="8.5223033"><ele>9.0</ele><time>2026-04-30T15:39:20.775Z</time></trkpt><trkpt lat="40.012765" lon="8.5226183"><ele>9.0</ele><time>2026-04-30T15:39:21.722Z</time></trkpt><trkpt lat="40.012805" lon="8.5229283"><ele>9.0</ele><time>2026-04-30T15:39:22.724Z</time></trkpt><trkpt lat="40.012835" lon="8.5232367"><ele>9.0</ele><time>2026-04-30T15:39:23.727Z</time></trkpt><trkpt lat="40.012865" lon="8.52356"><ele>9.0</ele><time>2026-04-30T15:39:24.723Z</time></trkpt><trkpt lat="40.0128717" lon="8.52388"><ele>9.666666666666666</ele><time>2026-04-30T15:39:25.724Z</time></trkpt><trkpt lat="40.012875" lon="8.524185"><ele>10.333333333333332</ele><time>2026-04-30T15:39:26.791Z</time></trkpt><trkpt lat="40.012865" lon="8.5244633"><ele>11.0</ele><time>2026-04-30T15:39:27.723Z</time></trkpt><trkpt lat="40.0128517" lon="8.5247483"><ele>11.333333333333332</ele><time>2026-04-30T15:39:28.722Z</time></trkpt><trkpt lat="40.0128333" lon="8.5250167"><ele>11.666666666666666</ele><time>2026-04-30T15:39:29.724Z</time></trkpt><trkpt lat="40.0128183" lon="8.525265"><ele>12.0</ele><time>2026-04-30T15:39:30.719Z</time></trkpt><trkpt lat="40.0127917" lon="8.52551"><ele>12.333333333333332</ele><time>2026-04-30T15:39:31.725Z</time></trkpt><trkpt lat="40.012755" lon="8.5257667"><ele>12.666666666666666</ele><time>2026-04-30T15:39:32.791Z</time></trkpt><trkpt lat="40.0126833" lon="8.52599"><ele>13.0</ele><time>2026-04-30T15:39:33.722Z</time></trkpt><trkpt lat="40.0125867" lon="8.5262"><ele>13.0</ele><time>2026-04-30T15:39:34.721Z</time></trkpt><trkpt lat="40.0125033" lon="8.526395"><ele>13.0</ele><time>2026-04-30T15:39:35.723Z</time></trkpt><trkpt lat="40.012425" lon="8.5265667"><ele>13.0</ele><time>2026-04-30T15:39:36.722Z</time></trkpt><trkpt lat="40.01233" lon="8.5267383"><ele>13.0</ele><time>2026-04-30T15:39:37.725Z</time></trkpt><trkpt lat="40.0122333" lon="8.526905"><ele>13.0</ele><time>2026-04-30T15:39:38.773Z</time></trkpt><trkpt lat="40.01219" lon="8.52708"><ele>13.0</ele><time>2026-04-30T15:39:39.722Z</time></trkpt><trkpt lat="40.0121517" lon="8.5272483"><ele>13.0</ele><time>2026-04-30T15:39:40.726Z</time></trkpt><trkpt lat="40.0121117" lon="8.5274017"><ele>13.0</ele><time>2026-04-30T15:39:41.752Z</time></trkpt><trkpt lat="40.01207" lon="8.5275383"><ele>13.0</ele><time>2026-04-30T15:39:42.725Z</time></trkpt><trkpt lat="40.0120417" lon="8.5276583"><ele>13.0</ele><time>2026-04-30T15:39:43.726Z</time></trkpt><trkpt lat="40.012015" lon="8.5277467"><ele>13.0</ele><time>2026-04-30T15:39:44.775Z</time></trkpt><trkpt lat="40.011985" lon="8.52788"><ele>13.0</ele><time>2026-04-30T15:39:46.721Z</time></trkpt><trkpt lat="40.0119933" lon="8.5279817"><ele>13.166666666666666</ele><time>2026-04-30T15:39:48.723Z</time></trkpt><trkpt lat="40.0120317" lon="8.5280483"><ele>13.333333333333332</ele><time>2026-04-30T15:39:52.725Z</time></trkpt><trkpt lat="40.0120883" lon="8.528165"><ele>13.5</ele><time>2026-04-30T15:39:54.726Z</time></trkpt><trkpt lat="40.01212" lon="8.52826"><ele>13.666666666666668</ele><time>2026-04-30T15:39:55.726Z</time></trkpt><trkpt lat="40.0121467" lon="8.5283733"><ele>13.833333333333334</ele><time>2026-04-30T15:39:56.787Z</time></trkpt><trkpt lat="40.0121683" lon="8.5285017"><ele>14.0</ele><time>2026-04-30T15:39:57.719Z</time></trkpt><trkpt lat="40.01217" lon="8.52868"><ele>13.666666666666668</ele><time>2026-04-30T15:39:58.722Z</time></trkpt><trkpt lat="40.0121633" lon="8.528855"><ele>13.333333333333332</ele><time>2026-04-30T15:39:59.722Z</time></trkpt><trkpt lat="40.0121233" lon="8.5290517"><ele>13.0</ele><time>2026-04-30T15:40:00.726Z</time></trkpt><trkpt lat="40.0121017" lon="8.5292683"><ele>13.0</ele><time>2026-04-30T15:40:01.725Z</time></trkpt><trkpt lat="40.0120583" lon="8.5294717"><ele>13.0</ele><time>2026-04-30T15:40:02.772Z</time></trkpt><trkpt lat="40.0120517" lon="8.5297217"><ele>13.0</ele><time>2026-04-30T15:40:03.723Z</time></trkpt><trkpt lat="40.0120467" lon="8.52998"><ele>12.666666666666666</ele><time>2026-04-30T15:40:04.723Z</time></trkpt><trkpt lat="40.0120333" lon="8.5302267"><ele>12.333333333333332</ele><time>2026-04-30T15:40:05.721Z</time></trkpt><trkpt lat="40.0120083" lon="8.5304967"><ele>12.0</ele><time>2026-04-30T15:40:06.723Z</time></trkpt><trkpt lat="40.01198" lon="8.5307667"><ele>11.666666666666666</ele><time>2026-04-30T15:40:07.725Z</time></trkpt><trkpt lat="40.0119583" lon="8.5310383"><ele>11.333333333333332</ele><time>2026-04-30T15:40:08.774Z</time></trkpt><trkpt lat="40.0119333" lon="8.531315"><ele>11.0</ele><time>2026-04-30T15:40:09.72Z</time></trkpt><trkpt lat="40.01191" lon="8.5316017"><ele>11.0</ele><time>2026-04-30T15:40:10.724Z</time></trkpt><trkpt lat="40.0118967" lon="8.531885"><ele>11.0</ele><time>2026-04-30T15:40:11.724Z</time></trkpt><trkpt lat="40.0118733" lon="8.5321867"><ele>12.0</ele><time>2026-04-30T15:40:12.725Z</time></trkpt><trkpt lat="40.0118533" lon="8.53249"><ele>13.0</ele><time>2026-04-30T15:40:13.723Z</time></trkpt><trkpt lat="40.0118283" lon="8.5327967"><ele>13.5</ele><time>2026-04-30T15:40:14.766Z</time></trkpt><trkpt lat="40.0118033" lon="8.5331183"><ele>14.0</ele><time>2026-04-30T15:40:15.722Z</time></trkpt><trkpt lat="40.0117833" lon="8.53342"><ele>14.0</ele><time>2026-04-30T15:40:16.722Z</time></trkpt><trkpt lat="40.0117633" lon="8.5336933"><ele>14.0</ele><time>2026-04-30T15:40:17.726Z</time></trkpt><trkpt lat="40.01173" lon="8.5339933"><ele>14.0</ele><time>2026-04-30T15:40:18.722Z</time></trkpt><trkpt lat="40.0117017" lon="8.5343067"><ele>13.5</ele><time>2026-04-30T15:40:19.718Z</time></trkpt><trkpt lat="40.01167" lon="8.53461"><ele>13.0</ele><time>2026-04-30T15:40:20.765Z</time></trkpt><trkpt lat="40.0116417" lon="8.534925"><ele>13.0</ele><time>2026-04-30T15:40:21.718Z</time></trkpt><trkpt lat="40.0116133" lon="8.5352233"><ele>13.0</ele><time>2026-04-30T15:40:22.727Z</time></trkpt><trkpt lat="40.0116" lon="8.5354917"><ele>13.0</ele><time>2026-04-30T15:40:23.723Z</time></trkpt><trkpt lat="40.0115817" lon="8.535805"><ele>13.0</ele><time>2026-04-30T15:40:24.723Z</time></trkpt><trkpt lat="40.0115717" lon="8.536085"><ele>13.0</ele><time>2026-04-30T15:40:25.722Z</time></trkpt><trkpt lat="40.0115733" lon="8.53634"><ele>13.0</ele><time>2026-04-30T15:40:26.772Z</time></trkpt><trkpt lat="40.0115733" lon="8.5366183"><ele>12.666666666666666</ele><time>2026-04-30T15:40:27.726Z</time></trkpt><trkpt lat="40.011585" lon="8.5369017"><ele>12.333333333333332</ele><time>2026-04-30T15:40:28.725Z</time></trkpt><trkpt lat="40.0116017" lon="8.5371883"><ele>12.0</ele><time>2026-04-30T15:40:29.726Z</time></trkpt><trkpt lat="40.0116183" lon="8.5374833"><ele>11.5</ele><time>2026-04-30T15:40:30.726Z</time></trkpt><trkpt lat="40.01168" lon="8.5377767"><ele>11.0</ele><time>2026-04-30T15:40:31.722Z</time></trkpt><trkpt lat="40.01172" lon="8.5380833"><ele>11.0</ele><time>2026-04-30T15:40:32.772Z</time></trkpt><trkpt lat="40.0117917" lon="8.538345"><ele>11.0</ele><time>2026-04-30T15:40:33.729Z</time></trkpt><trkpt lat="40.0118667" lon="8.5386317"><ele>11.0</ele><time>2026-04-30T15:40:34.725Z</time></trkpt><trkpt lat="40.011955" lon="8.53892"><ele>12.0</ele><time>2026-04-30T15:40:35.718Z</time></trkpt><trkpt lat="40.0120567" lon="8.5392117"><ele>13.0</ele><time>2026-04-30T15:40:36.726Z</time></trkpt><trkpt lat="40.0121417" lon="8.539495"><ele>13.5</ele><time>2026-04-30T15:40:37.723Z</time></trkpt><trkpt lat="40.0122267" lon="8.5397867"><ele>14.0</ele><time>2026-04-30T15:40:38.777Z</time></trkpt><trkpt lat="40.0123" lon="8.5400533"><ele>14.0</ele><time>2026-04-30T15:40:39.729Z</time></trkpt><trkpt lat="40.0123733" lon="8.5403367"><ele>14.0</ele><time>2026-04-30T15:40:40.722Z</time></trkpt><trkpt lat="40.0124433" lon="8.5406167"><ele>14.0</ele><time>2026-04-30T15:40:41.721Z</time></trkpt><trkpt lat="40.0124767" lon="8.540875"><ele>14.0</ele><time>2026-04-30T15:40:42.725Z</time></trkpt><trkpt lat="40.0125083" lon="8.541135"><ele>14.0</ele><time>2026-04-30T15:40:43.724Z</time></trkpt><trkpt lat="40.0125067" lon="8.54142"><ele>12.666666666666668</ele><time>2026-04-30T15:40:44.77Z</time></trkpt><trkpt lat="40.012475" lon="8.54165"><ele>11.333333333333334</ele><time>2026-04-30T15:40:45.721Z</time></trkpt><trkpt lat="40.01239" lon="8.5419067"><ele>10.0</ele><time>2026-04-30T15:40:46.72Z</time></trkpt><trkpt lat="40.0123133" lon="8.54215"><ele>10.0</ele><time>2026-04-30T15:40:47.723Z</time></trkpt><trkpt lat="40.0122567" lon="8.5423817"><ele>10.0</ele><time>2026-04-30T15:40:48.721Z</time></trkpt><trkpt lat="40.012175" lon="8.54259"><ele>10.0</ele><time>2026-04-30T15:40:49.725Z</time></trkpt><trkpt lat="40.0121067" lon="8.5427783"><ele>10.0</ele><time>2026-04-30T15:40:50.763Z</time></trkpt><trkpt lat="40.0120433" lon="8.542955"><ele>10.0</ele><time>2026-04-30T15:40:51.722Z</time></trkpt><trkpt lat="40.0119717" lon="8.5431117"><ele>10.0</ele><time>2026-04-30T15:40:52.723Z</time></trkpt><trkpt lat="40.0118883" lon="8.5432283"><ele>10.0</ele><time>2026-04-30T15:40:53.722Z</time></trkpt><trkpt lat="40.0118317" lon="8.5433483"><ele>10.0</ele><time>2026-04-30T15:40:54.724Z</time></trkpt><trkpt lat="40.0117667" lon="8.543445"><ele>10.0</ele><time>2026-04-30T15:40:55.721Z</time></trkpt><trkpt lat="40.0117217" lon="8.54352"><ele>10.0</ele><time>2026-04-30T15:40:56.771Z</time></trkpt><trkpt lat="40.011675" lon="8.5436217"><ele>10.0</ele><time>2026-04-30T15:40:58.724Z</time></trkpt><trkpt lat="40.011635" lon="8.5437017"><ele>10.0</ele><time>2026-04-30T15:41:00.725Z</time></trkpt><trkpt lat="40.0115883" lon="8.543855"><ele>10.0</ele><time>2026-04-30T15:41:02.77Z</time></trkpt><trkpt lat="40.0115583" lon="8.5439583"><ele>10.0</ele><time>2026-04-30T15:41:03.723Z</time></trkpt><trkpt lat="40.0115233" lon="8.54406"><ele>10.0</ele><time>2026-04-30T15:41:04.721Z</time></trkpt><trkpt lat="40.0114833" lon="8.54419"><ele>10.0</ele><time>2026-04-30T15:41:05.722Z</time></trkpt><trkpt lat="40.0114367" lon="8.5443467"><ele>10.0</ele><time>2026-04-30T15:41:06.719Z</time></trkpt><trkpt lat="40.0114067" lon="8.5445117"><ele>9.666666666666668</ele><time>2026-04-30T15:41:07.721Z</time></trkpt><trkpt lat="40.0113483" lon="8.544705"><ele>9.333333333333334</ele><time>2026-04-30T15:41:08.768Z</time></trkpt><trkpt lat="40.011275" lon="8.5448933"><ele>9.0</ele><time>2026-04-30T15:41:09.722Z</time></trkpt><trkpt lat="40.0112067" lon="8.5451217"><ele>9.0</ele><time>2026-04-30T15:41:10.72Z</time></trkpt><trkpt lat="40.01114" lon="8.5453483"><ele>9.0</ele><time>2026-04-30T15:41:11.722Z</time></trkpt><trkpt lat="40.0110767" lon="8.5455767"><ele>9.0</ele><time>2026-04-30T15:41:12.724Z</time></trkpt><trkpt lat="40.011005" lon="8.54581"><ele>9.0</ele><time>2026-04-30T15:41:13.723Z</time></trkpt><trkpt lat="40.0109267" lon="8.5460517"><ele>9.0</ele><time>2026-04-30T15:41:14.769Z</time></trkpt><trkpt lat="40.0108467" lon="8.5463033"><ele>9.0</ele><time>2026-04-30T15:41:15.721Z</time></trkpt><trkpt lat="40.01077" lon="8.5465683"><ele>9.0</ele><time>2026-04-30T15:41:16.722Z</time></trkpt><trkpt lat="40.0106867" lon="8.5468367"><ele>9.0</ele><time>2026-04-30T15:41:17.721Z</time></trkpt><trkpt lat="40.0106033" lon="8.547105"><ele>9.0</ele><time>2026-04-30T15:41:18.724Z</time></trkpt><trkpt lat="40.0105217" lon="8.5473817"><ele>9.0</ele><time>2026-04-30T15:41:19.723Z</time></trkpt><trkpt lat="40.01044" lon="8.547655"><ele>9.0</ele><time>2026-04-30T15:41:20.772Z</time></trkpt><trkpt lat="40.010355" lon="8.5479283"><ele>10.0</ele><time>2026-04-30T15:41:21.72Z</time></trkpt><trkpt lat="40.0102683" lon="8.5482033"><ele>11.0</ele><time>2026-04-30T15:41:22.72Z</time></trkpt><trkpt lat="40.0101833" lon="8.5484783"><ele>11.0</ele><time>2026-04-30T15:41:23.722Z</time></trkpt><trkpt lat="40.0101017" lon="8.5487433"><ele>11.0</ele><time>2026-04-30T15:41:24.719Z</time></trkpt><trkpt lat="40.0100217" lon="8.548995"><ele>11.0</ele><time>2026-04-30T15:41:25.721Z</time></trkpt><trkpt lat="40.00995" lon="8.549235"><ele>10.666666666666666</ele><time>2026-04-30T15:41:26.775Z</time></trkpt><trkpt lat="40.009885" lon="8.5494633"><ele>10.333333333333334</ele><time>2026-04-30T15:41:27.72Z</time></trkpt><trkpt lat="40.0098367" lon="8.5496817"><ele>10.0</ele><time>2026-04-30T15:41:28.722Z</time></trkpt><trkpt lat="40.0098033" lon="8.5498933"><ele>10.0</ele><time>2026-04-30T15:41:29.723Z</time></trkpt><trkpt lat="40.00979" lon="8.550105"><ele>10.0</ele><time>2026-04-30T15:41:30.718Z</time></trkpt><trkpt lat="40.0098" lon="8.550325"><ele>10.0</ele><time>2026-04-30T15:41:31.722Z</time></trkpt><trkpt lat="40.0098267" lon="8.55055"><ele>10.0</ele><time>2026-04-30T15:41:32.768Z</time></trkpt><trkpt lat="40.0098867" lon="8.5507833"><ele>10.0</ele><time>2026-04-30T15:41:33.718Z</time></trkpt><trkpt lat="40.00997" lon="8.5510283"><ele>10.0</ele><time>2026-04-30T15:41:34.723Z</time></trkpt><trkpt lat="40.01006" lon="8.55128"><ele>9.666666666666668</ele><time>2026-04-30T15:41:35.718Z</time></trkpt><trkpt lat="40.0101533" lon="8.55154"><ele>9.333333333333334</ele><time>2026-04-30T15:41:36.722Z</time></trkpt><trkpt lat="40.0102517" lon="8.5518083"><ele>9.0</ele><time>2026-04-30T15:41:37.72Z</time></trkpt><trkpt lat="40.0103583" lon="8.552085"><ele>8.0</ele><time>2026-04-30T15:41:38.771Z</time></trkpt><trkpt lat="40.01046" lon="8.55236"><ele>7.0</ele><time>2026-04-30T15:41:39.72Z</time></trkpt><trkpt lat="40.01056" lon="8.552635"><ele>7.5</ele><time>2026-04-30T15:41:40.722Z</time></trkpt><trkpt lat="40.0106633" lon="8.5529083"><ele>8.0</ele><time>2026-04-30T15:41:41.724Z</time></trkpt><trkpt lat="40.0107633" lon="8.55318"><ele>9.0</ele><time>2026-04-30T15:41:42.724Z</time></trkpt><trkpt lat="40.01086" lon="8.5534517"><ele>10.0</ele><time>2026-04-30T15:41:43.722Z</time></trkpt><trkpt lat="40.0109567" lon="8.5537233"><ele>10.0</ele><time>2026-04-30T15:41:44.764Z</time></trkpt><trkpt lat="40.0110517" lon="8.553995"><ele>10.0</ele><time>2026-04-30T15:41:45.722Z</time></trkpt><trkpt lat="40.01115" lon="8.5542683"><ele>10.0</ele><time>2026-04-30T15:41:46.724Z</time></trkpt><trkpt lat="40.01126" lon="8.5545367"><ele>10.0</ele><time>2026-04-30T15:41:47.72Z</time></trkpt><trkpt lat="40.0113617" lon="8.5548383"><ele>9.5</ele><time>2026-04-30T15:41:48.722Z</time></trkpt><trkpt lat="40.01148" lon="8.55511"><ele>9.0</ele><time>2026-04-30T15:41:49.722Z</time></trkpt><trkpt lat="40.01158" lon="8.555385"><ele>9.5</ele><time>2026-04-30T15:41:50.76Z</time></trkpt><trkpt lat="40.01168" lon="8.5556583"><ele>10.0</ele><time>2026-04-30T15:41:51.723Z</time></trkpt><trkpt lat="40.0117683" lon="8.5559333"><ele>9.0</ele><time>2026-04-30T15:41:52.721Z</time></trkpt><trkpt lat="40.0118733" lon="8.5562117"><ele>8.0</ele><time>2026-04-30T15:41:53.723Z</time></trkpt><trkpt lat="40.01199" lon="8.5564917"><ele>8.0</ele><time>2026-04-30T15:41:54.727Z</time></trkpt><trkpt lat="40.0121017" lon="8.5567667"><ele>8.0</ele><time>2026-04-30T15:41:55.722Z</time></trkpt><trkpt lat="40.0122033" lon="8.55703"><ele>7.666666666666666</ele><time>2026-04-30T15:41:56.775Z</time></trkpt><trkpt lat="40.012295" lon="8.557295"><ele>7.333333333333334</ele><time>2026-04-30T15:41:57.721Z</time></trkpt><trkpt lat="40.012385" lon="8.557565"><ele>7.0</ele><time>2026-04-30T15:41:58.724Z</time></trkpt><trkpt lat="40.0124733" lon="8.5578067"><ele>7.333333333333334</ele><time>2026-04-30T15:41:59.724Z</time></trkpt><trkpt lat="40.0125667" lon="8.558065"><ele>7.666666666666666</ele><time>2026-04-30T15:42:00.72Z</time></trkpt><trkpt lat="40.0126583" lon="8.5583217"><ele>8.0</ele><time>2026-04-30T15:42:01.716Z</time></trkpt><trkpt lat="40.0127467" lon="8.5585817"><ele>8.333333333333332</ele><time>2026-04-30T15:42:02.769Z</time></trkpt><trkpt lat="40.0128317" lon="8.558845"><ele>8.666666666666666</ele><time>2026-04-30T15:42:03.722Z</time></trkpt><trkpt lat="40.0129133" lon="8.5591117"><ele>9.0</ele><time>2026-04-30T15:42:04.723Z</time></trkpt><trkpt lat="40.012985" lon="8.5593867"><ele>8.333333333333334</ele><time>2026-04-30T15:42:05.719Z</time></trkpt><trkpt lat="40.0130533" lon="8.5596583"><ele>7.666666666666667</ele><time>2026-04-30T15:42:06.721Z</time></trkpt><trkpt lat="40.013135" lon="8.55993"><ele>7.0</ele><time>2026-04-30T15:42:07.726Z</time></trkpt><trkpt lat="40.0132233" lon="8.5601983"><ele>6.0</ele><time>2026-04-30T15:42:08.766Z</time></trkpt><trkpt lat="40.0133083" lon="8.56047"><ele>5.0</ele><time>2026-04-30T15:42:09.719Z</time></trkpt><trkpt lat="40.0133983" lon="8.5607483"><ele>5.0</ele><time>2026-04-30T15:42:10.721Z</time></trkpt><trkpt lat="40.01349" lon="8.5610083"><ele>5.0</ele><time>2026-04-30T15:42:11.728Z</time></trkpt><trkpt lat="40.013585" lon="8.5612717"><ele>5.0</ele><time>2026-04-30T15:42:12.724Z</time></trkpt><trkpt lat="40.0137017" lon="8.561565"><ele>4.0</ele><time>2026-04-30T15:42:13.723Z</time></trkpt><trkpt lat="40.01379" lon="8.56185"><ele>3.0</ele><time>2026-04-30T15:42:14.769Z</time></trkpt><trkpt lat="40.0138733" lon="8.56212"><ele>3.0</ele><time>2026-04-30T15:42:15.722Z</time></trkpt><trkpt lat="40.0139483" lon="8.56241"><ele>3.0</ele><time>2026-04-30T15:42:16.76Z</time></trkpt><trkpt lat="40.0140267" lon="8.5626967"><ele>3.0</ele><time>2026-04-30T15:42:17.727Z</time></trkpt><trkpt lat="40.0141183" lon="8.5629633"><ele>3.0</ele><time>2026-04-30T15:42:18.729Z</time></trkpt><trkpt lat="40.0142133" lon="8.56323"><ele>3.0</ele><time>2026-04-30T15:42:19.722Z</time></trkpt><trkpt lat="40.0143067" lon="8.5634933"><ele>3.0</ele><time>2026-04-30T15:42:20.775Z</time></trkpt><trkpt lat="40.0143933" lon="8.563745"><ele>3.0</ele><time>2026-04-30T15:42:21.723Z</time></trkpt><trkpt lat="40.01448" lon="8.5639883"><ele>3.0</ele><time>2026-04-30T15:42:22.724Z</time></trkpt><trkpt lat="40.0145633" lon="8.5642283"><ele>3.0</ele><time>2026-04-30T15:42:23.722Z</time></trkpt><trkpt lat="40.0146417" lon="8.56447"><ele>3.0</ele><time>2026-04-30T15:42:24.718Z</time></trkpt><trkpt lat="40.0147283" lon="8.5647083"><ele>3.0</ele><time>2026-04-30T15:42:25.718Z</time></trkpt><trkpt lat="40.0148083" lon="8.5649517"><ele>3.0</ele><time>2026-04-30T15:42:26.786Z</time></trkpt><trkpt lat="40.0148817" lon="8.5651917"><ele>3.0</ele><time>2026-04-30T15:42:27.724Z</time></trkpt><trkpt lat="40.0149533" lon="8.5654267"><ele>3.0</ele><time>2026-04-30T15:42:28.721Z</time></trkpt><trkpt lat="40.0150133" lon="8.565675"><ele>3.333333333333333</ele><time>2026-04-30T15:42:29.72Z</time></trkpt><trkpt lat="40.0150633" lon="8.5658967"><ele>3.6666666666666665</ele><time>2026-04-30T15:42:30.722Z</time></trkpt><trkpt lat="40.0151067" lon="8.5661133"><ele>4.0</ele><time>2026-04-30T15:42:31.725Z</time></trkpt><trkpt lat="40.0151167" lon="8.5663217"><ele>4.0</ele><time>2026-04-30T15:42:32.775Z</time></trkpt><trkpt lat="40.015095" lon="8.5665217"><ele>4.0</ele><time>2026-04-30T15:42:33.721Z</time></trkpt><trkpt lat="40.0150717" lon="8.5667217"><ele>4.0</ele><time>2026-04-30T15:42:34.723Z</time></trkpt><trkpt lat="40.015035" lon="8.5669367"><ele>4.0</ele><time>2026-04-30T15:42:35.718Z</time></trkpt><trkpt lat="40.0150067" lon="8.56715"><ele>4.0</ele><time>2026-04-30T15:42:36.722Z</time></trkpt><trkpt lat="40.0149867" lon="8.567345"><ele>4.0</ele><time>2026-04-30T15:42:37.721Z</time></trkpt><trkpt lat="40.0150017" lon="8.5675617"><ele>4.0</ele><time>2026-04-30T15:42:38.776Z</time></trkpt><trkpt lat="40.0150333" lon="8.5677767"><ele>4.0</ele><time>2026-04-30T15:42:39.717Z</time></trkpt><trkpt lat="40.015075" lon="8.5680133"><ele>4.0</ele><time>2026-04-30T15:42:40.72Z</time></trkpt><trkpt lat="40.0151333" lon="8.5682717"><ele>4.0</ele><time>2026-04-30T15:42:41.725Z</time></trkpt><trkpt lat="40.0151767" lon="8.5685167"><ele>4.0</ele><time>2026-04-30T15:42:42.726Z</time></trkpt><trkpt lat="40.0152467" lon="8.5687583"><ele>4.0</ele><time>2026-04-30T15:42:43.719Z</time></trkpt><trkpt lat="40.0153233" lon="8.568995"><ele>4.0</ele><time>2026-04-30T15:42:44.776Z</time></trkpt><trkpt lat="40.0153833" lon="8.5692183"><ele>4.0</ele><time>2026-04-30T15:42:45.722Z</time></trkpt><trkpt lat="40.0154517" lon="8.569455"><ele>4.0</ele><time>2026-04-30T15:42:46.722Z</time></trkpt><trkpt lat="40.01554" lon="8.5696983"><ele>4.0</ele><time>2026-04-30T15:42:47.72Z</time></trkpt><trkpt lat="40.0156133" lon="8.5699283"><ele>4.0</ele><time>2026-04-30T15:42:48.722Z</time></trkpt><trkpt lat="40.0156667" lon="8.570165"><ele>4.0</ele><time>2026-04-30T15:42:49.719Z</time></trkpt><trkpt lat="40.0157283" lon="8.5704067"><ele>4.0</ele><time>2026-04-30T15:42:50.768Z</time></trkpt><trkpt lat="40.0157883" lon="8.5706467"><ele>4.0</ele><time>2026-04-30T15:42:51.718Z</time></trkpt><trkpt lat="40.0158433" lon="8.570885"><ele>4.0</ele><time>2026-04-30T15:42:52.722Z</time></trkpt><trkpt lat="40.0159033" lon="8.571135"><ele>4.0</ele><time>2026-04-30T15:42:53.724Z</time></trkpt><trkpt lat="40.0159583" lon="8.571375"><ele>4.0</ele><time>2026-04-30T15:42:54.722Z</time></trkpt><trkpt lat="40.0160067" lon="8.5716267"><ele>4.0</ele><time>2026-04-30T15:42:55.719Z</time></trkpt><trkpt lat="40.01605" lon="8.57187"><ele>4.0</ele><time>2026-04-30T15:42:56.77Z</time></trkpt><trkpt lat="40.0160883" lon="8.57211"><ele>4.0</ele><time>2026-04-30T15:42:57.724Z</time></trkpt><trkpt lat="40.01611" lon="8.57236"><ele>4.0</ele><time>2026-04-30T15:42:58.719Z</time></trkpt><trkpt lat="40.0161183" lon="8.5726117"><ele>4.333333333333333</ele><time>2026-04-30T15:42:59.717Z</time></trkpt><trkpt lat="40.0161317" lon="8.572875"><ele>4.666666666666667</ele><time>2026-04-30T15:43:00.724Z</time></trkpt><trkpt lat="40.0161367" lon="8.5731317"><ele>5.0</ele><time>2026-04-30T15:43:01.724Z</time></trkpt><trkpt lat="40.0161367" lon="8.5733933"><ele>5.0</ele><time>2026-04-30T15:43:02.769Z</time></trkpt><trkpt lat="40.01614" lon="8.573655"><ele>5.0</ele><time>2026-04-30T15:43:03.721Z</time></trkpt><trkpt lat="40.016145" lon="8.5739083"><ele>5.0</ele><time>2026-04-30T15:43:04.726Z</time></trkpt><trkpt lat="40.01615" lon="8.574165"><ele>5.333333333333334</ele><time>2026-04-30T15:43:05.72Z</time></trkpt><trkpt lat="40.0161683" lon="8.5744217"><ele>5.666666666666667</ele><time>2026-04-30T15:43:06.721Z</time></trkpt><trkpt lat="40.016195" lon="8.57468"><ele>6.0</ele><time>2026-04-30T15:43:07.724Z</time></trkpt><trkpt lat="40.0162117" lon="8.5749283"><ele>6.0</ele><time>2026-04-30T15:43:08.77Z</time></trkpt><trkpt lat="40.0162217" lon="8.5751733"><ele>6.0</ele><time>2026-04-30T15:43:09.719Z</time></trkpt><trkpt lat="40.0162483" lon="8.5754117"><ele>6.0</ele><time>2026-04-30T15:43:10.723Z</time></trkpt><trkpt lat="40.0162617" lon="8.5756583"><ele>5.666666666666667</ele><time>2026-04-30T15:43:11.725Z</time></trkpt><trkpt lat="40.0162767" lon="8.5759133"><ele>5.333333333333334</ele><time>2026-04-30T15:43:12.724Z</time></trkpt><trkpt lat="40.0162867" lon="8.576165"><ele>5.0</ele><time>2026-04-30T15:43:13.721Z</time></trkpt><trkpt lat="40.0163" lon="8.5764267"><ele>5.0</ele><time>2026-04-30T15:43:14.769Z</time></trkpt><trkpt lat="40.0163017" lon="8.5766833"><ele>5.0</ele><time>2026-04-30T15:43:15.72Z</time></trkpt><trkpt lat="40.0163133" lon="8.5769583"><ele>5.0</ele><time>2026-04-30T15:43:16.722Z</time></trkpt><trkpt lat="40.016335" lon="8.5772217"><ele>5.0</ele><time>2026-04-30T15:43:17.722Z</time></trkpt><trkpt lat="40.0163517" lon="8.57748"><ele>5.0</ele><time>2026-04-30T15:43:18.724Z</time></trkpt><trkpt lat="40.0163633" lon="8.5777417"><ele>5.0</ele><time>2026-04-30T15:43:19.721Z</time></trkpt><trkpt lat="40.0163633" lon="8.5780067"><ele>5.666666666666667</ele><time>2026-04-30T15:43:20.769Z</time></trkpt><trkpt lat="40.0163667" lon="8.578275"><ele>6.333333333333334</ele><time>2026-04-30T15:43:21.718Z</time></trkpt><trkpt lat="40.01637" lon="8.578535"><ele>7.0</ele><time>2026-04-30T15:43:22.724Z</time></trkpt><trkpt lat="40.01639" lon="8.5787867"><ele>7.0</ele><time>2026-04-30T15:43:23.721Z</time></trkpt><trkpt lat="40.016395" lon="8.5790467"><ele>7.0</ele><time>2026-04-30T15:43:24.725Z</time></trkpt><trkpt lat="40.0164" lon="8.5793083"><ele>7.0</ele><time>2026-04-30T15:43:25.722Z</time></trkpt><trkpt lat="40.01641" lon="8.57957"><ele>7.0</ele><time>2026-04-30T15:43:26.769Z</time></trkpt><trkpt lat="40.0164117" lon="8.5798383"><ele>7.0</ele><time>2026-04-30T15:43:27.723Z</time></trkpt><trkpt lat="40.016435" lon="8.580085"><ele>7.0</ele><time>2026-04-30T15:43:28.72Z</time></trkpt><trkpt lat="40.01646" lon="8.5803317"><ele>6.666666666666667</ele><time>2026-04-30T15:43:29.722Z</time></trkpt><trkpt lat="40.0164733" lon="8.5805883"><ele>6.333333333333334</ele><time>2026-04-30T15:43:30.723Z</time></trkpt><trkpt lat="40.0164917" lon="8.5808467"><ele>6.0</ele><time>2026-04-30T15:43:31.72Z</time></trkpt><trkpt lat="40.0165083" lon="8.5811033"><ele>6.333333333333334</ele><time>2026-04-30T15:43:32.77Z</time></trkpt><trkpt lat="40.0165233" lon="8.5813533"><ele>6.666666666666667</ele><time>2026-04-30T15:43:33.721Z</time></trkpt><trkpt lat="40.0165333" lon="8.5815933"><ele>7.0</ele><time>2026-04-30T15:43:34.719Z</time></trkpt><trkpt lat="40.01654" lon="8.58183"><ele>6.666666666666667</ele><time>2026-04-30T15:43:35.718Z</time></trkpt><trkpt lat="40.0165483" lon="8.582065"><ele>6.333333333333334</ele><time>2026-04-30T15:43:36.73Z</time></trkpt><trkpt lat="40.0165467" lon="8.5822883"><ele>6.0</ele><time>2026-04-30T15:43:37.727Z</time></trkpt><trkpt lat="40.016545" lon="8.5825"><ele>6.0</ele><time>2026-04-30T15:43:38.783Z</time></trkpt><trkpt lat="40.0165233" lon="8.5827317"><ele>6.0</ele><time>2026-04-30T15:43:39.724Z</time></trkpt><trkpt lat="40.0164817" lon="8.5829467"><ele>6.0</ele><time>2026-04-30T15:43:40.724Z</time></trkpt><trkpt lat="40.016425" lon="8.5831767"><ele>5.666666666666667</ele><time>2026-04-30T15:43:41.723Z</time></trkpt><trkpt lat="40.0163383" lon="8.58341"><ele>5.333333333333334</ele><time>2026-04-30T15:43:42.724Z</time></trkpt><trkpt lat="40.0162367" lon="8.5836383"><ele>5.0</ele><time>2026-04-30T15:43:43.723Z</time></trkpt><trkpt lat="40.0161333" lon="8.5838567"><ele>5.0</ele><time>2026-04-30T15:43:44.771Z</time></trkpt><trkpt lat="40.0160033" lon="8.5840383"><ele>5.0</ele><time>2026-04-30T15:43:45.719Z</time></trkpt><trkpt lat="40.0158667" lon="8.5842083"><ele>5.0</ele><time>2026-04-30T15:43:46.722Z</time></trkpt><trkpt lat="40.0157167" lon="8.5843667"><ele>4.666666666666667</ele><time>2026-04-30T15:43:47.72Z</time></trkpt><trkpt lat="40.0155667" lon="8.5845217"><ele>4.333333333333333</ele><time>2026-04-30T15:43:48.723Z</time></trkpt><trkpt lat="40.0154217" lon="8.5846783"><ele>4.0</ele><time>2026-04-30T15:43:49.719Z</time></trkpt><trkpt lat="40.015275" lon="8.5848283"><ele>4.0</ele><time>2026-04-30T15:43:50.761Z</time></trkpt><trkpt lat="40.0151217" lon="8.5849867"><ele>4.0</ele><time>2026-04-30T15:43:51.722Z</time></trkpt><trkpt lat="40.0149683" lon="8.585125"><ele>4.0</ele><time>2026-04-30T15:43:52.721Z</time></trkpt><trkpt lat="40.0148217" lon="8.585265"><ele>5.666666666666666</ele><time>2026-04-30T15:43:53.723Z</time></trkpt><trkpt lat="40.01468" lon="8.5854117"><ele>7.333333333333333</ele><time>2026-04-30T15:43:54.725Z</time></trkpt><trkpt lat="40.014545" lon="8.58557"><ele>9.0</ele><time>2026-04-30T15:43:55.722Z</time></trkpt><trkpt lat="40.0144217" lon="8.585745"><ele>9.0</ele><time>2026-04-30T15:43:56.761Z</time></trkpt><trkpt lat="40.0143033" lon="8.585905"><ele>9.0</ele><time>2026-04-30T15:43:57.725Z</time></trkpt><trkpt lat="40.0141867" lon="8.5860533"><ele>9.0</ele><time>2026-04-30T15:43:58.724Z</time></trkpt><trkpt lat="40.0140983" lon="8.586265"><ele>11.0</ele><time>2026-04-30T15:43:59.72Z</time></trkpt><trkpt lat="40.0140367" lon="8.5864183"><ele>13.0</ele><time>2026-04-30T15:44:00.718Z</time></trkpt><trkpt lat="40.0139667" lon="8.5865817"><ele>15.0</ele><time>2026-04-30T15:44:01.723Z</time></trkpt><trkpt lat="40.0139" lon="8.5867383"><ele>17.0</ele><time>2026-04-30T15:44:02.767Z</time></trkpt><trkpt lat="40.0138517" lon="8.5868883"><ele>16.0</ele><time>2026-04-30T15:44:03.721Z</time></trkpt><trkpt lat="40.01383" lon="8.587035"><ele>15.0</ele><time>2026-04-30T15:44:04.723Z</time></trkpt><trkpt lat="40.0138067" lon="8.587175"><ele>14.0</ele><time>2026-04-30T15:44:05.721Z</time></trkpt><trkpt lat="40.013775" lon="8.5873117"><ele>13.0</ele><time>2026-04-30T15:44:06.719Z</time></trkpt><trkpt lat="40.0137367" lon="8.5874217"><ele>12.0</ele><time>2026-04-30T15:44:07.722Z</time></trkpt><trkpt lat="40.0136717" lon="8.5875083"><ele>12.0</ele><time>2026-04-30T15:44:08.764Z</time></trkpt><trkpt lat="40.0136" lon="8.5875933"><ele>12.0</ele><time>2026-04-30T15:44:09.721Z</time></trkpt><trkpt lat="40.01353" lon="8.5876817"><ele>12.0</ele><time>2026-04-30T15:44:10.722Z</time></trkpt><trkpt lat="40.0134517" lon="8.587775"><ele>12.0</ele><time>2026-04-30T15:44:11.72Z</time></trkpt><trkpt lat="40.013375" lon="8.5878567"><ele>12.0</ele><time>2026-04-30T15:44:12.723Z</time></trkpt><trkpt lat="40.0133217" lon="8.5879683"><ele>10.75</ele><time>2026-04-30T15:44:13.722Z</time></trkpt><trkpt lat="40.0132867" lon="8.5880967"><ele>9.5</ele><time>2026-04-30T15:44:14.77Z</time></trkpt><trkpt lat="40.0132417" lon="8.5882367"><ele>8.25</ele><time>2026-04-30T15:44:15.72Z</time></trkpt><trkpt lat="40.0132217" lon="8.588415"><ele>7.0</ele><time>2026-04-30T15:44:16.729Z</time></trkpt><trkpt lat="40.0132033" lon="8.5886067"><ele>7.333333333333334</ele><time>2026-04-30T15:44:17.723Z</time></trkpt><trkpt lat="40.0131767" lon="8.588815"><ele>7.666666666666666</ele><time>2026-04-30T15:44:18.723Z</time></trkpt><trkpt lat="40.0131517" lon="8.5890583"><ele>8.0</ele><time>2026-04-30T15:44:19.723Z</time></trkpt><trkpt lat="40.0131067" lon="8.5893067"><ele>9.0</ele><time>2026-04-30T15:44:20.761Z</time></trkpt><trkpt lat="40.01306" lon="8.58954"><ele>10.0</ele><time>2026-04-30T15:44:21.723Z</time></trkpt><trkpt lat="40.0130133" lon="8.5897617"><ele>11.0</ele><time>2026-04-30T15:44:22.722Z</time></trkpt><trkpt lat="40.0129633" lon="8.5899667"><ele>11.0</ele><time>2026-04-30T15:44:23.725Z</time></trkpt><trkpt lat="40.0129117" lon="8.5901667"><ele>11.0</ele><time>2026-04-30T15:44:24.722Z</time></trkpt><trkpt lat="40.0128633" lon="8.5903733"><ele>11.0</ele><time>2026-04-30T15:44:25.723Z</time></trkpt><trkpt lat="40.0128217" lon="8.5905767"><ele>10.0</ele><time>2026-04-30T15:44:26.772Z</time></trkpt><trkpt lat="40.01278" lon="8.590775"><ele>9.0</ele><time>2026-04-30T15:44:27.72Z</time></trkpt><trkpt lat="40.0127383" lon="8.59097"><ele>8.0</ele><time>2026-04-30T15:44:28.722Z</time></trkpt><trkpt lat="40.012695" lon="8.59116"><ele>7.0</ele><time>2026-04-30T15:44:29.724Z</time></trkpt><trkpt lat="40.01265" lon="8.59135"><ele>6.0</ele><time>2026-04-30T15:44:30.723Z</time></trkpt><trkpt lat="40.0126083" lon="8.59154"><ele>5.0</ele><time>2026-04-30T15:44:31.725Z</time></trkpt><trkpt lat="40.012565" lon="8.5917267"><ele>5.0</ele><time>2026-04-30T15:44:32.772Z</time></trkpt><trkpt lat="40.0125217" lon="8.5919033"><ele>5.0</ele><time>2026-04-30T15:44:33.723Z</time></trkpt><trkpt lat="40.01248" lon="8.5920767"><ele>5.0</ele><time>2026-04-30T15:44:34.718Z</time></trkpt><trkpt lat="40.01244" lon="8.59224"><ele>5.0</ele><time>2026-04-30T15:44:35.717Z</time></trkpt><trkpt lat="40.0124033" lon="8.592395"><ele>5.6</ele><time>2026-04-30T15:44:36.723Z</time></trkpt><trkpt lat="40.0123767" lon="8.5925467"><ele>6.2</ele><time>2026-04-30T15:44:37.722Z</time></trkpt><trkpt lat="40.0123633" lon="8.5926867"><ele>6.800000000000001</ele><time>2026-04-30T15:44:38.77Z</time></trkpt><trkpt lat="40.0123567" lon="8.592815"><ele>7.4</ele><time>2026-04-30T15:44:39.721Z</time></trkpt><trkpt lat="40.0123617" lon="8.5929317"><ele>8.0</ele><time>2026-04-30T15:44:40.724Z</time></trkpt><trkpt lat="40.012375" lon="8.5930467"><ele>8.200000000000001</ele><time>2026-04-30T15:44:41.719Z</time></trkpt><trkpt lat="40.01239" lon="8.5931617"><ele>8.4</ele><time>2026-04-30T15:44:42.72Z</time></trkpt><trkpt lat="40.0124033" lon="8.5932767"><ele>8.600000000000001</ele><time>2026-04-30T15:44:43.72Z</time></trkpt><trkpt lat="40.0124217" lon="8.593395"><ele>8.8</ele><time>2026-04-30T15:44:44.765Z</time></trkpt><trkpt lat="40.0124433" lon="8.5935133"><ele>9.0</ele><time>2026-04-30T15:44:45.723Z</time></trkpt><trkpt lat="40.012465" lon="8.5936367"><ele>9.4</ele><time>2026-04-30T15:44:46.722Z</time></trkpt><trkpt lat="40.0124867" lon="8.5937617"><ele>9.8</ele><time>2026-04-30T15:44:47.723Z</time></trkpt><trkpt lat="40.0125083" lon="8.593885"><ele>10.200000000000001</ele><time>2026-04-30T15:44:48.722Z</time></trkpt><trkpt lat="40.0125267" lon="8.59401"><ele>10.600000000000001</ele><time>2026-04-30T15:44:49.725Z</time></trkpt><trkpt lat="40.0125467" lon="8.594135"><ele>11.0</ele><time>2026-04-30T15:44:50.765Z</time></trkpt><trkpt lat="40.0125683" lon="8.5942567"><ele>11.0</ele><time>2026-04-30T15:44:51.72Z</time></trkpt><trkpt lat="40.0125983" lon="8.5943867"><ele>11.0</ele><time>2026-04-30T15:44:52.723Z</time></trkpt><trkpt lat="40.0126317" lon="8.5945217"><ele>11.0</ele><time>2026-04-30T15:44:53.723Z</time></trkpt><trkpt lat="40.01266" lon="8.59466"><ele>11.0</ele><time>2026-04-30T15:44:54.722Z</time></trkpt><trkpt lat="40.0126917" lon="8.5948017"><ele>11.0</ele><time>2026-04-30T15:44:55.725Z</time></trkpt><trkpt lat="40.01272" lon="8.5949433"><ele>11.4</ele><time>2026-04-30T15:44:56.787Z</time></trkpt><trkpt lat="40.0127517" lon="8.5950833"><ele>11.8</ele><time>2026-04-30T15:44:57.719Z</time></trkpt><trkpt lat="40.0127817" lon="8.5952233"><ele>12.200000000000001</ele><time>2026-04-30T15:44:58.721Z</time></trkpt><trkpt lat="40.012815" lon="8.5953567"><ele>12.600000000000001</ele><time>2026-04-30T15:44:59.724Z</time></trkpt><trkpt lat="40.0128467" lon="8.5954933"><ele>13.0</ele><time>2026-04-30T15:45:00.722Z</time></trkpt><trkpt lat="40.012875" lon="8.5956267"><ele>13.0</ele><time>2026-04-30T15:45:01.72Z</time></trkpt><trkpt lat="40.012905" lon="8.5957533"><ele>13.0</ele><time>2026-04-30T15:45:02.748Z</time></trkpt><trkpt lat="40.0129317" lon="8.5958717"><ele>13.0</ele><time>2026-04-30T15:45:03.722Z</time></trkpt><trkpt lat="40.01296" lon="8.595975"><ele>13.0</ele><time>2026-04-30T15:45:04.722Z</time></trkpt><trkpt lat="40.012985" lon="8.5960617"><ele>13.0</ele><time>2026-04-30T15:45:05.725Z</time></trkpt><trkpt lat="40.0130317" lon="8.5961867"><ele>13.166666666666666</ele><time>2026-04-30T15:45:07.732Z</time></trkpt><trkpt lat="40.0130733" lon="8.59627"><ele>13.333333333333332</ele><time>2026-04-30T15:45:09.722Z</time></trkpt><trkpt lat="40.0131333" lon="8.5963633"><ele>13.5</ele><time>2026-04-30T15:45:12.719Z</time></trkpt><trkpt lat="40.0131733" lon="8.59644"><ele>13.666666666666668</ele><time>2026-04-30T15:45:14.769Z</time></trkpt><trkpt lat="40.0132267" lon="8.5965217"><ele>13.833333333333334</ele><time>2026-04-30T15:45:16.724Z</time></trkpt><trkpt lat="40.0132883" lon="8.596625"><ele>14.0</ele><time>2026-04-30T15:45:18.723Z</time></trkpt><trkpt lat="40.013355" lon="8.596735"><ele>14.000000000000002</ele><time>2026-04-30T15:45:20.765Z</time></trkpt><trkpt lat="40.0134333" lon="8.5968583"><ele>14.0</ele><time>2026-04-30T15:45:22.726Z</time></trkpt><trkpt lat="40.0134783" lon="8.5969217"><ele>14.0</ele><time>2026-04-30T15:45:23.722Z</time></trkpt><trkpt lat="40.0135283" lon="8.5969867"><ele>14.0</ele><time>2026-04-30T15:45:24.723Z</time></trkpt><trkpt lat="40.0135783" lon="8.5970533"><ele>14.000000000000002</ele><time>2026-04-30T15:45:25.725Z</time></trkpt><trkpt lat="40.0136333" lon="8.5971267"><ele>14.0</ele><time>2026-04-30T15:45:26.789Z</time></trkpt><trkpt lat="40.0136867" lon="8.597205"><ele>14.166666666666668</ele><time>2026-04-30T15:45:27.722Z</time></trkpt><trkpt lat="40.0137433" lon="8.5972767"><ele>14.333333333333334</ele><time>2026-04-30T15:45:28.726Z</time></trkpt><trkpt lat="40.0138" lon="8.5973517"><ele>14.5</ele><time>2026-04-30T15:45:29.723Z</time></trkpt><trkpt lat="40.0138483" lon="8.59743"><ele>14.666666666666668</ele><time>2026-04-30T15:45:30.721Z</time></trkpt><trkpt lat="40.0138933" lon="8.5975083"><ele>14.833333333333334</ele><time>2026-04-30T15:45:31.724Z</time></trkpt><trkpt lat="40.0139417" lon="8.59758"><ele>15.0</ele><time>2026-04-30T15:45:32.749Z</time></trkpt><trkpt lat="40.0139933" lon="8.59765"><ele>15.0</ele><time>2026-04-30T15:45:33.721Z</time></trkpt><trkpt lat="40.01404" lon="8.5977233"><ele>15.0</ele><time>2026-04-30T15:45:34.719Z</time></trkpt><trkpt lat="40.0140833" lon="8.5978"><ele>15.0</ele><time>2026-04-30T15:45:35.723Z</time></trkpt><trkpt lat="40.014125" lon="8.5978833"><ele>15.0</ele><time>2026-04-30T15:45:36.72Z</time></trkpt><trkpt lat="40.01416" lon="8.5979683"><ele>15.0</ele><time>2026-04-30T15:45:37.726Z</time></trkpt><trkpt lat="40.0141867" lon="8.5980567"><ele>15.0</ele><time>2026-04-30T15:45:38.764Z</time></trkpt><trkpt lat="40.0142033" lon="8.5981417"><ele>15.0</ele><time>2026-04-30T15:45:39.72Z</time></trkpt><trkpt lat="40.0142167" lon="8.598225"><ele>14.8</ele><time>2026-04-30T15:45:40.719Z</time></trkpt><trkpt lat="40.0142267" lon="8.5983817"><ele>14.6</ele><time>2026-04-30T15:45:42.719Z</time></trkpt><trkpt lat="40.0142533" lon="8.598535"><ele>14.399999999999999</ele><time>2026-04-30T15:45:44.765Z</time></trkpt><trkpt lat="40.0143133" lon="8.5986467"><ele>14.2</ele><time>2026-04-30T15:45:46.719Z</time></trkpt><trkpt lat="40.0143883" lon="8.5987333"><ele>14.0</ele><time>2026-04-30T15:45:48.723Z</time></trkpt><trkpt lat="40.0144367" lon="8.5988667"><ele>14.399999999999999</ele><time>2026-04-30T15:45:50.765Z</time></trkpt><trkpt lat="40.014475" lon="8.5989833"><ele>14.799999999999999</ele><time>2026-04-30T15:45:52.725Z</time></trkpt><trkpt lat="40.0144867" lon="8.59909"><ele>15.200000000000001</ele><time>2026-04-30T15:45:54.722Z</time></trkpt><trkpt lat="40.01448" lon="8.5992133"><ele>15.600000000000001</ele><time>2026-04-30T15:45:56.75Z</time></trkpt><trkpt lat="40.0144583" lon="8.5993617"><ele>16.0</ele><time>2026-04-30T15:45:58.72Z</time></trkpt><trkpt lat="40.014445" lon="8.5994483"><ele>15.999999999999998</ele><time>2026-04-30T15:45:59.724Z</time></trkpt><trkpt lat="40.0144333" lon="8.5995317"><ele>16.0</ele><time>2026-04-30T15:46:00.721Z</time></trkpt><trkpt lat="40.014405" lon="8.59968"><ele>16.0</ele><time>2026-04-30T15:46:02.766Z</time></trkpt><trkpt lat="40.0143683" lon="8.599835"><ele>16.0</ele><time>2026-04-30T15:46:04.724Z</time></trkpt><trkpt lat="40.0143417" lon="8.5999133"><ele>15.999999999999998</ele><time>2026-04-30T15:46:05.727Z</time></trkpt><trkpt lat="40.014315" lon="8.6000017"><ele>16.0</ele><time>2026-04-30T15:46:06.719Z</time></trkpt><trkpt lat="40.0142917" lon="8.6001"><ele>15.999999999999998</ele><time>2026-04-30T15:46:07.725Z</time></trkpt><trkpt lat="40.0142817" lon="8.6002083"><ele>16.0</ele><time>2026-04-30T15:46:08.764Z</time></trkpt><trkpt lat="40.014275" lon="8.6003167"><ele>16.0</ele><time>2026-04-30T15:46:09.72Z</time></trkpt><trkpt lat="40.01427" lon="8.6004183"><ele>16.0</ele><time>2026-04-30T15:46:10.722Z</time></trkpt><trkpt lat="40.0142767" lon="8.6005183"><ele>15.999999999999998</ele><time>2026-04-30T15:46:11.726Z</time></trkpt><trkpt lat="40.0142833" lon="8.6006133"><ele>16.0</ele><time>2026-04-30T15:46:12.721Z</time></trkpt><trkpt lat="40.0142833" lon="8.6007617"><ele>15.666666666666666</ele><time>2026-04-30T15:46:14.762Z</time></trkpt><trkpt lat="40.0142833" lon="8.6008483"><ele>15.333333333333332</ele><time>2026-04-30T15:46:16.723Z</time></trkpt><trkpt lat="40.0142967" lon="8.6010067"><ele>15.0</ele><time>2026-04-30T15:46:28.722Z</time></trkpt><trkpt lat="40.014305" lon="8.60111"><ele>14.666666666666668</ele><time>2026-04-30T15:46:30.72Z</time></trkpt><trkpt lat="40.0142983" lon="8.6012133"><ele>14.333333333333334</ele><time>2026-04-30T15:46:31.722Z</time></trkpt><trkpt lat="40.0142833" lon="8.6013017"><ele>14.0</ele><time>2026-04-30T15:46:32.763Z</time></trkpt><trkpt lat="40.0142733" lon="8.6013883"><ele>13.833333333333334</ele><time>2026-04-30T15:46:33.718Z</time></trkpt><trkpt lat="40.0142567" lon="8.6014733"><ele>13.666666666666668</ele><time>2026-04-30T15:46:34.722Z</time></trkpt><trkpt lat="40.014245" lon="8.601555"><ele>13.5</ele><time>2026-04-30T15:46:35.724Z</time></trkpt><trkpt lat="40.0142183" lon="8.6017167"><ele>13.333333333333332</ele><time>2026-04-30T15:46:37.724Z</time></trkpt><trkpt lat="40.0141983" lon="8.6017967"><ele>13.166666666666666</ele><time>2026-04-30T15:46:38.769Z</time></trkpt><trkpt lat="40.0141783" lon="8.6018783"><ele>13.0</ele><time>2026-04-30T15:46:39.721Z</time></trkpt><trkpt lat="40.0141567" lon="8.6019683"><ele>12.600000000000001</ele><time>2026-04-30T15:46:40.725Z</time></trkpt><trkpt lat="40.0141333" lon="8.602065"><ele>12.200000000000001</ele><time>2026-04-30T15:46:41.723Z</time></trkpt><trkpt lat="40.0141117" lon="8.6021783"><ele>11.8</ele><time>2026-04-30T15:46:42.724Z</time></trkpt><trkpt lat="40.01409" lon="8.6022967"><ele>11.4</ele><time>2026-04-30T15:46:43.724Z</time></trkpt><trkpt lat="40.0140767" lon="8.6024233"><ele>11.0</ele><time>2026-04-30T15:46:44.761Z</time></trkpt><trkpt lat="40.0140767" lon="8.6025617"><ele>11.0</ele><time>2026-04-30T15:46:45.731Z</time></trkpt><trkpt lat="40.014085" lon="8.6027067"><ele>11.0</ele><time>2026-04-30T15:46:46.722Z</time></trkpt><trkpt lat="40.0141017" lon="8.6028617"><ele>11.0</ele><time>2026-04-30T15:46:47.722Z</time></trkpt><trkpt lat="40.0141267" lon="8.603025"><ele>11.0</ele><time>2026-04-30T15:46:48.717Z</time></trkpt><trkpt lat="40.0141583" lon="8.6031883"><ele>11.0</ele><time>2026-04-30T15:46:49.729Z</time></trkpt><trkpt lat="40.014185" lon="8.6033583"><ele>11.0</ele><time>2026-04-30T15:46:50.764Z</time></trkpt><trkpt lat="40.0142083" lon="8.6035317"><ele>11.0</ele><time>2026-04-30T15:46:51.722Z</time></trkpt><trkpt lat="40.014225" lon="8.6037067"><ele>11.0</ele><time>2026-04-30T15:46:52.72Z</time></trkpt><trkpt lat="40.0142333" lon="8.6038883"><ele>11.0</ele><time>2026-04-30T15:46:53.722Z</time></trkpt><trkpt lat="40.0142317" lon="8.604075"><ele>11.0</ele><time>2026-04-30T15:46:54.723Z</time></trkpt><trkpt lat="40.0142183" lon="8.6042633"><ele>11.0</ele><time>2026-04-30T15:46:55.721Z</time></trkpt><trkpt lat="40.01419" lon="8.6044583"><ele>11.0</ele><time>2026-04-30T15:46:56.788Z</time></trkpt><trkpt lat="40.0141467" lon="8.6046567"><ele>10.333333333333332</ele><time>2026-04-30T15:46:57.727Z</time></trkpt><trkpt lat="40.014095" lon="8.6048533"><ele>9.666666666666666</ele><time>2026-04-30T15:46:58.72Z</time></trkpt><trkpt lat="40.0140417" lon="8.6050583"><ele>9.0</ele><time>2026-04-30T15:46:59.724Z</time></trkpt><trkpt lat="40.0139883" lon="8.605275"><ele>8.666666666666666</ele><time>2026-04-30T15:47:00.723Z</time></trkpt><trkpt lat="40.0139367" lon="8.6054967"><ele>8.333333333333332</ele><time>2026-04-30T15:47:01.72Z</time></trkpt><trkpt lat="40.01389" lon="8.60572"><ele>8.0</ele><time>2026-04-30T15:47:02.769Z</time></trkpt><trkpt lat="40.0138483" lon="8.605945"><ele>8.0</ele><time>2026-04-30T15:47:03.722Z</time></trkpt><trkpt lat="40.0138183" lon="8.6061783"><ele>8.0</ele><time>2026-04-30T15:47:04.721Z</time></trkpt><trkpt lat="40.0137817" lon="8.6063917"><ele>8.0</ele><time>2026-04-30T15:47:05.723Z</time></trkpt><trkpt lat="40.013745" lon="8.6065883"><ele>8.0</ele><time>2026-04-30T15:47:06.721Z</time></trkpt><trkpt lat="40.013705" lon="8.6067717"><ele>8.0</ele><time>2026-04-30T15:47:07.725Z</time></trkpt><trkpt lat="40.013665" lon="8.6069333"><ele>8.0</ele><time>2026-04-30T15:47:08.763Z</time></trkpt><trkpt lat="40.01362" lon="8.607075"><ele>8.0</ele><time>2026-04-30T15:47:09.724Z</time></trkpt><trkpt lat="40.0135667" lon="8.6072"><ele>8.4</ele><time>2026-04-30T15:47:10.721Z</time></trkpt><trkpt lat="40.013515" lon="8.60732"><ele>8.8</ele><time>2026-04-30T15:47:11.722Z</time></trkpt><trkpt lat="40.0134667" lon="8.6074367"><ele>9.2</ele><time>2026-04-30T15:47:12.723Z</time></trkpt><trkpt lat="40.0134383" lon="8.6075467"><ele>9.6</ele><time>2026-04-30T15:47:13.723Z</time></trkpt><trkpt lat="40.0134167" lon="8.6076583"><ele>10.0</ele><time>2026-04-30T15:47:14.768Z</time></trkpt><trkpt lat="40.013405" lon="8.60777"><ele>10.6</ele><time>2026-04-30T15:47:15.724Z</time></trkpt><trkpt lat="40.0134133" lon="8.6078867"><ele>11.2</ele><time>2026-04-30T15:47:16.723Z</time></trkpt><trkpt lat="40.01343" lon="8.6080083"><ele>11.8</ele><time>2026-04-30T15:47:17.727Z</time></trkpt><trkpt lat="40.01345" lon="8.6081483"><ele>12.4</ele><time>2026-04-30T15:47:18.721Z</time></trkpt><trkpt lat="40.0134767" lon="8.6083083"><ele>13.0</ele><time>2026-04-30T15:47:19.722Z</time></trkpt><trkpt lat="40.013505" lon="8.6084867"><ele>14.666666666666666</ele><time>2026-04-30T15:47:20.765Z</time></trkpt><trkpt lat="40.0135333" lon="8.608685"><ele>16.333333333333332</ele><time>2026-04-30T15:47:21.717Z</time></trkpt><trkpt lat="40.0135483" lon="8.608895"><ele>18.0</ele><time>2026-04-30T15:47:22.718Z</time></trkpt><trkpt lat="40.0135633" lon="8.6091233"><ele>18.0</ele><time>2026-04-30T15:47:23.724Z</time></trkpt><trkpt lat="40.013575" lon="8.6093667"><ele>18.0</ele><time>2026-04-30T15:47:24.72Z</time></trkpt><trkpt lat="40.0135833" lon="8.609615"><ele>18.0</ele><time>2026-04-30T15:47:25.719Z</time></trkpt><trkpt lat="40.013585" lon="8.6098667"><ele>18.0</ele><time>2026-04-30T15:47:26.789Z</time></trkpt><trkpt lat="40.0135833" lon="8.610125"><ele>18.0</ele><time>2026-04-30T15:47:27.722Z</time></trkpt><trkpt lat="40.0135817" lon="8.61039"><ele>18.0</ele><time>2026-04-30T15:47:28.721Z</time></trkpt><trkpt lat="40.01357" lon="8.610655"><ele>18.0</ele><time>2026-04-30T15:47:29.719Z</time></trkpt><trkpt lat="40.0135567" lon="8.6109267"><ele>18.0</ele><time>2026-04-30T15:47:30.723Z</time></trkpt><trkpt lat="40.01354" lon="8.6112033"><ele>18.0</ele><time>2026-04-30T15:47:31.717Z</time></trkpt><trkpt lat="40.0135117" lon="8.6114833"><ele>18.0</ele><time>2026-04-30T15:47:32.743Z</time></trkpt><trkpt lat="40.01348" lon="8.611765"><ele>18.0</ele><time>2026-04-30T15:47:33.717Z</time></trkpt><trkpt lat="40.0134417" lon="8.6120467"><ele>18.0</ele><time>2026-04-30T15:47:34.722Z</time></trkpt><trkpt lat="40.0133983" lon="8.6123317"><ele>19.0</ele><time>2026-04-30T15:47:35.721Z</time></trkpt><trkpt lat="40.0133533" lon="8.6126183"><ele>20.0</ele><time>2026-04-30T15:47:36.72Z</time></trkpt><trkpt lat="40.0133017" lon="8.612905"><ele>20.0</ele><time>2026-04-30T15:47:37.722Z</time></trkpt><trkpt lat="40.01325" lon="8.613195"><ele>20.0</ele><time>2026-04-30T15:47:38.761Z</time></trkpt><trkpt lat="40.0131967" lon="8.6134883"><ele>19.5</ele><time>2026-04-30T15:47:39.722Z</time></trkpt><trkpt lat="40.013135" lon="8.6137833"><ele>19.0</ele><time>2026-04-30T15:47:40.722Z</time></trkpt><trkpt lat="40.0130733" lon="8.614085"><ele>19.0</ele><time>2026-04-30T15:47:41.723Z</time></trkpt><trkpt lat="40.01301" lon="8.6143833"><ele>19.0</ele><time>2026-04-30T15:47:42.718Z</time></trkpt><trkpt lat="40.0129433" lon="8.6146917"><ele>19.5</ele><time>2026-04-30T15:47:43.722Z</time></trkpt><trkpt lat="40.0128817" lon="8.61499"><ele>20.0</ele><time>2026-04-30T15:47:44.767Z</time></trkpt><trkpt lat="40.0128183" lon="8.6152867"><ele>19.5</ele><time>2026-04-30T15:47:45.72Z</time></trkpt><trkpt lat="40.0127533" lon="8.6155867"><ele>19.0</ele><time>2026-04-30T15:47:46.719Z</time></trkpt><trkpt lat="40.0126933" lon="8.615885"><ele>19.5</ele><time>2026-04-30T15:47:47.724Z</time></trkpt><trkpt lat="40.01263" lon="8.6161783"><ele>20.0</ele><time>2026-04-30T15:47:48.72Z</time></trkpt><trkpt lat="40.0125683" lon="8.6164717"><ele>20.0</ele><time>2026-04-30T15:47:49.732Z</time></trkpt><trkpt lat="40.012505" lon="8.6167617"><ele>20.0</ele><time>2026-04-30T15:47:50.761Z</time></trkpt><trkpt lat="40.012445" lon="8.6170517"><ele>19.0</ele><time>2026-04-30T15:47:51.718Z</time></trkpt><trkpt lat="40.012385" lon="8.6173433"><ele>18.0</ele><time>2026-04-30T15:47:52.721Z</time></trkpt><trkpt lat="40.01233" lon="8.6176333"><ele>18.5</ele><time>2026-04-30T15:47:53.719Z</time></trkpt><trkpt lat="40.0122767" lon="8.617925"><ele>19.0</ele><time>2026-04-30T15:47:54.724Z</time></trkpt><trkpt lat="40.0122267" lon="8.618215"><ele>19.0</ele><time>2026-04-30T15:47:55.716Z</time></trkpt><trkpt lat="40.012175" lon="8.618505"><ele>19.0</ele><time>2026-04-30T15:47:56.787Z</time></trkpt><trkpt lat="40.0121233" lon="8.618795"><ele>19.5</ele><time>2026-04-30T15:47:57.719Z</time></trkpt><trkpt lat="40.0120717" lon="8.6190867"><ele>20.0</ele><time>2026-04-30T15:47:58.722Z</time></trkpt><trkpt lat="40.01202" lon="8.6193783"><ele>20.0</ele><time>2026-04-30T15:47:59.721Z</time></trkpt><trkpt lat="40.0119683" lon="8.6196717"><ele>20.0</ele><time>2026-04-30T15:48:00.72Z</time></trkpt><trkpt lat="40.0119167" lon="8.619965"><ele>20.0</ele><time>2026-04-30T15:48:01.721Z</time></trkpt><trkpt lat="40.0118633" lon="8.6202567"><ele>20.0</ele><time>2026-04-30T15:48:02.771Z</time></trkpt><trkpt lat="40.0118067" lon="8.62055"><ele>18.5</ele><time>2026-04-30T15:48:03.72Z</time></trkpt><trkpt lat="40.0117533" lon="8.62084"><ele>17.0</ele><time>2026-04-30T15:48:04.722Z</time></trkpt><trkpt lat="40.0117067" lon="8.62113"><ele>16.5</ele><time>2026-04-30T15:48:05.725Z</time></trkpt><trkpt lat="40.0116617" lon="8.6214217"><ele>16.0</ele><time>2026-04-30T15:48:06.722Z</time></trkpt><trkpt lat="40.011615" lon="8.62171"><ele>16.666666666666664</ele><time>2026-04-30T15:48:07.72Z</time></trkpt><trkpt lat="40.0115633" lon="8.6219933"><ele>17.333333333333332</ele><time>2026-04-30T15:48:08.774Z</time></trkpt><trkpt lat="40.0115133" lon="8.622275"><ele>18.0</ele><time>2026-04-30T15:48:09.717Z</time></trkpt><trkpt lat="40.0114683" lon="8.62256"><ele>18.333333333333332</ele><time>2026-04-30T15:48:10.722Z</time></trkpt><trkpt lat="40.01142" lon="8.622845"><ele>18.666666666666664</ele><time>2026-04-30T15:48:11.717Z</time></trkpt><trkpt lat="40.011375" lon="8.6231333"><ele>19.0</ele><time>2026-04-30T15:48:12.721Z</time></trkpt><trkpt lat="40.011325" lon="8.62342"><ele>20.0</ele><time>2026-04-30T15:48:13.722Z</time></trkpt><trkpt lat="40.0112783" lon="8.6237067"><ele>21.0</ele><time>2026-04-30T15:48:14.768Z</time></trkpt><trkpt lat="40.0112317" lon="8.623995"><ele>21.0</ele><time>2026-04-30T15:48:15.72Z</time></trkpt><trkpt lat="40.011185" lon="8.624285"><ele>21.0</ele><time>2026-04-30T15:48:16.721Z</time></trkpt><trkpt lat="40.01114" lon="8.62458"><ele>21.0</ele><time>2026-04-30T15:48:17.723Z</time></trkpt><trkpt lat="40.0110933" lon="8.624875"><ele>21.0</ele><time>2026-04-30T15:48:18.719Z</time></trkpt><trkpt lat="40.0110483" lon="8.6251717"><ele>20.5</ele><time>2026-04-30T15:48:19.717Z</time></trkpt><trkpt lat="40.0110017" lon="8.62547"><ele>20.0</ele><time>2026-04-30T15:48:20.773Z</time></trkpt><trkpt lat="40.010955" lon="8.6257733"><ele>20.0</ele><time>2026-04-30T15:48:21.721Z</time></trkpt><trkpt lat="40.01091" lon="8.626075"><ele>20.0</ele><time>2026-04-30T15:48:22.718Z</time></trkpt><trkpt lat="40.010865" lon="8.62638"><ele>20.0</ele><time>2026-04-30T15:48:23.719Z</time></trkpt><trkpt lat="40.01082" lon="8.6266867"><ele>20.0</ele><time>2026-04-30T15:48:24.722Z</time></trkpt><trkpt lat="40.010775" lon="8.6269983"><ele>20.5</ele><time>2026-04-30T15:48:25.717Z</time></trkpt><trkpt lat="40.0107267" lon="8.62731"><ele>21.0</ele><time>2026-04-30T15:48:26.751Z</time></trkpt><trkpt lat="40.0106783" lon="8.6276217"><ele>21.0</ele><time>2026-04-30T15:48:27.722Z</time></trkpt><trkpt lat="40.01063" lon="8.6279383"><ele>21.0</ele><time>2026-04-30T15:48:28.719Z</time></trkpt><trkpt lat="40.0105833" lon="8.6282517"><ele>21.0</ele><time>2026-04-30T15:48:29.724Z</time></trkpt><trkpt lat="40.0105367" lon="8.6285667"><ele>21.0</ele><time>2026-04-30T15:48:30.721Z</time></trkpt><trkpt lat="40.0104883" lon="8.62888"><ele>21.5</ele><time>2026-04-30T15:48:31.722Z</time></trkpt><trkpt lat="40.01044" lon="8.6291917"><ele>22.0</ele><time>2026-04-30T15:48:32.769Z</time></trkpt><trkpt lat="40.01039" lon="8.6294967"><ele>22.0</ele><time>2026-04-30T15:48:33.722Z</time></trkpt><trkpt lat="40.01034" lon="8.6297917"><ele>22.0</ele><time>2026-04-30T15:48:34.722Z</time></trkpt><trkpt lat="40.0102867" lon="8.63008"><ele>22.0</ele><time>2026-04-30T15:48:35.725Z</time></trkpt><trkpt lat="40.0102217" lon="8.630355"><ele>22.0</ele><time>2026-04-30T15:48:36.722Z</time></trkpt><trkpt lat="40.0101467" lon="8.6306233"><ele>22.0</ele><time>2026-04-30T15:48:37.723Z</time></trkpt><trkpt lat="40.0100583" lon="8.630885"><ele>22.0</ele><time>2026-04-30T15:48:38.775Z</time></trkpt><trkpt lat="40.0099533" lon="8.63113"><ele>22.0</ele><time>2026-04-30T15:48:39.724Z</time></trkpt><trkpt lat="40.0098333" lon="8.6313533"><ele>22.0</ele><time>2026-04-30T15:48:40.717Z</time></trkpt><trkpt lat="40.0096883" lon="8.631535"><ele>22.0</ele><time>2026-04-30T15:48:41.722Z</time></trkpt><trkpt lat="40.0095283" lon="8.6316933"><ele>22.0</ele><time>2026-04-30T15:48:42.719Z</time></trkpt><trkpt lat="40.0093583" lon="8.631825"><ele>22.0</ele><time>2026-04-30T15:48:43.721Z</time></trkpt><trkpt lat="40.00916" lon="8.6319017"><ele>21.666666666666664</ele><time>2026-04-30T15:48:44.766Z</time></trkpt><trkpt lat="40.0089633" lon="8.63196"><ele>21.333333333333332</ele><time>2026-04-30T15:48:45.719Z</time></trkpt><trkpt lat="40.0088067" lon="8.6320383"><ele>21.0</ele><time>2026-04-30T15:48:46.722Z</time></trkpt><trkpt lat="40.0086667" lon="8.6321133"><ele>21.0</ele><time>2026-04-30T15:48:47.724Z</time></trkpt><trkpt lat="40.0085283" lon="8.632175"><ele>21.0</ele><time>2026-04-30T15:48:48.72Z</time></trkpt><trkpt lat="40.0083983" lon="8.63224"><ele>21.0</ele><time>2026-04-30T15:48:49.724Z</time></trkpt><trkpt lat="40.008275" lon="8.6323033"><ele>21.0</ele><time>2026-04-30T15:48:50.764Z</time></trkpt><trkpt lat="40.0081533" lon="8.6323483"><ele>21.0</ele><time>2026-04-30T15:48:51.721Z</time></trkpt><trkpt lat="40.0080367" lon="8.6324083"><ele>21.0</ele><time>2026-04-30T15:48:52.722Z</time></trkpt><trkpt lat="40.0079133" lon="8.63246"><ele>21.0</ele><time>2026-04-30T15:48:53.726Z</time></trkpt><trkpt lat="40.0077883" lon="8.6325"><ele>21.0</ele><time>2026-04-30T15:48:54.724Z</time></trkpt><trkpt lat="40.00767" lon="8.6325467"><ele>21.0</ele><time>2026-04-30T15:48:55.72Z</time></trkpt><trkpt lat="40.0075567" lon="8.6326"><ele>21.0</ele><time>2026-04-30T15:48:56.785Z</time></trkpt><trkpt lat="40.0074483" lon="8.63266"><ele>21.0</ele><time>2026-04-30T15:48:57.723Z</time></trkpt><trkpt lat="40.0073483" lon="8.632715"><ele>21.0</ele><time>2026-04-30T15:48:58.722Z</time></trkpt><trkpt lat="40.0072583" lon="8.6327683"><ele>21.0</ele><time>2026-04-30T15:48:59.721Z</time></trkpt><trkpt lat="40.00716" lon="8.6328417"><ele>20.8</ele><time>2026-04-30T15:49:00.725Z</time></trkpt><trkpt lat="40.007065" lon="8.63291"><ele>20.6</ele><time>2026-04-30T15:49:01.723Z</time></trkpt><trkpt lat="40.0069633" lon="8.6329517"><ele>20.4</ele><time>2026-04-30T15:49:02.762Z</time></trkpt><trkpt lat="40.006875" lon="8.6330033"><ele>20.2</ele><time>2026-04-30T15:49:03.726Z</time></trkpt><trkpt lat="40.00677" lon="8.633065"><ele>20.0</ele><time>2026-04-30T15:49:04.722Z</time></trkpt><trkpt lat="40.006675" lon="8.6331217"><ele>19.833333333333336</ele><time>2026-04-30T15:49:05.72Z</time></trkpt><trkpt lat="40.0065917" lon="8.63318"><ele>19.666666666666668</ele><time>2026-04-30T15:49:06.722Z</time></trkpt><trkpt lat="40.0065217" lon="8.6332417"><ele>19.5</ele><time>2026-04-30T15:49:07.723Z</time></trkpt><trkpt lat="40.0064633" lon="8.6333"><ele>19.333333333333332</ele><time>2026-04-30T15:49:08.76Z</time></trkpt><trkpt lat="40.0064133" lon="8.6333517"><ele>19.166666666666664</ele><time>2026-04-30T15:49:09.719Z</time></trkpt><trkpt lat="40.0063467" lon="8.6334283"><ele>19.0</ele><time>2026-04-30T15:49:11.723Z</time></trkpt><trkpt lat="40.006435" lon="8.6333117"><ele>19.0</ele><time>2026-04-30T15:49:37.722Z</time></trkpt><trkpt lat="40.0064917" lon="8.6332333"><ele>19.0</ele><time>2026-04-30T15:49:38.768Z</time></trkpt><trkpt lat="40.0065633" lon="8.63315"><ele>19.0</ele><time>2026-04-30T15:49:39.723Z</time></trkpt><trkpt lat="40.0066433" lon="8.633075"><ele>19.0</ele><time>2026-04-30T15:49:40.722Z</time></trkpt><trkpt lat="40.006735" lon="8.6330017"><ele>19.0</ele><time>2026-04-30T15:49:41.721Z</time></trkpt><trkpt lat="40.0068367" lon="8.6329267"><ele>19.25</ele><time>2026-04-30T15:49:42.723Z</time></trkpt><trkpt lat="40.006955" lon="8.6328467"><ele>19.5</ele><time>2026-04-30T15:49:43.719Z</time></trkpt><trkpt lat="40.007075" lon="8.6327683"><ele>19.75</ele><time>2026-04-30T15:49:44.768Z</time></trkpt><trkpt lat="40.0071883" lon="8.6326933"><ele>20.0</ele><time>2026-04-30T15:49:45.721Z</time></trkpt><trkpt lat="40.0073" lon="8.6326217"><ele>20.0</ele><time>2026-04-30T15:49:46.722Z</time></trkpt><trkpt lat="40.00741" lon="8.6325483"><ele>20.0</ele><time>2026-04-30T15:49:47.719Z</time></trkpt><trkpt lat="40.00752" lon="8.6324733"><ele>20.0</ele><time>2026-04-30T15:49:48.725Z</time></trkpt><trkpt lat="40.00763" lon="8.6324017"><ele>20.0</ele><time>2026-04-30T15:49:49.722Z</time></trkpt><trkpt lat="40.0077417" lon="8.6323283"><ele>20.25</ele><time>2026-04-30T15:49:50.77Z</time></trkpt><trkpt lat="40.007855" lon="8.6322533"><ele>20.5</ele><time>2026-04-30T15:49:51.721Z</time></trkpt><trkpt lat="40.0079717" lon="8.63218"><ele>20.75</ele><time>2026-04-30T15:49:52.722Z</time></trkpt><trkpt lat="40.0080883" lon="8.6321117"><ele>21.0</ele><time>2026-04-30T15:49:53.72Z</time></trkpt><trkpt lat="40.00821" lon="8.63204"><ele>21.0</ele><time>2026-04-30T15:49:54.724Z</time></trkpt><trkpt lat="40.008325" lon="8.6319717"><ele>21.0</ele><time>2026-04-30T15:49:55.721Z</time></trkpt><trkpt lat="40.0084383" lon="8.6319017"><ele>21.0</ele><time>2026-04-30T15:49:56.791Z</time></trkpt><trkpt lat="40.0085517" lon="8.63183"><ele>21.0</ele><time>2026-04-30T15:49:57.721Z</time></trkpt><trkpt lat="40.0086633" lon="8.63176"><ele>21.0</ele><time>2026-04-30T15:49:58.723Z</time></trkpt><trkpt lat="40.008775" lon="8.6316883"><ele>21.0</ele><time>2026-04-30T15:49:59.724Z</time></trkpt><trkpt lat="40.00888" lon="8.63162"><ele>21.0</ele><time>2026-04-30T15:50:00.724Z</time></trkpt><trkpt lat="40.00898" lon="8.6315567"><ele>21.0</ele><time>2026-04-30T15:50:01.722Z</time></trkpt><trkpt lat="40.0090717" lon="8.6315"><ele>21.0</ele><time>2026-04-30T15:50:02.775Z</time></trkpt><trkpt lat="40.009155" lon="8.63145"><ele>21.0</ele><time>2026-04-30T15:50:03.723Z</time></trkpt><trkpt lat="40.0092267" lon="8.6314133"><ele>21.0</ele><time>2026-04-30T15:50:04.718Z</time></trkpt><trkpt lat="40.0092883" lon="8.6313917"><ele>21.0</ele><time>2026-04-30T15:50:05.722Z</time></trkpt><trkpt lat="40.00939" lon="8.631405"><ele>21.0</ele><time>2026-04-30T15:50:07.726Z</time></trkpt><trkpt lat="40.00939" lon="8.6315133"><ele>21.0</ele><time>2026-04-30T15:50:08.772Z</time></trkpt><trkpt lat="40.0094133" lon="8.6316067"><ele>21.0</ele><time>2026-04-30T15:50:09.724Z</time></trkpt><trkpt lat="40.0094367" lon="8.6317167"><ele>21.0</ele><time>2026-04-30T15:50:10.724Z</time></trkpt><trkpt lat="40.0094583" lon="8.6318383"><ele>21.0</ele><time>2026-04-30T15:50:11.72Z</time></trkpt><trkpt lat="40.0094883" lon="8.6319567"><ele>21.0</ele><time>2026-04-30T15:50:12.72Z</time></trkpt><trkpt lat="40.0095017" lon="8.6321"><ele>21.0</ele><time>2026-04-30T15:50:13.722Z</time></trkpt><trkpt lat="40.0095033" lon="8.6322467"><ele>21.0</ele><time>2026-04-30T15:50:14.769Z</time></trkpt><trkpt lat="40.0095067" lon="8.6323933"><ele>21.0</ele><time>2026-04-30T15:50:15.721Z</time></trkpt><trkpt lat="40.0095033" lon="8.6325633"><ele>21.0</ele><time>2026-04-30T15:50:16.722Z</time></trkpt><trkpt lat="40.009515" lon="8.6327083"><ele>21.0</ele><time>2026-04-30T15:50:17.727Z</time></trkpt><trkpt lat="40.0095383" lon="8.632815"><ele>21.0</ele><time>2026-04-30T15:50:18.725Z</time></trkpt><trkpt lat="40.00957" lon="8.6329017"><ele>21.0</ele><time>2026-04-30T15:50:19.722Z</time></trkpt><trkpt lat="40.0096033" lon="8.6329783"><ele>21.0</ele><time>2026-04-30T15:50:20.761Z</time></trkpt><trkpt lat="40.0096333" lon="8.63306"><ele>21.0</ele><time>2026-04-30T15:50:21.721Z</time></trkpt><trkpt lat="40.009655" lon="8.6331517"><ele>21.0</ele><time>2026-04-30T15:50:22.721Z</time></trkpt><trkpt lat="40.0096767" lon="8.6332533"><ele>21.0</ele><time>2026-04-30T15:50:23.722Z</time></trkpt><trkpt lat="40.0096983" lon="8.633365"><ele>21.0</ele><time>2026-04-30T15:50:24.72Z</time></trkpt><trkpt lat="40.0097133" lon="8.6334983"><ele>19.75</ele><time>2026-04-30T15:50:25.721Z</time></trkpt><trkpt lat="40.00972" lon="8.6336617"><ele>18.5</ele><time>2026-04-30T15:50:26.783Z</time></trkpt><trkpt lat="40.0097283" lon="8.6338333"><ele>17.25</ele><time>2026-04-30T15:50:27.723Z</time></trkpt><trkpt lat="40.0097367" lon="8.63402"><ele>16.0</ele><time>2026-04-30T15:50:28.72Z</time></trkpt><trkpt lat="40.00974" lon="8.6342267"><ele>16.0</ele><time>2026-04-30T15:50:29.718Z</time></trkpt><trkpt lat="40.0097383" lon="8.6344067"><ele>16.0</ele><time>2026-04-30T15:50:30.72Z</time></trkpt><trkpt lat="40.0097167" lon="8.6345983"><ele>16.0</ele><time>2026-04-30T15:50:31.721Z</time></trkpt><trkpt lat="40.0096867" lon="8.6347933"><ele>16.0</ele><time>2026-04-30T15:50:32.768Z</time></trkpt><trkpt lat="40.00965" lon="8.6349883"><ele>16.333333333333332</ele><time>2026-04-30T15:50:33.72Z</time></trkpt><trkpt lat="40.009605" lon="8.63519"><ele>16.666666666666668</ele><time>2026-04-30T15:50:34.723Z</time></trkpt><trkpt lat="40.00956" lon="8.6353867"><ele>17.0</ele><time>2026-04-30T15:50:35.722Z</time></trkpt><trkpt lat="40.0095183" lon="8.6355833"><ele>17.666666666666668</ele><time>2026-04-30T15:50:36.723Z</time></trkpt><trkpt lat="40.0094817" lon="8.63578"><ele>18.333333333333332</ele><time>2026-04-30T15:50:37.723Z</time></trkpt><trkpt lat="40.009445" lon="8.63598"><ele>19.0</ele><time>2026-04-30T15:50:38.761Z</time></trkpt><trkpt lat="40.0094117" lon="8.63618"><ele>19.333333333333332</ele><time>2026-04-30T15:50:39.721Z</time></trkpt><trkpt lat="40.0093667" lon="8.6363883"><ele>19.666666666666668</ele><time>2026-04-30T15:50:40.721Z</time></trkpt><trkpt lat="40.0093133" lon="8.6365867"><ele>20.0</ele><time>2026-04-30T15:50:41.722Z</time></trkpt><trkpt lat="40.0092567" lon="8.63678"><ele>20.0</ele><time>2026-04-30T15:50:42.724Z</time></trkpt><trkpt lat="40.009195" lon="8.63699"><ele>20.0</ele><time>2026-04-30T15:50:43.721Z</time></trkpt><trkpt lat="40.0091433" lon="8.6371867"><ele>20.0</ele><time>2026-04-30T15:50:44.764Z</time></trkpt><trkpt lat="40.009095" lon="8.6373883"><ele>19.666666666666668</ele><time>2026-04-30T15:50:45.72Z</time></trkpt><trkpt lat="40.00904" lon="8.6375833"><ele>19.333333333333332</ele><time>2026-04-30T15:50:46.722Z</time></trkpt><trkpt lat="40.0089867" lon="8.6377867"><ele>19.0</ele><time>2026-04-30T15:50:47.723Z</time></trkpt><trkpt lat="40.0089217" lon="8.6379833"><ele>18.666666666666664</ele><time>2026-04-30T15:50:48.723Z</time></trkpt><trkpt lat="40.0088583" lon="8.6381717"><ele>18.333333333333332</ele><time>2026-04-30T15:50:49.723Z</time></trkpt><trkpt lat="40.0088183" lon="8.63835"><ele>18.0</ele><time>2026-04-30T15:50:50.757Z</time></trkpt><trkpt lat="40.0087683" lon="8.638535"><ele>18.0</ele><time>2026-04-30T15:50:51.72Z</time></trkpt><trkpt lat="40.0087167" lon="8.6387117"><ele>18.0</ele><time>2026-04-30T15:50:52.721Z</time></trkpt><trkpt lat="40.0086633" lon="8.6388717"><ele>18.0</ele><time>2026-04-30T15:50:53.718Z</time></trkpt><trkpt lat="40.008625" lon="8.63903"><ele>18.0</ele><time>2026-04-30T15:50:54.719Z</time></trkpt><trkpt lat="40.0085967" lon="8.63919"><ele>18.0</ele><time>2026-04-30T15:50:55.722Z</time></trkpt><trkpt lat="40.00858" lon="8.6393167"><ele>18.0</ele><time>2026-04-30T15:50:56.786Z</time></trkpt><trkpt lat="40.0085433" lon="8.6394483"><ele>18.0</ele><time>2026-04-30T15:50:57.723Z</time></trkpt><trkpt lat="40.00851" lon="8.63959"><ele>18.0</ele><time>2026-04-30T15:50:58.724Z</time></trkpt><trkpt lat="40.00849" lon="8.6397567"><ele>18.0</ele><time>2026-04-30T15:50:59.722Z</time></trkpt><trkpt lat="40.0084517" lon="8.6399217"><ele>18.0</ele><time>2026-04-30T15:51:00.722Z</time></trkpt><trkpt lat="40.0083917" lon="8.6401117"><ele>18.0</ele><time>2026-04-30T15:51:01.721Z</time></trkpt><trkpt lat="40.0083467" lon="8.6402883"><ele>18.0</ele><time>2026-04-30T15:51:02.768Z</time></trkpt><trkpt lat="40.0083033" lon="8.6404717"><ele>18.0</ele><time>2026-04-30T15:51:03.718Z</time></trkpt><trkpt lat="40.0082567" lon="8.6406517"><ele>17.0</ele><time>2026-04-30T15:51:04.722Z</time></trkpt><trkpt lat="40.008205" lon="8.6408217"><ele>16.0</ele><time>2026-04-30T15:51:05.722Z</time></trkpt><trkpt lat="40.0081583" lon="8.6409933"><ele>15.0</ele><time>2026-04-30T15:51:06.722Z</time></trkpt><trkpt lat="40.0080967" lon="8.6411917"><ele>14.0</ele><time>2026-04-30T15:51:07.719Z</time></trkpt><trkpt lat="40.00806" lon="8.6413683"><ele>14.0</ele><time>2026-04-30T15:51:08.764Z</time></trkpt><trkpt lat="40.00799" lon="8.6415583"><ele>14.0</ele><time>2026-04-30T15:51:09.719Z</time></trkpt><trkpt lat="40.007935" lon="8.6417083"><ele>14.0</ele><time>2026-04-30T15:51:10.723Z</time></trkpt><trkpt lat="40.0078683" lon="8.6418583"><ele>14.0</ele><time>2026-04-30T15:51:11.717Z</time></trkpt><trkpt lat="40.0078" lon="8.641995"><ele>14.2</ele><time>2026-04-30T15:51:12.723Z</time></trkpt><trkpt lat="40.00773" lon="8.6421183"><ele>14.399999999999999</ele><time>2026-04-30T15:51:13.721Z</time></trkpt><trkpt lat="40.0076733" lon="8.64223"><ele>14.6</ele><time>2026-04-30T15:51:14.762Z</time></trkpt><trkpt lat="40.007605" lon="8.6423267"><ele>14.8</ele><time>2026-04-30T15:51:15.721Z</time></trkpt><trkpt lat="40.0075433" lon="8.6424133"><ele>15.0</ele><time>2026-04-30T15:51:16.719Z</time></trkpt><trkpt lat="40.0074917" lon="8.64248"><ele>15.0</ele><time>2026-04-30T15:51:17.719Z</time></trkpt><trkpt lat="40.007415" lon="8.6425683"><ele>15.0</ele><time>2026-04-30T15:51:19.717Z</time></trkpt><trkpt lat="40.0073367" lon="8.6426267"><ele>15.0</ele><time>2026-04-30T15:51:26.786Z</time></trkpt><trkpt lat="40.007275" lon="8.64275"><ele>15.0</ele><time>2026-04-30T15:51:28.721Z</time></trkpt><trkpt lat="40.0072333" lon="8.64283"><ele>15.0</ele><time>2026-04-30T15:51:29.721Z</time></trkpt><trkpt lat="40.0071883" lon="8.6429217"><ele>15.6</ele><time>2026-04-30T15:51:30.726Z</time></trkpt><trkpt lat="40.00714" lon="8.6430167"><ele>16.2</ele><time>2026-04-30T15:51:31.723Z</time></trkpt><trkpt lat="40.0070833" lon="8.6431183"><ele>16.8</ele><time>2026-04-30T15:51:32.766Z</time></trkpt><trkpt lat="40.0070233" lon="8.6432283"><ele>17.4</ele><time>2026-04-30T15:51:33.72Z</time></trkpt><trkpt lat="40.0069683" lon="8.64332"><ele>18.0</ele><time>2026-04-30T15:51:34.719Z</time></trkpt><trkpt lat="40.006905" lon="8.6434083"><ele>18.0</ele><time>2026-04-30T15:51:35.721Z</time></trkpt><trkpt lat="40.0068417" lon="8.6435033"><ele>18.0</ele><time>2026-04-30T15:51:36.719Z</time></trkpt><trkpt lat="40.0067383" lon="8.6435767"><ele>18.0</ele><time>2026-04-30T15:51:37.724Z</time></trkpt><trkpt lat="40.0066217" lon="8.6436667"><ele>18.0</ele><time>2026-04-30T15:51:38.762Z</time></trkpt><trkpt lat="40.0065017" lon="8.6437433"><ele>17.75</ele><time>2026-04-30T15:51:39.721Z</time></trkpt><trkpt lat="40.0064217" lon="8.643805"><ele>17.5</ele><time>2026-04-30T15:51:40.721Z</time></trkpt><trkpt lat="40.0063383" lon="8.6438767"><ele>17.25</ele><time>2026-04-30T15:51:41.717Z</time></trkpt><trkpt lat="40.0062167" lon="8.6439517"><ele>17.0</ele><time>2026-04-30T15:51:42.716Z</time></trkpt><trkpt lat="40.006105" lon="8.6440583"><ele>17.0</ele><time>2026-04-30T15:51:43.72Z</time></trkpt><trkpt lat="40.006005" lon="8.6441633"><ele>17.0</ele><time>2026-04-30T15:51:44.76Z</time></trkpt><trkpt lat="40.0058983" lon="8.6442633"><ele>17.0</ele><time>2026-04-30T15:51:45.72Z</time></trkpt><trkpt lat="40.0057933" lon="8.6443583"><ele>17.0</ele><time>2026-04-30T15:51:46.72Z</time></trkpt><trkpt lat="40.0056933" lon="8.6444417"><ele>17.5</ele><time>2026-04-30T15:51:47.72Z</time></trkpt><trkpt lat="40.0056" lon="8.6445183"><ele>18.0</ele><time>2026-04-30T15:51:48.722Z</time></trkpt><trkpt lat="40.0055067" lon="8.6446"><ele>18.5</ele><time>2026-04-30T15:51:49.723Z</time></trkpt><trkpt lat="40.005415" lon="8.6446817"><ele>19.0</ele><time>2026-04-30T15:51:50.764Z</time></trkpt><trkpt lat="40.0053117" lon="8.6447717"><ele>19.0</ele><time>2026-04-30T15:51:51.714Z</time></trkpt><trkpt lat="40.00523" lon="8.64488"><ele>19.0</ele><time>2026-04-30T15:51:52.722Z</time></trkpt><trkpt lat="40.005155" lon="8.6449883"><ele>19.0</ele><time>2026-04-30T15:51:53.724Z</time></trkpt><trkpt lat="40.0050717" lon="8.6451167"><ele>19.0</ele><time>2026-04-30T15:51:54.725Z</time></trkpt><trkpt lat="40.005" lon="8.6452733"><ele>20.25</ele><time>2026-04-30T15:51:55.717Z</time></trkpt><trkpt lat="40.00493" lon="8.64539"><ele>21.5</ele><time>2026-04-30T15:51:56.786Z</time></trkpt><trkpt lat="40.0048567" lon="8.6455467"><ele>22.75</ele><time>2026-04-30T15:51:57.72Z</time></trkpt><trkpt lat="40.0048017" lon="8.6456883"><ele>24.0</ele><time>2026-04-30T15:51:58.72Z</time></trkpt><trkpt lat="40.0047533" lon="8.6458383"><ele>24.0</ele><time>2026-04-30T15:51:59.72Z</time></trkpt><trkpt lat="40.0047133" lon="8.6459933"><ele>24.0</ele><time>2026-04-30T15:52:00.717Z</time></trkpt><trkpt lat="40.00468" lon="8.6461467"><ele>24.0</ele><time>2026-04-30T15:52:01.722Z</time></trkpt><trkpt lat="40.004645" lon="8.6462917"><ele>24.0</ele><time>2026-04-30T15:52:02.791Z</time></trkpt><trkpt lat="40.0046167" lon="8.646425"><ele>24.0</ele><time>2026-04-30T15:52:03.721Z</time></trkpt><trkpt lat="40.004595" lon="8.6465517"><ele>24.0</ele><time>2026-04-30T15:52:04.717Z</time></trkpt><trkpt lat="40.00457" lon="8.64667"><ele>24.0</ele><time>2026-04-30T15:52:05.718Z</time></trkpt><trkpt lat="40.0045367" lon="8.64678"><ele>24.0</ele><time>2026-04-30T15:52:06.72Z</time></trkpt><trkpt lat="40.0045017" lon="8.646885"><ele>24.0</ele><time>2026-04-30T15:52:07.718Z</time></trkpt><trkpt lat="40.0044683" lon="8.64699"><ele>23.833333333333332</ele><time>2026-04-30T15:52:08.76Z</time></trkpt><trkpt lat="40.0044317" lon="8.6470933"><ele>23.666666666666668</ele><time>2026-04-30T15:52:09.718Z</time></trkpt><trkpt lat="40.0044017" lon="8.6471917"><ele>23.5</ele><time>2026-04-30T15:52:10.722Z</time></trkpt><trkpt lat="40.0043767" lon="8.64727"><ele>23.333333333333336</ele><time>2026-04-30T15:52:11.723Z</time></trkpt><trkpt lat="40.0043417" lon="8.647385"><ele>23.166666666666668</ele><time>2026-04-30T15:52:13.721Z</time></trkpt><trkpt lat="40.004305" lon="8.6475317"><ele>23.0</ele><time>2026-04-30T15:52:15.723Z</time></trkpt><trkpt lat="40.0042817" lon="8.6476133"><ele>23.0</ele><time>2026-04-30T15:52:16.718Z</time></trkpt><trkpt lat="40.0042567" lon="8.6476933"><ele>23.0</ele><time>2026-04-30T15:52:17.723Z</time></trkpt><trkpt lat="40.004215" lon="8.6478433"><ele>23.0</ele><time>2026-04-30T15:52:19.719Z</time></trkpt><trkpt lat="40.0041883" lon="8.6479883"><ele>23.0</ele><time>2026-04-30T15:52:21.722Z</time></trkpt><trkpt lat="40.00417" lon="8.6481133"><ele>23.0</ele><time>2026-04-30T15:52:23.721Z</time></trkpt><trkpt lat="40.00414" lon="8.6482317"><ele>23.2</ele><time>2026-04-30T15:52:25.717Z</time></trkpt><trkpt lat="40.0040933" lon="8.6483467"><ele>23.4</ele><time>2026-04-30T15:52:27.726Z</time></trkpt><trkpt lat="40.00405" lon="8.6484517"><ele>23.599999999999998</ele><time>2026-04-30T15:52:29.722Z</time></trkpt><trkpt lat="40.00403" lon="8.648535"><ele>23.799999999999997</ele><time>2026-04-30T15:52:31.718Z</time></trkpt><trkpt lat="40.0040733" lon="8.6487333"><ele>24.0</ele><time>2026-04-30T15:52:44.759Z</time></trkpt><trkpt lat="40.004" lon="8.6488033"><ele>24.4</ele><time>2026-04-30T15:52:47.716Z</time></trkpt><trkpt lat="40.003895" lon="8.64886"><ele>24.799999999999997</ele><time>2026-04-30T15:52:49.719Z</time></trkpt><trkpt lat="40.0037667" lon="8.6489117"><ele>25.200000000000003</ele><time>2026-04-30T15:52:51.721Z</time></trkpt><trkpt lat="40.003685" lon="8.6489333"><ele>25.6</ele><time>2026-04-30T15:52:52.721Z</time></trkpt><trkpt lat="40.003585" lon="8.64895"><ele>26.0</ele><time>2026-04-30T15:52:53.722Z</time></trkpt><trkpt lat="40.00348" lon="8.648955"><ele>26.0</ele><time>2026-04-30T15:52:54.722Z</time></trkpt><trkpt lat="40.0033767" lon="8.6489667"><ele>26.0</ele><time>2026-04-30T15:52:55.721Z</time></trkpt><trkpt lat="40.0032733" lon="8.6489833"><ele>26.0</ele><time>2026-04-30T15:52:56.769Z</time></trkpt><trkpt lat="40.003175" lon="8.6490133"><ele>26.0</ele><time>2026-04-30T15:52:57.716Z</time></trkpt><trkpt lat="40.0030667" lon="8.649035"><ele>26.0</ele><time>2026-04-30T15:52:58.723Z</time></trkpt><trkpt lat="40.0029783" lon="8.6490633"><ele>25.833333333333332</ele><time>2026-04-30T15:52:59.724Z</time></trkpt><trkpt lat="40.0028983" lon="8.6491083"><ele>25.666666666666664</ele><time>2026-04-30T15:53:00.721Z</time></trkpt><trkpt lat="40.00282" lon="8.6491517"><ele>25.5</ele><time>2026-04-30T15:53:01.721Z</time></trkpt><trkpt lat="40.0027383" lon="8.649195"><ele>25.333333333333336</ele><time>2026-04-30T15:53:02.765Z</time></trkpt><trkpt lat="40.0026617" lon="8.6492383"><ele>25.166666666666668</ele><time>2026-04-30T15:53:03.725Z</time></trkpt><trkpt lat="40.0025867" lon="8.6492767"><ele>25.0</ele><time>2026-04-30T15:53:04.716Z</time></trkpt><trkpt lat="40.002515" lon="8.64931"><ele>24.42857142857143</ele><time>2026-04-30T15:53:05.723Z</time></trkpt><trkpt lat="40.0024417" lon="8.64933"><ele>23.857142857142858</ele><time>2026-04-30T15:53:06.722Z</time></trkpt><trkpt lat="40.0023767" lon="8.6493567"><ele>23.285714285714285</ele><time>2026-04-30T15:53:07.718Z</time></trkpt><trkpt lat="40.0023133" lon="8.64938"><ele>22.714285714285715</ele><time>2026-04-30T15:53:08.76Z</time></trkpt><trkpt lat="40.00225" lon="8.6494033"><ele>22.142857142857142</ele><time>2026-04-30T15:53:09.718Z</time></trkpt><trkpt lat="40.0021783" lon="8.6494283"><ele>21.571428571428573</ele><time>2026-04-30T15:53:10.72Z</time></trkpt><trkpt lat="40.0020983" lon="8.6494583"><ele>21.0</ele><time>2026-04-30T15:53:11.718Z</time></trkpt><trkpt lat="40.0020117" lon="8.6494867"><ele>20.75</ele><time>2026-04-30T15:53:12.718Z</time></trkpt><trkpt lat="40.001895" lon="8.6495267"><ele>20.5</ele><time>2026-04-30T15:53:13.721Z</time></trkpt><trkpt lat="40.0017917" lon="8.6495467"><ele>20.25</ele><time>2026-04-30T15:53:14.76Z</time></trkpt><trkpt lat="40.00167" lon="8.64956"><ele>20.0</ele><time>2026-04-30T15:53:15.715Z</time></trkpt><trkpt lat="40.0015567" lon="8.6495717"><ele>19.6</ele><time>2026-04-30T15:53:16.721Z</time></trkpt><trkpt lat="40.0014467" lon="8.64959"><ele>19.2</ele><time>2026-04-30T15:53:17.729Z</time></trkpt><trkpt lat="40.0013417" lon="8.6496083"><ele>18.8</ele><time>2026-04-30T15:53:18.718Z</time></trkpt><trkpt lat="40.0012383" lon="8.6496317"><ele>18.4</ele><time>2026-04-30T15:53:19.715Z</time></trkpt><trkpt lat="40.00113" lon="8.64966"><ele>18.0</ele><time>2026-04-30T15:53:20.76Z</time></trkpt><trkpt lat="40.0010317" lon="8.6496817"><ele>18.0</ele><time>2026-04-30T15:53:21.718Z</time></trkpt><trkpt lat="40.00094" lon="8.6496983"><ele>18.0</ele><time>2026-04-30T15:53:22.721Z</time></trkpt><trkpt lat="40.0008533" lon="8.6497017"><ele>18.0</ele><time>2026-04-30T15:53:23.718Z</time></trkpt><trkpt lat="40.00078" lon="8.6497017"><ele>18.0</ele><time>2026-04-30T15:53:24.722Z</time></trkpt><trkpt lat="40.0006683" lon="8.649705"><ele>18.0</ele><time>2026-04-30T15:53:26.769Z</time></trkpt><trkpt lat="40.0005767" lon="8.649715"><ele>18.2</ele><time>2026-04-30T15:53:28.722Z</time></trkpt><trkpt lat="40.00047" lon="8.6497383"><ele>18.4</ele><time>2026-04-30T15:53:30.721Z</time></trkpt><trkpt lat="40.0003383" lon="8.6497617"><ele>18.599999999999998</ele><time>2026-04-30T15:53:32.768Z</time></trkpt><trkpt lat="40.0002583" lon="8.6497783"><ele>18.8</ele><time>2026-04-30T15:53:33.72Z</time></trkpt><trkpt lat="40.0001683" lon="8.6497983"><ele>19.0</ele><time>2026-04-30T15:53:34.721Z</time></trkpt><trkpt lat="40.0000717" lon="8.649815"><ele>19.0</ele><time>2026-04-30T15:53:35.72Z</time></trkpt><trkpt lat="39.9999717" lon="8.6498317"><ele>19.0</ele><time>2026-04-30T15:53:36.719Z</time></trkpt><trkpt lat="39.9998733" lon="8.6498533"><ele>19.0</ele><time>2026-04-30T15:53:37.72Z</time></trkpt><trkpt lat="39.9997717" lon="8.64988"><ele>19.0</ele><time>2026-04-30T15:53:38.763Z</time></trkpt><trkpt lat="39.9996683" lon="8.6499017"><ele>19.0</ele><time>2026-04-30T15:53:39.724Z</time></trkpt><trkpt lat="39.9995717" lon="8.6499217"><ele>19.0</ele><time>2026-04-30T15:53:40.719Z</time></trkpt><trkpt lat="39.9994783" lon="8.6499383"><ele>19.0</ele><time>2026-04-30T15:53:41.719Z</time></trkpt><trkpt lat="39.9993867" lon="8.6499533"><ele>19.0</ele><time>2026-04-30T15:53:42.723Z</time></trkpt><trkpt lat="39.999295" lon="8.6499667"><ele>19.0</ele><time>2026-04-30T15:53:43.715Z</time></trkpt><trkpt lat="39.9992083" lon="8.6499833"><ele>19.0</ele><time>2026-04-30T15:53:44.762Z</time></trkpt><trkpt lat="39.999125" lon="8.65"><ele>18.666666666666664</ele><time>2026-04-30T15:53:45.719Z</time></trkpt><trkpt lat="39.9990433" lon="8.650015"><ele>18.333333333333332</ele><time>2026-04-30T15:53:46.719Z</time></trkpt><trkpt lat="39.9989633" lon="8.6500317"><ele>18.0</ele><time>2026-04-30T15:53:47.719Z</time></trkpt><trkpt lat="39.9988783" lon="8.6500483"><ele>17.666666666666668</ele><time>2026-04-30T15:53:48.722Z</time></trkpt><trkpt lat="39.9987867" lon="8.6500667"><ele>17.333333333333336</ele><time>2026-04-30T15:53:49.717Z</time></trkpt><trkpt lat="39.9986917" lon="8.65008"><ele>17.0</ele><time>2026-04-30T15:53:50.764Z</time></trkpt><trkpt lat="39.9985983" lon="8.6500967"><ele>17.0</ele><time>2026-04-30T15:53:51.721Z</time></trkpt><trkpt lat="39.9985033" lon="8.6501133"><ele>17.0</ele><time>2026-04-30T15:53:52.72Z</time></trkpt><trkpt lat="39.9984033" lon="8.6501317"><ele>17.0</ele><time>2026-04-30T15:53:53.722Z</time></trkpt><trkpt lat="39.9982983" lon="8.6501517"><ele>17.0</ele><time>2026-04-30T15:53:54.723Z</time></trkpt><trkpt lat="39.9981867" lon="8.65017"><ele>17.0</ele><time>2026-04-30T15:53:55.72Z</time></trkpt><trkpt lat="39.9980667" lon="8.6501933"><ele>16.0</ele><time>2026-04-30T15:53:56.769Z</time></trkpt><trkpt lat="39.99795" lon="8.6502267"><ele>15.0</ele><time>2026-04-30T15:53:57.719Z</time></trkpt><trkpt lat="39.997825" lon="8.6502733"><ele>14.0</ele><time>2026-04-30T15:53:58.726Z</time></trkpt><trkpt lat="39.9976833" lon="8.6503783"><ele>13.0</ele><time>2026-04-30T15:53:59.721Z</time></trkpt><trkpt lat="39.9975517" lon="8.6504883"><ele>12.333333333333332</ele><time>2026-04-30T15:54:00.722Z</time></trkpt><trkpt lat="39.9974183" lon="8.650595"><ele>11.666666666666666</ele><time>2026-04-30T15:54:01.721Z</time></trkpt><trkpt lat="39.997285" lon="8.6506983"><ele>11.0</ele><time>2026-04-30T15:54:02.77Z</time></trkpt><trkpt lat="39.997165" lon="8.6507967"><ele>11.0</ele><time>2026-04-30T15:54:03.714Z</time></trkpt><trkpt lat="39.9970533" lon="8.6508983"><ele>11.0</ele><time>2026-04-30T15:54:04.726Z</time></trkpt><trkpt lat="39.9969367" lon="8.6509933"><ele>11.0</ele><time>2026-04-30T15:54:05.718Z</time></trkpt><trkpt lat="39.996825" lon="8.6510933"><ele>11.0</ele><time>2026-04-30T15:54:06.724Z</time></trkpt><trkpt lat="39.9967183" lon="8.651195"><ele>11.5</ele><time>2026-04-30T15:54:07.719Z</time></trkpt><trkpt lat="39.9966133" lon="8.6512833"><ele>12.0</ele><time>2026-04-30T15:54:08.757Z</time></trkpt><trkpt lat="39.9965167" lon="8.6513783"><ele>12.5</ele><time>2026-04-30T15:54:09.719Z</time></trkpt><trkpt lat="39.996415" lon="8.6514667"><ele>13.0</ele><time>2026-04-30T15:54:10.719Z</time></trkpt><trkpt lat="39.9963117" lon="8.6515667"><ele>13.0</ele><time>2026-04-30T15:54:11.717Z</time></trkpt><trkpt lat="39.9962017" lon="8.6516717"><ele>13.0</ele><time>2026-04-30T15:54:12.721Z</time></trkpt><trkpt lat="39.99608" lon="8.6517733"><ele>13.0</ele><time>2026-04-30T15:54:13.717Z</time></trkpt><trkpt lat="39.9959667" lon="8.65189"><ele>13.0</ele><time>2026-04-30T15:54:14.762Z</time></trkpt><trkpt lat="39.9958467" lon="8.652"><ele>14.666666666666666</ele><time>2026-04-30T15:54:15.719Z</time></trkpt><trkpt lat="39.9957233" lon="8.6521083"><ele>16.333333333333332</ele><time>2026-04-30T15:54:16.722Z</time></trkpt><trkpt lat="39.9955883" lon="8.6522167"><ele>18.0</ele><time>2026-04-30T15:54:17.717Z</time></trkpt><trkpt lat="39.9954433" lon="8.6523333"><ele>18.0</ele><time>2026-04-30T15:54:18.722Z</time></trkpt><trkpt lat="39.99526" lon="8.6524683"><ele>18.0</ele><time>2026-04-30T15:54:19.715Z</time></trkpt><trkpt lat="39.995125" lon="8.652615"><ele>18.0</ele><time>2026-04-30T15:54:20.762Z</time></trkpt><trkpt lat="39.9950133" lon="8.6527283"><ele>17.333333333333332</ele><time>2026-04-30T15:54:21.722Z</time></trkpt><trkpt lat="39.9948933" lon="8.65285"><ele>16.666666666666664</ele><time>2026-04-30T15:54:22.721Z</time></trkpt><trkpt lat="39.9947617" lon="8.652965"><ele>16.0</ele><time>2026-04-30T15:54:23.716Z</time></trkpt><trkpt lat="39.9946183" lon="8.6530733"><ele>16.0</ele><time>2026-04-30T15:54:24.719Z</time></trkpt><trkpt lat="39.9944767" lon="8.6531817"><ele>16.0</ele><time>2026-04-30T15:54:25.717Z</time></trkpt><trkpt lat="39.9943233" lon="8.6532917"><ele>16.0</ele><time>2026-04-30T15:54:26.768Z</time></trkpt><trkpt lat="39.99417" lon="8.6533983"><ele>17.0</ele><time>2026-04-30T15:54:27.717Z</time></trkpt><trkpt lat="39.9940183" lon="8.653505"><ele>18.0</ele><time>2026-04-30T15:54:28.722Z</time></trkpt><trkpt lat="39.993865" lon="8.6536"><ele>19.0</ele><time>2026-04-30T15:54:29.721Z</time></trkpt><trkpt lat="39.9937233" lon="8.6536867"><ele>19.0</ele><time>2026-04-30T15:54:30.721Z</time></trkpt><trkpt lat="39.99358" lon="8.6537583"><ele>19.0</ele><time>2026-04-30T15:54:31.717Z</time></trkpt><trkpt lat="39.9934367" lon="8.6538317"><ele>19.0</ele><time>2026-04-30T15:54:32.769Z</time></trkpt><trkpt lat="39.993295" lon="8.6538867"><ele>19.666666666666664</ele><time>2026-04-30T15:54:33.723Z</time></trkpt><trkpt lat="39.9931383" lon="8.6539633"><ele>20.333333333333332</ele><time>2026-04-30T15:54:34.722Z</time></trkpt><trkpt lat="39.9929833" lon="8.6540433"><ele>21.0</ele><time>2026-04-30T15:54:35.72Z</time></trkpt><trkpt lat="39.9928033" lon="8.6541317"><ele>21.0</ele><time>2026-04-30T15:54:36.718Z</time></trkpt><trkpt lat="39.9926267" lon="8.654235"><ele>21.0</ele><time>2026-04-30T15:54:37.72Z</time></trkpt><trkpt lat="39.9924483" lon="8.6543183"><ele>21.0</ele><time>2026-04-30T15:54:38.758Z</time></trkpt><trkpt lat="39.9922533" lon="8.6544167"><ele>22.0</ele><time>2026-04-30T15:54:39.722Z</time></trkpt><trkpt lat="39.99204" lon="8.654475"><ele>23.0</ele><time>2026-04-30T15:54:40.72Z</time></trkpt><trkpt lat="39.991855" lon="8.6545617"><ele>24.0</ele><time>2026-04-30T15:54:41.72Z</time></trkpt><trkpt lat="39.9916733" lon="8.6546267"><ele>25.0</ele><time>2026-04-30T15:54:42.724Z</time></trkpt><trkpt lat="39.9914833" lon="8.6546983"><ele>26.0</ele><time>2026-04-30T15:54:43.725Z</time></trkpt><trkpt lat="39.9913067" lon="8.6547733"><ele>27.0</ele><time>2026-04-30T15:54:44.76Z</time></trkpt><trkpt lat="39.9911233" lon="8.6548383"><ele>27.0</ele><time>2026-04-30T15:54:45.72Z</time></trkpt><trkpt lat="39.990955" lon="8.6549083"><ele>27.0</ele><time>2026-04-30T15:54:46.724Z</time></trkpt><trkpt lat="39.9907933" lon="8.6550017"><ele>27.0</ele><time>2026-04-30T15:54:47.719Z</time></trkpt><trkpt lat="39.9906417" lon="8.6551233"><ele>27.0</ele><time>2026-04-30T15:54:48.72Z</time></trkpt><trkpt lat="39.9905033" lon="8.6552767"><ele>27.0</ele><time>2026-04-30T15:54:49.72Z</time></trkpt><trkpt lat="39.9903783" lon="8.655425"><ele>27.0</ele><time>2026-04-30T15:54:50.76Z</time></trkpt><trkpt lat="39.9902583" lon="8.655635"><ele>27.0</ele><time>2026-04-30T15:54:51.723Z</time></trkpt><trkpt lat="39.9901733" lon="8.6558617"><ele>27.0</ele><time>2026-04-30T15:54:52.723Z</time></trkpt><trkpt lat="39.990115" lon="8.6561033"><ele>27.0</ele><time>2026-04-30T15:54:53.73Z</time></trkpt><trkpt lat="39.9900567" lon="8.6563333"><ele>28.333333333333336</ele><time>2026-04-30T15:54:54.721Z</time></trkpt><trkpt lat="39.9900067" lon="8.656565"><ele>29.666666666666668</ele><time>2026-04-30T15:54:55.723Z</time></trkpt><trkpt lat="39.9899533" lon="8.6567717"><ele>31.0</ele><time>2026-04-30T15:54:56.783Z</time></trkpt><trkpt lat="39.989895" lon="8.656975"><ele>31.333333333333336</ele><time>2026-04-30T15:54:57.721Z</time></trkpt><trkpt lat="39.9898167" lon="8.6571683"><ele>31.666666666666664</ele><time>2026-04-30T15:54:58.722Z</time></trkpt><trkpt lat="39.98972" lon="8.65735"><ele>32.0</ele><time>2026-04-30T15:54:59.719Z</time></trkpt><trkpt lat="39.9896083" lon="8.6575183"><ele>32.0</ele><time>2026-04-30T15:55:00.723Z</time></trkpt><trkpt lat="39.989495" lon="8.6576667"><ele>32.0</ele><time>2026-04-30T15:55:01.721Z</time></trkpt><trkpt lat="39.9893833" lon="8.6577967"><ele>32.0</ele><time>2026-04-30T15:55:02.765Z</time></trkpt><trkpt lat="39.989275" lon="8.657915"><ele>32.2</ele><time>2026-04-30T15:55:03.72Z</time></trkpt><trkpt lat="39.98918" lon="8.658025"><ele>32.400000000000006</ele><time>2026-04-30T15:55:04.725Z</time></trkpt><trkpt lat="39.9891017" lon="8.658125"><ele>32.599999999999994</ele><time>2026-04-30T15:55:05.724Z</time></trkpt><trkpt lat="39.9890467" lon="8.6582017"><ele>32.8</ele><time>2026-04-30T15:55:06.719Z</time></trkpt><trkpt lat="39.9890033" lon="8.6583133"><ele>33.0</ele><time>2026-04-30T15:55:08.758Z</time></trkpt><trkpt lat="39.9890583" lon="8.6583683"><ele>33.199999999999996</ele><time>2026-04-30T15:55:10.718Z</time></trkpt><trkpt lat="39.9890883" lon="8.6584767"><ele>33.4</ele><time>2026-04-30T15:55:13.716Z</time></trkpt><trkpt lat="39.9890483" lon="8.6585817"><ele>33.599999999999994</ele><time>2026-04-30T15:55:15.718Z</time></trkpt><trkpt lat="39.9889833" lon="8.6586867"><ele>33.8</ele><time>2026-04-30T15:55:17.721Z</time></trkpt><trkpt lat="39.9889117" lon="8.6587867"><ele>34.0</ele><time>2026-04-30T15:55:19.719Z</time></trkpt><trkpt lat="39.9888367" lon="8.6588833"><ele>34.16666666666667</ele><time>2026-04-30T15:55:21.72Z</time></trkpt><trkpt lat="39.988745" lon="8.65896"><ele>34.333333333333336</ele><time>2026-04-30T15:55:23.722Z</time></trkpt><trkpt lat="39.98868" lon="8.6589817"><ele>34.5</ele><time>2026-04-30T15:55:24.721Z</time></trkpt><trkpt lat="39.9886083" lon="8.659"><ele>34.666666666666664</ele><time>2026-04-30T15:55:25.727Z</time></trkpt><trkpt lat="39.9885317" lon="8.6590267"><ele>34.83333333333333</ele><time>2026-04-30T15:55:26.769Z</time></trkpt><trkpt lat="39.98845" lon="8.659065"><ele>35.0</ele><time>2026-04-30T15:55:27.72Z</time></trkpt><trkpt lat="39.9883683" lon="8.659115"><ele>35.0</ele><time>2026-04-30T15:55:28.72Z</time></trkpt><trkpt lat="39.9882833" lon="8.659175"><ele>35.0</ele><time>2026-04-30T15:55:29.718Z</time></trkpt><trkpt lat="39.988195" lon="8.6592317"><ele>35.0</ele><time>2026-04-30T15:55:30.723Z</time></trkpt><trkpt lat="39.9881083" lon="8.6593117"><ele>35.0</ele><time>2026-04-30T15:55:31.72Z</time></trkpt><trkpt lat="39.9880183" lon="8.6594317"><ele>35.0</ele><time>2026-04-30T15:55:32.766Z</time></trkpt><trkpt lat="39.9879417" lon="8.6595683"><ele>35.166666666666664</ele><time>2026-04-30T15:55:33.721Z</time></trkpt><trkpt lat="39.9878967" lon="8.659695"><ele>35.33333333333333</ele><time>2026-04-30T15:55:34.722Z</time></trkpt><trkpt lat="39.9878667" lon="8.6597967"><ele>35.5</ele><time>2026-04-30T15:55:35.725Z</time></trkpt><trkpt lat="39.987835" lon="8.6598933"><ele>35.666666666666664</ele><time>2026-04-30T15:55:36.722Z</time></trkpt><trkpt lat="39.9878033" lon="8.659995"><ele>35.833333333333336</ele><time>2026-04-30T15:55:37.72Z</time></trkpt><trkpt lat="39.9877717" lon="8.6601"><ele>36.0</ele><time>2026-04-30T15:55:38.761Z</time></trkpt><trkpt lat="39.9877367" lon="8.6602133"><ele>36.4</ele><time>2026-04-30T15:55:39.722Z</time></trkpt><trkpt lat="39.9877083" lon="8.6603317"><ele>36.8</ele><time>2026-04-30T15:55:40.719Z</time></trkpt><trkpt lat="39.9876817" lon="8.6604533"><ele>37.199999999999996</ele><time>2026-04-30T15:55:41.718Z</time></trkpt><trkpt lat="39.987655" lon="8.6605717"><ele>37.6</ele><time>2026-04-30T15:55:42.721Z</time></trkpt><trkpt lat="39.987625" lon="8.6606833"><ele>38.0</ele><time>2026-04-30T15:55:43.721Z</time></trkpt><trkpt lat="39.9875983" lon="8.66079"><ele>38.0</ele><time>2026-04-30T15:55:44.753Z</time></trkpt><trkpt lat="39.9875733" lon="8.6608983"><ele>38.0</ele><time>2026-04-30T15:55:45.719Z</time></trkpt><trkpt lat="39.98756" lon="8.661005"><ele>38.0</ele><time>2026-04-30T15:55:46.721Z</time></trkpt><trkpt lat="39.98755" lon="8.66112"><ele>38.0</ele><time>2026-04-30T15:55:47.716Z</time></trkpt><trkpt lat="39.9875467" lon="8.6612417"><ele>38.0</ele><time>2026-04-30T15:55:48.72Z</time></trkpt><trkpt lat="39.987545" lon="8.661365"><ele>38.0</ele><time>2026-04-30T15:55:49.715Z</time></trkpt><trkpt lat="39.987545" lon="8.6614917"><ele>38.0</ele><time>2026-04-30T15:55:50.755Z</time></trkpt><trkpt lat="39.9875583" lon="8.6616283"><ele>38.0</ele><time>2026-04-30T15:55:51.719Z</time></trkpt><trkpt lat="39.98756" lon="8.6617567"><ele>38.0</ele><time>2026-04-30T15:55:52.718Z</time></trkpt><trkpt lat="39.9875667" lon="8.6618883"><ele>38.0</ele><time>2026-04-30T15:55:53.717Z</time></trkpt><trkpt lat="39.9875833" lon="8.6620333"><ele>38.0</ele><time>2026-04-30T15:55:54.722Z</time></trkpt><trkpt lat="39.987605" lon="8.6621583"><ele>38.0</ele><time>2026-04-30T15:55:55.72Z</time></trkpt><trkpt lat="39.987605" lon="8.6622733"><ele>38.0</ele><time>2026-04-30T15:55:56.763Z</time></trkpt><trkpt lat="39.98761" lon="8.6623833"><ele>38.0</ele><time>2026-04-30T15:55:57.717Z</time></trkpt><trkpt lat="39.9876217" lon="8.6624883"><ele>38.0</ele><time>2026-04-30T15:55:58.718Z</time></trkpt><trkpt lat="39.9876117" lon="8.662605"><ele>38.0</ele><time>2026-04-30T15:55:59.717Z</time></trkpt><trkpt lat="39.9875633" lon="8.662725"><ele>38.0</ele><time>2026-04-30T15:56:00.723Z</time></trkpt><trkpt lat="39.9875133" lon="8.6628367"><ele>38.199999999999996</ele><time>2026-04-30T15:56:01.72Z</time></trkpt><trkpt lat="39.9874483" lon="8.66296"><ele>38.4</ele><time>2026-04-30T15:56:02.76Z</time></trkpt><trkpt lat="39.9874033" lon="8.6630733"><ele>38.599999999999994</ele><time>2026-04-30T15:56:03.716Z</time></trkpt><trkpt lat="39.987375" lon="8.6632"><ele>38.8</ele><time>2026-04-30T15:56:04.72Z</time></trkpt><trkpt lat="39.9873333" lon="8.6633367"><ele>39.0</ele><time>2026-04-30T15:56:05.719Z</time></trkpt><trkpt lat="39.9873017" lon="8.6634783"><ele>38.8</ele><time>2026-04-30T15:56:06.721Z</time></trkpt><trkpt lat="39.9872617" lon="8.6636183"><ele>38.599999999999994</ele><time>2026-04-30T15:56:07.718Z</time></trkpt><trkpt lat="39.9872267" lon="8.6637383"><ele>38.4</ele><time>2026-04-30T15:56:08.756Z</time></trkpt><trkpt lat="39.987195" lon="8.663845"><ele>38.199999999999996</ele><time>2026-04-30T15:56:09.722Z</time></trkpt><trkpt lat="39.9871667" lon="8.6639433"><ele>38.0</ele><time>2026-04-30T15:56:10.724Z</time></trkpt><trkpt lat="39.9871533" lon="8.6640417"><ele>38.0</ele><time>2026-04-30T15:56:11.719Z</time></trkpt><trkpt lat="39.9871433" lon="8.6641483"><ele>38.0</ele><time>2026-04-30T15:56:12.719Z</time></trkpt><trkpt lat="39.98714" lon="8.6642717"><ele>38.0</ele><time>2026-04-30T15:56:13.717Z</time></trkpt><trkpt lat="39.98714" lon="8.6644067"><ele>38.0</ele><time>2026-04-30T15:56:14.756Z</time></trkpt><trkpt lat="39.9871467" lon="8.6645617"><ele>38.0</ele><time>2026-04-30T15:56:15.717Z</time></trkpt><trkpt lat="39.9871483" lon="8.6647183"><ele>37.75</ele><time>2026-04-30T15:56:16.721Z</time></trkpt><trkpt lat="39.987155" lon="8.664875"><ele>37.5</ele><time>2026-04-30T15:56:17.718Z</time></trkpt><trkpt lat="39.9871667" lon="8.6650283"><ele>37.25</ele><time>2026-04-30T15:56:18.724Z</time></trkpt><trkpt lat="39.987185" lon="8.665215"><ele>37.0</ele><time>2026-04-30T15:56:19.718Z</time></trkpt><trkpt lat="39.9871817" lon="8.6653917"><ele>36.5</ele><time>2026-04-30T15:56:20.756Z</time></trkpt><trkpt lat="39.9871867" lon="8.6655617"><ele>36.0</ele><time>2026-04-30T15:56:21.72Z</time></trkpt><trkpt lat="39.9871917" lon="8.665735"><ele>35.5</ele><time>2026-04-30T15:56:22.719Z</time></trkpt><trkpt lat="39.9871933" lon="8.66592"><ele>35.0</ele><time>2026-04-30T15:56:23.72Z</time></trkpt><trkpt lat="39.9871917" lon="8.666115"><ele>34.25</ele><time>2026-04-30T15:56:24.721Z</time></trkpt><trkpt lat="39.987205" lon="8.6662683"><ele>33.5</ele><time>2026-04-30T15:56:25.716Z</time></trkpt><trkpt lat="39.9872083" lon="8.66645"><ele>32.75</ele><time>2026-04-30T15:56:26.759Z</time></trkpt><trkpt lat="39.9872167" lon="8.6666233"><ele>32.0</ele><time>2026-04-30T15:56:27.722Z</time></trkpt><trkpt lat="39.9872083" lon="8.6667817"><ele>31.5</ele><time>2026-04-30T15:56:28.718Z</time></trkpt><trkpt lat="39.987215" lon="8.666945"><ele>31.0</ele><time>2026-04-30T15:56:29.719Z</time></trkpt><trkpt lat="39.987215" lon="8.6670883"><ele>30.5</ele><time>2026-04-30T15:56:30.72Z</time></trkpt><trkpt lat="39.98721" lon="8.6672417"><ele>30.0</ele><time>2026-04-30T15:56:31.719Z</time></trkpt><trkpt lat="39.9872033" lon="8.66739"><ele>30.0</ele><time>2026-04-30T15:56:32.757Z</time></trkpt><trkpt lat="39.9871933" lon="8.6675383"><ele>30.0</ele><time>2026-04-30T15:56:33.72Z</time></trkpt><trkpt lat="39.9871717" lon="8.6676883"><ele>30.0</ele><time>2026-04-30T15:56:34.718Z</time></trkpt><trkpt lat="39.98716" lon="8.667845"><ele>30.0</ele><time>2026-04-30T15:56:35.719Z</time></trkpt><trkpt lat="39.9871517" lon="8.6680083"><ele>29.5</ele><time>2026-04-30T15:56:36.717Z</time></trkpt><trkpt lat="39.98715" lon="8.668165"><ele>29.0</ele><time>2026-04-30T15:56:37.719Z</time></trkpt><trkpt lat="39.98715" lon="8.6683117"><ele>28.5</ele><time>2026-04-30T15:56:38.755Z</time></trkpt><trkpt lat="39.9871567" lon="8.668465"><ele>28.0</ele><time>2026-04-30T15:56:39.715Z</time></trkpt><trkpt lat="39.98716" lon="8.6686017"><ele>28.599999999999998</ele><time>2026-04-30T15:56:40.719Z</time></trkpt><trkpt lat="39.9871683" lon="8.6687267"><ele>29.199999999999996</ele><time>2026-04-30T15:56:41.719Z</time></trkpt><trkpt lat="39.9871817" lon="8.6688783"><ele>29.8</ele><time>2026-04-30T15:56:42.722Z</time></trkpt><trkpt lat="39.9871933" lon="8.6690133"><ele>30.4</ele><time>2026-04-30T15:56:43.72Z</time></trkpt><trkpt lat="39.9872033" lon="8.669175"><ele>31.0</ele><time>2026-04-30T15:56:44.754Z</time></trkpt><trkpt lat="39.98721" lon="8.6693417"><ele>31.75</ele><time>2026-04-30T15:56:45.718Z</time></trkpt><trkpt lat="39.98722" lon="8.6695117"><ele>32.5</ele><time>2026-04-30T15:56:46.713Z</time></trkpt><trkpt lat="39.98724" lon="8.6696817"><ele>33.25</ele><time>2026-04-30T15:56:47.717Z</time></trkpt><trkpt lat="39.9872617" lon="8.6698533"><ele>34.0</ele><time>2026-04-30T15:56:48.72Z</time></trkpt><trkpt lat="39.987285" lon="8.6700233"><ele>34.0</ele><time>2026-04-30T15:56:49.719Z</time></trkpt><trkpt lat="39.9873133" lon="8.6701967"><ele>34.0</ele><time>2026-04-30T15:56:50.757Z</time></trkpt><trkpt lat="39.9873417" lon="8.6703733"><ele>34.0</ele><time>2026-04-30T15:56:51.72Z</time></trkpt><trkpt lat="39.98737" lon="8.6705517"><ele>34.0</ele><time>2026-04-30T15:56:52.717Z</time></trkpt><trkpt lat="39.9873983" lon="8.67073"><ele>34.5</ele><time>2026-04-30T15:56:53.714Z</time></trkpt><trkpt lat="39.9874267" lon="8.6709033"><ele>35.0</ele><time>2026-04-30T15:56:54.721Z</time></trkpt><trkpt lat="39.9874533" lon="8.6710583"><ele>35.5</ele><time>2026-04-30T15:56:55.719Z</time></trkpt><trkpt lat="39.9874683" lon="8.6712117"><ele>36.0</ele><time>2026-04-30T15:56:56.759Z</time></trkpt><trkpt lat="39.987475" lon="8.6713517"><ele>36.0</ele><time>2026-04-30T15:56:57.717Z</time></trkpt><trkpt lat="39.9875" lon="8.6715017"><ele>36.0</ele><time>2026-04-30T15:56:58.72Z</time></trkpt><trkpt lat="39.9875033" lon="8.6716517"><ele>36.0</ele><time>2026-04-30T15:56:59.719Z</time></trkpt><trkpt lat="39.987505" lon="8.671795"><ele>36.0</ele><time>2026-04-30T15:57:00.721Z</time></trkpt><trkpt lat="39.9874983" lon="8.6719483"><ele>36.0</ele><time>2026-04-30T15:57:01.72Z</time></trkpt><trkpt lat="39.9874917" lon="8.6720833"><ele>36.0</ele><time>2026-04-30T15:57:02.763Z</time></trkpt><trkpt lat="39.9874867" lon="8.6722283"><ele>36.0</ele><time>2026-04-30T15:57:03.723Z</time></trkpt><trkpt lat="39.9874817" lon="8.6723733"><ele>36.0</ele><time>2026-04-30T15:57:04.719Z</time></trkpt><trkpt lat="39.9874667" lon="8.6725217"><ele>36.0</ele><time>2026-04-30T15:57:05.723Z</time></trkpt><trkpt lat="39.987465" lon="8.6726733"><ele>35.75</ele><time>2026-04-30T15:57:06.716Z</time></trkpt><trkpt lat="39.9874617" lon="8.672825"><ele>35.5</ele><time>2026-04-30T15:57:07.721Z</time></trkpt><trkpt lat="39.987455" lon="8.672975"><ele>35.25</ele><time>2026-04-30T15:57:08.76Z</time></trkpt><trkpt lat="39.98746" lon="8.6731183"><ele>35.0</ele><time>2026-04-30T15:57:09.723Z</time></trkpt><trkpt lat="39.987465" lon="8.673275"><ele>35.0</ele><time>2026-04-30T15:57:10.721Z</time></trkpt><trkpt lat="39.9874733" lon="8.6734217"><ele>35.0</ele><time>2026-04-30T15:57:11.717Z</time></trkpt><trkpt lat="39.987475" lon="8.6735683"><ele>35.0</ele><time>2026-04-30T15:57:12.725Z</time></trkpt><trkpt lat="39.9874783" lon="8.6737217"><ele>35.0</ele><time>2026-04-30T15:57:13.721Z</time></trkpt><trkpt lat="39.9874833" lon="8.673875"><ele>35.0</ele><time>2026-04-30T15:57:14.756Z</time></trkpt><trkpt lat="39.9874867" lon="8.67403"><ele>35.0</ele><time>2026-04-30T15:57:15.716Z</time></trkpt><trkpt lat="39.987495" lon="8.67419"><ele>35.0</ele><time>2026-04-30T15:57:16.722Z</time></trkpt><trkpt lat="39.9874983" lon="8.67435"><ele>35.0</ele><time>2026-04-30T15:57:17.718Z</time></trkpt><trkpt lat="39.9874983" lon="8.6745083"><ele>35.25</ele><time>2026-04-30T15:57:18.722Z</time></trkpt><trkpt lat="39.9874967" lon="8.67468"><ele>35.5</ele><time>2026-04-30T15:57:19.718Z</time></trkpt><trkpt lat="39.9874933" lon="8.6748467"><ele>35.75</ele><time>2026-04-30T15:57:20.756Z</time></trkpt><trkpt lat="39.9874967" lon="8.6750117"><ele>36.0</ele><time>2026-04-30T15:57:21.72Z</time></trkpt><trkpt lat="39.9874917" lon="8.6751633"><ele>36.6</ele><time>2026-04-30T15:57:22.718Z</time></trkpt><trkpt lat="39.9874883" lon="8.6753067"><ele>37.2</ele><time>2026-04-30T15:57:23.724Z</time></trkpt><trkpt lat="39.9874967" lon="8.675425"><ele>37.8</ele><time>2026-04-30T15:57:24.719Z</time></trkpt><trkpt lat="39.9875017" lon="8.6755367"><ele>38.4</ele><time>2026-04-30T15:57:25.72Z</time></trkpt><trkpt lat="39.9875" lon="8.6756533"><ele>39.0</ele><time>2026-04-30T15:57:26.782Z</time></trkpt><trkpt lat="39.9874967" lon="8.67576"><ele>39.0</ele><time>2026-04-30T15:57:27.728Z</time></trkpt><trkpt lat="39.9874967" lon="8.675855"><ele>39.0</ele><time>2026-04-30T15:57:28.719Z</time></trkpt><trkpt lat="39.98749" lon="8.6759383"><ele>39.0</ele><time>2026-04-30T15:57:29.717Z</time></trkpt><trkpt lat="39.9874567" lon="8.6760883"><ele>39.0</ele><time>2026-04-30T15:57:31.722Z</time></trkpt><trkpt lat="39.98741" lon="8.676225"><ele>39.0</ele><time>2026-04-30T15:57:33.725Z</time></trkpt><trkpt lat="39.9873617" lon="8.6763333"><ele>38.833333333333336</ele><time>2026-04-30T15:57:35.721Z</time></trkpt><trkpt lat="39.98731" lon="8.6764083"><ele>38.666666666666664</ele><time>2026-04-30T15:57:37.716Z</time></trkpt><trkpt lat="39.98726" lon="8.676465"><ele>38.5</ele><time>2026-04-30T15:57:39.721Z</time></trkpt><trkpt lat="39.9872067" lon="8.6765133"><ele>38.33333333333333</ele><time>2026-04-30T15:58:05.716Z</time></trkpt><trkpt lat="39.9871383" lon="8.67659"><ele>38.166666666666664</ele><time>2026-04-30T15:58:07.717Z</time></trkpt><trkpt lat="39.987055" lon="8.676635"><ele>38.0</ele><time>2026-04-30T15:58:09.719Z</time></trkpt><trkpt lat="39.9869167" lon="8.6766917"><ele>38.0</ele><time>2026-04-30T15:58:11.717Z</time></trkpt><trkpt lat="39.9868133" lon="8.6767333"><ele>38.0</ele><time>2026-04-30T15:58:12.721Z</time></trkpt><trkpt lat="39.98667" lon="8.67681"><ele>38.0</ele><time>2026-04-30T15:58:13.721Z</time></trkpt><trkpt lat="39.9865417" lon="8.676875"><ele>38.0</ele><time>2026-04-30T15:58:14.757Z</time></trkpt><trkpt lat="39.9864117" lon="8.6769317"><ele>38.5</ele><time>2026-04-30T15:58:15.716Z</time></trkpt><trkpt lat="39.9862733" lon="8.6769883"><ele>39.0</ele><time>2026-04-30T15:58:16.718Z</time></trkpt><trkpt lat="39.9861367" lon="8.67704"><ele>39.5</ele><time>2026-04-30T15:58:17.716Z</time></trkpt><trkpt lat="39.9859967" lon="8.67709"><ele>40.0</ele><time>2026-04-30T15:58:18.722Z</time></trkpt><trkpt lat="39.9858617" lon="8.6771367"><ele>41.0</ele><time>2026-04-30T15:58:19.717Z</time></trkpt><trkpt lat="39.98573" lon="8.677175"><ele>42.0</ele><time>2026-04-30T15:58:20.754Z</time></trkpt><trkpt lat="39.9856017" lon="8.6772133"><ele>43.0</ele><time>2026-04-30T15:58:21.718Z</time></trkpt><trkpt lat="39.98547" lon="8.6772333"><ele>44.0</ele><time>2026-04-30T15:58:22.721Z</time></trkpt><trkpt lat="39.9853417" lon="8.67724"><ele>44.0</ele><time>2026-04-30T15:58:23.715Z</time></trkpt><trkpt lat="39.985215" lon="8.67723"><ele>44.0</ele><time>2026-04-30T15:58:24.722Z</time></trkpt><trkpt lat="39.9850817" lon="8.67721"><ele>44.0</ele><time>2026-04-30T15:58:25.719Z</time></trkpt><trkpt lat="39.984945" lon="8.6771867"><ele>44.0</ele><time>2026-04-30T15:58:26.741Z</time></trkpt><trkpt lat="39.9848033" lon="8.6771633"><ele>44.33333333333333</ele><time>2026-04-30T15:58:27.717Z</time></trkpt><trkpt lat="39.9846567" lon="8.6771367"><ele>44.666666666666664</ele><time>2026-04-30T15:58:28.717Z</time></trkpt><trkpt lat="39.9845" lon="8.6771017"><ele>45.0</ele><time>2026-04-30T15:58:29.719Z</time></trkpt><trkpt lat="39.9843283" lon="8.677065"><ele>45.0</ele><time>2026-04-30T15:58:30.723Z</time></trkpt><trkpt lat="39.9841533" lon="8.6770183"><ele>45.0</ele><time>2026-04-30T15:58:31.718Z</time></trkpt><trkpt lat="39.9839833" lon="8.6769883"><ele>45.0</ele><time>2026-04-30T15:58:32.762Z</time></trkpt><trkpt lat="39.98381" lon="8.676965"><ele>45.0</ele><time>2026-04-30T15:58:33.712Z</time></trkpt><trkpt lat="39.9836383" lon="8.67694"><ele>45.0</ele><time>2026-04-30T15:58:34.722Z</time></trkpt><trkpt lat="39.983475" lon="8.67692"><ele>45.0</ele><time>2026-04-30T15:58:35.718Z</time></trkpt><trkpt lat="39.9833167" lon="8.6769"><ele>45.0</ele><time>2026-04-30T15:58:36.72Z</time></trkpt><trkpt lat="39.983165" lon="8.6768833"><ele>45.0</ele><time>2026-04-30T15:58:37.723Z</time></trkpt><trkpt lat="39.983015" lon="8.6768583"><ele>45.0</ele><time>2026-04-30T15:58:38.752Z</time></trkpt><trkpt lat="39.982855" lon="8.6768117"><ele>45.0</ele><time>2026-04-30T15:58:39.716Z</time></trkpt><trkpt lat="39.9827033" lon="8.676785"><ele>45.0</ele><time>2026-04-30T15:58:40.718Z</time></trkpt><trkpt lat="39.9825483" lon="8.6767683"><ele>45.0</ele><time>2026-04-30T15:58:41.719Z</time></trkpt><trkpt lat="39.9823933" lon="8.6767567"><ele>45.0</ele><time>2026-04-30T15:58:42.717Z</time></trkpt><trkpt lat="39.9822367" lon="8.67674"><ele>45.0</ele><time>2026-04-30T15:58:43.723Z</time></trkpt><trkpt lat="39.9820983" lon="8.6767217"><ele>45.0</ele><time>2026-04-30T15:58:44.756Z</time></trkpt><trkpt lat="39.9819517" lon="8.67672"><ele>45.0</ele><time>2026-04-30T15:58:45.721Z</time></trkpt><trkpt lat="39.98181" lon="8.6767217"><ele>45.0</ele><time>2026-04-30T15:58:46.721Z</time></trkpt><trkpt lat="39.9816617" lon="8.6767133"><ele>45.0</ele><time>2026-04-30T15:58:47.715Z</time></trkpt><trkpt lat="39.9815017" lon="8.6766983"><ele>45.0</ele><time>2026-04-30T15:58:48.715Z</time></trkpt><trkpt lat="39.98136" lon="8.6766933"><ele>45.0</ele><time>2026-04-30T15:58:49.718Z</time></trkpt><trkpt lat="39.981215" lon="8.6766983"><ele>45.0</ele><time>2026-04-30T15:58:50.752Z</time></trkpt><trkpt lat="39.9810867" lon="8.6767"><ele>45.0</ele><time>2026-04-30T15:58:51.715Z</time></trkpt><trkpt lat="39.9809617" lon="8.6766967"><ele>45.0</ele><time>2026-04-30T15:58:52.714Z</time></trkpt><trkpt lat="39.980835" lon="8.6766917"><ele>45.5</ele><time>2026-04-30T15:58:53.722Z</time></trkpt><trkpt lat="39.980705" lon="8.6766983"><ele>46.0</ele><time>2026-04-30T15:58:54.718Z</time></trkpt><trkpt lat="39.9805867" lon="8.6767133"><ele>46.5</ele><time>2026-04-30T15:58:55.719Z</time></trkpt><trkpt lat="39.980465" lon="8.67674"><ele>47.0</ele><time>2026-04-30T15:58:56.785Z</time></trkpt><trkpt lat="39.9803333" lon="8.6767833"><ele>47.0</ele><time>2026-04-30T15:58:57.721Z</time></trkpt><trkpt lat="39.9802017" lon="8.6768233"><ele>47.0</ele><time>2026-04-30T15:58:58.72Z</time></trkpt><trkpt lat="39.98008" lon="8.67684"><ele>47.0</ele><time>2026-04-30T15:58:59.718Z</time></trkpt><trkpt lat="39.9799567" lon="8.6768533"><ele>47.0</ele><time>2026-04-30T15:59:00.717Z</time></trkpt><trkpt lat="39.9798383" lon="8.676855"><ele>46.8</ele><time>2026-04-30T15:59:01.716Z</time></trkpt><trkpt lat="39.9797217" lon="8.6768467"><ele>46.6</ele><time>2026-04-30T15:59:02.76Z</time></trkpt><trkpt lat="39.9796167" lon="8.676835"><ele>46.4</ele><time>2026-04-30T15:59:03.719Z</time></trkpt><trkpt lat="39.9795217" lon="8.6768267"><ele>46.199999999999996</ele><time>2026-04-30T15:59:04.72Z</time></trkpt><trkpt lat="39.9794367" lon="8.6768183"><ele>46.0</ele><time>2026-04-30T15:59:05.719Z</time></trkpt><trkpt lat="39.9793583" lon="8.6768083"><ele>46.0</ele><time>2026-04-30T15:59:06.725Z</time></trkpt><trkpt lat="39.9792833" lon="8.6767967"><ele>46.0</ele><time>2026-04-30T15:59:07.717Z</time></trkpt><trkpt lat="39.9792083" lon="8.6767883"><ele>46.0</ele><time>2026-04-30T15:59:08.756Z</time></trkpt><trkpt lat="39.9791367" lon="8.6767767"><ele>46.0</ele><time>2026-04-30T15:59:09.714Z</time></trkpt><trkpt lat="39.9790633" lon="8.6767667"><ele>46.0</ele><time>2026-04-30T15:59:10.719Z</time></trkpt><trkpt lat="39.9789917" lon="8.6767583"><ele>46.0</ele><time>2026-04-30T15:59:11.716Z</time></trkpt><trkpt lat="39.9789183" lon="8.6767467"><ele>46.0</ele><time>2026-04-30T15:59:12.72Z</time></trkpt><trkpt lat="39.978845" lon="8.6767317"><ele>45.8</ele><time>2026-04-30T15:59:13.718Z</time></trkpt><trkpt lat="39.978765" lon="8.676715"><ele>45.599999999999994</ele><time>2026-04-30T15:59:14.756Z</time></trkpt><trkpt lat="39.978675" lon="8.6766983"><ele>45.4</ele><time>2026-04-30T15:59:15.719Z</time></trkpt><trkpt lat="39.9785783" lon="8.6766767"><ele>45.2</ele><time>2026-04-30T15:59:16.719Z</time></trkpt><trkpt lat="39.978475" lon="8.6766433"><ele>45.0</ele><time>2026-04-30T15:59:17.72Z</time></trkpt><trkpt lat="39.9783617" lon="8.6765933"><ele>44.5</ele><time>2026-04-30T15:59:18.723Z</time></trkpt><trkpt lat="39.9782417" lon="8.6765367"><ele>44.0</ele><time>2026-04-30T15:59:19.721Z</time></trkpt><trkpt lat="39.978115" lon="8.6764783"><ele>43.5</ele><time>2026-04-30T15:59:20.754Z</time></trkpt><trkpt lat="39.9779833" lon="8.67642"><ele>43.0</ele><time>2026-04-30T15:59:21.722Z</time></trkpt><trkpt lat="39.9778517" lon="8.6763617"><ele>43.0</ele><time>2026-04-30T15:59:22.721Z</time></trkpt><trkpt lat="39.97772" lon="8.676305"><ele>43.0</ele><time>2026-04-30T15:59:23.717Z</time></trkpt><trkpt lat="39.9775883" lon="8.6762533"><ele>43.0</ele><time>2026-04-30T15:59:24.715Z</time></trkpt><trkpt lat="39.97745" lon="8.6762167"><ele>43.0</ele><time>2026-04-30T15:59:25.717Z</time></trkpt><trkpt lat="39.9773067" lon="8.6761983"><ele>43.0</ele><time>2026-04-30T15:59:26.786Z</time></trkpt><trkpt lat="39.977155" lon="8.6761933"><ele>43.0</ele><time>2026-04-30T15:59:27.72Z</time></trkpt><trkpt lat="39.977" lon="8.6761983"><ele>43.0</ele><time>2026-04-30T15:59:28.721Z</time></trkpt><trkpt lat="39.9768433" lon="8.6762117"><ele>42.0</ele><time>2026-04-30T15:59:29.719Z</time></trkpt><trkpt lat="39.9766833" lon="8.6762217"><ele>41.0</ele><time>2026-04-30T15:59:30.718Z</time></trkpt><trkpt lat="39.9765233" lon="8.676235"><ele>40.0</ele><time>2026-04-30T15:59:31.719Z</time></trkpt><trkpt lat="39.97636" lon="8.6762467"><ele>40.0</ele><time>2026-04-30T15:59:32.759Z</time></trkpt><trkpt lat="39.976195" lon="8.676255"><ele>40.0</ele><time>2026-04-30T15:59:33.719Z</time></trkpt><trkpt lat="39.9760267" lon="8.6762567"><ele>40.0</ele><time>2026-04-30T15:59:34.719Z</time></trkpt><trkpt lat="39.975855" lon="8.6762567"><ele>40.333333333333336</ele><time>2026-04-30T15:59:35.716Z</time></trkpt><trkpt lat="39.9756833" lon="8.676265"><ele>40.666666666666664</ele><time>2026-04-30T15:59:36.72Z</time></trkpt><trkpt lat="39.975515" lon="8.676285"><ele>41.0</ele><time>2026-04-30T15:59:37.717Z</time></trkpt><trkpt lat="39.9753533" lon="8.6763083"><ele>41.0</ele><time>2026-04-30T15:59:38.717Z</time></trkpt><trkpt lat="39.975195" lon="8.6763283"><ele>41.0</ele><time>2026-04-30T15:59:39.718Z</time></trkpt><trkpt lat="39.975035" lon="8.6763367"><ele>41.0</ele><time>2026-04-30T15:59:40.719Z</time></trkpt><trkpt lat="39.9748733" lon="8.676335"><ele>41.0</ele><time>2026-04-30T15:59:41.719Z</time></trkpt><trkpt lat="39.97471" lon="8.676325"><ele>41.0</ele><time>2026-04-30T15:59:42.718Z</time></trkpt><trkpt lat="39.97454" lon="8.6763033"><ele>41.0</ele><time>2026-04-30T15:59:43.72Z</time></trkpt><trkpt lat="39.97437" lon="8.6762733"><ele>41.0</ele><time>2026-04-30T15:59:44.718Z</time></trkpt><trkpt lat="39.9742017" lon="8.6762433"><ele>41.0</ele><time>2026-04-30T15:59:45.719Z</time></trkpt><trkpt lat="39.9740433" lon="8.6762167"><ele>41.0</ele><time>2026-04-30T15:59:46.719Z</time></trkpt><trkpt lat="39.9738933" lon="8.6761917"><ele>41.0</ele><time>2026-04-30T15:59:47.719Z</time></trkpt><trkpt lat="39.9737517" lon="8.6761733"><ele>41.0</ele><time>2026-04-30T15:59:48.718Z</time></trkpt><trkpt lat="39.9736083" lon="8.6761617"><ele>41.0</ele><time>2026-04-30T15:59:49.718Z</time></trkpt><trkpt lat="39.9734667" lon="8.67616"><ele>41.0</ele><time>2026-04-30T15:59:50.719Z</time></trkpt><trkpt lat="39.973325" lon="8.676165"><ele>41.25</ele><time>2026-04-30T15:59:51.72Z</time></trkpt><trkpt lat="39.9731817" lon="8.676175"><ele>41.5</ele><time>2026-04-30T15:59:52.719Z</time></trkpt><trkpt lat="39.973035" lon="8.6761917"><ele>41.75</ele><time>2026-04-30T15:59:53.72Z</time></trkpt><trkpt lat="39.9728867" lon="8.6762167"><ele>42.0</ele><time>2026-04-30T15:59:54.717Z</time></trkpt><trkpt lat="39.9727367" lon="8.6762467"><ele>42.0</ele><time>2026-04-30T15:59:55.717Z</time></trkpt><trkpt lat="39.97259" lon="8.6762817"><ele>42.0</ele><time>2026-04-30T15:59:56.784Z</time></trkpt><trkpt lat="39.97245" lon="8.6763167"><ele>42.0</ele><time>2026-04-30T15:59:57.718Z</time></trkpt><trkpt lat="39.97231" lon="8.67635"><ele>42.0</ele><time>2026-04-30T15:59:58.719Z</time></trkpt><trkpt lat="39.972175" lon="8.6763767"><ele>41.75</ele><time>2026-04-30T15:59:59.715Z</time></trkpt><trkpt lat="39.9720333" lon="8.6764033"><ele>41.5</ele><time>2026-04-30T16:00:00.72Z</time></trkpt><trkpt lat="39.9718983" lon="8.6764533"><ele>41.25</ele><time>2026-04-30T16:00:01.719Z</time></trkpt><trkpt lat="39.9717467" lon="8.6764733"><ele>41.0</ele><time>2026-04-30T16:00:02.761Z</time></trkpt><trkpt lat="39.9715933" lon="8.6764933"><ele>40.0</ele><time>2026-04-30T16:00:03.719Z</time></trkpt><trkpt lat="39.971435" lon="8.6765033"><ele>39.0</ele><time>2026-04-30T16:00:04.72Z</time></trkpt><trkpt lat="39.9712917" lon="8.676535"><ele>38.0</ele><time>2026-04-30T16:00:05.719Z</time></trkpt><trkpt lat="39.9711433" lon="8.6765683"><ele>38.0</ele><time>2026-04-30T16:00:06.715Z</time></trkpt><trkpt lat="39.9710067" lon="8.67659"><ele>38.0</ele><time>2026-04-30T16:00:07.718Z</time></trkpt><trkpt lat="39.9708567" lon="8.67664"><ele>38.0</ele><time>2026-04-30T16:00:08.719Z</time></trkpt><trkpt lat="39.9707017" lon="8.6766933"><ele>37.25</ele><time>2026-04-30T16:00:09.717Z</time></trkpt><trkpt lat="39.9705617" lon="8.676745"><ele>36.5</ele><time>2026-04-30T16:00:10.718Z</time></trkpt><trkpt lat="39.9704333" lon="8.6767967"><ele>35.75</ele><time>2026-04-30T16:00:11.718Z</time></trkpt><trkpt lat="39.9703117" lon="8.67685"><ele>35.0</ele><time>2026-04-30T16:00:12.721Z</time></trkpt><trkpt lat="39.9701967" lon="8.6769033"><ele>34.75</ele><time>2026-04-30T16:00:13.715Z</time></trkpt><trkpt lat="39.9700717" lon="8.6769617"><ele>34.5</ele><time>2026-04-30T16:00:14.718Z</time></trkpt><trkpt lat="39.9699383" lon="8.67702"><ele>34.25</ele><time>2026-04-30T16:00:15.714Z</time></trkpt><trkpt lat="39.9697933" lon="8.6770767"><ele>34.0</ele><time>2026-04-30T16:00:16.718Z</time></trkpt><trkpt lat="39.9696617" lon="8.6771433"><ele>34.0</ele><time>2026-04-30T16:00:17.718Z</time></trkpt><trkpt lat="39.969515" lon="8.67723"><ele>34.0</ele><time>2026-04-30T16:00:18.721Z</time></trkpt><trkpt lat="39.9693333" lon="8.67728"><ele>34.0</ele><time>2026-04-30T16:00:19.719Z</time></trkpt><trkpt lat="39.969165" lon="8.6773467"><ele>34.0</ele><time>2026-04-30T16:00:20.719Z</time></trkpt><trkpt lat="39.9690067" lon="8.6774283"><ele>34.0</ele><time>2026-04-30T16:00:21.716Z</time></trkpt><trkpt lat="39.9688633" lon="8.6774917"><ele>34.0</ele><time>2026-04-30T16:00:22.718Z</time></trkpt><trkpt lat="39.96872" lon="8.677525"><ele>34.0</ele><time>2026-04-30T16:00:23.72Z</time></trkpt><trkpt lat="39.9686083" lon="8.677555"><ele>34.0</ele><time>2026-04-30T16:00:24.721Z</time></trkpt><trkpt lat="39.9684867" lon="8.6776017"><ele>34.0</ele><time>2026-04-30T16:00:25.716Z</time></trkpt><trkpt lat="39.9683667" lon="8.6776767"><ele>34.0</ele><time>2026-04-30T16:00:26.785Z</time></trkpt><trkpt lat="39.96823" lon="8.6777717"><ele>33.333333333333336</ele><time>2026-04-30T16:00:27.718Z</time></trkpt><trkpt lat="39.9680817" lon="8.6779017"><ele>32.666666666666664</ele><time>2026-04-30T16:00:28.719Z</time></trkpt><trkpt lat="39.96794" lon="8.6780167"><ele>32.0</ele><time>2026-04-30T16:00:29.725Z</time></trkpt><trkpt lat="39.9678" lon="8.6781367"><ele>32.0</ele><time>2026-04-30T16:00:30.719Z</time></trkpt><trkpt lat="39.967645" lon="8.6782467"><ele>32.0</ele><time>2026-04-30T16:00:31.715Z</time></trkpt><trkpt lat="39.9675" lon="8.67836"><ele>32.0</ele><time>2026-04-30T16:00:32.759Z</time></trkpt><trkpt lat="39.967365" lon="8.6784483"><ele>31.75</ele><time>2026-04-30T16:00:33.717Z</time></trkpt><trkpt lat="39.9672533" lon="8.6785533"><ele>31.5</ele><time>2026-04-30T16:00:34.719Z</time></trkpt><trkpt lat="39.9671383" lon="8.6786217"><ele>31.25</ele><time>2026-04-30T16:00:35.719Z</time></trkpt><trkpt lat="39.9670383" lon="8.6786733"><ele>31.0</ele><time>2026-04-30T16:00:36.72Z</time></trkpt><trkpt lat="39.96692" lon="8.6787217"><ele>31.0</ele><time>2026-04-30T16:00:37.721Z</time></trkpt><trkpt lat="39.9667867" lon="8.6787733"><ele>31.0</ele><time>2026-04-30T16:00:38.72Z</time></trkpt><trkpt lat="39.966675" lon="8.6788267"><ele>31.0</ele><time>2026-04-30T16:00:39.716Z</time></trkpt><trkpt lat="39.9665767" lon="8.67886"><ele>31.0</ele><time>2026-04-30T16:00:40.719Z</time></trkpt><trkpt lat="39.9664767" lon="8.6788883"><ele>30.25</ele><time>2026-04-30T16:00:41.719Z</time></trkpt><trkpt lat="39.966365" lon="8.6789217"><ele>29.5</ele><time>2026-04-30T16:00:42.719Z</time></trkpt><trkpt lat="39.9662617" lon="8.678915"><ele>28.75</ele><time>2026-04-30T16:00:43.72Z</time></trkpt><trkpt lat="39.9661417" lon="8.678895"><ele>28.0</ele><time>2026-04-30T16:00:44.716Z</time></trkpt><trkpt lat="39.966005" lon="8.6788433"><ele>28.0</ele><time>2026-04-30T16:00:45.72Z</time></trkpt><trkpt lat="39.965895" lon="8.6788083"><ele>27.999999999999996</ele><time>2026-04-30T16:00:46.719Z</time></trkpt><trkpt lat="39.9657867" lon="8.67879"><ele>27.999999999999996</ele><time>2026-04-30T16:00:47.72Z</time></trkpt><trkpt lat="39.9656767" lon="8.6787767"><ele>28.0</ele><time>2026-04-30T16:00:48.72Z</time></trkpt><trkpt lat="39.965575" lon="8.6787733"><ele>28.0</ele><time>2026-04-30T16:00:49.736Z</time></trkpt><trkpt lat="39.965475" lon="8.6787717"><ele>27.666666666666668</ele><time>2026-04-30T16:00:50.72Z</time></trkpt><trkpt lat="39.9653717" lon="8.6787583"><ele>27.333333333333336</ele><time>2026-04-30T16:00:51.719Z</time></trkpt><trkpt lat="39.9652783" lon="8.6787233"><ele>27.0</ele><time>2026-04-30T16:00:52.717Z</time></trkpt><trkpt lat="39.9652117" lon="8.67874"><ele>26.666666666666664</ele><time>2026-04-30T16:00:53.722Z</time></trkpt><trkpt lat="39.965155" lon="8.6787983"><ele>26.333333333333332</ele><time>2026-04-30T16:00:54.718Z</time></trkpt><trkpt lat="39.9650983" lon="8.6788433"><ele>26.0</ele><time>2026-04-30T16:00:55.719Z</time></trkpt><trkpt lat="39.9650167" lon="8.67894"><ele>25.8</ele><time>2026-04-30T16:00:57.719Z</time></trkpt><trkpt lat="39.9649233" lon="8.67899"><ele>25.6</ele><time>2026-04-30T16:00:59.719Z</time></trkpt><trkpt lat="39.9648167" lon="8.6789633"><ele>25.4</ele><time>2026-04-30T16:01:01.715Z</time></trkpt><trkpt lat="39.964745" lon="8.6789217"><ele>25.2</ele><time>2026-04-30T16:01:02.762Z</time></trkpt><trkpt lat="39.9646533" lon="8.678865"><ele>25.0</ele><time>2026-04-30T16:01:03.724Z</time></trkpt><trkpt lat="39.9645467" lon="8.67878"><ele>25.0</ele><time>2026-04-30T16:01:04.717Z</time></trkpt><trkpt lat="39.964405" lon="8.6786983"><ele>25.0</ele><time>2026-04-30T16:01:05.719Z</time></trkpt><trkpt lat="39.9642417" lon="8.67861"><ele>25.0</ele><time>2026-04-30T16:01:06.722Z</time></trkpt><trkpt lat="39.9640917" lon="8.67856"><ele>25.333333333333336</ele><time>2026-04-30T16:01:07.72Z</time></trkpt><trkpt lat="39.963945" lon="8.6784817"><ele>25.666666666666664</ele><time>2026-04-30T16:01:08.715Z</time></trkpt><trkpt lat="39.9638" lon="8.678425"><ele>26.0</ele><time>2026-04-30T16:01:09.72Z</time></trkpt><trkpt lat="39.963635" lon="8.67842"><ele>26.0</ele><time>2026-04-30T16:01:10.718Z</time></trkpt><trkpt lat="39.9634617" lon="8.6783983"><ele>26.0</ele><time>2026-04-30T16:01:11.717Z</time></trkpt><trkpt lat="39.963265" lon="8.678395"><ele>26.0</ele><time>2026-04-30T16:01:12.72Z</time></trkpt><trkpt lat="39.9630833" lon="8.6783833"><ele>25.0</ele><time>2026-04-30T16:01:13.719Z</time></trkpt><trkpt lat="39.9629017" lon="8.678405"><ele>24.0</ele><time>2026-04-30T16:01:14.72Z</time></trkpt><trkpt lat="39.96273" lon="8.67842"><ele>23.0</ele><time>2026-04-30T16:01:15.721Z</time></trkpt><trkpt lat="39.9625617" lon="8.67846"><ele>22.333333333333336</ele><time>2026-04-30T16:01:16.719Z</time></trkpt><trkpt lat="39.9624033" lon="8.6784483"><ele>21.666666666666668</ele><time>2026-04-30T16:01:17.714Z</time></trkpt><trkpt lat="39.9622483" lon="8.6784167"><ele>21.0</ele><time>2026-04-30T16:01:18.719Z</time></trkpt><trkpt lat="39.962095" lon="8.67837"><ele>21.0</ele><time>2026-04-30T16:01:19.717Z</time></trkpt><trkpt lat="39.9619433" lon="8.6783217"><ele>21.0</ele><time>2026-04-30T16:01:20.72Z</time></trkpt><trkpt lat="39.9618" lon="8.6782733"><ele>21.0</ele><time>2026-04-30T16:01:21.723Z</time></trkpt><trkpt lat="39.9616567" lon="8.6782367"><ele>20.0</ele><time>2026-04-30T16:01:22.718Z</time></trkpt><trkpt lat="39.9615217" lon="8.6782067"><ele>19.0</ele><time>2026-04-30T16:01:23.719Z</time></trkpt><trkpt lat="39.96139" lon="8.6781783"><ele>18.0</ele><time>2026-04-30T16:01:24.721Z</time></trkpt><trkpt lat="39.9612717" lon="8.678145"><ele>17.0</ele><time>2026-04-30T16:01:25.721Z</time></trkpt><trkpt lat="39.9611683" lon="8.6781167"><ele>16.999999999999996</ele><time>2026-04-30T16:01:26.789Z</time></trkpt><trkpt lat="39.96108" lon="8.6780833"><ele>17.0</ele><time>2026-04-30T16:01:27.718Z</time></trkpt><trkpt lat="39.9610083" lon="8.6780467"><ele>17.0</ele><time>2026-04-30T16:01:28.722Z</time></trkpt><trkpt lat="39.9609467" lon="8.678005"><ele>17.0</ele><time>2026-04-30T16:01:29.724Z</time></trkpt><trkpt lat="39.9608867" lon="8.6779633"><ele>17.0</ele><time>2026-04-30T16:01:30.719Z</time></trkpt><trkpt lat="39.9608333" lon="8.6779117"><ele>16.999999999999996</ele><time>2026-04-30T16:01:31.717Z</time></trkpt><trkpt lat="39.9607733" lon="8.6778567"><ele>17.0</ele><time>2026-04-30T16:01:32.758Z</time></trkpt><trkpt lat="39.9607117" lon="8.6778017"><ele>16.5</ele><time>2026-04-30T16:01:33.722Z</time></trkpt><trkpt lat="39.960645" lon="8.6777517"><ele>16.0</ele><time>2026-04-30T16:01:34.72Z</time></trkpt><trkpt lat="39.960575" lon="8.677705"><ele>15.5</ele><time>2026-04-30T16:01:35.721Z</time></trkpt><trkpt lat="39.9605033" lon="8.67766"><ele>15.0</ele><time>2026-04-30T16:01:36.72Z</time></trkpt><trkpt lat="39.9604283" lon="8.6776133"><ele>14.500000000000002</ele><time>2026-04-30T16:01:37.719Z</time></trkpt><trkpt lat="39.9603467" lon="8.6775667"><ele>14.0</ele><time>2026-04-30T16:01:38.717Z</time></trkpt><trkpt lat="39.9602583" lon="8.6775167"><ele>14.0</ele><time>2026-04-30T16:01:39.718Z</time></trkpt><trkpt lat="39.9601667" lon="8.67746"><ele>13.999999999999998</ele><time>2026-04-30T16:01:40.718Z</time></trkpt><trkpt lat="39.9600717" lon="8.6773983"><ele>13.999999999999998</ele><time>2026-04-30T16:01:41.722Z</time></trkpt><trkpt lat="39.9599783" lon="8.67734"><ele>14.0</ele><time>2026-04-30T16:01:42.717Z</time></trkpt><trkpt lat="39.959885" lon="8.67729"><ele>14.0</ele><time>2026-04-30T16:01:43.717Z</time></trkpt><trkpt lat="39.9597983" lon="8.67725"><ele>13.666666666666668</ele><time>2026-04-30T16:01:44.721Z</time></trkpt><trkpt lat="39.9597133" lon="8.677215"><ele>13.333333333333334</ele><time>2026-04-30T16:01:45.72Z</time></trkpt><trkpt lat="39.9596333" lon="8.6771783"><ele>13.0</ele><time>2026-04-30T16:01:46.718Z</time></trkpt><trkpt lat="39.959555" lon="8.6771367"><ele>12.666666666666668</ele><time>2026-04-30T16:01:47.715Z</time></trkpt><trkpt lat="39.959475" lon="8.67709"><ele>12.333333333333334</ele><time>2026-04-30T16:01:48.721Z</time></trkpt><trkpt lat="39.9593933" lon="8.6770433"><ele>12.0</ele><time>2026-04-30T16:01:49.718Z</time></trkpt><trkpt lat="39.9593067" lon="8.6769933"><ele>12.0</ele><time>2026-04-30T16:01:50.718Z</time></trkpt><trkpt lat="39.9592133" lon="8.6769433"><ele>12.0</ele><time>2026-04-30T16:01:51.718Z</time></trkpt><trkpt lat="39.9591167" lon="8.67689"><ele>12.0</ele><time>2026-04-30T16:01:52.715Z</time></trkpt><trkpt lat="39.9590183" lon="8.6768367"><ele>12.0</ele><time>2026-04-30T16:01:53.722Z</time></trkpt><trkpt lat="39.95892" lon="8.6767867"><ele>12.0</ele><time>2026-04-30T16:01:54.717Z</time></trkpt><trkpt lat="39.9588233" lon="8.676735"><ele>12.0</ele><time>2026-04-30T16:01:55.719Z</time></trkpt><trkpt lat="39.9587283" lon="8.6766833"><ele>12.0</ele><time>2026-04-30T16:01:56.784Z</time></trkpt><trkpt lat="39.958635" lon="8.6766333"><ele>12.0</ele><time>2026-04-30T16:01:57.721Z</time></trkpt><trkpt lat="39.9585433" lon="8.6765833"><ele>12.0</ele><time>2026-04-30T16:01:58.717Z</time></trkpt><trkpt lat="39.9584567" lon="8.6765317"><ele>12.0</ele><time>2026-04-30T16:01:59.723Z</time></trkpt><trkpt lat="39.9583733" lon="8.67648"><ele>12.166666666666666</ele><time>2026-04-30T16:02:00.721Z</time></trkpt><trkpt lat="39.95829" lon="8.6764233"><ele>12.333333333333332</ele><time>2026-04-30T16:02:01.719Z</time></trkpt><trkpt lat="39.95821" lon="8.67636"><ele>12.5</ele><time>2026-04-30T16:02:02.768Z</time></trkpt><trkpt lat="39.9581333" lon="8.6763033"><ele>12.666666666666666</ele><time>2026-04-30T16:02:03.719Z</time></trkpt><trkpt lat="39.95806" lon="8.6762483"><ele>12.833333333333332</ele><time>2026-04-30T16:02:04.714Z</time></trkpt><trkpt lat="39.957995" lon="8.6762033"><ele>13.0</ele><time>2026-04-30T16:02:05.722Z</time></trkpt><trkpt lat="39.95793" lon="8.676165"><ele>12.999999999999998</ele><time>2026-04-30T16:02:06.719Z</time></trkpt><trkpt lat="39.9578683" lon="8.6761317"><ele>13.0</ele><time>2026-04-30T16:02:07.715Z</time></trkpt><trkpt lat="39.9577583" lon="8.6760817"><ele>13.0</ele><time>2026-04-30T16:02:09.72Z</time></trkpt><trkpt lat="39.95768" lon="8.6760567"><ele>13.0</ele><time>2026-04-30T16:02:11.723Z</time></trkpt><trkpt lat="39.957605" lon="8.6760533"><ele>12.999999999999998</ele><time>2026-04-30T16:02:14.718Z</time></trkpt><trkpt lat="39.95753" lon="8.67602"><ele>13.0</ele><time>2026-04-30T16:02:21.717Z</time></trkpt><trkpt lat="39.95746" lon="8.6759433"><ele>12.8</ele><time>2026-04-30T16:02:23.719Z</time></trkpt><trkpt lat="39.9573783" lon="8.6758383"><ele>12.600000000000001</ele><time>2026-04-30T16:02:25.722Z</time></trkpt><trkpt lat="39.957285" lon="8.6757267"><ele>12.399999999999999</ele><time>2026-04-30T16:02:27.713Z</time></trkpt><trkpt lat="39.95723" lon="8.67566"><ele>12.2</ele><time>2026-04-30T16:02:28.717Z</time></trkpt><trkpt lat="39.9571767" lon="8.6755917"><ele>12.0</ele><time>2026-04-30T16:02:29.717Z</time></trkpt><trkpt lat="39.9571167" lon="8.675535"><ele>12.0</ele><time>2026-04-30T16:02:30.716Z</time></trkpt><trkpt lat="39.95707" lon="8.6754783"><ele>12.0</ele><time>2026-04-30T16:02:31.715Z</time></trkpt><trkpt lat="39.9569733" lon="8.6754"><ele>12.0</ele><time>2026-04-30T16:02:33.716Z</time></trkpt><trkpt lat="39.9569033" lon="8.6753667"><ele>12.0</ele><time>2026-04-30T16:02:34.719Z</time></trkpt><trkpt lat="39.9568333" lon="8.6753333"><ele>12.0</ele><time>2026-04-30T16:02:35.719Z</time></trkpt><trkpt lat="39.95676" lon="8.6753017"><ele>12.0</ele><time>2026-04-30T16:02:36.72Z</time></trkpt><trkpt lat="39.9566883" lon="8.67527"><ele>12.333333333333334</ele><time>2026-04-30T16:02:37.719Z</time></trkpt><trkpt lat="39.9566167" lon="8.67524"><ele>12.666666666666668</ele><time>2026-04-30T16:02:38.719Z</time></trkpt><trkpt lat="39.9565433" lon="8.6752133"><ele>13.0</ele><time>2026-04-30T16:02:39.72Z</time></trkpt><trkpt lat="39.9564717" lon="8.6751883"><ele>13.333333333333334</ele><time>2026-04-30T16:02:40.718Z</time></trkpt><trkpt lat="39.9564067" lon="8.6751667"><ele>13.666666666666668</ele><time>2026-04-30T16:02:41.718Z</time></trkpt><trkpt lat="39.9562967" lon="8.6751383"><ele>14.0</ele><time>2026-04-30T16:02:43.712Z</time></trkpt><trkpt lat="39.9562067" lon="8.6751033"><ele>14.000000000000002</ele><time>2026-04-30T16:02:45.719Z</time></trkpt><trkpt lat="39.9561483" lon="8.67506"><ele>14.0</ele><time>2026-04-30T16:02:47.721Z</time></trkpt><trkpt lat="39.9560217" lon="8.6751083"><ele>14.0</ele><time>2026-04-30T16:03:03.72Z</time></trkpt><trkpt lat="39.9559633" lon="8.6751833"><ele>14.0</ele><time>2026-04-30T16:03:05.715Z</time></trkpt><trkpt lat="39.955915" lon="8.6752533"><ele>14.000000000000002</ele><time>2026-04-30T16:03:07.721Z</time></trkpt><trkpt lat="39.9559017" lon="8.6753683"><ele>14.0</ele><time>2026-04-30T16:03:10.719Z</time></trkpt><trkpt lat="39.9559267" lon="8.6754933"><ele>13.666666666666668</ele><time>2026-04-30T16:03:12.719Z</time></trkpt><trkpt lat="39.9559367" lon="8.6755767"><ele>13.333333333333334</ele><time>2026-04-30T16:03:13.719Z</time></trkpt><trkpt lat="39.95595" lon="8.6756767"><ele>13.0</ele><time>2026-04-30T16:03:14.715Z</time></trkpt><trkpt lat="39.955955" lon="8.6757933"><ele>12.666666666666668</ele><time>2026-04-30T16:03:15.719Z</time></trkpt><trkpt lat="39.9559483" lon="8.6759117"><ele>12.333333333333334</ele><time>2026-04-30T16:03:16.72Z</time></trkpt><trkpt lat="39.9559283" lon="8.6760317"><ele>12.0</ele><time>2026-04-30T16:03:17.713Z</time></trkpt><trkpt lat="39.9558933" lon="8.67615"><ele>12.0</ele><time>2026-04-30T16:03:18.717Z</time></trkpt><trkpt lat="39.9558567" lon="8.6762683"><ele>12.0</ele><time>2026-04-30T16:03:19.72Z</time></trkpt><trkpt lat="39.95582" lon="8.676385"><ele>12.0</ele><time>2026-04-30T16:03:20.718Z</time></trkpt><trkpt lat="39.95578" lon="8.6764917"><ele>12.0</ele><time>2026-04-30T16:03:21.713Z</time></trkpt><trkpt lat="39.9557433" lon="8.6765883"><ele>12.0</ele><time>2026-04-30T16:03:22.72Z</time></trkpt><trkpt lat="39.9556967" lon="8.676685"><ele>12.0</ele><time>2026-04-30T16:03:23.719Z</time></trkpt><trkpt lat="39.9556517" lon="8.676775"><ele>12.0</ele><time>2026-04-30T16:03:24.717Z</time></trkpt><trkpt lat="39.95561" lon="8.6768633"><ele>12.0</ele><time>2026-04-30T16:03:25.721Z</time></trkpt><trkpt lat="39.955565" lon="8.6769433"><ele>12.0</ele><time>2026-04-30T16:03:26.784Z</time></trkpt><trkpt lat="39.955525" lon="8.6770167"><ele>12.0</ele><time>2026-04-30T16:03:27.72Z</time></trkpt><trkpt lat="39.9554583" lon="8.6771417"><ele>12.0</ele><time>2026-04-30T16:03:29.718Z</time></trkpt><trkpt lat="39.955415" lon="8.6772467"><ele>12.166666666666666</ele><time>2026-04-30T16:03:31.719Z</time></trkpt><trkpt lat="39.9554183" lon="8.6773367"><ele>12.333333333333332</ele><time>2026-04-30T16:03:33.722Z</time></trkpt><trkpt lat="39.9554767" lon="8.6774233"><ele>12.5</ele><time>2026-04-30T16:03:35.716Z</time></trkpt><trkpt lat="39.9555317" lon="8.677475"><ele>12.666666666666666</ele><time>2026-04-30T16:03:36.717Z</time></trkpt><trkpt lat="39.9555983" lon="8.6775383"><ele>12.833333333333332</ele><time>2026-04-30T16:03:37.719Z</time></trkpt><trkpt lat="39.955675" lon="8.6776133"><ele>13.0</ele><time>2026-04-30T16:03:38.721Z</time></trkpt><trkpt lat="39.9557533" lon="8.6776967"><ele>13.25</ele><time>2026-04-30T16:03:39.722Z</time></trkpt><trkpt lat="39.9558383" lon="8.6777867"><ele>13.5</ele><time>2026-04-30T16:03:40.713Z</time></trkpt><trkpt lat="39.95594" lon="8.6778933"><ele>13.75</ele><time>2026-04-30T16:03:41.719Z</time></trkpt><trkpt lat="39.9560483" lon="8.67801"><ele>14.0</ele><time>2026-04-30T16:03:42.717Z</time></trkpt><trkpt lat="39.9561717" lon="8.6781367"><ele>14.25</ele><time>2026-04-30T16:03:43.718Z</time></trkpt><trkpt lat="39.95629" lon="8.6782583"><ele>14.5</ele><time>2026-04-30T16:03:44.719Z</time></trkpt><trkpt lat="39.9564033" lon="8.6783733"><ele>14.75</ele><time>2026-04-30T16:03:45.719Z</time></trkpt><trkpt lat="39.956505" lon="8.6784783"><ele>15.0</ele><time>2026-04-30T16:03:46.719Z</time></trkpt><trkpt lat="39.9565883" lon="8.6785683"><ele>15.0</ele><time>2026-04-30T16:03:47.719Z</time></trkpt><trkpt lat="39.9566617" lon="8.678645"><ele>15.0</ele><time>2026-04-30T16:03:48.719Z</time></trkpt><trkpt lat="39.9567267" lon="8.67871"><ele>15.0</ele><time>2026-04-30T16:03:49.718Z</time></trkpt><trkpt lat="39.9567983" lon="8.6787867"><ele>15.0</ele><time>2026-04-30T16:03:51.72Z</time></trkpt><trkpt lat="39.9567867" lon="8.678695"><ele>15.0</ele><time>2026-04-30T16:04:03.722Z</time></trkpt><trkpt lat="39.956715" lon="8.6785983"><ele>15.0</ele><time>2026-04-30T16:04:05.72Z</time></trkpt><trkpt lat="39.9566667" lon="8.678525"><ele>15.0</ele><time>2026-04-30T16:04:07.715Z</time></trkpt><trkpt lat="39.95662" lon="8.6784517"><ele>15.0</ele><time>2026-04-30T16:04:09.718Z</time></trkpt><trkpt lat="39.956545" lon="8.6783533"><ele>15.0</ele><time>2026-04-30T16:04:11.722Z</time></trkpt><trkpt lat="39.9564667" lon="8.67826"><ele>15.0</ele><time>2026-04-30T16:04:13.739Z</time></trkpt><trkpt lat="39.9563917" lon="8.6781967"><ele>15.0</ele><time>2026-04-30T16:04:15.721Z</time></trkpt><trkpt lat="39.9563033" lon="8.678205"><ele>15.0</ele><time>2026-04-30T16:04:18.719Z</time></trkpt><trkpt lat="39.95624" lon="8.6782533"><ele>15.0</ele><time>2026-04-30T16:04:20.718Z</time></trkpt><trkpt lat="39.9561867" lon="8.6783383"><ele>15.0</ele><time>2026-04-30T16:04:22.719Z</time></trkpt><trkpt lat="39.9561683" lon="8.6784583"><ele>15.0</ele><time>2026-04-30T16:04:24.719Z</time></trkpt><trkpt lat="39.9561883" lon="8.6786167"><ele>15.0</ele><time>2026-04-30T16:04:26.789Z</time></trkpt><trkpt lat="39.95621" lon="8.6787167"><ele>15.4</ele><time>2026-04-30T16:04:27.719Z</time></trkpt><trkpt lat="39.9562383" lon="8.6788383"><ele>15.8</ele><time>2026-04-30T16:04:28.72Z</time></trkpt><trkpt lat="39.9562717" lon="8.678975"><ele>16.2</ele><time>2026-04-30T16:04:29.718Z</time></trkpt><trkpt lat="39.9562967" lon="8.679105"><ele>16.6</ele><time>2026-04-30T16:04:30.721Z</time></trkpt><trkpt lat="39.956325" lon="8.6792317"><ele>17.0</ele><time>2026-04-30T16:04:31.717Z</time></trkpt><trkpt lat="39.95635" lon="8.6793617"><ele>16.8</ele><time>2026-04-30T16:04:32.786Z</time></trkpt><trkpt lat="39.9563717" lon="8.6794967"><ele>16.6</ele><time>2026-04-30T16:04:33.721Z</time></trkpt><trkpt lat="39.9563883" lon="8.679635"><ele>16.400000000000002</ele><time>2026-04-30T16:04:34.716Z</time></trkpt><trkpt lat="39.956405" lon="8.6797733"><ele>16.2</ele><time>2026-04-30T16:04:35.719Z</time></trkpt><trkpt lat="39.95642" lon="8.6799067"><ele>16.0</ele><time>2026-04-30T16:04:36.72Z</time></trkpt><trkpt lat="39.9564417" lon="8.6800417"><ele>16.0</ele><time>2026-04-30T16:04:37.72Z</time></trkpt><trkpt lat="39.9564683" lon="8.680175"><ele>16.0</ele><time>2026-04-30T16:04:38.717Z</time></trkpt><trkpt lat="39.9564983" lon="8.6803067"><ele>16.0</ele><time>2026-04-30T16:04:39.716Z</time></trkpt><trkpt lat="39.9565333" lon="8.6804333"><ele>16.0</ele><time>2026-04-30T16:04:40.717Z</time></trkpt><trkpt lat="39.9565683" lon="8.68055"><ele>16.0</ele><time>2026-04-30T16:04:41.722Z</time></trkpt><trkpt lat="39.9566083" lon="8.680665"><ele>16.0</ele><time>2026-04-30T16:04:42.718Z</time></trkpt><trkpt lat="39.956655" lon="8.6807783"><ele>16.0</ele><time>2026-04-30T16:04:43.719Z</time></trkpt><trkpt lat="39.956705" lon="8.6808883"><ele>16.0</ele><time>2026-04-30T16:04:44.716Z</time></trkpt><trkpt lat="39.95676" lon="8.6809917"><ele>16.0</ele><time>2026-04-30T16:04:45.715Z</time></trkpt><trkpt lat="39.956815" lon="8.6810917"><ele>16.0</ele><time>2026-04-30T16:04:46.719Z</time></trkpt><trkpt lat="39.9568667" lon="8.681185"><ele>16.166666666666664</ele><time>2026-04-30T16:04:47.716Z</time></trkpt><trkpt lat="39.9569167" lon="8.681275"><ele>16.333333333333332</ele><time>2026-04-30T16:04:48.717Z</time></trkpt><trkpt lat="39.95696" lon="8.6813483"><ele>16.5</ele><time>2026-04-30T16:04:49.716Z</time></trkpt><trkpt lat="39.957" lon="8.6814183"><ele>16.666666666666668</ele><time>2026-04-30T16:04:50.72Z</time></trkpt><trkpt lat="39.957055" lon="8.6815433"><ele>16.833333333333336</ele><time>2026-04-30T16:04:52.72Z</time></trkpt><trkpt lat="39.9570567" lon="8.6816383"><ele>17.0</ele><time>2026-04-30T16:04:54.712Z</time></trkpt><trkpt lat="39.957025" lon="8.681755"><ele>17.0</ele><time>2026-04-30T16:04:56.785Z</time></trkpt><trkpt lat="39.9569917" lon="8.6818883"><ele>17.0</ele><time>2026-04-30T16:04:58.718Z</time></trkpt><trkpt lat="39.956985" lon="8.6820583"><ele>17.0</ele><time>2026-04-30T16:05:00.713Z</time></trkpt><trkpt lat="39.9569983" lon="8.6821583"><ele>17.0</ele><time>2026-04-30T16:05:01.721Z</time></trkpt><trkpt lat="39.9570117" lon="8.6822633"><ele>17.0</ele><time>2026-04-30T16:05:02.765Z</time></trkpt><trkpt lat="39.95703" lon="8.6823733"><ele>16.8</ele><time>2026-04-30T16:05:03.722Z</time></trkpt><trkpt lat="39.9570483" lon="8.6824883"><ele>16.6</ele><time>2026-04-30T16:05:04.715Z</time></trkpt><trkpt lat="39.9570667" lon="8.6826017"><ele>16.400000000000002</ele><time>2026-04-30T16:05:05.719Z</time></trkpt><trkpt lat="39.957085" lon="8.6827183"><ele>16.2</ele><time>2026-04-30T16:05:06.714Z</time></trkpt><trkpt lat="39.9571067" lon="8.682835"><ele>16.0</ele><time>2026-04-30T16:05:07.716Z</time></trkpt><trkpt lat="39.9571317" lon="8.6829483"><ele>16.5</ele><time>2026-04-30T16:05:08.719Z</time></trkpt><trkpt lat="39.9571617" lon="8.6830567"><ele>17.0</ele><time>2026-04-30T16:05:09.718Z</time></trkpt><trkpt lat="39.95719" lon="8.6831533"><ele>17.5</ele><time>2026-04-30T16:05:10.718Z</time></trkpt><trkpt lat="39.95722" lon="8.6832417"><ele>18.0</ele><time>2026-04-30T16:05:11.719Z</time></trkpt><trkpt lat="39.957245" lon="8.6833217"><ele>18.5</ele><time>2026-04-30T16:05:12.717Z</time></trkpt><trkpt lat="39.9572833" lon="8.6834483"><ele>19.0</ele><time>2026-04-30T16:05:14.718Z</time></trkpt><trkpt lat="39.9573267" lon="8.683525"><ele>19.0</ele><time>2026-04-30T16:05:16.719Z</time></trkpt><trkpt lat="39.95729" lon="8.6833883"><ele>19.0</ele><time>2026-04-30T16:05:23.719Z</time></trkpt><trkpt lat="39.9572583" lon="8.6833083"><ele>19.0</ele><time>2026-04-30T16:05:24.716Z</time></trkpt><trkpt lat="39.9572267" lon="8.683215"><ele>19.0</ele><time>2026-04-30T16:05:25.719Z</time></trkpt><trkpt lat="39.9571983" lon="8.6831083"><ele>19.0</ele><time>2026-04-30T16:05:26.761Z</time></trkpt><trkpt lat="39.957165" lon="8.682995"><ele>19.0</ele><time>2026-04-30T16:05:27.717Z</time></trkpt><trkpt lat="39.95714" lon="8.6828817"><ele>18.4</ele><time>2026-04-30T16:05:28.72Z</time></trkpt><trkpt lat="39.9571183" lon="8.6827567"><ele>17.799999999999997</ele><time>2026-04-30T16:05:29.714Z</time></trkpt><trkpt lat="39.9570933" lon="8.6826217"><ele>17.200000000000003</ele><time>2026-04-30T16:05:30.718Z</time></trkpt><trkpt lat="39.9570717" lon="8.682495"><ele>16.6</ele><time>2026-04-30T16:05:31.718Z</time></trkpt><trkpt lat="39.9570517" lon="8.6823717"><ele>16.0</ele><time>2026-04-30T16:05:32.76Z</time></trkpt><trkpt lat="39.9570283" lon="8.682255"><ele>15.999999999999998</ele><time>2026-04-30T16:05:33.718Z</time></trkpt><trkpt lat="39.9570083" lon="8.682145"><ele>16.0</ele><time>2026-04-30T16:05:34.719Z</time></trkpt><trkpt lat="39.9569783" lon="8.6820283"><ele>16.0</ele><time>2026-04-30T16:05:35.721Z</time></trkpt><trkpt lat="39.956955" lon="8.681935"><ele>16.0</ele><time>2026-04-30T16:05:36.717Z</time></trkpt><trkpt lat="39.9569167" lon="8.681795"><ele>15.999999999999998</ele><time>2026-04-30T16:05:38.715Z</time></trkpt><trkpt lat="39.9569067" lon="8.6816967"><ele>16.0</ele><time>2026-04-30T16:05:41.719Z</time></trkpt><trkpt lat="39.9569717" lon="8.68175"><ele>16.0</ele><time>2026-04-30T16:05:47.718Z</time></trkpt><trkpt lat="39.95705" lon="8.6817933"><ele>16.0</ele><time>2026-04-30T16:05:50.721Z</time></trkpt><trkpt lat="39.9571233" lon="8.68183"><ele>16.0</ele><time>2026-04-30T16:06:30.72Z</time></trkpt><trkpt lat="39.9572733" lon="8.6818667"><ele>16.0</ele><time>2026-04-30T16:06:34.72Z</time></trkpt><trkpt lat="39.9573867" lon="8.68196"><ele>16.0</ele><time>2026-04-30T16:06:37.716Z</time></trkpt><trkpt lat="39.95746" lon="8.6820667"><ele>16.0</ele><time>2026-04-30T16:06:39.719Z</time></trkpt><trkpt lat="39.957565" lon="8.6821583"><ele>16.0</ele><time>2026-04-30T16:06:41.719Z</time></trkpt><trkpt lat="39.95763" lon="8.6821983"><ele>16.0</ele><time>2026-04-30T16:06:42.72Z</time></trkpt><trkpt lat="39.957705" lon="8.682215"><ele>16.0</ele><time>2026-04-30T16:06:43.718Z</time></trkpt><trkpt lat="39.9577717" lon="8.6822533"><ele>16.285714285714285</ele><time>2026-04-30T16:06:44.719Z</time></trkpt><trkpt lat="39.9578383" lon="8.682295"><ele>16.57142857142857</ele><time>2026-04-30T16:06:45.719Z</time></trkpt><trkpt lat="39.9579" lon="8.6823483"><ele>16.857142857142858</ele><time>2026-04-30T16:06:46.716Z</time></trkpt><trkpt lat="39.9579533" lon="8.68241"><ele>17.142857142857142</ele><time>2026-04-30T16:06:47.715Z</time></trkpt><trkpt lat="39.9580017" lon="8.682475"><ele>17.42857142857143</ele><time>2026-04-30T16:06:48.716Z</time></trkpt><trkpt lat="39.958045" lon="8.6825467"><ele>17.714285714285715</ele><time>2026-04-30T16:06:49.718Z</time></trkpt><trkpt lat="39.9580867" lon="8.6826133"><ele>18.0</ele><time>2026-04-30T16:06:50.715Z</time></trkpt><trkpt lat="39.9581583" lon="8.68274"><ele>18.0</ele><time>2026-04-30T16:06:52.717Z</time></trkpt><trkpt lat="39.9582" lon="8.682805"><ele>18.0</ele><time>2026-04-30T16:06:53.718Z</time></trkpt><trkpt lat="39.9582383" lon="8.6828767"><ele>18.0</ele><time>2026-04-30T16:06:54.718Z</time></trkpt><trkpt lat="39.95828" lon="8.6829533"><ele>18.0</ele><time>2026-04-30T16:06:55.717Z</time></trkpt><trkpt lat="39.9583217" lon="8.6830367"><ele>18.0</ele><time>2026-04-30T16:06:56.754Z</time></trkpt><trkpt lat="39.9583667" lon="8.68313"><ele>18.0</ele><time>2026-04-30T16:06:57.718Z</time></trkpt><trkpt lat="39.9584167" lon="8.6832283"><ele>18.4</ele><time>2026-04-30T16:06:58.715Z</time></trkpt><trkpt lat="39.9584667" lon="8.6833333"><ele>18.8</ele><time>2026-04-30T16:06:59.714Z</time></trkpt><trkpt lat="39.9585183" lon="8.6834417"><ele>19.2</ele><time>2026-04-30T16:07:00.718Z</time></trkpt><trkpt lat="39.9585683" lon="8.683565"><ele>19.6</ele><time>2026-04-30T16:07:01.716Z</time></trkpt><trkpt lat="39.9586133" lon="8.68369"><ele>20.0</ele><time>2026-04-30T16:07:02.753Z</time></trkpt><trkpt lat="39.9586517" lon="8.6838117"><ele>20.0</ele><time>2026-04-30T16:07:03.713Z</time></trkpt><trkpt lat="39.9586783" lon="8.6839333"><ele>20.0</ele><time>2026-04-30T16:07:04.718Z</time></trkpt><trkpt lat="39.9586983" lon="8.6840533"><ele>20.0</ele><time>2026-04-30T16:07:05.718Z</time></trkpt><trkpt lat="39.9587033" lon="8.6841667"><ele>20.0</ele><time>2026-04-30T16:07:06.718Z</time></trkpt><trkpt lat="39.9587033" lon="8.68428"><ele>20.0</ele><time>2026-04-30T16:07:07.712Z</time></trkpt><trkpt lat="39.9586883" lon="8.6843917"><ele>19.833333333333336</ele><time>2026-04-30T16:07:08.716Z</time></trkpt><trkpt lat="39.958665" lon="8.6844983"><ele>19.666666666666668</ele><time>2026-04-30T16:07:09.717Z</time></trkpt><trkpt lat="39.958635" lon="8.6846033"><ele>19.5</ele><time>2026-04-30T16:07:10.715Z</time></trkpt><trkpt lat="39.9585983" lon="8.6847067"><ele>19.333333333333332</ele><time>2026-04-30T16:07:11.716Z</time></trkpt><trkpt lat="39.958555" lon="8.684805"><ele>19.166666666666664</ele><time>2026-04-30T16:07:12.717Z</time></trkpt><trkpt lat="39.9584983" lon="8.6849"><ele>19.0</ele><time>2026-04-30T16:07:13.715Z</time></trkpt><trkpt lat="39.9584367" lon="8.6849883"><ele>19.0</ele><time>2026-04-30T16:07:14.719Z</time></trkpt><trkpt lat="39.958365" lon="8.68507"><ele>19.0</ele><time>2026-04-30T16:07:15.72Z</time></trkpt><trkpt lat="39.9582933" lon="8.6851533"><ele>19.0</ele><time>2026-04-30T16:07:16.715Z</time></trkpt><trkpt lat="39.9582167" lon="8.68524"><ele>19.0</ele><time>2026-04-30T16:07:17.715Z</time></trkpt><trkpt lat="39.9581333" lon="8.6853233"><ele>19.0</ele><time>2026-04-30T16:07:18.717Z</time></trkpt><trkpt lat="39.9580433" lon="8.6854"><ele>18.8</ele><time>2026-04-30T16:07:19.715Z</time></trkpt><trkpt lat="39.957955" lon="8.6854767"><ele>18.599999999999998</ele><time>2026-04-30T16:07:20.72Z</time></trkpt><trkpt lat="39.9578567" lon="8.6855383"><ele>18.4</ele><time>2026-04-30T16:07:21.719Z</time></trkpt><trkpt lat="39.957765" lon="8.685595"><ele>18.2</ele><time>2026-04-30T16:07:22.718Z</time></trkpt><trkpt lat="39.95767" lon="8.6856517"><ele>18.0</ele><time>2026-04-30T16:07:23.719Z</time></trkpt><trkpt lat="39.9575733" lon="8.6856967"><ele>17.8</ele><time>2026-04-30T16:07:24.715Z</time></trkpt><trkpt lat="39.9574767" lon="8.6857233"><ele>17.6</ele><time>2026-04-30T16:07:25.715Z</time></trkpt><trkpt lat="39.9573867" lon="8.68574"><ele>17.4</ele><time>2026-04-30T16:07:26.777Z</time></trkpt><trkpt lat="39.9572833" lon="8.6857867"><ele>17.2</ele><time>2026-04-30T16:07:27.716Z</time></trkpt><trkpt lat="39.957175" lon="8.6858633"><ele>17.0</ele><time>2026-04-30T16:07:28.716Z</time></trkpt><trkpt lat="39.9570733" lon="8.6859367"><ele>17.0</ele><time>2026-04-30T16:07:29.716Z</time></trkpt><trkpt lat="39.9569633" lon="8.6859933"><ele>17.0</ele><time>2026-04-30T16:07:30.715Z</time></trkpt><trkpt lat="39.9568467" lon="8.6860583"><ele>17.0</ele><time>2026-04-30T16:07:31.716Z</time></trkpt><trkpt lat="39.95672" lon="8.6861033"><ele>17.0</ele><time>2026-04-30T16:07:32.751Z</time></trkpt><trkpt lat="39.956615" lon="8.6861433"><ele>16.0</ele><time>2026-04-30T16:07:33.718Z</time></trkpt><trkpt lat="39.9565083" lon="8.6861633"><ele>15.0</ele><time>2026-04-30T16:07:34.714Z</time></trkpt><trkpt lat="39.956385" lon="8.6861833"><ele>14.0</ele><time>2026-04-30T16:07:35.713Z</time></trkpt><trkpt lat="39.95625" lon="8.686195"><ele>13.0</ele><time>2026-04-30T16:07:36.723Z</time></trkpt><trkpt lat="39.9561133" lon="8.6861933"><ele>13.0</ele><time>2026-04-30T16:07:37.716Z</time></trkpt><trkpt lat="39.95599" lon="8.6861783"><ele>13.0</ele><time>2026-04-30T16:07:38.718Z</time></trkpt><trkpt lat="39.9558783" lon="8.686165"><ele>13.0</ele><time>2026-04-30T16:07:39.718Z</time></trkpt><trkpt lat="39.955765" lon="8.68614"><ele>13.0</ele><time>2026-04-30T16:07:40.723Z</time></trkpt><trkpt lat="39.9556633" lon="8.686125"><ele>12.999999999999998</ele><time>2026-04-30T16:07:41.716Z</time></trkpt><trkpt lat="39.9555717" lon="8.6861117"><ele>13.0</ele><time>2026-04-30T16:07:42.718Z</time></trkpt><trkpt lat="39.95549" lon="8.6861"><ele>13.0</ele><time>2026-04-30T16:07:43.72Z</time></trkpt><trkpt lat="39.955425" lon="8.6861083"><ele>13.0</ele><time>2026-04-30T16:07:44.718Z</time></trkpt><trkpt lat="39.9553383" lon="8.68615"><ele>12.999999999999998</ele><time>2026-04-30T16:07:46.716Z</time></trkpt><trkpt lat="39.955315" lon="8.686255"><ele>13.0</ele><time>2026-04-30T16:07:48.718Z</time></trkpt><trkpt lat="39.9553417" lon="8.68635"><ele>13.0</ele><time>2026-04-30T16:07:49.719Z</time></trkpt><trkpt lat="39.9553667" lon="8.686445"><ele>13.0</ele><time>2026-04-30T16:07:50.723Z</time></trkpt><trkpt lat="39.9553917" lon="8.6865467"><ele>13.0</ele><time>2026-04-30T16:07:51.715Z</time></trkpt><trkpt lat="39.9554317" lon="8.6866667"><ele>13.0</ele><time>2026-04-30T16:07:52.718Z</time></trkpt><trkpt lat="39.9554667" lon="8.6867867"><ele>13.0</ele><time>2026-04-30T16:07:53.718Z</time></trkpt><trkpt lat="39.9554967" lon="8.6869017"><ele>13.2</ele><time>2026-04-30T16:07:54.719Z</time></trkpt><trkpt lat="39.9555233" lon="8.6870183"><ele>13.4</ele><time>2026-04-30T16:07:55.714Z</time></trkpt><trkpt lat="39.9555517" lon="8.6871417"><ele>13.599999999999998</ele><time>2026-04-30T16:07:56.756Z</time></trkpt><trkpt lat="39.9555833" lon="8.6872767"><ele>13.799999999999999</ele><time>2026-04-30T16:07:57.717Z</time></trkpt><trkpt lat="39.9556133" lon="8.6874167"><ele>14.0</ele><time>2026-04-30T16:07:58.715Z</time></trkpt><trkpt lat="39.9556333" lon="8.6875617"><ele>14.0</ele><time>2026-04-30T16:07:59.718Z</time></trkpt><trkpt lat="39.9556467" lon="8.6877117"><ele>14.0</ele><time>2026-04-30T16:08:00.716Z</time></trkpt><trkpt lat="39.9556483" lon="8.6878633"><ele>14.0</ele><time>2026-04-30T16:08:01.716Z</time></trkpt><trkpt lat="39.95565" lon="8.6880117"><ele>14.0</ele><time>2026-04-30T16:08:02.754Z</time></trkpt><trkpt lat="39.9556517" lon="8.6881583"><ele>14.25</ele><time>2026-04-30T16:08:03.718Z</time></trkpt><trkpt lat="39.955655" lon="8.688305"><ele>14.5</ele><time>2026-04-30T16:08:04.717Z</time></trkpt><trkpt lat="39.9556567" lon="8.688455"><ele>14.75</ele><time>2026-04-30T16:08:05.719Z</time></trkpt><trkpt lat="39.9556667" lon="8.6886033"><ele>15.0</ele><time>2026-04-30T16:08:06.713Z</time></trkpt><trkpt lat="39.955685" lon="8.6887517"><ele>15.0</ele><time>2026-04-30T16:08:07.716Z</time></trkpt><trkpt lat="39.9557133" lon="8.68888"><ele>15.0</ele><time>2026-04-30T16:08:08.715Z</time></trkpt><trkpt lat="39.9557517" lon="8.688995"><ele>15.0</ele><time>2026-04-30T16:08:09.713Z</time></trkpt><trkpt lat="39.9558017" lon="8.6891083"><ele>15.0</ele><time>2026-04-30T16:08:10.719Z</time></trkpt><trkpt lat="39.9558617" lon="8.6892183"><ele>15.0</ele><time>2026-04-30T16:08:11.718Z</time></trkpt><trkpt lat="39.955935" lon="8.68933"><ele>15.0</ele><time>2026-04-30T16:08:12.717Z</time></trkpt><trkpt lat="39.9560117" lon="8.6894433"><ele>15.0</ele><time>2026-04-30T16:08:13.718Z</time></trkpt><trkpt lat="39.95609" lon="8.6895583"><ele>15.0</ele><time>2026-04-30T16:08:14.719Z</time></trkpt><trkpt lat="39.956165" lon="8.689665"><ele>15.0</ele><time>2026-04-30T16:08:15.713Z</time></trkpt><trkpt lat="39.9562417" lon="8.6897733"><ele>15.0</ele><time>2026-04-30T16:08:16.716Z</time></trkpt><trkpt lat="39.95632" lon="8.6898817"><ele>15.0</ele><time>2026-04-30T16:08:17.721Z</time></trkpt><trkpt lat="39.9564033" lon="8.6899867"><ele>15.0</ele><time>2026-04-30T16:08:18.719Z</time></trkpt><trkpt lat="39.9564833" lon="8.6900867"><ele>15.0</ele><time>2026-04-30T16:08:19.715Z</time></trkpt><trkpt lat="39.9565583" lon="8.6901917"><ele>15.0</ele><time>2026-04-30T16:08:20.72Z</time></trkpt><trkpt lat="39.95663" lon="8.6903017"><ele>15.0</ele><time>2026-04-30T16:08:21.718Z</time></trkpt><trkpt lat="39.9566933" lon="8.690415"><ele>15.0</ele><time>2026-04-30T16:08:22.719Z</time></trkpt><trkpt lat="39.9567517" lon="8.69053"><ele>15.0</ele><time>2026-04-30T16:08:23.715Z</time></trkpt><trkpt lat="39.9568083" lon="8.6906483"><ele>15.0</ele><time>2026-04-30T16:08:24.717Z</time></trkpt><trkpt lat="39.9568567" lon="8.690775"><ele>15.6</ele><time>2026-04-30T16:08:25.719Z</time></trkpt><trkpt lat="39.9568967" lon="8.6909033"><ele>16.2</ele><time>2026-04-30T16:08:26.752Z</time></trkpt><trkpt lat="39.9569217" lon="8.6910367"><ele>16.8</ele><time>2026-04-30T16:08:27.718Z</time></trkpt><trkpt lat="39.95694" lon="8.6911633"><ele>17.4</ele><time>2026-04-30T16:08:28.716Z</time></trkpt><trkpt lat="39.9569567" lon="8.6912733"><ele>18.0</ele><time>2026-04-30T16:08:29.723Z</time></trkpt><trkpt lat="39.95697" lon="8.6913667"><ele>18.0</ele><time>2026-04-30T16:08:30.714Z</time></trkpt><trkpt lat="39.9569967" lon="8.6914883"><ele>18.0</ele><time>2026-04-30T16:08:32.752Z</time></trkpt><trkpt lat="39.9569967" lon="8.6915933"><ele>18.0</ele><time>2026-04-30T16:08:35.719Z</time></trkpt><trkpt lat="39.95684" lon="8.6916433"><ele>18.0</ele><time>2026-04-30T16:09:00.715Z</time></trkpt><trkpt lat="39.956735" lon="8.691675"><ele>18.0</ele><time>2026-04-30T16:09:02.754Z</time></trkpt><trkpt lat="39.9566567" lon="8.691705"><ele>17.2</ele><time>2026-04-30T16:09:03.714Z</time></trkpt><trkpt lat="39.9565683" lon="8.6917433"><ele>16.4</ele><time>2026-04-30T16:09:04.717Z</time></trkpt><trkpt lat="39.9564817" lon="8.69178"><ele>15.599999999999998</ele><time>2026-04-30T16:09:05.718Z</time></trkpt><trkpt lat="39.9564017" lon="8.691815"><ele>14.799999999999999</ele><time>2026-04-30T16:09:06.718Z</time></trkpt><trkpt lat="39.9563333" lon="8.6918483"><ele>14.0</ele><time>2026-04-30T16:09:07.716Z</time></trkpt><trkpt lat="39.9562333" lon="8.6919033"><ele>14.000000000000002</ele><time>2026-04-30T16:09:09.716Z</time></trkpt><trkpt lat="39.9561633" lon="8.6919433"><ele>14.0</ele><time>2026-04-30T16:09:12.718Z</time></trkpt><trkpt lat="39.956125" lon="8.69203"><ele>14.0</ele><time>2026-04-30T16:09:15.717Z</time></trkpt><trkpt lat="39.9561317" lon="8.6921633"><ele>14.0</ele><time>2026-04-30T16:09:17.713Z</time></trkpt><trkpt lat="39.9561483" lon="8.6922583"><ele>14.000000000000002</ele><time>2026-04-30T16:09:18.717Z</time></trkpt><trkpt lat="39.95618" lon="8.6923833"><ele>14.0</ele><time>2026-04-30T16:09:19.716Z</time></trkpt><trkpt lat="39.956215" lon="8.692525"><ele>14.0</ele><time>2026-04-30T16:09:20.717Z</time></trkpt><trkpt lat="39.9562567" lon="8.6926883"><ele>14.0</ele><time>2026-04-30T16:09:21.718Z</time></trkpt><trkpt lat="39.9563" lon="8.692865"><ele>14.0</ele><time>2026-04-30T16:09:22.719Z</time></trkpt><trkpt lat="39.9563367" lon="8.693045"><ele>14.0</ele><time>2026-04-30T16:09:23.719Z</time></trkpt><trkpt lat="39.9563783" lon="8.6932417"><ele>13.666666666666668</ele><time>2026-04-30T16:09:24.718Z</time></trkpt><trkpt lat="39.956425" lon="8.6934567"><ele>13.333333333333332</ele><time>2026-04-30T16:09:25.713Z</time></trkpt><trkpt lat="39.9564667" lon="8.6936867"><ele>13.0</ele><time>2026-04-30T16:09:26.746Z</time></trkpt><trkpt lat="39.956515" lon="8.6939267"><ele>13.666666666666666</ele><time>2026-04-30T16:09:27.713Z</time></trkpt><trkpt lat="39.9565633" lon="8.69417"><ele>14.333333333333332</ele><time>2026-04-30T16:09:28.712Z</time></trkpt><trkpt lat="39.9566167" lon="8.6944183"><ele>15.0</ele><time>2026-04-30T16:09:29.716Z</time></trkpt><trkpt lat="39.9566767" lon="8.6946817"><ele>15.333333333333332</ele><time>2026-04-30T16:09:30.719Z</time></trkpt><trkpt lat="39.9567433" lon="8.694935"><ele>15.666666666666666</ele><time>2026-04-30T16:09:31.717Z</time></trkpt><trkpt lat="39.956825" lon="8.6951967"><ele>16.0</ele><time>2026-04-30T16:09:32.751Z</time></trkpt><trkpt lat="39.9569183" lon="8.6954533"><ele>15.666666666666666</ele><time>2026-04-30T16:09:33.72Z</time></trkpt><trkpt lat="39.9570117" lon="8.6957083"><ele>15.333333333333332</ele><time>2026-04-30T16:09:34.717Z</time></trkpt><trkpt lat="39.9571" lon="8.6959633"><ele>15.0</ele><time>2026-04-30T16:09:35.713Z</time></trkpt><trkpt lat="39.9571833" lon="8.6962217"><ele>15.0</ele><time>2026-04-30T16:09:36.719Z</time></trkpt><trkpt lat="39.957255" lon="8.696485"><ele>15.0</ele><time>2026-04-30T16:09:37.712Z</time></trkpt><trkpt lat="39.9573133" lon="8.6967517"><ele>15.0</ele><time>2026-04-30T16:09:38.719Z</time></trkpt><trkpt lat="39.957365" lon="8.6970267"><ele>15.0</ele><time>2026-04-30T16:09:39.718Z</time></trkpt><trkpt lat="39.9574083" lon="8.6973083"><ele>15.0</ele><time>2026-04-30T16:09:40.717Z</time></trkpt><trkpt lat="39.9574417" lon="8.6975967"><ele>15.0</ele><time>2026-04-30T16:09:41.715Z</time></trkpt><trkpt lat="39.9574617" lon="8.6978917"><ele>15.0</ele><time>2026-04-30T16:09:42.716Z</time></trkpt><trkpt lat="39.9574767" lon="8.698185"><ele>15.0</ele><time>2026-04-30T16:09:43.716Z</time></trkpt><trkpt lat="39.9574867" lon="8.69848"><ele>15.0</ele><time>2026-04-30T16:09:44.717Z</time></trkpt><trkpt lat="39.9574933" lon="8.6987767"><ele>15.0</ele><time>2026-04-30T16:09:45.714Z</time></trkpt><trkpt lat="39.9575017" lon="8.69908"><ele>15.0</ele><time>2026-04-30T16:09:46.716Z</time></trkpt><trkpt lat="39.9575067" lon="8.699385"><ele>15.0</ele><time>2026-04-30T16:09:47.715Z</time></trkpt><trkpt lat="39.9575133" lon="8.6996883"><ele>15.0</ele><time>2026-04-30T16:09:48.719Z</time></trkpt><trkpt lat="39.9575217" lon="8.699995"><ele>15.0</ele><time>2026-04-30T16:09:49.713Z</time></trkpt><trkpt lat="39.9575367" lon="8.7003017"><ele>16.0</ele><time>2026-04-30T16:09:50.716Z</time></trkpt><trkpt lat="39.9575583" lon="8.7006117"><ele>17.0</ele><time>2026-04-30T16:09:51.719Z</time></trkpt><trkpt lat="39.9575867" lon="8.70092"><ele>16.5</ele><time>2026-04-30T16:09:52.721Z</time></trkpt><trkpt lat="39.9576133" lon="8.70122"><ele>16.0</ele><time>2026-04-30T16:09:53.716Z</time></trkpt><trkpt lat="39.9576383" lon="8.701505"><ele>16.0</ele><time>2026-04-30T16:09:54.722Z</time></trkpt><trkpt lat="39.9576633" lon="8.7017733"><ele>16.0</ele><time>2026-04-30T16:09:55.72Z</time></trkpt><trkpt lat="39.9576883" lon="8.702025"><ele>16.0</ele><time>2026-04-30T16:09:56.776Z</time></trkpt><trkpt lat="39.957715" lon="8.7022617"><ele>16.0</ele><time>2026-04-30T16:09:57.717Z</time></trkpt><trkpt lat="39.957745" lon="8.7024917"><ele>16.0</ele><time>2026-04-30T16:09:58.718Z</time></trkpt><trkpt lat="39.9577783" lon="8.70271"><ele>16.0</ele><time>2026-04-30T16:09:59.718Z</time></trkpt><trkpt lat="39.9578117" lon="8.70292"><ele>15.666666666666666</ele><time>2026-04-30T16:10:00.717Z</time></trkpt><trkpt lat="39.9578467" lon="8.7031233"><ele>15.333333333333332</ele><time>2026-04-30T16:10:01.718Z</time></trkpt><trkpt lat="39.95788" lon="8.70332"><ele>15.0</ele><time>2026-04-30T16:10:02.742Z</time></trkpt><trkpt lat="39.9579117" lon="8.7035083"><ele>14.5</ele><time>2026-04-30T16:10:03.721Z</time></trkpt><trkpt lat="39.957935" lon="8.70369"><ele>14.0</ele><time>2026-04-30T16:10:04.722Z</time></trkpt><trkpt lat="39.9579483" lon="8.7038667"><ele>13.5</ele><time>2026-04-30T16:10:05.717Z</time></trkpt><trkpt lat="39.95796" lon="8.7040383"><ele>13.0</ele><time>2026-04-30T16:10:06.719Z</time></trkpt><trkpt lat="39.95797" lon="8.7042067"><ele>13.0</ele><time>2026-04-30T16:10:07.716Z</time></trkpt><trkpt lat="39.957975" lon="8.7043733"><ele>13.0</ele><time>2026-04-30T16:10:08.717Z</time></trkpt><trkpt lat="39.9579817" lon="8.704535"><ele>13.0</ele><time>2026-04-30T16:10:09.719Z</time></trkpt><trkpt lat="39.957985" lon="8.70469"><ele>13.0</ele><time>2026-04-30T16:10:10.719Z</time></trkpt><trkpt lat="39.9579867" lon="8.7048383"><ele>13.4</ele><time>2026-04-30T16:10:11.721Z</time></trkpt><trkpt lat="39.9579917" lon="8.704985"><ele>13.8</ele><time>2026-04-30T16:10:12.716Z</time></trkpt><trkpt lat="39.9579983" lon="8.7051317"><ele>14.2</ele><time>2026-04-30T16:10:13.712Z</time></trkpt><trkpt lat="39.9580017" lon="8.7052783"><ele>14.6</ele><time>2026-04-30T16:10:14.717Z</time></trkpt><trkpt lat="39.9580067" lon="8.7054233"><ele>15.0</ele><time>2026-04-30T16:10:15.722Z</time></trkpt><trkpt lat="39.9580083" lon="8.70557"><ele>15.8</ele><time>2026-04-30T16:10:16.712Z</time></trkpt><trkpt lat="39.9580117" lon="8.7057133"><ele>16.6</ele><time>2026-04-30T16:10:17.718Z</time></trkpt><trkpt lat="39.9580133" lon="8.705855"><ele>17.4</ele><time>2026-04-30T16:10:18.719Z</time></trkpt><trkpt lat="39.9580167" lon="8.70599"><ele>18.2</ele><time>2026-04-30T16:10:19.717Z</time></trkpt><trkpt lat="39.9580217" lon="8.706115"><ele>19.0</ele><time>2026-04-30T16:10:20.72Z</time></trkpt><trkpt lat="39.9580317" lon="8.70623"><ele>19.0</ele><time>2026-04-30T16:10:21.722Z</time></trkpt><trkpt lat="39.9580417" lon="8.7063333"><ele>19.0</ele><time>2026-04-30T16:10:22.718Z</time></trkpt><trkpt lat="39.9580567" lon="8.70643"><ele>19.0</ele><time>2026-04-30T16:10:23.719Z</time></trkpt><trkpt lat="39.9580683" lon="8.7065167"><ele>19.0</ele><time>2026-04-30T16:10:24.717Z</time></trkpt><trkpt lat="39.9580583" lon="8.70667"><ele>19.0</ele><time>2026-04-30T16:10:26.775Z</time></trkpt><trkpt lat="39.9579967" lon="8.706815"><ele>19.0</ele><time>2026-04-30T16:10:28.721Z</time></trkpt><trkpt lat="39.95795" lon="8.7068767"><ele>19.0</ele><time>2026-04-30T16:10:29.715Z</time></trkpt><trkpt lat="39.9578917" lon="8.70693"><ele>19.0</ele><time>2026-04-30T16:10:30.715Z</time></trkpt><trkpt lat="39.95781" lon="8.7069583"><ele>19.0</ele><time>2026-04-30T16:10:31.718Z</time></trkpt><trkpt lat="39.9577233" lon="8.7069917"><ele>19.0</ele><time>2026-04-30T16:10:32.739Z</time></trkpt><trkpt lat="39.9576233" lon="8.7070233"><ele>19.0</ele><time>2026-04-30T16:10:33.717Z</time></trkpt><trkpt lat="39.95753" lon="8.7070517"><ele>18.8</ele><time>2026-04-30T16:10:34.719Z</time></trkpt><trkpt lat="39.9574417" lon="8.707075"><ele>18.599999999999998</ele><time>2026-04-30T16:10:35.722Z</time></trkpt><trkpt lat="39.9573633" lon="8.7070967"><ele>18.4</ele><time>2026-04-30T16:10:36.716Z</time></trkpt><trkpt lat="39.9572583" lon="8.7071467"><ele>18.2</ele><time>2026-04-30T16:10:38.723Z</time></trkpt><trkpt lat="39.9571867" lon="8.7072267"><ele>18.0</ele><time>2026-04-30T16:10:40.719Z</time></trkpt><trkpt lat="39.957125" lon="8.7073717"><ele>18.000000000000004</ele><time>2026-04-30T16:10:42.718Z</time></trkpt><trkpt lat="39.957095" lon="8.7074633"><ele>18.0</ele><time>2026-04-30T16:10:43.72Z</time></trkpt><trkpt lat="39.9570583" lon="8.7075567"><ele>18.0</ele><time>2026-04-30T16:10:44.721Z</time></trkpt><trkpt lat="39.957025" lon="8.7076517"><ele>18.0</ele><time>2026-04-30T16:10:45.717Z</time></trkpt><trkpt lat="39.9569883" lon="8.7077367"><ele>18.0</ele><time>2026-04-30T16:10:46.718Z</time></trkpt><trkpt lat="39.9569467" lon="8.7078083"><ele>18.000000000000004</ele><time>2026-04-30T16:10:47.717Z</time></trkpt><trkpt lat="39.9569017" lon="8.7078733"><ele>18.0</ele><time>2026-04-30T16:10:48.717Z</time></trkpt><trkpt lat="39.956845" lon="8.7079333"><ele>18.166666666666668</ele><time>2026-04-30T16:10:49.715Z</time></trkpt><trkpt lat="39.9567817" lon="8.7079817"><ele>18.333333333333332</ele><time>2026-04-30T16:10:50.723Z</time></trkpt><trkpt lat="39.9567067" lon="8.7080133"><ele>18.5</ele><time>2026-04-30T16:10:51.719Z</time></trkpt><trkpt lat="39.956625" lon="8.7080267"><ele>18.666666666666664</ele><time>2026-04-30T16:10:52.719Z</time></trkpt><trkpt lat="39.9565433" lon="8.7080267"><ele>18.833333333333332</ele><time>2026-04-30T16:10:53.716Z</time></trkpt><trkpt lat="39.9564717" lon="8.708"><ele>19.0</ele><time>2026-04-30T16:10:54.717Z</time></trkpt><trkpt lat="39.9564117" lon="8.7079533"><ele>18.666666666666664</ele><time>2026-04-30T16:10:55.715Z</time></trkpt><trkpt lat="39.9563467" lon="8.7078867"><ele>18.333333333333332</ele><time>2026-04-30T16:10:56.743Z</time></trkpt><trkpt lat="39.9562767" lon="8.7078367"><ele>18.0</ele><time>2026-04-30T16:10:57.715Z</time></trkpt><trkpt lat="39.95621" lon="8.7078033"><ele>17.666666666666668</ele><time>2026-04-30T16:10:58.723Z</time></trkpt><trkpt lat="39.9561333" lon="8.7077833"><ele>17.333333333333336</ele><time>2026-04-30T16:10:59.715Z</time></trkpt><trkpt lat="39.9560517" lon="8.7077767"><ele>17.0</ele><time>2026-04-30T16:11:00.725Z</time></trkpt><trkpt lat="39.95595" lon="8.70776"><ele>16.5</ele><time>2026-04-30T16:11:01.722Z</time></trkpt><trkpt lat="39.9558383" lon="8.70773"><ele>16.0</ele><time>2026-04-30T16:11:02.758Z</time></trkpt><trkpt lat="39.9557167" lon="8.7076717"><ele>15.5</ele><time>2026-04-30T16:11:03.718Z</time></trkpt><trkpt lat="39.9555767" lon="8.7075933"><ele>15.0</ele><time>2026-04-30T16:11:04.718Z</time></trkpt><trkpt lat="39.9554267" lon="8.707505"><ele>15.0</ele><time>2026-04-30T16:11:05.715Z</time></trkpt><trkpt lat="39.9552633" lon="8.7074"><ele>15.0</ele><time>2026-04-30T16:11:06.716Z</time></trkpt><trkpt lat="39.9550983" lon="8.7072883"><ele>15.0</ele><time>2026-04-30T16:11:07.715Z</time></trkpt><trkpt lat="39.9549283" lon="8.7071933"><ele>14.333333333333332</ele><time>2026-04-30T16:11:08.725Z</time></trkpt><trkpt lat="39.95476" lon="8.707105"><ele>13.666666666666666</ele><time>2026-04-30T16:11:09.711Z</time></trkpt><trkpt lat="39.9545867" lon="8.7070183"><ele>13.0</ele><time>2026-04-30T16:11:10.715Z</time></trkpt><trkpt lat="39.95441" lon="8.7069383"><ele>13.0</ele><time>2026-04-30T16:11:11.717Z</time></trkpt><trkpt lat="39.9542333" lon="8.706855"><ele>13.0</ele><time>2026-04-30T16:11:12.718Z</time></trkpt><trkpt lat="39.9540567" lon="8.706775"><ele>13.0</ele><time>2026-04-30T16:11:13.715Z</time></trkpt><trkpt lat="39.95388" lon="8.706675"><ele>13.0</ele><time>2026-04-30T16:11:14.723Z</time></trkpt><trkpt lat="39.95371" lon="8.70657"><ele>13.0</ele><time>2026-04-30T16:11:15.716Z</time></trkpt><trkpt lat="39.9535467" lon="8.70644"><ele>13.0</ele><time>2026-04-30T16:11:16.716Z</time></trkpt><trkpt lat="39.9534017" lon="8.7063033"><ele>13.0</ele><time>2026-04-30T16:11:17.716Z</time></trkpt><trkpt lat="39.95326" lon="8.7061833"><ele>13.0</ele><time>2026-04-30T16:11:18.72Z</time></trkpt><trkpt lat="39.9531133" lon="8.7060817"><ele>13.0</ele><time>2026-04-30T16:11:19.713Z</time></trkpt><trkpt lat="39.9529617" lon="8.7059933"><ele>12.666666666666666</ele><time>2026-04-30T16:11:20.724Z</time></trkpt><trkpt lat="39.9528083" lon="8.705935"><ele>12.333333333333332</ele><time>2026-04-30T16:11:21.712Z</time></trkpt><trkpt lat="39.9526433" lon="8.7059083"><ele>12.0</ele><time>2026-04-30T16:11:22.716Z</time></trkpt><trkpt lat="39.952455" lon="8.705925"><ele>11.666666666666666</ele><time>2026-04-30T16:11:23.717Z</time></trkpt><trkpt lat="39.9522567" lon="8.705955"><ele>11.333333333333332</ele><time>2026-04-30T16:11:24.721Z</time></trkpt><trkpt lat="39.9520717" lon="8.70599"><ele>11.0</ele><time>2026-04-30T16:11:25.719Z</time></trkpt><trkpt lat="39.951885" lon="8.7060333"><ele>11.25</ele><time>2026-04-30T16:11:26.777Z</time></trkpt><trkpt lat="39.95171" lon="8.7060833"><ele>11.5</ele><time>2026-04-30T16:11:27.717Z</time></trkpt><trkpt lat="39.95157" lon="8.7061583"><ele>11.75</ele><time>2026-04-30T16:11:28.717Z</time></trkpt><trkpt lat="39.9514883" lon="8.7062667"><ele>12.0</ele><time>2026-04-30T16:11:29.72Z</time></trkpt><trkpt lat="39.951415" lon="8.706375"><ele>11.5</ele><time>2026-04-30T16:11:30.718Z</time></trkpt><trkpt lat="39.9513283" lon="8.7064617"><ele>11.0</ele><time>2026-04-30T16:11:31.717Z</time></trkpt><trkpt lat="39.9512467" lon="8.7065783"><ele>10.5</ele><time>2026-04-30T16:11:32.756Z</time></trkpt><trkpt lat="39.9511783" lon="8.7067083"><ele>10.0</ele><time>2026-04-30T16:11:33.715Z</time></trkpt><trkpt lat="39.951065" lon="8.706765"><ele>10.0</ele><time>2026-04-30T16:11:34.716Z</time></trkpt><trkpt lat="39.9509417" lon="8.70681"><ele>10.0</ele><time>2026-04-30T16:11:35.714Z</time></trkpt><trkpt lat="39.95081" lon="8.70681"><ele>10.0</ele><time>2026-04-30T16:11:36.719Z</time></trkpt><trkpt lat="39.9506667" lon="8.7067783"><ele>10.0</ele><time>2026-04-30T16:11:37.716Z</time></trkpt><trkpt lat="39.9505233" lon="8.7067317"><ele>11.0</ele><time>2026-04-30T16:11:38.722Z</time></trkpt><trkpt lat="39.950365" lon="8.7066683"><ele>12.0</ele><time>2026-04-30T16:11:39.719Z</time></trkpt><trkpt lat="39.9502" lon="8.7065783"><ele>13.0</ele><time>2026-04-30T16:11:40.718Z</time></trkpt><trkpt lat="39.9500183" lon="8.7064783"><ele>13.0</ele><time>2026-04-30T16:11:41.715Z</time></trkpt><trkpt lat="39.9498383" lon="8.7063717"><ele>13.0</ele><time>2026-04-30T16:11:42.718Z</time></trkpt><trkpt lat="39.9496717" lon="8.7062783"><ele>13.0</ele><time>2026-04-30T16:11:43.715Z</time></trkpt><trkpt lat="39.94952" lon="8.7062117"><ele>13.0</ele><time>2026-04-30T16:11:44.721Z</time></trkpt><trkpt lat="39.949365" lon="8.70617"><ele>13.0</ele><time>2026-04-30T16:11:45.715Z</time></trkpt><trkpt lat="39.9492083" lon="8.70618"><ele>13.0</ele><time>2026-04-30T16:11:46.717Z</time></trkpt><trkpt lat="39.9490433" lon="8.7062167"><ele>13.333333333333332</ele><time>2026-04-30T16:11:47.733Z</time></trkpt><trkpt lat="39.9488783" lon="8.706275"><ele>13.666666666666668</ele><time>2026-04-30T16:11:48.714Z</time></trkpt><trkpt lat="39.9487217" lon="8.70636"><ele>14.0</ele><time>2026-04-30T16:11:49.717Z</time></trkpt><trkpt lat="39.9485683" lon="8.7064583"><ele>14.0</ele><time>2026-04-30T16:11:50.723Z</time></trkpt><trkpt lat="39.9484217" lon="8.7065983"><ele>14.0</ele><time>2026-04-30T16:11:51.719Z</time></trkpt><trkpt lat="39.9482683" lon="8.7067617"><ele>14.0</ele><time>2026-04-30T16:11:52.718Z</time></trkpt><trkpt lat="39.9481067" lon="8.7069433"><ele>13.666666666666668</ele><time>2026-04-30T16:11:53.716Z</time></trkpt><trkpt lat="39.9479467" lon="8.707115"><ele>13.333333333333332</ele><time>2026-04-30T16:11:54.716Z</time></trkpt><trkpt lat="39.9477867" lon="8.7072883"><ele>13.0</ele><time>2026-04-30T16:11:55.718Z</time></trkpt><trkpt lat="39.947625" lon="8.7074667"><ele>13.0</ele><time>2026-04-30T16:11:56.781Z</time></trkpt><trkpt lat="39.9474533" lon="8.70765"><ele>13.0</ele><time>2026-04-30T16:11:57.715Z</time></trkpt><trkpt lat="39.94729" lon="8.707825"><ele>13.0</ele><time>2026-04-30T16:11:58.717Z</time></trkpt><trkpt lat="39.9471267" lon="8.708"><ele>13.333333333333332</ele><time>2026-04-30T16:11:59.715Z</time></trkpt><trkpt lat="39.9469633" lon="8.708175"><ele>13.666666666666668</ele><time>2026-04-30T16:12:00.71Z</time></trkpt><trkpt lat="39.9468033" lon="8.7083483"><ele>14.0</ele><time>2026-04-30T16:12:01.717Z</time></trkpt><trkpt lat="39.94664" lon="8.7085217"><ele>13.666666666666668</ele><time>2026-04-30T16:12:02.758Z</time></trkpt><trkpt lat="39.9464767" lon="8.7086967"><ele>13.333333333333332</ele><time>2026-04-30T16:12:03.714Z</time></trkpt><trkpt lat="39.946315" lon="8.7088667"><ele>13.0</ele><time>2026-04-30T16:12:04.716Z</time></trkpt><trkpt lat="39.94615" lon="8.709035"><ele>13.0</ele><time>2026-04-30T16:12:05.71Z</time></trkpt><trkpt lat="39.945985" lon="8.7092033"><ele>13.0</ele><time>2026-04-30T16:12:06.713Z</time></trkpt><trkpt lat="39.9458183" lon="8.7093717"><ele>13.0</ele><time>2026-04-30T16:12:07.719Z</time></trkpt><trkpt lat="39.9456517" lon="8.70954"><ele>12.333333333333332</ele><time>2026-04-30T16:12:08.718Z</time></trkpt><trkpt lat="39.945485" lon="8.70971"><ele>11.666666666666666</ele><time>2026-04-30T16:12:09.715Z</time></trkpt><trkpt lat="39.9453183" lon="8.7098817"><ele>11.0</ele><time>2026-04-30T16:12:10.715Z</time></trkpt><trkpt lat="39.9451483" lon="8.710055"><ele>11.333333333333332</ele><time>2026-04-30T16:12:11.717Z</time></trkpt><trkpt lat="39.9449783" lon="8.710225"><ele>11.666666666666666</ele><time>2026-04-30T16:12:12.714Z</time></trkpt><trkpt lat="39.9448033" lon="8.7103967"><ele>12.0</ele><time>2026-04-30T16:12:13.718Z</time></trkpt><trkpt lat="39.9446267" lon="8.7105717"><ele>12.0</ele><time>2026-04-30T16:12:14.723Z</time></trkpt><trkpt lat="39.9444517" lon="8.7107467"><ele>12.0</ele><time>2026-04-30T16:12:15.715Z</time></trkpt><trkpt lat="39.9442767" lon="8.71092"><ele>12.0</ele><time>2026-04-30T16:12:16.716Z</time></trkpt><trkpt lat="39.9440983" lon="8.7110933"><ele>12.0</ele><time>2026-04-30T16:12:17.717Z</time></trkpt><trkpt lat="39.94392" lon="8.7112667"><ele>12.0</ele><time>2026-04-30T16:12:18.717Z</time></trkpt><trkpt lat="39.94374" lon="8.71144"><ele>12.0</ele><time>2026-04-30T16:12:19.714Z</time></trkpt><trkpt lat="39.9435617" lon="8.711615"><ele>12.5</ele><time>2026-04-30T16:12:20.721Z</time></trkpt><trkpt lat="39.9433783" lon="8.7117933"><ele>13.0</ele><time>2026-04-30T16:12:21.718Z</time></trkpt><trkpt lat="39.9431967" lon="8.7119717"><ele>12.0</ele><time>2026-04-30T16:12:22.717Z</time></trkpt><trkpt lat="39.943015" lon="8.7121517"><ele>11.0</ele><time>2026-04-30T16:12:23.715Z</time></trkpt><trkpt lat="39.94283" lon="8.7123367"><ele>11.0</ele><time>2026-04-30T16:12:24.718Z</time></trkpt><trkpt lat="39.9426467" lon="8.7125183"><ele>11.0</ele><time>2026-04-30T16:12:25.715Z</time></trkpt><trkpt lat="39.9424617" lon="8.7127"><ele>12.0</ele><time>2026-04-30T16:12:26.777Z</time></trkpt><trkpt lat="39.942275" lon="8.7128833"><ele>13.0</ele><time>2026-04-30T16:12:27.716Z</time></trkpt><trkpt lat="39.9420867" lon="8.7130683"><ele>13.0</ele><time>2026-04-30T16:12:28.718Z</time></trkpt><trkpt lat="39.9418983" lon="8.7132483"><ele>13.0</ele><time>2026-04-30T16:12:29.712Z</time></trkpt><trkpt lat="39.94171" lon="8.7134317"><ele>12.0</ele><time>2026-04-30T16:12:30.711Z</time></trkpt><trkpt lat="39.9415233" lon="8.713615"><ele>11.0</ele><time>2026-04-30T16:12:31.712Z</time></trkpt><trkpt lat="39.941335" lon="8.7138"><ele>11.0</ele><time>2026-04-30T16:12:32.758Z</time></trkpt><trkpt lat="39.9411467" lon="8.7139833"><ele>11.0</ele><time>2026-04-30T16:12:33.714Z</time></trkpt><trkpt lat="39.9409567" lon="8.7141667"><ele>11.5</ele><time>2026-04-30T16:12:34.719Z</time></trkpt><trkpt lat="39.9407667" lon="8.7143517"><ele>12.0</ele><time>2026-04-30T16:12:35.72Z</time></trkpt><trkpt lat="39.9405783" lon="8.714535"><ele>12.0</ele><time>2026-04-30T16:12:36.718Z</time></trkpt><trkpt lat="39.9403883" lon="8.7147183"><ele>12.0</ele><time>2026-04-30T16:12:37.716Z</time></trkpt><trkpt lat="39.9402033" lon="8.7149"><ele>13.666666666666668</ele><time>2026-04-30T16:12:38.723Z</time></trkpt><trkpt lat="39.9400217" lon="8.7150783"><ele>15.333333333333334</ele><time>2026-04-30T16:12:39.716Z</time></trkpt><trkpt lat="39.93985" lon="8.7152533"><ele>17.0</ele><time>2026-04-30T16:12:40.716Z</time></trkpt><trkpt lat="39.9396833" lon="8.71542"><ele>17.0</ele><time>2026-04-30T16:12:41.717Z</time></trkpt><trkpt lat="39.9395267" lon="8.71558"><ele>17.0</ele><time>2026-04-30T16:12:42.713Z</time></trkpt><trkpt lat="39.9393767" lon="8.7157333"><ele>17.0</ele><time>2026-04-30T16:12:43.716Z</time></trkpt><trkpt lat="39.939235" lon="8.715875"><ele>17.0</ele><time>2026-04-30T16:12:44.723Z</time></trkpt><trkpt lat="39.939105" lon="8.71601"><ele>17.0</ele><time>2026-04-30T16:12:45.715Z</time></trkpt><trkpt lat="39.938985" lon="8.7161367"><ele>17.0</ele><time>2026-04-30T16:12:46.716Z</time></trkpt><trkpt lat="39.9388767" lon="8.716255"><ele>17.6</ele><time>2026-04-30T16:12:47.718Z</time></trkpt><trkpt lat="39.938775" lon="8.7163633"><ele>18.2</ele><time>2026-04-30T16:12:48.718Z</time></trkpt><trkpt lat="39.93868" lon="8.71646"><ele>18.8</ele><time>2026-04-30T16:12:49.715Z</time></trkpt><trkpt lat="39.9385983" lon="8.7165433"><ele>19.4</ele><time>2026-04-30T16:12:50.721Z</time></trkpt><trkpt lat="39.938525" lon="8.7166167"><ele>20.0</ele><time>2026-04-30T16:12:51.722Z</time></trkpt><trkpt lat="39.9384617" lon="8.7166733"><ele>20.0</ele><time>2026-04-30T16:12:52.718Z</time></trkpt><trkpt lat="39.938405" lon="8.7167233"><ele>20.0</ele><time>2026-04-30T16:12:53.717Z</time></trkpt><trkpt lat="39.9383033" lon="8.7168067"><ele>20.0</ele><time>2026-04-30T16:12:55.715Z</time></trkpt><trkpt lat="39.9382233" lon="8.7168767"><ele>20.0</ele><time>2026-04-30T16:12:57.714Z</time></trkpt><trkpt lat="39.938145" lon="8.716945"><ele>20.0</ele><time>2026-04-30T16:12:59.718Z</time></trkpt><trkpt lat="39.9380767" lon="8.7170067"><ele>20.0</ele><time>2026-04-30T16:13:01.717Z</time></trkpt><trkpt lat="39.938005" lon="8.71707"><ele>20.0</ele><time>2026-04-30T16:13:03.717Z</time></trkpt><trkpt lat="39.93794" lon="8.7171267"><ele>20.0</ele><time>2026-04-30T16:13:05.716Z</time></trkpt><trkpt lat="39.9378683" lon="8.7172083"><ele>20.0</ele><time>2026-04-30T16:13:27.715Z</time></trkpt><trkpt lat="39.93779" lon="8.7172167"><ele>20.0</ele><time>2026-04-30T16:13:30.717Z</time></trkpt><trkpt lat="39.937725" lon="8.7171333"><ele>20.0</ele><time>2026-04-30T16:13:32.755Z</time></trkpt><trkpt lat="39.9376967" lon="8.7170483"><ele>20.0</ele><time>2026-04-30T16:13:33.714Z</time></trkpt><trkpt lat="39.9376633" lon="8.71696"><ele>20.0</ele><time>2026-04-30T16:13:34.715Z</time></trkpt><trkpt lat="39.93763" lon="8.7168517"><ele>20.0</ele><time>2026-04-30T16:13:35.714Z</time></trkpt><trkpt lat="39.937585" lon="8.7166683"><ele>20.0</ele><time>2026-04-30T16:13:36.719Z</time></trkpt><trkpt lat="39.9375267" lon="8.7164883"><ele>19.0</ele><time>2026-04-30T16:13:37.715Z</time></trkpt><trkpt lat="39.9374633" lon="8.71629"><ele>18.0</ele><time>2026-04-30T16:13:38.728Z</time></trkpt><trkpt lat="39.9374033" lon="8.7160867"><ele>17.0</ele><time>2026-04-30T16:13:39.716Z</time></trkpt><trkpt lat="39.937335" lon="8.7158767"><ele>16.666666666666668</ele><time>2026-04-30T16:13:40.714Z</time></trkpt><trkpt lat="39.9372567" lon="8.7156667"><ele>16.333333333333332</ele><time>2026-04-30T16:13:41.713Z</time></trkpt><trkpt lat="39.9371817" lon="8.7154417"><ele>16.0</ele><time>2026-04-30T16:13:42.715Z</time></trkpt><trkpt lat="39.9371033" lon="8.715215"><ele>15.666666666666666</ele><time>2026-04-30T16:13:43.717Z</time></trkpt><trkpt lat="39.9370217" lon="8.7149817"><ele>15.333333333333332</ele><time>2026-04-30T16:13:44.727Z</time></trkpt><trkpt lat="39.9369383" lon="8.71474"><ele>15.0</ele><time>2026-04-30T16:13:45.712Z</time></trkpt><trkpt lat="39.9368517" lon="8.714495"><ele>14.666666666666668</ele><time>2026-04-30T16:13:46.715Z</time></trkpt><trkpt lat="39.9367617" lon="8.7142517"><ele>14.333333333333334</ele><time>2026-04-30T16:13:47.716Z</time></trkpt><trkpt lat="39.93667" lon="8.7140017"><ele>14.0</ele><time>2026-04-30T16:13:48.718Z</time></trkpt><trkpt lat="39.9365783" lon="8.71375"><ele>14.333333333333334</ele><time>2026-04-30T16:13:49.716Z</time></trkpt><trkpt lat="39.9364867" lon="8.713495"><ele>14.666666666666668</ele><time>2026-04-30T16:13:50.728Z</time></trkpt><trkpt lat="39.9363967" lon="8.7132383"><ele>15.0</ele><time>2026-04-30T16:13:51.714Z</time></trkpt><trkpt lat="39.936305" lon="8.7129767"><ele>14.666666666666668</ele><time>2026-04-30T16:13:52.714Z</time></trkpt><trkpt lat="39.9362117" lon="8.7127167"><ele>14.333333333333334</ele><time>2026-04-30T16:13:53.713Z</time></trkpt><trkpt lat="39.9361217" lon="8.7124567"><ele>14.0</ele><time>2026-04-30T16:13:54.718Z</time></trkpt><trkpt lat="39.9360283" lon="8.7121933"><ele>14.0</ele><time>2026-04-30T16:13:55.712Z</time></trkpt><trkpt lat="39.935935" lon="8.711925"><ele>14.0</ele><time>2026-04-30T16:13:56.777Z</time></trkpt><trkpt lat="39.9358433" lon="8.71166"><ele>14.0</ele><time>2026-04-30T16:13:57.711Z</time></trkpt><trkpt lat="39.9357517" lon="8.711395"><ele>14.333333333333334</ele><time>2026-04-30T16:13:58.716Z</time></trkpt><trkpt lat="39.9356567" lon="8.711135"><ele>14.666666666666668</ele><time>2026-04-30T16:13:59.716Z</time></trkpt><trkpt lat="39.93556" lon="8.7108783"><ele>15.0</ele><time>2026-04-30T16:14:00.716Z</time></trkpt><trkpt lat="39.935465" lon="8.71062"><ele>15.666666666666668</ele><time>2026-04-30T16:14:01.714Z</time></trkpt><trkpt lat="39.9353683" lon="8.7103633"><ele>16.333333333333336</ele><time>2026-04-30T16:14:02.763Z</time></trkpt><trkpt lat="39.9352717" lon="8.710105"><ele>17.0</ele><time>2026-04-30T16:14:03.72Z</time></trkpt><trkpt lat="39.935175" lon="8.709845"><ele>18.0</ele><time>2026-04-30T16:14:04.715Z</time></trkpt><trkpt lat="39.9350783" lon="8.709585"><ele>19.0</ele><time>2026-04-30T16:14:05.713Z</time></trkpt><trkpt lat="39.93498" lon="8.7093267"><ele>20.0</ele><time>2026-04-30T16:14:06.716Z</time></trkpt><trkpt lat="39.9348833" lon="8.709065"><ele>20.333333333333336</ele><time>2026-04-30T16:14:07.716Z</time></trkpt><trkpt lat="39.934785" lon="8.708805"><ele>20.666666666666668</ele><time>2026-04-30T16:14:08.734Z</time></trkpt><trkpt lat="39.9346867" lon="8.7085433"><ele>21.0</ele><time>2026-04-30T16:14:09.717Z</time></trkpt><trkpt lat="39.9345883" lon="8.7082817"><ele>20.0</ele><time>2026-04-30T16:14:10.713Z</time></trkpt><trkpt lat="39.9344933" lon="8.70802"><ele>19.0</ele><time>2026-04-30T16:14:11.716Z</time></trkpt><trkpt lat="39.934395" lon="8.7077567"><ele>18.0</ele><time>2026-04-30T16:14:12.715Z</time></trkpt><trkpt lat="39.9342983" lon="8.7074933"><ele>18.0</ele><time>2026-04-30T16:14:13.718Z</time></trkpt><trkpt lat="39.9342017" lon="8.70723"><ele>18.0</ele><time>2026-04-30T16:14:14.729Z</time></trkpt><trkpt lat="39.934105" lon="8.7069633"><ele>18.0</ele><time>2026-04-30T16:14:15.715Z</time></trkpt><trkpt lat="39.9340067" lon="8.7066967"><ele>18.0</ele><time>2026-04-30T16:14:16.718Z</time></trkpt><trkpt lat="39.93391" lon="8.7064283"><ele>18.0</ele><time>2026-04-30T16:14:17.715Z</time></trkpt><trkpt lat="39.9338067" lon="8.7061583"><ele>18.0</ele><time>2026-04-30T16:14:18.718Z</time></trkpt><trkpt lat="39.933705" lon="8.70589"><ele>18.0</ele><time>2026-04-30T16:14:19.716Z</time></trkpt><trkpt lat="39.9336067" lon="8.7056233"><ele>18.0</ele><time>2026-04-30T16:14:20.727Z</time></trkpt><trkpt lat="39.9335067" lon="8.7053533"><ele>18.0</ele><time>2026-04-30T16:14:21.717Z</time></trkpt><trkpt lat="39.9334067" lon="8.705085"><ele>18.0</ele><time>2026-04-30T16:14:22.713Z</time></trkpt><trkpt lat="39.9333067" lon="8.7048183"><ele>18.5</ele><time>2026-04-30T16:14:23.717Z</time></trkpt><trkpt lat="39.9332083" lon="8.7045517"><ele>19.0</ele><time>2026-04-30T16:14:24.717Z</time></trkpt><trkpt lat="39.9331117" lon="8.704285"><ele>19.5</ele><time>2026-04-30T16:14:25.711Z</time></trkpt><trkpt lat="39.9330133" lon="8.7040183"><ele>20.0</ele><time>2026-04-30T16:14:26.778Z</time></trkpt><trkpt lat="39.932915" lon="8.7037517"><ele>19.0</ele><time>2026-04-30T16:14:27.715Z</time></trkpt><trkpt lat="39.932815" lon="8.703485"><ele>18.0</ele><time>2026-04-30T16:14:28.716Z</time></trkpt><trkpt lat="39.932715" lon="8.7032167"><ele>18.0</ele><time>2026-04-30T16:14:29.718Z</time></trkpt><trkpt lat="39.9326167" lon="8.70295"><ele>18.0</ele><time>2026-04-30T16:14:30.717Z</time></trkpt><trkpt lat="39.9325167" lon="8.7026767"><ele>19.0</ele><time>2026-04-30T16:14:31.712Z</time></trkpt><trkpt lat="39.93241" lon="8.702405"><ele>20.0</ele><time>2026-04-30T16:14:32.764Z</time></trkpt><trkpt lat="39.9323033" lon="8.7021317"><ele>20.0</ele><time>2026-04-30T16:14:33.715Z</time></trkpt><trkpt lat="39.9321983" lon="8.7018583"><ele>20.0</ele><time>2026-04-30T16:14:34.715Z</time></trkpt><trkpt lat="39.9320933" lon="8.7015867"><ele>20.0</ele><time>2026-04-30T16:14:35.716Z</time></trkpt><trkpt lat="39.9319867" lon="8.7013117"><ele>20.0</ele><time>2026-04-30T16:14:36.718Z</time></trkpt><trkpt lat="39.9318883" lon="8.7010383"><ele>19.5</ele><time>2026-04-30T16:14:37.714Z</time></trkpt><trkpt lat="39.9317917" lon="8.7007667"><ele>19.0</ele><time>2026-04-30T16:14:38.73Z</time></trkpt><trkpt lat="39.931695" lon="8.7004933"><ele>18.0</ele><time>2026-04-30T16:14:39.719Z</time></trkpt><trkpt lat="39.9315983" lon="8.7002183"><ele>17.0</ele><time>2026-04-30T16:14:40.712Z</time></trkpt><trkpt lat="39.9314967" lon="8.699945"><ele>17.0</ele><time>2026-04-30T16:14:41.719Z</time></trkpt><trkpt lat="39.9313983" lon="8.6996717"><ele>17.0</ele><time>2026-04-30T16:14:42.715Z</time></trkpt><trkpt lat="39.9313017" lon="8.6994033"><ele>16.666666666666668</ele><time>2026-04-30T16:14:43.714Z</time></trkpt><trkpt lat="39.9312067" lon="8.6991433"><ele>16.333333333333332</ele><time>2026-04-30T16:14:44.726Z</time></trkpt><trkpt lat="39.9311183" lon="8.6988983"><ele>16.0</ele><time>2026-04-30T16:14:45.716Z</time></trkpt><trkpt lat="39.931035" lon="8.6986683"><ele>16.333333333333332</ele><time>2026-04-30T16:14:46.717Z</time></trkpt><trkpt lat="39.9309583" lon="8.6984533"><ele>16.666666666666668</ele><time>2026-04-30T16:14:47.717Z</time></trkpt><trkpt lat="39.9308867" lon="8.698255"><ele>17.0</ele><time>2026-04-30T16:14:48.722Z</time></trkpt><trkpt lat="39.9308167" lon="8.698065"><ele>17.0</ele><time>2026-04-30T16:14:49.72Z</time></trkpt><trkpt lat="39.93075" lon="8.6978817"><ele>17.0</ele><time>2026-04-30T16:14:50.73Z</time></trkpt><trkpt lat="39.930685" lon="8.6977017"><ele>17.0</ele><time>2026-04-30T16:14:51.717Z</time></trkpt><trkpt lat="39.93062" lon="8.6975283"><ele>17.0</ele><time>2026-04-30T16:14:52.717Z</time></trkpt><trkpt lat="39.9305583" lon="8.6973633"><ele>17.0</ele><time>2026-04-30T16:14:53.714Z</time></trkpt><trkpt lat="39.9305" lon="8.697205"><ele>17.0</ele><time>2026-04-30T16:14:54.718Z</time></trkpt><trkpt lat="39.9304433" lon="8.69705"><ele>17.0</ele><time>2026-04-30T16:14:55.712Z</time></trkpt><trkpt lat="39.9303883" lon="8.6969"><ele>16.8</ele><time>2026-04-30T16:14:56.776Z</time></trkpt><trkpt lat="39.9303367" lon="8.6967567"><ele>16.6</ele><time>2026-04-30T16:14:57.718Z</time></trkpt><trkpt lat="39.9302883" lon="8.696625"><ele>16.400000000000002</ele><time>2026-04-30T16:14:58.715Z</time></trkpt><trkpt lat="39.9302467" lon="8.69651"><ele>16.2</ele><time>2026-04-30T16:14:59.72Z</time></trkpt><trkpt lat="39.9302067" lon="8.69641"><ele>16.0</ele><time>2026-04-30T16:15:00.717Z</time></trkpt><trkpt lat="39.9301717" lon="8.6963133"><ele>16.0</ele><time>2026-04-30T16:15:01.717Z</time></trkpt><trkpt lat="39.93014" lon="8.6962233"><ele>15.999999999999998</ele><time>2026-04-30T16:15:02.77Z</time></trkpt><trkpt lat="39.93011" lon="8.6961333"><ele>16.0</ele><time>2026-04-30T16:15:03.72Z</time></trkpt><trkpt lat="39.9300867" lon="8.6960433"><ele>16.0</ele><time>2026-04-30T16:15:04.715Z</time></trkpt><trkpt lat="39.9300683" lon="8.6959517"><ele>15.999999999999998</ele><time>2026-04-30T16:15:05.713Z</time></trkpt><trkpt lat="39.9300617" lon="8.6958533"><ele>16.0</ele><time>2026-04-30T16:15:06.718Z</time></trkpt><trkpt lat="39.9300717" lon="8.695765"><ele>16.0</ele><time>2026-04-30T16:15:07.716Z</time></trkpt><trkpt lat="39.9300833" lon="8.6956833"><ele>15.999999999999998</ele><time>2026-04-30T16:15:08.725Z</time></trkpt><trkpt lat="39.9300933" lon="8.6956"><ele>16.0</ele><time>2026-04-30T16:15:09.717Z</time></trkpt><trkpt lat="39.9300883" lon="8.6955133"><ele>16.0</ele><time>2026-04-30T16:15:10.714Z</time></trkpt><trkpt lat="39.9300817" lon="8.6954233"><ele>16.0</ele><time>2026-04-30T16:15:11.715Z</time></trkpt><trkpt lat="39.9300867" lon="8.6953183"><ele>15.999999999999998</ele><time>2026-04-30T16:15:12.715Z</time></trkpt><trkpt lat="39.9300933" lon="8.6952067"><ele>16.0</ele><time>2026-04-30T16:15:13.717Z</time></trkpt><trkpt lat="39.9301033" lon="8.6950917"><ele>16.0</ele><time>2026-04-30T16:15:14.725Z</time></trkpt><trkpt lat="39.9301217" lon="8.6948717"><ele>16.0</ele><time>2026-04-30T16:15:16.715Z</time></trkpt><trkpt lat="39.93013" lon="8.6947683"><ele>16.0</ele><time>2026-04-30T16:15:17.716Z</time></trkpt><trkpt lat="39.9301367" lon="8.694675"><ele>16.0</ele><time>2026-04-30T16:15:18.717Z</time></trkpt><trkpt lat="39.9301433" lon="8.69458"><ele>16.0</ele><time>2026-04-30T16:15:19.713Z</time></trkpt><trkpt lat="39.9301467" lon="8.6944867"><ele>16.166666666666664</ele><time>2026-04-30T16:15:20.732Z</time></trkpt><trkpt lat="39.9301483" lon="8.6943883"><ele>16.333333333333332</ele><time>2026-04-30T16:15:21.716Z</time></trkpt><trkpt lat="39.9301517" lon="8.6942917"><ele>16.5</ele><time>2026-04-30T16:15:22.715Z</time></trkpt><trkpt lat="39.9301517" lon="8.6941917"><ele>16.666666666666668</ele><time>2026-04-30T16:15:23.715Z</time></trkpt><trkpt lat="39.9301533" lon="8.6940917"><ele>16.833333333333336</ele><time>2026-04-30T16:15:24.717Z</time></trkpt><trkpt lat="39.93016" lon="8.6939967"><ele>17.0</ele><time>2026-04-30T16:15:25.716Z</time></trkpt><trkpt lat="39.9301633" lon="8.6938967"><ele>17.0</ele><time>2026-04-30T16:15:26.776Z</time></trkpt><trkpt lat="39.93017" lon="8.6937983"><ele>17.0</ele><time>2026-04-30T16:15:27.714Z</time></trkpt><trkpt lat="39.9301767" lon="8.693695"><ele>17.0</ele><time>2026-04-30T16:15:28.712Z</time></trkpt><trkpt lat="39.930185" lon="8.6935933"><ele>17.0</ele><time>2026-04-30T16:15:29.72Z</time></trkpt><trkpt lat="39.93019" lon="8.6934917"><ele>17.0</ele><time>2026-04-30T16:15:30.718Z</time></trkpt><trkpt lat="39.9301933" lon="8.6933883"><ele>17.0</ele><time>2026-04-30T16:15:31.715Z</time></trkpt><trkpt lat="39.9301967" lon="8.6932817"><ele>17.0</ele><time>2026-04-30T16:15:32.764Z</time></trkpt><trkpt lat="39.9302" lon="8.6931767"><ele>17.0</ele><time>2026-04-30T16:15:33.718Z</time></trkpt><trkpt lat="39.9302067" lon="8.69307"><ele>17.0</ele><time>2026-04-30T16:15:34.719Z</time></trkpt><trkpt lat="39.9302083" lon="8.6929683"><ele>17.0</ele><time>2026-04-30T16:15:35.718Z</time></trkpt><trkpt lat="39.93021" lon="8.6928733"><ele>17.0</ele><time>2026-04-30T16:15:36.718Z</time></trkpt><trkpt lat="39.9302117" lon="8.692785"><ele>17.0</ele><time>2026-04-30T16:15:37.72Z</time></trkpt><trkpt lat="39.9302167" lon="8.6926217"><ele>17.0</ele><time>2026-04-30T16:15:39.718Z</time></trkpt><trkpt lat="39.9302283" lon="8.6924633"><ele>17.0</ele><time>2026-04-30T16:15:41.72Z</time></trkpt><trkpt lat="39.93024" lon="8.6923017"><ele>17.0</ele><time>2026-04-30T16:15:43.717Z</time></trkpt><trkpt lat="39.930245" lon="8.692215"><ele>17.0</ele><time>2026-04-30T16:15:44.735Z</time></trkpt><trkpt lat="39.93025" lon="8.6921267"><ele>17.0</ele><time>2026-04-30T16:15:45.718Z</time></trkpt><trkpt lat="39.930255" lon="8.6920333"><ele>16.999999999999996</ele><time>2026-04-30T16:15:46.716Z</time></trkpt><trkpt lat="39.93026" lon="8.6919417"><ele>17.0</ele><time>2026-04-30T16:15:47.716Z</time></trkpt><trkpt lat="39.930265" lon="8.6918467"><ele>17.0</ele><time>2026-04-30T16:15:48.716Z</time></trkpt><trkpt lat="39.9302683" lon="8.6917517"><ele>17.0</ele><time>2026-04-30T16:15:49.717Z</time></trkpt><trkpt lat="39.9302683" lon="8.6916533"><ele>17.0</ele><time>2026-04-30T16:15:50.739Z</time></trkpt><trkpt lat="39.9302683" lon="8.6915533"><ele>16.999999999999996</ele><time>2026-04-30T16:15:51.715Z</time></trkpt><trkpt lat="39.9302717" lon="8.6914483"><ele>17.0</ele><time>2026-04-30T16:15:52.723Z</time></trkpt><trkpt lat="39.9302767" lon="8.6913417"><ele>17.0</ele><time>2026-04-30T16:15:53.716Z</time></trkpt><trkpt lat="39.9302817" lon="8.6912367"><ele>17.0</ele><time>2026-04-30T16:15:54.715Z</time></trkpt><trkpt lat="39.930285" lon="8.6911267"><ele>17.0</ele><time>2026-04-30T16:15:55.716Z</time></trkpt><trkpt lat="39.93029" lon="8.691015"><ele>17.0</ele><time>2026-04-30T16:15:56.776Z</time></trkpt><trkpt lat="39.9302933" lon="8.6909033"><ele>17.0</ele><time>2026-04-30T16:15:57.72Z</time></trkpt><trkpt lat="39.9303" lon="8.6907917"><ele>17.0</ele><time>2026-04-30T16:15:58.719Z</time></trkpt><trkpt lat="39.9303317" lon="8.6905833"><ele>17.0</ele><time>2026-04-30T16:16:00.716Z</time></trkpt><trkpt lat="39.9303433" lon="8.69047"><ele>17.0</ele><time>2026-04-30T16:16:01.717Z</time></trkpt><trkpt lat="39.9303633" lon="8.6903633"><ele>17.0</ele><time>2026-04-30T16:16:02.764Z</time></trkpt><trkpt lat="39.9303867" lon="8.6902567"><ele>17.0</ele><time>2026-04-30T16:16:03.713Z</time></trkpt><trkpt lat="39.9304133" lon="8.6901517"><ele>17.0</ele><time>2026-04-30T16:16:04.713Z</time></trkpt><trkpt lat="39.93045" lon="8.6900517"><ele>17.0</ele><time>2026-04-30T16:16:05.715Z</time></trkpt><trkpt lat="39.93049" lon="8.689945"><ele>17.0</ele><time>2026-04-30T16:16:06.715Z</time></trkpt><trkpt lat="39.9305317" lon="8.6898367"><ele>17.0</ele><time>2026-04-30T16:16:07.715Z</time></trkpt><trkpt lat="39.93057" lon="8.6897317"><ele>17.0</ele><time>2026-04-30T16:16:08.729Z</time></trkpt><trkpt lat="39.9306133" lon="8.68963"><ele>17.0</ele><time>2026-04-30T16:16:09.713Z</time></trkpt><trkpt lat="39.930655" lon="8.6895283"><ele>17.0</ele><time>2026-04-30T16:16:10.718Z</time></trkpt><trkpt lat="39.9306967" lon="8.6894283"><ele>17.0</ele><time>2026-04-30T16:16:11.714Z</time></trkpt><trkpt lat="39.93073" lon="8.6893317"><ele>17.0</ele><time>2026-04-30T16:16:12.714Z</time></trkpt><trkpt lat="39.9307617" lon="8.68924"><ele>17.0</ele><time>2026-04-30T16:16:13.717Z</time></trkpt><trkpt lat="39.930795" lon="8.6891517"><ele>17.0</ele><time>2026-04-30T16:16:14.735Z</time></trkpt><trkpt lat="39.9308317" lon="8.6890583"><ele>17.0</ele><time>2026-04-30T16:16:15.714Z</time></trkpt><trkpt lat="39.93087" lon="8.68896"><ele>17.0</ele><time>2026-04-30T16:16:16.715Z</time></trkpt><trkpt lat="39.9309117" lon="8.6888617"><ele>17.0</ele><time>2026-04-30T16:16:17.717Z</time></trkpt><trkpt lat="39.93095" lon="8.6887617"><ele>17.0</ele><time>2026-04-30T16:16:18.716Z</time></trkpt><trkpt lat="39.9309883" lon="8.6886667"><ele>17.0</ele><time>2026-04-30T16:16:19.717Z</time></trkpt><trkpt lat="39.9310267" lon="8.6885733"><ele>17.0</ele><time>2026-04-30T16:16:20.734Z</time></trkpt><trkpt lat="39.93106" lon="8.6884833"><ele>17.0</ele><time>2026-04-30T16:16:21.714Z</time></trkpt><trkpt lat="39.93109" lon="8.6883933"><ele>17.0</ele><time>2026-04-30T16:16:22.712Z</time></trkpt><trkpt lat="39.9311183" lon="8.6883033"><ele>17.0</ele><time>2026-04-30T16:16:23.716Z</time></trkpt><trkpt lat="39.931145" lon="8.6882183"><ele>16.999999999999996</ele><time>2026-04-30T16:16:24.718Z</time></trkpt><trkpt lat="39.9311717" lon="8.688135"><ele>17.0</ele><time>2026-04-30T16:16:25.714Z</time></trkpt><trkpt lat="39.931195" lon="8.6880517"><ele>17.0</ele><time>2026-04-30T16:16:26.777Z</time></trkpt><trkpt lat="39.9312183" lon="8.6879633"><ele>17.0</ele><time>2026-04-30T16:16:27.713Z</time></trkpt><trkpt lat="39.9312383" lon="8.68787"><ele>17.0</ele><time>2026-04-30T16:16:28.716Z</time></trkpt><trkpt lat="39.9312633" lon="8.68777"><ele>16.999999999999996</ele><time>2026-04-30T16:16:29.719Z</time></trkpt><trkpt lat="39.9312817" lon="8.6876667"><ele>17.0</ele><time>2026-04-30T16:16:30.722Z</time></trkpt><trkpt lat="39.9313" lon="8.6875633"><ele>17.0</ele><time>2026-04-30T16:16:31.716Z</time></trkpt><trkpt lat="39.93132" lon="8.6874617"><ele>17.0</ele><time>2026-04-30T16:16:32.765Z</time></trkpt><trkpt lat="39.93134" lon="8.6873633"><ele>17.0</ele><time>2026-04-30T16:16:33.718Z</time></trkpt><trkpt lat="39.9313583" lon="8.6872667"><ele>17.0</ele><time>2026-04-30T16:16:34.718Z</time></trkpt><trkpt lat="39.9313767" lon="8.6871767"><ele>17.0</ele><time>2026-04-30T16:16:35.719Z</time></trkpt><trkpt lat="39.9313933" lon="8.6870933"><ele>17.0</ele><time>2026-04-30T16:16:36.716Z</time></trkpt><trkpt lat="39.9314217" lon="8.6869517"><ele>16.75</ele><time>2026-04-30T16:16:38.732Z</time></trkpt><trkpt lat="39.931445" lon="8.6868467"><ele>16.5</ele><time>2026-04-30T16:16:40.715Z</time></trkpt><trkpt lat="39.93149" lon="8.68669"><ele>16.25</ele><time>2026-04-30T16:16:59.713Z</time></trkpt><trkpt lat="39.9315417" lon="8.6864983"><ele>16.0</ele><time>2026-04-30T16:17:01.717Z</time></trkpt><trkpt lat="39.93158" lon="8.6863583"><ele>16.0</ele><time>2026-04-30T16:17:02.777Z</time></trkpt><trkpt lat="39.93162" lon="8.6862017"><ele>16.0</ele><time>2026-04-30T16:17:03.716Z</time></trkpt><trkpt lat="39.9316683" lon="8.68604"><ele>16.0</ele><time>2026-04-30T16:17:04.714Z</time></trkpt><trkpt lat="39.9317017" lon="8.6858683"><ele>16.0</ele><time>2026-04-30T16:17:05.713Z</time></trkpt><trkpt lat="39.9317217" lon="8.6856783"><ele>16.0</ele><time>2026-04-30T16:17:06.717Z</time></trkpt><trkpt lat="39.9317417" lon="8.68551"><ele>16.0</ele><time>2026-04-30T16:17:07.717Z</time></trkpt><trkpt lat="39.9317483" lon="8.6853283"><ele>16.0</ele><time>2026-04-30T16:17:08.739Z</time></trkpt><trkpt lat="39.931755" lon="8.6851583"><ele>16.0</ele><time>2026-04-30T16:17:09.711Z</time></trkpt><trkpt lat="39.9317467" lon="8.684975"><ele>16.0</ele><time>2026-04-30T16:17:10.715Z</time></trkpt><trkpt lat="39.9317183" lon="8.6848"><ele>16.0</ele><time>2026-04-30T16:17:11.715Z</time></trkpt><trkpt lat="39.93169" lon="8.6846217"><ele>16.0</ele><time>2026-04-30T16:17:12.713Z</time></trkpt><trkpt lat="39.9316567" lon="8.6844483"><ele>16.0</ele><time>2026-04-30T16:17:13.715Z</time></trkpt><trkpt lat="39.9316167" lon="8.6842767"><ele>16.0</ele><time>2026-04-30T16:17:14.739Z</time></trkpt><trkpt lat="39.93156" lon="8.684105"><ele>16.0</ele><time>2026-04-30T16:17:15.715Z</time></trkpt><trkpt lat="39.931495" lon="8.6839167"><ele>16.0</ele><time>2026-04-30T16:17:16.715Z</time></trkpt><trkpt lat="39.9314417" lon="8.6837517"><ele>16.0</ele><time>2026-04-30T16:17:17.713Z</time></trkpt><trkpt lat="39.93139" lon="8.683595"><ele>16.25</ele><time>2026-04-30T16:17:18.716Z</time></trkpt><trkpt lat="39.9313383" lon="8.6834483"><ele>16.5</ele><time>2026-04-30T16:17:19.715Z</time></trkpt><trkpt lat="39.93129" lon="8.6833067"><ele>16.75</ele><time>2026-04-30T16:17:20.738Z</time></trkpt><trkpt lat="39.9312517" lon="8.6831583"><ele>17.0</ele><time>2026-04-30T16:17:21.712Z</time></trkpt><trkpt lat="39.9312083" lon="8.6830283"><ele>17.0</ele><time>2026-04-30T16:17:22.717Z</time></trkpt><trkpt lat="39.9311667" lon="8.6829017"><ele>17.0</ele><time>2026-04-30T16:17:23.711Z</time></trkpt><trkpt lat="39.9311267" lon="8.6827767"><ele>17.0</ele><time>2026-04-30T16:17:24.716Z</time></trkpt><trkpt lat="39.9310883" lon="8.6826483"><ele>17.0</ele><time>2026-04-30T16:17:25.714Z</time></trkpt><trkpt lat="39.931055" lon="8.6825317"><ele>17.0</ele><time>2026-04-30T16:17:26.777Z</time></trkpt><trkpt lat="39.9310283" lon="8.6824267"><ele>15.0</ele><time>2026-04-30T16:17:27.713Z</time></trkpt><trkpt lat="39.9310083" lon="8.6823233"><ele>15.0</ele><time>2026-04-30T16:17:28.717Z</time></trkpt><trkpt lat="39.9309967" lon="8.6822233"><ele>15.0</ele><time>2026-04-30T16:17:29.719Z</time></trkpt><trkpt lat="39.9310033" lon="8.6821383"><ele>15.0</ele><time>2026-04-30T16:17:30.714Z</time></trkpt><trkpt lat="39.9310233" lon="8.6820017"><ele>15.0</ele><time>2026-04-30T16:17:32.759Z</time></trkpt><trkpt lat="39.9310167" lon="8.6819"><ele>15.0</ele><time>2026-04-30T16:17:34.711Z</time></trkpt></trkseg></trk></gpx>